<?xml version="1.0" encoding="UTF-8" standalone="no" ?>
<gpx xmlns="http://www.topografix.com/GPX/1/1" xmlns:xsi="http://www.w3.org/2001/XMLSchema-instance" xsi:schemaLocation="http://www.topografix.com/GPX/1/1 http://www.topografix.com/GPX/1/1/gpx.xsd" version="1.1" creator="VisuGPX - https://www.visugpx.com">
  <metadata>
    <name>Trail du Tignet - 14,7 km</name>
    <desc><![CDATA[Dimanche 17 novembre 2019
Parcours de 14,7 km
Renseignements sur www.running06.com]]></desc>
  </metadata>
  <trk>
    <name><![CDATA[Trail du Tignet - 14,7 km_1]]></name>
    <trkseg>
      <trkpt lat="43.62781" lon="6.84545">
        <ele>255</ele>
        <time>2019-02-07T07:41:40.000Z</time>
      </trkpt>
      <trkpt lat="43.62781" lon="6.84545">
        <ele>255</ele>
        <time>2019-02-07T07:41:41.000Z</time>
      </trkpt>
      <trkpt lat="43.6278" lon="6.84546">
        <ele>255</ele>
        <time>2019-02-07T07:41:42.000Z</time>
      </trkpt>
      <trkpt lat="43.62779" lon="6.84548">
        <ele>255</ele>
        <time>2019-02-07T07:41:43.000Z</time>
      </trkpt>
      <trkpt lat="43.62777" lon="6.84549">
        <ele>255</ele>
        <time>2019-02-07T07:41:44.000Z</time>
      </trkpt>
      <trkpt lat="43.62776" lon="6.84551">
        <ele>255</ele>
        <time>2019-02-07T07:41:45.000Z</time>
      </trkpt>
      <trkpt lat="43.62775" lon="6.84553">
        <ele>255</ele>
        <time>2019-02-07T07:41:46.000Z</time>
      </trkpt>
      <trkpt lat="43.62773" lon="6.84555">
        <ele>254</ele>
        <time>2019-02-07T07:41:47.000Z</time>
      </trkpt>
      <trkpt lat="43.62773" lon="6.84557">
        <ele>254</ele>
        <time>2019-02-07T07:41:48.000Z</time>
      </trkpt>
      <trkpt lat="43.62772" lon="6.8456">
        <ele>254</ele>
        <time>2019-02-07T07:41:49.000Z</time>
      </trkpt>
      <trkpt lat="43.62771" lon="6.84562">
        <ele>254</ele>
        <time>2019-02-07T07:41:50.000Z</time>
      </trkpt>
      <trkpt lat="43.62771" lon="6.84565">
        <ele>254</ele>
        <time>2019-02-07T07:41:51.000Z</time>
      </trkpt>
      <trkpt lat="43.6277" lon="6.84568">
        <ele>254</ele>
        <time>2019-02-07T07:41:52.000Z</time>
      </trkpt>
      <trkpt lat="43.6277" lon="6.84571">
        <ele>253</ele>
        <time>2019-02-07T07:41:53.000Z</time>
      </trkpt>
      <trkpt lat="43.6277" lon="6.84573">
        <ele>253</ele>
        <time>2019-02-07T07:41:54.000Z</time>
      </trkpt>
      <trkpt lat="43.6277" lon="6.84576">
        <ele>253</ele>
        <time>2019-02-07T07:41:55.000Z</time>
      </trkpt>
      <trkpt lat="43.6277" lon="6.84579">
        <ele>253</ele>
        <time>2019-02-07T07:41:56.000Z</time>
      </trkpt>
      <trkpt lat="43.6277" lon="6.84582">
        <ele>253</ele>
        <time>2019-02-07T07:41:57.000Z</time>
      </trkpt>
      <trkpt lat="43.6277" lon="6.84585">
        <ele>253</ele>
        <time>2019-02-07T07:41:58.000Z</time>
      </trkpt>
      <trkpt lat="43.62771" lon="6.84587">
        <ele>252</ele>
        <time>2019-02-07T07:41:59.000Z</time>
      </trkpt>
      <trkpt lat="43.62772" lon="6.8459">
        <ele>252</ele>
        <time>2019-02-07T07:42:00.000Z</time>
      </trkpt>
      <trkpt lat="43.62772" lon="6.84593">
        <ele>252</ele>
        <time>2019-02-07T07:42:01.000Z</time>
      </trkpt>
      <trkpt lat="43.62773" lon="6.84595">
        <ele>252</ele>
        <time>2019-02-07T07:42:02.000Z</time>
      </trkpt>
      <trkpt lat="43.62774" lon="6.84597">
        <ele>251</ele>
        <time>2019-02-07T07:42:03.000Z</time>
      </trkpt>
      <trkpt lat="43.62775" lon="6.846">
        <ele>251</ele>
        <time>2019-02-07T07:42:04.000Z</time>
      </trkpt>
      <trkpt lat="43.62776" lon="6.84602">
        <ele>250</ele>
        <time>2019-02-07T07:42:05.000Z</time>
      </trkpt>
      <trkpt lat="43.62778" lon="6.84604">
        <ele>250</ele>
        <time>2019-02-07T07:42:06.000Z</time>
      </trkpt>
      <trkpt lat="43.62779" lon="6.84606">
        <ele>250</ele>
        <time>2019-02-07T07:42:07.000Z</time>
      </trkpt>
      <trkpt lat="43.6278" lon="6.84608">
        <ele>250</ele>
        <time>2019-02-07T07:42:08.000Z</time>
      </trkpt>
      <trkpt lat="43.62782" lon="6.84609">
        <ele>249</ele>
        <time>2019-02-07T07:42:09.000Z</time>
      </trkpt>
      <trkpt lat="43.62783" lon="6.84611">
        <ele>249</ele>
        <time>2019-02-07T07:42:10.000Z</time>
      </trkpt>
      <trkpt lat="43.62785" lon="6.84612">
        <ele>249</ele>
        <time>2019-02-07T07:42:11.000Z</time>
      </trkpt>
      <trkpt lat="43.62786" lon="6.84614">
        <ele>248</ele>
        <time>2019-02-07T07:42:12.000Z</time>
      </trkpt>
      <trkpt lat="43.62788" lon="6.84615">
        <ele>248</ele>
        <time>2019-02-07T07:42:13.000Z</time>
      </trkpt>
      <trkpt lat="43.6279" lon="6.84616">
        <ele>247</ele>
        <time>2019-02-07T07:42:14.000Z</time>
      </trkpt>
      <trkpt lat="43.62791" lon="6.84618">
        <ele>247</ele>
        <time>2019-02-07T07:42:15.000Z</time>
      </trkpt>
      <trkpt lat="43.62791" lon="6.8462">
        <ele>246</ele>
        <time>2019-02-07T07:42:16.000Z</time>
      </trkpt>
      <trkpt lat="43.6279" lon="6.84622">
        <ele>245</ele>
        <time>2019-02-07T07:42:17.000Z</time>
      </trkpt>
      <trkpt lat="43.62788" lon="6.84622">
        <ele>244</ele>
        <time>2019-02-07T07:42:18.000Z</time>
      </trkpt>
      <trkpt lat="43.62785" lon="6.84623">
        <ele>243</ele>
        <time>2019-02-07T07:42:19.000Z</time>
      </trkpt>
      <trkpt lat="43.62783" lon="6.84622">
        <ele>242</ele>
        <time>2019-02-07T07:42:20.000Z</time>
      </trkpt>
      <trkpt lat="43.62781" lon="6.84622">
        <ele>242</ele>
        <time>2019-02-07T07:42:21.000Z</time>
      </trkpt>
      <trkpt lat="43.62778" lon="6.84622">
        <ele>241</ele>
        <time>2019-02-07T07:42:22.000Z</time>
      </trkpt>
      <trkpt lat="43.62776" lon="6.84622">
        <ele>241</ele>
        <time>2019-02-07T07:42:23.000Z</time>
      </trkpt>
      <trkpt lat="43.62773" lon="6.84622">
        <ele>241</ele>
        <time>2019-02-07T07:42:24.000Z</time>
      </trkpt>
      <trkpt lat="43.62771" lon="6.84621">
        <ele>241</ele>
        <time>2019-02-07T07:42:25.000Z</time>
      </trkpt>
      <trkpt lat="43.62768" lon="6.84621">
        <ele>240</ele>
        <time>2019-02-07T07:42:26.000Z</time>
      </trkpt>
      <trkpt lat="43.62766" lon="6.8462">
        <ele>241</ele>
        <time>2019-02-07T07:42:27.000Z</time>
      </trkpt>
      <trkpt lat="43.62763" lon="6.84619">
        <ele>241</ele>
        <time>2019-02-07T07:42:28.000Z</time>
      </trkpt>
      <trkpt lat="43.62761" lon="6.84619">
        <ele>240</ele>
        <time>2019-02-07T07:42:29.000Z</time>
      </trkpt>
      <trkpt lat="43.62759" lon="6.84618">
        <ele>241</ele>
        <time>2019-02-07T07:42:30.000Z</time>
      </trkpt>
      <trkpt lat="43.62757" lon="6.84617">
        <ele>240</ele>
        <time>2019-02-07T07:42:31.000Z</time>
      </trkpt>
      <trkpt lat="43.62754" lon="6.84617">
        <ele>240</ele>
        <time>2019-02-07T07:42:32.000Z</time>
      </trkpt>
      <trkpt lat="43.62752" lon="6.84617">
        <ele>239</ele>
        <time>2019-02-07T07:42:33.000Z</time>
      </trkpt>
      <trkpt lat="43.62749" lon="6.84616">
        <ele>239</ele>
        <time>2019-02-07T07:42:34.000Z</time>
      </trkpt>
      <trkpt lat="43.62747" lon="6.84616">
        <ele>239</ele>
        <time>2019-02-07T07:42:35.000Z</time>
      </trkpt>
      <trkpt lat="43.62745" lon="6.84616">
        <ele>238</ele>
        <time>2019-02-07T07:42:36.000Z</time>
      </trkpt>
      <trkpt lat="43.62743" lon="6.84616">
        <ele>238</ele>
        <time>2019-02-07T07:42:37.000Z</time>
      </trkpt>
      <trkpt lat="43.62741" lon="6.84617">
        <ele>238</ele>
        <time>2019-02-07T07:42:38.000Z</time>
      </trkpt>
      <trkpt lat="43.62739" lon="6.84617">
        <ele>237</ele>
        <time>2019-02-07T07:42:39.000Z</time>
      </trkpt>
      <trkpt lat="43.62736" lon="6.84617">
        <ele>236</ele>
        <time>2019-02-07T07:42:40.000Z</time>
      </trkpt>
      <trkpt lat="43.62734" lon="6.84618">
        <ele>236</ele>
        <time>2019-02-07T07:42:41.000Z</time>
      </trkpt>
      <trkpt lat="43.62732" lon="6.84619">
        <ele>236</ele>
        <time>2019-02-07T07:42:42.000Z</time>
      </trkpt>
      <trkpt lat="43.6273" lon="6.8462">
        <ele>235</ele>
        <time>2019-02-07T07:42:43.000Z</time>
      </trkpt>
      <trkpt lat="43.62727" lon="6.84621">
        <ele>236</ele>
        <time>2019-02-07T07:42:44.000Z</time>
      </trkpt>
      <trkpt lat="43.62725" lon="6.84621">
        <ele>236</ele>
        <time>2019-02-07T07:42:45.000Z</time>
      </trkpt>
      <trkpt lat="43.62722" lon="6.84622">
        <ele>236</ele>
        <time>2019-02-07T07:42:46.000Z</time>
      </trkpt>
      <trkpt lat="43.6272" lon="6.84623">
        <ele>236</ele>
        <time>2019-02-07T07:42:47.000Z</time>
      </trkpt>
      <trkpt lat="43.62718" lon="6.84624">
        <ele>236</ele>
        <time>2019-02-07T07:42:48.000Z</time>
      </trkpt>
      <trkpt lat="43.62716" lon="6.84625">
        <ele>236</ele>
        <time>2019-02-07T07:42:49.000Z</time>
      </trkpt>
      <trkpt lat="43.62714" lon="6.84625">
        <ele>236</ele>
        <time>2019-02-07T07:42:50.000Z</time>
      </trkpt>
      <trkpt lat="43.62712" lon="6.84625">
        <ele>235</ele>
        <time>2019-02-07T07:42:51.000Z</time>
      </trkpt>
      <trkpt lat="43.6271" lon="6.84625">
        <ele>235</ele>
        <time>2019-02-07T07:42:52.000Z</time>
      </trkpt>
      <trkpt lat="43.62708" lon="6.84626">
        <ele>235</ele>
        <time>2019-02-07T07:42:53.000Z</time>
      </trkpt>
      <trkpt lat="43.62706" lon="6.84625">
        <ele>234</ele>
        <time>2019-02-07T07:42:54.000Z</time>
      </trkpt>
      <trkpt lat="43.62704" lon="6.84625">
        <ele>233</ele>
        <time>2019-02-07T07:42:55.000Z</time>
      </trkpt>
      <trkpt lat="43.62702" lon="6.84625">
        <ele>233</ele>
        <time>2019-02-07T07:42:56.000Z</time>
      </trkpt>
      <trkpt lat="43.62699" lon="6.84625">
        <ele>233</ele>
        <time>2019-02-07T07:42:57.000Z</time>
      </trkpt>
      <trkpt lat="43.62697" lon="6.84625">
        <ele>233</ele>
        <time>2019-02-07T07:42:58.000Z</time>
      </trkpt>
      <trkpt lat="43.62695" lon="6.84625">
        <ele>232</ele>
        <time>2019-02-07T07:42:59.000Z</time>
      </trkpt>
      <trkpt lat="43.62692" lon="6.84625">
        <ele>232</ele>
        <time>2019-02-07T07:43:00.000Z</time>
      </trkpt>
      <trkpt lat="43.62689" lon="6.84626">
        <ele>233</ele>
        <time>2019-02-07T07:43:01.000Z</time>
      </trkpt>
      <trkpt lat="43.62686" lon="6.84626">
        <ele>233</ele>
        <time>2019-02-07T07:43:02.000Z</time>
      </trkpt>
      <trkpt lat="43.62683" lon="6.84627">
        <ele>235</ele>
        <time>2019-02-07T07:43:03.000Z</time>
      </trkpt>
      <trkpt lat="43.62681" lon="6.84627">
        <ele>235</ele>
        <time>2019-02-07T07:43:04.000Z</time>
      </trkpt>
      <trkpt lat="43.62678" lon="6.84627">
        <ele>234</ele>
        <time>2019-02-07T07:43:05.000Z</time>
      </trkpt>
      <trkpt lat="43.62676" lon="6.84626">
        <ele>235</ele>
        <time>2019-02-07T07:43:06.000Z</time>
      </trkpt>
      <trkpt lat="43.62673" lon="6.84626">
        <ele>235</ele>
        <time>2019-02-07T07:43:07.000Z</time>
      </trkpt>
      <trkpt lat="43.62671" lon="6.84626">
        <ele>235</ele>
        <time>2019-02-07T07:43:08.000Z</time>
      </trkpt>
      <trkpt lat="43.62669" lon="6.84625">
        <ele>234</ele>
        <time>2019-02-07T07:43:09.000Z</time>
      </trkpt>
      <trkpt lat="43.62666" lon="6.84624">
        <ele>234</ele>
        <time>2019-02-07T07:43:10.000Z</time>
      </trkpt>
      <trkpt lat="43.62664" lon="6.84624">
        <ele>233</ele>
        <time>2019-02-07T07:43:11.000Z</time>
      </trkpt>
      <trkpt lat="43.62662" lon="6.84623">
        <ele>232</ele>
        <time>2019-02-07T07:43:12.000Z</time>
      </trkpt>
      <trkpt lat="43.6266" lon="6.84623">
        <ele>232</ele>
        <time>2019-02-07T07:43:13.000Z</time>
      </trkpt>
      <trkpt lat="43.62658" lon="6.84622">
        <ele>231</ele>
        <time>2019-02-07T07:43:14.000Z</time>
      </trkpt>
      <trkpt lat="43.62655" lon="6.84622">
        <ele>231</ele>
        <time>2019-02-07T07:43:15.000Z</time>
      </trkpt>
      <trkpt lat="43.62653" lon="6.84622">
        <ele>231</ele>
        <time>2019-02-07T07:43:16.000Z</time>
      </trkpt>
      <trkpt lat="43.6265" lon="6.84621">
        <ele>232</ele>
        <time>2019-02-07T07:43:17.000Z</time>
      </trkpt>
      <trkpt lat="43.62648" lon="6.8462">
        <ele>232</ele>
        <time>2019-02-07T07:43:18.000Z</time>
      </trkpt>
      <trkpt lat="43.62645" lon="6.84618">
        <ele>233</ele>
        <time>2019-02-07T07:43:19.000Z</time>
      </trkpt>
      <trkpt lat="43.62643" lon="6.84617">
        <ele>233</ele>
        <time>2019-02-07T07:43:20.000Z</time>
      </trkpt>
      <trkpt lat="43.62641" lon="6.84616">
        <ele>233</ele>
        <time>2019-02-07T07:43:21.000Z</time>
      </trkpt>
      <trkpt lat="43.62639" lon="6.84615">
        <ele>233</ele>
        <time>2019-02-07T07:43:22.000Z</time>
      </trkpt>
      <trkpt lat="43.62637" lon="6.84613">
        <ele>233</ele>
        <time>2019-02-07T07:43:23.000Z</time>
      </trkpt>
      <trkpt lat="43.62635" lon="6.84611">
        <ele>233</ele>
        <time>2019-02-07T07:43:24.000Z</time>
      </trkpt>
      <trkpt lat="43.62633" lon="6.84609">
        <ele>233</ele>
        <time>2019-02-07T07:43:25.000Z</time>
      </trkpt>
      <trkpt lat="43.62631" lon="6.84607">
        <ele>233</ele>
        <time>2019-02-07T07:43:26.000Z</time>
      </trkpt>
      <trkpt lat="43.62629" lon="6.84605">
        <ele>233</ele>
        <time>2019-02-07T07:43:27.000Z</time>
      </trkpt>
      <trkpt lat="43.62627" lon="6.84603">
        <ele>234</ele>
        <time>2019-02-07T07:43:28.000Z</time>
      </trkpt>
      <trkpt lat="43.62624" lon="6.84602">
        <ele>234</ele>
        <time>2019-02-07T07:43:29.000Z</time>
      </trkpt>
      <trkpt lat="43.62622" lon="6.846">
        <ele>235</ele>
        <time>2019-02-07T07:43:30.000Z</time>
      </trkpt>
      <trkpt lat="43.6262" lon="6.84598">
        <ele>235</ele>
        <time>2019-02-07T07:43:31.000Z</time>
      </trkpt>
      <trkpt lat="43.62618" lon="6.84596">
        <ele>236</ele>
        <time>2019-02-07T07:43:32.000Z</time>
      </trkpt>
      <trkpt lat="43.62616" lon="6.84594">
        <ele>236</ele>
        <time>2019-02-07T07:43:33.000Z</time>
      </trkpt>
      <trkpt lat="43.62614" lon="6.84592">
        <ele>236</ele>
        <time>2019-02-07T07:43:34.000Z</time>
      </trkpt>
      <trkpt lat="43.62612" lon="6.8459">
        <ele>236</ele>
        <time>2019-02-07T07:43:35.000Z</time>
      </trkpt>
      <trkpt lat="43.6261" lon="6.84588">
        <ele>235</ele>
        <time>2019-02-07T07:43:36.000Z</time>
      </trkpt>
      <trkpt lat="43.62608" lon="6.84586">
        <ele>235</ele>
        <time>2019-02-07T07:43:37.000Z</time>
      </trkpt>
      <trkpt lat="43.62606" lon="6.84584">
        <ele>235</ele>
        <time>2019-02-07T07:43:38.000Z</time>
      </trkpt>
      <trkpt lat="43.62605" lon="6.84582">
        <ele>235</ele>
        <time>2019-02-07T07:43:39.000Z</time>
      </trkpt>
      <trkpt lat="43.62603" lon="6.8458">
        <ele>235</ele>
        <time>2019-02-07T07:43:40.000Z</time>
      </trkpt>
      <trkpt lat="43.62601" lon="6.84578">
        <ele>235</ele>
        <time>2019-02-07T07:43:41.000Z</time>
      </trkpt>
      <trkpt lat="43.62599" lon="6.84576">
        <ele>235</ele>
        <time>2019-02-07T07:43:42.000Z</time>
      </trkpt>
      <trkpt lat="43.62597" lon="6.84574">
        <ele>235</ele>
        <time>2019-02-07T07:43:43.000Z</time>
      </trkpt>
      <trkpt lat="43.62595" lon="6.84572">
        <ele>234</ele>
        <time>2019-02-07T07:43:44.000Z</time>
      </trkpt>
      <trkpt lat="43.62593" lon="6.8457">
        <ele>234</ele>
        <time>2019-02-07T07:43:45.000Z</time>
      </trkpt>
      <trkpt lat="43.62592" lon="6.84569">
        <ele>234</ele>
        <time>2019-02-07T07:43:46.000Z</time>
      </trkpt>
      <trkpt lat="43.62591" lon="6.84567">
        <ele>234</ele>
        <time>2019-02-07T07:43:47.000Z</time>
      </trkpt>
      <trkpt lat="43.6259" lon="6.84565">
        <ele>234</ele>
        <time>2019-02-07T07:43:48.000Z</time>
      </trkpt>
      <trkpt lat="43.62588" lon="6.84563">
        <ele>233</ele>
        <time>2019-02-07T07:43:49.000Z</time>
      </trkpt>
      <trkpt lat="43.62587" lon="6.8456">
        <ele>233</ele>
        <time>2019-02-07T07:43:50.000Z</time>
      </trkpt>
      <trkpt lat="43.62586" lon="6.84558">
        <ele>234</ele>
        <time>2019-02-07T07:43:51.000Z</time>
      </trkpt>
      <trkpt lat="43.62585" lon="6.84556">
        <ele>234</ele>
        <time>2019-02-07T07:43:52.000Z</time>
      </trkpt>
      <trkpt lat="43.62583" lon="6.84553">
        <ele>234</ele>
        <time>2019-02-07T07:43:53.000Z</time>
      </trkpt>
      <trkpt lat="43.62581" lon="6.84551">
        <ele>234</ele>
        <time>2019-02-07T07:43:54.000Z</time>
      </trkpt>
      <trkpt lat="43.6258" lon="6.84548">
        <ele>233</ele>
        <time>2019-02-07T07:43:55.000Z</time>
      </trkpt>
      <trkpt lat="43.62578" lon="6.84545">
        <ele>233</ele>
        <time>2019-02-07T07:43:56.000Z</time>
      </trkpt>
      <trkpt lat="43.62577" lon="6.84542">
        <ele>234</ele>
        <time>2019-02-07T07:43:57.000Z</time>
      </trkpt>
      <trkpt lat="43.62576" lon="6.84539">
        <ele>234</ele>
        <time>2019-02-07T07:43:58.000Z</time>
      </trkpt>
      <trkpt lat="43.62575" lon="6.84537">
        <ele>234</ele>
        <time>2019-02-07T07:43:59.000Z</time>
      </trkpt>
      <trkpt lat="43.62574" lon="6.84534">
        <ele>233</ele>
        <time>2019-02-07T07:44:00.000Z</time>
      </trkpt>
      <trkpt lat="43.62572" lon="6.84532">
        <ele>233</ele>
        <time>2019-02-07T07:44:01.000Z</time>
      </trkpt>
      <trkpt lat="43.62571" lon="6.84529">
        <ele>232</ele>
        <time>2019-02-07T07:44:02.000Z</time>
      </trkpt>
      <trkpt lat="43.6257" lon="6.84527">
        <ele>232</ele>
        <time>2019-02-07T07:44:03.000Z</time>
      </trkpt>
      <trkpt lat="43.62569" lon="6.84525">
        <ele>232</ele>
        <time>2019-02-07T07:44:04.000Z</time>
      </trkpt>
      <trkpt lat="43.62567" lon="6.84522">
        <ele>232</ele>
        <time>2019-02-07T07:44:05.000Z</time>
      </trkpt>
      <trkpt lat="43.62565" lon="6.84519">
        <ele>232</ele>
        <time>2019-02-07T07:44:06.000Z</time>
      </trkpt>
      <trkpt lat="43.62563" lon="6.84517">
        <ele>232</ele>
        <time>2019-02-07T07:44:07.000Z</time>
      </trkpt>
      <trkpt lat="43.62562" lon="6.84514">
        <ele>232</ele>
        <time>2019-02-07T07:44:08.000Z</time>
      </trkpt>
      <trkpt lat="43.6256" lon="6.84512">
        <ele>232</ele>
        <time>2019-02-07T07:44:09.000Z</time>
      </trkpt>
      <trkpt lat="43.62559" lon="6.84509">
        <ele>232</ele>
        <time>2019-02-07T07:44:10.000Z</time>
      </trkpt>
      <trkpt lat="43.62558" lon="6.84506">
        <ele>233</ele>
        <time>2019-02-07T07:44:11.000Z</time>
      </trkpt>
      <trkpt lat="43.62557" lon="6.84503">
        <ele>234</ele>
        <time>2019-02-07T07:44:12.000Z</time>
      </trkpt>
      <trkpt lat="43.62556" lon="6.845">
        <ele>234</ele>
        <time>2019-02-07T07:44:13.000Z</time>
      </trkpt>
      <trkpt lat="43.62555" lon="6.84497">
        <ele>236</ele>
        <time>2019-02-07T07:44:14.000Z</time>
      </trkpt>
      <trkpt lat="43.62554" lon="6.84494">
        <ele>237</ele>
        <time>2019-02-07T07:44:15.000Z</time>
      </trkpt>
      <trkpt lat="43.62553" lon="6.84491">
        <ele>238</ele>
        <time>2019-02-07T07:44:16.000Z</time>
      </trkpt>
      <trkpt lat="43.62552" lon="6.84488">
        <ele>238</ele>
        <time>2019-02-07T07:44:17.000Z</time>
      </trkpt>
      <trkpt lat="43.62551" lon="6.84484">
        <ele>238</ele>
        <time>2019-02-07T07:44:18.000Z</time>
      </trkpt>
      <trkpt lat="43.6255" lon="6.84481">
        <ele>239</ele>
        <time>2019-02-07T07:44:19.000Z</time>
      </trkpt>
      <trkpt lat="43.62549" lon="6.84478">
        <ele>239</ele>
        <time>2019-02-07T07:44:20.000Z</time>
      </trkpt>
      <trkpt lat="43.62549" lon="6.84475">
        <ele>239</ele>
        <time>2019-02-07T07:44:21.000Z</time>
      </trkpt>
      <trkpt lat="43.62548" lon="6.84472">
        <ele>240</ele>
        <time>2019-02-07T07:44:22.000Z</time>
      </trkpt>
      <trkpt lat="43.62548" lon="6.84468">
        <ele>239</ele>
        <time>2019-02-07T07:44:23.000Z</time>
      </trkpt>
      <trkpt lat="43.62547" lon="6.84465">
        <ele>239</ele>
        <time>2019-02-07T07:44:24.000Z</time>
      </trkpt>
      <trkpt lat="43.62547" lon="6.84462">
        <ele>239</ele>
        <time>2019-02-07T07:44:25.000Z</time>
      </trkpt>
      <trkpt lat="43.62546" lon="6.84459">
        <ele>238</ele>
        <time>2019-02-07T07:44:26.000Z</time>
      </trkpt>
      <trkpt lat="43.62546" lon="6.84455">
        <ele>237</ele>
        <time>2019-02-07T07:44:27.000Z</time>
      </trkpt>
      <trkpt lat="43.62545" lon="6.84452">
        <ele>237</ele>
        <time>2019-02-07T07:44:28.000Z</time>
      </trkpt>
      <trkpt lat="43.62545" lon="6.84449">
        <ele>237</ele>
        <time>2019-02-07T07:44:29.000Z</time>
      </trkpt>
      <trkpt lat="43.62544" lon="6.84446">
        <ele>236</ele>
        <time>2019-02-07T07:44:30.000Z</time>
      </trkpt>
      <trkpt lat="43.62543" lon="6.84443">
        <ele>236</ele>
        <time>2019-02-07T07:44:31.000Z</time>
      </trkpt>
      <trkpt lat="43.62542" lon="6.8444">
        <ele>236</ele>
        <time>2019-02-07T07:44:32.000Z</time>
      </trkpt>
      <trkpt lat="43.62541" lon="6.84438">
        <ele>235</ele>
        <time>2019-02-07T07:44:33.000Z</time>
      </trkpt>
      <trkpt lat="43.6254" lon="6.84435">
        <ele>234</ele>
        <time>2019-02-07T07:44:34.000Z</time>
      </trkpt>
      <trkpt lat="43.62538" lon="6.84433">
        <ele>234</ele>
        <time>2019-02-07T07:44:35.000Z</time>
      </trkpt>
      <trkpt lat="43.62536" lon="6.8443">
        <ele>234</ele>
        <time>2019-02-07T07:44:36.000Z</time>
      </trkpt>
      <trkpt lat="43.62534" lon="6.84428">
        <ele>234</ele>
        <time>2019-02-07T07:44:37.000Z</time>
      </trkpt>
      <trkpt lat="43.62532" lon="6.84427">
        <ele>233</ele>
        <time>2019-02-07T07:44:38.000Z</time>
      </trkpt>
      <trkpt lat="43.6253" lon="6.84425">
        <ele>232</ele>
        <time>2019-02-07T07:44:39.000Z</time>
      </trkpt>
      <trkpt lat="43.62528" lon="6.84423">
        <ele>232</ele>
        <time>2019-02-07T07:44:40.000Z</time>
      </trkpt>
      <trkpt lat="43.62525" lon="6.84422">
        <ele>232</ele>
        <time>2019-02-07T07:44:41.000Z</time>
      </trkpt>
      <trkpt lat="43.62523" lon="6.84421">
        <ele>231</ele>
        <time>2019-02-07T07:44:42.000Z</time>
      </trkpt>
      <trkpt lat="43.62521" lon="6.8442">
        <ele>231</ele>
        <time>2019-02-07T07:44:43.000Z</time>
      </trkpt>
      <trkpt lat="43.62518" lon="6.84419">
        <ele>231</ele>
        <time>2019-02-07T07:44:44.000Z</time>
      </trkpt>
      <trkpt lat="43.62516" lon="6.84418">
        <ele>230</ele>
        <time>2019-02-07T07:44:45.000Z</time>
      </trkpt>
      <trkpt lat="43.62514" lon="6.84416">
        <ele>230</ele>
        <time>2019-02-07T07:44:46.000Z</time>
      </trkpt>
      <trkpt lat="43.62512" lon="6.84415">
        <ele>230</ele>
        <time>2019-02-07T07:44:47.000Z</time>
      </trkpt>
      <trkpt lat="43.6251" lon="6.84413">
        <ele>230</ele>
        <time>2019-02-07T07:44:48.000Z</time>
      </trkpt>
      <trkpt lat="43.62509" lon="6.84411">
        <ele>230</ele>
        <time>2019-02-07T07:44:49.000Z</time>
      </trkpt>
      <trkpt lat="43.62507" lon="6.84409">
        <ele>231</ele>
        <time>2019-02-07T07:44:50.000Z</time>
      </trkpt>
      <trkpt lat="43.62506" lon="6.84408">
        <ele>231</ele>
        <time>2019-02-07T07:44:51.000Z</time>
      </trkpt>
      <trkpt lat="43.62505" lon="6.84406">
        <ele>231</ele>
        <time>2019-02-07T07:44:52.000Z</time>
      </trkpt>
      <trkpt lat="43.62504" lon="6.84403">
        <ele>231</ele>
        <time>2019-02-07T07:44:53.000Z</time>
      </trkpt>
      <trkpt lat="43.62502" lon="6.84401">
        <ele>231</ele>
        <time>2019-02-07T07:44:54.000Z</time>
      </trkpt>
      <trkpt lat="43.62501" lon="6.84399">
        <ele>231</ele>
        <time>2019-02-07T07:44:55.000Z</time>
      </trkpt>
      <trkpt lat="43.62501" lon="6.84396">
        <ele>232</ele>
        <time>2019-02-07T07:44:56.000Z</time>
      </trkpt>
      <trkpt lat="43.62501" lon="6.84393">
        <ele>233</ele>
        <time>2019-02-07T07:44:57.000Z</time>
      </trkpt>
      <trkpt lat="43.62501" lon="6.84389">
        <ele>234</ele>
        <time>2019-02-07T07:44:58.000Z</time>
      </trkpt>
      <trkpt lat="43.62501" lon="6.84386">
        <ele>233</ele>
        <time>2019-02-07T07:44:59.000Z</time>
      </trkpt>
      <trkpt lat="43.62501" lon="6.84383">
        <ele>233</ele>
        <time>2019-02-07T07:45:00.000Z</time>
      </trkpt>
      <trkpt lat="43.625" lon="6.8438">
        <ele>233</ele>
        <time>2019-02-07T07:45:01.000Z</time>
      </trkpt>
      <trkpt lat="43.625" lon="6.84377">
        <ele>233</ele>
        <time>2019-02-07T07:45:02.000Z</time>
      </trkpt>
      <trkpt lat="43.625" lon="6.84374">
        <ele>233</ele>
        <time>2019-02-07T07:45:03.000Z</time>
      </trkpt>
      <trkpt lat="43.625" lon="6.84371">
        <ele>232</ele>
        <time>2019-02-07T07:45:04.000Z</time>
      </trkpt>
      <trkpt lat="43.62499" lon="6.84369">
        <ele>232</ele>
        <time>2019-02-07T07:45:05.000Z</time>
      </trkpt>
      <trkpt lat="43.62498" lon="6.84366">
        <ele>231</ele>
        <time>2019-02-07T07:45:06.000Z</time>
      </trkpt>
      <trkpt lat="43.62498" lon="6.84363">
        <ele>231</ele>
        <time>2019-02-07T07:45:07.000Z</time>
      </trkpt>
      <trkpt lat="43.62498" lon="6.8436">
        <ele>231</ele>
        <time>2019-02-07T07:45:08.000Z</time>
      </trkpt>
      <trkpt lat="43.62497" lon="6.84357">
        <ele>230</ele>
        <time>2019-02-07T07:45:09.000Z</time>
      </trkpt>
      <trkpt lat="43.62497" lon="6.84354">
        <ele>230</ele>
        <time>2019-02-07T07:45:10.000Z</time>
      </trkpt>
      <trkpt lat="43.62496" lon="6.84351">
        <ele>230</ele>
        <time>2019-02-07T07:45:11.000Z</time>
      </trkpt>
      <trkpt lat="43.62495" lon="6.84347">
        <ele>230</ele>
        <time>2019-02-07T07:45:12.000Z</time>
      </trkpt>
      <trkpt lat="43.62494" lon="6.84343">
        <ele>230</ele>
        <time>2019-02-07T07:45:13.000Z</time>
      </trkpt>
      <trkpt lat="43.62493" lon="6.8434">
        <ele>229</ele>
        <time>2019-02-07T07:45:14.000Z</time>
      </trkpt>
      <trkpt lat="43.62493" lon="6.84337">
        <ele>229</ele>
        <time>2019-02-07T07:45:15.000Z</time>
      </trkpt>
      <trkpt lat="43.62492" lon="6.84333">
        <ele>230</ele>
        <time>2019-02-07T07:45:16.000Z</time>
      </trkpt>
      <trkpt lat="43.62491" lon="6.8433">
        <ele>230</ele>
        <time>2019-02-07T07:45:17.000Z</time>
      </trkpt>
      <trkpt lat="43.62491" lon="6.84327">
        <ele>229</ele>
        <time>2019-02-07T07:45:18.000Z</time>
      </trkpt>
      <trkpt lat="43.6249" lon="6.84324">
        <ele>229</ele>
        <time>2019-02-07T07:45:19.000Z</time>
      </trkpt>
      <trkpt lat="43.62489" lon="6.84321">
        <ele>229</ele>
        <time>2019-02-07T07:45:20.000Z</time>
      </trkpt>
      <trkpt lat="43.62488" lon="6.84318">
        <ele>228</ele>
        <time>2019-02-07T07:45:21.000Z</time>
      </trkpt>
      <trkpt lat="43.62487" lon="6.84315">
        <ele>228</ele>
        <time>2019-02-07T07:45:22.000Z</time>
      </trkpt>
      <trkpt lat="43.62486" lon="6.84312">
        <ele>228</ele>
        <time>2019-02-07T07:45:23.000Z</time>
      </trkpt>
      <trkpt lat="43.62485" lon="6.8431">
        <ele>228</ele>
        <time>2019-02-07T07:45:24.000Z</time>
      </trkpt>
      <trkpt lat="43.62485" lon="6.84307">
        <ele>228</ele>
        <time>2019-02-07T07:45:25.000Z</time>
      </trkpt>
      <trkpt lat="43.62484" lon="6.84304">
        <ele>227</ele>
        <time>2019-02-07T07:45:26.000Z</time>
      </trkpt>
      <trkpt lat="43.62483" lon="6.84302">
        <ele>226</ele>
        <time>2019-02-07T07:45:27.000Z</time>
      </trkpt>
      <trkpt lat="43.62482" lon="6.84299">
        <ele>225</ele>
        <time>2019-02-07T07:45:28.000Z</time>
      </trkpt>
      <trkpt lat="43.62481" lon="6.84297">
        <ele>224</ele>
        <time>2019-02-07T07:45:29.000Z</time>
      </trkpt>
      <trkpt lat="43.62481" lon="6.84294">
        <ele>224</ele>
        <time>2019-02-07T07:45:30.000Z</time>
      </trkpt>
      <trkpt lat="43.6248" lon="6.84291">
        <ele>223</ele>
        <time>2019-02-07T07:45:31.000Z</time>
      </trkpt>
      <trkpt lat="43.62479" lon="6.84288">
        <ele>223</ele>
        <time>2019-02-07T07:45:32.000Z</time>
      </trkpt>
      <trkpt lat="43.62479" lon="6.84285">
        <ele>222</ele>
        <time>2019-02-07T07:45:33.000Z</time>
      </trkpt>
      <trkpt lat="43.62478" lon="6.84281">
        <ele>222</ele>
        <time>2019-02-07T07:45:34.000Z</time>
      </trkpt>
      <trkpt lat="43.62478" lon="6.84278">
        <ele>222</ele>
        <time>2019-02-07T07:45:35.000Z</time>
      </trkpt>
      <trkpt lat="43.62479" lon="6.84275">
        <ele>221</ele>
        <time>2019-02-07T07:45:36.000Z</time>
      </trkpt>
      <trkpt lat="43.62479" lon="6.84271">
        <ele>221</ele>
        <time>2019-02-07T07:45:37.000Z</time>
      </trkpt>
      <trkpt lat="43.62479" lon="6.84268">
        <ele>219</ele>
        <time>2019-02-07T07:45:38.000Z</time>
      </trkpt>
      <trkpt lat="43.62479" lon="6.84266">
        <ele>218</ele>
        <time>2019-02-07T07:45:39.000Z</time>
      </trkpt>
      <trkpt lat="43.62479" lon="6.84262">
        <ele>217</ele>
        <time>2019-02-07T07:45:40.000Z</time>
      </trkpt>
      <trkpt lat="43.62479" lon="6.84259">
        <ele>217</ele>
        <time>2019-02-07T07:45:41.000Z</time>
      </trkpt>
      <trkpt lat="43.62479" lon="6.84255">
        <ele>216</ele>
        <time>2019-02-07T07:45:42.000Z</time>
      </trkpt>
      <trkpt lat="43.62478" lon="6.84252">
        <ele>216</ele>
        <time>2019-02-07T07:45:43.000Z</time>
      </trkpt>
      <trkpt lat="43.62478" lon="6.84248">
        <ele>215</ele>
        <time>2019-02-07T07:45:44.000Z</time>
      </trkpt>
      <trkpt lat="43.62477" lon="6.84245">
        <ele>216</ele>
        <time>2019-02-07T07:45:45.000Z</time>
      </trkpt>
      <trkpt lat="43.62477" lon="6.84242">
        <ele>215</ele>
        <time>2019-02-07T07:45:46.000Z</time>
      </trkpt>
      <trkpt lat="43.62476" lon="6.84238">
        <ele>216</ele>
        <time>2019-02-07T07:45:47.000Z</time>
      </trkpt>
      <trkpt lat="43.62475" lon="6.84235">
        <ele>216</ele>
        <time>2019-02-07T07:45:48.000Z</time>
      </trkpt>
      <trkpt lat="43.62475" lon="6.84231">
        <ele>216</ele>
        <time>2019-02-07T07:45:49.000Z</time>
      </trkpt>
      <trkpt lat="43.62474" lon="6.84228">
        <ele>215</ele>
        <time>2019-02-07T07:45:50.000Z</time>
      </trkpt>
      <trkpt lat="43.62474" lon="6.84225">
        <ele>215</ele>
        <time>2019-02-07T07:45:51.000Z</time>
      </trkpt>
      <trkpt lat="43.62473" lon="6.84221">
        <ele>214</ele>
        <time>2019-02-07T07:45:52.000Z</time>
      </trkpt>
      <trkpt lat="43.62472" lon="6.84218">
        <ele>215</ele>
        <time>2019-02-07T07:45:53.000Z</time>
      </trkpt>
      <trkpt lat="43.62472" lon="6.84215">
        <ele>215</ele>
        <time>2019-02-07T07:45:54.000Z</time>
      </trkpt>
      <trkpt lat="43.62471" lon="6.84212">
        <ele>215</ele>
        <time>2019-02-07T07:45:55.000Z</time>
      </trkpt>
      <trkpt lat="43.6247" lon="6.84209">
        <ele>215</ele>
        <time>2019-02-07T07:45:56.000Z</time>
      </trkpt>
      <trkpt lat="43.6247" lon="6.84206">
        <ele>215</ele>
        <time>2019-02-07T07:45:57.000Z</time>
      </trkpt>
      <trkpt lat="43.62469" lon="6.84203">
        <ele>215</ele>
        <time>2019-02-07T07:45:58.000Z</time>
      </trkpt>
      <trkpt lat="43.62469" lon="6.84201">
        <ele>214</ele>
        <time>2019-02-07T07:45:59.000Z</time>
      </trkpt>
      <trkpt lat="43.62467" lon="6.84198">
        <ele>214</ele>
        <time>2019-02-07T07:46:00.000Z</time>
      </trkpt>
      <trkpt lat="43.62466" lon="6.84195">
        <ele>213</ele>
        <time>2019-02-07T07:46:01.000Z</time>
      </trkpt>
      <trkpt lat="43.62465" lon="6.84193">
        <ele>213</ele>
        <time>2019-02-07T07:46:02.000Z</time>
      </trkpt>
      <trkpt lat="43.62464" lon="6.8419">
        <ele>213</ele>
        <time>2019-02-07T07:46:03.000Z</time>
      </trkpt>
      <trkpt lat="43.62462" lon="6.84188">
        <ele>213</ele>
        <time>2019-02-07T07:46:04.000Z</time>
      </trkpt>
      <trkpt lat="43.62461" lon="6.84185">
        <ele>213</ele>
        <time>2019-02-07T07:46:05.000Z</time>
      </trkpt>
      <trkpt lat="43.62459" lon="6.84183">
        <ele>213</ele>
        <time>2019-02-07T07:46:06.000Z</time>
      </trkpt>
      <trkpt lat="43.62458" lon="6.84181">
        <ele>212</ele>
        <time>2019-02-07T07:46:07.000Z</time>
      </trkpt>
      <trkpt lat="43.62457" lon="6.84179">
        <ele>213</ele>
        <time>2019-02-07T07:46:08.000Z</time>
      </trkpt>
      <trkpt lat="43.62455" lon="6.84177">
        <ele>212</ele>
        <time>2019-02-07T07:46:09.000Z</time>
      </trkpt>
      <trkpt lat="43.62454" lon="6.84175">
        <ele>211</ele>
        <time>2019-02-07T07:46:10.000Z</time>
      </trkpt>
      <trkpt lat="43.62452" lon="6.84172">
        <ele>210</ele>
        <time>2019-02-07T07:46:11.000Z</time>
      </trkpt>
      <trkpt lat="43.6245" lon="6.8417">
        <ele>209</ele>
        <time>2019-02-07T07:46:12.000Z</time>
      </trkpt>
      <trkpt lat="43.62449" lon="6.84168">
        <ele>209</ele>
        <time>2019-02-07T07:46:13.000Z</time>
      </trkpt>
      <trkpt lat="43.62447" lon="6.84165">
        <ele>209</ele>
        <time>2019-02-07T07:46:14.000Z</time>
      </trkpt>
      <trkpt lat="43.62445" lon="6.84163">
        <ele>208</ele>
        <time>2019-02-07T07:46:15.000Z</time>
      </trkpt>
      <trkpt lat="43.62443" lon="6.84161">
        <ele>207</ele>
        <time>2019-02-07T07:46:16.000Z</time>
      </trkpt>
      <trkpt lat="43.62441" lon="6.84158">
        <ele>207</ele>
        <time>2019-02-07T07:46:17.000Z</time>
      </trkpt>
      <trkpt lat="43.62439" lon="6.84156">
        <ele>206</ele>
        <time>2019-02-07T07:46:18.000Z</time>
      </trkpt>
      <trkpt lat="43.62438" lon="6.84153">
        <ele>206</ele>
        <time>2019-02-07T07:46:19.000Z</time>
      </trkpt>
      <trkpt lat="43.62436" lon="6.84151">
        <ele>205</ele>
        <time>2019-02-07T07:46:20.000Z</time>
      </trkpt>
      <trkpt lat="43.62434" lon="6.84148">
        <ele>205</ele>
        <time>2019-02-07T07:46:21.000Z</time>
      </trkpt>
      <trkpt lat="43.62432" lon="6.84146">
        <ele>205</ele>
        <time>2019-02-07T07:46:22.000Z</time>
      </trkpt>
      <trkpt lat="43.6243" lon="6.84143">
        <ele>205</ele>
        <time>2019-02-07T07:46:23.000Z</time>
      </trkpt>
      <trkpt lat="43.62428" lon="6.84141">
        <ele>204</ele>
        <time>2019-02-07T07:46:24.000Z</time>
      </trkpt>
      <trkpt lat="43.62427" lon="6.84139">
        <ele>204</ele>
        <time>2019-02-07T07:46:25.000Z</time>
      </trkpt>
      <trkpt lat="43.62425" lon="6.84137">
        <ele>203</ele>
        <time>2019-02-07T07:46:26.000Z</time>
      </trkpt>
      <trkpt lat="43.62422" lon="6.84135">
        <ele>202</ele>
        <time>2019-02-07T07:46:27.000Z</time>
      </trkpt>
      <trkpt lat="43.62421" lon="6.84133">
        <ele>201</ele>
        <time>2019-02-07T07:46:28.000Z</time>
      </trkpt>
      <trkpt lat="43.62419" lon="6.8413">
        <ele>202</ele>
        <time>2019-02-07T07:46:29.000Z</time>
      </trkpt>
      <trkpt lat="43.62417" lon="6.84128">
        <ele>202</ele>
        <time>2019-02-07T07:46:30.000Z</time>
      </trkpt>
      <trkpt lat="43.62415" lon="6.84126">
        <ele>201</ele>
        <time>2019-02-07T07:46:31.000Z</time>
      </trkpt>
      <trkpt lat="43.62413" lon="6.84123">
        <ele>202</ele>
        <time>2019-02-07T07:46:32.000Z</time>
      </trkpt>
      <trkpt lat="43.62412" lon="6.84121">
        <ele>202</ele>
        <time>2019-02-07T07:46:33.000Z</time>
      </trkpt>
      <trkpt lat="43.62411" lon="6.84118">
        <ele>201</ele>
        <time>2019-02-07T07:46:34.000Z</time>
      </trkpt>
      <trkpt lat="43.62409" lon="6.84116">
        <ele>202</ele>
        <time>2019-02-07T07:46:35.000Z</time>
      </trkpt>
      <trkpt lat="43.62407" lon="6.84113">
        <ele>202</ele>
        <time>2019-02-07T07:46:36.000Z</time>
      </trkpt>
      <trkpt lat="43.62406" lon="6.8411">
        <ele>202</ele>
        <time>2019-02-07T07:46:37.000Z</time>
      </trkpt>
      <trkpt lat="43.62404" lon="6.84108">
        <ele>201</ele>
        <time>2019-02-07T07:46:38.000Z</time>
      </trkpt>
      <trkpt lat="43.62402" lon="6.84106">
        <ele>201</ele>
        <time>2019-02-07T07:46:39.000Z</time>
      </trkpt>
      <trkpt lat="43.624" lon="6.84104">
        <ele>201</ele>
        <time>2019-02-07T07:46:40.000Z</time>
      </trkpt>
      <trkpt lat="43.62399" lon="6.84102">
        <ele>201</ele>
        <time>2019-02-07T07:46:41.000Z</time>
      </trkpt>
      <trkpt lat="43.62397" lon="6.84101">
        <ele>201</ele>
        <time>2019-02-07T07:46:42.000Z</time>
      </trkpt>
      <trkpt lat="43.62395" lon="6.841">
        <ele>201</ele>
        <time>2019-02-07T07:46:43.000Z</time>
      </trkpt>
      <trkpt lat="43.62393" lon="6.841">
        <ele>200</ele>
        <time>2019-02-07T07:46:44.000Z</time>
      </trkpt>
      <trkpt lat="43.62391" lon="6.84099">
        <ele>200</ele>
        <time>2019-02-07T07:46:45.000Z</time>
      </trkpt>
      <trkpt lat="43.62389" lon="6.84097">
        <ele>199</ele>
        <time>2019-02-07T07:46:46.000Z</time>
      </trkpt>
      <trkpt lat="43.62388" lon="6.84096">
        <ele>199</ele>
        <time>2019-02-07T07:46:47.000Z</time>
      </trkpt>
      <trkpt lat="43.62386" lon="6.84094">
        <ele>199</ele>
        <time>2019-02-07T07:46:48.000Z</time>
      </trkpt>
      <trkpt lat="43.62385" lon="6.84092">
        <ele>198</ele>
        <time>2019-02-07T07:46:49.000Z</time>
      </trkpt>
      <trkpt lat="43.62384" lon="6.84089">
        <ele>198</ele>
        <time>2019-02-07T07:46:50.000Z</time>
      </trkpt>
      <trkpt lat="43.62384" lon="6.84086">
        <ele>198</ele>
        <time>2019-02-07T07:46:51.000Z</time>
      </trkpt>
      <trkpt lat="43.62383" lon="6.84083">
        <ele>198</ele>
        <time>2019-02-07T07:46:52.000Z</time>
      </trkpt>
      <trkpt lat="43.62383" lon="6.8408">
        <ele>197</ele>
        <time>2019-02-07T07:46:53.000Z</time>
      </trkpt>
      <trkpt lat="43.62383" lon="6.84077">
        <ele>197</ele>
        <time>2019-02-07T07:46:54.000Z</time>
      </trkpt>
      <trkpt lat="43.62383" lon="6.84074">
        <ele>196</ele>
        <time>2019-02-07T07:46:55.000Z</time>
      </trkpt>
      <trkpt lat="43.62384" lon="6.84072">
        <ele>196</ele>
        <time>2019-02-07T07:46:56.000Z</time>
      </trkpt>
      <trkpt lat="43.62384" lon="6.84069">
        <ele>195</ele>
        <time>2019-02-07T07:46:57.000Z</time>
      </trkpt>
      <trkpt lat="43.62385" lon="6.84067">
        <ele>195</ele>
        <time>2019-02-07T07:46:58.000Z</time>
      </trkpt>
      <trkpt lat="43.62386" lon="6.84065">
        <ele>194</ele>
        <time>2019-02-07T07:46:59.000Z</time>
      </trkpt>
      <trkpt lat="43.62387" lon="6.84063">
        <ele>193</ele>
        <time>2019-02-07T07:47:00.000Z</time>
      </trkpt>
      <trkpt lat="43.62389" lon="6.8406">
        <ele>193</ele>
        <time>2019-02-07T07:47:01.000Z</time>
      </trkpt>
      <trkpt lat="43.6239" lon="6.84058">
        <ele>192</ele>
        <time>2019-02-07T07:47:02.000Z</time>
      </trkpt>
      <trkpt lat="43.62392" lon="6.84056">
        <ele>191</ele>
        <time>2019-02-07T07:47:03.000Z</time>
      </trkpt>
      <trkpt lat="43.62393" lon="6.84053">
        <ele>190</ele>
        <time>2019-02-07T07:47:04.000Z</time>
      </trkpt>
      <trkpt lat="43.62395" lon="6.84051">
        <ele>190</ele>
        <time>2019-02-07T07:47:05.000Z</time>
      </trkpt>
      <trkpt lat="43.62397" lon="6.84049">
        <ele>190</ele>
        <time>2019-02-07T07:47:06.000Z</time>
      </trkpt>
      <trkpt lat="43.62399" lon="6.84047">
        <ele>190</ele>
        <time>2019-02-07T07:47:07.000Z</time>
      </trkpt>
      <trkpt lat="43.62401" lon="6.84044">
        <ele>190</ele>
        <time>2019-02-07T07:47:08.000Z</time>
      </trkpt>
      <trkpt lat="43.62403" lon="6.84041">
        <ele>190</ele>
        <time>2019-02-07T07:47:09.000Z</time>
      </trkpt>
      <trkpt lat="43.62405" lon="6.84038">
        <ele>189</ele>
        <time>2019-02-07T07:47:10.000Z</time>
      </trkpt>
      <trkpt lat="43.62406" lon="6.84035">
        <ele>190</ele>
        <time>2019-02-07T07:47:11.000Z</time>
      </trkpt>
      <trkpt lat="43.62407" lon="6.84031">
        <ele>190</ele>
        <time>2019-02-07T07:47:12.000Z</time>
      </trkpt>
      <trkpt lat="43.62407" lon="6.84027">
        <ele>190</ele>
        <time>2019-02-07T07:47:13.000Z</time>
      </trkpt>
      <trkpt lat="43.62407" lon="6.84022">
        <ele>189</ele>
        <time>2019-02-07T07:47:14.000Z</time>
      </trkpt>
      <trkpt lat="43.62406" lon="6.84018">
        <ele>189</ele>
        <time>2019-02-07T07:47:15.000Z</time>
      </trkpt>
      <trkpt lat="43.62406" lon="6.84015">
        <ele>189</ele>
        <time>2019-02-07T07:47:16.000Z</time>
      </trkpt>
      <trkpt lat="43.62406" lon="6.84011">
        <ele>188</ele>
        <time>2019-02-07T07:47:17.000Z</time>
      </trkpt>
      <trkpt lat="43.62405" lon="6.84007">
        <ele>188</ele>
        <time>2019-02-07T07:47:18.000Z</time>
      </trkpt>
      <trkpt lat="43.62404" lon="6.84004">
        <ele>188</ele>
        <time>2019-02-07T07:47:19.000Z</time>
      </trkpt>
      <trkpt lat="43.62404" lon="6.84">
        <ele>187</ele>
        <time>2019-02-07T07:47:20.000Z</time>
      </trkpt>
      <trkpt lat="43.62403" lon="6.83997">
        <ele>187</ele>
        <time>2019-02-07T07:47:21.000Z</time>
      </trkpt>
      <trkpt lat="43.62402" lon="6.83993">
        <ele>187</ele>
        <time>2019-02-07T07:47:22.000Z</time>
      </trkpt>
      <trkpt lat="43.62401" lon="6.8399">
        <ele>187</ele>
        <time>2019-02-07T07:47:23.000Z</time>
      </trkpt>
      <trkpt lat="43.624" lon="6.83987">
        <ele>187</ele>
        <time>2019-02-07T07:47:24.000Z</time>
      </trkpt>
      <trkpt lat="43.62399" lon="6.83983">
        <ele>187</ele>
        <time>2019-02-07T07:47:25.000Z</time>
      </trkpt>
      <trkpt lat="43.62399" lon="6.8398">
        <ele>187</ele>
        <time>2019-02-07T07:47:26.000Z</time>
      </trkpt>
      <trkpt lat="43.62398" lon="6.83977">
        <ele>187</ele>
        <time>2019-02-07T07:47:27.000Z</time>
      </trkpt>
      <trkpt lat="43.62397" lon="6.83974">
        <ele>187</ele>
        <time>2019-02-07T07:47:28.000Z</time>
      </trkpt>
      <trkpt lat="43.62396" lon="6.8397">
        <ele>188</ele>
        <time>2019-02-07T07:47:29.000Z</time>
      </trkpt>
      <trkpt lat="43.62395" lon="6.83967">
        <ele>188</ele>
        <time>2019-02-07T07:47:30.000Z</time>
      </trkpt>
      <trkpt lat="43.62394" lon="6.83964">
        <ele>188</ele>
        <time>2019-02-07T07:47:31.000Z</time>
      </trkpt>
      <trkpt lat="43.62392" lon="6.83961">
        <ele>188</ele>
        <time>2019-02-07T07:47:32.000Z</time>
      </trkpt>
      <trkpt lat="43.62391" lon="6.83958">
        <ele>189</ele>
        <time>2019-02-07T07:47:33.000Z</time>
      </trkpt>
      <trkpt lat="43.6239" lon="6.83955">
        <ele>189</ele>
        <time>2019-02-07T07:47:34.000Z</time>
      </trkpt>
      <trkpt lat="43.62388" lon="6.83952">
        <ele>190</ele>
        <time>2019-02-07T07:47:35.000Z</time>
      </trkpt>
      <trkpt lat="43.62387" lon="6.8395">
        <ele>190</ele>
        <time>2019-02-07T07:47:36.000Z</time>
      </trkpt>
      <trkpt lat="43.62386" lon="6.83948">
        <ele>191</ele>
        <time>2019-02-07T07:47:37.000Z</time>
      </trkpt>
      <trkpt lat="43.62385" lon="6.83946">
        <ele>191</ele>
        <time>2019-02-07T07:47:38.000Z</time>
      </trkpt>
      <trkpt lat="43.62384" lon="6.83944">
        <ele>191</ele>
        <time>2019-02-07T07:47:39.000Z</time>
      </trkpt>
      <trkpt lat="43.62383" lon="6.83941">
        <ele>191</ele>
        <time>2019-02-07T07:47:40.000Z</time>
      </trkpt>
      <trkpt lat="43.62382" lon="6.83938">
        <ele>191</ele>
        <time>2019-02-07T07:47:41.000Z</time>
      </trkpt>
      <trkpt lat="43.62381" lon="6.83936">
        <ele>190</ele>
        <time>2019-02-07T07:47:42.000Z</time>
      </trkpt>
      <trkpt lat="43.6238" lon="6.83933">
        <ele>190</ele>
        <time>2019-02-07T07:47:43.000Z</time>
      </trkpt>
      <trkpt lat="43.62378" lon="6.83931">
        <ele>190</ele>
        <time>2019-02-07T07:47:44.000Z</time>
      </trkpt>
      <trkpt lat="43.62377" lon="6.83928">
        <ele>190</ele>
        <time>2019-02-07T07:47:45.000Z</time>
      </trkpt>
      <trkpt lat="43.62376" lon="6.83926">
        <ele>190</ele>
        <time>2019-02-07T07:47:46.000Z</time>
      </trkpt>
      <trkpt lat="43.62375" lon="6.83923">
        <ele>189</ele>
        <time>2019-02-07T07:47:47.000Z</time>
      </trkpt>
      <trkpt lat="43.62374" lon="6.83921">
        <ele>188</ele>
        <time>2019-02-07T07:47:48.000Z</time>
      </trkpt>
      <trkpt lat="43.62373" lon="6.83919">
        <ele>188</ele>
        <time>2019-02-07T07:47:49.000Z</time>
      </trkpt>
      <trkpt lat="43.62372" lon="6.83917">
        <ele>188</ele>
        <time>2019-02-07T07:47:50.000Z</time>
      </trkpt>
      <trkpt lat="43.62371" lon="6.83914">
        <ele>187</ele>
        <time>2019-02-07T07:47:51.000Z</time>
      </trkpt>
      <trkpt lat="43.6237" lon="6.83912">
        <ele>187</ele>
        <time>2019-02-07T07:47:52.000Z</time>
      </trkpt>
      <trkpt lat="43.62368" lon="6.83909">
        <ele>187</ele>
        <time>2019-02-07T07:47:53.000Z</time>
      </trkpt>
      <trkpt lat="43.62367" lon="6.83907">
        <ele>187</ele>
        <time>2019-02-07T07:47:54.000Z</time>
      </trkpt>
      <trkpt lat="43.62365" lon="6.83905">
        <ele>187</ele>
        <time>2019-02-07T07:47:55.000Z</time>
      </trkpt>
      <trkpt lat="43.62363" lon="6.83903">
        <ele>187</ele>
        <time>2019-02-07T07:47:56.000Z</time>
      </trkpt>
      <trkpt lat="43.62362" lon="6.839">
        <ele>187</ele>
        <time>2019-02-07T07:47:57.000Z</time>
      </trkpt>
      <trkpt lat="43.6236" lon="6.83897">
        <ele>187</ele>
        <time>2019-02-07T07:47:58.000Z</time>
      </trkpt>
      <trkpt lat="43.6236" lon="6.83894">
        <ele>186</ele>
        <time>2019-02-07T07:47:59.000Z</time>
      </trkpt>
      <trkpt lat="43.62359" lon="6.83892">
        <ele>187</ele>
        <time>2019-02-07T07:48:00.000Z</time>
      </trkpt>
      <trkpt lat="43.62358" lon="6.83889">
        <ele>187</ele>
        <time>2019-02-07T07:48:01.000Z</time>
      </trkpt>
      <trkpt lat="43.62357" lon="6.83887">
        <ele>187</ele>
        <time>2019-02-07T07:48:02.000Z</time>
      </trkpt>
      <trkpt lat="43.62356" lon="6.83885">
        <ele>187</ele>
        <time>2019-02-07T07:48:03.000Z</time>
      </trkpt>
      <trkpt lat="43.62356" lon="6.83882">
        <ele>187</ele>
        <time>2019-02-07T07:48:04.000Z</time>
      </trkpt>
      <trkpt lat="43.62355" lon="6.8388">
        <ele>187</ele>
        <time>2019-02-07T07:48:05.000Z</time>
      </trkpt>
      <trkpt lat="43.62354" lon="6.83878">
        <ele>186</ele>
        <time>2019-02-07T07:48:06.000Z</time>
      </trkpt>
      <trkpt lat="43.62353" lon="6.83876">
        <ele>186</ele>
        <time>2019-02-07T07:48:07.000Z</time>
      </trkpt>
      <trkpt lat="43.62353" lon="6.83874">
        <ele>185</ele>
        <time>2019-02-07T07:48:08.000Z</time>
      </trkpt>
      <trkpt lat="43.62352" lon="6.83872">
        <ele>185</ele>
        <time>2019-02-07T07:48:09.000Z</time>
      </trkpt>
      <trkpt lat="43.62352" lon="6.8387">
        <ele>185</ele>
        <time>2019-02-07T07:48:10.000Z</time>
      </trkpt>
      <trkpt lat="43.62351" lon="6.83868">
        <ele>184</ele>
        <time>2019-02-07T07:48:11.000Z</time>
      </trkpt>
      <trkpt lat="43.62351" lon="6.83866">
        <ele>184</ele>
        <time>2019-02-07T07:48:12.000Z</time>
      </trkpt>
      <trkpt lat="43.62351" lon="6.83864">
        <ele>184</ele>
        <time>2019-02-07T07:48:13.000Z</time>
      </trkpt>
      <trkpt lat="43.6235" lon="6.83862">
        <ele>184</ele>
        <time>2019-02-07T07:48:14.000Z</time>
      </trkpt>
      <trkpt lat="43.6235" lon="6.83859">
        <ele>183</ele>
        <time>2019-02-07T07:48:15.000Z</time>
      </trkpt>
      <trkpt lat="43.62349" lon="6.83857">
        <ele>183</ele>
        <time>2019-02-07T07:48:16.000Z</time>
      </trkpt>
      <trkpt lat="43.62349" lon="6.83855">
        <ele>182</ele>
        <time>2019-02-07T07:48:17.000Z</time>
      </trkpt>
      <trkpt lat="43.62348" lon="6.83853">
        <ele>182</ele>
        <time>2019-02-07T07:48:18.000Z</time>
      </trkpt>
      <trkpt lat="43.62347" lon="6.83851">
        <ele>182</ele>
        <time>2019-02-07T07:48:19.000Z</time>
      </trkpt>
      <trkpt lat="43.62347" lon="6.83849">
        <ele>182</ele>
        <time>2019-02-07T07:48:20.000Z</time>
      </trkpt>
      <trkpt lat="43.62346" lon="6.83847">
        <ele>181</ele>
        <time>2019-02-07T07:48:21.000Z</time>
      </trkpt>
      <trkpt lat="43.62346" lon="6.83845">
        <ele>182</ele>
        <time>2019-02-07T07:48:22.000Z</time>
      </trkpt>
      <trkpt lat="43.62345" lon="6.83843">
        <ele>182</ele>
        <time>2019-02-07T07:48:23.000Z</time>
      </trkpt>
      <trkpt lat="43.62344" lon="6.83841">
        <ele>182</ele>
        <time>2019-02-07T07:48:24.000Z</time>
      </trkpt>
      <trkpt lat="43.62343" lon="6.83839">
        <ele>181</ele>
        <time>2019-02-07T07:48:25.000Z</time>
      </trkpt>
      <trkpt lat="43.62342" lon="6.83836">
        <ele>181</ele>
        <time>2019-02-07T07:48:26.000Z</time>
      </trkpt>
      <trkpt lat="43.6234" lon="6.83834">
        <ele>181</ele>
        <time>2019-02-07T07:48:27.000Z</time>
      </trkpt>
      <trkpt lat="43.62339" lon="6.83832">
        <ele>180</ele>
        <time>2019-02-07T07:48:28.000Z</time>
      </trkpt>
      <trkpt lat="43.62337" lon="6.8383">
        <ele>180</ele>
        <time>2019-02-07T07:48:29.000Z</time>
      </trkpt>
      <trkpt lat="43.62335" lon="6.83828">
        <ele>179</ele>
        <time>2019-02-07T07:48:30.000Z</time>
      </trkpt>
      <trkpt lat="43.62334" lon="6.83825">
        <ele>179</ele>
        <time>2019-02-07T07:48:31.000Z</time>
      </trkpt>
      <trkpt lat="43.62332" lon="6.83823">
        <ele>178</ele>
        <time>2019-02-07T07:48:32.000Z</time>
      </trkpt>
      <trkpt lat="43.62331" lon="6.8382">
        <ele>178</ele>
        <time>2019-02-07T07:48:33.000Z</time>
      </trkpt>
      <trkpt lat="43.6233" lon="6.83819">
        <ele>178</ele>
        <time>2019-02-07T07:48:34.000Z</time>
      </trkpt>
      <trkpt lat="43.62329" lon="6.83817">
        <ele>177</ele>
        <time>2019-02-07T07:48:35.000Z</time>
      </trkpt>
      <trkpt lat="43.62328" lon="6.83815">
        <ele>176</ele>
        <time>2019-02-07T07:48:36.000Z</time>
      </trkpt>
      <trkpt lat="43.62327" lon="6.83813">
        <ele>176</ele>
        <time>2019-02-07T07:48:37.000Z</time>
      </trkpt>
      <trkpt lat="43.62326" lon="6.83811">
        <ele>175</ele>
        <time>2019-02-07T07:48:38.000Z</time>
      </trkpt>
      <trkpt lat="43.62325" lon="6.83809">
        <ele>175</ele>
        <time>2019-02-07T07:48:39.000Z</time>
      </trkpt>
      <trkpt lat="43.62324" lon="6.83806">
        <ele>174</ele>
        <time>2019-02-07T07:48:40.000Z</time>
      </trkpt>
      <trkpt lat="43.62323" lon="6.83804">
        <ele>174</ele>
        <time>2019-02-07T07:48:41.000Z</time>
      </trkpt>
      <trkpt lat="43.62322" lon="6.83802">
        <ele>173</ele>
        <time>2019-02-07T07:48:42.000Z</time>
      </trkpt>
      <trkpt lat="43.62321" lon="6.838">
        <ele>173</ele>
        <time>2019-02-07T07:48:43.000Z</time>
      </trkpt>
      <trkpt lat="43.62319" lon="6.83798">
        <ele>172</ele>
        <time>2019-02-07T07:48:44.000Z</time>
      </trkpt>
      <trkpt lat="43.62318" lon="6.83796">
        <ele>172</ele>
        <time>2019-02-07T07:48:45.000Z</time>
      </trkpt>
      <trkpt lat="43.62317" lon="6.83794">
        <ele>171</ele>
        <time>2019-02-07T07:48:46.000Z</time>
      </trkpt>
      <trkpt lat="43.62315" lon="6.83792">
        <ele>170</ele>
        <time>2019-02-07T07:48:47.000Z</time>
      </trkpt>
      <trkpt lat="43.62314" lon="6.83791">
        <ele>170</ele>
        <time>2019-02-07T07:48:48.000Z</time>
      </trkpt>
      <trkpt lat="43.62312" lon="6.83789">
        <ele>170</ele>
        <time>2019-02-07T07:48:49.000Z</time>
      </trkpt>
      <trkpt lat="43.62311" lon="6.83787">
        <ele>169</ele>
        <time>2019-02-07T07:48:50.000Z</time>
      </trkpt>
      <trkpt lat="43.62309" lon="6.83785">
        <ele>169</ele>
        <time>2019-02-07T07:48:51.000Z</time>
      </trkpt>
      <trkpt lat="43.62308" lon="6.83784">
        <ele>168</ele>
        <time>2019-02-07T07:48:52.000Z</time>
      </trkpt>
      <trkpt lat="43.62306" lon="6.83782">
        <ele>168</ele>
        <time>2019-02-07T07:48:53.000Z</time>
      </trkpt>
      <trkpt lat="43.62305" lon="6.8378">
        <ele>167</ele>
        <time>2019-02-07T07:48:54.000Z</time>
      </trkpt>
      <trkpt lat="43.62304" lon="6.83778">
        <ele>166</ele>
        <time>2019-02-07T07:48:55.000Z</time>
      </trkpt>
      <trkpt lat="43.62302" lon="6.83777">
        <ele>167</ele>
        <time>2019-02-07T07:48:56.000Z</time>
      </trkpt>
      <trkpt lat="43.623" lon="6.83775">
        <ele>166</ele>
        <time>2019-02-07T07:48:57.000Z</time>
      </trkpt>
      <trkpt lat="43.62299" lon="6.83773">
        <ele>167</ele>
        <time>2019-02-07T07:48:58.000Z</time>
      </trkpt>
      <trkpt lat="43.62298" lon="6.83771">
        <ele>167</ele>
        <time>2019-02-07T07:48:59.000Z</time>
      </trkpt>
      <trkpt lat="43.62296" lon="6.83768">
        <ele>167</ele>
        <time>2019-02-07T07:49:00.000Z</time>
      </trkpt>
      <trkpt lat="43.62295" lon="6.83766">
        <ele>166</ele>
        <time>2019-02-07T07:49:01.000Z</time>
      </trkpt>
      <trkpt lat="43.62294" lon="6.83765">
        <ele>167</ele>
        <time>2019-02-07T07:49:02.000Z</time>
      </trkpt>
      <trkpt lat="43.62293" lon="6.83764">
        <ele>167</ele>
        <time>2019-02-07T07:49:03.000Z</time>
      </trkpt>
      <trkpt lat="43.62292" lon="6.83762">
        <ele>166</ele>
        <time>2019-02-07T07:49:04.000Z</time>
      </trkpt>
      <trkpt lat="43.62291" lon="6.83761">
        <ele>167</ele>
        <time>2019-02-07T07:49:05.000Z</time>
      </trkpt>
      <trkpt lat="43.6229" lon="6.83759">
        <ele>166</ele>
        <time>2019-02-07T07:49:06.000Z</time>
      </trkpt>
      <trkpt lat="43.62289" lon="6.83757">
        <ele>166</ele>
        <time>2019-02-07T07:49:07.000Z</time>
      </trkpt>
      <trkpt lat="43.62288" lon="6.83755">
        <ele>166</ele>
        <time>2019-02-07T07:49:08.000Z</time>
      </trkpt>
      <trkpt lat="43.62288" lon="6.83754">
        <ele>165</ele>
        <time>2019-02-07T07:49:09.000Z</time>
      </trkpt>
      <trkpt lat="43.62287" lon="6.83752">
        <ele>165</ele>
        <time>2019-02-07T07:49:10.000Z</time>
      </trkpt>
      <trkpt lat="43.62286" lon="6.8375">
        <ele>164</ele>
        <time>2019-02-07T07:49:11.000Z</time>
      </trkpt>
      <trkpt lat="43.62285" lon="6.83748">
        <ele>164</ele>
        <time>2019-02-07T07:49:12.000Z</time>
      </trkpt>
      <trkpt lat="43.62285" lon="6.83746">
        <ele>164</ele>
        <time>2019-02-07T07:49:13.000Z</time>
      </trkpt>
      <trkpt lat="43.62284" lon="6.83744">
        <ele>164</ele>
        <time>2019-02-07T07:49:14.000Z</time>
      </trkpt>
      <trkpt lat="43.62283" lon="6.83742">
        <ele>163</ele>
        <time>2019-02-07T07:49:15.000Z</time>
      </trkpt>
      <trkpt lat="43.62282" lon="6.8374">
        <ele>163</ele>
        <time>2019-02-07T07:49:16.000Z</time>
      </trkpt>
      <trkpt lat="43.62281" lon="6.83738">
        <ele>162</ele>
        <time>2019-02-07T07:49:17.000Z</time>
      </trkpt>
      <trkpt lat="43.6228" lon="6.83736">
        <ele>162</ele>
        <time>2019-02-07T07:49:18.000Z</time>
      </trkpt>
      <trkpt lat="43.62279" lon="6.83734">
        <ele>162</ele>
        <time>2019-02-07T07:49:19.000Z</time>
      </trkpt>
      <trkpt lat="43.62277" lon="6.83732">
        <ele>161</ele>
        <time>2019-02-07T07:49:20.000Z</time>
      </trkpt>
      <trkpt lat="43.62276" lon="6.8373">
        <ele>161</ele>
        <time>2019-02-07T07:49:21.000Z</time>
      </trkpt>
      <trkpt lat="43.62274" lon="6.83728">
        <ele>161</ele>
        <time>2019-02-07T07:49:22.000Z</time>
      </trkpt>
      <trkpt lat="43.62273" lon="6.83726">
        <ele>161</ele>
        <time>2019-02-07T07:49:23.000Z</time>
      </trkpt>
      <trkpt lat="43.62271" lon="6.83724">
        <ele>162</ele>
        <time>2019-02-07T07:49:24.000Z</time>
      </trkpt>
      <trkpt lat="43.6227" lon="6.83722">
        <ele>162</ele>
        <time>2019-02-07T07:49:25.000Z</time>
      </trkpt>
      <trkpt lat="43.62269" lon="6.8372">
        <ele>162</ele>
        <time>2019-02-07T07:49:26.000Z</time>
      </trkpt>
      <trkpt lat="43.62267" lon="6.83719">
        <ele>162</ele>
        <time>2019-02-07T07:49:27.000Z</time>
      </trkpt>
      <trkpt lat="43.62266" lon="6.83717">
        <ele>161</ele>
        <time>2019-02-07T07:49:28.000Z</time>
      </trkpt>
      <trkpt lat="43.62264" lon="6.83715">
        <ele>162</ele>
        <time>2019-02-07T07:49:29.000Z</time>
      </trkpt>
      <trkpt lat="43.62263" lon="6.83714">
        <ele>161</ele>
        <time>2019-02-07T07:49:30.000Z</time>
      </trkpt>
      <trkpt lat="43.62262" lon="6.83712">
        <ele>161</ele>
        <time>2019-02-07T07:49:31.000Z</time>
      </trkpt>
      <trkpt lat="43.62261" lon="6.8371">
        <ele>160</ele>
        <time>2019-02-07T07:49:32.000Z</time>
      </trkpt>
      <trkpt lat="43.6226" lon="6.83708">
        <ele>160</ele>
        <time>2019-02-07T07:49:33.000Z</time>
      </trkpt>
      <trkpt lat="43.62258" lon="6.83706">
        <ele>159</ele>
        <time>2019-02-07T07:49:34.000Z</time>
      </trkpt>
      <trkpt lat="43.62257" lon="6.83704">
        <ele>159</ele>
        <time>2019-02-07T07:49:35.000Z</time>
      </trkpt>
      <trkpt lat="43.62256" lon="6.83702">
        <ele>159</ele>
        <time>2019-02-07T07:49:36.000Z</time>
      </trkpt>
      <trkpt lat="43.62254" lon="6.837">
        <ele>158</ele>
        <time>2019-02-07T07:49:37.000Z</time>
      </trkpt>
      <trkpt lat="43.62253" lon="6.83697">
        <ele>159</ele>
        <time>2019-02-07T07:49:38.000Z</time>
      </trkpt>
      <trkpt lat="43.62252" lon="6.83695">
        <ele>158</ele>
        <time>2019-02-07T07:49:39.000Z</time>
      </trkpt>
      <trkpt lat="43.6225" lon="6.83693">
        <ele>158</ele>
        <time>2019-02-07T07:49:40.000Z</time>
      </trkpt>
      <trkpt lat="43.62249" lon="6.83692">
        <ele>157</ele>
        <time>2019-02-07T07:49:41.000Z</time>
      </trkpt>
      <trkpt lat="43.62247" lon="6.8369">
        <ele>157</ele>
        <time>2019-02-07T07:49:42.000Z</time>
      </trkpt>
      <trkpt lat="43.62246" lon="6.83688">
        <ele>157</ele>
        <time>2019-02-07T07:49:43.000Z</time>
      </trkpt>
      <trkpt lat="43.62244" lon="6.83686">
        <ele>156</ele>
        <time>2019-02-07T07:49:44.000Z</time>
      </trkpt>
      <trkpt lat="43.62243" lon="6.83685">
        <ele>156</ele>
        <time>2019-02-07T07:49:45.000Z</time>
      </trkpt>
      <trkpt lat="43.62242" lon="6.83683">
        <ele>157</ele>
        <time>2019-02-07T07:49:46.000Z</time>
      </trkpt>
      <trkpt lat="43.6224" lon="6.8368">
        <ele>156</ele>
        <time>2019-02-07T07:49:47.000Z</time>
      </trkpt>
      <trkpt lat="43.62239" lon="6.83678">
        <ele>156</ele>
        <time>2019-02-07T07:49:48.000Z</time>
      </trkpt>
      <trkpt lat="43.62238" lon="6.83675">
        <ele>156</ele>
        <time>2019-02-07T07:49:49.000Z</time>
      </trkpt>
      <trkpt lat="43.62237" lon="6.83673">
        <ele>156</ele>
        <time>2019-02-07T07:49:50.000Z</time>
      </trkpt>
      <trkpt lat="43.62236" lon="6.8367">
        <ele>156</ele>
        <time>2019-02-07T07:49:51.000Z</time>
      </trkpt>
      <trkpt lat="43.62234" lon="6.83668">
        <ele>155</ele>
        <time>2019-02-07T07:49:52.000Z</time>
      </trkpt>
      <trkpt lat="43.62233" lon="6.83665">
        <ele>155</ele>
        <time>2019-02-07T07:49:53.000Z</time>
      </trkpt>
      <trkpt lat="43.62232" lon="6.83662">
        <ele>155</ele>
        <time>2019-02-07T07:49:54.000Z</time>
      </trkpt>
      <trkpt lat="43.62231" lon="6.8366">
        <ele>155</ele>
        <time>2019-02-07T07:49:55.000Z</time>
      </trkpt>
      <trkpt lat="43.62229" lon="6.83658">
        <ele>154</ele>
        <time>2019-02-07T07:49:56.000Z</time>
      </trkpt>
      <trkpt lat="43.62228" lon="6.83656">
        <ele>154</ele>
        <time>2019-02-07T07:49:57.000Z</time>
      </trkpt>
      <trkpt lat="43.62227" lon="6.83653">
        <ele>154</ele>
        <time>2019-02-07T07:49:58.000Z</time>
      </trkpt>
      <trkpt lat="43.62226" lon="6.83651">
        <ele>153</ele>
        <time>2019-02-07T07:49:59.000Z</time>
      </trkpt>
      <trkpt lat="43.62225" lon="6.83649">
        <ele>153</ele>
        <time>2019-02-07T07:50:00.000Z</time>
      </trkpt>
      <trkpt lat="43.62224" lon="6.83647">
        <ele>152</ele>
        <time>2019-02-07T07:50:01.000Z</time>
      </trkpt>
      <trkpt lat="43.62223" lon="6.83645">
        <ele>152</ele>
        <time>2019-02-07T07:50:02.000Z</time>
      </trkpt>
      <trkpt lat="43.62222" lon="6.83643">
        <ele>151</ele>
        <time>2019-02-07T07:50:03.000Z</time>
      </trkpt>
      <trkpt lat="43.62221" lon="6.83641">
        <ele>151</ele>
        <time>2019-02-07T07:50:04.000Z</time>
      </trkpt>
      <trkpt lat="43.6222" lon="6.83638">
        <ele>151</ele>
        <time>2019-02-07T07:50:05.000Z</time>
      </trkpt>
      <trkpt lat="43.62219" lon="6.83636">
        <ele>150</ele>
        <time>2019-02-07T07:50:06.000Z</time>
      </trkpt>
      <trkpt lat="43.62218" lon="6.83633">
        <ele>150</ele>
        <time>2019-02-07T07:50:07.000Z</time>
      </trkpt>
      <trkpt lat="43.62217" lon="6.83631">
        <ele>150</ele>
        <time>2019-02-07T07:50:08.000Z</time>
      </trkpt>
      <trkpt lat="43.62216" lon="6.83629">
        <ele>149</ele>
        <time>2019-02-07T07:50:09.000Z</time>
      </trkpt>
      <trkpt lat="43.62215" lon="6.83627">
        <ele>149</ele>
        <time>2019-02-07T07:50:10.000Z</time>
      </trkpt>
      <trkpt lat="43.62214" lon="6.83625">
        <ele>148</ele>
        <time>2019-02-07T07:50:11.000Z</time>
      </trkpt>
      <trkpt lat="43.62212" lon="6.83624">
        <ele>148</ele>
        <time>2019-02-07T07:50:12.000Z</time>
      </trkpt>
      <trkpt lat="43.62211" lon="6.83622">
        <ele>148</ele>
        <time>2019-02-07T07:50:13.000Z</time>
      </trkpt>
      <trkpt lat="43.6221" lon="6.8362">
        <ele>147</ele>
        <time>2019-02-07T07:50:14.000Z</time>
      </trkpt>
      <trkpt lat="43.62209" lon="6.83618">
        <ele>147</ele>
        <time>2019-02-07T07:50:15.000Z</time>
      </trkpt>
      <trkpt lat="43.62208" lon="6.83617">
        <ele>147</ele>
        <time>2019-02-07T07:50:16.000Z</time>
      </trkpt>
      <trkpt lat="43.62206" lon="6.83615">
        <ele>146</ele>
        <time>2019-02-07T07:50:17.000Z</time>
      </trkpt>
      <trkpt lat="43.62205" lon="6.83613">
        <ele>146</ele>
        <time>2019-02-07T07:50:18.000Z</time>
      </trkpt>
      <trkpt lat="43.62204" lon="6.83612">
        <ele>146</ele>
        <time>2019-02-07T07:50:19.000Z</time>
      </trkpt>
      <trkpt lat="43.62202" lon="6.83611">
        <ele>145</ele>
        <time>2019-02-07T07:50:20.000Z</time>
      </trkpt>
      <trkpt lat="43.62201" lon="6.8361">
        <ele>145</ele>
        <time>2019-02-07T07:50:21.000Z</time>
      </trkpt>
      <trkpt lat="43.62199" lon="6.83609">
        <ele>143</ele>
        <time>2019-02-07T07:50:22.000Z</time>
      </trkpt>
      <trkpt lat="43.62197" lon="6.83608">
        <ele>143</ele>
        <time>2019-02-07T07:50:23.000Z</time>
      </trkpt>
      <trkpt lat="43.62195" lon="6.83607">
        <ele>143</ele>
        <time>2019-02-07T07:50:24.000Z</time>
      </trkpt>
      <trkpt lat="43.62194" lon="6.83606">
        <ele>143</ele>
        <time>2019-02-07T07:50:25.000Z</time>
      </trkpt>
      <trkpt lat="43.62192" lon="6.83605">
        <ele>142</ele>
        <time>2019-02-07T07:50:26.000Z</time>
      </trkpt>
      <trkpt lat="43.62191" lon="6.83603">
        <ele>142</ele>
        <time>2019-02-07T07:50:27.000Z</time>
      </trkpt>
      <trkpt lat="43.62189" lon="6.83603">
        <ele>141</ele>
        <time>2019-02-07T07:50:28.000Z</time>
      </trkpt>
      <trkpt lat="43.62187" lon="6.83602">
        <ele>141</ele>
        <time>2019-02-07T07:50:29.000Z</time>
      </trkpt>
      <trkpt lat="43.62186" lon="6.83601">
        <ele>141</ele>
        <time>2019-02-07T07:50:30.000Z</time>
      </trkpt>
      <trkpt lat="43.62185" lon="6.83599">
        <ele>140</ele>
        <time>2019-02-07T07:50:31.000Z</time>
      </trkpt>
      <trkpt lat="43.62184" lon="6.83598">
        <ele>140</ele>
        <time>2019-02-07T07:50:32.000Z</time>
      </trkpt>
      <trkpt lat="43.62182" lon="6.83597">
        <ele>139</ele>
        <time>2019-02-07T07:50:33.000Z</time>
      </trkpt>
      <trkpt lat="43.62181" lon="6.83596">
        <ele>139</ele>
        <time>2019-02-07T07:50:34.000Z</time>
      </trkpt>
      <trkpt lat="43.6218" lon="6.83595">
        <ele>139</ele>
        <time>2019-02-07T07:50:35.000Z</time>
      </trkpt>
      <trkpt lat="43.62179" lon="6.83593">
        <ele>138</ele>
        <time>2019-02-07T07:50:36.000Z</time>
      </trkpt>
      <trkpt lat="43.62178" lon="6.83592">
        <ele>138</ele>
        <time>2019-02-07T07:50:37.000Z</time>
      </trkpt>
      <trkpt lat="43.62177" lon="6.8359">
        <ele>138</ele>
        <time>2019-02-07T07:50:38.000Z</time>
      </trkpt>
      <trkpt lat="43.62175" lon="6.83589">
        <ele>137</ele>
        <time>2019-02-07T07:50:39.000Z</time>
      </trkpt>
      <trkpt lat="43.62174" lon="6.83588">
        <ele>137</ele>
        <time>2019-02-07T07:50:40.000Z</time>
      </trkpt>
      <trkpt lat="43.62173" lon="6.83587">
        <ele>138</ele>
        <time>2019-02-07T07:50:41.000Z</time>
      </trkpt>
      <trkpt lat="43.62172" lon="6.83586">
        <ele>137</ele>
        <time>2019-02-07T07:50:42.000Z</time>
      </trkpt>
      <trkpt lat="43.62171" lon="6.83584">
        <ele>137</ele>
        <time>2019-02-07T07:50:43.000Z</time>
      </trkpt>
      <trkpt lat="43.62171" lon="6.83583">
        <ele>136</ele>
        <time>2019-02-07T07:50:44.000Z</time>
      </trkpt>
      <trkpt lat="43.62171" lon="6.83581">
        <ele>135</ele>
        <time>2019-02-07T07:50:45.000Z</time>
      </trkpt>
      <trkpt lat="43.6217" lon="6.8358">
        <ele>135</ele>
        <time>2019-02-07T07:50:46.000Z</time>
      </trkpt>
      <trkpt lat="43.6217" lon="6.83578">
        <ele>134</ele>
        <time>2019-02-07T07:50:47.000Z</time>
      </trkpt>
      <trkpt lat="43.62169" lon="6.83577">
        <ele>133</ele>
        <time>2019-02-07T07:50:48.000Z</time>
      </trkpt>
      <trkpt lat="43.62169" lon="6.83576">
        <ele>133</ele>
        <time>2019-02-07T07:50:49.000Z</time>
      </trkpt>
      <trkpt lat="43.62168" lon="6.83574">
        <ele>133</ele>
        <time>2019-02-07T07:50:50.000Z</time>
      </trkpt>
      <trkpt lat="43.62168" lon="6.83573">
        <ele>132</ele>
        <time>2019-02-07T07:50:51.000Z</time>
      </trkpt>
      <trkpt lat="43.62167" lon="6.83572">
        <ele>132</ele>
        <time>2019-02-07T07:50:52.000Z</time>
      </trkpt>
      <trkpt lat="43.62167" lon="6.83571">
        <ele>131</ele>
        <time>2019-02-07T07:50:53.000Z</time>
      </trkpt>
      <trkpt lat="43.62166" lon="6.83569">
        <ele>131</ele>
        <time>2019-02-07T07:50:54.000Z</time>
      </trkpt>
      <trkpt lat="43.62164" lon="6.83568">
        <ele>130</ele>
        <time>2019-02-07T07:50:55.000Z</time>
      </trkpt>
      <trkpt lat="43.62163" lon="6.83566">
        <ele>130</ele>
        <time>2019-02-07T07:50:56.000Z</time>
      </trkpt>
      <trkpt lat="43.62162" lon="6.83565">
        <ele>129</ele>
        <time>2019-02-07T07:50:57.000Z</time>
      </trkpt>
      <trkpt lat="43.62162" lon="6.83564">
        <ele>129</ele>
        <time>2019-02-07T07:50:58.000Z</time>
      </trkpt>
      <trkpt lat="43.62161" lon="6.83562">
        <ele>128</ele>
        <time>2019-02-07T07:50:59.000Z</time>
      </trkpt>
      <trkpt lat="43.62161" lon="6.83561">
        <ele>128</ele>
        <time>2019-02-07T07:51:00.000Z</time>
      </trkpt>
      <trkpt lat="43.62161" lon="6.8356">
        <ele>129</ele>
        <time>2019-02-07T07:51:01.000Z</time>
      </trkpt>
      <trkpt lat="43.62161" lon="6.8356">
        <ele>129</ele>
        <time>2019-02-07T07:51:02.000Z</time>
      </trkpt>
      <trkpt lat="43.62161" lon="6.83559">
        <ele>128</ele>
        <time>2019-02-07T07:51:03.000Z</time>
      </trkpt>
      <trkpt lat="43.6216" lon="6.83558">
        <ele>128</ele>
        <time>2019-02-07T07:51:04.000Z</time>
      </trkpt>
      <trkpt lat="43.62159" lon="6.83558">
        <ele>128</ele>
        <time>2019-02-07T07:51:05.000Z</time>
      </trkpt>
      <trkpt lat="43.62158" lon="6.83556">
        <ele>127</ele>
        <time>2019-02-07T07:51:06.000Z</time>
      </trkpt>
      <trkpt lat="43.62157" lon="6.83555">
        <ele>127</ele>
        <time>2019-02-07T07:51:07.000Z</time>
      </trkpt>
      <trkpt lat="43.62156" lon="6.83554">
        <ele>126</ele>
        <time>2019-02-07T07:51:08.000Z</time>
      </trkpt>
      <trkpt lat="43.62155" lon="6.83553">
        <ele>126</ele>
        <time>2019-02-07T07:51:09.000Z</time>
      </trkpt>
      <trkpt lat="43.62154" lon="6.83552">
        <ele>125</ele>
        <time>2019-02-07T07:51:10.000Z</time>
      </trkpt>
      <trkpt lat="43.62153" lon="6.83551">
        <ele>124</ele>
        <time>2019-02-07T07:51:11.000Z</time>
      </trkpt>
      <trkpt lat="43.62152" lon="6.8355">
        <ele>124</ele>
        <time>2019-02-07T07:51:12.000Z</time>
      </trkpt>
      <trkpt lat="43.62151" lon="6.83548">
        <ele>124</ele>
        <time>2019-02-07T07:51:13.000Z</time>
      </trkpt>
      <trkpt lat="43.6215" lon="6.83547">
        <ele>123</ele>
        <time>2019-02-07T07:51:14.000Z</time>
      </trkpt>
      <trkpt lat="43.6215" lon="6.83546">
        <ele>123</ele>
        <time>2019-02-07T07:51:15.000Z</time>
      </trkpt>
      <trkpt lat="43.62149" lon="6.83545">
        <ele>122</ele>
        <time>2019-02-07T07:51:16.000Z</time>
      </trkpt>
      <trkpt lat="43.62148" lon="6.83544">
        <ele>121</ele>
        <time>2019-02-07T07:51:17.000Z</time>
      </trkpt>
      <trkpt lat="43.62147" lon="6.83543">
        <ele>121</ele>
        <time>2019-02-07T07:51:18.000Z</time>
      </trkpt>
      <trkpt lat="43.62146" lon="6.83542">
        <ele>120</ele>
        <time>2019-02-07T07:51:19.000Z</time>
      </trkpt>
      <trkpt lat="43.62145" lon="6.83541">
        <ele>120</ele>
        <time>2019-02-07T07:51:20.000Z</time>
      </trkpt>
      <trkpt lat="43.62144" lon="6.8354">
        <ele>120</ele>
        <time>2019-02-07T07:51:21.000Z</time>
      </trkpt>
      <trkpt lat="43.62143" lon="6.83539">
        <ele>120</ele>
        <time>2019-02-07T07:51:22.000Z</time>
      </trkpt>
      <trkpt lat="43.62142" lon="6.83538">
        <ele>119</ele>
        <time>2019-02-07T07:51:23.000Z</time>
      </trkpt>
      <trkpt lat="43.62141" lon="6.83537">
        <ele>119</ele>
        <time>2019-02-07T07:51:24.000Z</time>
      </trkpt>
      <trkpt lat="43.6214" lon="6.83536">
        <ele>119</ele>
        <time>2019-02-07T07:51:25.000Z</time>
      </trkpt>
      <trkpt lat="43.62139" lon="6.83536">
        <ele>118</ele>
        <time>2019-02-07T07:51:26.000Z</time>
      </trkpt>
      <trkpt lat="43.62138" lon="6.83535">
        <ele>118</ele>
        <time>2019-02-07T07:51:27.000Z</time>
      </trkpt>
      <trkpt lat="43.62137" lon="6.83534">
        <ele>118</ele>
        <time>2019-02-07T07:51:28.000Z</time>
      </trkpt>
      <trkpt lat="43.62137" lon="6.83534">
        <ele>118</ele>
        <time>2019-02-07T07:51:29.000Z</time>
      </trkpt>
      <trkpt lat="43.62137" lon="6.83534">
        <ele>117</ele>
        <time>2019-02-07T07:51:30.000Z</time>
      </trkpt>
      <trkpt lat="43.62136" lon="6.83534">
        <ele>116</ele>
        <time>2019-02-07T07:51:31.000Z</time>
      </trkpt>
      <trkpt lat="43.62135" lon="6.83534">
        <ele>116</ele>
        <time>2019-02-07T07:51:32.000Z</time>
      </trkpt>
      <trkpt lat="43.62134" lon="6.83533">
        <ele>116</ele>
        <time>2019-02-07T07:51:33.000Z</time>
      </trkpt>
      <trkpt lat="43.62133" lon="6.83533">
        <ele>116</ele>
        <time>2019-02-07T07:51:34.000Z</time>
      </trkpt>
      <trkpt lat="43.62132" lon="6.83532">
        <ele>115</ele>
        <time>2019-02-07T07:51:35.000Z</time>
      </trkpt>
      <trkpt lat="43.62131" lon="6.83532">
        <ele>115</ele>
        <time>2019-02-07T07:51:36.000Z</time>
      </trkpt>
      <trkpt lat="43.6213" lon="6.83531">
        <ele>115</ele>
        <time>2019-02-07T07:51:37.000Z</time>
      </trkpt>
      <trkpt lat="43.62129" lon="6.8353">
        <ele>115</ele>
        <time>2019-02-07T07:51:38.000Z</time>
      </trkpt>
      <trkpt lat="43.62128" lon="6.83529">
        <ele>114</ele>
        <time>2019-02-07T07:51:39.000Z</time>
      </trkpt>
      <trkpt lat="43.62127" lon="6.83528">
        <ele>114</ele>
        <time>2019-02-07T07:51:40.000Z</time>
      </trkpt>
      <trkpt lat="43.62126" lon="6.83527">
        <ele>114</ele>
        <time>2019-02-07T07:51:41.000Z</time>
      </trkpt>
      <trkpt lat="43.62125" lon="6.83526">
        <ele>114</ele>
        <time>2019-02-07T07:51:42.000Z</time>
      </trkpt>
      <trkpt lat="43.62124" lon="6.83525">
        <ele>113</ele>
        <time>2019-02-07T07:51:43.000Z</time>
      </trkpt>
      <trkpt lat="43.62122" lon="6.83524">
        <ele>113</ele>
        <time>2019-02-07T07:51:44.000Z</time>
      </trkpt>
      <trkpt lat="43.62121" lon="6.83523">
        <ele>113</ele>
        <time>2019-02-07T07:51:45.000Z</time>
      </trkpt>
      <trkpt lat="43.6212" lon="6.83522">
        <ele>112</ele>
        <time>2019-02-07T07:51:46.000Z</time>
      </trkpt>
      <trkpt lat="43.62119" lon="6.83521">
        <ele>111</ele>
        <time>2019-02-07T07:51:47.000Z</time>
      </trkpt>
      <trkpt lat="43.62118" lon="6.8352">
        <ele>111</ele>
        <time>2019-02-07T07:51:48.000Z</time>
      </trkpt>
      <trkpt lat="43.62116" lon="6.83519">
        <ele>111</ele>
        <time>2019-02-07T07:51:49.000Z</time>
      </trkpt>
      <trkpt lat="43.62115" lon="6.83519">
        <ele>110</ele>
        <time>2019-02-07T07:51:50.000Z</time>
      </trkpt>
      <trkpt lat="43.62114" lon="6.83518">
        <ele>109</ele>
        <time>2019-02-07T07:51:51.000Z</time>
      </trkpt>
      <trkpt lat="43.62113" lon="6.83517">
        <ele>109</ele>
        <time>2019-02-07T07:51:52.000Z</time>
      </trkpt>
      <trkpt lat="43.62112" lon="6.83516">
        <ele>109</ele>
        <time>2019-02-07T07:51:53.000Z</time>
      </trkpt>
      <trkpt lat="43.62111" lon="6.83515">
        <ele>108</ele>
        <time>2019-02-07T07:51:54.000Z</time>
      </trkpt>
      <trkpt lat="43.6211" lon="6.83514">
        <ele>108</ele>
        <time>2019-02-07T07:51:55.000Z</time>
      </trkpt>
      <trkpt lat="43.62109" lon="6.83513">
        <ele>107</ele>
        <time>2019-02-07T07:51:56.000Z</time>
      </trkpt>
      <trkpt lat="43.62108" lon="6.83512">
        <ele>107</ele>
        <time>2019-02-07T07:51:57.000Z</time>
      </trkpt>
      <trkpt lat="43.62107" lon="6.8351">
        <ele>107</ele>
        <time>2019-02-07T07:51:58.000Z</time>
      </trkpt>
      <trkpt lat="43.62107" lon="6.83509">
        <ele>106</ele>
        <time>2019-02-07T07:51:59.000Z</time>
      </trkpt>
      <trkpt lat="43.62106" lon="6.83508">
        <ele>106</ele>
        <time>2019-02-07T07:52:00.000Z</time>
      </trkpt>
      <trkpt lat="43.62105" lon="6.83506">
        <ele>105</ele>
        <time>2019-02-07T07:52:01.000Z</time>
      </trkpt>
      <trkpt lat="43.62104" lon="6.83505">
        <ele>105</ele>
        <time>2019-02-07T07:52:02.000Z</time>
      </trkpt>
      <trkpt lat="43.62104" lon="6.83504">
        <ele>105</ele>
        <time>2019-02-07T07:52:03.000Z</time>
      </trkpt>
      <trkpt lat="43.62103" lon="6.83502">
        <ele>105</ele>
        <time>2019-02-07T07:52:04.000Z</time>
      </trkpt>
      <trkpt lat="43.62101" lon="6.83501">
        <ele>105</ele>
        <time>2019-02-07T07:52:05.000Z</time>
      </trkpt>
      <trkpt lat="43.621" lon="6.835">
        <ele>104</ele>
        <time>2019-02-07T07:52:06.000Z</time>
      </trkpt>
      <trkpt lat="43.62099" lon="6.83499">
        <ele>104</ele>
        <time>2019-02-07T07:52:07.000Z</time>
      </trkpt>
      <trkpt lat="43.62097" lon="6.83498">
        <ele>104</ele>
        <time>2019-02-07T07:52:08.000Z</time>
      </trkpt>
      <trkpt lat="43.62096" lon="6.83498">
        <ele>103</ele>
        <time>2019-02-07T07:52:09.000Z</time>
      </trkpt>
      <trkpt lat="43.62095" lon="6.83497">
        <ele>101</ele>
        <time>2019-02-07T07:52:10.000Z</time>
      </trkpt>
      <trkpt lat="43.62094" lon="6.83496">
        <ele>101</ele>
        <time>2019-02-07T07:52:11.000Z</time>
      </trkpt>
      <trkpt lat="43.62093" lon="6.83495">
        <ele>101</ele>
        <time>2019-02-07T07:52:12.000Z</time>
      </trkpt>
      <trkpt lat="43.62092" lon="6.83493">
        <ele>100</ele>
        <time>2019-02-07T07:52:13.000Z</time>
      </trkpt>
      <trkpt lat="43.62091" lon="6.83492">
        <ele>100</ele>
        <time>2019-02-07T07:52:14.000Z</time>
      </trkpt>
      <trkpt lat="43.6209" lon="6.83491">
        <ele>100</ele>
        <time>2019-02-07T07:52:15.000Z</time>
      </trkpt>
      <trkpt lat="43.62089" lon="6.83491">
        <ele>100</ele>
        <time>2019-02-07T07:52:16.000Z</time>
      </trkpt>
      <trkpt lat="43.62088" lon="6.8349">
        <ele>100</ele>
        <time>2019-02-07T07:52:17.000Z</time>
      </trkpt>
      <trkpt lat="43.62087" lon="6.83488">
        <ele>99</ele>
        <time>2019-02-07T07:52:18.000Z</time>
      </trkpt>
      <trkpt lat="43.62086" lon="6.83487">
        <ele>99</ele>
        <time>2019-02-07T07:52:19.000Z</time>
      </trkpt>
      <trkpt lat="43.62085" lon="6.83486">
        <ele>99</ele>
        <time>2019-02-07T07:52:20.000Z</time>
      </trkpt>
      <trkpt lat="43.62083" lon="6.83484">
        <ele>98</ele>
        <time>2019-02-07T07:52:21.000Z</time>
      </trkpt>
      <trkpt lat="43.62082" lon="6.83483">
        <ele>97</ele>
        <time>2019-02-07T07:52:22.000Z</time>
      </trkpt>
      <trkpt lat="43.62081" lon="6.83482">
        <ele>97</ele>
        <time>2019-02-07T07:52:23.000Z</time>
      </trkpt>
      <trkpt lat="43.6208" lon="6.83479">
        <ele>97</ele>
        <time>2019-02-07T07:52:24.000Z</time>
      </trkpt>
      <trkpt lat="43.6208" lon="6.83477">
        <ele>98</ele>
        <time>2019-02-07T07:52:25.000Z</time>
      </trkpt>
      <trkpt lat="43.62079" lon="6.83475">
        <ele>98</ele>
        <time>2019-02-07T07:52:26.000Z</time>
      </trkpt>
      <trkpt lat="43.62079" lon="6.83473">
        <ele>97</ele>
        <time>2019-02-07T07:52:27.000Z</time>
      </trkpt>
      <trkpt lat="43.62079" lon="6.83471">
        <ele>97</ele>
        <time>2019-02-07T07:52:28.000Z</time>
      </trkpt>
      <trkpt lat="43.62079" lon="6.83469">
        <ele>97</ele>
        <time>2019-02-07T07:52:29.000Z</time>
      </trkpt>
      <trkpt lat="43.62078" lon="6.83467">
        <ele>96</ele>
        <time>2019-02-07T07:52:30.000Z</time>
      </trkpt>
      <trkpt lat="43.62078" lon="6.83465">
        <ele>96</ele>
        <time>2019-02-07T07:52:31.000Z</time>
      </trkpt>
      <trkpt lat="43.62077" lon="6.83463">
        <ele>95</ele>
        <time>2019-02-07T07:52:32.000Z</time>
      </trkpt>
      <trkpt lat="43.62077" lon="6.83461">
        <ele>95</ele>
        <time>2019-02-07T07:52:33.000Z</time>
      </trkpt>
      <trkpt lat="43.62077" lon="6.83459">
        <ele>95</ele>
        <time>2019-02-07T07:52:34.000Z</time>
      </trkpt>
      <trkpt lat="43.62076" lon="6.83456">
        <ele>95</ele>
        <time>2019-02-07T07:52:35.000Z</time>
      </trkpt>
      <trkpt lat="43.62076" lon="6.83454">
        <ele>95</ele>
        <time>2019-02-07T07:52:36.000Z</time>
      </trkpt>
      <trkpt lat="43.62076" lon="6.83452">
        <ele>95</ele>
        <time>2019-02-07T07:52:37.000Z</time>
      </trkpt>
      <trkpt lat="43.62075" lon="6.8345">
        <ele>94</ele>
        <time>2019-02-07T07:52:38.000Z</time>
      </trkpt>
      <trkpt lat="43.62075" lon="6.83448">
        <ele>93</ele>
        <time>2019-02-07T07:52:39.000Z</time>
      </trkpt>
      <trkpt lat="43.62075" lon="6.83446">
        <ele>93</ele>
        <time>2019-02-07T07:52:40.000Z</time>
      </trkpt>
      <trkpt lat="43.62074" lon="6.83444">
        <ele>93</ele>
        <time>2019-02-07T07:52:41.000Z</time>
      </trkpt>
      <trkpt lat="43.62074" lon="6.83442">
        <ele>91</ele>
        <time>2019-02-07T07:52:42.000Z</time>
      </trkpt>
      <trkpt lat="43.62075" lon="6.8344">
        <ele>91</ele>
        <time>2019-02-07T07:52:43.000Z</time>
      </trkpt>
      <trkpt lat="43.62075" lon="6.83438">
        <ele>90</ele>
        <time>2019-02-07T07:52:44.000Z</time>
      </trkpt>
      <trkpt lat="43.62076" lon="6.83436">
        <ele>90</ele>
        <time>2019-02-07T07:52:45.000Z</time>
      </trkpt>
      <trkpt lat="43.62076" lon="6.83435">
        <ele>90</ele>
        <time>2019-02-07T07:52:46.000Z</time>
      </trkpt>
      <trkpt lat="43.62077" lon="6.83433">
        <ele>90</ele>
        <time>2019-02-07T07:52:47.000Z</time>
      </trkpt>
      <trkpt lat="43.62077" lon="6.83432">
        <ele>90</ele>
        <time>2019-02-07T07:52:48.000Z</time>
      </trkpt>
      <trkpt lat="43.62078" lon="6.83431">
        <ele>90</ele>
        <time>2019-02-07T07:52:49.000Z</time>
      </trkpt>
      <trkpt lat="43.62078" lon="6.83431">
        <ele>90</ele>
        <time>2019-02-07T07:52:50.000Z</time>
      </trkpt>
      <trkpt lat="43.62078" lon="6.83432">
        <ele>90</ele>
        <time>2019-02-07T07:52:51.000Z</time>
      </trkpt>
      <trkpt lat="43.62078" lon="6.83432">
        <ele>90</ele>
        <time>2019-02-07T07:52:52.000Z</time>
      </trkpt>
      <trkpt lat="43.62078" lon="6.83432">
        <ele>90</ele>
        <time>2019-02-07T07:52:53.000Z</time>
      </trkpt>
      <trkpt lat="43.62078" lon="6.83432">
        <ele>89</ele>
        <time>2019-02-07T07:52:54.000Z</time>
      </trkpt>
      <trkpt lat="43.62078" lon="6.83432">
        <ele>90</ele>
        <time>2019-02-07T07:52:55.000Z</time>
      </trkpt>
      <trkpt lat="43.62078" lon="6.83432">
        <ele>90</ele>
        <time>2019-02-07T07:52:56.000Z</time>
      </trkpt>
      <trkpt lat="43.62078" lon="6.83431">
        <ele>90</ele>
        <time>2019-02-07T07:52:57.000Z</time>
      </trkpt>
      <trkpt lat="43.62078" lon="6.83431">
        <ele>89</ele>
        <time>2019-02-07T07:52:58.000Z</time>
      </trkpt>
      <trkpt lat="43.62078" lon="6.83431">
        <ele>90</ele>
        <time>2019-02-07T07:52:59.000Z</time>
      </trkpt>
      <trkpt lat="43.62078" lon="6.83431">
        <ele>90</ele>
        <time>2019-02-07T07:53:00.000Z</time>
      </trkpt>
      <trkpt lat="43.62078" lon="6.83431">
        <ele>90</ele>
        <time>2019-02-07T07:53:01.000Z</time>
      </trkpt>
      <trkpt lat="43.62078" lon="6.8343">
        <ele>90</ele>
        <time>2019-02-07T07:53:02.000Z</time>
      </trkpt>
      <trkpt lat="43.62078" lon="6.83429">
        <ele>89</ele>
        <time>2019-02-07T07:53:03.000Z</time>
      </trkpt>
      <trkpt lat="43.62078" lon="6.83428">
        <ele>89</ele>
        <time>2019-02-07T07:53:04.000Z</time>
      </trkpt>
      <trkpt lat="43.62079" lon="6.83427">
        <ele>89</ele>
        <time>2019-02-07T07:53:05.000Z</time>
      </trkpt>
      <trkpt lat="43.62079" lon="6.83426">
        <ele>88</ele>
        <time>2019-02-07T07:53:06.000Z</time>
      </trkpt>
      <trkpt lat="43.62079" lon="6.83424">
        <ele>88</ele>
        <time>2019-02-07T07:53:07.000Z</time>
      </trkpt>
      <trkpt lat="43.62079" lon="6.83423">
        <ele>87</ele>
        <time>2019-02-07T07:53:08.000Z</time>
      </trkpt>
      <trkpt lat="43.6208" lon="6.83421">
        <ele>87</ele>
        <time>2019-02-07T07:53:09.000Z</time>
      </trkpt>
      <trkpt lat="43.6208" lon="6.83419">
        <ele>86</ele>
        <time>2019-02-07T07:53:10.000Z</time>
      </trkpt>
      <trkpt lat="43.6208" lon="6.83417">
        <ele>85</ele>
        <time>2019-02-07T07:53:11.000Z</time>
      </trkpt>
      <trkpt lat="43.62081" lon="6.83415">
        <ele>84</ele>
        <time>2019-02-07T07:53:12.000Z</time>
      </trkpt>
      <trkpt lat="43.62081" lon="6.83413">
        <ele>83</ele>
        <time>2019-02-07T07:53:13.000Z</time>
      </trkpt>
      <trkpt lat="43.62081" lon="6.83412">
        <ele>83</ele>
        <time>2019-02-07T07:53:14.000Z</time>
      </trkpt>
      <trkpt lat="43.62082" lon="6.8341">
        <ele>82</ele>
        <time>2019-02-07T07:53:15.000Z</time>
      </trkpt>
      <trkpt lat="43.62083" lon="6.83408">
        <ele>81</ele>
        <time>2019-02-07T07:53:16.000Z</time>
      </trkpt>
      <trkpt lat="43.62084" lon="6.83406">
        <ele>80</ele>
        <time>2019-02-07T07:53:17.000Z</time>
      </trkpt>
      <trkpt lat="43.62084" lon="6.83404">
        <ele>80</ele>
        <time>2019-02-07T07:53:18.000Z</time>
      </trkpt>
      <trkpt lat="43.62085" lon="6.83402">
        <ele>80</ele>
        <time>2019-02-07T07:53:19.000Z</time>
      </trkpt>
      <trkpt lat="43.62086" lon="6.834">
        <ele>79</ele>
        <time>2019-02-07T07:53:20.000Z</time>
      </trkpt>
      <trkpt lat="43.62086" lon="6.83398">
        <ele>79</ele>
        <time>2019-02-07T07:53:21.000Z</time>
      </trkpt>
      <trkpt lat="43.62086" lon="6.83396">
        <ele>79</ele>
        <time>2019-02-07T07:53:22.000Z</time>
      </trkpt>
      <trkpt lat="43.62086" lon="6.83394">
        <ele>78</ele>
        <time>2019-02-07T07:53:23.000Z</time>
      </trkpt>
      <trkpt lat="43.62086" lon="6.83392">
        <ele>78</ele>
        <time>2019-02-07T07:53:24.000Z</time>
      </trkpt>
      <trkpt lat="43.62086" lon="6.83391">
        <ele>77</ele>
        <time>2019-02-07T07:53:25.000Z</time>
      </trkpt>
      <trkpt lat="43.62085" lon="6.83389">
        <ele>77</ele>
        <time>2019-02-07T07:53:26.000Z</time>
      </trkpt>
      <trkpt lat="43.62084" lon="6.83388">
        <ele>77</ele>
        <time>2019-02-07T07:53:27.000Z</time>
      </trkpt>
      <trkpt lat="43.62083" lon="6.83387">
        <ele>77</ele>
        <time>2019-02-07T07:53:28.000Z</time>
      </trkpt>
      <trkpt lat="43.62082" lon="6.83387">
        <ele>77</ele>
        <time>2019-02-07T07:53:29.000Z</time>
      </trkpt>
      <trkpt lat="43.62081" lon="6.83387">
        <ele>77</ele>
        <time>2019-02-07T07:53:30.000Z</time>
      </trkpt>
      <trkpt lat="43.6208" lon="6.83387">
        <ele>75</ele>
        <time>2019-02-07T07:53:31.000Z</time>
      </trkpt>
      <trkpt lat="43.62078" lon="6.83387">
        <ele>75</ele>
        <time>2019-02-07T07:53:32.000Z</time>
      </trkpt>
      <trkpt lat="43.62076" lon="6.83387">
        <ele>75</ele>
        <time>2019-02-07T07:53:33.000Z</time>
      </trkpt>
      <trkpt lat="43.62074" lon="6.83387">
        <ele>74</ele>
        <time>2019-02-07T07:53:34.000Z</time>
      </trkpt>
      <trkpt lat="43.62072" lon="6.83387">
        <ele>74</ele>
        <time>2019-02-07T07:53:35.000Z</time>
      </trkpt>
      <trkpt lat="43.62071" lon="6.83388">
        <ele>74</ele>
        <time>2019-02-07T07:53:36.000Z</time>
      </trkpt>
      <trkpt lat="43.62069" lon="6.83389">
        <ele>74</ele>
        <time>2019-02-07T07:53:37.000Z</time>
      </trkpt>
      <trkpt lat="43.62067" lon="6.8339">
        <ele>74</ele>
        <time>2019-02-07T07:53:38.000Z</time>
      </trkpt>
      <trkpt lat="43.62065" lon="6.83392">
        <ele>74</ele>
        <time>2019-02-07T07:53:39.000Z</time>
      </trkpt>
      <trkpt lat="43.62063" lon="6.83392">
        <ele>73</ele>
        <time>2019-02-07T07:53:40.000Z</time>
      </trkpt>
      <trkpt lat="43.62061" lon="6.83392">
        <ele>73</ele>
        <time>2019-02-07T07:53:41.000Z</time>
      </trkpt>
      <trkpt lat="43.62059" lon="6.83391">
        <ele>73</ele>
        <time>2019-02-07T07:53:42.000Z</time>
      </trkpt>
      <trkpt lat="43.62056" lon="6.83391">
        <ele>73</ele>
        <time>2019-02-07T07:53:43.000Z</time>
      </trkpt>
      <trkpt lat="43.62054" lon="6.8339">
        <ele>73</ele>
        <time>2019-02-07T07:53:44.000Z</time>
      </trkpt>
      <trkpt lat="43.62052" lon="6.8339">
        <ele>73</ele>
        <time>2019-02-07T07:53:45.000Z</time>
      </trkpt>
      <trkpt lat="43.6205" lon="6.8339">
        <ele>74</ele>
        <time>2019-02-07T07:53:46.000Z</time>
      </trkpt>
      <trkpt lat="43.62048" lon="6.8339">
        <ele>74</ele>
        <time>2019-02-07T07:53:47.000Z</time>
      </trkpt>
      <trkpt lat="43.62047" lon="6.83391">
        <ele>73</ele>
        <time>2019-02-07T07:53:48.000Z</time>
      </trkpt>
      <trkpt lat="43.62045" lon="6.83392">
        <ele>73</ele>
        <time>2019-02-07T07:53:49.000Z</time>
      </trkpt>
      <trkpt lat="43.62044" lon="6.83394">
        <ele>74</ele>
        <time>2019-02-07T07:53:50.000Z</time>
      </trkpt>
      <trkpt lat="43.62043" lon="6.83395">
        <ele>73</ele>
        <time>2019-02-07T07:53:51.000Z</time>
      </trkpt>
      <trkpt lat="43.62042" lon="6.83397">
        <ele>72</ele>
        <time>2019-02-07T07:53:52.000Z</time>
      </trkpt>
      <trkpt lat="43.62041" lon="6.834">
        <ele>72</ele>
        <time>2019-02-07T07:53:53.000Z</time>
      </trkpt>
      <trkpt lat="43.6204" lon="6.83404">
        <ele>73</ele>
        <time>2019-02-07T07:53:54.000Z</time>
      </trkpt>
      <trkpt lat="43.62039" lon="6.83407">
        <ele>73</ele>
        <time>2019-02-07T07:53:55.000Z</time>
      </trkpt>
      <trkpt lat="43.62039" lon="6.83411">
        <ele>72</ele>
        <time>2019-02-07T07:53:56.000Z</time>
      </trkpt>
      <trkpt lat="43.62039" lon="6.83414">
        <ele>72</ele>
        <time>2019-02-07T07:53:57.000Z</time>
      </trkpt>
      <trkpt lat="43.62039" lon="6.83417">
        <ele>72</ele>
        <time>2019-02-07T07:53:58.000Z</time>
      </trkpt>
      <trkpt lat="43.62039" lon="6.83419">
        <ele>71</ele>
        <time>2019-02-07T07:53:59.000Z</time>
      </trkpt>
      <trkpt lat="43.62039" lon="6.83422">
        <ele>71</ele>
        <time>2019-02-07T07:54:00.000Z</time>
      </trkpt>
      <trkpt lat="43.6204" lon="6.83425">
        <ele>71</ele>
        <time>2019-02-07T07:54:01.000Z</time>
      </trkpt>
      <trkpt lat="43.62041" lon="6.83427">
        <ele>71</ele>
        <time>2019-02-07T07:54:02.000Z</time>
      </trkpt>
      <trkpt lat="43.62041" lon="6.83429">
        <ele>71</ele>
        <time>2019-02-07T07:54:03.000Z</time>
      </trkpt>
      <trkpt lat="43.6204" lon="6.8343">
        <ele>70</ele>
        <time>2019-02-07T07:54:04.000Z</time>
      </trkpt>
      <trkpt lat="43.6204" lon="6.83432">
        <ele>70</ele>
        <time>2019-02-07T07:54:05.000Z</time>
      </trkpt>
      <trkpt lat="43.62039" lon="6.83435">
        <ele>71</ele>
        <time>2019-02-07T07:54:06.000Z</time>
      </trkpt>
      <trkpt lat="43.62039" lon="6.83438">
        <ele>73</ele>
        <time>2019-02-07T07:54:07.000Z</time>
      </trkpt>
      <trkpt lat="43.62039" lon="6.83441">
        <ele>73</ele>
        <time>2019-02-07T07:54:08.000Z</time>
      </trkpt>
      <trkpt lat="43.62038" lon="6.83443">
        <ele>74</ele>
        <time>2019-02-07T07:54:09.000Z</time>
      </trkpt>
      <trkpt lat="43.62037" lon="6.83446">
        <ele>74</ele>
        <time>2019-02-07T07:54:10.000Z</time>
      </trkpt>
      <trkpt lat="43.62036" lon="6.83448">
        <ele>74</ele>
        <time>2019-02-07T07:54:11.000Z</time>
      </trkpt>
      <trkpt lat="43.62035" lon="6.8345">
        <ele>75</ele>
        <time>2019-02-07T07:54:12.000Z</time>
      </trkpt>
      <trkpt lat="43.62034" lon="6.83453">
        <ele>76</ele>
        <time>2019-02-07T07:54:13.000Z</time>
      </trkpt>
      <trkpt lat="43.62033" lon="6.83456">
        <ele>76</ele>
        <time>2019-02-07T07:54:14.000Z</time>
      </trkpt>
      <trkpt lat="43.62032" lon="6.83459">
        <ele>76</ele>
        <time>2019-02-07T07:54:15.000Z</time>
      </trkpt>
      <trkpt lat="43.62032" lon="6.83462">
        <ele>75</ele>
        <time>2019-02-07T07:54:16.000Z</time>
      </trkpt>
      <trkpt lat="43.62031" lon="6.83464">
        <ele>75</ele>
        <time>2019-02-07T07:54:17.000Z</time>
      </trkpt>
      <trkpt lat="43.62031" lon="6.83466">
        <ele>75</ele>
        <time>2019-02-07T07:54:18.000Z</time>
      </trkpt>
      <trkpt lat="43.6203" lon="6.83467">
        <ele>75</ele>
        <time>2019-02-07T07:54:19.000Z</time>
      </trkpt>
      <trkpt lat="43.6203" lon="6.83468">
        <ele>75</ele>
        <time>2019-02-07T07:54:20.000Z</time>
      </trkpt>
      <trkpt lat="43.62029" lon="6.8347">
        <ele>74</ele>
        <time>2019-02-07T07:54:21.000Z</time>
      </trkpt>
      <trkpt lat="43.62029" lon="6.83471">
        <ele>74</ele>
        <time>2019-02-07T07:54:22.000Z</time>
      </trkpt>
      <trkpt lat="43.62029" lon="6.83473">
        <ele>75</ele>
        <time>2019-02-07T07:54:23.000Z</time>
      </trkpt>
      <trkpt lat="43.62028" lon="6.83475">
        <ele>75</ele>
        <time>2019-02-07T07:54:24.000Z</time>
      </trkpt>
      <trkpt lat="43.62027" lon="6.83478">
        <ele>75</ele>
        <time>2019-02-07T07:54:25.000Z</time>
      </trkpt>
      <trkpt lat="43.62027" lon="6.8348">
        <ele>75</ele>
        <time>2019-02-07T07:54:26.000Z</time>
      </trkpt>
      <trkpt lat="43.62026" lon="6.83482">
        <ele>75</ele>
        <time>2019-02-07T07:54:27.000Z</time>
      </trkpt>
      <trkpt lat="43.62026" lon="6.83485">
        <ele>74</ele>
        <time>2019-02-07T07:54:28.000Z</time>
      </trkpt>
      <trkpt lat="43.62024" lon="6.83487">
        <ele>72</ele>
        <time>2019-02-07T07:54:29.000Z</time>
      </trkpt>
      <trkpt lat="43.62023" lon="6.83488">
        <ele>73</ele>
        <time>2019-02-07T07:54:30.000Z</time>
      </trkpt>
      <trkpt lat="43.62022" lon="6.83489">
        <ele>73</ele>
        <time>2019-02-07T07:54:31.000Z</time>
      </trkpt>
      <trkpt lat="43.62021" lon="6.8349">
        <ele>73</ele>
        <time>2019-02-07T07:54:32.000Z</time>
      </trkpt>
      <trkpt lat="43.6202" lon="6.83492">
        <ele>73</ele>
        <time>2019-02-07T07:54:33.000Z</time>
      </trkpt>
      <trkpt lat="43.6202" lon="6.83494">
        <ele>73</ele>
        <time>2019-02-07T07:54:34.000Z</time>
      </trkpt>
      <trkpt lat="43.62019" lon="6.83496">
        <ele>73</ele>
        <time>2019-02-07T07:54:35.000Z</time>
      </trkpt>
      <trkpt lat="43.62019" lon="6.83498">
        <ele>74</ele>
        <time>2019-02-07T07:54:36.000Z</time>
      </trkpt>
      <trkpt lat="43.62018" lon="6.835">
        <ele>74</ele>
        <time>2019-02-07T07:54:37.000Z</time>
      </trkpt>
      <trkpt lat="43.62018" lon="6.83501">
        <ele>74</ele>
        <time>2019-02-07T07:54:38.000Z</time>
      </trkpt>
      <trkpt lat="43.62017" lon="6.83502">
        <ele>74</ele>
        <time>2019-02-07T07:54:39.000Z</time>
      </trkpt>
      <trkpt lat="43.62017" lon="6.83504">
        <ele>75</ele>
        <time>2019-02-07T07:54:40.000Z</time>
      </trkpt>
      <trkpt lat="43.62016" lon="6.83506">
        <ele>75</ele>
        <time>2019-02-07T07:54:41.000Z</time>
      </trkpt>
      <trkpt lat="43.62015" lon="6.83508">
        <ele>75</ele>
        <time>2019-02-07T07:54:42.000Z</time>
      </trkpt>
      <trkpt lat="43.62015" lon="6.8351">
        <ele>75</ele>
        <time>2019-02-07T07:54:43.000Z</time>
      </trkpt>
      <trkpt lat="43.62014" lon="6.83511">
        <ele>75</ele>
        <time>2019-02-07T07:54:44.000Z</time>
      </trkpt>
      <trkpt lat="43.62013" lon="6.83512">
        <ele>76</ele>
        <time>2019-02-07T07:54:45.000Z</time>
      </trkpt>
      <trkpt lat="43.62012" lon="6.83514">
        <ele>75</ele>
        <time>2019-02-07T07:54:46.000Z</time>
      </trkpt>
      <trkpt lat="43.62011" lon="6.83515">
        <ele>75</ele>
        <time>2019-02-07T07:54:47.000Z</time>
      </trkpt>
      <trkpt lat="43.6201" lon="6.83517">
        <ele>74</ele>
        <time>2019-02-07T07:54:48.000Z</time>
      </trkpt>
      <trkpt lat="43.62009" lon="6.83518">
        <ele>74</ele>
        <time>2019-02-07T07:54:49.000Z</time>
      </trkpt>
      <trkpt lat="43.62008" lon="6.8352">
        <ele>73</ele>
        <time>2019-02-07T07:54:50.000Z</time>
      </trkpt>
      <trkpt lat="43.62007" lon="6.83521">
        <ele>73</ele>
        <time>2019-02-07T07:54:51.000Z</time>
      </trkpt>
      <trkpt lat="43.62005" lon="6.83522">
        <ele>74</ele>
        <time>2019-02-07T07:54:52.000Z</time>
      </trkpt>
      <trkpt lat="43.62004" lon="6.83523">
        <ele>74</ele>
        <time>2019-02-07T07:54:53.000Z</time>
      </trkpt>
      <trkpt lat="43.62003" lon="6.83525">
        <ele>73</ele>
        <time>2019-02-07T07:54:54.000Z</time>
      </trkpt>
      <trkpt lat="43.62001" lon="6.83527">
        <ele>75</ele>
        <time>2019-02-07T07:54:55.000Z</time>
      </trkpt>
      <trkpt lat="43.61999" lon="6.83529">
        <ele>74</ele>
        <time>2019-02-07T07:54:56.000Z</time>
      </trkpt>
      <trkpt lat="43.61997" lon="6.83531">
        <ele>74</ele>
        <time>2019-02-07T07:54:57.000Z</time>
      </trkpt>
      <trkpt lat="43.61995" lon="6.83533">
        <ele>74</ele>
        <time>2019-02-07T07:54:58.000Z</time>
      </trkpt>
      <trkpt lat="43.61993" lon="6.83535">
        <ele>74</ele>
        <time>2019-02-07T07:54:59.000Z</time>
      </trkpt>
      <trkpt lat="43.61991" lon="6.83537">
        <ele>73</ele>
        <time>2019-02-07T07:55:00.000Z</time>
      </trkpt>
      <trkpt lat="43.6199" lon="6.83538">
        <ele>72</ele>
        <time>2019-02-07T07:55:01.000Z</time>
      </trkpt>
      <trkpt lat="43.61988" lon="6.8354">
        <ele>72</ele>
        <time>2019-02-07T07:55:02.000Z</time>
      </trkpt>
      <trkpt lat="43.61987" lon="6.83541">
        <ele>73</ele>
        <time>2019-02-07T07:55:03.000Z</time>
      </trkpt>
      <trkpt lat="43.61985" lon="6.83542">
        <ele>72</ele>
        <time>2019-02-07T07:55:04.000Z</time>
      </trkpt>
      <trkpt lat="43.61984" lon="6.83544">
        <ele>72</ele>
        <time>2019-02-07T07:55:05.000Z</time>
      </trkpt>
      <trkpt lat="43.61982" lon="6.83546">
        <ele>71</ele>
        <time>2019-02-07T07:55:06.000Z</time>
      </trkpt>
      <trkpt lat="43.6198" lon="6.83548">
        <ele>71</ele>
        <time>2019-02-07T07:55:07.000Z</time>
      </trkpt>
      <trkpt lat="43.61979" lon="6.83551">
        <ele>71</ele>
        <time>2019-02-07T07:55:08.000Z</time>
      </trkpt>
      <trkpt lat="43.61978" lon="6.83554">
        <ele>70</ele>
        <time>2019-02-07T07:55:09.000Z</time>
      </trkpt>
      <trkpt lat="43.61977" lon="6.83557">
        <ele>68</ele>
        <time>2019-02-07T07:55:10.000Z</time>
      </trkpt>
      <trkpt lat="43.61976" lon="6.83559">
        <ele>66</ele>
        <time>2019-02-07T07:55:11.000Z</time>
      </trkpt>
      <trkpt lat="43.61975" lon="6.83562">
        <ele>66</ele>
        <time>2019-02-07T07:55:12.000Z</time>
      </trkpt>
      <trkpt lat="43.61973" lon="6.83564">
        <ele>66</ele>
        <time>2019-02-07T07:55:13.000Z</time>
      </trkpt>
      <trkpt lat="43.61972" lon="6.83565">
        <ele>66</ele>
        <time>2019-02-07T07:55:14.000Z</time>
      </trkpt>
      <trkpt lat="43.6197" lon="6.83566">
        <ele>66</ele>
        <time>2019-02-07T07:55:15.000Z</time>
      </trkpt>
      <trkpt lat="43.61969" lon="6.83567">
        <ele>65</ele>
        <time>2019-02-07T07:55:16.000Z</time>
      </trkpt>
      <trkpt lat="43.61967" lon="6.83568">
        <ele>65</ele>
        <time>2019-02-07T07:55:17.000Z</time>
      </trkpt>
      <trkpt lat="43.61965" lon="6.83569">
        <ele>65</ele>
        <time>2019-02-07T07:55:18.000Z</time>
      </trkpt>
      <trkpt lat="43.61964" lon="6.8357">
        <ele>64</ele>
        <time>2019-02-07T07:55:19.000Z</time>
      </trkpt>
      <trkpt lat="43.61963" lon="6.83571">
        <ele>63</ele>
        <time>2019-02-07T07:55:20.000Z</time>
      </trkpt>
      <trkpt lat="43.61961" lon="6.83573">
        <ele>64</ele>
        <time>2019-02-07T07:55:21.000Z</time>
      </trkpt>
      <trkpt lat="43.61959" lon="6.83575">
        <ele>63</ele>
        <time>2019-02-07T07:55:22.000Z</time>
      </trkpt>
      <trkpt lat="43.61957" lon="6.83577">
        <ele>63</ele>
        <time>2019-02-07T07:55:23.000Z</time>
      </trkpt>
      <trkpt lat="43.61956" lon="6.83579">
        <ele>62</ele>
        <time>2019-02-07T07:55:24.000Z</time>
      </trkpt>
      <trkpt lat="43.61954" lon="6.83581">
        <ele>62</ele>
        <time>2019-02-07T07:55:25.000Z</time>
      </trkpt>
      <trkpt lat="43.61952" lon="6.83582">
        <ele>62</ele>
        <time>2019-02-07T07:55:26.000Z</time>
      </trkpt>
      <trkpt lat="43.6195" lon="6.83583">
        <ele>62</ele>
        <time>2019-02-07T07:55:27.000Z</time>
      </trkpt>
      <trkpt lat="43.61949" lon="6.83584">
        <ele>62</ele>
        <time>2019-02-07T07:55:28.000Z</time>
      </trkpt>
      <trkpt lat="43.61947" lon="6.83585">
        <ele>63</ele>
        <time>2019-02-07T07:55:29.000Z</time>
      </trkpt>
      <trkpt lat="43.61945" lon="6.83587">
        <ele>63</ele>
        <time>2019-02-07T07:55:30.000Z</time>
      </trkpt>
      <trkpt lat="43.61944" lon="6.83588">
        <ele>63</ele>
        <time>2019-02-07T07:55:31.000Z</time>
      </trkpt>
      <trkpt lat="43.61942" lon="6.8359">
        <ele>63</ele>
        <time>2019-02-07T07:55:32.000Z</time>
      </trkpt>
      <trkpt lat="43.61941" lon="6.83591">
        <ele>62</ele>
        <time>2019-02-07T07:55:33.000Z</time>
      </trkpt>
      <trkpt lat="43.61939" lon="6.83591">
        <ele>62</ele>
        <time>2019-02-07T07:55:34.000Z</time>
      </trkpt>
      <trkpt lat="43.61937" lon="6.83591">
        <ele>62</ele>
        <time>2019-02-07T07:55:35.000Z</time>
      </trkpt>
      <trkpt lat="43.61936" lon="6.83592">
        <ele>62</ele>
        <time>2019-02-07T07:55:36.000Z</time>
      </trkpt>
      <trkpt lat="43.61934" lon="6.83592">
        <ele>61</ele>
        <time>2019-02-07T07:55:37.000Z</time>
      </trkpt>
      <trkpt lat="43.61933" lon="6.83593">
        <ele>61</ele>
        <time>2019-02-07T07:55:38.000Z</time>
      </trkpt>
      <trkpt lat="43.61931" lon="6.83594">
        <ele>61</ele>
        <time>2019-02-07T07:55:39.000Z</time>
      </trkpt>
      <trkpt lat="43.6193" lon="6.83595">
        <ele>61</ele>
        <time>2019-02-07T07:55:40.000Z</time>
      </trkpt>
      <trkpt lat="43.61928" lon="6.83596">
        <ele>61</ele>
        <time>2019-02-07T07:55:41.000Z</time>
      </trkpt>
      <trkpt lat="43.61927" lon="6.83598">
        <ele>61</ele>
        <time>2019-02-07T07:55:42.000Z</time>
      </trkpt>
      <trkpt lat="43.61925" lon="6.83599">
        <ele>60</ele>
        <time>2019-02-07T07:55:43.000Z</time>
      </trkpt>
      <trkpt lat="43.61924" lon="6.836">
        <ele>60</ele>
        <time>2019-02-07T07:55:44.000Z</time>
      </trkpt>
      <trkpt lat="43.61923" lon="6.83602">
        <ele>61</ele>
        <time>2019-02-07T07:55:45.000Z</time>
      </trkpt>
      <trkpt lat="43.61921" lon="6.83603">
        <ele>61</ele>
        <time>2019-02-07T07:55:46.000Z</time>
      </trkpt>
      <trkpt lat="43.6192" lon="6.83606">
        <ele>61</ele>
        <time>2019-02-07T07:55:47.000Z</time>
      </trkpt>
      <trkpt lat="43.61918" lon="6.83607">
        <ele>62</ele>
        <time>2019-02-07T07:55:48.000Z</time>
      </trkpt>
      <trkpt lat="43.61916" lon="6.83608">
        <ele>63</ele>
        <time>2019-02-07T07:55:49.000Z</time>
      </trkpt>
      <trkpt lat="43.61913" lon="6.83609">
        <ele>64</ele>
        <time>2019-02-07T07:55:50.000Z</time>
      </trkpt>
      <trkpt lat="43.61912" lon="6.8361">
        <ele>64</ele>
        <time>2019-02-07T07:55:51.000Z</time>
      </trkpt>
      <trkpt lat="43.61911" lon="6.83611">
        <ele>64</ele>
        <time>2019-02-07T07:55:52.000Z</time>
      </trkpt>
      <trkpt lat="43.61909" lon="6.83612">
        <ele>64</ele>
        <time>2019-02-07T07:55:53.000Z</time>
      </trkpt>
      <trkpt lat="43.61907" lon="6.83613">
        <ele>62</ele>
        <time>2019-02-07T07:55:54.000Z</time>
      </trkpt>
      <trkpt lat="43.61905" lon="6.83614">
        <ele>62</ele>
        <time>2019-02-07T07:55:55.000Z</time>
      </trkpt>
      <trkpt lat="43.61903" lon="6.83615">
        <ele>62</ele>
        <time>2019-02-07T07:55:56.000Z</time>
      </trkpt>
      <trkpt lat="43.61901" lon="6.83617">
        <ele>63</ele>
        <time>2019-02-07T07:55:57.000Z</time>
      </trkpt>
      <trkpt lat="43.61899" lon="6.83618">
        <ele>65</ele>
        <time>2019-02-07T07:55:58.000Z</time>
      </trkpt>
      <trkpt lat="43.61898" lon="6.83619">
        <ele>65</ele>
        <time>2019-02-07T07:55:59.000Z</time>
      </trkpt>
      <trkpt lat="43.61897" lon="6.8362">
        <ele>66</ele>
        <time>2019-02-07T07:56:00.000Z</time>
      </trkpt>
      <trkpt lat="43.61897" lon="6.8362">
        <ele>67</ele>
        <time>2019-02-07T07:56:01.000Z</time>
      </trkpt>
      <trkpt lat="43.61896" lon="6.8362">
        <ele>67</ele>
        <time>2019-02-07T07:56:02.000Z</time>
      </trkpt>
      <trkpt lat="43.61895" lon="6.83621">
        <ele>68</ele>
        <time>2019-02-07T07:56:03.000Z</time>
      </trkpt>
      <trkpt lat="43.61893" lon="6.83622">
        <ele>68</ele>
        <time>2019-02-07T07:56:04.000Z</time>
      </trkpt>
      <trkpt lat="43.61892" lon="6.83624">
        <ele>68</ele>
        <time>2019-02-07T07:56:05.000Z</time>
      </trkpt>
      <trkpt lat="43.6189" lon="6.83625">
        <ele>69</ele>
        <time>2019-02-07T07:56:06.000Z</time>
      </trkpt>
      <trkpt lat="43.61889" lon="6.83627">
        <ele>70</ele>
        <time>2019-02-07T07:56:07.000Z</time>
      </trkpt>
      <trkpt lat="43.61887" lon="6.83628">
        <ele>70</ele>
        <time>2019-02-07T07:56:08.000Z</time>
      </trkpt>
      <trkpt lat="43.61886" lon="6.8363">
        <ele>70</ele>
        <time>2019-02-07T07:56:09.000Z</time>
      </trkpt>
      <trkpt lat="43.61884" lon="6.83632">
        <ele>70</ele>
        <time>2019-02-07T07:56:10.000Z</time>
      </trkpt>
      <trkpt lat="43.61882" lon="6.83633">
        <ele>71</ele>
        <time>2019-02-07T07:56:11.000Z</time>
      </trkpt>
      <trkpt lat="43.61882" lon="6.83635">
        <ele>73</ele>
        <time>2019-02-07T07:56:12.000Z</time>
      </trkpt>
      <trkpt lat="43.61881" lon="6.83636">
        <ele>73</ele>
        <time>2019-02-07T07:56:13.000Z</time>
      </trkpt>
      <trkpt lat="43.61881" lon="6.83637">
        <ele>74</ele>
        <time>2019-02-07T07:56:14.000Z</time>
      </trkpt>
      <trkpt lat="43.6188" lon="6.83638">
        <ele>75</ele>
        <time>2019-02-07T07:56:15.000Z</time>
      </trkpt>
      <trkpt lat="43.61879" lon="6.83639">
        <ele>77</ele>
        <time>2019-02-07T07:56:16.000Z</time>
      </trkpt>
      <trkpt lat="43.61879" lon="6.8364">
        <ele>78</ele>
        <time>2019-02-07T07:56:17.000Z</time>
      </trkpt>
      <trkpt lat="43.61878" lon="6.8364">
        <ele>80</ele>
        <time>2019-02-07T07:56:18.000Z</time>
      </trkpt>
      <trkpt lat="43.61878" lon="6.83641">
        <ele>81</ele>
        <time>2019-02-07T07:56:19.000Z</time>
      </trkpt>
      <trkpt lat="43.61877" lon="6.83642">
        <ele>82</ele>
        <time>2019-02-07T07:56:20.000Z</time>
      </trkpt>
      <trkpt lat="43.61877" lon="6.83643">
        <ele>83</ele>
        <time>2019-02-07T07:56:21.000Z</time>
      </trkpt>
      <trkpt lat="43.61876" lon="6.83644">
        <ele>83</ele>
        <time>2019-02-07T07:56:22.000Z</time>
      </trkpt>
      <trkpt lat="43.61875" lon="6.83646">
        <ele>84</ele>
        <time>2019-02-07T07:56:23.000Z</time>
      </trkpt>
      <trkpt lat="43.61874" lon="6.83647">
        <ele>85</ele>
        <time>2019-02-07T07:56:24.000Z</time>
      </trkpt>
      <trkpt lat="43.61874" lon="6.83649">
        <ele>85</ele>
        <time>2019-02-07T07:56:25.000Z</time>
      </trkpt>
      <trkpt lat="43.61874" lon="6.8365">
        <ele>86</ele>
        <time>2019-02-07T07:56:26.000Z</time>
      </trkpt>
      <trkpt lat="43.61873" lon="6.83651">
        <ele>87</ele>
        <time>2019-02-07T07:56:27.000Z</time>
      </trkpt>
      <trkpt lat="43.61873" lon="6.83653">
        <ele>87</ele>
        <time>2019-02-07T07:56:28.000Z</time>
      </trkpt>
      <trkpt lat="43.61872" lon="6.83655">
        <ele>86</ele>
        <time>2019-02-07T07:56:29.000Z</time>
      </trkpt>
      <trkpt lat="43.6187" lon="6.83657">
        <ele>86</ele>
        <time>2019-02-07T07:56:30.000Z</time>
      </trkpt>
      <trkpt lat="43.61868" lon="6.83658">
        <ele>86</ele>
        <time>2019-02-07T07:56:31.000Z</time>
      </trkpt>
      <trkpt lat="43.61867" lon="6.83659">
        <ele>86</ele>
        <time>2019-02-07T07:56:32.000Z</time>
      </trkpt>
      <trkpt lat="43.61866" lon="6.8366">
        <ele>87</ele>
        <time>2019-02-07T07:56:33.000Z</time>
      </trkpt>
      <trkpt lat="43.61865" lon="6.83662">
        <ele>86</ele>
        <time>2019-02-07T07:56:34.000Z</time>
      </trkpt>
      <trkpt lat="43.61864" lon="6.83663">
        <ele>86</ele>
        <time>2019-02-07T07:56:35.000Z</time>
      </trkpt>
      <trkpt lat="43.61863" lon="6.83665">
        <ele>88</ele>
        <time>2019-02-07T07:56:36.000Z</time>
      </trkpt>
      <trkpt lat="43.61862" lon="6.83666">
        <ele>89</ele>
        <time>2019-02-07T07:56:37.000Z</time>
      </trkpt>
      <trkpt lat="43.61861" lon="6.83667">
        <ele>89</ele>
        <time>2019-02-07T07:56:38.000Z</time>
      </trkpt>
      <trkpt lat="43.61859" lon="6.83668">
        <ele>89</ele>
        <time>2019-02-07T07:56:39.000Z</time>
      </trkpt>
      <trkpt lat="43.61858" lon="6.83668">
        <ele>89</ele>
        <time>2019-02-07T07:56:40.000Z</time>
      </trkpt>
      <trkpt lat="43.61857" lon="6.83669">
        <ele>90</ele>
        <time>2019-02-07T07:56:41.000Z</time>
      </trkpt>
      <trkpt lat="43.61856" lon="6.8367">
        <ele>91</ele>
        <time>2019-02-07T07:56:42.000Z</time>
      </trkpt>
      <trkpt lat="43.61855" lon="6.83671">
        <ele>91</ele>
        <time>2019-02-07T07:56:43.000Z</time>
      </trkpt>
      <trkpt lat="43.61853" lon="6.83672">
        <ele>91</ele>
        <time>2019-02-07T07:56:44.000Z</time>
      </trkpt>
      <trkpt lat="43.61853" lon="6.83673">
        <ele>91</ele>
        <time>2019-02-07T07:56:45.000Z</time>
      </trkpt>
      <trkpt lat="43.61852" lon="6.83674">
        <ele>92</ele>
        <time>2019-02-07T07:56:46.000Z</time>
      </trkpt>
      <trkpt lat="43.61851" lon="6.83674">
        <ele>92</ele>
        <time>2019-02-07T07:56:47.000Z</time>
      </trkpt>
      <trkpt lat="43.61851" lon="6.83674">
        <ele>91</ele>
        <time>2019-02-07T07:56:48.000Z</time>
      </trkpt>
      <trkpt lat="43.6185" lon="6.83675">
        <ele>91</ele>
        <time>2019-02-07T07:56:49.000Z</time>
      </trkpt>
      <trkpt lat="43.61849" lon="6.83675">
        <ele>90</ele>
        <time>2019-02-07T07:56:50.000Z</time>
      </trkpt>
      <trkpt lat="43.61849" lon="6.83676">
        <ele>90</ele>
        <time>2019-02-07T07:56:51.000Z</time>
      </trkpt>
      <trkpt lat="43.61848" lon="6.83676">
        <ele>90</ele>
        <time>2019-02-07T07:56:52.000Z</time>
      </trkpt>
      <trkpt lat="43.61847" lon="6.83676">
        <ele>89</ele>
        <time>2019-02-07T07:56:53.000Z</time>
      </trkpt>
      <trkpt lat="43.61846" lon="6.83676">
        <ele>88</ele>
        <time>2019-02-07T07:56:54.000Z</time>
      </trkpt>
      <trkpt lat="43.61844" lon="6.83676">
        <ele>87</ele>
        <time>2019-02-07T07:56:55.000Z</time>
      </trkpt>
      <trkpt lat="43.61843" lon="6.83676">
        <ele>87</ele>
        <time>2019-02-07T07:56:56.000Z</time>
      </trkpt>
      <trkpt lat="43.61842" lon="6.83675">
        <ele>87</ele>
        <time>2019-02-07T07:56:57.000Z</time>
      </trkpt>
      <trkpt lat="43.61841" lon="6.83675">
        <ele>87</ele>
        <time>2019-02-07T07:56:58.000Z</time>
      </trkpt>
      <trkpt lat="43.6184" lon="6.83675">
        <ele>87</ele>
        <time>2019-02-07T07:56:59.000Z</time>
      </trkpt>
      <trkpt lat="43.61839" lon="6.83674">
        <ele>87</ele>
        <time>2019-02-07T07:57:00.000Z</time>
      </trkpt>
      <trkpt lat="43.61838" lon="6.83673">
        <ele>86</ele>
        <time>2019-02-07T07:57:01.000Z</time>
      </trkpt>
      <trkpt lat="43.61837" lon="6.83672">
        <ele>86</ele>
        <time>2019-02-07T07:57:02.000Z</time>
      </trkpt>
      <trkpt lat="43.61836" lon="6.83671">
        <ele>86</ele>
        <time>2019-02-07T07:57:03.000Z</time>
      </trkpt>
      <trkpt lat="43.61835" lon="6.83671">
        <ele>86</ele>
        <time>2019-02-07T07:57:04.000Z</time>
      </trkpt>
      <trkpt lat="43.61834" lon="6.83671">
        <ele>85</ele>
        <time>2019-02-07T07:57:05.000Z</time>
      </trkpt>
      <trkpt lat="43.61833" lon="6.83671">
        <ele>85</ele>
        <time>2019-02-07T07:57:06.000Z</time>
      </trkpt>
      <trkpt lat="43.61832" lon="6.83672">
        <ele>84</ele>
        <time>2019-02-07T07:57:07.000Z</time>
      </trkpt>
      <trkpt lat="43.61831" lon="6.83672">
        <ele>84</ele>
        <time>2019-02-07T07:57:08.000Z</time>
      </trkpt>
      <trkpt lat="43.6183" lon="6.83673">
        <ele>85</ele>
        <time>2019-02-07T07:57:09.000Z</time>
      </trkpt>
      <trkpt lat="43.61829" lon="6.83674">
        <ele>84</ele>
        <time>2019-02-07T07:57:10.000Z</time>
      </trkpt>
      <trkpt lat="43.61829" lon="6.83676">
        <ele>83</ele>
        <time>2019-02-07T07:57:11.000Z</time>
      </trkpt>
      <trkpt lat="43.61828" lon="6.83677">
        <ele>83</ele>
        <time>2019-02-07T07:57:12.000Z</time>
      </trkpt>
      <trkpt lat="43.61828" lon="6.83679">
        <ele>83</ele>
        <time>2019-02-07T07:57:13.000Z</time>
      </trkpt>
      <trkpt lat="43.61827" lon="6.8368">
        <ele>82</ele>
        <time>2019-02-07T07:57:14.000Z</time>
      </trkpt>
      <trkpt lat="43.61827" lon="6.83682">
        <ele>83</ele>
        <time>2019-02-07T07:57:15.000Z</time>
      </trkpt>
      <trkpt lat="43.61826" lon="6.83683">
        <ele>82</ele>
        <time>2019-02-07T07:57:16.000Z</time>
      </trkpt>
      <trkpt lat="43.61826" lon="6.83685">
        <ele>82</ele>
        <time>2019-02-07T07:57:17.000Z</time>
      </trkpt>
      <trkpt lat="43.61825" lon="6.83688">
        <ele>82</ele>
        <time>2019-02-07T07:57:18.000Z</time>
      </trkpt>
      <trkpt lat="43.61825" lon="6.8369">
        <ele>83</ele>
        <time>2019-02-07T07:57:19.000Z</time>
      </trkpt>
      <trkpt lat="43.61824" lon="6.83692">
        <ele>82</ele>
        <time>2019-02-07T07:57:20.000Z</time>
      </trkpt>
      <trkpt lat="43.61824" lon="6.83694">
        <ele>82</ele>
        <time>2019-02-07T07:57:21.000Z</time>
      </trkpt>
      <trkpt lat="43.61824" lon="6.83696">
        <ele>82</ele>
        <time>2019-02-07T07:57:22.000Z</time>
      </trkpt>
      <trkpt lat="43.61824" lon="6.83698">
        <ele>81</ele>
        <time>2019-02-07T07:57:23.000Z</time>
      </trkpt>
      <trkpt lat="43.61824" lon="6.837">
        <ele>81</ele>
        <time>2019-02-07T07:57:24.000Z</time>
      </trkpt>
      <trkpt lat="43.61824" lon="6.83702">
        <ele>80</ele>
        <time>2019-02-07T07:57:25.000Z</time>
      </trkpt>
      <trkpt lat="43.61824" lon="6.83704">
        <ele>80</ele>
        <time>2019-02-07T07:57:26.000Z</time>
      </trkpt>
      <trkpt lat="43.61823" lon="6.83705">
        <ele>79</ele>
        <time>2019-02-07T07:57:27.000Z</time>
      </trkpt>
      <trkpt lat="43.61823" lon="6.83706">
        <ele>79</ele>
        <time>2019-02-07T07:57:28.000Z</time>
      </trkpt>
      <trkpt lat="43.61822" lon="6.83707">
        <ele>78</ele>
        <time>2019-02-07T07:57:29.000Z</time>
      </trkpt>
      <trkpt lat="43.61822" lon="6.83708">
        <ele>78</ele>
        <time>2019-02-07T07:57:30.000Z</time>
      </trkpt>
      <trkpt lat="43.61822" lon="6.83709">
        <ele>78</ele>
        <time>2019-02-07T07:57:31.000Z</time>
      </trkpt>
      <trkpt lat="43.61822" lon="6.83711">
        <ele>77</ele>
        <time>2019-02-07T07:57:32.000Z</time>
      </trkpt>
      <trkpt lat="43.61821" lon="6.83712">
        <ele>77</ele>
        <time>2019-02-07T07:57:33.000Z</time>
      </trkpt>
      <trkpt lat="43.61821" lon="6.83714">
        <ele>77</ele>
        <time>2019-02-07T07:57:34.000Z</time>
      </trkpt>
      <trkpt lat="43.61821" lon="6.83716">
        <ele>77</ele>
        <time>2019-02-07T07:57:35.000Z</time>
      </trkpt>
      <trkpt lat="43.61821" lon="6.83718">
        <ele>77</ele>
        <time>2019-02-07T07:57:36.000Z</time>
      </trkpt>
      <trkpt lat="43.6182" lon="6.83719">
        <ele>76</ele>
        <time>2019-02-07T07:57:37.000Z</time>
      </trkpt>
      <trkpt lat="43.6182" lon="6.83721">
        <ele>76</ele>
        <time>2019-02-07T07:57:38.000Z</time>
      </trkpt>
      <trkpt lat="43.6182" lon="6.83723">
        <ele>75</ele>
        <time>2019-02-07T07:57:39.000Z</time>
      </trkpt>
      <trkpt lat="43.6182" lon="6.83724">
        <ele>75</ele>
        <time>2019-02-07T07:57:40.000Z</time>
      </trkpt>
      <trkpt lat="43.6182" lon="6.83726">
        <ele>74</ele>
        <time>2019-02-07T07:57:41.000Z</time>
      </trkpt>
      <trkpt lat="43.6182" lon="6.83728">
        <ele>74</ele>
        <time>2019-02-07T07:57:42.000Z</time>
      </trkpt>
      <trkpt lat="43.6182" lon="6.8373">
        <ele>74</ele>
        <time>2019-02-07T07:57:43.000Z</time>
      </trkpt>
      <trkpt lat="43.6182" lon="6.83732">
        <ele>73</ele>
        <time>2019-02-07T07:57:44.000Z</time>
      </trkpt>
      <trkpt lat="43.6182" lon="6.83734">
        <ele>73</ele>
        <time>2019-02-07T07:57:45.000Z</time>
      </trkpt>
      <trkpt lat="43.6182" lon="6.83736">
        <ele>73</ele>
        <time>2019-02-07T07:57:46.000Z</time>
      </trkpt>
      <trkpt lat="43.6182" lon="6.83737">
        <ele>74</ele>
        <time>2019-02-07T07:57:47.000Z</time>
      </trkpt>
      <trkpt lat="43.6182" lon="6.83739">
        <ele>75</ele>
        <time>2019-02-07T07:57:48.000Z</time>
      </trkpt>
      <trkpt lat="43.6182" lon="6.83741">
        <ele>75</ele>
        <time>2019-02-07T07:57:49.000Z</time>
      </trkpt>
      <trkpt lat="43.6182" lon="6.83743">
        <ele>75</ele>
        <time>2019-02-07T07:57:50.000Z</time>
      </trkpt>
      <trkpt lat="43.61819" lon="6.83745">
        <ele>74</ele>
        <time>2019-02-07T07:57:51.000Z</time>
      </trkpt>
      <trkpt lat="43.61818" lon="6.83747">
        <ele>74</ele>
        <time>2019-02-07T07:57:52.000Z</time>
      </trkpt>
      <trkpt lat="43.61818" lon="6.83749">
        <ele>74</ele>
        <time>2019-02-07T07:57:53.000Z</time>
      </trkpt>
      <trkpt lat="43.61818" lon="6.83752">
        <ele>75</ele>
        <time>2019-02-07T07:57:54.000Z</time>
      </trkpt>
      <trkpt lat="43.61818" lon="6.83754">
        <ele>75</ele>
        <time>2019-02-07T07:57:55.000Z</time>
      </trkpt>
      <trkpt lat="43.61818" lon="6.83756">
        <ele>75</ele>
        <time>2019-02-07T07:57:56.000Z</time>
      </trkpt>
      <trkpt lat="43.61818" lon="6.83757">
        <ele>75</ele>
        <time>2019-02-07T07:57:57.000Z</time>
      </trkpt>
      <trkpt lat="43.61817" lon="6.83759">
        <ele>75</ele>
        <time>2019-02-07T07:57:58.000Z</time>
      </trkpt>
      <trkpt lat="43.61817" lon="6.83761">
        <ele>76</ele>
        <time>2019-02-07T07:57:59.000Z</time>
      </trkpt>
      <trkpt lat="43.61817" lon="6.83763">
        <ele>75</ele>
        <time>2019-02-07T07:58:00.000Z</time>
      </trkpt>
      <trkpt lat="43.61817" lon="6.83765">
        <ele>75</ele>
        <time>2019-02-07T07:58:01.000Z</time>
      </trkpt>
      <trkpt lat="43.61817" lon="6.83767">
        <ele>75</ele>
        <time>2019-02-07T07:58:02.000Z</time>
      </trkpt>
      <trkpt lat="43.61817" lon="6.83769">
        <ele>75</ele>
        <time>2019-02-07T07:58:03.000Z</time>
      </trkpt>
      <trkpt lat="43.61816" lon="6.83771">
        <ele>74</ele>
        <time>2019-02-07T07:58:04.000Z</time>
      </trkpt>
      <trkpt lat="43.61815" lon="6.83773">
        <ele>75</ele>
        <time>2019-02-07T07:58:05.000Z</time>
      </trkpt>
      <trkpt lat="43.61814" lon="6.83775">
        <ele>76</ele>
        <time>2019-02-07T07:58:06.000Z</time>
      </trkpt>
      <trkpt lat="43.61813" lon="6.83777">
        <ele>76</ele>
        <time>2019-02-07T07:58:07.000Z</time>
      </trkpt>
      <trkpt lat="43.61813" lon="6.83778">
        <ele>76</ele>
        <time>2019-02-07T07:58:08.000Z</time>
      </trkpt>
      <trkpt lat="43.61812" lon="6.8378">
        <ele>76</ele>
        <time>2019-02-07T07:58:09.000Z</time>
      </trkpt>
      <trkpt lat="43.61811" lon="6.83781">
        <ele>76</ele>
        <time>2019-02-07T07:58:10.000Z</time>
      </trkpt>
      <trkpt lat="43.6181" lon="6.83783">
        <ele>76</ele>
        <time>2019-02-07T07:58:11.000Z</time>
      </trkpt>
      <trkpt lat="43.61809" lon="6.83785">
        <ele>76</ele>
        <time>2019-02-07T07:58:12.000Z</time>
      </trkpt>
      <trkpt lat="43.61808" lon="6.83787">
        <ele>76</ele>
        <time>2019-02-07T07:58:13.000Z</time>
      </trkpt>
      <trkpt lat="43.61807" lon="6.83789">
        <ele>76</ele>
        <time>2019-02-07T07:58:14.000Z</time>
      </trkpt>
      <trkpt lat="43.61806" lon="6.83791">
        <ele>78</ele>
        <time>2019-02-07T07:58:15.000Z</time>
      </trkpt>
      <trkpt lat="43.61805" lon="6.83793">
        <ele>79</ele>
        <time>2019-02-07T07:58:16.000Z</time>
      </trkpt>
      <trkpt lat="43.61804" lon="6.83795">
        <ele>79</ele>
        <time>2019-02-07T07:58:17.000Z</time>
      </trkpt>
      <trkpt lat="43.61803" lon="6.83797">
        <ele>79</ele>
        <time>2019-02-07T07:58:18.000Z</time>
      </trkpt>
      <trkpt lat="43.61803" lon="6.83798">
        <ele>80</ele>
        <time>2019-02-07T07:58:19.000Z</time>
      </trkpt>
      <trkpt lat="43.61802" lon="6.83799">
        <ele>82</ele>
        <time>2019-02-07T07:58:20.000Z</time>
      </trkpt>
      <trkpt lat="43.61802" lon="6.83801">
        <ele>82</ele>
        <time>2019-02-07T07:58:21.000Z</time>
      </trkpt>
      <trkpt lat="43.61801" lon="6.83802">
        <ele>83</ele>
        <time>2019-02-07T07:58:22.000Z</time>
      </trkpt>
      <trkpt lat="43.61801" lon="6.83804">
        <ele>83</ele>
        <time>2019-02-07T07:58:23.000Z</time>
      </trkpt>
      <trkpt lat="43.61801" lon="6.83805">
        <ele>84</ele>
        <time>2019-02-07T07:58:24.000Z</time>
      </trkpt>
      <trkpt lat="43.618" lon="6.83807">
        <ele>83</ele>
        <time>2019-02-07T07:58:25.000Z</time>
      </trkpt>
      <trkpt lat="43.61799" lon="6.83808">
        <ele>84</ele>
        <time>2019-02-07T07:58:26.000Z</time>
      </trkpt>
      <trkpt lat="43.61799" lon="6.8381">
        <ele>84</ele>
        <time>2019-02-07T07:58:27.000Z</time>
      </trkpt>
      <trkpt lat="43.61798" lon="6.83812">
        <ele>84</ele>
        <time>2019-02-07T07:58:28.000Z</time>
      </trkpt>
      <trkpt lat="43.61797" lon="6.83814">
        <ele>83</ele>
        <time>2019-02-07T07:58:29.000Z</time>
      </trkpt>
      <trkpt lat="43.61795" lon="6.83815">
        <ele>82</ele>
        <time>2019-02-07T07:58:30.000Z</time>
      </trkpt>
      <trkpt lat="43.61794" lon="6.83817">
        <ele>81</ele>
        <time>2019-02-07T07:58:31.000Z</time>
      </trkpt>
      <trkpt lat="43.61793" lon="6.83819">
        <ele>83</ele>
        <time>2019-02-07T07:58:32.000Z</time>
      </trkpt>
      <trkpt lat="43.61792" lon="6.8382">
        <ele>84</ele>
        <time>2019-02-07T07:58:33.000Z</time>
      </trkpt>
      <trkpt lat="43.61791" lon="6.83822">
        <ele>83</ele>
        <time>2019-02-07T07:58:34.000Z</time>
      </trkpt>
      <trkpt lat="43.6179" lon="6.83823">
        <ele>83</ele>
        <time>2019-02-07T07:58:35.000Z</time>
      </trkpt>
      <trkpt lat="43.61789" lon="6.83825">
        <ele>83</ele>
        <time>2019-02-07T07:58:36.000Z</time>
      </trkpt>
      <trkpt lat="43.61788" lon="6.83827">
        <ele>83</ele>
        <time>2019-02-07T07:58:37.000Z</time>
      </trkpt>
      <trkpt lat="43.61787" lon="6.83829">
        <ele>83</ele>
        <time>2019-02-07T07:58:38.000Z</time>
      </trkpt>
      <trkpt lat="43.61786" lon="6.83831">
        <ele>84</ele>
        <time>2019-02-07T07:58:39.000Z</time>
      </trkpt>
      <trkpt lat="43.61785" lon="6.83834">
        <ele>83</ele>
        <time>2019-02-07T07:58:40.000Z</time>
      </trkpt>
      <trkpt lat="43.61783" lon="6.83835">
        <ele>84</ele>
        <time>2019-02-07T07:58:41.000Z</time>
      </trkpt>
      <trkpt lat="43.61782" lon="6.83837">
        <ele>84</ele>
        <time>2019-02-07T07:58:42.000Z</time>
      </trkpt>
      <trkpt lat="43.6178" lon="6.83838">
        <ele>84</ele>
        <time>2019-02-07T07:58:43.000Z</time>
      </trkpt>
      <trkpt lat="43.61778" lon="6.8384">
        <ele>84</ele>
        <time>2019-02-07T07:58:44.000Z</time>
      </trkpt>
      <trkpt lat="43.61777" lon="6.83841">
        <ele>85</ele>
        <time>2019-02-07T07:58:45.000Z</time>
      </trkpt>
      <trkpt lat="43.61776" lon="6.83842">
        <ele>84</ele>
        <time>2019-02-07T07:58:46.000Z</time>
      </trkpt>
      <trkpt lat="43.61775" lon="6.83843">
        <ele>84</ele>
        <time>2019-02-07T07:58:47.000Z</time>
      </trkpt>
      <trkpt lat="43.61774" lon="6.83845">
        <ele>83</ele>
        <time>2019-02-07T07:58:48.000Z</time>
      </trkpt>
      <trkpt lat="43.61773" lon="6.83848">
        <ele>82</ele>
        <time>2019-02-07T07:58:49.000Z</time>
      </trkpt>
      <trkpt lat="43.61772" lon="6.83851">
        <ele>81</ele>
        <time>2019-02-07T07:58:50.000Z</time>
      </trkpt>
      <trkpt lat="43.61772" lon="6.83854">
        <ele>81</ele>
        <time>2019-02-07T07:58:51.000Z</time>
      </trkpt>
      <trkpt lat="43.61772" lon="6.83857">
        <ele>80</ele>
        <time>2019-02-07T07:58:52.000Z</time>
      </trkpt>
      <trkpt lat="43.61771" lon="6.83858">
        <ele>79</ele>
        <time>2019-02-07T07:58:53.000Z</time>
      </trkpt>
      <trkpt lat="43.61769" lon="6.83859">
        <ele>77</ele>
        <time>2019-02-07T07:58:54.000Z</time>
      </trkpt>
      <trkpt lat="43.61768" lon="6.83859">
        <ele>77</ele>
        <time>2019-02-07T07:58:55.000Z</time>
      </trkpt>
      <trkpt lat="43.61766" lon="6.83859">
        <ele>76</ele>
        <time>2019-02-07T07:58:56.000Z</time>
      </trkpt>
      <trkpt lat="43.61765" lon="6.83859">
        <ele>76</ele>
        <time>2019-02-07T07:58:57.000Z</time>
      </trkpt>
      <trkpt lat="43.61764" lon="6.8386">
        <ele>77</ele>
        <time>2019-02-07T07:58:58.000Z</time>
      </trkpt>
      <trkpt lat="43.61762" lon="6.83861">
        <ele>77</ele>
        <time>2019-02-07T07:58:59.000Z</time>
      </trkpt>
      <trkpt lat="43.61761" lon="6.83861">
        <ele>76</ele>
        <time>2019-02-07T07:59:00.000Z</time>
      </trkpt>
      <trkpt lat="43.6176" lon="6.83862">
        <ele>76</ele>
        <time>2019-02-07T07:59:01.000Z</time>
      </trkpt>
      <trkpt lat="43.61758" lon="6.83863">
        <ele>75</ele>
        <time>2019-02-07T07:59:02.000Z</time>
      </trkpt>
      <trkpt lat="43.61757" lon="6.83864">
        <ele>75</ele>
        <time>2019-02-07T07:59:03.000Z</time>
      </trkpt>
      <trkpt lat="43.61755" lon="6.83865">
        <ele>75</ele>
        <time>2019-02-07T07:59:04.000Z</time>
      </trkpt>
      <trkpt lat="43.61754" lon="6.83866">
        <ele>76</ele>
        <time>2019-02-07T07:59:05.000Z</time>
      </trkpt>
      <trkpt lat="43.61752" lon="6.83867">
        <ele>76</ele>
        <time>2019-02-07T07:59:06.000Z</time>
      </trkpt>
      <trkpt lat="43.61751" lon="6.83868">
        <ele>76</ele>
        <time>2019-02-07T07:59:07.000Z</time>
      </trkpt>
      <trkpt lat="43.61749" lon="6.83869">
        <ele>76</ele>
        <time>2019-02-07T07:59:08.000Z</time>
      </trkpt>
      <trkpt lat="43.61748" lon="6.8387">
        <ele>76</ele>
        <time>2019-02-07T07:59:09.000Z</time>
      </trkpt>
      <trkpt lat="43.61746" lon="6.83871">
        <ele>77</ele>
        <time>2019-02-07T07:59:10.000Z</time>
      </trkpt>
      <trkpt lat="43.61745" lon="6.83873">
        <ele>77</ele>
        <time>2019-02-07T07:59:11.000Z</time>
      </trkpt>
      <trkpt lat="43.61744" lon="6.83874">
        <ele>77</ele>
        <time>2019-02-07T07:59:12.000Z</time>
      </trkpt>
      <trkpt lat="43.61742" lon="6.83876">
        <ele>76</ele>
        <time>2019-02-07T07:59:13.000Z</time>
      </trkpt>
      <trkpt lat="43.61741" lon="6.83877">
        <ele>77</ele>
        <time>2019-02-07T07:59:14.000Z</time>
      </trkpt>
      <trkpt lat="43.61739" lon="6.83878">
        <ele>78</ele>
        <time>2019-02-07T07:59:15.000Z</time>
      </trkpt>
      <trkpt lat="43.61738" lon="6.83879">
        <ele>79</ele>
        <time>2019-02-07T07:59:16.000Z</time>
      </trkpt>
      <trkpt lat="43.61736" lon="6.8388">
        <ele>78</ele>
        <time>2019-02-07T07:59:17.000Z</time>
      </trkpt>
      <trkpt lat="43.61735" lon="6.8388">
        <ele>79</ele>
        <time>2019-02-07T07:59:18.000Z</time>
      </trkpt>
      <trkpt lat="43.61734" lon="6.83879">
        <ele>79</ele>
        <time>2019-02-07T07:59:19.000Z</time>
      </trkpt>
      <trkpt lat="43.61733" lon="6.83879">
        <ele>79</ele>
        <time>2019-02-07T07:59:20.000Z</time>
      </trkpt>
      <trkpt lat="43.61732" lon="6.83879">
        <ele>79</ele>
        <time>2019-02-07T07:59:21.000Z</time>
      </trkpt>
      <trkpt lat="43.6173" lon="6.83879">
        <ele>80</ele>
        <time>2019-02-07T07:59:22.000Z</time>
      </trkpt>
      <trkpt lat="43.61729" lon="6.8388">
        <ele>79</ele>
        <time>2019-02-07T07:59:23.000Z</time>
      </trkpt>
      <trkpt lat="43.61727" lon="6.8388">
        <ele>79</ele>
        <time>2019-02-07T07:59:24.000Z</time>
      </trkpt>
      <trkpt lat="43.61725" lon="6.83881">
        <ele>79</ele>
        <time>2019-02-07T07:59:25.000Z</time>
      </trkpt>
      <trkpt lat="43.61723" lon="6.83882">
        <ele>79</ele>
        <time>2019-02-07T07:59:26.000Z</time>
      </trkpt>
      <trkpt lat="43.61721" lon="6.83883">
        <ele>79</ele>
        <time>2019-02-07T07:59:27.000Z</time>
      </trkpt>
      <trkpt lat="43.6172" lon="6.83884">
        <ele>79</ele>
        <time>2019-02-07T07:59:28.000Z</time>
      </trkpt>
      <trkpt lat="43.61718" lon="6.83884">
        <ele>79</ele>
        <time>2019-02-07T07:59:29.000Z</time>
      </trkpt>
      <trkpt lat="43.61717" lon="6.83885">
        <ele>78</ele>
        <time>2019-02-07T07:59:30.000Z</time>
      </trkpt>
      <trkpt lat="43.61715" lon="6.83886">
        <ele>77</ele>
        <time>2019-02-07T07:59:31.000Z</time>
      </trkpt>
      <trkpt lat="43.61713" lon="6.83887">
        <ele>76</ele>
        <time>2019-02-07T07:59:32.000Z</time>
      </trkpt>
      <trkpt lat="43.61712" lon="6.83888">
        <ele>74</ele>
        <time>2019-02-07T07:59:33.000Z</time>
      </trkpt>
      <trkpt lat="43.6171" lon="6.8389">
        <ele>74</ele>
        <time>2019-02-07T07:59:34.000Z</time>
      </trkpt>
      <trkpt lat="43.61708" lon="6.83891">
        <ele>74</ele>
        <time>2019-02-07T07:59:35.000Z</time>
      </trkpt>
      <trkpt lat="43.61706" lon="6.83891">
        <ele>73</ele>
        <time>2019-02-07T07:59:36.000Z</time>
      </trkpt>
      <trkpt lat="43.61705" lon="6.83892">
        <ele>73</ele>
        <time>2019-02-07T07:59:37.000Z</time>
      </trkpt>
      <trkpt lat="43.61703" lon="6.83893">
        <ele>72</ele>
        <time>2019-02-07T07:59:38.000Z</time>
      </trkpt>
      <trkpt lat="43.61701" lon="6.83894">
        <ele>72</ele>
        <time>2019-02-07T07:59:39.000Z</time>
      </trkpt>
      <trkpt lat="43.617" lon="6.83895">
        <ele>72</ele>
        <time>2019-02-07T07:59:40.000Z</time>
      </trkpt>
      <trkpt lat="43.61699" lon="6.83896">
        <ele>73</ele>
        <time>2019-02-07T07:59:41.000Z</time>
      </trkpt>
      <trkpt lat="43.61698" lon="6.83897">
        <ele>72</ele>
        <time>2019-02-07T07:59:42.000Z</time>
      </trkpt>
      <trkpt lat="43.61697" lon="6.83898">
        <ele>72</ele>
        <time>2019-02-07T07:59:43.000Z</time>
      </trkpt>
      <trkpt lat="43.61695" lon="6.83899">
        <ele>72</ele>
        <time>2019-02-07T07:59:44.000Z</time>
      </trkpt>
      <trkpt lat="43.61694" lon="6.83901">
        <ele>72</ele>
        <time>2019-02-07T07:59:45.000Z</time>
      </trkpt>
      <trkpt lat="43.61692" lon="6.83902">
        <ele>71</ele>
        <time>2019-02-07T07:59:46.000Z</time>
      </trkpt>
      <trkpt lat="43.6169" lon="6.83903">
        <ele>71</ele>
        <time>2019-02-07T07:59:47.000Z</time>
      </trkpt>
      <trkpt lat="43.61689" lon="6.83904">
        <ele>71</ele>
        <time>2019-02-07T07:59:48.000Z</time>
      </trkpt>
      <trkpt lat="43.61687" lon="6.83905">
        <ele>70</ele>
        <time>2019-02-07T07:59:49.000Z</time>
      </trkpt>
      <trkpt lat="43.61685" lon="6.83906">
        <ele>69</ele>
        <time>2019-02-07T07:59:50.000Z</time>
      </trkpt>
      <trkpt lat="43.61683" lon="6.83906">
        <ele>68</ele>
        <time>2019-02-07T07:59:51.000Z</time>
      </trkpt>
      <trkpt lat="43.61681" lon="6.83907">
        <ele>67</ele>
        <time>2019-02-07T07:59:52.000Z</time>
      </trkpt>
      <trkpt lat="43.61679" lon="6.83908">
        <ele>67</ele>
        <time>2019-02-07T07:59:53.000Z</time>
      </trkpt>
      <trkpt lat="43.61678" lon="6.83909">
        <ele>67</ele>
        <time>2019-02-07T07:59:54.000Z</time>
      </trkpt>
      <trkpt lat="43.61676" lon="6.8391">
        <ele>66</ele>
        <time>2019-02-07T07:59:55.000Z</time>
      </trkpt>
      <trkpt lat="43.61675" lon="6.83911">
        <ele>67</ele>
        <time>2019-02-07T07:59:56.000Z</time>
      </trkpt>
      <trkpt lat="43.61673" lon="6.83911">
        <ele>66</ele>
        <time>2019-02-07T07:59:57.000Z</time>
      </trkpt>
      <trkpt lat="43.61672" lon="6.83912">
        <ele>65</ele>
        <time>2019-02-07T07:59:58.000Z</time>
      </trkpt>
      <trkpt lat="43.6167" lon="6.83913">
        <ele>65</ele>
        <time>2019-02-07T07:59:59.000Z</time>
      </trkpt>
      <trkpt lat="43.61669" lon="6.83913">
        <ele>66</ele>
        <time>2019-02-07T08:00:00.000Z</time>
      </trkpt>
      <trkpt lat="43.61667" lon="6.83914">
        <ele>66</ele>
        <time>2019-02-07T08:00:01.000Z</time>
      </trkpt>
      <trkpt lat="43.61665" lon="6.83916">
        <ele>67</ele>
        <time>2019-02-07T08:00:02.000Z</time>
      </trkpt>
      <trkpt lat="43.61664" lon="6.83917">
        <ele>68</ele>
        <time>2019-02-07T08:00:03.000Z</time>
      </trkpt>
      <trkpt lat="43.61663" lon="6.83919">
        <ele>68</ele>
        <time>2019-02-07T08:00:04.000Z</time>
      </trkpt>
      <trkpt lat="43.61662" lon="6.8392">
        <ele>69</ele>
        <time>2019-02-07T08:00:05.000Z</time>
      </trkpt>
      <trkpt lat="43.61661" lon="6.83921">
        <ele>69</ele>
        <time>2019-02-07T08:00:06.000Z</time>
      </trkpt>
      <trkpt lat="43.6166" lon="6.83922">
        <ele>71</ele>
        <time>2019-02-07T08:00:07.000Z</time>
      </trkpt>
      <trkpt lat="43.61659" lon="6.83922">
        <ele>71</ele>
        <time>2019-02-07T08:00:08.000Z</time>
      </trkpt>
      <trkpt lat="43.61658" lon="6.83923">
        <ele>72</ele>
        <time>2019-02-07T08:00:09.000Z</time>
      </trkpt>
      <trkpt lat="43.61657" lon="6.83923">
        <ele>73</ele>
        <time>2019-02-07T08:00:10.000Z</time>
      </trkpt>
      <trkpt lat="43.61655" lon="6.83924">
        <ele>76</ele>
        <time>2019-02-07T08:00:11.000Z</time>
      </trkpt>
      <trkpt lat="43.61654" lon="6.83926">
        <ele>77</ele>
        <time>2019-02-07T08:00:12.000Z</time>
      </trkpt>
      <trkpt lat="43.61653" lon="6.83927">
        <ele>78</ele>
        <time>2019-02-07T08:00:13.000Z</time>
      </trkpt>
      <trkpt lat="43.61653" lon="6.83929">
        <ele>79</ele>
        <time>2019-02-07T08:00:14.000Z</time>
      </trkpt>
      <trkpt lat="43.61652" lon="6.8393">
        <ele>79</ele>
        <time>2019-02-07T08:00:15.000Z</time>
      </trkpt>
      <trkpt lat="43.61651" lon="6.83932">
        <ele>79</ele>
        <time>2019-02-07T08:00:16.000Z</time>
      </trkpt>
      <trkpt lat="43.6165" lon="6.83933">
        <ele>79</ele>
        <time>2019-02-07T08:00:17.000Z</time>
      </trkpt>
      <trkpt lat="43.61649" lon="6.83934">
        <ele>78</ele>
        <time>2019-02-07T08:00:18.000Z</time>
      </trkpt>
      <trkpt lat="43.61647" lon="6.83935">
        <ele>77</ele>
        <time>2019-02-07T08:00:19.000Z</time>
      </trkpt>
      <trkpt lat="43.61645" lon="6.83935">
        <ele>76</ele>
        <time>2019-02-07T08:00:20.000Z</time>
      </trkpt>
      <trkpt lat="43.61644" lon="6.83935">
        <ele>76</ele>
        <time>2019-02-07T08:00:21.000Z</time>
      </trkpt>
      <trkpt lat="43.61642" lon="6.83935">
        <ele>76</ele>
        <time>2019-02-07T08:00:22.000Z</time>
      </trkpt>
      <trkpt lat="43.61641" lon="6.83935">
        <ele>76</ele>
        <time>2019-02-07T08:00:23.000Z</time>
      </trkpt>
      <trkpt lat="43.6164" lon="6.83935">
        <ele>76</ele>
        <time>2019-02-07T08:00:24.000Z</time>
      </trkpt>
      <trkpt lat="43.61639" lon="6.83936">
        <ele>76</ele>
        <time>2019-02-07T08:00:25.000Z</time>
      </trkpt>
      <trkpt lat="43.61638" lon="6.83936">
        <ele>76</ele>
        <time>2019-02-07T08:00:26.000Z</time>
      </trkpt>
      <trkpt lat="43.61636" lon="6.83937">
        <ele>76</ele>
        <time>2019-02-07T08:00:27.000Z</time>
      </trkpt>
      <trkpt lat="43.61635" lon="6.83937">
        <ele>76</ele>
        <time>2019-02-07T08:00:28.000Z</time>
      </trkpt>
      <trkpt lat="43.61634" lon="6.83938">
        <ele>76</ele>
        <time>2019-02-07T08:00:29.000Z</time>
      </trkpt>
      <trkpt lat="43.61633" lon="6.8394">
        <ele>75</ele>
        <time>2019-02-07T08:00:30.000Z</time>
      </trkpt>
      <trkpt lat="43.61631" lon="6.83942">
        <ele>74</ele>
        <time>2019-02-07T08:00:31.000Z</time>
      </trkpt>
      <trkpt lat="43.6163" lon="6.83944">
        <ele>74</ele>
        <time>2019-02-07T08:00:32.000Z</time>
      </trkpt>
      <trkpt lat="43.61629" lon="6.83945">
        <ele>74</ele>
        <time>2019-02-07T08:00:33.000Z</time>
      </trkpt>
      <trkpt lat="43.61628" lon="6.83945">
        <ele>73</ele>
        <time>2019-02-07T08:00:34.000Z</time>
      </trkpt>
      <trkpt lat="43.61627" lon="6.83946">
        <ele>73</ele>
        <time>2019-02-07T08:00:35.000Z</time>
      </trkpt>
      <trkpt lat="43.61626" lon="6.83946">
        <ele>73</ele>
        <time>2019-02-07T08:00:36.000Z</time>
      </trkpt>
      <trkpt lat="43.61625" lon="6.83945">
        <ele>73</ele>
        <time>2019-02-07T08:00:37.000Z</time>
      </trkpt>
      <trkpt lat="43.61625" lon="6.83945">
        <ele>73</ele>
        <time>2019-02-07T08:00:38.000Z</time>
      </trkpt>
      <trkpt lat="43.61624" lon="6.83944">
        <ele>72</ele>
        <time>2019-02-07T08:00:39.000Z</time>
      </trkpt>
      <trkpt lat="43.61623" lon="6.83944">
        <ele>72</ele>
        <time>2019-02-07T08:00:40.000Z</time>
      </trkpt>
      <trkpt lat="43.61623" lon="6.83943">
        <ele>72</ele>
        <time>2019-02-07T08:00:41.000Z</time>
      </trkpt>
      <trkpt lat="43.61622" lon="6.83942">
        <ele>71</ele>
        <time>2019-02-07T08:00:42.000Z</time>
      </trkpt>
      <trkpt lat="43.61622" lon="6.83942">
        <ele>71</ele>
        <time>2019-02-07T08:00:43.000Z</time>
      </trkpt>
      <trkpt lat="43.61621" lon="6.83942">
        <ele>71</ele>
        <time>2019-02-07T08:00:44.000Z</time>
      </trkpt>
      <trkpt lat="43.6162" lon="6.83943">
        <ele>71</ele>
        <time>2019-02-07T08:00:45.000Z</time>
      </trkpt>
      <trkpt lat="43.6162" lon="6.83943">
        <ele>71</ele>
        <time>2019-02-07T08:00:46.000Z</time>
      </trkpt>
      <trkpt lat="43.61619" lon="6.83943">
        <ele>71</ele>
        <time>2019-02-07T08:00:47.000Z</time>
      </trkpt>
      <trkpt lat="43.61618" lon="6.83943">
        <ele>71</ele>
        <time>2019-02-07T08:00:48.000Z</time>
      </trkpt>
      <trkpt lat="43.61618" lon="6.83944">
        <ele>71</ele>
        <time>2019-02-07T08:00:49.000Z</time>
      </trkpt>
      <trkpt lat="43.61618" lon="6.83944">
        <ele>70</ele>
        <time>2019-02-07T08:00:50.000Z</time>
      </trkpt>
      <trkpt lat="43.61616" lon="6.83945">
        <ele>70</ele>
        <time>2019-02-07T08:00:51.000Z</time>
      </trkpt>
      <trkpt lat="43.61615" lon="6.83946">
        <ele>71</ele>
        <time>2019-02-07T08:00:52.000Z</time>
      </trkpt>
      <trkpt lat="43.61614" lon="6.83947">
        <ele>71</ele>
        <time>2019-02-07T08:00:53.000Z</time>
      </trkpt>
      <trkpt lat="43.61613" lon="6.83947">
        <ele>70</ele>
        <time>2019-02-07T08:00:54.000Z</time>
      </trkpt>
      <trkpt lat="43.61611" lon="6.83948">
        <ele>70</ele>
        <time>2019-02-07T08:00:55.000Z</time>
      </trkpt>
      <trkpt lat="43.6161" lon="6.83949">
        <ele>69</ele>
        <time>2019-02-07T08:00:56.000Z</time>
      </trkpt>
      <trkpt lat="43.61609" lon="6.83951">
        <ele>69</ele>
        <time>2019-02-07T08:00:57.000Z</time>
      </trkpt>
      <trkpt lat="43.61607" lon="6.83952">
        <ele>68</ele>
        <time>2019-02-07T08:00:58.000Z</time>
      </trkpt>
      <trkpt lat="43.61606" lon="6.83954">
        <ele>68</ele>
        <time>2019-02-07T08:00:59.000Z</time>
      </trkpt>
      <trkpt lat="43.61604" lon="6.83955">
        <ele>68</ele>
        <time>2019-02-07T08:01:00.000Z</time>
      </trkpt>
      <trkpt lat="43.61603" lon="6.83957">
        <ele>67</ele>
        <time>2019-02-07T08:01:01.000Z</time>
      </trkpt>
      <trkpt lat="43.61602" lon="6.83958">
        <ele>67</ele>
        <time>2019-02-07T08:01:02.000Z</time>
      </trkpt>
      <trkpt lat="43.61601" lon="6.83959">
        <ele>67</ele>
        <time>2019-02-07T08:01:03.000Z</time>
      </trkpt>
      <trkpt lat="43.616" lon="6.83961">
        <ele>67</ele>
        <time>2019-02-07T08:01:04.000Z</time>
      </trkpt>
      <trkpt lat="43.61599" lon="6.83962">
        <ele>67</ele>
        <time>2019-02-07T08:01:05.000Z</time>
      </trkpt>
      <trkpt lat="43.61598" lon="6.83963">
        <ele>67</ele>
        <time>2019-02-07T08:01:06.000Z</time>
      </trkpt>
      <trkpt lat="43.61597" lon="6.83965">
        <ele>67</ele>
        <time>2019-02-07T08:01:07.000Z</time>
      </trkpt>
      <trkpt lat="43.61596" lon="6.83967">
        <ele>67</ele>
        <time>2019-02-07T08:01:08.000Z</time>
      </trkpt>
      <trkpt lat="43.61596" lon="6.83969">
        <ele>67</ele>
        <time>2019-02-07T08:01:09.000Z</time>
      </trkpt>
      <trkpt lat="43.61595" lon="6.83971">
        <ele>67</ele>
        <time>2019-02-07T08:01:10.000Z</time>
      </trkpt>
      <trkpt lat="43.61594" lon="6.83974">
        <ele>67</ele>
        <time>2019-02-07T08:01:11.000Z</time>
      </trkpt>
      <trkpt lat="43.61594" lon="6.83976">
        <ele>67</ele>
        <time>2019-02-07T08:01:12.000Z</time>
      </trkpt>
      <trkpt lat="43.61593" lon="6.83977">
        <ele>66</ele>
        <time>2019-02-07T08:01:13.000Z</time>
      </trkpt>
      <trkpt lat="43.61592" lon="6.83979">
        <ele>66</ele>
        <time>2019-02-07T08:01:14.000Z</time>
      </trkpt>
      <trkpt lat="43.6159" lon="6.8398">
        <ele>66</ele>
        <time>2019-02-07T08:01:15.000Z</time>
      </trkpt>
      <trkpt lat="43.61589" lon="6.83982">
        <ele>66</ele>
        <time>2019-02-07T08:01:16.000Z</time>
      </trkpt>
      <trkpt lat="43.61588" lon="6.83983">
        <ele>66</ele>
        <time>2019-02-07T08:01:17.000Z</time>
      </trkpt>
      <trkpt lat="43.61586" lon="6.83985">
        <ele>67</ele>
        <time>2019-02-07T08:01:18.000Z</time>
      </trkpt>
      <trkpt lat="43.61585" lon="6.83987">
        <ele>67</ele>
        <time>2019-02-07T08:01:19.000Z</time>
      </trkpt>
      <trkpt lat="43.61584" lon="6.83989">
        <ele>67</ele>
        <time>2019-02-07T08:01:20.000Z</time>
      </trkpt>
      <trkpt lat="43.61583" lon="6.83991">
        <ele>67</ele>
        <time>2019-02-07T08:01:21.000Z</time>
      </trkpt>
      <trkpt lat="43.61581" lon="6.83993">
        <ele>67</ele>
        <time>2019-02-07T08:01:22.000Z</time>
      </trkpt>
      <trkpt lat="43.6158" lon="6.83995">
        <ele>67</ele>
        <time>2019-02-07T08:01:23.000Z</time>
      </trkpt>
      <trkpt lat="43.61579" lon="6.83997">
        <ele>69</ele>
        <time>2019-02-07T08:01:24.000Z</time>
      </trkpt>
      <trkpt lat="43.61578" lon="6.83999">
        <ele>69</ele>
        <time>2019-02-07T08:01:25.000Z</time>
      </trkpt>
      <trkpt lat="43.61576" lon="6.84001">
        <ele>69</ele>
        <time>2019-02-07T08:01:26.000Z</time>
      </trkpt>
      <trkpt lat="43.61574" lon="6.84003">
        <ele>70</ele>
        <time>2019-02-07T08:01:27.000Z</time>
      </trkpt>
      <trkpt lat="43.61573" lon="6.84004">
        <ele>69</ele>
        <time>2019-02-07T08:01:28.000Z</time>
      </trkpt>
      <trkpt lat="43.61571" lon="6.84006">
        <ele>69</ele>
        <time>2019-02-07T08:01:29.000Z</time>
      </trkpt>
      <trkpt lat="43.6157" lon="6.84007">
        <ele>70</ele>
        <time>2019-02-07T08:01:30.000Z</time>
      </trkpt>
      <trkpt lat="43.61568" lon="6.84009">
        <ele>70</ele>
        <time>2019-02-07T08:01:31.000Z</time>
      </trkpt>
      <trkpt lat="43.61566" lon="6.84011">
        <ele>70</ele>
        <time>2019-02-07T08:01:32.000Z</time>
      </trkpt>
      <trkpt lat="43.61564" lon="6.84012">
        <ele>70</ele>
        <time>2019-02-07T08:01:33.000Z</time>
      </trkpt>
      <trkpt lat="43.61562" lon="6.84014">
        <ele>70</ele>
        <time>2019-02-07T08:01:34.000Z</time>
      </trkpt>
      <trkpt lat="43.6156" lon="6.84015">
        <ele>70</ele>
        <time>2019-02-07T08:01:35.000Z</time>
      </trkpt>
      <trkpt lat="43.61558" lon="6.84016">
        <ele>70</ele>
        <time>2019-02-07T08:01:36.000Z</time>
      </trkpt>
      <trkpt lat="43.61556" lon="6.84018">
        <ele>68</ele>
        <time>2019-02-07T08:01:37.000Z</time>
      </trkpt>
      <trkpt lat="43.61554" lon="6.84019">
        <ele>67</ele>
        <time>2019-02-07T08:01:38.000Z</time>
      </trkpt>
      <trkpt lat="43.61551" lon="6.8402">
        <ele>68</ele>
        <time>2019-02-07T08:01:39.000Z</time>
      </trkpt>
      <trkpt lat="43.61549" lon="6.84022">
        <ele>68</ele>
        <time>2019-02-07T08:01:40.000Z</time>
      </trkpt>
      <trkpt lat="43.61547" lon="6.84023">
        <ele>68</ele>
        <time>2019-02-07T08:01:41.000Z</time>
      </trkpt>
      <trkpt lat="43.61545" lon="6.84025">
        <ele>68</ele>
        <time>2019-02-07T08:01:42.000Z</time>
      </trkpt>
      <trkpt lat="43.61543" lon="6.84027">
        <ele>67</ele>
        <time>2019-02-07T08:01:43.000Z</time>
      </trkpt>
      <trkpt lat="43.61542" lon="6.84029">
        <ele>67</ele>
        <time>2019-02-07T08:01:44.000Z</time>
      </trkpt>
      <trkpt lat="43.6154" lon="6.84031">
        <ele>67</ele>
        <time>2019-02-07T08:01:45.000Z</time>
      </trkpt>
      <trkpt lat="43.61539" lon="6.84033">
        <ele>67</ele>
        <time>2019-02-07T08:01:46.000Z</time>
      </trkpt>
      <trkpt lat="43.61538" lon="6.84034">
        <ele>68</ele>
        <time>2019-02-07T08:01:47.000Z</time>
      </trkpt>
      <trkpt lat="43.61536" lon="6.84035">
        <ele>66</ele>
        <time>2019-02-07T08:01:48.000Z</time>
      </trkpt>
      <trkpt lat="43.61535" lon="6.84035">
        <ele>65</ele>
        <time>2019-02-07T08:01:49.000Z</time>
      </trkpt>
      <trkpt lat="43.61533" lon="6.84036">
        <ele>65</ele>
        <time>2019-02-07T08:01:50.000Z</time>
      </trkpt>
      <trkpt lat="43.61531" lon="6.84036">
        <ele>65</ele>
        <time>2019-02-07T08:01:51.000Z</time>
      </trkpt>
      <trkpt lat="43.61529" lon="6.84038">
        <ele>65</ele>
        <time>2019-02-07T08:01:52.000Z</time>
      </trkpt>
      <trkpt lat="43.61528" lon="6.8404">
        <ele>67</ele>
        <time>2019-02-07T08:01:53.000Z</time>
      </trkpt>
      <trkpt lat="43.61526" lon="6.84042">
        <ele>67</ele>
        <time>2019-02-07T08:01:54.000Z</time>
      </trkpt>
      <trkpt lat="43.61525" lon="6.84044">
        <ele>68</ele>
        <time>2019-02-07T08:01:55.000Z</time>
      </trkpt>
      <trkpt lat="43.61524" lon="6.84046">
        <ele>68</ele>
        <time>2019-02-07T08:01:56.000Z</time>
      </trkpt>
      <trkpt lat="43.61523" lon="6.84048">
        <ele>69</ele>
        <time>2019-02-07T08:01:57.000Z</time>
      </trkpt>
      <trkpt lat="43.61522" lon="6.84051">
        <ele>70</ele>
        <time>2019-02-07T08:01:58.000Z</time>
      </trkpt>
      <trkpt lat="43.61521" lon="6.84053">
        <ele>70</ele>
        <time>2019-02-07T08:01:59.000Z</time>
      </trkpt>
      <trkpt lat="43.6152" lon="6.84055">
        <ele>71</ele>
        <time>2019-02-07T08:02:00.000Z</time>
      </trkpt>
      <trkpt lat="43.61519" lon="6.84057">
        <ele>71</ele>
        <time>2019-02-07T08:02:01.000Z</time>
      </trkpt>
      <trkpt lat="43.61519" lon="6.84059">
        <ele>71</ele>
        <time>2019-02-07T08:02:02.000Z</time>
      </trkpt>
      <trkpt lat="43.61519" lon="6.84061">
        <ele>70</ele>
        <time>2019-02-07T08:02:03.000Z</time>
      </trkpt>
      <trkpt lat="43.61517" lon="6.84063">
        <ele>68</ele>
        <time>2019-02-07T08:02:04.000Z</time>
      </trkpt>
      <trkpt lat="43.61515" lon="6.84064">
        <ele>66</ele>
        <time>2019-02-07T08:02:05.000Z</time>
      </trkpt>
      <trkpt lat="43.61513" lon="6.84064">
        <ele>66</ele>
        <time>2019-02-07T08:02:06.000Z</time>
      </trkpt>
      <trkpt lat="43.61511" lon="6.84064">
        <ele>67</ele>
        <time>2019-02-07T08:02:07.000Z</time>
      </trkpt>
      <trkpt lat="43.61509" lon="6.84064">
        <ele>67</ele>
        <time>2019-02-07T08:02:08.000Z</time>
      </trkpt>
      <trkpt lat="43.61507" lon="6.84064">
        <ele>67</ele>
        <time>2019-02-07T08:02:09.000Z</time>
      </trkpt>
      <trkpt lat="43.61506" lon="6.84065">
        <ele>66</ele>
        <time>2019-02-07T08:02:10.000Z</time>
      </trkpt>
      <trkpt lat="43.61504" lon="6.84065">
        <ele>66</ele>
        <time>2019-02-07T08:02:11.000Z</time>
      </trkpt>
      <trkpt lat="43.61503" lon="6.84065">
        <ele>66</ele>
        <time>2019-02-07T08:02:12.000Z</time>
      </trkpt>
      <trkpt lat="43.61501" lon="6.84065">
        <ele>66</ele>
        <time>2019-02-07T08:02:13.000Z</time>
      </trkpt>
      <trkpt lat="43.61499" lon="6.84065">
        <ele>66</ele>
        <time>2019-02-07T08:02:14.000Z</time>
      </trkpt>
      <trkpt lat="43.61498" lon="6.84066">
        <ele>66</ele>
        <time>2019-02-07T08:02:15.000Z</time>
      </trkpt>
      <trkpt lat="43.61496" lon="6.84066">
        <ele>66</ele>
        <time>2019-02-07T08:02:16.000Z</time>
      </trkpt>
      <trkpt lat="43.61494" lon="6.84066">
        <ele>65</ele>
        <time>2019-02-07T08:02:17.000Z</time>
      </trkpt>
      <trkpt lat="43.61493" lon="6.84066">
        <ele>64</ele>
        <time>2019-02-07T08:02:18.000Z</time>
      </trkpt>
      <trkpt lat="43.61491" lon="6.84066">
        <ele>65</ele>
        <time>2019-02-07T08:02:19.000Z</time>
      </trkpt>
      <trkpt lat="43.6149" lon="6.84066">
        <ele>65</ele>
        <time>2019-02-07T08:02:20.000Z</time>
      </trkpt>
      <trkpt lat="43.61488" lon="6.84067">
        <ele>65</ele>
        <time>2019-02-07T08:02:21.000Z</time>
      </trkpt>
      <trkpt lat="43.61487" lon="6.84067">
        <ele>66</ele>
        <time>2019-02-07T08:02:22.000Z</time>
      </trkpt>
      <trkpt lat="43.61485" lon="6.84067">
        <ele>67</ele>
        <time>2019-02-07T08:02:23.000Z</time>
      </trkpt>
      <trkpt lat="43.61484" lon="6.84067">
        <ele>67</ele>
        <time>2019-02-07T08:02:24.000Z</time>
      </trkpt>
      <trkpt lat="43.61482" lon="6.84067">
        <ele>67</ele>
        <time>2019-02-07T08:02:25.000Z</time>
      </trkpt>
      <trkpt lat="43.61481" lon="6.84067">
        <ele>66</ele>
        <time>2019-02-07T08:02:26.000Z</time>
      </trkpt>
      <trkpt lat="43.61479" lon="6.84067">
        <ele>66</ele>
        <time>2019-02-07T08:02:27.000Z</time>
      </trkpt>
      <trkpt lat="43.61478" lon="6.84067">
        <ele>66</ele>
        <time>2019-02-07T08:02:28.000Z</time>
      </trkpt>
      <trkpt lat="43.61476" lon="6.84066">
        <ele>66</ele>
        <time>2019-02-07T08:02:29.000Z</time>
      </trkpt>
      <trkpt lat="43.61475" lon="6.84065">
        <ele>67</ele>
        <time>2019-02-07T08:02:30.000Z</time>
      </trkpt>
      <trkpt lat="43.61474" lon="6.84065">
        <ele>67</ele>
        <time>2019-02-07T08:02:31.000Z</time>
      </trkpt>
      <trkpt lat="43.61472" lon="6.84065">
        <ele>69</ele>
        <time>2019-02-07T08:02:32.000Z</time>
      </trkpt>
      <trkpt lat="43.61471" lon="6.84065">
        <ele>70</ele>
        <time>2019-02-07T08:02:33.000Z</time>
      </trkpt>
      <trkpt lat="43.61471" lon="6.84065">
        <ele>71</ele>
        <time>2019-02-07T08:02:34.000Z</time>
      </trkpt>
      <trkpt lat="43.6147" lon="6.84065">
        <ele>71</ele>
        <time>2019-02-07T08:02:35.000Z</time>
      </trkpt>
      <trkpt lat="43.6147" lon="6.84064">
        <ele>72</ele>
        <time>2019-02-07T08:02:36.000Z</time>
      </trkpt>
      <trkpt lat="43.61469" lon="6.84063">
        <ele>72</ele>
        <time>2019-02-07T08:02:37.000Z</time>
      </trkpt>
      <trkpt lat="43.61468" lon="6.84062">
        <ele>74</ele>
        <time>2019-02-07T08:02:38.000Z</time>
      </trkpt>
      <trkpt lat="43.61466" lon="6.84061">
        <ele>74</ele>
        <time>2019-02-07T08:02:39.000Z</time>
      </trkpt>
      <trkpt lat="43.61465" lon="6.8406">
        <ele>75</ele>
        <time>2019-02-07T08:02:40.000Z</time>
      </trkpt>
      <trkpt lat="43.61464" lon="6.84059">
        <ele>76</ele>
        <time>2019-02-07T08:02:41.000Z</time>
      </trkpt>
      <trkpt lat="43.61464" lon="6.84059">
        <ele>77</ele>
        <time>2019-02-07T08:02:42.000Z</time>
      </trkpt>
      <trkpt lat="43.61463" lon="6.84058">
        <ele>78</ele>
        <time>2019-02-07T08:02:43.000Z</time>
      </trkpt>
      <trkpt lat="43.61462" lon="6.84057">
        <ele>80</ele>
        <time>2019-02-07T08:02:44.000Z</time>
      </trkpt>
      <trkpt lat="43.61461" lon="6.84057">
        <ele>80</ele>
        <time>2019-02-07T08:02:45.000Z</time>
      </trkpt>
      <trkpt lat="43.61461" lon="6.84056">
        <ele>80</ele>
        <time>2019-02-07T08:02:46.000Z</time>
      </trkpt>
      <trkpt lat="43.6146" lon="6.84055">
        <ele>83</ele>
        <time>2019-02-07T08:02:47.000Z</time>
      </trkpt>
      <trkpt lat="43.61459" lon="6.84053">
        <ele>85</ele>
        <time>2019-02-07T08:02:48.000Z</time>
      </trkpt>
      <trkpt lat="43.61458" lon="6.84051">
        <ele>86</ele>
        <time>2019-02-07T08:02:49.000Z</time>
      </trkpt>
      <trkpt lat="43.61457" lon="6.84049">
        <ele>87</ele>
        <time>2019-02-07T08:02:50.000Z</time>
      </trkpt>
      <trkpt lat="43.61456" lon="6.84047">
        <ele>87</ele>
        <time>2019-02-07T08:02:51.000Z</time>
      </trkpt>
      <trkpt lat="43.61456" lon="6.84047">
        <ele>88</ele>
        <time>2019-02-07T08:02:52.000Z</time>
      </trkpt>
      <trkpt lat="43.61455" lon="6.84046">
        <ele>89</ele>
        <time>2019-02-07T08:02:53.000Z</time>
      </trkpt>
      <trkpt lat="43.61455" lon="6.84045">
        <ele>90</ele>
        <time>2019-02-07T08:02:54.000Z</time>
      </trkpt>
      <trkpt lat="43.61455" lon="6.84044">
        <ele>90</ele>
        <time>2019-02-07T08:02:55.000Z</time>
      </trkpt>
      <trkpt lat="43.61454" lon="6.84043">
        <ele>90</ele>
        <time>2019-02-07T08:02:56.000Z</time>
      </trkpt>
      <trkpt lat="43.61454" lon="6.84042">
        <ele>91</ele>
        <time>2019-02-07T08:02:57.000Z</time>
      </trkpt>
      <trkpt lat="43.61453" lon="6.84041">
        <ele>90</ele>
        <time>2019-02-07T08:02:58.000Z</time>
      </trkpt>
      <trkpt lat="43.61453" lon="6.84041">
        <ele>91</ele>
        <time>2019-02-07T08:02:59.000Z</time>
      </trkpt>
      <trkpt lat="43.61453" lon="6.84039">
        <ele>90</ele>
        <time>2019-02-07T08:03:00.000Z</time>
      </trkpt>
      <trkpt lat="43.61454" lon="6.84038">
        <ele>90</ele>
        <time>2019-02-07T08:03:01.000Z</time>
      </trkpt>
      <trkpt lat="43.61454" lon="6.84036">
        <ele>90</ele>
        <time>2019-02-07T08:03:02.000Z</time>
      </trkpt>
      <trkpt lat="43.61454" lon="6.84035">
        <ele>90</ele>
        <time>2019-02-07T08:03:03.000Z</time>
      </trkpt>
      <trkpt lat="43.61454" lon="6.84034">
        <ele>90</ele>
        <time>2019-02-07T08:03:04.000Z</time>
      </trkpt>
      <trkpt lat="43.61454" lon="6.84034">
        <ele>89</ele>
        <time>2019-02-07T08:03:05.000Z</time>
      </trkpt>
      <trkpt lat="43.61454" lon="6.84034">
        <ele>86</ele>
        <time>2019-02-07T08:03:06.000Z</time>
      </trkpt>
      <trkpt lat="43.61453" lon="6.84034">
        <ele>85</ele>
        <time>2019-02-07T08:03:07.000Z</time>
      </trkpt>
      <trkpt lat="43.61453" lon="6.84034">
        <ele>84</ele>
        <time>2019-02-07T08:03:08.000Z</time>
      </trkpt>
      <trkpt lat="43.61452" lon="6.84034">
        <ele>84</ele>
        <time>2019-02-07T08:03:09.000Z</time>
      </trkpt>
      <trkpt lat="43.61451" lon="6.84034">
        <ele>83</ele>
        <time>2019-02-07T08:03:10.000Z</time>
      </trkpt>
      <trkpt lat="43.61451" lon="6.84033">
        <ele>83</ele>
        <time>2019-02-07T08:03:11.000Z</time>
      </trkpt>
      <trkpt lat="43.61451" lon="6.84033">
        <ele>84</ele>
        <time>2019-02-07T08:03:12.000Z</time>
      </trkpt>
      <trkpt lat="43.6145" lon="6.84033">
        <ele>84</ele>
        <time>2019-02-07T08:03:13.000Z</time>
      </trkpt>
      <trkpt lat="43.6145" lon="6.84032">
        <ele>84</ele>
        <time>2019-02-07T08:03:14.000Z</time>
      </trkpt>
      <trkpt lat="43.6145" lon="6.84032">
        <ele>83</ele>
        <time>2019-02-07T08:03:15.000Z</time>
      </trkpt>
      <trkpt lat="43.61449" lon="6.84031">
        <ele>83</ele>
        <time>2019-02-07T08:03:16.000Z</time>
      </trkpt>
      <trkpt lat="43.61449" lon="6.84031">
        <ele>83</ele>
        <time>2019-02-07T08:03:17.000Z</time>
      </trkpt>
      <trkpt lat="43.61449" lon="6.84031">
        <ele>84</ele>
        <time>2019-02-07T08:03:18.000Z</time>
      </trkpt>
      <trkpt lat="43.61448" lon="6.84031">
        <ele>84</ele>
        <time>2019-02-07T08:03:19.000Z</time>
      </trkpt>
      <trkpt lat="43.61448" lon="6.84031">
        <ele>83</ele>
        <time>2019-02-07T08:03:20.000Z</time>
      </trkpt>
      <trkpt lat="43.61447" lon="6.84031">
        <ele>83</ele>
        <time>2019-02-07T08:03:21.000Z</time>
      </trkpt>
      <trkpt lat="43.61447" lon="6.8403">
        <ele>83</ele>
        <time>2019-02-07T08:03:22.000Z</time>
      </trkpt>
      <trkpt lat="43.61446" lon="6.84029">
        <ele>83</ele>
        <time>2019-02-07T08:03:23.000Z</time>
      </trkpt>
      <trkpt lat="43.61445" lon="6.84028">
        <ele>83</ele>
        <time>2019-02-07T08:03:24.000Z</time>
      </trkpt>
      <trkpt lat="43.61445" lon="6.84027">
        <ele>82</ele>
        <time>2019-02-07T08:03:25.000Z</time>
      </trkpt>
      <trkpt lat="43.61444" lon="6.84025">
        <ele>82</ele>
        <time>2019-02-07T08:03:26.000Z</time>
      </trkpt>
      <trkpt lat="43.61444" lon="6.84023">
        <ele>82</ele>
        <time>2019-02-07T08:03:27.000Z</time>
      </trkpt>
      <trkpt lat="43.61444" lon="6.84022">
        <ele>82</ele>
        <time>2019-02-07T08:03:28.000Z</time>
      </trkpt>
      <trkpt lat="43.61443" lon="6.84021">
        <ele>82</ele>
        <time>2019-02-07T08:03:29.000Z</time>
      </trkpt>
      <trkpt lat="43.61443" lon="6.84019">
        <ele>82</ele>
        <time>2019-02-07T08:03:30.000Z</time>
      </trkpt>
      <trkpt lat="43.61443" lon="6.84018">
        <ele>82</ele>
        <time>2019-02-07T08:03:31.000Z</time>
      </trkpt>
      <trkpt lat="43.61442" lon="6.84016">
        <ele>84</ele>
        <time>2019-02-07T08:03:32.000Z</time>
      </trkpt>
      <trkpt lat="43.61442" lon="6.84014">
        <ele>84</ele>
        <time>2019-02-07T08:03:33.000Z</time>
      </trkpt>
      <trkpt lat="43.61442" lon="6.84012">
        <ele>83</ele>
        <time>2019-02-07T08:03:34.000Z</time>
      </trkpt>
      <trkpt lat="43.61442" lon="6.84011">
        <ele>83</ele>
        <time>2019-02-07T08:03:35.000Z</time>
      </trkpt>
      <trkpt lat="43.61442" lon="6.84009">
        <ele>84</ele>
        <time>2019-02-07T08:03:36.000Z</time>
      </trkpt>
      <trkpt lat="43.61442" lon="6.84007">
        <ele>84</ele>
        <time>2019-02-07T08:03:37.000Z</time>
      </trkpt>
      <trkpt lat="43.61441" lon="6.84006">
        <ele>85</ele>
        <time>2019-02-07T08:03:38.000Z</time>
      </trkpt>
      <trkpt lat="43.61441" lon="6.84004">
        <ele>86</ele>
        <time>2019-02-07T08:03:39.000Z</time>
      </trkpt>
      <trkpt lat="43.61441" lon="6.84002">
        <ele>85</ele>
        <time>2019-02-07T08:03:40.000Z</time>
      </trkpt>
      <trkpt lat="43.61441" lon="6.84001">
        <ele>86</ele>
        <time>2019-02-07T08:03:41.000Z</time>
      </trkpt>
      <trkpt lat="43.6144" lon="6.84">
        <ele>85</ele>
        <time>2019-02-07T08:03:42.000Z</time>
      </trkpt>
      <trkpt lat="43.6144" lon="6.83999">
        <ele>86</ele>
        <time>2019-02-07T08:03:43.000Z</time>
      </trkpt>
      <trkpt lat="43.6144" lon="6.83997">
        <ele>85</ele>
        <time>2019-02-07T08:03:44.000Z</time>
      </trkpt>
      <trkpt lat="43.61439" lon="6.83995">
        <ele>86</ele>
        <time>2019-02-07T08:03:45.000Z</time>
      </trkpt>
      <trkpt lat="43.61438" lon="6.83994">
        <ele>85</ele>
        <time>2019-02-07T08:03:46.000Z</time>
      </trkpt>
      <trkpt lat="43.61438" lon="6.83992">
        <ele>85</ele>
        <time>2019-02-07T08:03:47.000Z</time>
      </trkpt>
      <trkpt lat="43.61437" lon="6.83991">
        <ele>85</ele>
        <time>2019-02-07T08:03:48.000Z</time>
      </trkpt>
      <trkpt lat="43.61437" lon="6.83989">
        <ele>86</ele>
        <time>2019-02-07T08:03:49.000Z</time>
      </trkpt>
      <trkpt lat="43.61437" lon="6.83987">
        <ele>85</ele>
        <time>2019-02-07T08:03:50.000Z</time>
      </trkpt>
      <trkpt lat="43.61437" lon="6.83985">
        <ele>85</ele>
        <time>2019-02-07T08:03:51.000Z</time>
      </trkpt>
      <trkpt lat="43.61438" lon="6.83983">
        <ele>85</ele>
        <time>2019-02-07T08:03:52.000Z</time>
      </trkpt>
      <trkpt lat="43.61438" lon="6.83981">
        <ele>85</ele>
        <time>2019-02-07T08:03:53.000Z</time>
      </trkpt>
      <trkpt lat="43.61438" lon="6.83979">
        <ele>86</ele>
        <time>2019-02-07T08:03:54.000Z</time>
      </trkpt>
      <trkpt lat="43.61438" lon="6.83977">
        <ele>86</ele>
        <time>2019-02-07T08:03:55.000Z</time>
      </trkpt>
      <trkpt lat="43.61438" lon="6.83975">
        <ele>86</ele>
        <time>2019-02-07T08:03:56.000Z</time>
      </trkpt>
      <trkpt lat="43.61438" lon="6.83974">
        <ele>85</ele>
        <time>2019-02-07T08:03:57.000Z</time>
      </trkpt>
      <trkpt lat="43.61438" lon="6.83972">
        <ele>85</ele>
        <time>2019-02-07T08:03:58.000Z</time>
      </trkpt>
      <trkpt lat="43.61438" lon="6.83971">
        <ele>83</ele>
        <time>2019-02-07T08:03:59.000Z</time>
      </trkpt>
      <trkpt lat="43.61438" lon="6.83969">
        <ele>83</ele>
        <time>2019-02-07T08:04:00.000Z</time>
      </trkpt>
      <trkpt lat="43.61438" lon="6.83968">
        <ele>82</ele>
        <time>2019-02-07T08:04:01.000Z</time>
      </trkpt>
      <trkpt lat="43.61438" lon="6.83966">
        <ele>83</ele>
        <time>2019-02-07T08:04:02.000Z</time>
      </trkpt>
      <trkpt lat="43.61438" lon="6.83965">
        <ele>82</ele>
        <time>2019-02-07T08:04:03.000Z</time>
      </trkpt>
      <trkpt lat="43.61438" lon="6.83963">
        <ele>81</ele>
        <time>2019-02-07T08:04:04.000Z</time>
      </trkpt>
      <trkpt lat="43.61437" lon="6.83962">
        <ele>80</ele>
        <time>2019-02-07T08:04:05.000Z</time>
      </trkpt>
      <trkpt lat="43.61437" lon="6.8396">
        <ele>79</ele>
        <time>2019-02-07T08:04:06.000Z</time>
      </trkpt>
      <trkpt lat="43.61436" lon="6.83959">
        <ele>80</ele>
        <time>2019-02-07T08:04:07.000Z</time>
      </trkpt>
      <trkpt lat="43.61436" lon="6.83957">
        <ele>80</ele>
        <time>2019-02-07T08:04:08.000Z</time>
      </trkpt>
      <trkpt lat="43.61435" lon="6.83956">
        <ele>80</ele>
        <time>2019-02-07T08:04:09.000Z</time>
      </trkpt>
      <trkpt lat="43.61435" lon="6.83954">
        <ele>80</ele>
        <time>2019-02-07T08:04:10.000Z</time>
      </trkpt>
      <trkpt lat="43.61435" lon="6.83953">
        <ele>79</ele>
        <time>2019-02-07T08:04:11.000Z</time>
      </trkpt>
      <trkpt lat="43.61435" lon="6.83952">
        <ele>79</ele>
        <time>2019-02-07T08:04:12.000Z</time>
      </trkpt>
      <trkpt lat="43.61434" lon="6.8395">
        <ele>79</ele>
        <time>2019-02-07T08:04:13.000Z</time>
      </trkpt>
      <trkpt lat="43.61434" lon="6.83949">
        <ele>77</ele>
        <time>2019-02-07T08:04:14.000Z</time>
      </trkpt>
      <trkpt lat="43.61434" lon="6.83948">
        <ele>77</ele>
        <time>2019-02-07T08:04:15.000Z</time>
      </trkpt>
      <trkpt lat="43.61434" lon="6.83946">
        <ele>76</ele>
        <time>2019-02-07T08:04:16.000Z</time>
      </trkpt>
      <trkpt lat="43.61434" lon="6.83945">
        <ele>75</ele>
        <time>2019-02-07T08:04:17.000Z</time>
      </trkpt>
      <trkpt lat="43.61434" lon="6.83943">
        <ele>75</ele>
        <time>2019-02-07T08:04:18.000Z</time>
      </trkpt>
      <trkpt lat="43.61434" lon="6.83942">
        <ele>75</ele>
        <time>2019-02-07T08:04:19.000Z</time>
      </trkpt>
      <trkpt lat="43.61434" lon="6.8394">
        <ele>75</ele>
        <time>2019-02-07T08:04:20.000Z</time>
      </trkpt>
      <trkpt lat="43.61433" lon="6.83938">
        <ele>75</ele>
        <time>2019-02-07T08:04:21.000Z</time>
      </trkpt>
      <trkpt lat="43.61433" lon="6.83935">
        <ele>77</ele>
        <time>2019-02-07T08:04:22.000Z</time>
      </trkpt>
      <trkpt lat="43.61433" lon="6.83933">
        <ele>76</ele>
        <time>2019-02-07T08:04:23.000Z</time>
      </trkpt>
      <trkpt lat="43.61433" lon="6.83931">
        <ele>76</ele>
        <time>2019-02-07T08:04:24.000Z</time>
      </trkpt>
      <trkpt lat="43.61433" lon="6.8393">
        <ele>76</ele>
        <time>2019-02-07T08:04:25.000Z</time>
      </trkpt>
      <trkpt lat="43.61433" lon="6.83929">
        <ele>75</ele>
        <time>2019-02-07T08:04:26.000Z</time>
      </trkpt>
      <trkpt lat="43.61432" lon="6.83928">
        <ele>75</ele>
        <time>2019-02-07T08:04:27.000Z</time>
      </trkpt>
      <trkpt lat="43.61432" lon="6.83926">
        <ele>75</ele>
        <time>2019-02-07T08:04:28.000Z</time>
      </trkpt>
      <trkpt lat="43.61431" lon="6.83925">
        <ele>75</ele>
        <time>2019-02-07T08:04:29.000Z</time>
      </trkpt>
      <trkpt lat="43.61431" lon="6.83924">
        <ele>75</ele>
        <time>2019-02-07T08:04:30.000Z</time>
      </trkpt>
      <trkpt lat="43.6143" lon="6.83922">
        <ele>76</ele>
        <time>2019-02-07T08:04:31.000Z</time>
      </trkpt>
      <trkpt lat="43.6143" lon="6.83921">
        <ele>76</ele>
        <time>2019-02-07T08:04:32.000Z</time>
      </trkpt>
      <trkpt lat="43.61429" lon="6.83919">
        <ele>76</ele>
        <time>2019-02-07T08:04:33.000Z</time>
      </trkpt>
      <trkpt lat="43.61429" lon="6.83917">
        <ele>76</ele>
        <time>2019-02-07T08:04:34.000Z</time>
      </trkpt>
      <trkpt lat="43.61428" lon="6.83915">
        <ele>76</ele>
        <time>2019-02-07T08:04:35.000Z</time>
      </trkpt>
      <trkpt lat="43.61428" lon="6.83914">
        <ele>76</ele>
        <time>2019-02-07T08:04:36.000Z</time>
      </trkpt>
      <trkpt lat="43.61427" lon="6.83912">
        <ele>77</ele>
        <time>2019-02-07T08:04:37.000Z</time>
      </trkpt>
      <trkpt lat="43.61426" lon="6.83912">
        <ele>76</ele>
        <time>2019-02-07T08:04:38.000Z</time>
      </trkpt>
      <trkpt lat="43.61425" lon="6.83911">
        <ele>76</ele>
        <time>2019-02-07T08:04:39.000Z</time>
      </trkpt>
      <trkpt lat="43.61424" lon="6.83911">
        <ele>76</ele>
        <time>2019-02-07T08:04:40.000Z</time>
      </trkpt>
      <trkpt lat="43.61423" lon="6.8391">
        <ele>75</ele>
        <time>2019-02-07T08:04:41.000Z</time>
      </trkpt>
      <trkpt lat="43.61421" lon="6.8391">
        <ele>74</ele>
        <time>2019-02-07T08:04:42.000Z</time>
      </trkpt>
      <trkpt lat="43.61419" lon="6.83909">
        <ele>73</ele>
        <time>2019-02-07T08:04:43.000Z</time>
      </trkpt>
      <trkpt lat="43.61417" lon="6.83908">
        <ele>72</ele>
        <time>2019-02-07T08:04:44.000Z</time>
      </trkpt>
      <trkpt lat="43.61415" lon="6.83908">
        <ele>72</ele>
        <time>2019-02-07T08:04:45.000Z</time>
      </trkpt>
      <trkpt lat="43.61413" lon="6.83907">
        <ele>73</ele>
        <time>2019-02-07T08:04:46.000Z</time>
      </trkpt>
      <trkpt lat="43.61412" lon="6.83907">
        <ele>72</ele>
        <time>2019-02-07T08:04:47.000Z</time>
      </trkpt>
      <trkpt lat="43.6141" lon="6.83906">
        <ele>71</ele>
        <time>2019-02-07T08:04:48.000Z</time>
      </trkpt>
      <trkpt lat="43.61408" lon="6.83906">
        <ele>71</ele>
        <time>2019-02-07T08:04:49.000Z</time>
      </trkpt>
      <trkpt lat="43.61407" lon="6.83906">
        <ele>71</ele>
        <time>2019-02-07T08:04:50.000Z</time>
      </trkpt>
      <trkpt lat="43.61405" lon="6.83905">
        <ele>71</ele>
        <time>2019-02-07T08:04:51.000Z</time>
      </trkpt>
      <trkpt lat="43.61403" lon="6.83906">
        <ele>71</ele>
        <time>2019-02-07T08:04:52.000Z</time>
      </trkpt>
      <trkpt lat="43.61401" lon="6.83906">
        <ele>71</ele>
        <time>2019-02-07T08:04:53.000Z</time>
      </trkpt>
      <trkpt lat="43.61399" lon="6.83906">
        <ele>71</ele>
        <time>2019-02-07T08:04:54.000Z</time>
      </trkpt>
      <trkpt lat="43.61398" lon="6.83907">
        <ele>70</ele>
        <time>2019-02-07T08:04:55.000Z</time>
      </trkpt>
      <trkpt lat="43.61397" lon="6.83908">
        <ele>70</ele>
        <time>2019-02-07T08:04:56.000Z</time>
      </trkpt>
      <trkpt lat="43.61396" lon="6.8391">
        <ele>70</ele>
        <time>2019-02-07T08:04:57.000Z</time>
      </trkpt>
      <trkpt lat="43.61395" lon="6.83911">
        <ele>71</ele>
        <time>2019-02-07T08:04:58.000Z</time>
      </trkpt>
      <trkpt lat="43.61394" lon="6.83913">
        <ele>71</ele>
        <time>2019-02-07T08:04:59.000Z</time>
      </trkpt>
      <trkpt lat="43.61393" lon="6.83914">
        <ele>71</ele>
        <time>2019-02-07T08:05:00.000Z</time>
      </trkpt>
      <trkpt lat="43.61392" lon="6.83916">
        <ele>70</ele>
        <time>2019-02-07T08:05:01.000Z</time>
      </trkpt>
      <trkpt lat="43.61391" lon="6.83918">
        <ele>70</ele>
        <time>2019-02-07T08:05:02.000Z</time>
      </trkpt>
      <trkpt lat="43.6139" lon="6.83919">
        <ele>70</ele>
        <time>2019-02-07T08:05:03.000Z</time>
      </trkpt>
      <trkpt lat="43.61389" lon="6.83921">
        <ele>70</ele>
        <time>2019-02-07T08:05:04.000Z</time>
      </trkpt>
      <trkpt lat="43.61388" lon="6.83924">
        <ele>71</ele>
        <time>2019-02-07T08:05:05.000Z</time>
      </trkpt>
      <trkpt lat="43.61387" lon="6.83927">
        <ele>72</ele>
        <time>2019-02-07T08:05:06.000Z</time>
      </trkpt>
      <trkpt lat="43.61386" lon="6.83931">
        <ele>72</ele>
        <time>2019-02-07T08:05:07.000Z</time>
      </trkpt>
      <trkpt lat="43.61385" lon="6.83934">
        <ele>71</ele>
        <time>2019-02-07T08:05:08.000Z</time>
      </trkpt>
      <trkpt lat="43.61384" lon="6.83936">
        <ele>70</ele>
        <time>2019-02-07T08:05:09.000Z</time>
      </trkpt>
      <trkpt lat="43.61382" lon="6.83938">
        <ele>70</ele>
        <time>2019-02-07T08:05:10.000Z</time>
      </trkpt>
      <trkpt lat="43.61381" lon="6.8394">
        <ele>69</ele>
        <time>2019-02-07T08:05:11.000Z</time>
      </trkpt>
      <trkpt lat="43.6138" lon="6.83941">
        <ele>69</ele>
        <time>2019-02-07T08:05:12.000Z</time>
      </trkpt>
      <trkpt lat="43.61379" lon="6.83943">
        <ele>70</ele>
        <time>2019-02-07T08:05:13.000Z</time>
      </trkpt>
      <trkpt lat="43.61378" lon="6.83945">
        <ele>69</ele>
        <time>2019-02-07T08:05:14.000Z</time>
      </trkpt>
      <trkpt lat="43.61377" lon="6.83948">
        <ele>69</ele>
        <time>2019-02-07T08:05:15.000Z</time>
      </trkpt>
      <trkpt lat="43.61376" lon="6.8395">
        <ele>69</ele>
        <time>2019-02-07T08:05:16.000Z</time>
      </trkpt>
      <trkpt lat="43.61375" lon="6.83952">
        <ele>70</ele>
        <time>2019-02-07T08:05:17.000Z</time>
      </trkpt>
      <trkpt lat="43.61374" lon="6.83954">
        <ele>70</ele>
        <time>2019-02-07T08:05:18.000Z</time>
      </trkpt>
      <trkpt lat="43.61373" lon="6.83955">
        <ele>71</ele>
        <time>2019-02-07T08:05:19.000Z</time>
      </trkpt>
      <trkpt lat="43.61371" lon="6.83956">
        <ele>71</ele>
        <time>2019-02-07T08:05:20.000Z</time>
      </trkpt>
      <trkpt lat="43.61369" lon="6.83957">
        <ele>70</ele>
        <time>2019-02-07T08:05:21.000Z</time>
      </trkpt>
      <trkpt lat="43.61368" lon="6.83958">
        <ele>70</ele>
        <time>2019-02-07T08:05:22.000Z</time>
      </trkpt>
      <trkpt lat="43.61366" lon="6.83959">
        <ele>70</ele>
        <time>2019-02-07T08:05:23.000Z</time>
      </trkpt>
      <trkpt lat="43.61364" lon="6.8396">
        <ele>70</ele>
        <time>2019-02-07T08:05:24.000Z</time>
      </trkpt>
      <trkpt lat="43.61363" lon="6.83962">
        <ele>71</ele>
        <time>2019-02-07T08:05:25.000Z</time>
      </trkpt>
      <trkpt lat="43.61361" lon="6.83964">
        <ele>70</ele>
        <time>2019-02-07T08:05:26.000Z</time>
      </trkpt>
      <trkpt lat="43.6136" lon="6.83966">
        <ele>70</ele>
        <time>2019-02-07T08:05:27.000Z</time>
      </trkpt>
      <trkpt lat="43.61359" lon="6.83968">
        <ele>69</ele>
        <time>2019-02-07T08:05:28.000Z</time>
      </trkpt>
      <trkpt lat="43.61357" lon="6.83969">
        <ele>67</ele>
        <time>2019-02-07T08:05:29.000Z</time>
      </trkpt>
      <trkpt lat="43.61356" lon="6.83969">
        <ele>67</ele>
        <time>2019-02-07T08:05:30.000Z</time>
      </trkpt>
      <trkpt lat="43.61354" lon="6.8397">
        <ele>67</ele>
        <time>2019-02-07T08:05:31.000Z</time>
      </trkpt>
      <trkpt lat="43.61353" lon="6.83972">
        <ele>69</ele>
        <time>2019-02-07T08:05:32.000Z</time>
      </trkpt>
      <trkpt lat="43.61352" lon="6.83973">
        <ele>69</ele>
        <time>2019-02-07T08:05:33.000Z</time>
      </trkpt>
      <trkpt lat="43.6135" lon="6.83975">
        <ele>69</ele>
        <time>2019-02-07T08:05:34.000Z</time>
      </trkpt>
      <trkpt lat="43.61349" lon="6.83977">
        <ele>70</ele>
        <time>2019-02-07T08:05:35.000Z</time>
      </trkpt>
      <trkpt lat="43.61347" lon="6.83978">
        <ele>70</ele>
        <time>2019-02-07T08:05:36.000Z</time>
      </trkpt>
      <trkpt lat="43.61345" lon="6.8398">
        <ele>69</ele>
        <time>2019-02-07T08:05:37.000Z</time>
      </trkpt>
      <trkpt lat="43.61344" lon="6.83981">
        <ele>69</ele>
        <time>2019-02-07T08:05:38.000Z</time>
      </trkpt>
      <trkpt lat="43.61342" lon="6.83982">
        <ele>69</ele>
        <time>2019-02-07T08:05:39.000Z</time>
      </trkpt>
      <trkpt lat="43.6134" lon="6.83983">
        <ele>69</ele>
        <time>2019-02-07T08:05:40.000Z</time>
      </trkpt>
      <trkpt lat="43.61338" lon="6.83984">
        <ele>69</ele>
        <time>2019-02-07T08:05:41.000Z</time>
      </trkpt>
      <trkpt lat="43.61337" lon="6.83985">
        <ele>70</ele>
        <time>2019-02-07T08:05:42.000Z</time>
      </trkpt>
      <trkpt lat="43.61335" lon="6.83987">
        <ele>73</ele>
        <time>2019-02-07T08:05:43.000Z</time>
      </trkpt>
      <trkpt lat="43.61334" lon="6.83989">
        <ele>72</ele>
        <time>2019-02-07T08:05:44.000Z</time>
      </trkpt>
      <trkpt lat="43.61333" lon="6.83991">
        <ele>72</ele>
        <time>2019-02-07T08:05:45.000Z</time>
      </trkpt>
      <trkpt lat="43.61333" lon="6.83993">
        <ele>71</ele>
        <time>2019-02-07T08:05:46.000Z</time>
      </trkpt>
      <trkpt lat="43.61332" lon="6.83994">
        <ele>71</ele>
        <time>2019-02-07T08:05:47.000Z</time>
      </trkpt>
      <trkpt lat="43.61331" lon="6.83996">
        <ele>71</ele>
        <time>2019-02-07T08:05:48.000Z</time>
      </trkpt>
      <trkpt lat="43.6133" lon="6.83998">
        <ele>71</ele>
        <time>2019-02-07T08:05:49.000Z</time>
      </trkpt>
      <trkpt lat="43.6133" lon="6.84">
        <ele>70</ele>
        <time>2019-02-07T08:05:50.000Z</time>
      </trkpt>
      <trkpt lat="43.61329" lon="6.84003">
        <ele>70</ele>
        <time>2019-02-07T08:05:51.000Z</time>
      </trkpt>
      <trkpt lat="43.61329" lon="6.84005">
        <ele>69</ele>
        <time>2019-02-07T08:05:52.000Z</time>
      </trkpt>
      <trkpt lat="43.61329" lon="6.84008">
        <ele>68</ele>
        <time>2019-02-07T08:05:53.000Z</time>
      </trkpt>
      <trkpt lat="43.61328" lon="6.8401">
        <ele>68</ele>
        <time>2019-02-07T08:05:54.000Z</time>
      </trkpt>
      <trkpt lat="43.61327" lon="6.84011">
        <ele>67</ele>
        <time>2019-02-07T08:05:55.000Z</time>
      </trkpt>
      <trkpt lat="43.61326" lon="6.84013">
        <ele>67</ele>
        <time>2019-02-07T08:05:56.000Z</time>
      </trkpt>
      <trkpt lat="43.61325" lon="6.84015">
        <ele>67</ele>
        <time>2019-02-07T08:05:57.000Z</time>
      </trkpt>
      <trkpt lat="43.61324" lon="6.84017">
        <ele>67</ele>
        <time>2019-02-07T08:05:58.000Z</time>
      </trkpt>
      <trkpt lat="43.61323" lon="6.84019">
        <ele>67</ele>
        <time>2019-02-07T08:05:59.000Z</time>
      </trkpt>
      <trkpt lat="43.61322" lon="6.84022">
        <ele>67</ele>
        <time>2019-02-07T08:06:00.000Z</time>
      </trkpt>
      <trkpt lat="43.61322" lon="6.84024">
        <ele>67</ele>
        <time>2019-02-07T08:06:01.000Z</time>
      </trkpt>
      <trkpt lat="43.61322" lon="6.84026">
        <ele>68</ele>
        <time>2019-02-07T08:06:02.000Z</time>
      </trkpt>
      <trkpt lat="43.61322" lon="6.84029">
        <ele>68</ele>
        <time>2019-02-07T08:06:03.000Z</time>
      </trkpt>
      <trkpt lat="43.61322" lon="6.84032">
        <ele>70</ele>
        <time>2019-02-07T08:06:04.000Z</time>
      </trkpt>
      <trkpt lat="43.61322" lon="6.84036">
        <ele>70</ele>
        <time>2019-02-07T08:06:05.000Z</time>
      </trkpt>
      <trkpt lat="43.61321" lon="6.84039">
        <ele>71</ele>
        <time>2019-02-07T08:06:06.000Z</time>
      </trkpt>
      <trkpt lat="43.61321" lon="6.84042">
        <ele>71</ele>
        <time>2019-02-07T08:06:07.000Z</time>
      </trkpt>
      <trkpt lat="43.61321" lon="6.84045">
        <ele>71</ele>
        <time>2019-02-07T08:06:08.000Z</time>
      </trkpt>
      <trkpt lat="43.61321" lon="6.84048">
        <ele>71</ele>
        <time>2019-02-07T08:06:09.000Z</time>
      </trkpt>
      <trkpt lat="43.6132" lon="6.84051">
        <ele>71</ele>
        <time>2019-02-07T08:06:10.000Z</time>
      </trkpt>
      <trkpt lat="43.6132" lon="6.84053">
        <ele>71</ele>
        <time>2019-02-07T08:06:11.000Z</time>
      </trkpt>
      <trkpt lat="43.6132" lon="6.84055">
        <ele>71</ele>
        <time>2019-02-07T08:06:12.000Z</time>
      </trkpt>
      <trkpt lat="43.61319" lon="6.84057">
        <ele>72</ele>
        <time>2019-02-07T08:06:13.000Z</time>
      </trkpt>
      <trkpt lat="43.61319" lon="6.84059">
        <ele>71</ele>
        <time>2019-02-07T08:06:14.000Z</time>
      </trkpt>
      <trkpt lat="43.61318" lon="6.84061">
        <ele>71</ele>
        <time>2019-02-07T08:06:15.000Z</time>
      </trkpt>
      <trkpt lat="43.61318" lon="6.84064">
        <ele>71</ele>
        <time>2019-02-07T08:06:16.000Z</time>
      </trkpt>
      <trkpt lat="43.61318" lon="6.84066">
        <ele>72</ele>
        <time>2019-02-07T08:06:17.000Z</time>
      </trkpt>
      <trkpt lat="43.61318" lon="6.84069">
        <ele>72</ele>
        <time>2019-02-07T08:06:18.000Z</time>
      </trkpt>
      <trkpt lat="43.61317" lon="6.84071">
        <ele>71</ele>
        <time>2019-02-07T08:06:19.000Z</time>
      </trkpt>
      <trkpt lat="43.61317" lon="6.84074">
        <ele>71</ele>
        <time>2019-02-07T08:06:20.000Z</time>
      </trkpt>
      <trkpt lat="43.61316" lon="6.84076">
        <ele>70</ele>
        <time>2019-02-07T08:06:21.000Z</time>
      </trkpt>
      <trkpt lat="43.61316" lon="6.84078">
        <ele>70</ele>
        <time>2019-02-07T08:06:22.000Z</time>
      </trkpt>
      <trkpt lat="43.61315" lon="6.84081">
        <ele>70</ele>
        <time>2019-02-07T08:06:23.000Z</time>
      </trkpt>
      <trkpt lat="43.61315" lon="6.84084">
        <ele>70</ele>
        <time>2019-02-07T08:06:24.000Z</time>
      </trkpt>
      <trkpt lat="43.61315" lon="6.84087">
        <ele>70</ele>
        <time>2019-02-07T08:06:25.000Z</time>
      </trkpt>
      <trkpt lat="43.61314" lon="6.8409">
        <ele>70</ele>
        <time>2019-02-07T08:06:26.000Z</time>
      </trkpt>
      <trkpt lat="43.61314" lon="6.84092">
        <ele>70</ele>
        <time>2019-02-07T08:06:27.000Z</time>
      </trkpt>
      <trkpt lat="43.61313" lon="6.84095">
        <ele>69</ele>
        <time>2019-02-07T08:06:28.000Z</time>
      </trkpt>
      <trkpt lat="43.61313" lon="6.84098">
        <ele>68</ele>
        <time>2019-02-07T08:06:29.000Z</time>
      </trkpt>
      <trkpt lat="43.61312" lon="6.841">
        <ele>68</ele>
        <time>2019-02-07T08:06:30.000Z</time>
      </trkpt>
      <trkpt lat="43.61311" lon="6.84103">
        <ele>68</ele>
        <time>2019-02-07T08:06:31.000Z</time>
      </trkpt>
      <trkpt lat="43.6131" lon="6.84106">
        <ele>69</ele>
        <time>2019-02-07T08:06:32.000Z</time>
      </trkpt>
      <trkpt lat="43.6131" lon="6.84109">
        <ele>69</ele>
        <time>2019-02-07T08:06:33.000Z</time>
      </trkpt>
      <trkpt lat="43.6131" lon="6.84112">
        <ele>67</ele>
        <time>2019-02-07T08:06:34.000Z</time>
      </trkpt>
      <trkpt lat="43.61309" lon="6.84115">
        <ele>67</ele>
        <time>2019-02-07T08:06:35.000Z</time>
      </trkpt>
      <trkpt lat="43.61309" lon="6.84118">
        <ele>67</ele>
        <time>2019-02-07T08:06:36.000Z</time>
      </trkpt>
      <trkpt lat="43.61309" lon="6.8412">
        <ele>67</ele>
        <time>2019-02-07T08:06:37.000Z</time>
      </trkpt>
      <trkpt lat="43.61308" lon="6.84123">
        <ele>67</ele>
        <time>2019-02-07T08:06:38.000Z</time>
      </trkpt>
      <trkpt lat="43.61308" lon="6.84125">
        <ele>68</ele>
        <time>2019-02-07T08:06:39.000Z</time>
      </trkpt>
      <trkpt lat="43.61308" lon="6.84128">
        <ele>68</ele>
        <time>2019-02-07T08:06:40.000Z</time>
      </trkpt>
      <trkpt lat="43.61308" lon="6.8413">
        <ele>67</ele>
        <time>2019-02-07T08:06:41.000Z</time>
      </trkpt>
      <trkpt lat="43.61307" lon="6.84132">
        <ele>67</ele>
        <time>2019-02-07T08:06:42.000Z</time>
      </trkpt>
      <trkpt lat="43.61307" lon="6.84134">
        <ele>66</ele>
        <time>2019-02-07T08:06:43.000Z</time>
      </trkpt>
      <trkpt lat="43.61306" lon="6.84137">
        <ele>66</ele>
        <time>2019-02-07T08:06:44.000Z</time>
      </trkpt>
      <trkpt lat="43.61306" lon="6.8414">
        <ele>66</ele>
        <time>2019-02-07T08:06:45.000Z</time>
      </trkpt>
      <trkpt lat="43.61305" lon="6.84144">
        <ele>66</ele>
        <time>2019-02-07T08:06:46.000Z</time>
      </trkpt>
      <trkpt lat="43.61305" lon="6.84146">
        <ele>67</ele>
        <time>2019-02-07T08:06:47.000Z</time>
      </trkpt>
      <trkpt lat="43.61306" lon="6.84149">
        <ele>67</ele>
        <time>2019-02-07T08:06:48.000Z</time>
      </trkpt>
      <trkpt lat="43.61306" lon="6.84151">
        <ele>68</ele>
        <time>2019-02-07T08:06:49.000Z</time>
      </trkpt>
      <trkpt lat="43.61306" lon="6.84154">
        <ele>68</ele>
        <time>2019-02-07T08:06:50.000Z</time>
      </trkpt>
      <trkpt lat="43.61305" lon="6.84156">
        <ele>68</ele>
        <time>2019-02-07T08:06:51.000Z</time>
      </trkpt>
      <trkpt lat="43.61304" lon="6.84158">
        <ele>67</ele>
        <time>2019-02-07T08:06:52.000Z</time>
      </trkpt>
      <trkpt lat="43.61303" lon="6.8416">
        <ele>66</ele>
        <time>2019-02-07T08:06:53.000Z</time>
      </trkpt>
      <trkpt lat="43.61303" lon="6.84162">
        <ele>67</ele>
        <time>2019-02-07T08:06:54.000Z</time>
      </trkpt>
      <trkpt lat="43.61303" lon="6.84164">
        <ele>66</ele>
        <time>2019-02-07T08:06:55.000Z</time>
      </trkpt>
      <trkpt lat="43.61303" lon="6.84166">
        <ele>67</ele>
        <time>2019-02-07T08:06:56.000Z</time>
      </trkpt>
      <trkpt lat="43.61303" lon="6.84169">
        <ele>66</ele>
        <time>2019-02-07T08:06:57.000Z</time>
      </trkpt>
      <trkpt lat="43.61303" lon="6.84172">
        <ele>65</ele>
        <time>2019-02-07T08:06:58.000Z</time>
      </trkpt>
      <trkpt lat="43.61303" lon="6.84176">
        <ele>65</ele>
        <time>2019-02-07T08:06:59.000Z</time>
      </trkpt>
      <trkpt lat="43.61303" lon="6.84179">
        <ele>66</ele>
        <time>2019-02-07T08:07:00.000Z</time>
      </trkpt>
      <trkpt lat="43.61303" lon="6.84182">
        <ele>65</ele>
        <time>2019-02-07T08:07:01.000Z</time>
      </trkpt>
      <trkpt lat="43.61303" lon="6.84186">
        <ele>65</ele>
        <time>2019-02-07T08:07:02.000Z</time>
      </trkpt>
      <trkpt lat="43.61302" lon="6.84189">
        <ele>65</ele>
        <time>2019-02-07T08:07:03.000Z</time>
      </trkpt>
      <trkpt lat="43.61302" lon="6.84192">
        <ele>64</ele>
        <time>2019-02-07T08:07:04.000Z</time>
      </trkpt>
      <trkpt lat="43.61301" lon="6.84194">
        <ele>65</ele>
        <time>2019-02-07T08:07:05.000Z</time>
      </trkpt>
      <trkpt lat="43.61301" lon="6.84197">
        <ele>65</ele>
        <time>2019-02-07T08:07:06.000Z</time>
      </trkpt>
      <trkpt lat="43.61301" lon="6.842">
        <ele>64</ele>
        <time>2019-02-07T08:07:07.000Z</time>
      </trkpt>
      <trkpt lat="43.613" lon="6.84202">
        <ele>65</ele>
        <time>2019-02-07T08:07:08.000Z</time>
      </trkpt>
      <trkpt lat="43.613" lon="6.84205">
        <ele>65</ele>
        <time>2019-02-07T08:07:09.000Z</time>
      </trkpt>
      <trkpt lat="43.613" lon="6.84207">
        <ele>65</ele>
        <time>2019-02-07T08:07:10.000Z</time>
      </trkpt>
      <trkpt lat="43.61299" lon="6.8421">
        <ele>64</ele>
        <time>2019-02-07T08:07:11.000Z</time>
      </trkpt>
      <trkpt lat="43.61299" lon="6.84212">
        <ele>64</ele>
        <time>2019-02-07T08:07:12.000Z</time>
      </trkpt>
      <trkpt lat="43.61298" lon="6.84215">
        <ele>64</ele>
        <time>2019-02-07T08:07:13.000Z</time>
      </trkpt>
      <trkpt lat="43.61298" lon="6.84218">
        <ele>65</ele>
        <time>2019-02-07T08:07:14.000Z</time>
      </trkpt>
      <trkpt lat="43.61298" lon="6.84221">
        <ele>64</ele>
        <time>2019-02-07T08:07:15.000Z</time>
      </trkpt>
      <trkpt lat="43.61298" lon="6.84223">
        <ele>64</ele>
        <time>2019-02-07T08:07:16.000Z</time>
      </trkpt>
      <trkpt lat="43.61297" lon="6.84226">
        <ele>64</ele>
        <time>2019-02-07T08:07:17.000Z</time>
      </trkpt>
      <trkpt lat="43.61297" lon="6.84229">
        <ele>63</ele>
        <time>2019-02-07T08:07:18.000Z</time>
      </trkpt>
      <trkpt lat="43.61297" lon="6.84231">
        <ele>63</ele>
        <time>2019-02-07T08:07:19.000Z</time>
      </trkpt>
      <trkpt lat="43.61297" lon="6.84234">
        <ele>63</ele>
        <time>2019-02-07T08:07:20.000Z</time>
      </trkpt>
      <trkpt lat="43.61297" lon="6.84237">
        <ele>63</ele>
        <time>2019-02-07T08:07:21.000Z</time>
      </trkpt>
      <trkpt lat="43.61298" lon="6.8424">
        <ele>63</ele>
        <time>2019-02-07T08:07:22.000Z</time>
      </trkpt>
      <trkpt lat="43.61298" lon="6.84243">
        <ele>64</ele>
        <time>2019-02-07T08:07:23.000Z</time>
      </trkpt>
      <trkpt lat="43.61298" lon="6.84246">
        <ele>64</ele>
        <time>2019-02-07T08:07:24.000Z</time>
      </trkpt>
      <trkpt lat="43.61299" lon="6.84248">
        <ele>64</ele>
        <time>2019-02-07T08:07:25.000Z</time>
      </trkpt>
      <trkpt lat="43.61299" lon="6.84251">
        <ele>64</ele>
        <time>2019-02-07T08:07:26.000Z</time>
      </trkpt>
      <trkpt lat="43.61299" lon="6.84254">
        <ele>64</ele>
        <time>2019-02-07T08:07:27.000Z</time>
      </trkpt>
      <trkpt lat="43.61299" lon="6.84257">
        <ele>64</ele>
        <time>2019-02-07T08:07:28.000Z</time>
      </trkpt>
      <trkpt lat="43.61299" lon="6.8426">
        <ele>64</ele>
        <time>2019-02-07T08:07:29.000Z</time>
      </trkpt>
      <trkpt lat="43.61299" lon="6.84262">
        <ele>64</ele>
        <time>2019-02-07T08:07:30.000Z</time>
      </trkpt>
      <trkpt lat="43.61299" lon="6.84265">
        <ele>63</ele>
        <time>2019-02-07T08:07:31.000Z</time>
      </trkpt>
      <trkpt lat="43.61299" lon="6.84267">
        <ele>63</ele>
        <time>2019-02-07T08:07:32.000Z</time>
      </trkpt>
      <trkpt lat="43.61299" lon="6.8427">
        <ele>62</ele>
        <time>2019-02-07T08:07:33.000Z</time>
      </trkpt>
      <trkpt lat="43.61299" lon="6.84272">
        <ele>62</ele>
        <time>2019-02-07T08:07:34.000Z</time>
      </trkpt>
      <trkpt lat="43.61298" lon="6.84275">
        <ele>62</ele>
        <time>2019-02-07T08:07:35.000Z</time>
      </trkpt>
      <trkpt lat="43.61298" lon="6.84278">
        <ele>62</ele>
        <time>2019-02-07T08:07:36.000Z</time>
      </trkpt>
      <trkpt lat="43.61298" lon="6.8428">
        <ele>62</ele>
        <time>2019-02-07T08:07:37.000Z</time>
      </trkpt>
      <trkpt lat="43.61298" lon="6.84283">
        <ele>63</ele>
        <time>2019-02-07T08:07:38.000Z</time>
      </trkpt>
      <trkpt lat="43.61299" lon="6.84285">
        <ele>62</ele>
        <time>2019-02-07T08:07:39.000Z</time>
      </trkpt>
      <trkpt lat="43.61299" lon="6.84289">
        <ele>64</ele>
        <time>2019-02-07T08:07:40.000Z</time>
      </trkpt>
      <trkpt lat="43.61298" lon="6.84292">
        <ele>64</ele>
        <time>2019-02-07T08:07:41.000Z</time>
      </trkpt>
      <trkpt lat="43.61298" lon="6.84296">
        <ele>64</ele>
        <time>2019-02-07T08:07:42.000Z</time>
      </trkpt>
      <trkpt lat="43.61298" lon="6.84299">
        <ele>64</ele>
        <time>2019-02-07T08:07:43.000Z</time>
      </trkpt>
      <trkpt lat="43.61299" lon="6.84302">
        <ele>65</ele>
        <time>2019-02-07T08:07:44.000Z</time>
      </trkpt>
      <trkpt lat="43.61299" lon="6.84305">
        <ele>65</ele>
        <time>2019-02-07T08:07:45.000Z</time>
      </trkpt>
      <trkpt lat="43.61299" lon="6.84308">
        <ele>66</ele>
        <time>2019-02-07T08:07:46.000Z</time>
      </trkpt>
      <trkpt lat="43.613" lon="6.84311">
        <ele>67</ele>
        <time>2019-02-07T08:07:47.000Z</time>
      </trkpt>
      <trkpt lat="43.613" lon="6.84313">
        <ele>67</ele>
        <time>2019-02-07T08:07:48.000Z</time>
      </trkpt>
      <trkpt lat="43.613" lon="6.84316">
        <ele>67</ele>
        <time>2019-02-07T08:07:49.000Z</time>
      </trkpt>
      <trkpt lat="43.613" lon="6.84318">
        <ele>68</ele>
        <time>2019-02-07T08:07:50.000Z</time>
      </trkpt>
      <trkpt lat="43.61301" lon="6.84321">
        <ele>69</ele>
        <time>2019-02-07T08:07:51.000Z</time>
      </trkpt>
      <trkpt lat="43.61301" lon="6.84323">
        <ele>68</ele>
        <time>2019-02-07T08:07:52.000Z</time>
      </trkpt>
      <trkpt lat="43.61302" lon="6.84326">
        <ele>68</ele>
        <time>2019-02-07T08:07:53.000Z</time>
      </trkpt>
      <trkpt lat="43.61302" lon="6.84329">
        <ele>68</ele>
        <time>2019-02-07T08:07:54.000Z</time>
      </trkpt>
      <trkpt lat="43.61303" lon="6.84332">
        <ele>68</ele>
        <time>2019-02-07T08:07:55.000Z</time>
      </trkpt>
      <trkpt lat="43.61303" lon="6.84334">
        <ele>69</ele>
        <time>2019-02-07T08:07:56.000Z</time>
      </trkpt>
      <trkpt lat="43.61304" lon="6.84337">
        <ele>69</ele>
        <time>2019-02-07T08:07:57.000Z</time>
      </trkpt>
      <trkpt lat="43.61304" lon="6.84339">
        <ele>69</ele>
        <time>2019-02-07T08:07:58.000Z</time>
      </trkpt>
      <trkpt lat="43.61304" lon="6.84342">
        <ele>68</ele>
        <time>2019-02-07T08:07:59.000Z</time>
      </trkpt>
      <trkpt lat="43.61304" lon="6.84345">
        <ele>68</ele>
        <time>2019-02-07T08:08:00.000Z</time>
      </trkpt>
      <trkpt lat="43.61304" lon="6.84349">
        <ele>67</ele>
        <time>2019-02-07T08:08:01.000Z</time>
      </trkpt>
      <trkpt lat="43.61305" lon="6.84352">
        <ele>67</ele>
        <time>2019-02-07T08:08:02.000Z</time>
      </trkpt>
      <trkpt lat="43.61305" lon="6.84354">
        <ele>67</ele>
        <time>2019-02-07T08:08:03.000Z</time>
      </trkpt>
      <trkpt lat="43.61305" lon="6.84357">
        <ele>67</ele>
        <time>2019-02-07T08:08:04.000Z</time>
      </trkpt>
      <trkpt lat="43.61306" lon="6.8436">
        <ele>67</ele>
        <time>2019-02-07T08:08:05.000Z</time>
      </trkpt>
      <trkpt lat="43.61306" lon="6.84363">
        <ele>67</ele>
        <time>2019-02-07T08:08:06.000Z</time>
      </trkpt>
      <trkpt lat="43.61306" lon="6.84366">
        <ele>66</ele>
        <time>2019-02-07T08:08:07.000Z</time>
      </trkpt>
      <trkpt lat="43.61305" lon="6.84369">
        <ele>65</ele>
        <time>2019-02-07T08:08:08.000Z</time>
      </trkpt>
      <trkpt lat="43.61305" lon="6.84371">
        <ele>65</ele>
        <time>2019-02-07T08:08:09.000Z</time>
      </trkpt>
      <trkpt lat="43.61305" lon="6.84374">
        <ele>65</ele>
        <time>2019-02-07T08:08:10.000Z</time>
      </trkpt>
      <trkpt lat="43.61305" lon="6.84377">
        <ele>65</ele>
        <time>2019-02-07T08:08:11.000Z</time>
      </trkpt>
      <trkpt lat="43.61305" lon="6.8438">
        <ele>64</ele>
        <time>2019-02-07T08:08:12.000Z</time>
      </trkpt>
      <trkpt lat="43.61306" lon="6.84382">
        <ele>63</ele>
        <time>2019-02-07T08:08:13.000Z</time>
      </trkpt>
      <trkpt lat="43.61306" lon="6.84384">
        <ele>62</ele>
        <time>2019-02-07T08:08:14.000Z</time>
      </trkpt>
      <trkpt lat="43.61307" lon="6.84385">
        <ele>61</ele>
        <time>2019-02-07T08:08:15.000Z</time>
      </trkpt>
      <trkpt lat="43.61308" lon="6.84387">
        <ele>61</ele>
        <time>2019-02-07T08:08:16.000Z</time>
      </trkpt>
      <trkpt lat="43.61309" lon="6.84389">
        <ele>60</ele>
        <time>2019-02-07T08:08:17.000Z</time>
      </trkpt>
      <trkpt lat="43.61309" lon="6.84392">
        <ele>60</ele>
        <time>2019-02-07T08:08:18.000Z</time>
      </trkpt>
      <trkpt lat="43.61308" lon="6.84394">
        <ele>61</ele>
        <time>2019-02-07T08:08:19.000Z</time>
      </trkpt>
      <trkpt lat="43.61308" lon="6.84397">
        <ele>61</ele>
        <time>2019-02-07T08:08:20.000Z</time>
      </trkpt>
      <trkpt lat="43.61307" lon="6.84399">
        <ele>60</ele>
        <time>2019-02-07T08:08:21.000Z</time>
      </trkpt>
      <trkpt lat="43.61307" lon="6.84401">
        <ele>60</ele>
        <time>2019-02-07T08:08:22.000Z</time>
      </trkpt>
      <trkpt lat="43.61307" lon="6.84403">
        <ele>60</ele>
        <time>2019-02-07T08:08:23.000Z</time>
      </trkpt>
      <trkpt lat="43.61308" lon="6.84406">
        <ele>60</ele>
        <time>2019-02-07T08:08:24.000Z</time>
      </trkpt>
      <trkpt lat="43.61308" lon="6.84407">
        <ele>60</ele>
        <time>2019-02-07T08:08:25.000Z</time>
      </trkpt>
      <trkpt lat="43.61308" lon="6.84409">
        <ele>60</ele>
        <time>2019-02-07T08:08:26.000Z</time>
      </trkpt>
      <trkpt lat="43.61309" lon="6.8441">
        <ele>61</ele>
        <time>2019-02-07T08:08:27.000Z</time>
      </trkpt>
      <trkpt lat="43.61309" lon="6.84411">
        <ele>61</ele>
        <time>2019-02-07T08:08:28.000Z</time>
      </trkpt>
      <trkpt lat="43.61309" lon="6.84413">
        <ele>62</ele>
        <time>2019-02-07T08:08:29.000Z</time>
      </trkpt>
      <trkpt lat="43.61309" lon="6.84414">
        <ele>63</ele>
        <time>2019-02-07T08:08:30.000Z</time>
      </trkpt>
      <trkpt lat="43.61308" lon="6.84415">
        <ele>63</ele>
        <time>2019-02-07T08:08:31.000Z</time>
      </trkpt>
      <trkpt lat="43.61308" lon="6.84416">
        <ele>63</ele>
        <time>2019-02-07T08:08:32.000Z</time>
      </trkpt>
      <trkpt lat="43.61307" lon="6.84418">
        <ele>64</ele>
        <time>2019-02-07T08:08:33.000Z</time>
      </trkpt>
      <trkpt lat="43.61307" lon="6.84421">
        <ele>64</ele>
        <time>2019-02-07T08:08:34.000Z</time>
      </trkpt>
      <trkpt lat="43.61306" lon="6.84423">
        <ele>63</ele>
        <time>2019-02-07T08:08:35.000Z</time>
      </trkpt>
      <trkpt lat="43.61306" lon="6.84425">
        <ele>63</ele>
        <time>2019-02-07T08:08:36.000Z</time>
      </trkpt>
      <trkpt lat="43.61306" lon="6.84427">
        <ele>65</ele>
        <time>2019-02-07T08:08:37.000Z</time>
      </trkpt>
      <trkpt lat="43.61306" lon="6.84429">
        <ele>66</ele>
        <time>2019-02-07T08:08:38.000Z</time>
      </trkpt>
      <trkpt lat="43.61306" lon="6.84431">
        <ele>66</ele>
        <time>2019-02-07T08:08:39.000Z</time>
      </trkpt>
      <trkpt lat="43.61306" lon="6.84432">
        <ele>67</ele>
        <time>2019-02-07T08:08:40.000Z</time>
      </trkpt>
      <trkpt lat="43.61306" lon="6.84434">
        <ele>68</ele>
        <time>2019-02-07T08:08:41.000Z</time>
      </trkpt>
      <trkpt lat="43.61305" lon="6.84436">
        <ele>69</ele>
        <time>2019-02-07T08:08:42.000Z</time>
      </trkpt>
      <trkpt lat="43.61305" lon="6.84437">
        <ele>69</ele>
        <time>2019-02-07T08:08:43.000Z</time>
      </trkpt>
      <trkpt lat="43.61305" lon="6.84438">
        <ele>68</ele>
        <time>2019-02-07T08:08:44.000Z</time>
      </trkpt>
      <trkpt lat="43.61305" lon="6.84439">
        <ele>68</ele>
        <time>2019-02-07T08:08:45.000Z</time>
      </trkpt>
      <trkpt lat="43.61304" lon="6.8444">
        <ele>68</ele>
        <time>2019-02-07T08:08:46.000Z</time>
      </trkpt>
      <trkpt lat="43.61304" lon="6.8444">
        <ele>67</ele>
        <time>2019-02-07T08:08:47.000Z</time>
      </trkpt>
      <trkpt lat="43.61304" lon="6.8444">
        <ele>67</ele>
        <time>2019-02-07T08:08:48.000Z</time>
      </trkpt>
      <trkpt lat="43.61303" lon="6.84441">
        <ele>66</ele>
        <time>2019-02-07T08:08:49.000Z</time>
      </trkpt>
      <trkpt lat="43.61303" lon="6.84441">
        <ele>67</ele>
        <time>2019-02-07T08:08:50.000Z</time>
      </trkpt>
      <trkpt lat="43.61303" lon="6.84442">
        <ele>67</ele>
        <time>2019-02-07T08:08:51.000Z</time>
      </trkpt>
      <trkpt lat="43.61303" lon="6.84443">
        <ele>68</ele>
        <time>2019-02-07T08:08:52.000Z</time>
      </trkpt>
      <trkpt lat="43.61303" lon="6.84444">
        <ele>68</ele>
        <time>2019-02-07T08:08:53.000Z</time>
      </trkpt>
      <trkpt lat="43.61303" lon="6.84444">
        <ele>69</ele>
        <time>2019-02-07T08:08:54.000Z</time>
      </trkpt>
      <trkpt lat="43.61303" lon="6.84444">
        <ele>69</ele>
        <time>2019-02-07T08:08:55.000Z</time>
      </trkpt>
      <trkpt lat="43.61302" lon="6.84444">
        <ele>69</ele>
        <time>2019-02-07T08:08:56.000Z</time>
      </trkpt>
      <trkpt lat="43.61302" lon="6.84444">
        <ele>68</ele>
        <time>2019-02-07T08:08:57.000Z</time>
      </trkpt>
      <trkpt lat="43.61301" lon="6.84444">
        <ele>69</ele>
        <time>2019-02-07T08:08:58.000Z</time>
      </trkpt>
      <trkpt lat="43.613" lon="6.84444">
        <ele>69</ele>
        <time>2019-02-07T08:08:59.000Z</time>
      </trkpt>
      <trkpt lat="43.613" lon="6.84443">
        <ele>69</ele>
        <time>2019-02-07T08:09:00.000Z</time>
      </trkpt>
      <trkpt lat="43.613" lon="6.84443">
        <ele>70</ele>
        <time>2019-02-07T08:09:01.000Z</time>
      </trkpt>
      <trkpt lat="43.613" lon="6.84443">
        <ele>70</ele>
        <time>2019-02-07T08:09:02.000Z</time>
      </trkpt>
      <trkpt lat="43.613" lon="6.84443">
        <ele>70</ele>
        <time>2019-02-07T08:09:03.000Z</time>
      </trkpt>
      <trkpt lat="43.613" lon="6.84444">
        <ele>70</ele>
        <time>2019-02-07T08:09:04.000Z</time>
      </trkpt>
      <trkpt lat="43.613" lon="6.84444">
        <ele>70</ele>
        <time>2019-02-07T08:09:05.000Z</time>
      </trkpt>
      <trkpt lat="43.613" lon="6.84445">
        <ele>70</ele>
        <time>2019-02-07T08:09:06.000Z</time>
      </trkpt>
      <trkpt lat="43.613" lon="6.84445">
        <ele>70</ele>
        <time>2019-02-07T08:09:07.000Z</time>
      </trkpt>
      <trkpt lat="43.613" lon="6.84446">
        <ele>71</ele>
        <time>2019-02-07T08:09:08.000Z</time>
      </trkpt>
      <trkpt lat="43.613" lon="6.84446">
        <ele>72</ele>
        <time>2019-02-07T08:09:09.000Z</time>
      </trkpt>
      <trkpt lat="43.613" lon="6.84447">
        <ele>72</ele>
        <time>2019-02-07T08:09:10.000Z</time>
      </trkpt>
      <trkpt lat="43.61299" lon="6.84447">
        <ele>72</ele>
        <time>2019-02-07T08:09:11.000Z</time>
      </trkpt>
      <trkpt lat="43.61299" lon="6.84448">
        <ele>72</ele>
        <time>2019-02-07T08:09:12.000Z</time>
      </trkpt>
      <trkpt lat="43.61299" lon="6.84448">
        <ele>72</ele>
        <time>2019-02-07T08:09:13.000Z</time>
      </trkpt>
      <trkpt lat="43.61299" lon="6.84448">
        <ele>72</ele>
        <time>2019-02-07T08:09:14.000Z</time>
      </trkpt>
      <trkpt lat="43.613" lon="6.84449">
        <ele>72</ele>
        <time>2019-02-07T08:09:15.000Z</time>
      </trkpt>
      <trkpt lat="43.613" lon="6.84449">
        <ele>72</ele>
        <time>2019-02-07T08:09:16.000Z</time>
      </trkpt>
      <trkpt lat="43.613" lon="6.8445">
        <ele>71</ele>
        <time>2019-02-07T08:09:17.000Z</time>
      </trkpt>
      <trkpt lat="43.61301" lon="6.8445">
        <ele>71</ele>
        <time>2019-02-07T08:09:18.000Z</time>
      </trkpt>
      <trkpt lat="43.61301" lon="6.84451">
        <ele>71</ele>
        <time>2019-02-07T08:09:19.000Z</time>
      </trkpt>
      <trkpt lat="43.61302" lon="6.84452">
        <ele>71</ele>
        <time>2019-02-07T08:09:20.000Z</time>
      </trkpt>
      <trkpt lat="43.61302" lon="6.84453">
        <ele>70</ele>
        <time>2019-02-07T08:09:21.000Z</time>
      </trkpt>
      <trkpt lat="43.61303" lon="6.84455">
        <ele>69</ele>
        <time>2019-02-07T08:09:22.000Z</time>
      </trkpt>
      <trkpt lat="43.61303" lon="6.84456">
        <ele>69</ele>
        <time>2019-02-07T08:09:23.000Z</time>
      </trkpt>
      <trkpt lat="43.61304" lon="6.84458">
        <ele>68</ele>
        <time>2019-02-07T08:09:24.000Z</time>
      </trkpt>
      <trkpt lat="43.61304" lon="6.84459">
        <ele>68</ele>
        <time>2019-02-07T08:09:25.000Z</time>
      </trkpt>
      <trkpt lat="43.61305" lon="6.8446">
        <ele>68</ele>
        <time>2019-02-07T08:09:26.000Z</time>
      </trkpt>
      <trkpt lat="43.61306" lon="6.84461">
        <ele>68</ele>
        <time>2019-02-07T08:09:27.000Z</time>
      </trkpt>
      <trkpt lat="43.61307" lon="6.84461">
        <ele>69</ele>
        <time>2019-02-07T08:09:28.000Z</time>
      </trkpt>
      <trkpt lat="43.61308" lon="6.84462">
        <ele>69</ele>
        <time>2019-02-07T08:09:29.000Z</time>
      </trkpt>
      <trkpt lat="43.61309" lon="6.84464">
        <ele>68</ele>
        <time>2019-02-07T08:09:30.000Z</time>
      </trkpt>
      <trkpt lat="43.61309" lon="6.84466">
        <ele>68</ele>
        <time>2019-02-07T08:09:31.000Z</time>
      </trkpt>
      <trkpt lat="43.61309" lon="6.84468">
        <ele>70</ele>
        <time>2019-02-07T08:09:32.000Z</time>
      </trkpt>
      <trkpt lat="43.61309" lon="6.8447">
        <ele>71</ele>
        <time>2019-02-07T08:09:33.000Z</time>
      </trkpt>
      <trkpt lat="43.61309" lon="6.84471">
        <ele>70</ele>
        <time>2019-02-07T08:09:34.000Z</time>
      </trkpt>
      <trkpt lat="43.61309" lon="6.84473">
        <ele>70</ele>
        <time>2019-02-07T08:09:35.000Z</time>
      </trkpt>
      <trkpt lat="43.61309" lon="6.84474">
        <ele>70</ele>
        <time>2019-02-07T08:09:36.000Z</time>
      </trkpt>
      <trkpt lat="43.61309" lon="6.84475">
        <ele>71</ele>
        <time>2019-02-07T08:09:37.000Z</time>
      </trkpt>
      <trkpt lat="43.61309" lon="6.84477">
        <ele>72</ele>
        <time>2019-02-07T08:09:38.000Z</time>
      </trkpt>
      <trkpt lat="43.61309" lon="6.84478">
        <ele>72</ele>
        <time>2019-02-07T08:09:39.000Z</time>
      </trkpt>
      <trkpt lat="43.61309" lon="6.84479">
        <ele>73</ele>
        <time>2019-02-07T08:09:40.000Z</time>
      </trkpt>
      <trkpt lat="43.61309" lon="6.8448">
        <ele>74</ele>
        <time>2019-02-07T08:09:41.000Z</time>
      </trkpt>
      <trkpt lat="43.6131" lon="6.84481">
        <ele>73</ele>
        <time>2019-02-07T08:09:42.000Z</time>
      </trkpt>
      <trkpt lat="43.6131" lon="6.84482">
        <ele>74</ele>
        <time>2019-02-07T08:09:43.000Z</time>
      </trkpt>
      <trkpt lat="43.61312" lon="6.84482">
        <ele>75</ele>
        <time>2019-02-07T08:09:44.000Z</time>
      </trkpt>
      <trkpt lat="43.61312" lon="6.84483">
        <ele>76</ele>
        <time>2019-02-07T08:09:45.000Z</time>
      </trkpt>
      <trkpt lat="43.61313" lon="6.84484">
        <ele>76</ele>
        <time>2019-02-07T08:09:46.000Z</time>
      </trkpt>
      <trkpt lat="43.61315" lon="6.84485">
        <ele>79</ele>
        <time>2019-02-07T08:09:47.000Z</time>
      </trkpt>
      <trkpt lat="43.61316" lon="6.84486">
        <ele>79</ele>
        <time>2019-02-07T08:09:48.000Z</time>
      </trkpt>
      <trkpt lat="43.61316" lon="6.84487">
        <ele>78</ele>
        <time>2019-02-07T08:09:49.000Z</time>
      </trkpt>
      <trkpt lat="43.61317" lon="6.84487">
        <ele>78</ele>
        <time>2019-02-07T08:09:50.000Z</time>
      </trkpt>
      <trkpt lat="43.61317" lon="6.84488">
        <ele>79</ele>
        <time>2019-02-07T08:09:51.000Z</time>
      </trkpt>
      <trkpt lat="43.61318" lon="6.84488">
        <ele>79</ele>
        <time>2019-02-07T08:09:52.000Z</time>
      </trkpt>
      <trkpt lat="43.61319" lon="6.84489">
        <ele>80</ele>
        <time>2019-02-07T08:09:53.000Z</time>
      </trkpt>
      <trkpt lat="43.61319" lon="6.8449">
        <ele>80</ele>
        <time>2019-02-07T08:09:54.000Z</time>
      </trkpt>
      <trkpt lat="43.6132" lon="6.84491">
        <ele>82</ele>
        <time>2019-02-07T08:09:55.000Z</time>
      </trkpt>
      <trkpt lat="43.61321" lon="6.84492">
        <ele>83</ele>
        <time>2019-02-07T08:09:56.000Z</time>
      </trkpt>
      <trkpt lat="43.61322" lon="6.84493">
        <ele>84</ele>
        <time>2019-02-07T08:09:57.000Z</time>
      </trkpt>
      <trkpt lat="43.61323" lon="6.84494">
        <ele>84</ele>
        <time>2019-02-07T08:09:58.000Z</time>
      </trkpt>
      <trkpt lat="43.61324" lon="6.84495">
        <ele>84</ele>
        <time>2019-02-07T08:09:59.000Z</time>
      </trkpt>
      <trkpt lat="43.61324" lon="6.84496">
        <ele>84</ele>
        <time>2019-02-07T08:10:00.000Z</time>
      </trkpt>
      <trkpt lat="43.61325" lon="6.84497">
        <ele>84</ele>
        <time>2019-02-07T08:10:01.000Z</time>
      </trkpt>
      <trkpt lat="43.61326" lon="6.84497">
        <ele>84</ele>
        <time>2019-02-07T08:10:02.000Z</time>
      </trkpt>
      <trkpt lat="43.61326" lon="6.84498">
        <ele>83</ele>
        <time>2019-02-07T08:10:03.000Z</time>
      </trkpt>
      <trkpt lat="43.61327" lon="6.84499">
        <ele>83</ele>
        <time>2019-02-07T08:10:04.000Z</time>
      </trkpt>
      <trkpt lat="43.61327" lon="6.84499">
        <ele>82</ele>
        <time>2019-02-07T08:10:05.000Z</time>
      </trkpt>
      <trkpt lat="43.61328" lon="6.845">
        <ele>82</ele>
        <time>2019-02-07T08:10:06.000Z</time>
      </trkpt>
      <trkpt lat="43.61329" lon="6.845">
        <ele>83</ele>
        <time>2019-02-07T08:10:07.000Z</time>
      </trkpt>
      <trkpt lat="43.6133" lon="6.845">
        <ele>82</ele>
        <time>2019-02-07T08:10:08.000Z</time>
      </trkpt>
      <trkpt lat="43.6133" lon="6.84501">
        <ele>83</ele>
        <time>2019-02-07T08:10:09.000Z</time>
      </trkpt>
      <trkpt lat="43.61331" lon="6.84501">
        <ele>82</ele>
        <time>2019-02-07T08:10:10.000Z</time>
      </trkpt>
      <trkpt lat="43.61332" lon="6.84502">
        <ele>81</ele>
        <time>2019-02-07T08:10:11.000Z</time>
      </trkpt>
      <trkpt lat="43.61333" lon="6.84502">
        <ele>81</ele>
        <time>2019-02-07T08:10:12.000Z</time>
      </trkpt>
      <trkpt lat="43.61334" lon="6.84503">
        <ele>79</ele>
        <time>2019-02-07T08:10:13.000Z</time>
      </trkpt>
      <trkpt lat="43.61335" lon="6.84503">
        <ele>80</ele>
        <time>2019-02-07T08:10:14.000Z</time>
      </trkpt>
      <trkpt lat="43.61336" lon="6.84504">
        <ele>80</ele>
        <time>2019-02-07T08:10:15.000Z</time>
      </trkpt>
      <trkpt lat="43.61337" lon="6.84505">
        <ele>80</ele>
        <time>2019-02-07T08:10:16.000Z</time>
      </trkpt>
      <trkpt lat="43.61338" lon="6.84505">
        <ele>82</ele>
        <time>2019-02-07T08:10:17.000Z</time>
      </trkpt>
      <trkpt lat="43.61339" lon="6.84506">
        <ele>83</ele>
        <time>2019-02-07T08:10:18.000Z</time>
      </trkpt>
      <trkpt lat="43.6134" lon="6.84507">
        <ele>81</ele>
        <time>2019-02-07T08:10:19.000Z</time>
      </trkpt>
      <trkpt lat="43.61342" lon="6.84509">
        <ele>81</ele>
        <time>2019-02-07T08:10:20.000Z</time>
      </trkpt>
      <trkpt lat="43.61343" lon="6.8451">
        <ele>82</ele>
        <time>2019-02-07T08:10:21.000Z</time>
      </trkpt>
      <trkpt lat="43.61344" lon="6.84511">
        <ele>82</ele>
        <time>2019-02-07T08:10:22.000Z</time>
      </trkpt>
      <trkpt lat="43.61345" lon="6.84512">
        <ele>82</ele>
        <time>2019-02-07T08:10:23.000Z</time>
      </trkpt>
      <trkpt lat="43.61346" lon="6.84513">
        <ele>81</ele>
        <time>2019-02-07T08:10:24.000Z</time>
      </trkpt>
      <trkpt lat="43.61346" lon="6.84514">
        <ele>82</ele>
        <time>2019-02-07T08:10:25.000Z</time>
      </trkpt>
      <trkpt lat="43.61347" lon="6.84515">
        <ele>83</ele>
        <time>2019-02-07T08:10:26.000Z</time>
      </trkpt>
      <trkpt lat="43.61347" lon="6.84516">
        <ele>83</ele>
        <time>2019-02-07T08:10:27.000Z</time>
      </trkpt>
      <trkpt lat="43.61348" lon="6.84517">
        <ele>84</ele>
        <time>2019-02-07T08:10:28.000Z</time>
      </trkpt>
      <trkpt lat="43.61348" lon="6.84518">
        <ele>84</ele>
        <time>2019-02-07T08:10:29.000Z</time>
      </trkpt>
      <trkpt lat="43.61349" lon="6.84519">
        <ele>85</ele>
        <time>2019-02-07T08:10:30.000Z</time>
      </trkpt>
      <trkpt lat="43.6135" lon="6.8452">
        <ele>84</ele>
        <time>2019-02-07T08:10:31.000Z</time>
      </trkpt>
      <trkpt lat="43.61351" lon="6.84521">
        <ele>83</ele>
        <time>2019-02-07T08:10:32.000Z</time>
      </trkpt>
      <trkpt lat="43.61352" lon="6.84522">
        <ele>84</ele>
        <time>2019-02-07T08:10:33.000Z</time>
      </trkpt>
      <trkpt lat="43.61353" lon="6.84523">
        <ele>84</ele>
        <time>2019-02-07T08:10:34.000Z</time>
      </trkpt>
      <trkpt lat="43.61353" lon="6.84524">
        <ele>83</ele>
        <time>2019-02-07T08:10:35.000Z</time>
      </trkpt>
      <trkpt lat="43.61354" lon="6.84526">
        <ele>82</ele>
        <time>2019-02-07T08:10:36.000Z</time>
      </trkpt>
      <trkpt lat="43.61355" lon="6.84527">
        <ele>82</ele>
        <time>2019-02-07T08:10:37.000Z</time>
      </trkpt>
      <trkpt lat="43.61356" lon="6.84528">
        <ele>82</ele>
        <time>2019-02-07T08:10:38.000Z</time>
      </trkpt>
      <trkpt lat="43.61356" lon="6.84529">
        <ele>83</ele>
        <time>2019-02-07T08:10:39.000Z</time>
      </trkpt>
      <trkpt lat="43.61357" lon="6.8453">
        <ele>82</ele>
        <time>2019-02-07T08:10:40.000Z</time>
      </trkpt>
      <trkpt lat="43.61358" lon="6.84531">
        <ele>83</ele>
        <time>2019-02-07T08:10:41.000Z</time>
      </trkpt>
      <trkpt lat="43.61359" lon="6.84532">
        <ele>84</ele>
        <time>2019-02-07T08:10:42.000Z</time>
      </trkpt>
      <trkpt lat="43.6136" lon="6.84533">
        <ele>85</ele>
        <time>2019-02-07T08:10:43.000Z</time>
      </trkpt>
      <trkpt lat="43.61361" lon="6.84534">
        <ele>85</ele>
        <time>2019-02-07T08:10:44.000Z</time>
      </trkpt>
      <trkpt lat="43.61361" lon="6.84535">
        <ele>86</ele>
        <time>2019-02-07T08:10:45.000Z</time>
      </trkpt>
      <trkpt lat="43.61362" lon="6.84536">
        <ele>86</ele>
        <time>2019-02-07T08:10:46.000Z</time>
      </trkpt>
      <trkpt lat="43.61363" lon="6.84537">
        <ele>86</ele>
        <time>2019-02-07T08:10:47.000Z</time>
      </trkpt>
      <trkpt lat="43.61363" lon="6.84538">
        <ele>86</ele>
        <time>2019-02-07T08:10:48.000Z</time>
      </trkpt>
      <trkpt lat="43.61364" lon="6.84539">
        <ele>86</ele>
        <time>2019-02-07T08:10:49.000Z</time>
      </trkpt>
      <trkpt lat="43.61364" lon="6.8454">
        <ele>85</ele>
        <time>2019-02-07T08:10:50.000Z</time>
      </trkpt>
      <trkpt lat="43.61364" lon="6.84541">
        <ele>86</ele>
        <time>2019-02-07T08:10:51.000Z</time>
      </trkpt>
      <trkpt lat="43.61365" lon="6.84542">
        <ele>86</ele>
        <time>2019-02-07T08:10:52.000Z</time>
      </trkpt>
      <trkpt lat="43.61365" lon="6.84544">
        <ele>87</ele>
        <time>2019-02-07T08:10:53.000Z</time>
      </trkpt>
      <trkpt lat="43.61365" lon="6.84545">
        <ele>87</ele>
        <time>2019-02-07T08:10:54.000Z</time>
      </trkpt>
      <trkpt lat="43.61365" lon="6.84546">
        <ele>88</ele>
        <time>2019-02-07T08:10:55.000Z</time>
      </trkpt>
      <trkpt lat="43.61366" lon="6.84547">
        <ele>90</ele>
        <time>2019-02-07T08:10:56.000Z</time>
      </trkpt>
      <trkpt lat="43.61366" lon="6.84548">
        <ele>90</ele>
        <time>2019-02-07T08:10:57.000Z</time>
      </trkpt>
      <trkpt lat="43.61366" lon="6.84549">
        <ele>90</ele>
        <time>2019-02-07T08:10:58.000Z</time>
      </trkpt>
      <trkpt lat="43.61366" lon="6.8455">
        <ele>90</ele>
        <time>2019-02-07T08:10:59.000Z</time>
      </trkpt>
      <trkpt lat="43.61367" lon="6.84551">
        <ele>90</ele>
        <time>2019-02-07T08:11:00.000Z</time>
      </trkpt>
      <trkpt lat="43.61367" lon="6.84552">
        <ele>91</ele>
        <time>2019-02-07T08:11:01.000Z</time>
      </trkpt>
      <trkpt lat="43.61367" lon="6.84553">
        <ele>91</ele>
        <time>2019-02-07T08:11:02.000Z</time>
      </trkpt>
      <trkpt lat="43.61368" lon="6.84555">
        <ele>92</ele>
        <time>2019-02-07T08:11:03.000Z</time>
      </trkpt>
      <trkpt lat="43.61368" lon="6.84556">
        <ele>92</ele>
        <time>2019-02-07T08:11:04.000Z</time>
      </trkpt>
      <trkpt lat="43.61369" lon="6.84558">
        <ele>92</ele>
        <time>2019-02-07T08:11:05.000Z</time>
      </trkpt>
      <trkpt lat="43.61369" lon="6.84559">
        <ele>93</ele>
        <time>2019-02-07T08:11:06.000Z</time>
      </trkpt>
      <trkpt lat="43.6137" lon="6.8456">
        <ele>94</ele>
        <time>2019-02-07T08:11:07.000Z</time>
      </trkpt>
      <trkpt lat="43.6137" lon="6.84561">
        <ele>95</ele>
        <time>2019-02-07T08:11:08.000Z</time>
      </trkpt>
      <trkpt lat="43.61371" lon="6.84562">
        <ele>95</ele>
        <time>2019-02-07T08:11:09.000Z</time>
      </trkpt>
      <trkpt lat="43.61371" lon="6.84563">
        <ele>96</ele>
        <time>2019-02-07T08:11:10.000Z</time>
      </trkpt>
      <trkpt lat="43.61371" lon="6.84564">
        <ele>97</ele>
        <time>2019-02-07T08:11:11.000Z</time>
      </trkpt>
      <trkpt lat="43.61371" lon="6.84564">
        <ele>97</ele>
        <time>2019-02-07T08:11:12.000Z</time>
      </trkpt>
      <trkpt lat="43.61372" lon="6.84566">
        <ele>94</ele>
        <time>2019-02-07T08:11:13.000Z</time>
      </trkpt>
      <trkpt lat="43.61372" lon="6.84567">
        <ele>93</ele>
        <time>2019-02-07T08:11:14.000Z</time>
      </trkpt>
      <trkpt lat="43.61372" lon="6.84569">
        <ele>93</ele>
        <time>2019-02-07T08:11:15.000Z</time>
      </trkpt>
      <trkpt lat="43.61372" lon="6.8457">
        <ele>91</ele>
        <time>2019-02-07T08:11:16.000Z</time>
      </trkpt>
      <trkpt lat="43.61373" lon="6.84571">
        <ele>92</ele>
        <time>2019-02-07T08:11:17.000Z</time>
      </trkpt>
      <trkpt lat="43.61373" lon="6.84572">
        <ele>93</ele>
        <time>2019-02-07T08:11:18.000Z</time>
      </trkpt>
      <trkpt lat="43.61373" lon="6.84573">
        <ele>93</ele>
        <time>2019-02-07T08:11:19.000Z</time>
      </trkpt>
      <trkpt lat="43.61374" lon="6.84574">
        <ele>92</ele>
        <time>2019-02-07T08:11:20.000Z</time>
      </trkpt>
      <trkpt lat="43.61374" lon="6.84575">
        <ele>93</ele>
        <time>2019-02-07T08:11:21.000Z</time>
      </trkpt>
      <trkpt lat="43.61374" lon="6.84576">
        <ele>94</ele>
        <time>2019-02-07T08:11:22.000Z</time>
      </trkpt>
      <trkpt lat="43.61375" lon="6.84577">
        <ele>92</ele>
        <time>2019-02-07T08:11:23.000Z</time>
      </trkpt>
      <trkpt lat="43.61375" lon="6.84578">
        <ele>93</ele>
        <time>2019-02-07T08:11:24.000Z</time>
      </trkpt>
      <trkpt lat="43.61376" lon="6.84579">
        <ele>93</ele>
        <time>2019-02-07T08:11:25.000Z</time>
      </trkpt>
      <trkpt lat="43.61376" lon="6.84581">
        <ele>95</ele>
        <time>2019-02-07T08:11:26.000Z</time>
      </trkpt>
      <trkpt lat="43.61377" lon="6.84582">
        <ele>95</ele>
        <time>2019-02-07T08:11:27.000Z</time>
      </trkpt>
      <trkpt lat="43.61377" lon="6.84583">
        <ele>95</ele>
        <time>2019-02-07T08:11:28.000Z</time>
      </trkpt>
      <trkpt lat="43.61377" lon="6.84584">
        <ele>96</ele>
        <time>2019-02-07T08:11:29.000Z</time>
      </trkpt>
      <trkpt lat="43.61378" lon="6.84585">
        <ele>96</ele>
        <time>2019-02-07T08:11:30.000Z</time>
      </trkpt>
      <trkpt lat="43.61378" lon="6.84586">
        <ele>97</ele>
        <time>2019-02-07T08:11:31.000Z</time>
      </trkpt>
      <trkpt lat="43.61378" lon="6.84588">
        <ele>96</ele>
        <time>2019-02-07T08:11:32.000Z</time>
      </trkpt>
      <trkpt lat="43.61379" lon="6.84589">
        <ele>97</ele>
        <time>2019-02-07T08:11:33.000Z</time>
      </trkpt>
      <trkpt lat="43.6138" lon="6.8459">
        <ele>96</ele>
        <time>2019-02-07T08:11:34.000Z</time>
      </trkpt>
      <trkpt lat="43.6138" lon="6.84591">
        <ele>96</ele>
        <time>2019-02-07T08:11:35.000Z</time>
      </trkpt>
      <trkpt lat="43.61381" lon="6.84592">
        <ele>95</ele>
        <time>2019-02-07T08:11:36.000Z</time>
      </trkpt>
      <trkpt lat="43.61382" lon="6.84593">
        <ele>96</ele>
        <time>2019-02-07T08:11:37.000Z</time>
      </trkpt>
      <trkpt lat="43.61382" lon="6.84594">
        <ele>96</ele>
        <time>2019-02-07T08:11:38.000Z</time>
      </trkpt>
      <trkpt lat="43.61383" lon="6.84595">
        <ele>96</ele>
        <time>2019-02-07T08:11:39.000Z</time>
      </trkpt>
      <trkpt lat="43.61383" lon="6.84597">
        <ele>97</ele>
        <time>2019-02-07T08:11:40.000Z</time>
      </trkpt>
      <trkpt lat="43.61384" lon="6.84598">
        <ele>98</ele>
        <time>2019-02-07T08:11:41.000Z</time>
      </trkpt>
      <trkpt lat="43.61385" lon="6.84599">
        <ele>99</ele>
        <time>2019-02-07T08:11:42.000Z</time>
      </trkpt>
      <trkpt lat="43.61386" lon="6.846">
        <ele>99</ele>
        <time>2019-02-07T08:11:43.000Z</time>
      </trkpt>
      <trkpt lat="43.61386" lon="6.84601">
        <ele>99</ele>
        <time>2019-02-07T08:11:44.000Z</time>
      </trkpt>
      <trkpt lat="43.61387" lon="6.84602">
        <ele>99</ele>
        <time>2019-02-07T08:11:45.000Z</time>
      </trkpt>
      <trkpt lat="43.61389" lon="6.84603">
        <ele>99</ele>
        <time>2019-02-07T08:11:46.000Z</time>
      </trkpt>
      <trkpt lat="43.6139" lon="6.84604">
        <ele>99</ele>
        <time>2019-02-07T08:11:47.000Z</time>
      </trkpt>
      <trkpt lat="43.61391" lon="6.84605">
        <ele>99</ele>
        <time>2019-02-07T08:11:48.000Z</time>
      </trkpt>
      <trkpt lat="43.61392" lon="6.84606">
        <ele>99</ele>
        <time>2019-02-07T08:11:49.000Z</time>
      </trkpt>
      <trkpt lat="43.61393" lon="6.84607">
        <ele>99</ele>
        <time>2019-02-07T08:11:50.000Z</time>
      </trkpt>
      <trkpt lat="43.61394" lon="6.84609">
        <ele>100</ele>
        <time>2019-02-07T08:11:51.000Z</time>
      </trkpt>
      <trkpt lat="43.61395" lon="6.8461">
        <ele>101</ele>
        <time>2019-02-07T08:11:52.000Z</time>
      </trkpt>
      <trkpt lat="43.61396" lon="6.84611">
        <ele>102</ele>
        <time>2019-02-07T08:11:53.000Z</time>
      </trkpt>
      <trkpt lat="43.61397" lon="6.84611">
        <ele>101</ele>
        <time>2019-02-07T08:11:54.000Z</time>
      </trkpt>
      <trkpt lat="43.61398" lon="6.84611">
        <ele>101</ele>
        <time>2019-02-07T08:11:55.000Z</time>
      </trkpt>
      <trkpt lat="43.61399" lon="6.84612">
        <ele>100</ele>
        <time>2019-02-07T08:11:56.000Z</time>
      </trkpt>
      <trkpt lat="43.614" lon="6.84613">
        <ele>101</ele>
        <time>2019-02-07T08:11:57.000Z</time>
      </trkpt>
      <trkpt lat="43.61401" lon="6.84613">
        <ele>102</ele>
        <time>2019-02-07T08:11:58.000Z</time>
      </trkpt>
      <trkpt lat="43.61402" lon="6.84614">
        <ele>102</ele>
        <time>2019-02-07T08:11:59.000Z</time>
      </trkpt>
      <trkpt lat="43.61403" lon="6.84615">
        <ele>103</ele>
        <time>2019-02-07T08:12:00.000Z</time>
      </trkpt>
      <trkpt lat="43.61404" lon="6.84616">
        <ele>104</ele>
        <time>2019-02-07T08:12:01.000Z</time>
      </trkpt>
      <trkpt lat="43.61405" lon="6.84617">
        <ele>104</ele>
        <time>2019-02-07T08:12:02.000Z</time>
      </trkpt>
      <trkpt lat="43.61406" lon="6.84618">
        <ele>104</ele>
        <time>2019-02-07T08:12:03.000Z</time>
      </trkpt>
      <trkpt lat="43.61407" lon="6.84618">
        <ele>104</ele>
        <time>2019-02-07T08:12:04.000Z</time>
      </trkpt>
      <trkpt lat="43.61408" lon="6.84619">
        <ele>104</ele>
        <time>2019-02-07T08:12:05.000Z</time>
      </trkpt>
      <trkpt lat="43.61408" lon="6.8462">
        <ele>105</ele>
        <time>2019-02-07T08:12:06.000Z</time>
      </trkpt>
      <trkpt lat="43.61409" lon="6.84621">
        <ele>105</ele>
        <time>2019-02-07T08:12:07.000Z</time>
      </trkpt>
      <trkpt lat="43.6141" lon="6.84621">
        <ele>105</ele>
        <time>2019-02-07T08:12:08.000Z</time>
      </trkpt>
      <trkpt lat="43.61411" lon="6.84622">
        <ele>104</ele>
        <time>2019-02-07T08:12:09.000Z</time>
      </trkpt>
      <trkpt lat="43.61412" lon="6.84624">
        <ele>103</ele>
        <time>2019-02-07T08:12:10.000Z</time>
      </trkpt>
      <trkpt lat="43.61413" lon="6.84625">
        <ele>104</ele>
        <time>2019-02-07T08:12:11.000Z</time>
      </trkpt>
      <trkpt lat="43.61414" lon="6.84625">
        <ele>104</ele>
        <time>2019-02-07T08:12:12.000Z</time>
      </trkpt>
      <trkpt lat="43.61415" lon="6.84626">
        <ele>104</ele>
        <time>2019-02-07T08:12:13.000Z</time>
      </trkpt>
      <trkpt lat="43.61416" lon="6.84626">
        <ele>104</ele>
        <time>2019-02-07T08:12:14.000Z</time>
      </trkpt>
      <trkpt lat="43.61417" lon="6.84627">
        <ele>105</ele>
        <time>2019-02-07T08:12:15.000Z</time>
      </trkpt>
      <trkpt lat="43.61418" lon="6.84627">
        <ele>105</ele>
        <time>2019-02-07T08:12:16.000Z</time>
      </trkpt>
      <trkpt lat="43.61419" lon="6.84627">
        <ele>105</ele>
        <time>2019-02-07T08:12:17.000Z</time>
      </trkpt>
      <trkpt lat="43.6142" lon="6.84628">
        <ele>106</ele>
        <time>2019-02-07T08:12:18.000Z</time>
      </trkpt>
      <trkpt lat="43.61421" lon="6.84629">
        <ele>107</ele>
        <time>2019-02-07T08:12:19.000Z</time>
      </trkpt>
      <trkpt lat="43.61422" lon="6.8463">
        <ele>107</ele>
        <time>2019-02-07T08:12:20.000Z</time>
      </trkpt>
      <trkpt lat="43.61423" lon="6.84631">
        <ele>107</ele>
        <time>2019-02-07T08:12:21.000Z</time>
      </trkpt>
      <trkpt lat="43.61424" lon="6.84632">
        <ele>107</ele>
        <time>2019-02-07T08:12:22.000Z</time>
      </trkpt>
      <trkpt lat="43.61424" lon="6.84633">
        <ele>107</ele>
        <time>2019-02-07T08:12:23.000Z</time>
      </trkpt>
      <trkpt lat="43.61425" lon="6.84634">
        <ele>107</ele>
        <time>2019-02-07T08:12:24.000Z</time>
      </trkpt>
      <trkpt lat="43.61426" lon="6.84635">
        <ele>107</ele>
        <time>2019-02-07T08:12:25.000Z</time>
      </trkpt>
      <trkpt lat="43.61427" lon="6.84636">
        <ele>108</ele>
        <time>2019-02-07T08:12:26.000Z</time>
      </trkpt>
      <trkpt lat="43.61428" lon="6.84636">
        <ele>109</ele>
        <time>2019-02-07T08:12:27.000Z</time>
      </trkpt>
      <trkpt lat="43.61428" lon="6.84637">
        <ele>109</ele>
        <time>2019-02-07T08:12:28.000Z</time>
      </trkpt>
      <trkpt lat="43.61429" lon="6.84637">
        <ele>107</ele>
        <time>2019-02-07T08:12:29.000Z</time>
      </trkpt>
      <trkpt lat="43.6143" lon="6.84638">
        <ele>107</ele>
        <time>2019-02-07T08:12:30.000Z</time>
      </trkpt>
      <trkpt lat="43.61431" lon="6.84638">
        <ele>108</ele>
        <time>2019-02-07T08:12:31.000Z</time>
      </trkpt>
      <trkpt lat="43.61432" lon="6.84639">
        <ele>108</ele>
        <time>2019-02-07T08:12:32.000Z</time>
      </trkpt>
      <trkpt lat="43.61433" lon="6.8464">
        <ele>106</ele>
        <time>2019-02-07T08:12:33.000Z</time>
      </trkpt>
      <trkpt lat="43.61434" lon="6.84641">
        <ele>106</ele>
        <time>2019-02-07T08:12:34.000Z</time>
      </trkpt>
      <trkpt lat="43.61434" lon="6.84642">
        <ele>107</ele>
        <time>2019-02-07T08:12:35.000Z</time>
      </trkpt>
      <trkpt lat="43.61435" lon="6.84643">
        <ele>105</ele>
        <time>2019-02-07T08:12:36.000Z</time>
      </trkpt>
      <trkpt lat="43.61436" lon="6.84644">
        <ele>105</ele>
        <time>2019-02-07T08:12:37.000Z</time>
      </trkpt>
      <trkpt lat="43.61436" lon="6.84645">
        <ele>106</ele>
        <time>2019-02-07T08:12:38.000Z</time>
      </trkpt>
      <trkpt lat="43.61437" lon="6.84645">
        <ele>105</ele>
        <time>2019-02-07T08:12:39.000Z</time>
      </trkpt>
      <trkpt lat="43.61438" lon="6.84646">
        <ele>105</ele>
        <time>2019-02-07T08:12:40.000Z</time>
      </trkpt>
      <trkpt lat="43.61439" lon="6.84646">
        <ele>103</ele>
        <time>2019-02-07T08:12:41.000Z</time>
      </trkpt>
      <trkpt lat="43.6144" lon="6.84647">
        <ele>103</ele>
        <time>2019-02-07T08:12:42.000Z</time>
      </trkpt>
      <trkpt lat="43.61441" lon="6.84648">
        <ele>103</ele>
        <time>2019-02-07T08:12:43.000Z</time>
      </trkpt>
      <trkpt lat="43.61442" lon="6.84648">
        <ele>103</ele>
        <time>2019-02-07T08:12:44.000Z</time>
      </trkpt>
      <trkpt lat="43.61443" lon="6.84648">
        <ele>103</ele>
        <time>2019-02-07T08:12:45.000Z</time>
      </trkpt>
      <trkpt lat="43.61445" lon="6.84649">
        <ele>103</ele>
        <time>2019-02-07T08:12:46.000Z</time>
      </trkpt>
      <trkpt lat="43.61446" lon="6.84649">
        <ele>103</ele>
        <time>2019-02-07T08:12:47.000Z</time>
      </trkpt>
      <trkpt lat="43.61447" lon="6.84649">
        <ele>104</ele>
        <time>2019-02-07T08:12:48.000Z</time>
      </trkpt>
      <trkpt lat="43.61448" lon="6.8465">
        <ele>104</ele>
        <time>2019-02-07T08:12:49.000Z</time>
      </trkpt>
      <trkpt lat="43.61449" lon="6.8465">
        <ele>104</ele>
        <time>2019-02-07T08:12:50.000Z</time>
      </trkpt>
      <trkpt lat="43.6145" lon="6.84651">
        <ele>103</ele>
        <time>2019-02-07T08:12:51.000Z</time>
      </trkpt>
      <trkpt lat="43.61451" lon="6.84651">
        <ele>104</ele>
        <time>2019-02-07T08:12:52.000Z</time>
      </trkpt>
      <trkpt lat="43.61452" lon="6.84652">
        <ele>104</ele>
        <time>2019-02-07T08:12:53.000Z</time>
      </trkpt>
      <trkpt lat="43.61453" lon="6.84652">
        <ele>104</ele>
        <time>2019-02-07T08:12:54.000Z</time>
      </trkpt>
      <trkpt lat="43.61454" lon="6.84653">
        <ele>103</ele>
        <time>2019-02-07T08:12:55.000Z</time>
      </trkpt>
      <trkpt lat="43.61454" lon="6.84653">
        <ele>104</ele>
        <time>2019-02-07T08:12:56.000Z</time>
      </trkpt>
      <trkpt lat="43.61455" lon="6.84654">
        <ele>104</ele>
        <time>2019-02-07T08:12:57.000Z</time>
      </trkpt>
      <trkpt lat="43.61456" lon="6.84655">
        <ele>104</ele>
        <time>2019-02-07T08:12:58.000Z</time>
      </trkpt>
      <trkpt lat="43.61457" lon="6.84656">
        <ele>106</ele>
        <time>2019-02-07T08:12:59.000Z</time>
      </trkpt>
      <trkpt lat="43.61458" lon="6.84656">
        <ele>106</ele>
        <time>2019-02-07T08:13:00.000Z</time>
      </trkpt>
      <trkpt lat="43.61459" lon="6.84657">
        <ele>107</ele>
        <time>2019-02-07T08:13:01.000Z</time>
      </trkpt>
      <trkpt lat="43.61459" lon="6.84658">
        <ele>108</ele>
        <time>2019-02-07T08:13:02.000Z</time>
      </trkpt>
      <trkpt lat="43.6146" lon="6.84659">
        <ele>109</ele>
        <time>2019-02-07T08:13:03.000Z</time>
      </trkpt>
      <trkpt lat="43.61461" lon="6.8466">
        <ele>109</ele>
        <time>2019-02-07T08:13:04.000Z</time>
      </trkpt>
      <trkpt lat="43.61462" lon="6.84661">
        <ele>109</ele>
        <time>2019-02-07T08:13:05.000Z</time>
      </trkpt>
      <trkpt lat="43.61462" lon="6.84662">
        <ele>110</ele>
        <time>2019-02-07T08:13:06.000Z</time>
      </trkpt>
      <trkpt lat="43.61463" lon="6.84663">
        <ele>110</ele>
        <time>2019-02-07T08:13:07.000Z</time>
      </trkpt>
      <trkpt lat="43.61464" lon="6.84664">
        <ele>110</ele>
        <time>2019-02-07T08:13:08.000Z</time>
      </trkpt>
      <trkpt lat="43.61464" lon="6.84665">
        <ele>111</ele>
        <time>2019-02-07T08:13:09.000Z</time>
      </trkpt>
      <trkpt lat="43.61465" lon="6.84666">
        <ele>110</ele>
        <time>2019-02-07T08:13:10.000Z</time>
      </trkpt>
      <trkpt lat="43.61466" lon="6.84668">
        <ele>110</ele>
        <time>2019-02-07T08:13:11.000Z</time>
      </trkpt>
      <trkpt lat="43.61467" lon="6.84669">
        <ele>108</ele>
        <time>2019-02-07T08:13:12.000Z</time>
      </trkpt>
      <trkpt lat="43.61467" lon="6.84671">
        <ele>108</ele>
        <time>2019-02-07T08:13:13.000Z</time>
      </trkpt>
      <trkpt lat="43.61468" lon="6.84673">
        <ele>107</ele>
        <time>2019-02-07T08:13:14.000Z</time>
      </trkpt>
      <trkpt lat="43.61468" lon="6.84674">
        <ele>108</ele>
        <time>2019-02-07T08:13:15.000Z</time>
      </trkpt>
      <trkpt lat="43.61469" lon="6.84676">
        <ele>108</ele>
        <time>2019-02-07T08:13:16.000Z</time>
      </trkpt>
      <trkpt lat="43.61469" lon="6.84677">
        <ele>108</ele>
        <time>2019-02-07T08:13:17.000Z</time>
      </trkpt>
      <trkpt lat="43.61469" lon="6.84679">
        <ele>107</ele>
        <time>2019-02-07T08:13:18.000Z</time>
      </trkpt>
      <trkpt lat="43.61469" lon="6.84681">
        <ele>107</ele>
        <time>2019-02-07T08:13:19.000Z</time>
      </trkpt>
      <trkpt lat="43.6147" lon="6.84682">
        <ele>108</ele>
        <time>2019-02-07T08:13:20.000Z</time>
      </trkpt>
      <trkpt lat="43.6147" lon="6.84684">
        <ele>108</ele>
        <time>2019-02-07T08:13:21.000Z</time>
      </trkpt>
      <trkpt lat="43.61471" lon="6.84685">
        <ele>109</ele>
        <time>2019-02-07T08:13:22.000Z</time>
      </trkpt>
      <trkpt lat="43.61471" lon="6.84686">
        <ele>109</ele>
        <time>2019-02-07T08:13:23.000Z</time>
      </trkpt>
      <trkpt lat="43.61471" lon="6.84688">
        <ele>109</ele>
        <time>2019-02-07T08:13:24.000Z</time>
      </trkpt>
      <trkpt lat="43.61472" lon="6.84689">
        <ele>110</ele>
        <time>2019-02-07T08:13:25.000Z</time>
      </trkpt>
      <trkpt lat="43.61472" lon="6.8469">
        <ele>110</ele>
        <time>2019-02-07T08:13:26.000Z</time>
      </trkpt>
      <trkpt lat="43.61473" lon="6.84692">
        <ele>111</ele>
        <time>2019-02-07T08:13:27.000Z</time>
      </trkpt>
      <trkpt lat="43.61473" lon="6.84693">
        <ele>111</ele>
        <time>2019-02-07T08:13:28.000Z</time>
      </trkpt>
      <trkpt lat="43.61473" lon="6.84694">
        <ele>111</ele>
        <time>2019-02-07T08:13:29.000Z</time>
      </trkpt>
      <trkpt lat="43.61473" lon="6.84696">
        <ele>110</ele>
        <time>2019-02-07T08:13:30.000Z</time>
      </trkpt>
      <trkpt lat="43.61474" lon="6.84697">
        <ele>111</ele>
        <time>2019-02-07T08:13:31.000Z</time>
      </trkpt>
      <trkpt lat="43.61474" lon="6.84698">
        <ele>111</ele>
        <time>2019-02-07T08:13:32.000Z</time>
      </trkpt>
      <trkpt lat="43.61474" lon="6.847">
        <ele>112</ele>
        <time>2019-02-07T08:13:33.000Z</time>
      </trkpt>
      <trkpt lat="43.61475" lon="6.84701">
        <ele>111</ele>
        <time>2019-02-07T08:13:34.000Z</time>
      </trkpt>
      <trkpt lat="43.61475" lon="6.84702">
        <ele>112</ele>
        <time>2019-02-07T08:13:35.000Z</time>
      </trkpt>
      <trkpt lat="43.61475" lon="6.84703">
        <ele>112</ele>
        <time>2019-02-07T08:13:36.000Z</time>
      </trkpt>
      <trkpt lat="43.61476" lon="6.84704">
        <ele>113</ele>
        <time>2019-02-07T08:13:37.000Z</time>
      </trkpt>
      <trkpt lat="43.61476" lon="6.84705">
        <ele>113</ele>
        <time>2019-02-07T08:13:38.000Z</time>
      </trkpt>
      <trkpt lat="43.61476" lon="6.84706">
        <ele>113</ele>
        <time>2019-02-07T08:13:39.000Z</time>
      </trkpt>
      <trkpt lat="43.61477" lon="6.84707">
        <ele>114</ele>
        <time>2019-02-07T08:13:40.000Z</time>
      </trkpt>
      <trkpt lat="43.61478" lon="6.84708">
        <ele>115</ele>
        <time>2019-02-07T08:13:41.000Z</time>
      </trkpt>
      <trkpt lat="43.61478" lon="6.84709">
        <ele>115</ele>
        <time>2019-02-07T08:13:42.000Z</time>
      </trkpt>
      <trkpt lat="43.61478" lon="6.8471">
        <ele>115</ele>
        <time>2019-02-07T08:13:43.000Z</time>
      </trkpt>
      <trkpt lat="43.61478" lon="6.84711">
        <ele>115</ele>
        <time>2019-02-07T08:13:44.000Z</time>
      </trkpt>
      <trkpt lat="43.61479" lon="6.84712">
        <ele>116</ele>
        <time>2019-02-07T08:13:45.000Z</time>
      </trkpt>
      <trkpt lat="43.6148" lon="6.84713">
        <ele>116</ele>
        <time>2019-02-07T08:13:46.000Z</time>
      </trkpt>
      <trkpt lat="43.6148" lon="6.84714">
        <ele>116</ele>
        <time>2019-02-07T08:13:47.000Z</time>
      </trkpt>
      <trkpt lat="43.61481" lon="6.84715">
        <ele>117</ele>
        <time>2019-02-07T08:13:48.000Z</time>
      </trkpt>
      <trkpt lat="43.61481" lon="6.84717">
        <ele>117</ele>
        <time>2019-02-07T08:13:49.000Z</time>
      </trkpt>
      <trkpt lat="43.61481" lon="6.84718">
        <ele>117</ele>
        <time>2019-02-07T08:13:50.000Z</time>
      </trkpt>
      <trkpt lat="43.61481" lon="6.84719">
        <ele>117</ele>
        <time>2019-02-07T08:13:51.000Z</time>
      </trkpt>
      <trkpt lat="43.61481" lon="6.84719">
        <ele>117</ele>
        <time>2019-02-07T08:13:52.000Z</time>
      </trkpt>
      <trkpt lat="43.61481" lon="6.8472">
        <ele>117</ele>
        <time>2019-02-07T08:13:53.000Z</time>
      </trkpt>
      <trkpt lat="43.61482" lon="6.8472">
        <ele>117</ele>
        <time>2019-02-07T08:13:54.000Z</time>
      </trkpt>
      <trkpt lat="43.61482" lon="6.84721">
        <ele>118</ele>
        <time>2019-02-07T08:13:55.000Z</time>
      </trkpt>
      <trkpt lat="43.61481" lon="6.84723">
        <ele>118</ele>
        <time>2019-02-07T08:13:56.000Z</time>
      </trkpt>
      <trkpt lat="43.61481" lon="6.84724">
        <ele>119</ele>
        <time>2019-02-07T08:13:57.000Z</time>
      </trkpt>
      <trkpt lat="43.61481" lon="6.84725">
        <ele>119</ele>
        <time>2019-02-07T08:13:58.000Z</time>
      </trkpt>
      <trkpt lat="43.61481" lon="6.84726">
        <ele>119</ele>
        <time>2019-02-07T08:13:59.000Z</time>
      </trkpt>
      <trkpt lat="43.6148" lon="6.84727">
        <ele>119</ele>
        <time>2019-02-07T08:14:00.000Z</time>
      </trkpt>
      <trkpt lat="43.6148" lon="6.84728">
        <ele>119</ele>
        <time>2019-02-07T08:14:01.000Z</time>
      </trkpt>
      <trkpt lat="43.6148" lon="6.84729">
        <ele>120</ele>
        <time>2019-02-07T08:14:02.000Z</time>
      </trkpt>
      <trkpt lat="43.61479" lon="6.8473">
        <ele>121</ele>
        <time>2019-02-07T08:14:03.000Z</time>
      </trkpt>
      <trkpt lat="43.61479" lon="6.84731">
        <ele>122</ele>
        <time>2019-02-07T08:14:04.000Z</time>
      </trkpt>
      <trkpt lat="43.61479" lon="6.84732">
        <ele>122</ele>
        <time>2019-02-07T08:14:05.000Z</time>
      </trkpt>
      <trkpt lat="43.61478" lon="6.84733">
        <ele>122</ele>
        <time>2019-02-07T08:14:06.000Z</time>
      </trkpt>
      <trkpt lat="43.61478" lon="6.84734">
        <ele>122</ele>
        <time>2019-02-07T08:14:07.000Z</time>
      </trkpt>
      <trkpt lat="43.61478" lon="6.84735">
        <ele>123</ele>
        <time>2019-02-07T08:14:08.000Z</time>
      </trkpt>
      <trkpt lat="43.61477" lon="6.84736">
        <ele>123</ele>
        <time>2019-02-07T08:14:09.000Z</time>
      </trkpt>
      <trkpt lat="43.61477" lon="6.84737">
        <ele>123</ele>
        <time>2019-02-07T08:14:10.000Z</time>
      </trkpt>
      <trkpt lat="43.61476" lon="6.84738">
        <ele>123</ele>
        <time>2019-02-07T08:14:11.000Z</time>
      </trkpt>
      <trkpt lat="43.61476" lon="6.84738">
        <ele>123</ele>
        <time>2019-02-07T08:14:12.000Z</time>
      </trkpt>
      <trkpt lat="43.61475" lon="6.84739">
        <ele>123</ele>
        <time>2019-02-07T08:14:13.000Z</time>
      </trkpt>
      <trkpt lat="43.61475" lon="6.8474">
        <ele>124</ele>
        <time>2019-02-07T08:14:14.000Z</time>
      </trkpt>
      <trkpt lat="43.61474" lon="6.84741">
        <ele>124</ele>
        <time>2019-02-07T08:14:15.000Z</time>
      </trkpt>
      <trkpt lat="43.61473" lon="6.84742">
        <ele>124</ele>
        <time>2019-02-07T08:14:16.000Z</time>
      </trkpt>
      <trkpt lat="43.61473" lon="6.84743">
        <ele>124</ele>
        <time>2019-02-07T08:14:17.000Z</time>
      </trkpt>
      <trkpt lat="43.61472" lon="6.84743">
        <ele>124</ele>
        <time>2019-02-07T08:14:18.000Z</time>
      </trkpt>
      <trkpt lat="43.61472" lon="6.84744">
        <ele>124</ele>
        <time>2019-02-07T08:14:19.000Z</time>
      </trkpt>
      <trkpt lat="43.61471" lon="6.84745">
        <ele>124</ele>
        <time>2019-02-07T08:14:20.000Z</time>
      </trkpt>
      <trkpt lat="43.61471" lon="6.84745">
        <ele>124</ele>
        <time>2019-02-07T08:14:21.000Z</time>
      </trkpt>
      <trkpt lat="43.6147" lon="6.84746">
        <ele>124</ele>
        <time>2019-02-07T08:14:22.000Z</time>
      </trkpt>
      <trkpt lat="43.6147" lon="6.84747">
        <ele>124</ele>
        <time>2019-02-07T08:14:23.000Z</time>
      </trkpt>
      <trkpt lat="43.6147" lon="6.84748">
        <ele>124</ele>
        <time>2019-02-07T08:14:24.000Z</time>
      </trkpt>
      <trkpt lat="43.6147" lon="6.84749">
        <ele>125</ele>
        <time>2019-02-07T08:14:25.000Z</time>
      </trkpt>
      <trkpt lat="43.61469" lon="6.8475">
        <ele>125</ele>
        <time>2019-02-07T08:14:26.000Z</time>
      </trkpt>
      <trkpt lat="43.61469" lon="6.84751">
        <ele>125</ele>
        <time>2019-02-07T08:14:27.000Z</time>
      </trkpt>
      <trkpt lat="43.61469" lon="6.84752">
        <ele>125</ele>
        <time>2019-02-07T08:14:28.000Z</time>
      </trkpt>
      <trkpt lat="43.61468" lon="6.84752">
        <ele>125</ele>
        <time>2019-02-07T08:14:29.000Z</time>
      </trkpt>
      <trkpt lat="43.61467" lon="6.84753">
        <ele>125</ele>
        <time>2019-02-07T08:14:30.000Z</time>
      </trkpt>
      <trkpt lat="43.61467" lon="6.84754">
        <ele>125</ele>
        <time>2019-02-07T08:14:31.000Z</time>
      </trkpt>
      <trkpt lat="43.61466" lon="6.84755">
        <ele>126</ele>
        <time>2019-02-07T08:14:32.000Z</time>
      </trkpt>
      <trkpt lat="43.61466" lon="6.84756">
        <ele>126</ele>
        <time>2019-02-07T08:14:33.000Z</time>
      </trkpt>
      <trkpt lat="43.61465" lon="6.84758">
        <ele>126</ele>
        <time>2019-02-07T08:14:34.000Z</time>
      </trkpt>
      <trkpt lat="43.61465" lon="6.84759">
        <ele>127</ele>
        <time>2019-02-07T08:14:35.000Z</time>
      </trkpt>
      <trkpt lat="43.61464" lon="6.8476">
        <ele>128</ele>
        <time>2019-02-07T08:14:36.000Z</time>
      </trkpt>
      <trkpt lat="43.61464" lon="6.84762">
        <ele>127</ele>
        <time>2019-02-07T08:14:37.000Z</time>
      </trkpt>
      <trkpt lat="43.61463" lon="6.84763">
        <ele>127</ele>
        <time>2019-02-07T08:14:38.000Z</time>
      </trkpt>
      <trkpt lat="43.61462" lon="6.84764">
        <ele>127</ele>
        <time>2019-02-07T08:14:39.000Z</time>
      </trkpt>
      <trkpt lat="43.61462" lon="6.84765">
        <ele>128</ele>
        <time>2019-02-07T08:14:40.000Z</time>
      </trkpt>
      <trkpt lat="43.61462" lon="6.84767">
        <ele>128</ele>
        <time>2019-02-07T08:14:41.000Z</time>
      </trkpt>
      <trkpt lat="43.61462" lon="6.84768">
        <ele>129</ele>
        <time>2019-02-07T08:14:42.000Z</time>
      </trkpt>
      <trkpt lat="43.61461" lon="6.84769">
        <ele>129</ele>
        <time>2019-02-07T08:14:43.000Z</time>
      </trkpt>
      <trkpt lat="43.61461" lon="6.8477">
        <ele>129</ele>
        <time>2019-02-07T08:14:44.000Z</time>
      </trkpt>
      <trkpt lat="43.61461" lon="6.84772">
        <ele>130</ele>
        <time>2019-02-07T08:14:45.000Z</time>
      </trkpt>
      <trkpt lat="43.6146" lon="6.84773">
        <ele>130</ele>
        <time>2019-02-07T08:14:46.000Z</time>
      </trkpt>
      <trkpt lat="43.6146" lon="6.84775">
        <ele>131</ele>
        <time>2019-02-07T08:14:47.000Z</time>
      </trkpt>
      <trkpt lat="43.6146" lon="6.84777">
        <ele>131</ele>
        <time>2019-02-07T08:14:48.000Z</time>
      </trkpt>
      <trkpt lat="43.61459" lon="6.84779">
        <ele>131</ele>
        <time>2019-02-07T08:14:49.000Z</time>
      </trkpt>
      <trkpt lat="43.61459" lon="6.84781">
        <ele>132</ele>
        <time>2019-02-07T08:14:50.000Z</time>
      </trkpt>
      <trkpt lat="43.61459" lon="6.84783">
        <ele>132</ele>
        <time>2019-02-07T08:14:51.000Z</time>
      </trkpt>
      <trkpt lat="43.61458" lon="6.84785">
        <ele>132</ele>
        <time>2019-02-07T08:14:52.000Z</time>
      </trkpt>
      <trkpt lat="43.61458" lon="6.84786">
        <ele>132</ele>
        <time>2019-02-07T08:14:53.000Z</time>
      </trkpt>
      <trkpt lat="43.61458" lon="6.84787">
        <ele>132</ele>
        <time>2019-02-07T08:14:54.000Z</time>
      </trkpt>
      <trkpt lat="43.61458" lon="6.84788">
        <ele>133</ele>
        <time>2019-02-07T08:14:55.000Z</time>
      </trkpt>
      <trkpt lat="43.61457" lon="6.8479">
        <ele>133</ele>
        <time>2019-02-07T08:14:56.000Z</time>
      </trkpt>
      <trkpt lat="43.61457" lon="6.84791">
        <ele>133</ele>
        <time>2019-02-07T08:14:57.000Z</time>
      </trkpt>
      <trkpt lat="43.61456" lon="6.84793">
        <ele>133</ele>
        <time>2019-02-07T08:14:58.000Z</time>
      </trkpt>
      <trkpt lat="43.61456" lon="6.84794">
        <ele>133</ele>
        <time>2019-02-07T08:14:59.000Z</time>
      </trkpt>
      <trkpt lat="43.61455" lon="6.84794">
        <ele>134</ele>
        <time>2019-02-07T08:15:00.000Z</time>
      </trkpt>
      <trkpt lat="43.61455" lon="6.84795">
        <ele>134</ele>
        <time>2019-02-07T08:15:01.000Z</time>
      </trkpt>
      <trkpt lat="43.61455" lon="6.84796">
        <ele>135</ele>
        <time>2019-02-07T08:15:02.000Z</time>
      </trkpt>
      <trkpt lat="43.61455" lon="6.84796">
        <ele>136</ele>
        <time>2019-02-07T08:15:03.000Z</time>
      </trkpt>
      <trkpt lat="43.61454" lon="6.84797">
        <ele>135</ele>
        <time>2019-02-07T08:15:04.000Z</time>
      </trkpt>
      <trkpt lat="43.61454" lon="6.84798">
        <ele>135</ele>
        <time>2019-02-07T08:15:05.000Z</time>
      </trkpt>
      <trkpt lat="43.61453" lon="6.848">
        <ele>135</ele>
        <time>2019-02-07T08:15:06.000Z</time>
      </trkpt>
      <trkpt lat="43.61453" lon="6.848">
        <ele>136</ele>
        <time>2019-02-07T08:15:07.000Z</time>
      </trkpt>
      <trkpt lat="43.61452" lon="6.84801">
        <ele>136</ele>
        <time>2019-02-07T08:15:08.000Z</time>
      </trkpt>
      <trkpt lat="43.61452" lon="6.84802">
        <ele>135</ele>
        <time>2019-02-07T08:15:09.000Z</time>
      </trkpt>
      <trkpt lat="43.61452" lon="6.84803">
        <ele>135</ele>
        <time>2019-02-07T08:15:10.000Z</time>
      </trkpt>
      <trkpt lat="43.61451" lon="6.84804">
        <ele>135</ele>
        <time>2019-02-07T08:15:11.000Z</time>
      </trkpt>
      <trkpt lat="43.61451" lon="6.84805">
        <ele>135</ele>
        <time>2019-02-07T08:15:12.000Z</time>
      </trkpt>
      <trkpt lat="43.6145" lon="6.84806">
        <ele>136</ele>
        <time>2019-02-07T08:15:13.000Z</time>
      </trkpt>
      <trkpt lat="43.61449" lon="6.84808">
        <ele>136</ele>
        <time>2019-02-07T08:15:14.000Z</time>
      </trkpt>
      <trkpt lat="43.61449" lon="6.84809">
        <ele>137</ele>
        <time>2019-02-07T08:15:15.000Z</time>
      </trkpt>
      <trkpt lat="43.61449" lon="6.8481">
        <ele>137</ele>
        <time>2019-02-07T08:15:16.000Z</time>
      </trkpt>
      <trkpt lat="43.61449" lon="6.84811">
        <ele>137</ele>
        <time>2019-02-07T08:15:17.000Z</time>
      </trkpt>
      <trkpt lat="43.61448" lon="6.84813">
        <ele>137</ele>
        <time>2019-02-07T08:15:18.000Z</time>
      </trkpt>
      <trkpt lat="43.61448" lon="6.84815">
        <ele>136</ele>
        <time>2019-02-07T08:15:19.000Z</time>
      </trkpt>
      <trkpt lat="43.61448" lon="6.84816">
        <ele>137</ele>
        <time>2019-02-07T08:15:20.000Z</time>
      </trkpt>
      <trkpt lat="43.61447" lon="6.84817">
        <ele>137</ele>
        <time>2019-02-07T08:15:21.000Z</time>
      </trkpt>
      <trkpt lat="43.61447" lon="6.84819">
        <ele>136</ele>
        <time>2019-02-07T08:15:22.000Z</time>
      </trkpt>
      <trkpt lat="43.61446" lon="6.84821">
        <ele>135</ele>
        <time>2019-02-07T08:15:23.000Z</time>
      </trkpt>
      <trkpt lat="43.61446" lon="6.84823">
        <ele>135</ele>
        <time>2019-02-07T08:15:24.000Z</time>
      </trkpt>
      <trkpt lat="43.61446" lon="6.84825">
        <ele>136</ele>
        <time>2019-02-07T08:15:25.000Z</time>
      </trkpt>
      <trkpt lat="43.61446" lon="6.84826">
        <ele>135</ele>
        <time>2019-02-07T08:15:26.000Z</time>
      </trkpt>
      <trkpt lat="43.61446" lon="6.84828">
        <ele>134</ele>
        <time>2019-02-07T08:15:27.000Z</time>
      </trkpt>
      <trkpt lat="43.61446" lon="6.8483">
        <ele>133</ele>
        <time>2019-02-07T08:15:28.000Z</time>
      </trkpt>
      <trkpt lat="43.61445" lon="6.84832">
        <ele>134</ele>
        <time>2019-02-07T08:15:29.000Z</time>
      </trkpt>
      <trkpt lat="43.61445" lon="6.84834">
        <ele>133</ele>
        <time>2019-02-07T08:15:30.000Z</time>
      </trkpt>
      <trkpt lat="43.61444" lon="6.84835">
        <ele>132</ele>
        <time>2019-02-07T08:15:31.000Z</time>
      </trkpt>
      <trkpt lat="43.61444" lon="6.84837">
        <ele>132</ele>
        <time>2019-02-07T08:15:32.000Z</time>
      </trkpt>
      <trkpt lat="43.61444" lon="6.84838">
        <ele>132</ele>
        <time>2019-02-07T08:15:33.000Z</time>
      </trkpt>
      <trkpt lat="43.61444" lon="6.8484">
        <ele>132</ele>
        <time>2019-02-07T08:15:34.000Z</time>
      </trkpt>
      <trkpt lat="43.61444" lon="6.84841">
        <ele>132</ele>
        <time>2019-02-07T08:15:35.000Z</time>
      </trkpt>
      <trkpt lat="43.61444" lon="6.84843">
        <ele>133</ele>
        <time>2019-02-07T08:15:36.000Z</time>
      </trkpt>
      <trkpt lat="43.61443" lon="6.84845">
        <ele>132</ele>
        <time>2019-02-07T08:15:37.000Z</time>
      </trkpt>
      <trkpt lat="43.61443" lon="6.84846">
        <ele>133</ele>
        <time>2019-02-07T08:15:38.000Z</time>
      </trkpt>
      <trkpt lat="43.61444" lon="6.84849">
        <ele>133</ele>
        <time>2019-02-07T08:15:39.000Z</time>
      </trkpt>
      <trkpt lat="43.61444" lon="6.8485">
        <ele>133</ele>
        <time>2019-02-07T08:15:40.000Z</time>
      </trkpt>
      <trkpt lat="43.61444" lon="6.84852">
        <ele>133</ele>
        <time>2019-02-07T08:15:41.000Z</time>
      </trkpt>
      <trkpt lat="43.61444" lon="6.84854">
        <ele>133</ele>
        <time>2019-02-07T08:15:42.000Z</time>
      </trkpt>
      <trkpt lat="43.61444" lon="6.84855">
        <ele>133</ele>
        <time>2019-02-07T08:15:43.000Z</time>
      </trkpt>
      <trkpt lat="43.61444" lon="6.84857">
        <ele>134</ele>
        <time>2019-02-07T08:15:44.000Z</time>
      </trkpt>
      <trkpt lat="43.61444" lon="6.84858">
        <ele>134</ele>
        <time>2019-02-07T08:15:45.000Z</time>
      </trkpt>
      <trkpt lat="43.61444" lon="6.84859">
        <ele>134</ele>
        <time>2019-02-07T08:15:46.000Z</time>
      </trkpt>
      <trkpt lat="43.61444" lon="6.8486">
        <ele>135</ele>
        <time>2019-02-07T08:15:47.000Z</time>
      </trkpt>
      <trkpt lat="43.61445" lon="6.84861">
        <ele>136</ele>
        <time>2019-02-07T08:15:48.000Z</time>
      </trkpt>
      <trkpt lat="43.61445" lon="6.84862">
        <ele>136</ele>
        <time>2019-02-07T08:15:49.000Z</time>
      </trkpt>
      <trkpt lat="43.61445" lon="6.84864">
        <ele>137</ele>
        <time>2019-02-07T08:15:50.000Z</time>
      </trkpt>
      <trkpt lat="43.61445" lon="6.84865">
        <ele>136</ele>
        <time>2019-02-07T08:15:51.000Z</time>
      </trkpt>
      <trkpt lat="43.61445" lon="6.84867">
        <ele>136</ele>
        <time>2019-02-07T08:15:52.000Z</time>
      </trkpt>
      <trkpt lat="43.61445" lon="6.84868">
        <ele>135</ele>
        <time>2019-02-07T08:15:53.000Z</time>
      </trkpt>
      <trkpt lat="43.61445" lon="6.84869">
        <ele>136</ele>
        <time>2019-02-07T08:15:54.000Z</time>
      </trkpt>
      <trkpt lat="43.61445" lon="6.8487">
        <ele>137</ele>
        <time>2019-02-07T08:15:55.000Z</time>
      </trkpt>
      <trkpt lat="43.61445" lon="6.84871">
        <ele>138</ele>
        <time>2019-02-07T08:15:56.000Z</time>
      </trkpt>
      <trkpt lat="43.61445" lon="6.84872">
        <ele>139</ele>
        <time>2019-02-07T08:15:57.000Z</time>
      </trkpt>
      <trkpt lat="43.61446" lon="6.84873">
        <ele>139</ele>
        <time>2019-02-07T08:15:58.000Z</time>
      </trkpt>
      <trkpt lat="43.61446" lon="6.84874">
        <ele>140</ele>
        <time>2019-02-07T08:15:59.000Z</time>
      </trkpt>
      <trkpt lat="43.61446" lon="6.84874">
        <ele>140</ele>
        <time>2019-02-07T08:16:00.000Z</time>
      </trkpt>
      <trkpt lat="43.61446" lon="6.84875">
        <ele>141</ele>
        <time>2019-02-07T08:16:01.000Z</time>
      </trkpt>
      <trkpt lat="43.61447" lon="6.84877">
        <ele>141</ele>
        <time>2019-02-07T08:16:02.000Z</time>
      </trkpt>
      <trkpt lat="43.61447" lon="6.84878">
        <ele>141</ele>
        <time>2019-02-07T08:16:03.000Z</time>
      </trkpt>
      <trkpt lat="43.61446" lon="6.84879">
        <ele>141</ele>
        <time>2019-02-07T08:16:04.000Z</time>
      </trkpt>
      <trkpt lat="43.61446" lon="6.8488">
        <ele>141</ele>
        <time>2019-02-07T08:16:05.000Z</time>
      </trkpt>
      <trkpt lat="43.61447" lon="6.84881">
        <ele>142</ele>
        <time>2019-02-07T08:16:06.000Z</time>
      </trkpt>
      <trkpt lat="43.61447" lon="6.84882">
        <ele>142</ele>
        <time>2019-02-07T08:16:07.000Z</time>
      </trkpt>
      <trkpt lat="43.61447" lon="6.84882">
        <ele>142</ele>
        <time>2019-02-07T08:16:08.000Z</time>
      </trkpt>
      <trkpt lat="43.61447" lon="6.84883">
        <ele>142</ele>
        <time>2019-02-07T08:16:09.000Z</time>
      </trkpt>
      <trkpt lat="43.61448" lon="6.84884">
        <ele>142</ele>
        <time>2019-02-07T08:16:10.000Z</time>
      </trkpt>
      <trkpt lat="43.61448" lon="6.84885">
        <ele>143</ele>
        <time>2019-02-07T08:16:11.000Z</time>
      </trkpt>
      <trkpt lat="43.61448" lon="6.84886">
        <ele>144</ele>
        <time>2019-02-07T08:16:12.000Z</time>
      </trkpt>
      <trkpt lat="43.61448" lon="6.84886">
        <ele>145</ele>
        <time>2019-02-07T08:16:13.000Z</time>
      </trkpt>
      <trkpt lat="43.61449" lon="6.84887">
        <ele>147</ele>
        <time>2019-02-07T08:16:14.000Z</time>
      </trkpt>
      <trkpt lat="43.61449" lon="6.84887">
        <ele>148</ele>
        <time>2019-02-07T08:16:15.000Z</time>
      </trkpt>
      <trkpt lat="43.61449" lon="6.84888">
        <ele>150</ele>
        <time>2019-02-07T08:16:16.000Z</time>
      </trkpt>
      <trkpt lat="43.61449" lon="6.84889">
        <ele>149</ele>
        <time>2019-02-07T08:16:17.000Z</time>
      </trkpt>
      <trkpt lat="43.61448" lon="6.84889">
        <ele>149</ele>
        <time>2019-02-07T08:16:18.000Z</time>
      </trkpt>
      <trkpt lat="43.61448" lon="6.8489">
        <ele>149</ele>
        <time>2019-02-07T08:16:19.000Z</time>
      </trkpt>
      <trkpt lat="43.61448" lon="6.84891">
        <ele>150</ele>
        <time>2019-02-07T08:16:20.000Z</time>
      </trkpt>
      <trkpt lat="43.61447" lon="6.84891">
        <ele>150</ele>
        <time>2019-02-07T08:16:21.000Z</time>
      </trkpt>
      <trkpt lat="43.61447" lon="6.84892">
        <ele>150</ele>
        <time>2019-02-07T08:16:22.000Z</time>
      </trkpt>
      <trkpt lat="43.61447" lon="6.84893">
        <ele>149</ele>
        <time>2019-02-07T08:16:23.000Z</time>
      </trkpt>
      <trkpt lat="43.61446" lon="6.84894">
        <ele>149</ele>
        <time>2019-02-07T08:16:24.000Z</time>
      </trkpt>
      <trkpt lat="43.61446" lon="6.84895">
        <ele>149</ele>
        <time>2019-02-07T08:16:25.000Z</time>
      </trkpt>
      <trkpt lat="43.61446" lon="6.84895">
        <ele>149</ele>
        <time>2019-02-07T08:16:26.000Z</time>
      </trkpt>
      <trkpt lat="43.61445" lon="6.84896">
        <ele>150</ele>
        <time>2019-02-07T08:16:27.000Z</time>
      </trkpt>
      <trkpt lat="43.61445" lon="6.84897">
        <ele>150</ele>
        <time>2019-02-07T08:16:28.000Z</time>
      </trkpt>
      <trkpt lat="43.61445" lon="6.84898">
        <ele>150</ele>
        <time>2019-02-07T08:16:29.000Z</time>
      </trkpt>
      <trkpt lat="43.61445" lon="6.84898">
        <ele>150</ele>
        <time>2019-02-07T08:16:30.000Z</time>
      </trkpt>
      <trkpt lat="43.61445" lon="6.84899">
        <ele>150</ele>
        <time>2019-02-07T08:16:31.000Z</time>
      </trkpt>
      <trkpt lat="43.61445" lon="6.84899">
        <ele>150</ele>
        <time>2019-02-07T08:16:32.000Z</time>
      </trkpt>
      <trkpt lat="43.61445" lon="6.849">
        <ele>150</ele>
        <time>2019-02-07T08:16:33.000Z</time>
      </trkpt>
      <trkpt lat="43.61445" lon="6.849">
        <ele>150</ele>
        <time>2019-02-07T08:16:34.000Z</time>
      </trkpt>
      <trkpt lat="43.61444" lon="6.84901">
        <ele>149</ele>
        <time>2019-02-07T08:16:35.000Z</time>
      </trkpt>
      <trkpt lat="43.61444" lon="6.84901">
        <ele>150</ele>
        <time>2019-02-07T08:16:36.000Z</time>
      </trkpt>
      <trkpt lat="43.61443" lon="6.84902">
        <ele>150</ele>
        <time>2019-02-07T08:16:37.000Z</time>
      </trkpt>
      <trkpt lat="43.61443" lon="6.84902">
        <ele>150</ele>
        <time>2019-02-07T08:16:38.000Z</time>
      </trkpt>
      <trkpt lat="43.61442" lon="6.84903">
        <ele>150</ele>
        <time>2019-02-07T08:16:39.000Z</time>
      </trkpt>
      <trkpt lat="43.61441" lon="6.84903">
        <ele>150</ele>
        <time>2019-02-07T08:16:40.000Z</time>
      </trkpt>
      <trkpt lat="43.61441" lon="6.84902">
        <ele>150</ele>
        <time>2019-02-07T08:16:41.000Z</time>
      </trkpt>
      <trkpt lat="43.6144" lon="6.84902">
        <ele>150</ele>
        <time>2019-02-07T08:16:42.000Z</time>
      </trkpt>
      <trkpt lat="43.61439" lon="6.84901">
        <ele>150</ele>
        <time>2019-02-07T08:16:43.000Z</time>
      </trkpt>
      <trkpt lat="43.61437" lon="6.84901">
        <ele>150</ele>
        <time>2019-02-07T08:16:44.000Z</time>
      </trkpt>
      <trkpt lat="43.61437" lon="6.849">
        <ele>150</ele>
        <time>2019-02-07T08:16:45.000Z</time>
      </trkpt>
      <trkpt lat="43.61436" lon="6.849">
        <ele>149</ele>
        <time>2019-02-07T08:16:46.000Z</time>
      </trkpt>
      <trkpt lat="43.61435" lon="6.84899">
        <ele>149</ele>
        <time>2019-02-07T08:16:47.000Z</time>
      </trkpt>
      <trkpt lat="43.61434" lon="6.84899">
        <ele>149</ele>
        <time>2019-02-07T08:16:48.000Z</time>
      </trkpt>
      <trkpt lat="43.61433" lon="6.84899">
        <ele>149</ele>
        <time>2019-02-07T08:16:49.000Z</time>
      </trkpt>
      <trkpt lat="43.61433" lon="6.84899">
        <ele>149</ele>
        <time>2019-02-07T08:16:50.000Z</time>
      </trkpt>
      <trkpt lat="43.61432" lon="6.84898">
        <ele>150</ele>
        <time>2019-02-07T08:16:51.000Z</time>
      </trkpt>
      <trkpt lat="43.61432" lon="6.84898">
        <ele>150</ele>
        <time>2019-02-07T08:16:52.000Z</time>
      </trkpt>
      <trkpt lat="43.61432" lon="6.84898">
        <ele>151</ele>
        <time>2019-02-07T08:16:53.000Z</time>
      </trkpt>
      <trkpt lat="43.61431" lon="6.84897">
        <ele>151</ele>
        <time>2019-02-07T08:16:54.000Z</time>
      </trkpt>
      <trkpt lat="43.61431" lon="6.84897">
        <ele>152</ele>
        <time>2019-02-07T08:16:55.000Z</time>
      </trkpt>
      <trkpt lat="43.61431" lon="6.84897">
        <ele>153</ele>
        <time>2019-02-07T08:16:56.000Z</time>
      </trkpt>
      <trkpt lat="43.61431" lon="6.84897">
        <ele>154</ele>
        <time>2019-02-07T08:16:57.000Z</time>
      </trkpt>
      <trkpt lat="43.61431" lon="6.84896">
        <ele>156</ele>
        <time>2019-02-07T08:16:58.000Z</time>
      </trkpt>
      <trkpt lat="43.61431" lon="6.84895">
        <ele>157</ele>
        <time>2019-02-07T08:16:59.000Z</time>
      </trkpt>
      <trkpt lat="43.61431" lon="6.84895">
        <ele>157</ele>
        <time>2019-02-07T08:17:00.000Z</time>
      </trkpt>
      <trkpt lat="43.61431" lon="6.84895">
        <ele>158</ele>
        <time>2019-02-07T08:17:01.000Z</time>
      </trkpt>
      <trkpt lat="43.61431" lon="6.84895">
        <ele>159</ele>
        <time>2019-02-07T08:17:02.000Z</time>
      </trkpt>
      <trkpt lat="43.61431" lon="6.84895">
        <ele>159</ele>
        <time>2019-02-07T08:17:03.000Z</time>
      </trkpt>
      <trkpt lat="43.61431" lon="6.84895">
        <ele>160</ele>
        <time>2019-02-07T08:17:04.000Z</time>
      </trkpt>
      <trkpt lat="43.61431" lon="6.84895">
        <ele>160</ele>
        <time>2019-02-07T08:17:05.000Z</time>
      </trkpt>
      <trkpt lat="43.6143" lon="6.84894">
        <ele>161</ele>
        <time>2019-02-07T08:17:06.000Z</time>
      </trkpt>
      <trkpt lat="43.6143" lon="6.84894">
        <ele>161</ele>
        <time>2019-02-07T08:17:07.000Z</time>
      </trkpt>
      <trkpt lat="43.6143" lon="6.84894">
        <ele>161</ele>
        <time>2019-02-07T08:17:08.000Z</time>
      </trkpt>
      <trkpt lat="43.61429" lon="6.84894">
        <ele>161</ele>
        <time>2019-02-07T08:17:09.000Z</time>
      </trkpt>
      <trkpt lat="43.61429" lon="6.84894">
        <ele>161</ele>
        <time>2019-02-07T08:17:10.000Z</time>
      </trkpt>
      <trkpt lat="43.61429" lon="6.84895">
        <ele>161</ele>
        <time>2019-02-07T08:17:11.000Z</time>
      </trkpt>
      <trkpt lat="43.61429" lon="6.84895">
        <ele>161</ele>
        <time>2019-02-07T08:17:12.000Z</time>
      </trkpt>
      <trkpt lat="43.61428" lon="6.84895">
        <ele>161</ele>
        <time>2019-02-07T08:17:13.000Z</time>
      </trkpt>
      <trkpt lat="43.61427" lon="6.84894">
        <ele>162</ele>
        <time>2019-02-07T08:17:14.000Z</time>
      </trkpt>
      <trkpt lat="43.61427" lon="6.84894">
        <ele>162</ele>
        <time>2019-02-07T08:17:15.000Z</time>
      </trkpt>
      <trkpt lat="43.61427" lon="6.84894">
        <ele>162</ele>
        <time>2019-02-07T08:17:16.000Z</time>
      </trkpt>
      <trkpt lat="43.61427" lon="6.84894">
        <ele>162</ele>
        <time>2019-02-07T08:17:17.000Z</time>
      </trkpt>
      <trkpt lat="43.61426" lon="6.84893">
        <ele>162</ele>
        <time>2019-02-07T08:17:18.000Z</time>
      </trkpt>
      <trkpt lat="43.61426" lon="6.84893">
        <ele>162</ele>
        <time>2019-02-07T08:17:19.000Z</time>
      </trkpt>
      <trkpt lat="43.61426" lon="6.84893">
        <ele>162</ele>
        <time>2019-02-07T08:17:20.000Z</time>
      </trkpt>
      <trkpt lat="43.61425" lon="6.84893">
        <ele>162</ele>
        <time>2019-02-07T08:17:21.000Z</time>
      </trkpt>
      <trkpt lat="43.61425" lon="6.84892">
        <ele>163</ele>
        <time>2019-02-07T08:17:22.000Z</time>
      </trkpt>
      <trkpt lat="43.61424" lon="6.84892">
        <ele>162</ele>
        <time>2019-02-07T08:17:23.000Z</time>
      </trkpt>
      <trkpt lat="43.61423" lon="6.84892">
        <ele>163</ele>
        <time>2019-02-07T08:17:24.000Z</time>
      </trkpt>
      <trkpt lat="43.61423" lon="6.84892">
        <ele>163</ele>
        <time>2019-02-07T08:17:25.000Z</time>
      </trkpt>
      <trkpt lat="43.61422" lon="6.84892">
        <ele>164</ele>
        <time>2019-02-07T08:17:26.000Z</time>
      </trkpt>
      <trkpt lat="43.61422" lon="6.84892">
        <ele>164</ele>
        <time>2019-02-07T08:17:27.000Z</time>
      </trkpt>
      <trkpt lat="43.61421" lon="6.84891">
        <ele>164</ele>
        <time>2019-02-07T08:17:28.000Z</time>
      </trkpt>
      <trkpt lat="43.61421" lon="6.84891">
        <ele>164</ele>
        <time>2019-02-07T08:17:29.000Z</time>
      </trkpt>
      <trkpt lat="43.61421" lon="6.84891">
        <ele>164</ele>
        <time>2019-02-07T08:17:30.000Z</time>
      </trkpt>
      <trkpt lat="43.6142" lon="6.84891">
        <ele>164</ele>
        <time>2019-02-07T08:17:31.000Z</time>
      </trkpt>
      <trkpt lat="43.6142" lon="6.84891">
        <ele>164</ele>
        <time>2019-02-07T08:17:32.000Z</time>
      </trkpt>
      <trkpt lat="43.61421" lon="6.84891">
        <ele>164</ele>
        <time>2019-02-07T08:17:33.000Z</time>
      </trkpt>
      <trkpt lat="43.61421" lon="6.84891">
        <ele>164</ele>
        <time>2019-02-07T08:17:34.000Z</time>
      </trkpt>
      <trkpt lat="43.61421" lon="6.84891">
        <ele>164</ele>
        <time>2019-02-07T08:17:35.000Z</time>
      </trkpt>
      <trkpt lat="43.6142" lon="6.84891">
        <ele>164</ele>
        <time>2019-02-07T08:17:36.000Z</time>
      </trkpt>
      <trkpt lat="43.6142" lon="6.84891">
        <ele>165</ele>
        <time>2019-02-07T08:17:37.000Z</time>
      </trkpt>
      <trkpt lat="43.61419" lon="6.84891">
        <ele>166</ele>
        <time>2019-02-07T08:17:38.000Z</time>
      </trkpt>
      <trkpt lat="43.61419" lon="6.84891">
        <ele>166</ele>
        <time>2019-02-07T08:17:39.000Z</time>
      </trkpt>
      <trkpt lat="43.61418" lon="6.8489">
        <ele>167</ele>
        <time>2019-02-07T08:17:40.000Z</time>
      </trkpt>
      <trkpt lat="43.61417" lon="6.8489">
        <ele>166</ele>
        <time>2019-02-07T08:17:41.000Z</time>
      </trkpt>
      <trkpt lat="43.61416" lon="6.84889">
        <ele>166</ele>
        <time>2019-02-07T08:17:42.000Z</time>
      </trkpt>
      <trkpt lat="43.61415" lon="6.84888">
        <ele>166</ele>
        <time>2019-02-07T08:17:43.000Z</time>
      </trkpt>
      <trkpt lat="43.61415" lon="6.84887">
        <ele>166</ele>
        <time>2019-02-07T08:17:44.000Z</time>
      </trkpt>
      <trkpt lat="43.61414" lon="6.84887">
        <ele>166</ele>
        <time>2019-02-07T08:17:45.000Z</time>
      </trkpt>
      <trkpt lat="43.61414" lon="6.84887">
        <ele>166</ele>
        <time>2019-02-07T08:17:46.000Z</time>
      </trkpt>
      <trkpt lat="43.61413" lon="6.84886">
        <ele>166</ele>
        <time>2019-02-07T08:17:47.000Z</time>
      </trkpt>
      <trkpt lat="43.61413" lon="6.84886">
        <ele>167</ele>
        <time>2019-02-07T08:17:48.000Z</time>
      </trkpt>
      <trkpt lat="43.61413" lon="6.84886">
        <ele>167</ele>
        <time>2019-02-07T08:17:49.000Z</time>
      </trkpt>
      <trkpt lat="43.61412" lon="6.84885">
        <ele>167</ele>
        <time>2019-02-07T08:17:50.000Z</time>
      </trkpt>
      <trkpt lat="43.61412" lon="6.84885">
        <ele>168</ele>
        <time>2019-02-07T08:17:51.000Z</time>
      </trkpt>
      <trkpt lat="43.61412" lon="6.84884">
        <ele>168</ele>
        <time>2019-02-07T08:17:52.000Z</time>
      </trkpt>
      <trkpt lat="43.61412" lon="6.84884">
        <ele>168</ele>
        <time>2019-02-07T08:17:53.000Z</time>
      </trkpt>
      <trkpt lat="43.61411" lon="6.84883">
        <ele>168</ele>
        <time>2019-02-07T08:17:54.000Z</time>
      </trkpt>
      <trkpt lat="43.6141" lon="6.84883">
        <ele>169</ele>
        <time>2019-02-07T08:17:55.000Z</time>
      </trkpt>
      <trkpt lat="43.61409" lon="6.84883">
        <ele>170</ele>
        <time>2019-02-07T08:17:56.000Z</time>
      </trkpt>
      <trkpt lat="43.61409" lon="6.84882">
        <ele>169</ele>
        <time>2019-02-07T08:17:57.000Z</time>
      </trkpt>
      <trkpt lat="43.61408" lon="6.84881">
        <ele>168</ele>
        <time>2019-02-07T08:17:58.000Z</time>
      </trkpt>
      <trkpt lat="43.61407" lon="6.8488">
        <ele>167</ele>
        <time>2019-02-07T08:17:59.000Z</time>
      </trkpt>
      <trkpt lat="43.61407" lon="6.84879">
        <ele>167</ele>
        <time>2019-02-07T08:18:00.000Z</time>
      </trkpt>
      <trkpt lat="43.61406" lon="6.84878">
        <ele>167</ele>
        <time>2019-02-07T08:18:01.000Z</time>
      </trkpt>
      <trkpt lat="43.61406" lon="6.84877">
        <ele>168</ele>
        <time>2019-02-07T08:18:02.000Z</time>
      </trkpt>
      <trkpt lat="43.61406" lon="6.84876">
        <ele>168</ele>
        <time>2019-02-07T08:18:03.000Z</time>
      </trkpt>
      <trkpt lat="43.61406" lon="6.84876">
        <ele>168</ele>
        <time>2019-02-07T08:18:04.000Z</time>
      </trkpt>
      <trkpt lat="43.61406" lon="6.84876">
        <ele>168</ele>
        <time>2019-02-07T08:18:05.000Z</time>
      </trkpt>
      <trkpt lat="43.61406" lon="6.84875">
        <ele>168</ele>
        <time>2019-02-07T08:18:06.000Z</time>
      </trkpt>
      <trkpt lat="43.61406" lon="6.84875">
        <ele>168</ele>
        <time>2019-02-07T08:18:07.000Z</time>
      </trkpt>
      <trkpt lat="43.61406" lon="6.84875">
        <ele>169</ele>
        <time>2019-02-07T08:18:08.000Z</time>
      </trkpt>
      <trkpt lat="43.61405" lon="6.84874">
        <ele>169</ele>
        <time>2019-02-07T08:18:09.000Z</time>
      </trkpt>
      <trkpt lat="43.61405" lon="6.84874">
        <ele>169</ele>
        <time>2019-02-07T08:18:10.000Z</time>
      </trkpt>
      <trkpt lat="43.61404" lon="6.84874">
        <ele>169</ele>
        <time>2019-02-07T08:18:11.000Z</time>
      </trkpt>
      <trkpt lat="43.61403" lon="6.84873">
        <ele>169</ele>
        <time>2019-02-07T08:18:12.000Z</time>
      </trkpt>
      <trkpt lat="43.61403" lon="6.84873">
        <ele>169</ele>
        <time>2019-02-07T08:18:13.000Z</time>
      </trkpt>
      <trkpt lat="43.61402" lon="6.84873">
        <ele>170</ele>
        <time>2019-02-07T08:18:14.000Z</time>
      </trkpt>
      <trkpt lat="43.61402" lon="6.84873">
        <ele>170</ele>
        <time>2019-02-07T08:18:15.000Z</time>
      </trkpt>
      <trkpt lat="43.61402" lon="6.84872">
        <ele>171</ele>
        <time>2019-02-07T08:18:16.000Z</time>
      </trkpt>
      <trkpt lat="43.61401" lon="6.84872">
        <ele>172</ele>
        <time>2019-02-07T08:18:17.000Z</time>
      </trkpt>
      <trkpt lat="43.61401" lon="6.84872">
        <ele>172</ele>
        <time>2019-02-07T08:18:18.000Z</time>
      </trkpt>
      <trkpt lat="43.614" lon="6.84872">
        <ele>172</ele>
        <time>2019-02-07T08:18:19.000Z</time>
      </trkpt>
      <trkpt lat="43.614" lon="6.84871">
        <ele>172</ele>
        <time>2019-02-07T08:18:20.000Z</time>
      </trkpt>
      <trkpt lat="43.614" lon="6.8487">
        <ele>172</ele>
        <time>2019-02-07T08:18:21.000Z</time>
      </trkpt>
      <trkpt lat="43.614" lon="6.8487">
        <ele>173</ele>
        <time>2019-02-07T08:18:22.000Z</time>
      </trkpt>
      <trkpt lat="43.61399" lon="6.84869">
        <ele>172</ele>
        <time>2019-02-07T08:18:23.000Z</time>
      </trkpt>
      <trkpt lat="43.61398" lon="6.84868">
        <ele>172</ele>
        <time>2019-02-07T08:18:24.000Z</time>
      </trkpt>
      <trkpt lat="43.61398" lon="6.84868">
        <ele>173</ele>
        <time>2019-02-07T08:18:25.000Z</time>
      </trkpt>
      <trkpt lat="43.61398" lon="6.84867">
        <ele>172</ele>
        <time>2019-02-07T08:18:26.000Z</time>
      </trkpt>
      <trkpt lat="43.61397" lon="6.84866">
        <ele>173</ele>
        <time>2019-02-07T08:18:27.000Z</time>
      </trkpt>
      <trkpt lat="43.61397" lon="6.84865">
        <ele>172</ele>
        <time>2019-02-07T08:18:28.000Z</time>
      </trkpt>
      <trkpt lat="43.61396" lon="6.84864">
        <ele>172</ele>
        <time>2019-02-07T08:18:29.000Z</time>
      </trkpt>
      <trkpt lat="43.61396" lon="6.84863">
        <ele>172</ele>
        <time>2019-02-07T08:18:30.000Z</time>
      </trkpt>
      <trkpt lat="43.61395" lon="6.84862">
        <ele>172</ele>
        <time>2019-02-07T08:18:31.000Z</time>
      </trkpt>
      <trkpt lat="43.61395" lon="6.84861">
        <ele>172</ele>
        <time>2019-02-07T08:18:32.000Z</time>
      </trkpt>
      <trkpt lat="43.61395" lon="6.8486">
        <ele>172</ele>
        <time>2019-02-07T08:18:33.000Z</time>
      </trkpt>
      <trkpt lat="43.61395" lon="6.84859">
        <ele>172</ele>
        <time>2019-02-07T08:18:34.000Z</time>
      </trkpt>
      <trkpt lat="43.61394" lon="6.84858">
        <ele>173</ele>
        <time>2019-02-07T08:18:35.000Z</time>
      </trkpt>
      <trkpt lat="43.61394" lon="6.84857">
        <ele>174</ele>
        <time>2019-02-07T08:18:36.000Z</time>
      </trkpt>
      <trkpt lat="43.61393" lon="6.84856">
        <ele>174</ele>
        <time>2019-02-07T08:18:37.000Z</time>
      </trkpt>
      <trkpt lat="43.61392" lon="6.84856">
        <ele>173</ele>
        <time>2019-02-07T08:18:38.000Z</time>
      </trkpt>
      <trkpt lat="43.61392" lon="6.84855">
        <ele>172</ele>
        <time>2019-02-07T08:18:39.000Z</time>
      </trkpt>
      <trkpt lat="43.61391" lon="6.84855">
        <ele>172</ele>
        <time>2019-02-07T08:18:40.000Z</time>
      </trkpt>
      <trkpt lat="43.61391" lon="6.84854">
        <ele>171</ele>
        <time>2019-02-07T08:18:41.000Z</time>
      </trkpt>
      <trkpt lat="43.61391" lon="6.84854">
        <ele>171</ele>
        <time>2019-02-07T08:18:42.000Z</time>
      </trkpt>
      <trkpt lat="43.61391" lon="6.84854">
        <ele>170</ele>
        <time>2019-02-07T08:18:43.000Z</time>
      </trkpt>
      <trkpt lat="43.61391" lon="6.84854">
        <ele>170</ele>
        <time>2019-02-07T08:18:44.000Z</time>
      </trkpt>
      <trkpt lat="43.61391" lon="6.84853">
        <ele>171</ele>
        <time>2019-02-07T08:18:45.000Z</time>
      </trkpt>
      <trkpt lat="43.61391" lon="6.84853">
        <ele>171</ele>
        <time>2019-02-07T08:18:46.000Z</time>
      </trkpt>
      <trkpt lat="43.61391" lon="6.84853">
        <ele>170</ele>
        <time>2019-02-07T08:18:47.000Z</time>
      </trkpt>
      <trkpt lat="43.61391" lon="6.84853">
        <ele>170</ele>
        <time>2019-02-07T08:18:48.000Z</time>
      </trkpt>
      <trkpt lat="43.61391" lon="6.84853">
        <ele>170</ele>
        <time>2019-02-07T08:18:49.000Z</time>
      </trkpt>
      <trkpt lat="43.61391" lon="6.84852">
        <ele>170</ele>
        <time>2019-02-07T08:18:50.000Z</time>
      </trkpt>
      <trkpt lat="43.61391" lon="6.84853">
        <ele>170</ele>
        <time>2019-02-07T08:18:51.000Z</time>
      </trkpt>
      <trkpt lat="43.61391" lon="6.84853">
        <ele>170</ele>
        <time>2019-02-07T08:18:52.000Z</time>
      </trkpt>
      <trkpt lat="43.61391" lon="6.84852">
        <ele>170</ele>
        <time>2019-02-07T08:18:53.000Z</time>
      </trkpt>
      <trkpt lat="43.61391" lon="6.84852">
        <ele>170</ele>
        <time>2019-02-07T08:18:54.000Z</time>
      </trkpt>
      <trkpt lat="43.61391" lon="6.84852">
        <ele>171</ele>
        <time>2019-02-07T08:18:55.000Z</time>
      </trkpt>
      <trkpt lat="43.61391" lon="6.84852">
        <ele>172</ele>
        <time>2019-02-07T08:18:56.000Z</time>
      </trkpt>
      <trkpt lat="43.61391" lon="6.84853">
        <ele>172</ele>
        <time>2019-02-07T08:18:57.000Z</time>
      </trkpt>
      <trkpt lat="43.61391" lon="6.84853">
        <ele>172</ele>
        <time>2019-02-07T08:18:58.000Z</time>
      </trkpt>
      <trkpt lat="43.6139" lon="6.84852">
        <ele>172</ele>
        <time>2019-02-07T08:18:59.000Z</time>
      </trkpt>
      <trkpt lat="43.6139" lon="6.84852">
        <ele>172</ele>
        <time>2019-02-07T08:19:00.000Z</time>
      </trkpt>
      <trkpt lat="43.6139" lon="6.84852">
        <ele>172</ele>
        <time>2019-02-07T08:19:01.000Z</time>
      </trkpt>
      <trkpt lat="43.6139" lon="6.84852">
        <ele>172</ele>
        <time>2019-02-07T08:19:02.000Z</time>
      </trkpt>
      <trkpt lat="43.6139" lon="6.84852">
        <ele>172</ele>
        <time>2019-02-07T08:19:03.000Z</time>
      </trkpt>
      <trkpt lat="43.6139" lon="6.84852">
        <ele>172</ele>
        <time>2019-02-07T08:19:04.000Z</time>
      </trkpt>
      <trkpt lat="43.6139" lon="6.84852">
        <ele>172</ele>
        <time>2019-02-07T08:19:05.000Z</time>
      </trkpt>
      <trkpt lat="43.6139" lon="6.84852">
        <ele>172</ele>
        <time>2019-02-07T08:19:06.000Z</time>
      </trkpt>
      <trkpt lat="43.6139" lon="6.84852">
        <ele>172</ele>
        <time>2019-02-07T08:19:07.000Z</time>
      </trkpt>
      <trkpt lat="43.61391" lon="6.84852">
        <ele>172</ele>
        <time>2019-02-07T08:19:08.000Z</time>
      </trkpt>
      <trkpt lat="43.61391" lon="6.84852">
        <ele>172</ele>
        <time>2019-02-07T08:19:09.000Z</time>
      </trkpt>
      <trkpt lat="43.61391" lon="6.84852">
        <ele>172</ele>
        <time>2019-02-07T08:19:10.000Z</time>
      </trkpt>
      <trkpt lat="43.61391" lon="6.84852">
        <ele>172</ele>
        <time>2019-02-07T08:19:11.000Z</time>
      </trkpt>
      <trkpt lat="43.6139" lon="6.84851">
        <ele>172</ele>
        <time>2019-02-07T08:19:12.000Z</time>
      </trkpt>
      <trkpt lat="43.6139" lon="6.84851">
        <ele>173</ele>
        <time>2019-02-07T08:19:13.000Z</time>
      </trkpt>
      <trkpt lat="43.6139" lon="6.84851">
        <ele>173</ele>
        <time>2019-02-07T08:19:14.000Z</time>
      </trkpt>
      <trkpt lat="43.6139" lon="6.84851">
        <ele>174</ele>
        <time>2019-02-07T08:19:15.000Z</time>
      </trkpt>
      <trkpt lat="43.6139" lon="6.84851">
        <ele>174</ele>
        <time>2019-02-07T08:19:16.000Z</time>
      </trkpt>
      <trkpt lat="43.6139" lon="6.84851">
        <ele>174</ele>
        <time>2019-02-07T08:19:17.000Z</time>
      </trkpt>
      <trkpt lat="43.61391" lon="6.84851">
        <ele>174</ele>
        <time>2019-02-07T08:19:18.000Z</time>
      </trkpt>
      <trkpt lat="43.61391" lon="6.84851">
        <ele>174</ele>
        <time>2019-02-07T08:19:19.000Z</time>
      </trkpt>
      <trkpt lat="43.61391" lon="6.84851">
        <ele>173</ele>
        <time>2019-02-07T08:19:20.000Z</time>
      </trkpt>
      <trkpt lat="43.61391" lon="6.8485">
        <ele>173</ele>
        <time>2019-02-07T08:19:21.000Z</time>
      </trkpt>
      <trkpt lat="43.61391" lon="6.8485">
        <ele>173</ele>
        <time>2019-02-07T08:19:22.000Z</time>
      </trkpt>
      <trkpt lat="43.61391" lon="6.8485">
        <ele>173</ele>
        <time>2019-02-07T08:19:23.000Z</time>
      </trkpt>
      <trkpt lat="43.61391" lon="6.8485">
        <ele>173</ele>
        <time>2019-02-07T08:19:24.000Z</time>
      </trkpt>
      <trkpt lat="43.61391" lon="6.8485">
        <ele>173</ele>
        <time>2019-02-07T08:19:25.000Z</time>
      </trkpt>
      <trkpt lat="43.61391" lon="6.8485">
        <ele>174</ele>
        <time>2019-02-07T08:19:26.000Z</time>
      </trkpt>
      <trkpt lat="43.61391" lon="6.8485">
        <ele>174</ele>
        <time>2019-02-07T08:19:27.000Z</time>
      </trkpt>
      <trkpt lat="43.61392" lon="6.8485">
        <ele>174</ele>
        <time>2019-02-07T08:19:28.000Z</time>
      </trkpt>
      <trkpt lat="43.61392" lon="6.84849">
        <ele>175</ele>
        <time>2019-02-07T08:19:29.000Z</time>
      </trkpt>
      <trkpt lat="43.61392" lon="6.84849">
        <ele>175</ele>
        <time>2019-02-07T08:19:30.000Z</time>
      </trkpt>
      <trkpt lat="43.61392" lon="6.84849">
        <ele>174</ele>
        <time>2019-02-07T08:19:31.000Z</time>
      </trkpt>
      <trkpt lat="43.61392" lon="6.84849">
        <ele>174</ele>
        <time>2019-02-07T08:19:32.000Z</time>
      </trkpt>
      <trkpt lat="43.61392" lon="6.84849">
        <ele>175</ele>
        <time>2019-02-07T08:19:33.000Z</time>
      </trkpt>
      <trkpt lat="43.61392" lon="6.84849">
        <ele>175</ele>
        <time>2019-02-07T08:19:34.000Z</time>
      </trkpt>
      <trkpt lat="43.61391" lon="6.84848">
        <ele>175</ele>
        <time>2019-02-07T08:19:35.000Z</time>
      </trkpt>
      <trkpt lat="43.61391" lon="6.84848">
        <ele>175</ele>
        <time>2019-02-07T08:19:36.000Z</time>
      </trkpt>
      <trkpt lat="43.61391" lon="6.84848">
        <ele>176</ele>
        <time>2019-02-07T08:19:37.000Z</time>
      </trkpt>
      <trkpt lat="43.61392" lon="6.84848">
        <ele>176</ele>
        <time>2019-02-07T08:19:38.000Z</time>
      </trkpt>
      <trkpt lat="43.61392" lon="6.84848">
        <ele>177</ele>
        <time>2019-02-07T08:19:39.000Z</time>
      </trkpt>
      <trkpt lat="43.61392" lon="6.84847">
        <ele>177</ele>
        <time>2019-02-07T08:19:40.000Z</time>
      </trkpt>
      <trkpt lat="43.61392" lon="6.84847">
        <ele>177</ele>
        <time>2019-02-07T08:19:41.000Z</time>
      </trkpt>
      <trkpt lat="43.61393" lon="6.84847">
        <ele>176</ele>
        <time>2019-02-07T08:19:42.000Z</time>
      </trkpt>
      <trkpt lat="43.61393" lon="6.84847">
        <ele>176</ele>
        <time>2019-02-07T08:19:43.000Z</time>
      </trkpt>
      <trkpt lat="43.61393" lon="6.84847">
        <ele>177</ele>
        <time>2019-02-07T08:19:44.000Z</time>
      </trkpt>
      <trkpt lat="43.61393" lon="6.84847">
        <ele>178</ele>
        <time>2019-02-07T08:19:45.000Z</time>
      </trkpt>
      <trkpt lat="43.61393" lon="6.84847">
        <ele>178</ele>
        <time>2019-02-07T08:19:46.000Z</time>
      </trkpt>
      <trkpt lat="43.61394" lon="6.84847">
        <ele>179</ele>
        <time>2019-02-07T08:19:47.000Z</time>
      </trkpt>
      <trkpt lat="43.61394" lon="6.84847">
        <ele>179</ele>
        <time>2019-02-07T08:19:48.000Z</time>
      </trkpt>
      <trkpt lat="43.61394" lon="6.84847">
        <ele>179</ele>
        <time>2019-02-07T08:19:49.000Z</time>
      </trkpt>
      <trkpt lat="43.61394" lon="6.84847">
        <ele>179</ele>
        <time>2019-02-07T08:19:50.000Z</time>
      </trkpt>
      <trkpt lat="43.61394" lon="6.84847">
        <ele>179</ele>
        <time>2019-02-07T08:19:51.000Z</time>
      </trkpt>
      <trkpt lat="43.61394" lon="6.84846">
        <ele>179</ele>
        <time>2019-02-07T08:19:52.000Z</time>
      </trkpt>
      <trkpt lat="43.61394" lon="6.84846">
        <ele>179</ele>
        <time>2019-02-07T08:19:53.000Z</time>
      </trkpt>
      <trkpt lat="43.61394" lon="6.84846">
        <ele>179</ele>
        <time>2019-02-07T08:19:54.000Z</time>
      </trkpt>
      <trkpt lat="43.61394" lon="6.84845">
        <ele>179</ele>
        <time>2019-02-07T08:19:55.000Z</time>
      </trkpt>
      <trkpt lat="43.61394" lon="6.84844">
        <ele>179</ele>
        <time>2019-02-07T08:19:56.000Z</time>
      </trkpt>
      <trkpt lat="43.61394" lon="6.84844">
        <ele>179</ele>
        <time>2019-02-07T08:19:57.000Z</time>
      </trkpt>
      <trkpt lat="43.61393" lon="6.84843">
        <ele>179</ele>
        <time>2019-02-07T08:19:58.000Z</time>
      </trkpt>
      <trkpt lat="43.61393" lon="6.84843">
        <ele>179</ele>
        <time>2019-02-07T08:19:59.000Z</time>
      </trkpt>
      <trkpt lat="43.61393" lon="6.84843">
        <ele>178</ele>
        <time>2019-02-07T08:20:00.000Z</time>
      </trkpt>
      <trkpt lat="43.61393" lon="6.84842">
        <ele>178</ele>
        <time>2019-02-07T08:20:01.000Z</time>
      </trkpt>
      <trkpt lat="43.61392" lon="6.84842">
        <ele>178</ele>
        <time>2019-02-07T08:20:02.000Z</time>
      </trkpt>
      <trkpt lat="43.61392" lon="6.84841">
        <ele>179</ele>
        <time>2019-02-07T08:20:03.000Z</time>
      </trkpt>
      <trkpt lat="43.61392" lon="6.8484">
        <ele>179</ele>
        <time>2019-02-07T08:20:04.000Z</time>
      </trkpt>
      <trkpt lat="43.61392" lon="6.8484">
        <ele>179</ele>
        <time>2019-02-07T08:20:05.000Z</time>
      </trkpt>
      <trkpt lat="43.61392" lon="6.84839">
        <ele>179</ele>
        <time>2019-02-07T08:20:06.000Z</time>
      </trkpt>
      <trkpt lat="43.61392" lon="6.84838">
        <ele>179</ele>
        <time>2019-02-07T08:20:07.000Z</time>
      </trkpt>
      <trkpt lat="43.61392" lon="6.84837">
        <ele>180</ele>
        <time>2019-02-07T08:20:08.000Z</time>
      </trkpt>
      <trkpt lat="43.61391" lon="6.84836">
        <ele>179</ele>
        <time>2019-02-07T08:20:09.000Z</time>
      </trkpt>
      <trkpt lat="43.61391" lon="6.84835">
        <ele>178</ele>
        <time>2019-02-07T08:20:10.000Z</time>
      </trkpt>
      <trkpt lat="43.61391" lon="6.84835">
        <ele>178</ele>
        <time>2019-02-07T08:20:11.000Z</time>
      </trkpt>
      <trkpt lat="43.61391" lon="6.84834">
        <ele>178</ele>
        <time>2019-02-07T08:20:12.000Z</time>
      </trkpt>
      <trkpt lat="43.61391" lon="6.84834">
        <ele>178</ele>
        <time>2019-02-07T08:20:13.000Z</time>
      </trkpt>
      <trkpt lat="43.61391" lon="6.84833">
        <ele>177</ele>
        <time>2019-02-07T08:20:14.000Z</time>
      </trkpt>
      <trkpt lat="43.61391" lon="6.84832">
        <ele>177</ele>
        <time>2019-02-07T08:20:15.000Z</time>
      </trkpt>
      <trkpt lat="43.61391" lon="6.84831">
        <ele>176</ele>
        <time>2019-02-07T08:20:16.000Z</time>
      </trkpt>
      <trkpt lat="43.61391" lon="6.8483">
        <ele>176</ele>
        <time>2019-02-07T08:20:17.000Z</time>
      </trkpt>
      <trkpt lat="43.6139" lon="6.84829">
        <ele>176</ele>
        <time>2019-02-07T08:20:18.000Z</time>
      </trkpt>
      <trkpt lat="43.6139" lon="6.84827">
        <ele>175</ele>
        <time>2019-02-07T08:20:19.000Z</time>
      </trkpt>
      <trkpt lat="43.6139" lon="6.84826">
        <ele>174</ele>
        <time>2019-02-07T08:20:20.000Z</time>
      </trkpt>
      <trkpt lat="43.61389" lon="6.84824">
        <ele>174</ele>
        <time>2019-02-07T08:20:21.000Z</time>
      </trkpt>
      <trkpt lat="43.61389" lon="6.84823">
        <ele>173</ele>
        <time>2019-02-07T08:20:22.000Z</time>
      </trkpt>
      <trkpt lat="43.61388" lon="6.84821">
        <ele>172</ele>
        <time>2019-02-07T08:20:23.000Z</time>
      </trkpt>
      <trkpt lat="43.61387" lon="6.8482">
        <ele>172</ele>
        <time>2019-02-07T08:20:24.000Z</time>
      </trkpt>
      <trkpt lat="43.61387" lon="6.84818">
        <ele>172</ele>
        <time>2019-02-07T08:20:25.000Z</time>
      </trkpt>
      <trkpt lat="43.61387" lon="6.84817">
        <ele>171</ele>
        <time>2019-02-07T08:20:26.000Z</time>
      </trkpt>
      <trkpt lat="43.61387" lon="6.84816">
        <ele>171</ele>
        <time>2019-02-07T08:20:27.000Z</time>
      </trkpt>
      <trkpt lat="43.61387" lon="6.84814">
        <ele>171</ele>
        <time>2019-02-07T08:20:28.000Z</time>
      </trkpt>
      <trkpt lat="43.61387" lon="6.84813">
        <ele>171</ele>
        <time>2019-02-07T08:20:29.000Z</time>
      </trkpt>
      <trkpt lat="43.61387" lon="6.84812">
        <ele>171</ele>
        <time>2019-02-07T08:20:30.000Z</time>
      </trkpt>
      <trkpt lat="43.61387" lon="6.8481">
        <ele>171</ele>
        <time>2019-02-07T08:20:31.000Z</time>
      </trkpt>
      <trkpt lat="43.61387" lon="6.84808">
        <ele>171</ele>
        <time>2019-02-07T08:20:32.000Z</time>
      </trkpt>
      <trkpt lat="43.61387" lon="6.84806">
        <ele>171</ele>
        <time>2019-02-07T08:20:33.000Z</time>
      </trkpt>
      <trkpt lat="43.61387" lon="6.84805">
        <ele>171</ele>
        <time>2019-02-07T08:20:34.000Z</time>
      </trkpt>
      <trkpt lat="43.61386" lon="6.84804">
        <ele>171</ele>
        <time>2019-02-07T08:20:35.000Z</time>
      </trkpt>
      <trkpt lat="43.61385" lon="6.84803">
        <ele>169</ele>
        <time>2019-02-07T08:20:36.000Z</time>
      </trkpt>
      <trkpt lat="43.61384" lon="6.84802">
        <ele>169</ele>
        <time>2019-02-07T08:20:37.000Z</time>
      </trkpt>
      <trkpt lat="43.61383" lon="6.84802">
        <ele>168</ele>
        <time>2019-02-07T08:20:38.000Z</time>
      </trkpt>
      <trkpt lat="43.61382" lon="6.84802">
        <ele>168</ele>
        <time>2019-02-07T08:20:39.000Z</time>
      </trkpt>
      <trkpt lat="43.61381" lon="6.84801">
        <ele>169</ele>
        <time>2019-02-07T08:20:40.000Z</time>
      </trkpt>
      <trkpt lat="43.61381" lon="6.84801">
        <ele>170</ele>
        <time>2019-02-07T08:20:41.000Z</time>
      </trkpt>
      <trkpt lat="43.6138" lon="6.84801">
        <ele>170</ele>
        <time>2019-02-07T08:20:42.000Z</time>
      </trkpt>
      <trkpt lat="43.6138" lon="6.84801">
        <ele>170</ele>
        <time>2019-02-07T08:20:43.000Z</time>
      </trkpt>
      <trkpt lat="43.61379" lon="6.84802">
        <ele>170</ele>
        <time>2019-02-07T08:20:44.000Z</time>
      </trkpt>
      <trkpt lat="43.61378" lon="6.84802">
        <ele>170</ele>
        <time>2019-02-07T08:20:45.000Z</time>
      </trkpt>
      <trkpt lat="43.61378" lon="6.84801">
        <ele>170</ele>
        <time>2019-02-07T08:20:46.000Z</time>
      </trkpt>
      <trkpt lat="43.61377" lon="6.84801">
        <ele>169</ele>
        <time>2019-02-07T08:20:47.000Z</time>
      </trkpt>
      <trkpt lat="43.61376" lon="6.84801">
        <ele>169</ele>
        <time>2019-02-07T08:20:48.000Z</time>
      </trkpt>
      <trkpt lat="43.61375" lon="6.84801">
        <ele>169</ele>
        <time>2019-02-07T08:20:49.000Z</time>
      </trkpt>
      <trkpt lat="43.61375" lon="6.84801">
        <ele>169</ele>
        <time>2019-02-07T08:20:50.000Z</time>
      </trkpt>
      <trkpt lat="43.61374" lon="6.84801">
        <ele>169</ele>
        <time>2019-02-07T08:20:51.000Z</time>
      </trkpt>
      <trkpt lat="43.61373" lon="6.84801">
        <ele>169</ele>
        <time>2019-02-07T08:20:52.000Z</time>
      </trkpt>
      <trkpt lat="43.61372" lon="6.84802">
        <ele>169</ele>
        <time>2019-02-07T08:20:53.000Z</time>
      </trkpt>
      <trkpt lat="43.61372" lon="6.84802">
        <ele>170</ele>
        <time>2019-02-07T08:20:54.000Z</time>
      </trkpt>
      <trkpt lat="43.61371" lon="6.84802">
        <ele>170</ele>
        <time>2019-02-07T08:20:55.000Z</time>
      </trkpt>
      <trkpt lat="43.61371" lon="6.84802">
        <ele>171</ele>
        <time>2019-02-07T08:20:56.000Z</time>
      </trkpt>
      <trkpt lat="43.6137" lon="6.84803">
        <ele>171</ele>
        <time>2019-02-07T08:20:57.000Z</time>
      </trkpt>
      <trkpt lat="43.6137" lon="6.84803">
        <ele>172</ele>
        <time>2019-02-07T08:20:58.000Z</time>
      </trkpt>
      <trkpt lat="43.6137" lon="6.84804">
        <ele>172</ele>
        <time>2019-02-07T08:20:59.000Z</time>
      </trkpt>
      <trkpt lat="43.6137" lon="6.84805">
        <ele>173</ele>
        <time>2019-02-07T08:21:00.000Z</time>
      </trkpt>
      <trkpt lat="43.61369" lon="6.84806">
        <ele>173</ele>
        <time>2019-02-07T08:21:01.000Z</time>
      </trkpt>
      <trkpt lat="43.61369" lon="6.84806">
        <ele>173</ele>
        <time>2019-02-07T08:21:02.000Z</time>
      </trkpt>
      <trkpt lat="43.61369" lon="6.84807">
        <ele>174</ele>
        <time>2019-02-07T08:21:03.000Z</time>
      </trkpt>
      <trkpt lat="43.61369" lon="6.84807">
        <ele>174</ele>
        <time>2019-02-07T08:21:04.000Z</time>
      </trkpt>
      <trkpt lat="43.61368" lon="6.84808">
        <ele>175</ele>
        <time>2019-02-07T08:21:05.000Z</time>
      </trkpt>
      <trkpt lat="43.61368" lon="6.84808">
        <ele>176</ele>
        <time>2019-02-07T08:21:06.000Z</time>
      </trkpt>
      <trkpt lat="43.61368" lon="6.84809">
        <ele>176</ele>
        <time>2019-02-07T08:21:07.000Z</time>
      </trkpt>
      <trkpt lat="43.61368" lon="6.84809">
        <ele>177</ele>
        <time>2019-02-07T08:21:08.000Z</time>
      </trkpt>
      <trkpt lat="43.61367" lon="6.8481">
        <ele>178</ele>
        <time>2019-02-07T08:21:09.000Z</time>
      </trkpt>
      <trkpt lat="43.61367" lon="6.84811">
        <ele>179</ele>
        <time>2019-02-07T08:21:10.000Z</time>
      </trkpt>
      <trkpt lat="43.61367" lon="6.84811">
        <ele>179</ele>
        <time>2019-02-07T08:21:11.000Z</time>
      </trkpt>
      <trkpt lat="43.61367" lon="6.84811">
        <ele>179</ele>
        <time>2019-02-07T08:21:12.000Z</time>
      </trkpt>
      <trkpt lat="43.61367" lon="6.84812">
        <ele>180</ele>
        <time>2019-02-07T08:21:13.000Z</time>
      </trkpt>
      <trkpt lat="43.61367" lon="6.84812">
        <ele>181</ele>
        <time>2019-02-07T08:21:14.000Z</time>
      </trkpt>
      <trkpt lat="43.61367" lon="6.84812">
        <ele>181</ele>
        <time>2019-02-07T08:21:15.000Z</time>
      </trkpt>
      <trkpt lat="43.61366" lon="6.84812">
        <ele>181</ele>
        <time>2019-02-07T08:21:16.000Z</time>
      </trkpt>
      <trkpt lat="43.61366" lon="6.84813">
        <ele>182</ele>
        <time>2019-02-07T08:21:17.000Z</time>
      </trkpt>
      <trkpt lat="43.61366" lon="6.84813">
        <ele>183</ele>
        <time>2019-02-07T08:21:18.000Z</time>
      </trkpt>
      <trkpt lat="43.61366" lon="6.84813">
        <ele>184</ele>
        <time>2019-02-07T08:21:19.000Z</time>
      </trkpt>
      <trkpt lat="43.61366" lon="6.84814">
        <ele>183</ele>
        <time>2019-02-07T08:21:20.000Z</time>
      </trkpt>
      <trkpt lat="43.61366" lon="6.84814">
        <ele>183</ele>
        <time>2019-02-07T08:21:21.000Z</time>
      </trkpt>
      <trkpt lat="43.61366" lon="6.84814">
        <ele>183</ele>
        <time>2019-02-07T08:21:22.000Z</time>
      </trkpt>
      <trkpt lat="43.61367" lon="6.84814">
        <ele>183</ele>
        <time>2019-02-07T08:21:23.000Z</time>
      </trkpt>
      <trkpt lat="43.61367" lon="6.84814">
        <ele>183</ele>
        <time>2019-02-07T08:21:24.000Z</time>
      </trkpt>
      <trkpt lat="43.61366" lon="6.84814">
        <ele>184</ele>
        <time>2019-02-07T08:21:25.000Z</time>
      </trkpt>
      <trkpt lat="43.61366" lon="6.84814">
        <ele>184</ele>
        <time>2019-02-07T08:21:26.000Z</time>
      </trkpt>
      <trkpt lat="43.61366" lon="6.84815">
        <ele>184</ele>
        <time>2019-02-07T08:21:27.000Z</time>
      </trkpt>
      <trkpt lat="43.61365" lon="6.84815">
        <ele>184</ele>
        <time>2019-02-07T08:21:28.000Z</time>
      </trkpt>
      <trkpt lat="43.61365" lon="6.84815">
        <ele>185</ele>
        <time>2019-02-07T08:21:29.000Z</time>
      </trkpt>
      <trkpt lat="43.61364" lon="6.84816">
        <ele>185</ele>
        <time>2019-02-07T08:21:30.000Z</time>
      </trkpt>
      <trkpt lat="43.61363" lon="6.84816">
        <ele>185</ele>
        <time>2019-02-07T08:21:31.000Z</time>
      </trkpt>
      <trkpt lat="43.61363" lon="6.84817">
        <ele>185</ele>
        <time>2019-02-07T08:21:32.000Z</time>
      </trkpt>
      <trkpt lat="43.61362" lon="6.84817">
        <ele>185</ele>
        <time>2019-02-07T08:21:33.000Z</time>
      </trkpt>
      <trkpt lat="43.61362" lon="6.84818">
        <ele>185</ele>
        <time>2019-02-07T08:21:34.000Z</time>
      </trkpt>
      <trkpt lat="43.61361" lon="6.84818">
        <ele>185</ele>
        <time>2019-02-07T08:21:35.000Z</time>
      </trkpt>
      <trkpt lat="43.61361" lon="6.84819">
        <ele>185</ele>
        <time>2019-02-07T08:21:36.000Z</time>
      </trkpt>
      <trkpt lat="43.6136" lon="6.84819">
        <ele>186</ele>
        <time>2019-02-07T08:21:37.000Z</time>
      </trkpt>
      <trkpt lat="43.6136" lon="6.84819">
        <ele>187</ele>
        <time>2019-02-07T08:21:38.000Z</time>
      </trkpt>
      <trkpt lat="43.6136" lon="6.8482">
        <ele>187</ele>
        <time>2019-02-07T08:21:39.000Z</time>
      </trkpt>
      <trkpt lat="43.6136" lon="6.8482">
        <ele>188</ele>
        <time>2019-02-07T08:21:40.000Z</time>
      </trkpt>
      <trkpt lat="43.6136" lon="6.8482">
        <ele>188</ele>
        <time>2019-02-07T08:21:41.000Z</time>
      </trkpt>
      <trkpt lat="43.61359" lon="6.84821">
        <ele>188</ele>
        <time>2019-02-07T08:21:42.000Z</time>
      </trkpt>
      <trkpt lat="43.61359" lon="6.84821">
        <ele>189</ele>
        <time>2019-02-07T08:21:43.000Z</time>
      </trkpt>
      <trkpt lat="43.61359" lon="6.84822">
        <ele>188</ele>
        <time>2019-02-07T08:21:44.000Z</time>
      </trkpt>
      <trkpt lat="43.61358" lon="6.84822">
        <ele>189</ele>
        <time>2019-02-07T08:21:45.000Z</time>
      </trkpt>
      <trkpt lat="43.61358" lon="6.84822">
        <ele>190</ele>
        <time>2019-02-07T08:21:46.000Z</time>
      </trkpt>
      <trkpt lat="43.61358" lon="6.84822">
        <ele>191</ele>
        <time>2019-02-07T08:21:47.000Z</time>
      </trkpt>
      <trkpt lat="43.61358" lon="6.84822">
        <ele>192</ele>
        <time>2019-02-07T08:21:48.000Z</time>
      </trkpt>
      <trkpt lat="43.61358" lon="6.84822">
        <ele>192</ele>
        <time>2019-02-07T08:21:49.000Z</time>
      </trkpt>
      <trkpt lat="43.61358" lon="6.84822">
        <ele>192</ele>
        <time>2019-02-07T08:21:50.000Z</time>
      </trkpt>
      <trkpt lat="43.61358" lon="6.84822">
        <ele>192</ele>
        <time>2019-02-07T08:21:51.000Z</time>
      </trkpt>
      <trkpt lat="43.61357" lon="6.84822">
        <ele>193</ele>
        <time>2019-02-07T08:21:52.000Z</time>
      </trkpt>
      <trkpt lat="43.61357" lon="6.84823">
        <ele>193</ele>
        <time>2019-02-07T08:21:53.000Z</time>
      </trkpt>
      <trkpt lat="43.61357" lon="6.84823">
        <ele>193</ele>
        <time>2019-02-07T08:21:54.000Z</time>
      </trkpt>
      <trkpt lat="43.61357" lon="6.84824">
        <ele>193</ele>
        <time>2019-02-07T08:21:55.000Z</time>
      </trkpt>
      <trkpt lat="43.61357" lon="6.84825">
        <ele>193</ele>
        <time>2019-02-07T08:21:56.000Z</time>
      </trkpt>
      <trkpt lat="43.61357" lon="6.84826">
        <ele>193</ele>
        <time>2019-02-07T08:21:57.000Z</time>
      </trkpt>
      <trkpt lat="43.61357" lon="6.84826">
        <ele>193</ele>
        <time>2019-02-07T08:21:58.000Z</time>
      </trkpt>
      <trkpt lat="43.61356" lon="6.84827">
        <ele>194</ele>
        <time>2019-02-07T08:21:59.000Z</time>
      </trkpt>
      <trkpt lat="43.61356" lon="6.84827">
        <ele>194</ele>
        <time>2019-02-07T08:22:00.000Z</time>
      </trkpt>
      <trkpt lat="43.61356" lon="6.84827">
        <ele>194</ele>
        <time>2019-02-07T08:22:01.000Z</time>
      </trkpt>
      <trkpt lat="43.61356" lon="6.84828">
        <ele>194</ele>
        <time>2019-02-07T08:22:02.000Z</time>
      </trkpt>
      <trkpt lat="43.61355" lon="6.84828">
        <ele>193</ele>
        <time>2019-02-07T08:22:03.000Z</time>
      </trkpt>
      <trkpt lat="43.61354" lon="6.84828">
        <ele>193</ele>
        <time>2019-02-07T08:22:04.000Z</time>
      </trkpt>
      <trkpt lat="43.61354" lon="6.84829">
        <ele>193</ele>
        <time>2019-02-07T08:22:05.000Z</time>
      </trkpt>
      <trkpt lat="43.61354" lon="6.84829">
        <ele>192</ele>
        <time>2019-02-07T08:22:06.000Z</time>
      </trkpt>
      <trkpt lat="43.61353" lon="6.8483">
        <ele>192</ele>
        <time>2019-02-07T08:22:07.000Z</time>
      </trkpt>
      <trkpt lat="43.61353" lon="6.8483">
        <ele>192</ele>
        <time>2019-02-07T08:22:08.000Z</time>
      </trkpt>
      <trkpt lat="43.61353" lon="6.8483">
        <ele>193</ele>
        <time>2019-02-07T08:22:09.000Z</time>
      </trkpt>
      <trkpt lat="43.61352" lon="6.84831">
        <ele>193</ele>
        <time>2019-02-07T08:22:10.000Z</time>
      </trkpt>
      <trkpt lat="43.61352" lon="6.84831">
        <ele>193</ele>
        <time>2019-02-07T08:22:11.000Z</time>
      </trkpt>
      <trkpt lat="43.61352" lon="6.84831">
        <ele>193</ele>
        <time>2019-02-07T08:22:12.000Z</time>
      </trkpt>
      <trkpt lat="43.61352" lon="6.84831">
        <ele>194</ele>
        <time>2019-02-07T08:22:13.000Z</time>
      </trkpt>
      <trkpt lat="43.61352" lon="6.84832">
        <ele>194</ele>
        <time>2019-02-07T08:22:14.000Z</time>
      </trkpt>
      <trkpt lat="43.61352" lon="6.84832">
        <ele>194</ele>
        <time>2019-02-07T08:22:15.000Z</time>
      </trkpt>
      <trkpt lat="43.61352" lon="6.84833">
        <ele>195</ele>
        <time>2019-02-07T08:22:16.000Z</time>
      </trkpt>
      <trkpt lat="43.61351" lon="6.84833">
        <ele>196</ele>
        <time>2019-02-07T08:22:17.000Z</time>
      </trkpt>
      <trkpt lat="43.61351" lon="6.84834">
        <ele>195</ele>
        <time>2019-02-07T08:22:18.000Z</time>
      </trkpt>
      <trkpt lat="43.61351" lon="6.84834">
        <ele>195</ele>
        <time>2019-02-07T08:22:19.000Z</time>
      </trkpt>
      <trkpt lat="43.6135" lon="6.84835">
        <ele>194</ele>
        <time>2019-02-07T08:22:20.000Z</time>
      </trkpt>
      <trkpt lat="43.6135" lon="6.84835">
        <ele>194</ele>
        <time>2019-02-07T08:22:21.000Z</time>
      </trkpt>
      <trkpt lat="43.6135" lon="6.84836">
        <ele>194</ele>
        <time>2019-02-07T08:22:22.000Z</time>
      </trkpt>
      <trkpt lat="43.6135" lon="6.84837">
        <ele>193</ele>
        <time>2019-02-07T08:22:23.000Z</time>
      </trkpt>
      <trkpt lat="43.61349" lon="6.84837">
        <ele>193</ele>
        <time>2019-02-07T08:22:24.000Z</time>
      </trkpt>
      <trkpt lat="43.61349" lon="6.84838">
        <ele>193</ele>
        <time>2019-02-07T08:22:25.000Z</time>
      </trkpt>
      <trkpt lat="43.61348" lon="6.84838">
        <ele>194</ele>
        <time>2019-02-07T08:22:26.000Z</time>
      </trkpt>
      <trkpt lat="43.61348" lon="6.84839">
        <ele>194</ele>
        <time>2019-02-07T08:22:27.000Z</time>
      </trkpt>
      <trkpt lat="43.61348" lon="6.84839">
        <ele>194</ele>
        <time>2019-02-07T08:22:28.000Z</time>
      </trkpt>
      <trkpt lat="43.61348" lon="6.8484">
        <ele>194</ele>
        <time>2019-02-07T08:22:29.000Z</time>
      </trkpt>
      <trkpt lat="43.61348" lon="6.8484">
        <ele>193</ele>
        <time>2019-02-07T08:22:30.000Z</time>
      </trkpt>
      <trkpt lat="43.61347" lon="6.84841">
        <ele>193</ele>
        <time>2019-02-07T08:22:31.000Z</time>
      </trkpt>
      <trkpt lat="43.61347" lon="6.84842">
        <ele>194</ele>
        <time>2019-02-07T08:22:32.000Z</time>
      </trkpt>
      <trkpt lat="43.61347" lon="6.84843">
        <ele>194</ele>
        <time>2019-02-07T08:22:33.000Z</time>
      </trkpt>
      <trkpt lat="43.61347" lon="6.84843">
        <ele>195</ele>
        <time>2019-02-07T08:22:34.000Z</time>
      </trkpt>
      <trkpt lat="43.61347" lon="6.84844">
        <ele>195</ele>
        <time>2019-02-07T08:22:35.000Z</time>
      </trkpt>
      <trkpt lat="43.61347" lon="6.84844">
        <ele>195</ele>
        <time>2019-02-07T08:22:36.000Z</time>
      </trkpt>
      <trkpt lat="43.61347" lon="6.84845">
        <ele>195</ele>
        <time>2019-02-07T08:22:37.000Z</time>
      </trkpt>
      <trkpt lat="43.61347" lon="6.84846">
        <ele>195</ele>
        <time>2019-02-07T08:22:38.000Z</time>
      </trkpt>
      <trkpt lat="43.61346" lon="6.84846">
        <ele>194</ele>
        <time>2019-02-07T08:22:39.000Z</time>
      </trkpt>
      <trkpt lat="43.61346" lon="6.84846">
        <ele>194</ele>
        <time>2019-02-07T08:22:40.000Z</time>
      </trkpt>
      <trkpt lat="43.61346" lon="6.84847">
        <ele>195</ele>
        <time>2019-02-07T08:22:41.000Z</time>
      </trkpt>
      <trkpt lat="43.61346" lon="6.84847">
        <ele>195</ele>
        <time>2019-02-07T08:22:42.000Z</time>
      </trkpt>
      <trkpt lat="43.61345" lon="6.84847">
        <ele>195</ele>
        <time>2019-02-07T08:22:43.000Z</time>
      </trkpt>
      <trkpt lat="43.61345" lon="6.84847">
        <ele>195</ele>
        <time>2019-02-07T08:22:44.000Z</time>
      </trkpt>
      <trkpt lat="43.61345" lon="6.84848">
        <ele>195</ele>
        <time>2019-02-07T08:22:45.000Z</time>
      </trkpt>
      <trkpt lat="43.61345" lon="6.84848">
        <ele>196</ele>
        <time>2019-02-07T08:22:46.000Z</time>
      </trkpt>
      <trkpt lat="43.61345" lon="6.84849">
        <ele>195</ele>
        <time>2019-02-07T08:22:47.000Z</time>
      </trkpt>
      <trkpt lat="43.61345" lon="6.8485">
        <ele>196</ele>
        <time>2019-02-07T08:22:48.000Z</time>
      </trkpt>
      <trkpt lat="43.61345" lon="6.84851">
        <ele>195</ele>
        <time>2019-02-07T08:22:49.000Z</time>
      </trkpt>
      <trkpt lat="43.61345" lon="6.84851">
        <ele>196</ele>
        <time>2019-02-07T08:22:50.000Z</time>
      </trkpt>
      <trkpt lat="43.61345" lon="6.84852">
        <ele>195</ele>
        <time>2019-02-07T08:22:51.000Z</time>
      </trkpt>
      <trkpt lat="43.61345" lon="6.84853">
        <ele>195</ele>
        <time>2019-02-07T08:22:52.000Z</time>
      </trkpt>
      <trkpt lat="43.61346" lon="6.84854">
        <ele>195</ele>
        <time>2019-02-07T08:22:53.000Z</time>
      </trkpt>
      <trkpt lat="43.61346" lon="6.84855">
        <ele>195</ele>
        <time>2019-02-07T08:22:54.000Z</time>
      </trkpt>
      <trkpt lat="43.61346" lon="6.84856">
        <ele>195</ele>
        <time>2019-02-07T08:22:55.000Z</time>
      </trkpt>
      <trkpt lat="43.61346" lon="6.84857">
        <ele>196</ele>
        <time>2019-02-07T08:22:56.000Z</time>
      </trkpt>
      <trkpt lat="43.61346" lon="6.84858">
        <ele>196</ele>
        <time>2019-02-07T08:22:57.000Z</time>
      </trkpt>
      <trkpt lat="43.61346" lon="6.84859">
        <ele>196</ele>
        <time>2019-02-07T08:22:58.000Z</time>
      </trkpt>
      <trkpt lat="43.61346" lon="6.8486">
        <ele>196</ele>
        <time>2019-02-07T08:22:59.000Z</time>
      </trkpt>
      <trkpt lat="43.61346" lon="6.84861">
        <ele>197</ele>
        <time>2019-02-07T08:23:00.000Z</time>
      </trkpt>
      <trkpt lat="43.61347" lon="6.84862">
        <ele>196</ele>
        <time>2019-02-07T08:23:01.000Z</time>
      </trkpt>
      <trkpt lat="43.61347" lon="6.84864">
        <ele>197</ele>
        <time>2019-02-07T08:23:02.000Z</time>
      </trkpt>
      <trkpt lat="43.61347" lon="6.84865">
        <ele>197</ele>
        <time>2019-02-07T08:23:03.000Z</time>
      </trkpt>
      <trkpt lat="43.61347" lon="6.84866">
        <ele>196</ele>
        <time>2019-02-07T08:23:04.000Z</time>
      </trkpt>
      <trkpt lat="43.61346" lon="6.84867">
        <ele>197</ele>
        <time>2019-02-07T08:23:05.000Z</time>
      </trkpt>
      <trkpt lat="43.61346" lon="6.84868">
        <ele>197</ele>
        <time>2019-02-07T08:23:06.000Z</time>
      </trkpt>
      <trkpt lat="43.61346" lon="6.8487">
        <ele>196</ele>
        <time>2019-02-07T08:23:07.000Z</time>
      </trkpt>
      <trkpt lat="43.61346" lon="6.84871">
        <ele>195</ele>
        <time>2019-02-07T08:23:08.000Z</time>
      </trkpt>
      <trkpt lat="43.61346" lon="6.84872">
        <ele>196</ele>
        <time>2019-02-07T08:23:09.000Z</time>
      </trkpt>
      <trkpt lat="43.61346" lon="6.84873">
        <ele>196</ele>
        <time>2019-02-07T08:23:10.000Z</time>
      </trkpt>
      <trkpt lat="43.61346" lon="6.84874">
        <ele>198</ele>
        <time>2019-02-07T08:23:11.000Z</time>
      </trkpt>
      <trkpt lat="43.61347" lon="6.84875">
        <ele>198</ele>
        <time>2019-02-07T08:23:12.000Z</time>
      </trkpt>
      <trkpt lat="43.61347" lon="6.84876">
        <ele>198</ele>
        <time>2019-02-07T08:23:13.000Z</time>
      </trkpt>
      <trkpt lat="43.61347" lon="6.84877">
        <ele>198</ele>
        <time>2019-02-07T08:23:14.000Z</time>
      </trkpt>
      <trkpt lat="43.61347" lon="6.84878">
        <ele>198</ele>
        <time>2019-02-07T08:23:15.000Z</time>
      </trkpt>
      <trkpt lat="43.61347" lon="6.84879">
        <ele>199</ele>
        <time>2019-02-07T08:23:16.000Z</time>
      </trkpt>
      <trkpt lat="43.61346" lon="6.8488">
        <ele>199</ele>
        <time>2019-02-07T08:23:17.000Z</time>
      </trkpt>
      <trkpt lat="43.61346" lon="6.84881">
        <ele>199</ele>
        <time>2019-02-07T08:23:18.000Z</time>
      </trkpt>
      <trkpt lat="43.61346" lon="6.84882">
        <ele>200</ele>
        <time>2019-02-07T08:23:19.000Z</time>
      </trkpt>
      <trkpt lat="43.61346" lon="6.84884">
        <ele>200</ele>
        <time>2019-02-07T08:23:20.000Z</time>
      </trkpt>
      <trkpt lat="43.61346" lon="6.84884">
        <ele>200</ele>
        <time>2019-02-07T08:23:21.000Z</time>
      </trkpt>
      <trkpt lat="43.61346" lon="6.84885">
        <ele>201</ele>
        <time>2019-02-07T08:23:22.000Z</time>
      </trkpt>
      <trkpt lat="43.61346" lon="6.84886">
        <ele>201</ele>
        <time>2019-02-07T08:23:23.000Z</time>
      </trkpt>
      <trkpt lat="43.61346" lon="6.84887">
        <ele>201</ele>
        <time>2019-02-07T08:23:24.000Z</time>
      </trkpt>
      <trkpt lat="43.61346" lon="6.84888">
        <ele>201</ele>
        <time>2019-02-07T08:23:25.000Z</time>
      </trkpt>
      <trkpt lat="43.61346" lon="6.8489">
        <ele>201</ele>
        <time>2019-02-07T08:23:26.000Z</time>
      </trkpt>
      <trkpt lat="43.61347" lon="6.84891">
        <ele>200</ele>
        <time>2019-02-07T08:23:27.000Z</time>
      </trkpt>
      <trkpt lat="43.61347" lon="6.84892">
        <ele>200</ele>
        <time>2019-02-07T08:23:28.000Z</time>
      </trkpt>
      <trkpt lat="43.61347" lon="6.84893">
        <ele>201</ele>
        <time>2019-02-07T08:23:29.000Z</time>
      </trkpt>
      <trkpt lat="43.61347" lon="6.84894">
        <ele>200</ele>
        <time>2019-02-07T08:23:30.000Z</time>
      </trkpt>
      <trkpt lat="43.61347" lon="6.84895">
        <ele>200</ele>
        <time>2019-02-07T08:23:31.000Z</time>
      </trkpt>
      <trkpt lat="43.61347" lon="6.84896">
        <ele>200</ele>
        <time>2019-02-07T08:23:32.000Z</time>
      </trkpt>
      <trkpt lat="43.61347" lon="6.84897">
        <ele>201</ele>
        <time>2019-02-07T08:23:33.000Z</time>
      </trkpt>
      <trkpt lat="43.61346" lon="6.84898">
        <ele>201</ele>
        <time>2019-02-07T08:23:34.000Z</time>
      </trkpt>
      <trkpt lat="43.61346" lon="6.849">
        <ele>201</ele>
        <time>2019-02-07T08:23:35.000Z</time>
      </trkpt>
      <trkpt lat="43.61346" lon="6.84901">
        <ele>202</ele>
        <time>2019-02-07T08:23:36.000Z</time>
      </trkpt>
      <trkpt lat="43.61346" lon="6.84902">
        <ele>203</ele>
        <time>2019-02-07T08:23:37.000Z</time>
      </trkpt>
      <trkpt lat="43.61346" lon="6.84902">
        <ele>203</ele>
        <time>2019-02-07T08:23:38.000Z</time>
      </trkpt>
      <trkpt lat="43.61346" lon="6.84903">
        <ele>203</ele>
        <time>2019-02-07T08:23:39.000Z</time>
      </trkpt>
      <trkpt lat="43.61346" lon="6.84904">
        <ele>203</ele>
        <time>2019-02-07T08:23:40.000Z</time>
      </trkpt>
      <trkpt lat="43.61346" lon="6.84904">
        <ele>204</ele>
        <time>2019-02-07T08:23:41.000Z</time>
      </trkpt>
      <trkpt lat="43.61346" lon="6.84905">
        <ele>204</ele>
        <time>2019-02-07T08:23:42.000Z</time>
      </trkpt>
      <trkpt lat="43.61346" lon="6.84906">
        <ele>205</ele>
        <time>2019-02-07T08:23:43.000Z</time>
      </trkpt>
      <trkpt lat="43.61346" lon="6.84906">
        <ele>205</ele>
        <time>2019-02-07T08:23:44.000Z</time>
      </trkpt>
      <trkpt lat="43.61346" lon="6.84907">
        <ele>205</ele>
        <time>2019-02-07T08:23:45.000Z</time>
      </trkpt>
      <trkpt lat="43.61346" lon="6.84908">
        <ele>206</ele>
        <time>2019-02-07T08:23:46.000Z</time>
      </trkpt>
      <trkpt lat="43.61346" lon="6.84909">
        <ele>206</ele>
        <time>2019-02-07T08:23:47.000Z</time>
      </trkpt>
      <trkpt lat="43.61347" lon="6.8491">
        <ele>207</ele>
        <time>2019-02-07T08:23:48.000Z</time>
      </trkpt>
      <trkpt lat="43.61347" lon="6.84911">
        <ele>207</ele>
        <time>2019-02-07T08:23:49.000Z</time>
      </trkpt>
      <trkpt lat="43.61346" lon="6.84912">
        <ele>207</ele>
        <time>2019-02-07T08:23:50.000Z</time>
      </trkpt>
      <trkpt lat="43.61346" lon="6.84913">
        <ele>208</ele>
        <time>2019-02-07T08:23:51.000Z</time>
      </trkpt>
      <trkpt lat="43.61346" lon="6.84914">
        <ele>208</ele>
        <time>2019-02-07T08:23:52.000Z</time>
      </trkpt>
      <trkpt lat="43.61346" lon="6.84915">
        <ele>208</ele>
        <time>2019-02-07T08:23:53.000Z</time>
      </trkpt>
      <trkpt lat="43.61346" lon="6.84916">
        <ele>208</ele>
        <time>2019-02-07T08:23:54.000Z</time>
      </trkpt>
      <trkpt lat="43.61346" lon="6.84917">
        <ele>208</ele>
        <time>2019-02-07T08:23:55.000Z</time>
      </trkpt>
      <trkpt lat="43.61346" lon="6.84917">
        <ele>209</ele>
        <time>2019-02-07T08:23:56.000Z</time>
      </trkpt>
      <trkpt lat="43.61346" lon="6.84918">
        <ele>209</ele>
        <time>2019-02-07T08:23:57.000Z</time>
      </trkpt>
      <trkpt lat="43.61346" lon="6.8492">
        <ele>209</ele>
        <time>2019-02-07T08:23:58.000Z</time>
      </trkpt>
      <trkpt lat="43.61346" lon="6.8492">
        <ele>209</ele>
        <time>2019-02-07T08:23:59.000Z</time>
      </trkpt>
      <trkpt lat="43.61346" lon="6.84921">
        <ele>209</ele>
        <time>2019-02-07T08:24:00.000Z</time>
      </trkpt>
      <trkpt lat="43.61346" lon="6.84923">
        <ele>210</ele>
        <time>2019-02-07T08:24:01.000Z</time>
      </trkpt>
      <trkpt lat="43.61346" lon="6.84924">
        <ele>210</ele>
        <time>2019-02-07T08:24:02.000Z</time>
      </trkpt>
      <trkpt lat="43.61346" lon="6.84925">
        <ele>211</ele>
        <time>2019-02-07T08:24:03.000Z</time>
      </trkpt>
      <trkpt lat="43.61346" lon="6.84926">
        <ele>212</ele>
        <time>2019-02-07T08:24:04.000Z</time>
      </trkpt>
      <trkpt lat="43.61345" lon="6.84928">
        <ele>211</ele>
        <time>2019-02-07T08:24:05.000Z</time>
      </trkpt>
      <trkpt lat="43.61345" lon="6.84929">
        <ele>211</ele>
        <time>2019-02-07T08:24:06.000Z</time>
      </trkpt>
      <trkpt lat="43.61345" lon="6.8493">
        <ele>211</ele>
        <time>2019-02-07T08:24:07.000Z</time>
      </trkpt>
      <trkpt lat="43.61345" lon="6.84932">
        <ele>212</ele>
        <time>2019-02-07T08:24:08.000Z</time>
      </trkpt>
      <trkpt lat="43.61345" lon="6.84933">
        <ele>212</ele>
        <time>2019-02-07T08:24:09.000Z</time>
      </trkpt>
      <trkpt lat="43.61345" lon="6.84934">
        <ele>212</ele>
        <time>2019-02-07T08:24:10.000Z</time>
      </trkpt>
      <trkpt lat="43.61345" lon="6.84935">
        <ele>212</ele>
        <time>2019-02-07T08:24:11.000Z</time>
      </trkpt>
      <trkpt lat="43.61344" lon="6.84937">
        <ele>211</ele>
        <time>2019-02-07T08:24:12.000Z</time>
      </trkpt>
      <trkpt lat="43.61344" lon="6.84938">
        <ele>211</ele>
        <time>2019-02-07T08:24:13.000Z</time>
      </trkpt>
      <trkpt lat="43.61344" lon="6.8494">
        <ele>212</ele>
        <time>2019-02-07T08:24:14.000Z</time>
      </trkpt>
      <trkpt lat="43.61344" lon="6.84941">
        <ele>212</ele>
        <time>2019-02-07T08:24:15.000Z</time>
      </trkpt>
      <trkpt lat="43.61344" lon="6.84942">
        <ele>211</ele>
        <time>2019-02-07T08:24:16.000Z</time>
      </trkpt>
      <trkpt lat="43.61344" lon="6.84942">
        <ele>212</ele>
        <time>2019-02-07T08:24:17.000Z</time>
      </trkpt>
      <trkpt lat="43.61344" lon="6.84943">
        <ele>212</ele>
        <time>2019-02-07T08:24:18.000Z</time>
      </trkpt>
      <trkpt lat="43.61344" lon="6.84943">
        <ele>212</ele>
        <time>2019-02-07T08:24:19.000Z</time>
      </trkpt>
      <trkpt lat="43.61343" lon="6.84943">
        <ele>212</ele>
        <time>2019-02-07T08:24:20.000Z</time>
      </trkpt>
      <trkpt lat="43.61343" lon="6.84943">
        <ele>213</ele>
        <time>2019-02-07T08:24:21.000Z</time>
      </trkpt>
      <trkpt lat="43.61343" lon="6.84944">
        <ele>212</ele>
        <time>2019-02-07T08:24:22.000Z</time>
      </trkpt>
      <trkpt lat="43.61343" lon="6.84944">
        <ele>213</ele>
        <time>2019-02-07T08:24:23.000Z</time>
      </trkpt>
      <trkpt lat="43.61342" lon="6.84944">
        <ele>214</ele>
        <time>2019-02-07T08:24:24.000Z</time>
      </trkpt>
      <trkpt lat="43.61342" lon="6.84944">
        <ele>214</ele>
        <time>2019-02-07T08:24:25.000Z</time>
      </trkpt>
      <trkpt lat="43.61342" lon="6.84944">
        <ele>213</ele>
        <time>2019-02-07T08:24:26.000Z</time>
      </trkpt>
      <trkpt lat="43.61342" lon="6.84944">
        <ele>213</ele>
        <time>2019-02-07T08:24:27.000Z</time>
      </trkpt>
      <trkpt lat="43.61342" lon="6.84944">
        <ele>212</ele>
        <time>2019-02-07T08:24:28.000Z</time>
      </trkpt>
      <trkpt lat="43.61342" lon="6.84944">
        <ele>212</ele>
        <time>2019-02-07T08:24:29.000Z</time>
      </trkpt>
      <trkpt lat="43.61342" lon="6.84944">
        <ele>212</ele>
        <time>2019-02-07T08:24:30.000Z</time>
      </trkpt>
      <trkpt lat="43.61342" lon="6.84944">
        <ele>213</ele>
        <time>2019-02-07T08:24:31.000Z</time>
      </trkpt>
      <trkpt lat="43.61342" lon="6.84944">
        <ele>214</ele>
        <time>2019-02-07T08:24:32.000Z</time>
      </trkpt>
      <trkpt lat="43.61343" lon="6.84944">
        <ele>214</ele>
        <time>2019-02-07T08:24:33.000Z</time>
      </trkpt>
      <trkpt lat="43.61343" lon="6.84944">
        <ele>214</ele>
        <time>2019-02-07T08:24:34.000Z</time>
      </trkpt>
      <trkpt lat="43.61343" lon="6.84944">
        <ele>214</ele>
        <time>2019-02-07T08:24:35.000Z</time>
      </trkpt>
      <trkpt lat="43.61343" lon="6.84944">
        <ele>213</ele>
        <time>2019-02-07T08:24:36.000Z</time>
      </trkpt>
      <trkpt lat="43.61343" lon="6.84945">
        <ele>213</ele>
        <time>2019-02-07T08:24:37.000Z</time>
      </trkpt>
      <trkpt lat="43.61343" lon="6.84945">
        <ele>213</ele>
        <time>2019-02-07T08:24:38.000Z</time>
      </trkpt>
      <trkpt lat="43.61343" lon="6.84945">
        <ele>212</ele>
        <time>2019-02-07T08:24:39.000Z</time>
      </trkpt>
      <trkpt lat="43.61342" lon="6.84945">
        <ele>212</ele>
        <time>2019-02-07T08:24:40.000Z</time>
      </trkpt>
      <trkpt lat="43.61342" lon="6.84945">
        <ele>212</ele>
        <time>2019-02-07T08:24:41.000Z</time>
      </trkpt>
      <trkpt lat="43.61342" lon="6.84945">
        <ele>212</ele>
        <time>2019-02-07T08:24:42.000Z</time>
      </trkpt>
      <trkpt lat="43.61342" lon="6.84945">
        <ele>212</ele>
        <time>2019-02-07T08:24:43.000Z</time>
      </trkpt>
      <trkpt lat="43.61342" lon="6.84944">
        <ele>212</ele>
        <time>2019-02-07T08:24:44.000Z</time>
      </trkpt>
      <trkpt lat="43.61342" lon="6.84944">
        <ele>212</ele>
        <time>2019-02-07T08:24:45.000Z</time>
      </trkpt>
      <trkpt lat="43.61342" lon="6.84944">
        <ele>212</ele>
        <time>2019-02-07T08:24:46.000Z</time>
      </trkpt>
      <trkpt lat="43.61342" lon="6.84944">
        <ele>213</ele>
        <time>2019-02-07T08:24:47.000Z</time>
      </trkpt>
      <trkpt lat="43.61342" lon="6.84944">
        <ele>213</ele>
        <time>2019-02-07T08:24:48.000Z</time>
      </trkpt>
      <trkpt lat="43.61342" lon="6.84944">
        <ele>213</ele>
        <time>2019-02-07T08:24:49.000Z</time>
      </trkpt>
      <trkpt lat="43.61342" lon="6.84944">
        <ele>214</ele>
        <time>2019-02-07T08:24:50.000Z</time>
      </trkpt>
      <trkpt lat="43.61342" lon="6.84944">
        <ele>214</ele>
        <time>2019-02-07T08:24:51.000Z</time>
      </trkpt>
      <trkpt lat="43.61342" lon="6.84944">
        <ele>213</ele>
        <time>2019-02-07T08:24:52.000Z</time>
      </trkpt>
      <trkpt lat="43.61342" lon="6.84944">
        <ele>213</ele>
        <time>2019-02-07T08:24:53.000Z</time>
      </trkpt>
      <trkpt lat="43.61342" lon="6.84944">
        <ele>213</ele>
        <time>2019-02-07T08:24:54.000Z</time>
      </trkpt>
      <trkpt lat="43.61342" lon="6.84944">
        <ele>213</ele>
        <time>2019-02-07T08:24:55.000Z</time>
      </trkpt>
      <trkpt lat="43.61341" lon="6.84945">
        <ele>214</ele>
        <time>2019-02-07T08:24:56.000Z</time>
      </trkpt>
      <trkpt lat="43.61341" lon="6.84945">
        <ele>213</ele>
        <time>2019-02-07T08:24:57.000Z</time>
      </trkpt>
      <trkpt lat="43.61341" lon="6.84945">
        <ele>214</ele>
        <time>2019-02-07T08:24:58.000Z</time>
      </trkpt>
      <trkpt lat="43.61341" lon="6.84945">
        <ele>214</ele>
        <time>2019-02-07T08:24:59.000Z</time>
      </trkpt>
      <trkpt lat="43.61341" lon="6.84945">
        <ele>214</ele>
        <time>2019-02-07T08:25:00.000Z</time>
      </trkpt>
      <trkpt lat="43.61341" lon="6.84945">
        <ele>214</ele>
        <time>2019-02-07T08:25:01.000Z</time>
      </trkpt>
      <trkpt lat="43.6134" lon="6.84945">
        <ele>214</ele>
        <time>2019-02-07T08:25:02.000Z</time>
      </trkpt>
      <trkpt lat="43.6134" lon="6.84945">
        <ele>214</ele>
        <time>2019-02-07T08:25:03.000Z</time>
      </trkpt>
      <trkpt lat="43.61341" lon="6.84945">
        <ele>214</ele>
        <time>2019-02-07T08:25:04.000Z</time>
      </trkpt>
      <trkpt lat="43.61341" lon="6.84945">
        <ele>214</ele>
        <time>2019-02-07T08:25:05.000Z</time>
      </trkpt>
      <trkpt lat="43.61341" lon="6.84945">
        <ele>214</ele>
        <time>2019-02-07T08:25:06.000Z</time>
      </trkpt>
      <trkpt lat="43.61341" lon="6.84945">
        <ele>213</ele>
        <time>2019-02-07T08:25:07.000Z</time>
      </trkpt>
      <trkpt lat="43.61341" lon="6.84945">
        <ele>213</ele>
        <time>2019-02-07T08:25:08.000Z</time>
      </trkpt>
      <trkpt lat="43.61341" lon="6.84945">
        <ele>213</ele>
        <time>2019-02-07T08:25:09.000Z</time>
      </trkpt>
      <trkpt lat="43.61341" lon="6.84945">
        <ele>213</ele>
        <time>2019-02-07T08:25:10.000Z</time>
      </trkpt>
      <trkpt lat="43.61341" lon="6.84945">
        <ele>213</ele>
        <time>2019-02-07T08:25:11.000Z</time>
      </trkpt>
      <trkpt lat="43.61341" lon="6.84945">
        <ele>213</ele>
        <time>2019-02-07T08:25:12.000Z</time>
      </trkpt>
      <trkpt lat="43.61341" lon="6.84945">
        <ele>213</ele>
        <time>2019-02-07T08:25:13.000Z</time>
      </trkpt>
      <trkpt lat="43.61341" lon="6.84945">
        <ele>213</ele>
        <time>2019-02-07T08:25:14.000Z</time>
      </trkpt>
      <trkpt lat="43.61341" lon="6.84945">
        <ele>212</ele>
        <time>2019-02-07T08:25:15.000Z</time>
      </trkpt>
      <trkpt lat="43.61341" lon="6.84945">
        <ele>212</ele>
        <time>2019-02-07T08:25:16.000Z</time>
      </trkpt>
      <trkpt lat="43.61341" lon="6.84945">
        <ele>212</ele>
        <time>2019-02-07T08:25:17.000Z</time>
      </trkpt>
      <trkpt lat="43.61341" lon="6.84945">
        <ele>211</ele>
        <time>2019-02-07T08:25:18.000Z</time>
      </trkpt>
      <trkpt lat="43.61341" lon="6.84945">
        <ele>211</ele>
        <time>2019-02-07T08:25:19.000Z</time>
      </trkpt>
      <trkpt lat="43.61341" lon="6.84945">
        <ele>211</ele>
        <time>2019-02-07T08:25:20.000Z</time>
      </trkpt>
      <trkpt lat="43.6134" lon="6.84945">
        <ele>211</ele>
        <time>2019-02-07T08:25:21.000Z</time>
      </trkpt>
      <trkpt lat="43.6134" lon="6.84945">
        <ele>211</ele>
        <time>2019-02-07T08:25:22.000Z</time>
      </trkpt>
      <trkpt lat="43.6134" lon="6.84946">
        <ele>210</ele>
        <time>2019-02-07T08:25:23.000Z</time>
      </trkpt>
      <trkpt lat="43.6134" lon="6.84946">
        <ele>210</ele>
        <time>2019-02-07T08:25:24.000Z</time>
      </trkpt>
      <trkpt lat="43.6134" lon="6.84946">
        <ele>210</ele>
        <time>2019-02-07T08:25:25.000Z</time>
      </trkpt>
      <trkpt lat="43.61339" lon="6.84946">
        <ele>210</ele>
        <time>2019-02-07T08:25:26.000Z</time>
      </trkpt>
      <trkpt lat="43.61339" lon="6.84946">
        <ele>210</ele>
        <time>2019-02-07T08:25:27.000Z</time>
      </trkpt>
      <trkpt lat="43.61339" lon="6.84945">
        <ele>210</ele>
        <time>2019-02-07T08:25:28.000Z</time>
      </trkpt>
      <trkpt lat="43.61339" lon="6.84945">
        <ele>210</ele>
        <time>2019-02-07T08:25:29.000Z</time>
      </trkpt>
      <trkpt lat="43.61338" lon="6.84945">
        <ele>209</ele>
        <time>2019-02-07T08:25:30.000Z</time>
      </trkpt>
      <trkpt lat="43.61338" lon="6.84944">
        <ele>208</ele>
        <time>2019-02-07T08:25:31.000Z</time>
      </trkpt>
      <trkpt lat="43.61337" lon="6.84943">
        <ele>208</ele>
        <time>2019-02-07T08:25:32.000Z</time>
      </trkpt>
      <trkpt lat="43.61337" lon="6.84942">
        <ele>207</ele>
        <time>2019-02-07T08:25:33.000Z</time>
      </trkpt>
      <trkpt lat="43.61336" lon="6.8494">
        <ele>207</ele>
        <time>2019-02-07T08:25:34.000Z</time>
      </trkpt>
      <trkpt lat="43.61335" lon="6.84937">
        <ele>207</ele>
        <time>2019-02-07T08:25:35.000Z</time>
      </trkpt>
      <trkpt lat="43.61335" lon="6.84935">
        <ele>207</ele>
        <time>2019-02-07T08:25:36.000Z</time>
      </trkpt>
      <trkpt lat="43.61335" lon="6.84933">
        <ele>206</ele>
        <time>2019-02-07T08:25:37.000Z</time>
      </trkpt>
      <trkpt lat="43.61334" lon="6.8493">
        <ele>206</ele>
        <time>2019-02-07T08:25:38.000Z</time>
      </trkpt>
      <trkpt lat="43.61334" lon="6.84928">
        <ele>205</ele>
        <time>2019-02-07T08:25:39.000Z</time>
      </trkpt>
      <trkpt lat="43.61333" lon="6.84926">
        <ele>205</ele>
        <time>2019-02-07T08:25:40.000Z</time>
      </trkpt>
      <trkpt lat="43.61333" lon="6.84924">
        <ele>204</ele>
        <time>2019-02-07T08:25:41.000Z</time>
      </trkpt>
      <trkpt lat="43.61333" lon="6.84921">
        <ele>204</ele>
        <time>2019-02-07T08:25:42.000Z</time>
      </trkpt>
      <trkpt lat="43.61333" lon="6.84919">
        <ele>203</ele>
        <time>2019-02-07T08:25:43.000Z</time>
      </trkpt>
      <trkpt lat="43.61333" lon="6.84917">
        <ele>202</ele>
        <time>2019-02-07T08:25:44.000Z</time>
      </trkpt>
      <trkpt lat="43.61333" lon="6.84914">
        <ele>202</ele>
        <time>2019-02-07T08:25:45.000Z</time>
      </trkpt>
      <trkpt lat="43.61333" lon="6.84912">
        <ele>201</ele>
        <time>2019-02-07T08:25:46.000Z</time>
      </trkpt>
      <trkpt lat="43.61333" lon="6.8491">
        <ele>200</ele>
        <time>2019-02-07T08:25:47.000Z</time>
      </trkpt>
      <trkpt lat="43.61332" lon="6.84907">
        <ele>199</ele>
        <time>2019-02-07T08:25:48.000Z</time>
      </trkpt>
      <trkpt lat="43.61332" lon="6.84904">
        <ele>198</ele>
        <time>2019-02-07T08:25:49.000Z</time>
      </trkpt>
      <trkpt lat="43.61332" lon="6.84902">
        <ele>198</ele>
        <time>2019-02-07T08:25:50.000Z</time>
      </trkpt>
      <trkpt lat="43.61332" lon="6.84899">
        <ele>197</ele>
        <time>2019-02-07T08:25:51.000Z</time>
      </trkpt>
      <trkpt lat="43.61331" lon="6.84897">
        <ele>197</ele>
        <time>2019-02-07T08:25:52.000Z</time>
      </trkpt>
      <trkpt lat="43.61332" lon="6.84895">
        <ele>197</ele>
        <time>2019-02-07T08:25:53.000Z</time>
      </trkpt>
      <trkpt lat="43.61332" lon="6.84894">
        <ele>197</ele>
        <time>2019-02-07T08:25:54.000Z</time>
      </trkpt>
      <trkpt lat="43.61332" lon="6.84892">
        <ele>197</ele>
        <time>2019-02-07T08:25:55.000Z</time>
      </trkpt>
      <trkpt lat="43.61332" lon="6.8489">
        <ele>197</ele>
        <time>2019-02-07T08:25:56.000Z</time>
      </trkpt>
      <trkpt lat="43.61332" lon="6.84888">
        <ele>196</ele>
        <time>2019-02-07T08:25:57.000Z</time>
      </trkpt>
      <trkpt lat="43.61333" lon="6.84886">
        <ele>195</ele>
        <time>2019-02-07T08:25:58.000Z</time>
      </trkpt>
      <trkpt lat="43.61333" lon="6.84884">
        <ele>194</ele>
        <time>2019-02-07T08:25:59.000Z</time>
      </trkpt>
      <trkpt lat="43.61333" lon="6.84883">
        <ele>194</ele>
        <time>2019-02-07T08:26:00.000Z</time>
      </trkpt>
      <trkpt lat="43.61334" lon="6.84881">
        <ele>193</ele>
        <time>2019-02-07T08:26:01.000Z</time>
      </trkpt>
      <trkpt lat="43.61334" lon="6.84879">
        <ele>194</ele>
        <time>2019-02-07T08:26:02.000Z</time>
      </trkpt>
      <trkpt lat="43.61335" lon="6.84877">
        <ele>193</ele>
        <time>2019-02-07T08:26:03.000Z</time>
      </trkpt>
      <trkpt lat="43.61335" lon="6.84875">
        <ele>193</ele>
        <time>2019-02-07T08:26:04.000Z</time>
      </trkpt>
      <trkpt lat="43.61335" lon="6.84873">
        <ele>193</ele>
        <time>2019-02-07T08:26:05.000Z</time>
      </trkpt>
      <trkpt lat="43.61336" lon="6.84871">
        <ele>192</ele>
        <time>2019-02-07T08:26:06.000Z</time>
      </trkpt>
      <trkpt lat="43.61336" lon="6.84869">
        <ele>192</ele>
        <time>2019-02-07T08:26:07.000Z</time>
      </trkpt>
      <trkpt lat="43.61336" lon="6.84867">
        <ele>191</ele>
        <time>2019-02-07T08:26:08.000Z</time>
      </trkpt>
      <trkpt lat="43.61336" lon="6.84865">
        <ele>191</ele>
        <time>2019-02-07T08:26:09.000Z</time>
      </trkpt>
      <trkpt lat="43.61337" lon="6.84863">
        <ele>190</ele>
        <time>2019-02-07T08:26:10.000Z</time>
      </trkpt>
      <trkpt lat="43.61336" lon="6.8486">
        <ele>188</ele>
        <time>2019-02-07T08:26:11.000Z</time>
      </trkpt>
      <trkpt lat="43.61336" lon="6.84858">
        <ele>187</ele>
        <time>2019-02-07T08:26:12.000Z</time>
      </trkpt>
      <trkpt lat="43.61336" lon="6.84855">
        <ele>187</ele>
        <time>2019-02-07T08:26:13.000Z</time>
      </trkpt>
      <trkpt lat="43.61335" lon="6.84853">
        <ele>186</ele>
        <time>2019-02-07T08:26:14.000Z</time>
      </trkpt>
      <trkpt lat="43.61335" lon="6.84852">
        <ele>186</ele>
        <time>2019-02-07T08:26:15.000Z</time>
      </trkpt>
      <trkpt lat="43.61335" lon="6.8485">
        <ele>185</ele>
        <time>2019-02-07T08:26:16.000Z</time>
      </trkpt>
      <trkpt lat="43.61335" lon="6.84848">
        <ele>184</ele>
        <time>2019-02-07T08:26:17.000Z</time>
      </trkpt>
      <trkpt lat="43.61335" lon="6.84846">
        <ele>184</ele>
        <time>2019-02-07T08:26:18.000Z</time>
      </trkpt>
      <trkpt lat="43.61335" lon="6.84845">
        <ele>183</ele>
        <time>2019-02-07T08:26:19.000Z</time>
      </trkpt>
      <trkpt lat="43.61335" lon="6.84843">
        <ele>184</ele>
        <time>2019-02-07T08:26:20.000Z</time>
      </trkpt>
      <trkpt lat="43.61335" lon="6.84841">
        <ele>183</ele>
        <time>2019-02-07T08:26:21.000Z</time>
      </trkpt>
      <trkpt lat="43.61335" lon="6.84839">
        <ele>182</ele>
        <time>2019-02-07T08:26:22.000Z</time>
      </trkpt>
      <trkpt lat="43.61334" lon="6.84837">
        <ele>181</ele>
        <time>2019-02-07T08:26:23.000Z</time>
      </trkpt>
      <trkpt lat="43.61334" lon="6.84835">
        <ele>180</ele>
        <time>2019-02-07T08:26:24.000Z</time>
      </trkpt>
      <trkpt lat="43.61334" lon="6.84833">
        <ele>179</ele>
        <time>2019-02-07T08:26:25.000Z</time>
      </trkpt>
      <trkpt lat="43.61333" lon="6.84832">
        <ele>178</ele>
        <time>2019-02-07T08:26:26.000Z</time>
      </trkpt>
      <trkpt lat="43.61332" lon="6.8483">
        <ele>178</ele>
        <time>2019-02-07T08:26:27.000Z</time>
      </trkpt>
      <trkpt lat="43.61332" lon="6.84828">
        <ele>178</ele>
        <time>2019-02-07T08:26:28.000Z</time>
      </trkpt>
      <trkpt lat="43.61332" lon="6.84826">
        <ele>178</ele>
        <time>2019-02-07T08:26:29.000Z</time>
      </trkpt>
      <trkpt lat="43.61332" lon="6.84824">
        <ele>178</ele>
        <time>2019-02-07T08:26:30.000Z</time>
      </trkpt>
      <trkpt lat="43.61331" lon="6.84823">
        <ele>178</ele>
        <time>2019-02-07T08:26:31.000Z</time>
      </trkpt>
      <trkpt lat="43.61331" lon="6.84821">
        <ele>179</ele>
        <time>2019-02-07T08:26:32.000Z</time>
      </trkpt>
      <trkpt lat="43.61331" lon="6.84819">
        <ele>178</ele>
        <time>2019-02-07T08:26:33.000Z</time>
      </trkpt>
      <trkpt lat="43.6133" lon="6.84817">
        <ele>177</ele>
        <time>2019-02-07T08:26:34.000Z</time>
      </trkpt>
      <trkpt lat="43.6133" lon="6.84816">
        <ele>177</ele>
        <time>2019-02-07T08:26:35.000Z</time>
      </trkpt>
      <trkpt lat="43.6133" lon="6.84814">
        <ele>176</ele>
        <time>2019-02-07T08:26:36.000Z</time>
      </trkpt>
      <trkpt lat="43.6133" lon="6.84812">
        <ele>175</ele>
        <time>2019-02-07T08:26:37.000Z</time>
      </trkpt>
      <trkpt lat="43.61329" lon="6.84811">
        <ele>174</ele>
        <time>2019-02-07T08:26:38.000Z</time>
      </trkpt>
      <trkpt lat="43.61329" lon="6.84809">
        <ele>174</ele>
        <time>2019-02-07T08:26:39.000Z</time>
      </trkpt>
      <trkpt lat="43.61328" lon="6.84807">
        <ele>175</ele>
        <time>2019-02-07T08:26:40.000Z</time>
      </trkpt>
      <trkpt lat="43.61328" lon="6.84805">
        <ele>174</ele>
        <time>2019-02-07T08:26:41.000Z</time>
      </trkpt>
      <trkpt lat="43.61327" lon="6.84803">
        <ele>173</ele>
        <time>2019-02-07T08:26:42.000Z</time>
      </trkpt>
      <trkpt lat="43.61327" lon="6.84801">
        <ele>173</ele>
        <time>2019-02-07T08:26:43.000Z</time>
      </trkpt>
      <trkpt lat="43.61327" lon="6.84799">
        <ele>174</ele>
        <time>2019-02-07T08:26:44.000Z</time>
      </trkpt>
      <trkpt lat="43.61326" lon="6.84798">
        <ele>173</ele>
        <time>2019-02-07T08:26:45.000Z</time>
      </trkpt>
      <trkpt lat="43.61326" lon="6.84796">
        <ele>172</ele>
        <time>2019-02-07T08:26:46.000Z</time>
      </trkpt>
      <trkpt lat="43.61326" lon="6.84794">
        <ele>171</ele>
        <time>2019-02-07T08:26:47.000Z</time>
      </trkpt>
      <trkpt lat="43.61325" lon="6.84792">
        <ele>171</ele>
        <time>2019-02-07T08:26:48.000Z</time>
      </trkpt>
      <trkpt lat="43.61325" lon="6.84791">
        <ele>171</ele>
        <time>2019-02-07T08:26:49.000Z</time>
      </trkpt>
      <trkpt lat="43.61324" lon="6.84789">
        <ele>171</ele>
        <time>2019-02-07T08:26:50.000Z</time>
      </trkpt>
      <trkpt lat="43.61324" lon="6.84788">
        <ele>170</ele>
        <time>2019-02-07T08:26:51.000Z</time>
      </trkpt>
      <trkpt lat="43.61323" lon="6.84786">
        <ele>170</ele>
        <time>2019-02-07T08:26:52.000Z</time>
      </trkpt>
      <trkpt lat="43.61323" lon="6.84784">
        <ele>170</ele>
        <time>2019-02-07T08:26:53.000Z</time>
      </trkpt>
      <trkpt lat="43.61323" lon="6.84782">
        <ele>169</ele>
        <time>2019-02-07T08:26:54.000Z</time>
      </trkpt>
      <trkpt lat="43.61323" lon="6.8478">
        <ele>168</ele>
        <time>2019-02-07T08:26:55.000Z</time>
      </trkpt>
      <trkpt lat="43.61324" lon="6.84778">
        <ele>167</ele>
        <time>2019-02-07T08:26:56.000Z</time>
      </trkpt>
      <trkpt lat="43.61324" lon="6.84776">
        <ele>167</ele>
        <time>2019-02-07T08:26:57.000Z</time>
      </trkpt>
      <trkpt lat="43.61325" lon="6.84774">
        <ele>167</ele>
        <time>2019-02-07T08:26:58.000Z</time>
      </trkpt>
      <trkpt lat="43.61324" lon="6.84772">
        <ele>165</ele>
        <time>2019-02-07T08:26:59.000Z</time>
      </trkpt>
      <trkpt lat="43.61324" lon="6.8477">
        <ele>164</ele>
        <time>2019-02-07T08:27:00.000Z</time>
      </trkpt>
      <trkpt lat="43.61324" lon="6.84768">
        <ele>163</ele>
        <time>2019-02-07T08:27:01.000Z</time>
      </trkpt>
      <trkpt lat="43.61323" lon="6.84766">
        <ele>163</ele>
        <time>2019-02-07T08:27:02.000Z</time>
      </trkpt>
      <trkpt lat="43.61322" lon="6.84765">
        <ele>162</ele>
        <time>2019-02-07T08:27:03.000Z</time>
      </trkpt>
      <trkpt lat="43.61321" lon="6.84764">
        <ele>162</ele>
        <time>2019-02-07T08:27:04.000Z</time>
      </trkpt>
      <trkpt lat="43.6132" lon="6.84763">
        <ele>161</ele>
        <time>2019-02-07T08:27:05.000Z</time>
      </trkpt>
      <trkpt lat="43.61319" lon="6.84763">
        <ele>160</ele>
        <time>2019-02-07T08:27:06.000Z</time>
      </trkpt>
      <trkpt lat="43.61317" lon="6.84763">
        <ele>161</ele>
        <time>2019-02-07T08:27:07.000Z</time>
      </trkpt>
      <trkpt lat="43.61315" lon="6.84764">
        <ele>160</ele>
        <time>2019-02-07T08:27:08.000Z</time>
      </trkpt>
      <trkpt lat="43.61313" lon="6.84766">
        <ele>159</ele>
        <time>2019-02-07T08:27:09.000Z</time>
      </trkpt>
      <trkpt lat="43.61311" lon="6.84767">
        <ele>159</ele>
        <time>2019-02-07T08:27:10.000Z</time>
      </trkpt>
      <trkpt lat="43.61309" lon="6.84768">
        <ele>159</ele>
        <time>2019-02-07T08:27:11.000Z</time>
      </trkpt>
      <trkpt lat="43.61308" lon="6.8477">
        <ele>159</ele>
        <time>2019-02-07T08:27:12.000Z</time>
      </trkpt>
      <trkpt lat="43.61306" lon="6.84771">
        <ele>159</ele>
        <time>2019-02-07T08:27:13.000Z</time>
      </trkpt>
      <trkpt lat="43.61304" lon="6.84773">
        <ele>158</ele>
        <time>2019-02-07T08:27:14.000Z</time>
      </trkpt>
      <trkpt lat="43.61302" lon="6.84774">
        <ele>159</ele>
        <time>2019-02-07T08:27:15.000Z</time>
      </trkpt>
      <trkpt lat="43.61301" lon="6.84776">
        <ele>159</ele>
        <time>2019-02-07T08:27:16.000Z</time>
      </trkpt>
      <trkpt lat="43.613" lon="6.84777">
        <ele>160</ele>
        <time>2019-02-07T08:27:17.000Z</time>
      </trkpt>
      <trkpt lat="43.61298" lon="6.84778">
        <ele>160</ele>
        <time>2019-02-07T08:27:18.000Z</time>
      </trkpt>
      <trkpt lat="43.61296" lon="6.84779">
        <ele>160</ele>
        <time>2019-02-07T08:27:19.000Z</time>
      </trkpt>
      <trkpt lat="43.61294" lon="6.84781">
        <ele>160</ele>
        <time>2019-02-07T08:27:20.000Z</time>
      </trkpt>
      <trkpt lat="43.61292" lon="6.84783">
        <ele>161</ele>
        <time>2019-02-07T08:27:21.000Z</time>
      </trkpt>
      <trkpt lat="43.6129" lon="6.84784">
        <ele>160</ele>
        <time>2019-02-07T08:27:22.000Z</time>
      </trkpt>
      <trkpt lat="43.61288" lon="6.84785">
        <ele>160</ele>
        <time>2019-02-07T08:27:23.000Z</time>
      </trkpt>
      <trkpt lat="43.61286" lon="6.84787">
        <ele>159</ele>
        <time>2019-02-07T08:27:24.000Z</time>
      </trkpt>
      <trkpt lat="43.61284" lon="6.84789">
        <ele>159</ele>
        <time>2019-02-07T08:27:25.000Z</time>
      </trkpt>
      <trkpt lat="43.61282" lon="6.8479">
        <ele>159</ele>
        <time>2019-02-07T08:27:26.000Z</time>
      </trkpt>
      <trkpt lat="43.6128" lon="6.84791">
        <ele>159</ele>
        <time>2019-02-07T08:27:27.000Z</time>
      </trkpt>
      <trkpt lat="43.61278" lon="6.84793">
        <ele>161</ele>
        <time>2019-02-07T08:27:28.000Z</time>
      </trkpt>
      <trkpt lat="43.61275" lon="6.84794">
        <ele>161</ele>
        <time>2019-02-07T08:27:29.000Z</time>
      </trkpt>
      <trkpt lat="43.61272" lon="6.84795">
        <ele>162</ele>
        <time>2019-02-07T08:27:30.000Z</time>
      </trkpt>
      <trkpt lat="43.6127" lon="6.84795">
        <ele>163</ele>
        <time>2019-02-07T08:27:31.000Z</time>
      </trkpt>
      <trkpt lat="43.61267" lon="6.84796">
        <ele>163</ele>
        <time>2019-02-07T08:27:32.000Z</time>
      </trkpt>
      <trkpt lat="43.61265" lon="6.84797">
        <ele>165</ele>
        <time>2019-02-07T08:27:33.000Z</time>
      </trkpt>
      <trkpt lat="43.61263" lon="6.84798">
        <ele>165</ele>
        <time>2019-02-07T08:27:34.000Z</time>
      </trkpt>
      <trkpt lat="43.61262" lon="6.84799">
        <ele>166</ele>
        <time>2019-02-07T08:27:35.000Z</time>
      </trkpt>
      <trkpt lat="43.6126" lon="6.848">
        <ele>166</ele>
        <time>2019-02-07T08:27:36.000Z</time>
      </trkpt>
      <trkpt lat="43.61258" lon="6.84801">
        <ele>168</ele>
        <time>2019-02-07T08:27:37.000Z</time>
      </trkpt>
      <trkpt lat="43.61256" lon="6.84803">
        <ele>169</ele>
        <time>2019-02-07T08:27:38.000Z</time>
      </trkpt>
      <trkpt lat="43.61254" lon="6.84804">
        <ele>170</ele>
        <time>2019-02-07T08:27:39.000Z</time>
      </trkpt>
      <trkpt lat="43.61253" lon="6.84806">
        <ele>170</ele>
        <time>2019-02-07T08:27:40.000Z</time>
      </trkpt>
      <trkpt lat="43.61251" lon="6.84807">
        <ele>171</ele>
        <time>2019-02-07T08:27:41.000Z</time>
      </trkpt>
      <trkpt lat="43.61249" lon="6.84809">
        <ele>171</ele>
        <time>2019-02-07T08:27:42.000Z</time>
      </trkpt>
      <trkpt lat="43.61248" lon="6.84811">
        <ele>172</ele>
        <time>2019-02-07T08:27:43.000Z</time>
      </trkpt>
      <trkpt lat="43.61246" lon="6.84813">
        <ele>173</ele>
        <time>2019-02-07T08:27:44.000Z</time>
      </trkpt>
      <trkpt lat="43.61245" lon="6.84815">
        <ele>173</ele>
        <time>2019-02-07T08:27:45.000Z</time>
      </trkpt>
      <trkpt lat="43.61244" lon="6.84817">
        <ele>173</ele>
        <time>2019-02-07T08:27:46.000Z</time>
      </trkpt>
      <trkpt lat="43.61242" lon="6.8482">
        <ele>172</ele>
        <time>2019-02-07T08:27:47.000Z</time>
      </trkpt>
      <trkpt lat="43.61241" lon="6.84822">
        <ele>172</ele>
        <time>2019-02-07T08:27:48.000Z</time>
      </trkpt>
      <trkpt lat="43.61239" lon="6.84824">
        <ele>172</ele>
        <time>2019-02-07T08:27:49.000Z</time>
      </trkpt>
      <trkpt lat="43.61238" lon="6.84825">
        <ele>173</ele>
        <time>2019-02-07T08:27:50.000Z</time>
      </trkpt>
      <trkpt lat="43.61237" lon="6.84827">
        <ele>173</ele>
        <time>2019-02-07T08:27:51.000Z</time>
      </trkpt>
      <trkpt lat="43.61236" lon="6.84829">
        <ele>173</ele>
        <time>2019-02-07T08:27:52.000Z</time>
      </trkpt>
      <trkpt lat="43.61235" lon="6.8483">
        <ele>174</ele>
        <time>2019-02-07T08:27:53.000Z</time>
      </trkpt>
      <trkpt lat="43.61233" lon="6.84833">
        <ele>173</ele>
        <time>2019-02-07T08:27:54.000Z</time>
      </trkpt>
      <trkpt lat="43.61232" lon="6.84836">
        <ele>172</ele>
        <time>2019-02-07T08:27:55.000Z</time>
      </trkpt>
      <trkpt lat="43.61231" lon="6.84839">
        <ele>173</ele>
        <time>2019-02-07T08:27:56.000Z</time>
      </trkpt>
      <trkpt lat="43.6123" lon="6.84842">
        <ele>173</ele>
        <time>2019-02-07T08:27:57.000Z</time>
      </trkpt>
      <trkpt lat="43.61229" lon="6.84845">
        <ele>173</ele>
        <time>2019-02-07T08:27:58.000Z</time>
      </trkpt>
      <trkpt lat="43.61228" lon="6.84847">
        <ele>173</ele>
        <time>2019-02-07T08:27:59.000Z</time>
      </trkpt>
      <trkpt lat="43.61227" lon="6.84849">
        <ele>174</ele>
        <time>2019-02-07T08:28:00.000Z</time>
      </trkpt>
      <trkpt lat="43.61226" lon="6.84851">
        <ele>173</ele>
        <time>2019-02-07T08:28:01.000Z</time>
      </trkpt>
      <trkpt lat="43.61225" lon="6.84853">
        <ele>173</ele>
        <time>2019-02-07T08:28:02.000Z</time>
      </trkpt>
      <trkpt lat="43.61223" lon="6.84855">
        <ele>174</ele>
        <time>2019-02-07T08:28:03.000Z</time>
      </trkpt>
      <trkpt lat="43.61222" lon="6.84857">
        <ele>174</ele>
        <time>2019-02-07T08:28:04.000Z</time>
      </trkpt>
      <trkpt lat="43.61221" lon="6.84859">
        <ele>174</ele>
        <time>2019-02-07T08:28:05.000Z</time>
      </trkpt>
      <trkpt lat="43.6122" lon="6.8486">
        <ele>173</ele>
        <time>2019-02-07T08:28:06.000Z</time>
      </trkpt>
      <trkpt lat="43.61218" lon="6.84861">
        <ele>173</ele>
        <time>2019-02-07T08:28:07.000Z</time>
      </trkpt>
      <trkpt lat="43.61217" lon="6.84861">
        <ele>172</ele>
        <time>2019-02-07T08:28:08.000Z</time>
      </trkpt>
      <trkpt lat="43.61216" lon="6.84862">
        <ele>172</ele>
        <time>2019-02-07T08:28:09.000Z</time>
      </trkpt>
      <trkpt lat="43.61214" lon="6.84863">
        <ele>172</ele>
        <time>2019-02-07T08:28:10.000Z</time>
      </trkpt>
      <trkpt lat="43.61213" lon="6.84864">
        <ele>172</ele>
        <time>2019-02-07T08:28:11.000Z</time>
      </trkpt>
      <trkpt lat="43.61212" lon="6.84865">
        <ele>173</ele>
        <time>2019-02-07T08:28:12.000Z</time>
      </trkpt>
      <trkpt lat="43.61211" lon="6.84866">
        <ele>173</ele>
        <time>2019-02-07T08:28:13.000Z</time>
      </trkpt>
      <trkpt lat="43.61209" lon="6.84867">
        <ele>174</ele>
        <time>2019-02-07T08:28:14.000Z</time>
      </trkpt>
      <trkpt lat="43.61208" lon="6.84868">
        <ele>174</ele>
        <time>2019-02-07T08:28:15.000Z</time>
      </trkpt>
      <trkpt lat="43.61206" lon="6.84869">
        <ele>174</ele>
        <time>2019-02-07T08:28:16.000Z</time>
      </trkpt>
      <trkpt lat="43.61204" lon="6.8487">
        <ele>173</ele>
        <time>2019-02-07T08:28:17.000Z</time>
      </trkpt>
      <trkpt lat="43.61202" lon="6.84871">
        <ele>174</ele>
        <time>2019-02-07T08:28:18.000Z</time>
      </trkpt>
      <trkpt lat="43.612" lon="6.84872">
        <ele>174</ele>
        <time>2019-02-07T08:28:19.000Z</time>
      </trkpt>
      <trkpt lat="43.61198" lon="6.84873">
        <ele>174</ele>
        <time>2019-02-07T08:28:20.000Z</time>
      </trkpt>
      <trkpt lat="43.61196" lon="6.84874">
        <ele>174</ele>
        <time>2019-02-07T08:28:21.000Z</time>
      </trkpt>
      <trkpt lat="43.61193" lon="6.84876">
        <ele>173</ele>
        <time>2019-02-07T08:28:22.000Z</time>
      </trkpt>
      <trkpt lat="43.61191" lon="6.84877">
        <ele>173</ele>
        <time>2019-02-07T08:28:23.000Z</time>
      </trkpt>
      <trkpt lat="43.61189" lon="6.84878">
        <ele>172</ele>
        <time>2019-02-07T08:28:24.000Z</time>
      </trkpt>
      <trkpt lat="43.61187" lon="6.84879">
        <ele>172</ele>
        <time>2019-02-07T08:28:25.000Z</time>
      </trkpt>
      <trkpt lat="43.61185" lon="6.8488">
        <ele>173</ele>
        <time>2019-02-07T08:28:26.000Z</time>
      </trkpt>
      <trkpt lat="43.61183" lon="6.8488">
        <ele>173</ele>
        <time>2019-02-07T08:28:27.000Z</time>
      </trkpt>
      <trkpt lat="43.61181" lon="6.84881">
        <ele>173</ele>
        <time>2019-02-07T08:28:28.000Z</time>
      </trkpt>
      <trkpt lat="43.61179" lon="6.84881">
        <ele>172</ele>
        <time>2019-02-07T08:28:29.000Z</time>
      </trkpt>
      <trkpt lat="43.61177" lon="6.84881">
        <ele>172</ele>
        <time>2019-02-07T08:28:30.000Z</time>
      </trkpt>
      <trkpt lat="43.61174" lon="6.84882">
        <ele>171</ele>
        <time>2019-02-07T08:28:31.000Z</time>
      </trkpt>
      <trkpt lat="43.61172" lon="6.84882">
        <ele>171</ele>
        <time>2019-02-07T08:28:32.000Z</time>
      </trkpt>
      <trkpt lat="43.6117" lon="6.84882">
        <ele>172</ele>
        <time>2019-02-07T08:28:33.000Z</time>
      </trkpt>
      <trkpt lat="43.61167" lon="6.84882">
        <ele>172</ele>
        <time>2019-02-07T08:28:34.000Z</time>
      </trkpt>
      <trkpt lat="43.61165" lon="6.84883">
        <ele>172</ele>
        <time>2019-02-07T08:28:35.000Z</time>
      </trkpt>
      <trkpt lat="43.61163" lon="6.84883">
        <ele>171</ele>
        <time>2019-02-07T08:28:36.000Z</time>
      </trkpt>
      <trkpt lat="43.61161" lon="6.84882">
        <ele>171</ele>
        <time>2019-02-07T08:28:37.000Z</time>
      </trkpt>
      <trkpt lat="43.61159" lon="6.84882">
        <ele>171</ele>
        <time>2019-02-07T08:28:38.000Z</time>
      </trkpt>
      <trkpt lat="43.61157" lon="6.84882">
        <ele>171</ele>
        <time>2019-02-07T08:28:39.000Z</time>
      </trkpt>
      <trkpt lat="43.61155" lon="6.84881">
        <ele>171</ele>
        <time>2019-02-07T08:28:40.000Z</time>
      </trkpt>
      <trkpt lat="43.61153" lon="6.84881">
        <ele>171</ele>
        <time>2019-02-07T08:28:41.000Z</time>
      </trkpt>
      <trkpt lat="43.61151" lon="6.8488">
        <ele>170</ele>
        <time>2019-02-07T08:28:42.000Z</time>
      </trkpt>
      <trkpt lat="43.61149" lon="6.84879">
        <ele>171</ele>
        <time>2019-02-07T08:28:43.000Z</time>
      </trkpt>
      <trkpt lat="43.61148" lon="6.84878">
        <ele>170</ele>
        <time>2019-02-07T08:28:44.000Z</time>
      </trkpt>
      <trkpt lat="43.61146" lon="6.84878">
        <ele>170</ele>
        <time>2019-02-07T08:28:45.000Z</time>
      </trkpt>
      <trkpt lat="43.61144" lon="6.84877">
        <ele>170</ele>
        <time>2019-02-07T08:28:46.000Z</time>
      </trkpt>
      <trkpt lat="43.61142" lon="6.84877">
        <ele>171</ele>
        <time>2019-02-07T08:28:47.000Z</time>
      </trkpt>
      <trkpt lat="43.6114" lon="6.84878">
        <ele>171</ele>
        <time>2019-02-07T08:28:48.000Z</time>
      </trkpt>
      <trkpt lat="43.61138" lon="6.84879">
        <ele>173</ele>
        <time>2019-02-07T08:28:49.000Z</time>
      </trkpt>
      <trkpt lat="43.61136" lon="6.8488">
        <ele>173</ele>
        <time>2019-02-07T08:28:50.000Z</time>
      </trkpt>
      <trkpt lat="43.61135" lon="6.84881">
        <ele>174</ele>
        <time>2019-02-07T08:28:51.000Z</time>
      </trkpt>
      <trkpt lat="43.61133" lon="6.84882">
        <ele>174</ele>
        <time>2019-02-07T08:28:52.000Z</time>
      </trkpt>
      <trkpt lat="43.61132" lon="6.84883">
        <ele>175</ele>
        <time>2019-02-07T08:28:53.000Z</time>
      </trkpt>
      <trkpt lat="43.6113" lon="6.84884">
        <ele>175</ele>
        <time>2019-02-07T08:28:54.000Z</time>
      </trkpt>
      <trkpt lat="43.61129" lon="6.84885">
        <ele>174</ele>
        <time>2019-02-07T08:28:55.000Z</time>
      </trkpt>
      <trkpt lat="43.61127" lon="6.84887">
        <ele>175</ele>
        <time>2019-02-07T08:28:56.000Z</time>
      </trkpt>
      <trkpt lat="43.61125" lon="6.84888">
        <ele>175</ele>
        <time>2019-02-07T08:28:57.000Z</time>
      </trkpt>
      <trkpt lat="43.61123" lon="6.8489">
        <ele>177</ele>
        <time>2019-02-07T08:28:58.000Z</time>
      </trkpt>
      <trkpt lat="43.61121" lon="6.84891">
        <ele>178</ele>
        <time>2019-02-07T08:28:59.000Z</time>
      </trkpt>
      <trkpt lat="43.6112" lon="6.84893">
        <ele>177</ele>
        <time>2019-02-07T08:29:00.000Z</time>
      </trkpt>
      <trkpt lat="43.61118" lon="6.84894">
        <ele>177</ele>
        <time>2019-02-07T08:29:01.000Z</time>
      </trkpt>
      <trkpt lat="43.61116" lon="6.84896">
        <ele>176</ele>
        <time>2019-02-07T08:29:02.000Z</time>
      </trkpt>
      <trkpt lat="43.61115" lon="6.84898">
        <ele>176</ele>
        <time>2019-02-07T08:29:03.000Z</time>
      </trkpt>
      <trkpt lat="43.61114" lon="6.849">
        <ele>176</ele>
        <time>2019-02-07T08:29:04.000Z</time>
      </trkpt>
      <trkpt lat="43.61112" lon="6.84902">
        <ele>176</ele>
        <time>2019-02-07T08:29:05.000Z</time>
      </trkpt>
      <trkpt lat="43.61111" lon="6.84905">
        <ele>177</ele>
        <time>2019-02-07T08:29:06.000Z</time>
      </trkpt>
      <trkpt lat="43.61109" lon="6.84907">
        <ele>177</ele>
        <time>2019-02-07T08:29:07.000Z</time>
      </trkpt>
      <trkpt lat="43.61108" lon="6.84909">
        <ele>178</ele>
        <time>2019-02-07T08:29:08.000Z</time>
      </trkpt>
      <trkpt lat="43.61107" lon="6.84911">
        <ele>178</ele>
        <time>2019-02-07T08:29:09.000Z</time>
      </trkpt>
      <trkpt lat="43.61106" lon="6.84913">
        <ele>178</ele>
        <time>2019-02-07T08:29:10.000Z</time>
      </trkpt>
      <trkpt lat="43.61105" lon="6.84915">
        <ele>178</ele>
        <time>2019-02-07T08:29:11.000Z</time>
      </trkpt>
      <trkpt lat="43.61104" lon="6.84917">
        <ele>178</ele>
        <time>2019-02-07T08:29:12.000Z</time>
      </trkpt>
      <trkpt lat="43.61104" lon="6.8492">
        <ele>178</ele>
        <time>2019-02-07T08:29:13.000Z</time>
      </trkpt>
      <trkpt lat="43.61104" lon="6.84923">
        <ele>178</ele>
        <time>2019-02-07T08:29:14.000Z</time>
      </trkpt>
      <trkpt lat="43.61104" lon="6.84925">
        <ele>178</ele>
        <time>2019-02-07T08:29:15.000Z</time>
      </trkpt>
      <trkpt lat="43.61104" lon="6.84928">
        <ele>178</ele>
        <time>2019-02-07T08:29:16.000Z</time>
      </trkpt>
      <trkpt lat="43.61105" lon="6.8493">
        <ele>178</ele>
        <time>2019-02-07T08:29:17.000Z</time>
      </trkpt>
      <trkpt lat="43.61106" lon="6.84932">
        <ele>178</ele>
        <time>2019-02-07T08:29:18.000Z</time>
      </trkpt>
      <trkpt lat="43.61107" lon="6.84933">
        <ele>178</ele>
        <time>2019-02-07T08:29:19.000Z</time>
      </trkpt>
      <trkpt lat="43.61109" lon="6.84934">
        <ele>178</ele>
        <time>2019-02-07T08:29:20.000Z</time>
      </trkpt>
      <trkpt lat="43.6111" lon="6.84934">
        <ele>179</ele>
        <time>2019-02-07T08:29:21.000Z</time>
      </trkpt>
      <trkpt lat="43.61111" lon="6.84934">
        <ele>178</ele>
        <time>2019-02-07T08:29:22.000Z</time>
      </trkpt>
      <trkpt lat="43.61113" lon="6.84934">
        <ele>179</ele>
        <time>2019-02-07T08:29:23.000Z</time>
      </trkpt>
      <trkpt lat="43.61114" lon="6.84933">
        <ele>179</ele>
        <time>2019-02-07T08:29:24.000Z</time>
      </trkpt>
      <trkpt lat="43.61115" lon="6.84933">
        <ele>179</ele>
        <time>2019-02-07T08:29:25.000Z</time>
      </trkpt>
      <trkpt lat="43.61116" lon="6.84932">
        <ele>179</ele>
        <time>2019-02-07T08:29:26.000Z</time>
      </trkpt>
      <trkpt lat="43.61117" lon="6.84932">
        <ele>179</ele>
        <time>2019-02-07T08:29:27.000Z</time>
      </trkpt>
      <trkpt lat="43.61117" lon="6.84932">
        <ele>179</ele>
        <time>2019-02-07T08:29:28.000Z</time>
      </trkpt>
      <trkpt lat="43.61118" lon="6.84932">
        <ele>180</ele>
        <time>2019-02-07T08:29:29.000Z</time>
      </trkpt>
      <trkpt lat="43.61119" lon="6.84932">
        <ele>180</ele>
        <time>2019-02-07T08:29:30.000Z</time>
      </trkpt>
      <trkpt lat="43.6112" lon="6.84932">
        <ele>180</ele>
        <time>2019-02-07T08:29:31.000Z</time>
      </trkpt>
      <trkpt lat="43.61121" lon="6.84932">
        <ele>180</ele>
        <time>2019-02-07T08:29:32.000Z</time>
      </trkpt>
      <trkpt lat="43.61122" lon="6.84933">
        <ele>181</ele>
        <time>2019-02-07T08:29:33.000Z</time>
      </trkpt>
      <trkpt lat="43.61123" lon="6.84933">
        <ele>181</ele>
        <time>2019-02-07T08:29:34.000Z</time>
      </trkpt>
      <trkpt lat="43.61124" lon="6.84934">
        <ele>181</ele>
        <time>2019-02-07T08:29:35.000Z</time>
      </trkpt>
      <trkpt lat="43.61124" lon="6.84934">
        <ele>181</ele>
        <time>2019-02-07T08:29:36.000Z</time>
      </trkpt>
      <trkpt lat="43.61125" lon="6.84935">
        <ele>182</ele>
        <time>2019-02-07T08:29:37.000Z</time>
      </trkpt>
      <trkpt lat="43.61126" lon="6.84935">
        <ele>182</ele>
        <time>2019-02-07T08:29:38.000Z</time>
      </trkpt>
      <trkpt lat="43.61126" lon="6.84936">
        <ele>182</ele>
        <time>2019-02-07T08:29:39.000Z</time>
      </trkpt>
      <trkpt lat="43.61127" lon="6.84936">
        <ele>182</ele>
        <time>2019-02-07T08:29:40.000Z</time>
      </trkpt>
      <trkpt lat="43.61128" lon="6.84937">
        <ele>183</ele>
        <time>2019-02-07T08:29:41.000Z</time>
      </trkpt>
      <trkpt lat="43.61129" lon="6.84938">
        <ele>183</ele>
        <time>2019-02-07T08:29:42.000Z</time>
      </trkpt>
      <trkpt lat="43.6113" lon="6.84939">
        <ele>183</ele>
        <time>2019-02-07T08:29:43.000Z</time>
      </trkpt>
      <trkpt lat="43.61131" lon="6.8494">
        <ele>184</ele>
        <time>2019-02-07T08:29:44.000Z</time>
      </trkpt>
      <trkpt lat="43.61133" lon="6.8494">
        <ele>184</ele>
        <time>2019-02-07T08:29:45.000Z</time>
      </trkpt>
      <trkpt lat="43.61133" lon="6.84941">
        <ele>184</ele>
        <time>2019-02-07T08:29:46.000Z</time>
      </trkpt>
      <trkpt lat="43.61134" lon="6.84941">
        <ele>185</ele>
        <time>2019-02-07T08:29:47.000Z</time>
      </trkpt>
      <trkpt lat="43.61135" lon="6.84942">
        <ele>185</ele>
        <time>2019-02-07T08:29:48.000Z</time>
      </trkpt>
      <trkpt lat="43.61136" lon="6.84943">
        <ele>185</ele>
        <time>2019-02-07T08:29:49.000Z</time>
      </trkpt>
      <trkpt lat="43.61137" lon="6.84944">
        <ele>186</ele>
        <time>2019-02-07T08:29:50.000Z</time>
      </trkpt>
      <trkpt lat="43.61138" lon="6.84944">
        <ele>186</ele>
        <time>2019-02-07T08:29:51.000Z</time>
      </trkpt>
      <trkpt lat="43.61139" lon="6.84945">
        <ele>186</ele>
        <time>2019-02-07T08:29:52.000Z</time>
      </trkpt>
      <trkpt lat="43.61139" lon="6.84946">
        <ele>186</ele>
        <time>2019-02-07T08:29:53.000Z</time>
      </trkpt>
      <trkpt lat="43.6114" lon="6.84947">
        <ele>187</ele>
        <time>2019-02-07T08:29:54.000Z</time>
      </trkpt>
      <trkpt lat="43.61141" lon="6.84947">
        <ele>187</ele>
        <time>2019-02-07T08:29:55.000Z</time>
      </trkpt>
      <trkpt lat="43.61142" lon="6.84948">
        <ele>187</ele>
        <time>2019-02-07T08:29:56.000Z</time>
      </trkpt>
      <trkpt lat="43.61143" lon="6.84949">
        <ele>187</ele>
        <time>2019-02-07T08:29:57.000Z</time>
      </trkpt>
      <trkpt lat="43.61144" lon="6.84949">
        <ele>187</ele>
        <time>2019-02-07T08:29:58.000Z</time>
      </trkpt>
      <trkpt lat="43.61144" lon="6.8495">
        <ele>186</ele>
        <time>2019-02-07T08:29:59.000Z</time>
      </trkpt>
      <trkpt lat="43.61145" lon="6.84951">
        <ele>186</ele>
        <time>2019-02-07T08:30:00.000Z</time>
      </trkpt>
      <trkpt lat="43.61146" lon="6.84952">
        <ele>187</ele>
        <time>2019-02-07T08:30:01.000Z</time>
      </trkpt>
      <trkpt lat="43.61146" lon="6.84952">
        <ele>187</ele>
        <time>2019-02-07T08:30:02.000Z</time>
      </trkpt>
      <trkpt lat="43.61147" lon="6.84953">
        <ele>188</ele>
        <time>2019-02-07T08:30:03.000Z</time>
      </trkpt>
      <trkpt lat="43.61148" lon="6.84954">
        <ele>188</ele>
        <time>2019-02-07T08:30:04.000Z</time>
      </trkpt>
      <trkpt lat="43.61149" lon="6.84954">
        <ele>189</ele>
        <time>2019-02-07T08:30:05.000Z</time>
      </trkpt>
      <trkpt lat="43.61149" lon="6.84955">
        <ele>189</ele>
        <time>2019-02-07T08:30:06.000Z</time>
      </trkpt>
      <trkpt lat="43.6115" lon="6.84955">
        <ele>189</ele>
        <time>2019-02-07T08:30:07.000Z</time>
      </trkpt>
      <trkpt lat="43.6115" lon="6.84956">
        <ele>189</ele>
        <time>2019-02-07T08:30:08.000Z</time>
      </trkpt>
      <trkpt lat="43.61151" lon="6.84957">
        <ele>190</ele>
        <time>2019-02-07T08:30:09.000Z</time>
      </trkpt>
      <trkpt lat="43.61152" lon="6.84958">
        <ele>190</ele>
        <time>2019-02-07T08:30:10.000Z</time>
      </trkpt>
      <trkpt lat="43.61153" lon="6.84959">
        <ele>190</ele>
        <time>2019-02-07T08:30:11.000Z</time>
      </trkpt>
      <trkpt lat="43.61153" lon="6.84959">
        <ele>191</ele>
        <time>2019-02-07T08:30:12.000Z</time>
      </trkpt>
      <trkpt lat="43.61154" lon="6.8496">
        <ele>191</ele>
        <time>2019-02-07T08:30:13.000Z</time>
      </trkpt>
      <trkpt lat="43.61155" lon="6.84961">
        <ele>190</ele>
        <time>2019-02-07T08:30:14.000Z</time>
      </trkpt>
      <trkpt lat="43.61156" lon="6.84962">
        <ele>190</ele>
        <time>2019-02-07T08:30:15.000Z</time>
      </trkpt>
      <trkpt lat="43.61157" lon="6.84962">
        <ele>190</ele>
        <time>2019-02-07T08:30:16.000Z</time>
      </trkpt>
      <trkpt lat="43.61157" lon="6.84963">
        <ele>191</ele>
        <time>2019-02-07T08:30:17.000Z</time>
      </trkpt>
      <trkpt lat="43.61158" lon="6.84964">
        <ele>191</ele>
        <time>2019-02-07T08:30:18.000Z</time>
      </trkpt>
      <trkpt lat="43.61159" lon="6.84964">
        <ele>191</ele>
        <time>2019-02-07T08:30:19.000Z</time>
      </trkpt>
      <trkpt lat="43.6116" lon="6.84965">
        <ele>191</ele>
        <time>2019-02-07T08:30:20.000Z</time>
      </trkpt>
      <trkpt lat="43.61161" lon="6.84965">
        <ele>191</ele>
        <time>2019-02-07T08:30:21.000Z</time>
      </trkpt>
      <trkpt lat="43.61162" lon="6.84966">
        <ele>191</ele>
        <time>2019-02-07T08:30:22.000Z</time>
      </trkpt>
      <trkpt lat="43.61163" lon="6.84966">
        <ele>192</ele>
        <time>2019-02-07T08:30:23.000Z</time>
      </trkpt>
      <trkpt lat="43.61163" lon="6.84967">
        <ele>193</ele>
        <time>2019-02-07T08:30:24.000Z</time>
      </trkpt>
      <trkpt lat="43.61164" lon="6.84968">
        <ele>193</ele>
        <time>2019-02-07T08:30:25.000Z</time>
      </trkpt>
      <trkpt lat="43.61165" lon="6.84969">
        <ele>193</ele>
        <time>2019-02-07T08:30:26.000Z</time>
      </trkpt>
      <trkpt lat="43.61166" lon="6.8497">
        <ele>193</ele>
        <time>2019-02-07T08:30:27.000Z</time>
      </trkpt>
      <trkpt lat="43.61167" lon="6.8497">
        <ele>194</ele>
        <time>2019-02-07T08:30:28.000Z</time>
      </trkpt>
      <trkpt lat="43.61168" lon="6.84971">
        <ele>194</ele>
        <time>2019-02-07T08:30:29.000Z</time>
      </trkpt>
      <trkpt lat="43.61169" lon="6.84972">
        <ele>194</ele>
        <time>2019-02-07T08:30:30.000Z</time>
      </trkpt>
      <trkpt lat="43.61169" lon="6.84973">
        <ele>195</ele>
        <time>2019-02-07T08:30:31.000Z</time>
      </trkpt>
      <trkpt lat="43.6117" lon="6.84973">
        <ele>195</ele>
        <time>2019-02-07T08:30:32.000Z</time>
      </trkpt>
      <trkpt lat="43.61171" lon="6.84974">
        <ele>195</ele>
        <time>2019-02-07T08:30:33.000Z</time>
      </trkpt>
      <trkpt lat="43.61172" lon="6.84975">
        <ele>196</ele>
        <time>2019-02-07T08:30:34.000Z</time>
      </trkpt>
      <trkpt lat="43.61173" lon="6.84976">
        <ele>196</ele>
        <time>2019-02-07T08:30:35.000Z</time>
      </trkpt>
      <trkpt lat="43.61173" lon="6.84977">
        <ele>196</ele>
        <time>2019-02-07T08:30:36.000Z</time>
      </trkpt>
      <trkpt lat="43.61174" lon="6.84977">
        <ele>196</ele>
        <time>2019-02-07T08:30:37.000Z</time>
      </trkpt>
      <trkpt lat="43.61175" lon="6.84978">
        <ele>196</ele>
        <time>2019-02-07T08:30:38.000Z</time>
      </trkpt>
      <trkpt lat="43.61175" lon="6.84979">
        <ele>197</ele>
        <time>2019-02-07T08:30:39.000Z</time>
      </trkpt>
      <trkpt lat="43.61176" lon="6.8498">
        <ele>197</ele>
        <time>2019-02-07T08:30:40.000Z</time>
      </trkpt>
      <trkpt lat="43.61177" lon="6.84981">
        <ele>197</ele>
        <time>2019-02-07T08:30:41.000Z</time>
      </trkpt>
      <trkpt lat="43.61177" lon="6.84982">
        <ele>197</ele>
        <time>2019-02-07T08:30:42.000Z</time>
      </trkpt>
      <trkpt lat="43.61178" lon="6.84983">
        <ele>197</ele>
        <time>2019-02-07T08:30:43.000Z</time>
      </trkpt>
      <trkpt lat="43.61179" lon="6.84983">
        <ele>197</ele>
        <time>2019-02-07T08:30:44.000Z</time>
      </trkpt>
      <trkpt lat="43.61179" lon="6.84984">
        <ele>197</ele>
        <time>2019-02-07T08:30:45.000Z</time>
      </trkpt>
      <trkpt lat="43.6118" lon="6.84985">
        <ele>198</ele>
        <time>2019-02-07T08:30:46.000Z</time>
      </trkpt>
      <trkpt lat="43.61181" lon="6.84986">
        <ele>198</ele>
        <time>2019-02-07T08:30:47.000Z</time>
      </trkpt>
      <trkpt lat="43.61181" lon="6.84987">
        <ele>198</ele>
        <time>2019-02-07T08:30:48.000Z</time>
      </trkpt>
      <trkpt lat="43.61182" lon="6.84988">
        <ele>199</ele>
        <time>2019-02-07T08:30:49.000Z</time>
      </trkpt>
      <trkpt lat="43.61183" lon="6.84989">
        <ele>198</ele>
        <time>2019-02-07T08:30:50.000Z</time>
      </trkpt>
      <trkpt lat="43.61183" lon="6.8499">
        <ele>199</ele>
        <time>2019-02-07T08:30:51.000Z</time>
      </trkpt>
      <trkpt lat="43.61184" lon="6.84991">
        <ele>199</ele>
        <time>2019-02-07T08:30:52.000Z</time>
      </trkpt>
      <trkpt lat="43.61185" lon="6.84992">
        <ele>199</ele>
        <time>2019-02-07T08:30:53.000Z</time>
      </trkpt>
      <trkpt lat="43.61185" lon="6.84993">
        <ele>199</ele>
        <time>2019-02-07T08:30:54.000Z</time>
      </trkpt>
      <trkpt lat="43.61186" lon="6.84993">
        <ele>199</ele>
        <time>2019-02-07T08:30:55.000Z</time>
      </trkpt>
      <trkpt lat="43.61187" lon="6.84994">
        <ele>199</ele>
        <time>2019-02-07T08:30:56.000Z</time>
      </trkpt>
      <trkpt lat="43.61187" lon="6.84995">
        <ele>199</ele>
        <time>2019-02-07T08:30:57.000Z</time>
      </trkpt>
      <trkpt lat="43.61188" lon="6.84996">
        <ele>200</ele>
        <time>2019-02-07T08:30:58.000Z</time>
      </trkpt>
      <trkpt lat="43.61189" lon="6.84997">
        <ele>200</ele>
        <time>2019-02-07T08:30:59.000Z</time>
      </trkpt>
      <trkpt lat="43.6119" lon="6.84997">
        <ele>201</ele>
        <time>2019-02-07T08:31:00.000Z</time>
      </trkpt>
      <trkpt lat="43.61191" lon="6.84998">
        <ele>200</ele>
        <time>2019-02-07T08:31:01.000Z</time>
      </trkpt>
      <trkpt lat="43.61192" lon="6.84999">
        <ele>200</ele>
        <time>2019-02-07T08:31:02.000Z</time>
      </trkpt>
      <trkpt lat="43.61193" lon="6.85001">
        <ele>200</ele>
        <time>2019-02-07T08:31:03.000Z</time>
      </trkpt>
      <trkpt lat="43.61194" lon="6.85002">
        <ele>200</ele>
        <time>2019-02-07T08:31:04.000Z</time>
      </trkpt>
      <trkpt lat="43.61195" lon="6.85003">
        <ele>200</ele>
        <time>2019-02-07T08:31:05.000Z</time>
      </trkpt>
      <trkpt lat="43.61195" lon="6.85004">
        <ele>200</ele>
        <time>2019-02-07T08:31:06.000Z</time>
      </trkpt>
      <trkpt lat="43.61196" lon="6.85005">
        <ele>201</ele>
        <time>2019-02-07T08:31:07.000Z</time>
      </trkpt>
      <trkpt lat="43.61196" lon="6.85006">
        <ele>201</ele>
        <time>2019-02-07T08:31:08.000Z</time>
      </trkpt>
      <trkpt lat="43.61197" lon="6.85008">
        <ele>201</ele>
        <time>2019-02-07T08:31:09.000Z</time>
      </trkpt>
      <trkpt lat="43.61198" lon="6.85008">
        <ele>201</ele>
        <time>2019-02-07T08:31:10.000Z</time>
      </trkpt>
      <trkpt lat="43.61199" lon="6.85009">
        <ele>201</ele>
        <time>2019-02-07T08:31:11.000Z</time>
      </trkpt>
      <trkpt lat="43.612" lon="6.8501">
        <ele>201</ele>
        <time>2019-02-07T08:31:12.000Z</time>
      </trkpt>
      <trkpt lat="43.612" lon="6.85011">
        <ele>201</ele>
        <time>2019-02-07T08:31:13.000Z</time>
      </trkpt>
      <trkpt lat="43.61201" lon="6.85012">
        <ele>202</ele>
        <time>2019-02-07T08:31:14.000Z</time>
      </trkpt>
      <trkpt lat="43.61202" lon="6.85013">
        <ele>201</ele>
        <time>2019-02-07T08:31:15.000Z</time>
      </trkpt>
      <trkpt lat="43.61203" lon="6.85014">
        <ele>202</ele>
        <time>2019-02-07T08:31:16.000Z</time>
      </trkpt>
      <trkpt lat="43.61204" lon="6.85016">
        <ele>203</ele>
        <time>2019-02-07T08:31:17.000Z</time>
      </trkpt>
      <trkpt lat="43.61205" lon="6.85017">
        <ele>203</ele>
        <time>2019-02-07T08:31:18.000Z</time>
      </trkpt>
      <trkpt lat="43.61206" lon="6.85018">
        <ele>204</ele>
        <time>2019-02-07T08:31:19.000Z</time>
      </trkpt>
      <trkpt lat="43.61207" lon="6.85019">
        <ele>204</ele>
        <time>2019-02-07T08:31:20.000Z</time>
      </trkpt>
      <trkpt lat="43.61209" lon="6.8502">
        <ele>205</ele>
        <time>2019-02-07T08:31:21.000Z</time>
      </trkpt>
      <trkpt lat="43.6121" lon="6.85022">
        <ele>204</ele>
        <time>2019-02-07T08:31:22.000Z</time>
      </trkpt>
      <trkpt lat="43.61211" lon="6.85023">
        <ele>204</ele>
        <time>2019-02-07T08:31:23.000Z</time>
      </trkpt>
      <trkpt lat="43.61212" lon="6.85024">
        <ele>204</ele>
        <time>2019-02-07T08:31:24.000Z</time>
      </trkpt>
      <trkpt lat="43.61212" lon="6.85025">
        <ele>205</ele>
        <time>2019-02-07T08:31:25.000Z</time>
      </trkpt>
      <trkpt lat="43.61213" lon="6.85026">
        <ele>205</ele>
        <time>2019-02-07T08:31:26.000Z</time>
      </trkpt>
      <trkpt lat="43.61214" lon="6.85027">
        <ele>205</ele>
        <time>2019-02-07T08:31:27.000Z</time>
      </trkpt>
      <trkpt lat="43.61215" lon="6.85028">
        <ele>205</ele>
        <time>2019-02-07T08:31:28.000Z</time>
      </trkpt>
      <trkpt lat="43.61215" lon="6.8503">
        <ele>205</ele>
        <time>2019-02-07T08:31:29.000Z</time>
      </trkpt>
      <trkpt lat="43.61216" lon="6.85031">
        <ele>205</ele>
        <time>2019-02-07T08:31:30.000Z</time>
      </trkpt>
      <trkpt lat="43.61217" lon="6.85032">
        <ele>206</ele>
        <time>2019-02-07T08:31:31.000Z</time>
      </trkpt>
      <trkpt lat="43.61218" lon="6.85033">
        <ele>206</ele>
        <time>2019-02-07T08:31:32.000Z</time>
      </trkpt>
      <trkpt lat="43.61219" lon="6.85034">
        <ele>206</ele>
        <time>2019-02-07T08:31:33.000Z</time>
      </trkpt>
      <trkpt lat="43.61219" lon="6.85035">
        <ele>206</ele>
        <time>2019-02-07T08:31:34.000Z</time>
      </trkpt>
      <trkpt lat="43.6122" lon="6.85035">
        <ele>207</ele>
        <time>2019-02-07T08:31:35.000Z</time>
      </trkpt>
      <trkpt lat="43.61221" lon="6.85036">
        <ele>206</ele>
        <time>2019-02-07T08:31:36.000Z</time>
      </trkpt>
      <trkpt lat="43.61221" lon="6.85037">
        <ele>206</ele>
        <time>2019-02-07T08:31:37.000Z</time>
      </trkpt>
      <trkpt lat="43.61222" lon="6.85038">
        <ele>207</ele>
        <time>2019-02-07T08:31:38.000Z</time>
      </trkpt>
      <trkpt lat="43.61222" lon="6.85039">
        <ele>207</ele>
        <time>2019-02-07T08:31:39.000Z</time>
      </trkpt>
      <trkpt lat="43.61223" lon="6.8504">
        <ele>208</ele>
        <time>2019-02-07T08:31:40.000Z</time>
      </trkpt>
      <trkpt lat="43.61224" lon="6.85041">
        <ele>208</ele>
        <time>2019-02-07T08:31:41.000Z</time>
      </trkpt>
      <trkpt lat="43.61225" lon="6.85042">
        <ele>209</ele>
        <time>2019-02-07T08:31:42.000Z</time>
      </trkpt>
      <trkpt lat="43.61226" lon="6.85043">
        <ele>210</ele>
        <time>2019-02-07T08:31:43.000Z</time>
      </trkpt>
      <trkpt lat="43.61227" lon="6.85044">
        <ele>210</ele>
        <time>2019-02-07T08:31:44.000Z</time>
      </trkpt>
      <trkpt lat="43.61227" lon="6.85045">
        <ele>211</ele>
        <time>2019-02-07T08:31:45.000Z</time>
      </trkpt>
      <trkpt lat="43.61228" lon="6.85046">
        <ele>210</ele>
        <time>2019-02-07T08:31:46.000Z</time>
      </trkpt>
      <trkpt lat="43.61229" lon="6.85047">
        <ele>211</ele>
        <time>2019-02-07T08:31:47.000Z</time>
      </trkpt>
      <trkpt lat="43.6123" lon="6.85048">
        <ele>211</ele>
        <time>2019-02-07T08:31:48.000Z</time>
      </trkpt>
      <trkpt lat="43.61231" lon="6.85048">
        <ele>211</ele>
        <time>2019-02-07T08:31:49.000Z</time>
      </trkpt>
      <trkpt lat="43.61231" lon="6.85049">
        <ele>211</ele>
        <time>2019-02-07T08:31:50.000Z</time>
      </trkpt>
      <trkpt lat="43.61232" lon="6.85049">
        <ele>212</ele>
        <time>2019-02-07T08:31:51.000Z</time>
      </trkpt>
      <trkpt lat="43.61233" lon="6.8505">
        <ele>213</ele>
        <time>2019-02-07T08:31:52.000Z</time>
      </trkpt>
      <trkpt lat="43.61234" lon="6.8505">
        <ele>214</ele>
        <time>2019-02-07T08:31:53.000Z</time>
      </trkpt>
      <trkpt lat="43.61235" lon="6.85051">
        <ele>214</ele>
        <time>2019-02-07T08:31:54.000Z</time>
      </trkpt>
      <trkpt lat="43.61236" lon="6.85051">
        <ele>214</ele>
        <time>2019-02-07T08:31:55.000Z</time>
      </trkpt>
      <trkpt lat="43.61237" lon="6.85052">
        <ele>214</ele>
        <time>2019-02-07T08:31:56.000Z</time>
      </trkpt>
      <trkpt lat="43.61238" lon="6.85053">
        <ele>214</ele>
        <time>2019-02-07T08:31:57.000Z</time>
      </trkpt>
      <trkpt lat="43.61238" lon="6.85053">
        <ele>213</ele>
        <time>2019-02-07T08:31:58.000Z</time>
      </trkpt>
      <trkpt lat="43.61239" lon="6.85053">
        <ele>214</ele>
        <time>2019-02-07T08:31:59.000Z</time>
      </trkpt>
      <trkpt lat="43.6124" lon="6.85054">
        <ele>214</ele>
        <time>2019-02-07T08:32:00.000Z</time>
      </trkpt>
      <trkpt lat="43.61241" lon="6.85054">
        <ele>213</ele>
        <time>2019-02-07T08:32:01.000Z</time>
      </trkpt>
      <trkpt lat="43.61242" lon="6.85054">
        <ele>212</ele>
        <time>2019-02-07T08:32:02.000Z</time>
      </trkpt>
      <trkpt lat="43.61243" lon="6.85054">
        <ele>212</ele>
        <time>2019-02-07T08:32:03.000Z</time>
      </trkpt>
      <trkpt lat="43.61244" lon="6.85054">
        <ele>212</ele>
        <time>2019-02-07T08:32:04.000Z</time>
      </trkpt>
      <trkpt lat="43.61244" lon="6.85053">
        <ele>212</ele>
        <time>2019-02-07T08:32:05.000Z</time>
      </trkpt>
      <trkpt lat="43.61245" lon="6.85052">
        <ele>211</ele>
        <time>2019-02-07T08:32:06.000Z</time>
      </trkpt>
      <trkpt lat="43.61246" lon="6.85051">
        <ele>212</ele>
        <time>2019-02-07T08:32:07.000Z</time>
      </trkpt>
      <trkpt lat="43.61246" lon="6.85051">
        <ele>211</ele>
        <time>2019-02-07T08:32:08.000Z</time>
      </trkpt>
      <trkpt lat="43.61247" lon="6.8505">
        <ele>212</ele>
        <time>2019-02-07T08:32:09.000Z</time>
      </trkpt>
      <trkpt lat="43.61248" lon="6.85049">
        <ele>214</ele>
        <time>2019-02-07T08:32:10.000Z</time>
      </trkpt>
      <trkpt lat="43.6125" lon="6.85048">
        <ele>214</ele>
        <time>2019-02-07T08:32:11.000Z</time>
      </trkpt>
      <trkpt lat="43.61251" lon="6.85047">
        <ele>214</ele>
        <time>2019-02-07T08:32:12.000Z</time>
      </trkpt>
      <trkpt lat="43.61252" lon="6.85046">
        <ele>215</ele>
        <time>2019-02-07T08:32:13.000Z</time>
      </trkpt>
      <trkpt lat="43.61253" lon="6.85045">
        <ele>215</ele>
        <time>2019-02-07T08:32:14.000Z</time>
      </trkpt>
      <trkpt lat="43.61254" lon="6.85044">
        <ele>216</ele>
        <time>2019-02-07T08:32:15.000Z</time>
      </trkpt>
      <trkpt lat="43.61256" lon="6.85043">
        <ele>215</ele>
        <time>2019-02-07T08:32:16.000Z</time>
      </trkpt>
      <trkpt lat="43.61257" lon="6.85042">
        <ele>216</ele>
        <time>2019-02-07T08:32:17.000Z</time>
      </trkpt>
      <trkpt lat="43.61258" lon="6.85041">
        <ele>216</ele>
        <time>2019-02-07T08:32:18.000Z</time>
      </trkpt>
      <trkpt lat="43.6126" lon="6.85039">
        <ele>216</ele>
        <time>2019-02-07T08:32:19.000Z</time>
      </trkpt>
      <trkpt lat="43.61261" lon="6.85038">
        <ele>217</ele>
        <time>2019-02-07T08:32:20.000Z</time>
      </trkpt>
      <trkpt lat="43.61262" lon="6.85036">
        <ele>216</ele>
        <time>2019-02-07T08:32:21.000Z</time>
      </trkpt>
      <trkpt lat="43.61263" lon="6.85035">
        <ele>217</ele>
        <time>2019-02-07T08:32:22.000Z</time>
      </trkpt>
      <trkpt lat="43.61265" lon="6.85034">
        <ele>218</ele>
        <time>2019-02-07T08:32:23.000Z</time>
      </trkpt>
      <trkpt lat="43.61266" lon="6.85033">
        <ele>218</ele>
        <time>2019-02-07T08:32:24.000Z</time>
      </trkpt>
      <trkpt lat="43.61267" lon="6.85032">
        <ele>218</ele>
        <time>2019-02-07T08:32:25.000Z</time>
      </trkpt>
      <trkpt lat="43.61268" lon="6.85031">
        <ele>218</ele>
        <time>2019-02-07T08:32:26.000Z</time>
      </trkpt>
      <trkpt lat="43.61269" lon="6.8503">
        <ele>219</ele>
        <time>2019-02-07T08:32:27.000Z</time>
      </trkpt>
      <trkpt lat="43.61271" lon="6.85029">
        <ele>219</ele>
        <time>2019-02-07T08:32:28.000Z</time>
      </trkpt>
      <trkpt lat="43.61272" lon="6.85028">
        <ele>220</ele>
        <time>2019-02-07T08:32:29.000Z</time>
      </trkpt>
      <trkpt lat="43.61273" lon="6.85027">
        <ele>220</ele>
        <time>2019-02-07T08:32:30.000Z</time>
      </trkpt>
      <trkpt lat="43.61274" lon="6.85026">
        <ele>220</ele>
        <time>2019-02-07T08:32:31.000Z</time>
      </trkpt>
      <trkpt lat="43.61275" lon="6.85025">
        <ele>220</ele>
        <time>2019-02-07T08:32:32.000Z</time>
      </trkpt>
      <trkpt lat="43.61276" lon="6.85025">
        <ele>220</ele>
        <time>2019-02-07T08:32:33.000Z</time>
      </trkpt>
      <trkpt lat="43.61277" lon="6.85024">
        <ele>220</ele>
        <time>2019-02-07T08:32:34.000Z</time>
      </trkpt>
      <trkpt lat="43.61278" lon="6.85023">
        <ele>220</ele>
        <time>2019-02-07T08:32:35.000Z</time>
      </trkpt>
      <trkpt lat="43.6128" lon="6.85022">
        <ele>223</ele>
        <time>2019-02-07T08:32:36.000Z</time>
      </trkpt>
      <trkpt lat="43.61281" lon="6.85022">
        <ele>222</ele>
        <time>2019-02-07T08:32:37.000Z</time>
      </trkpt>
      <trkpt lat="43.61283" lon="6.85021">
        <ele>223</ele>
        <time>2019-02-07T08:32:38.000Z</time>
      </trkpt>
      <trkpt lat="43.61284" lon="6.8502">
        <ele>224</ele>
        <time>2019-02-07T08:32:39.000Z</time>
      </trkpt>
      <trkpt lat="43.61285" lon="6.85019">
        <ele>224</ele>
        <time>2019-02-07T08:32:40.000Z</time>
      </trkpt>
      <trkpt lat="43.61286" lon="6.85018">
        <ele>224</ele>
        <time>2019-02-07T08:32:41.000Z</time>
      </trkpt>
      <trkpt lat="43.61287" lon="6.85018">
        <ele>224</ele>
        <time>2019-02-07T08:32:42.000Z</time>
      </trkpt>
      <trkpt lat="43.61289" lon="6.85017">
        <ele>224</ele>
        <time>2019-02-07T08:32:43.000Z</time>
      </trkpt>
      <trkpt lat="43.6129" lon="6.85016">
        <ele>223</ele>
        <time>2019-02-07T08:32:44.000Z</time>
      </trkpt>
      <trkpt lat="43.61291" lon="6.85016">
        <ele>223</ele>
        <time>2019-02-07T08:32:45.000Z</time>
      </trkpt>
      <trkpt lat="43.61291" lon="6.85015">
        <ele>223</ele>
        <time>2019-02-07T08:32:46.000Z</time>
      </trkpt>
      <trkpt lat="43.61292" lon="6.85015">
        <ele>223</ele>
        <time>2019-02-07T08:32:47.000Z</time>
      </trkpt>
      <trkpt lat="43.61293" lon="6.85014">
        <ele>223</ele>
        <time>2019-02-07T08:32:48.000Z</time>
      </trkpt>
      <trkpt lat="43.61294" lon="6.85013">
        <ele>223</ele>
        <time>2019-02-07T08:32:49.000Z</time>
      </trkpt>
      <trkpt lat="43.61296" lon="6.85013">
        <ele>223</ele>
        <time>2019-02-07T08:32:50.000Z</time>
      </trkpt>
      <trkpt lat="43.61297" lon="6.85012">
        <ele>223</ele>
        <time>2019-02-07T08:32:51.000Z</time>
      </trkpt>
      <trkpt lat="43.61298" lon="6.85011">
        <ele>223</ele>
        <time>2019-02-07T08:32:52.000Z</time>
      </trkpt>
      <trkpt lat="43.613" lon="6.8501">
        <ele>224</ele>
        <time>2019-02-07T08:32:53.000Z</time>
      </trkpt>
      <trkpt lat="43.61302" lon="6.8501">
        <ele>224</ele>
        <time>2019-02-07T08:32:54.000Z</time>
      </trkpt>
      <trkpt lat="43.61303" lon="6.85009">
        <ele>223</ele>
        <time>2019-02-07T08:32:55.000Z</time>
      </trkpt>
      <trkpt lat="43.61305" lon="6.85009">
        <ele>223</ele>
        <time>2019-02-07T08:32:56.000Z</time>
      </trkpt>
      <trkpt lat="43.61307" lon="6.85009">
        <ele>223</ele>
        <time>2019-02-07T08:32:57.000Z</time>
      </trkpt>
      <trkpt lat="43.61309" lon="6.85009">
        <ele>224</ele>
        <time>2019-02-07T08:32:58.000Z</time>
      </trkpt>
      <trkpt lat="43.61311" lon="6.8501">
        <ele>223</ele>
        <time>2019-02-07T08:32:59.000Z</time>
      </trkpt>
      <trkpt lat="43.61313" lon="6.8501">
        <ele>224</ele>
        <time>2019-02-07T08:33:00.000Z</time>
      </trkpt>
      <trkpt lat="43.61315" lon="6.8501">
        <ele>224</ele>
        <time>2019-02-07T08:33:01.000Z</time>
      </trkpt>
      <trkpt lat="43.61317" lon="6.85011">
        <ele>225</ele>
        <time>2019-02-07T08:33:02.000Z</time>
      </trkpt>
      <trkpt lat="43.61319" lon="6.85012">
        <ele>226</ele>
        <time>2019-02-07T08:33:03.000Z</time>
      </trkpt>
      <trkpt lat="43.61321" lon="6.85012">
        <ele>226</ele>
        <time>2019-02-07T08:33:04.000Z</time>
      </trkpt>
      <trkpt lat="43.61323" lon="6.85014">
        <ele>222</ele>
        <time>2019-02-07T08:33:05.000Z</time>
      </trkpt>
      <trkpt lat="43.61325" lon="6.85016">
        <ele>222</ele>
        <time>2019-02-07T08:33:06.000Z</time>
      </trkpt>
      <trkpt lat="43.61327" lon="6.85018">
        <ele>222</ele>
        <time>2019-02-07T08:33:07.000Z</time>
      </trkpt>
      <trkpt lat="43.61329" lon="6.8502">
        <ele>223</ele>
        <time>2019-02-07T08:33:08.000Z</time>
      </trkpt>
      <trkpt lat="43.61331" lon="6.85022">
        <ele>222</ele>
        <time>2019-02-07T08:33:09.000Z</time>
      </trkpt>
      <trkpt lat="43.61333" lon="6.85024">
        <ele>222</ele>
        <time>2019-02-07T08:33:10.000Z</time>
      </trkpt>
      <trkpt lat="43.61334" lon="6.85027">
        <ele>222</ele>
        <time>2019-02-07T08:33:11.000Z</time>
      </trkpt>
      <trkpt lat="43.61336" lon="6.85028">
        <ele>222</ele>
        <time>2019-02-07T08:33:12.000Z</time>
      </trkpt>
      <trkpt lat="43.61337" lon="6.8503">
        <ele>223</ele>
        <time>2019-02-07T08:33:13.000Z</time>
      </trkpt>
      <trkpt lat="43.61338" lon="6.85032">
        <ele>224</ele>
        <time>2019-02-07T08:33:14.000Z</time>
      </trkpt>
      <trkpt lat="43.61339" lon="6.85035">
        <ele>223</ele>
        <time>2019-02-07T08:33:15.000Z</time>
      </trkpt>
      <trkpt lat="43.6134" lon="6.85038">
        <ele>222</ele>
        <time>2019-02-07T08:33:16.000Z</time>
      </trkpt>
      <trkpt lat="43.61341" lon="6.8504">
        <ele>222</ele>
        <time>2019-02-07T08:33:17.000Z</time>
      </trkpt>
      <trkpt lat="43.61341" lon="6.85043">
        <ele>222</ele>
        <time>2019-02-07T08:33:18.000Z</time>
      </trkpt>
      <trkpt lat="43.61342" lon="6.85045">
        <ele>221</ele>
        <time>2019-02-07T08:33:19.000Z</time>
      </trkpt>
      <trkpt lat="43.61342" lon="6.85048">
        <ele>222</ele>
        <time>2019-02-07T08:33:20.000Z</time>
      </trkpt>
      <trkpt lat="43.61343" lon="6.8505">
        <ele>221</ele>
        <time>2019-02-07T08:33:21.000Z</time>
      </trkpt>
      <trkpt lat="43.61343" lon="6.85052">
        <ele>220</ele>
        <time>2019-02-07T08:33:22.000Z</time>
      </trkpt>
      <trkpt lat="43.61344" lon="6.85055">
        <ele>220</ele>
        <time>2019-02-07T08:33:23.000Z</time>
      </trkpt>
      <trkpt lat="43.61345" lon="6.85057">
        <ele>220</ele>
        <time>2019-02-07T08:33:24.000Z</time>
      </trkpt>
      <trkpt lat="43.61347" lon="6.85059">
        <ele>221</ele>
        <time>2019-02-07T08:33:25.000Z</time>
      </trkpt>
      <trkpt lat="43.61348" lon="6.85062">
        <ele>221</ele>
        <time>2019-02-07T08:33:26.000Z</time>
      </trkpt>
      <trkpt lat="43.61349" lon="6.85064">
        <ele>221</ele>
        <time>2019-02-07T08:33:27.000Z</time>
      </trkpt>
      <trkpt lat="43.61349" lon="6.85067">
        <ele>221</ele>
        <time>2019-02-07T08:33:28.000Z</time>
      </trkpt>
      <trkpt lat="43.61349" lon="6.8507">
        <ele>223</ele>
        <time>2019-02-07T08:33:29.000Z</time>
      </trkpt>
      <trkpt lat="43.61349" lon="6.85073">
        <ele>223</ele>
        <time>2019-02-07T08:33:30.000Z</time>
      </trkpt>
      <trkpt lat="43.6135" lon="6.85076">
        <ele>223</ele>
        <time>2019-02-07T08:33:31.000Z</time>
      </trkpt>
      <trkpt lat="43.61351" lon="6.85078">
        <ele>224</ele>
        <time>2019-02-07T08:33:32.000Z</time>
      </trkpt>
      <trkpt lat="43.61351" lon="6.85081">
        <ele>225</ele>
        <time>2019-02-07T08:33:33.000Z</time>
      </trkpt>
      <trkpt lat="43.61352" lon="6.85083">
        <ele>226</ele>
        <time>2019-02-07T08:33:34.000Z</time>
      </trkpt>
      <trkpt lat="43.61353" lon="6.85085">
        <ele>227</ele>
        <time>2019-02-07T08:33:35.000Z</time>
      </trkpt>
      <trkpt lat="43.61354" lon="6.85087">
        <ele>229</ele>
        <time>2019-02-07T08:33:36.000Z</time>
      </trkpt>
      <trkpt lat="43.61355" lon="6.85089">
        <ele>229</ele>
        <time>2019-02-07T08:33:37.000Z</time>
      </trkpt>
      <trkpt lat="43.61357" lon="6.85091">
        <ele>230</ele>
        <time>2019-02-07T08:33:38.000Z</time>
      </trkpt>
      <trkpt lat="43.61357" lon="6.85093">
        <ele>231</ele>
        <time>2019-02-07T08:33:39.000Z</time>
      </trkpt>
      <trkpt lat="43.61358" lon="6.85095">
        <ele>232</ele>
        <time>2019-02-07T08:33:40.000Z</time>
      </trkpt>
      <trkpt lat="43.61359" lon="6.85097">
        <ele>232</ele>
        <time>2019-02-07T08:33:41.000Z</time>
      </trkpt>
      <trkpt lat="43.61359" lon="6.85099">
        <ele>233</ele>
        <time>2019-02-07T08:33:42.000Z</time>
      </trkpt>
      <trkpt lat="43.6136" lon="6.85101">
        <ele>233</ele>
        <time>2019-02-07T08:33:43.000Z</time>
      </trkpt>
      <trkpt lat="43.61361" lon="6.85103">
        <ele>233</ele>
        <time>2019-02-07T08:33:44.000Z</time>
      </trkpt>
      <trkpt lat="43.61362" lon="6.85105">
        <ele>234</ele>
        <time>2019-02-07T08:33:45.000Z</time>
      </trkpt>
      <trkpt lat="43.61363" lon="6.85107">
        <ele>234</ele>
        <time>2019-02-07T08:33:46.000Z</time>
      </trkpt>
      <trkpt lat="43.61364" lon="6.85109">
        <ele>235</ele>
        <time>2019-02-07T08:33:47.000Z</time>
      </trkpt>
      <trkpt lat="43.61365" lon="6.85111">
        <ele>235</ele>
        <time>2019-02-07T08:33:48.000Z</time>
      </trkpt>
      <trkpt lat="43.61366" lon="6.85113">
        <ele>235</ele>
        <time>2019-02-07T08:33:49.000Z</time>
      </trkpt>
      <trkpt lat="43.61367" lon="6.85115">
        <ele>235</ele>
        <time>2019-02-07T08:33:50.000Z</time>
      </trkpt>
      <trkpt lat="43.61368" lon="6.85117">
        <ele>235</ele>
        <time>2019-02-07T08:33:51.000Z</time>
      </trkpt>
      <trkpt lat="43.61369" lon="6.85119">
        <ele>234</ele>
        <time>2019-02-07T08:33:52.000Z</time>
      </trkpt>
      <trkpt lat="43.6137" lon="6.85121">
        <ele>234</ele>
        <time>2019-02-07T08:33:53.000Z</time>
      </trkpt>
      <trkpt lat="43.61371" lon="6.85123">
        <ele>233</ele>
        <time>2019-02-07T08:33:54.000Z</time>
      </trkpt>
      <trkpt lat="43.61372" lon="6.85125">
        <ele>234</ele>
        <time>2019-02-07T08:33:55.000Z</time>
      </trkpt>
      <trkpt lat="43.61373" lon="6.85127">
        <ele>234</ele>
        <time>2019-02-07T08:33:56.000Z</time>
      </trkpt>
      <trkpt lat="43.61374" lon="6.85129">
        <ele>234</ele>
        <time>2019-02-07T08:33:57.000Z</time>
      </trkpt>
      <trkpt lat="43.61375" lon="6.85132">
        <ele>233</ele>
        <time>2019-02-07T08:33:58.000Z</time>
      </trkpt>
      <trkpt lat="43.61375" lon="6.85135">
        <ele>232</ele>
        <time>2019-02-07T08:33:59.000Z</time>
      </trkpt>
      <trkpt lat="43.61375" lon="6.85137">
        <ele>233</ele>
        <time>2019-02-07T08:34:00.000Z</time>
      </trkpt>
      <trkpt lat="43.61375" lon="6.85139">
        <ele>233</ele>
        <time>2019-02-07T08:34:01.000Z</time>
      </trkpt>
      <trkpt lat="43.61375" lon="6.85142">
        <ele>233</ele>
        <time>2019-02-07T08:34:02.000Z</time>
      </trkpt>
      <trkpt lat="43.61376" lon="6.85144">
        <ele>232</ele>
        <time>2019-02-07T08:34:03.000Z</time>
      </trkpt>
      <trkpt lat="43.61377" lon="6.85146">
        <ele>233</ele>
        <time>2019-02-07T08:34:04.000Z</time>
      </trkpt>
      <trkpt lat="43.61378" lon="6.85148">
        <ele>233</ele>
        <time>2019-02-07T08:34:05.000Z</time>
      </trkpt>
      <trkpt lat="43.61379" lon="6.8515">
        <ele>234</ele>
        <time>2019-02-07T08:34:06.000Z</time>
      </trkpt>
      <trkpt lat="43.61381" lon="6.85152">
        <ele>233</ele>
        <time>2019-02-07T08:34:07.000Z</time>
      </trkpt>
      <trkpt lat="43.61382" lon="6.85154">
        <ele>234</ele>
        <time>2019-02-07T08:34:08.000Z</time>
      </trkpt>
      <trkpt lat="43.61384" lon="6.85156">
        <ele>235</ele>
        <time>2019-02-07T08:34:09.000Z</time>
      </trkpt>
      <trkpt lat="43.61386" lon="6.85157">
        <ele>235</ele>
        <time>2019-02-07T08:34:10.000Z</time>
      </trkpt>
      <trkpt lat="43.61388" lon="6.8516">
        <ele>235</ele>
        <time>2019-02-07T08:34:11.000Z</time>
      </trkpt>
      <trkpt lat="43.6139" lon="6.85162">
        <ele>235</ele>
        <time>2019-02-07T08:34:12.000Z</time>
      </trkpt>
      <trkpt lat="43.61391" lon="6.85164">
        <ele>236</ele>
        <time>2019-02-07T08:34:13.000Z</time>
      </trkpt>
      <trkpt lat="43.61393" lon="6.85166">
        <ele>236</ele>
        <time>2019-02-07T08:34:14.000Z</time>
      </trkpt>
      <trkpt lat="43.61395" lon="6.85168">
        <ele>237</ele>
        <time>2019-02-07T08:34:15.000Z</time>
      </trkpt>
      <trkpt lat="43.61397" lon="6.8517">
        <ele>235</ele>
        <time>2019-02-07T08:34:16.000Z</time>
      </trkpt>
      <trkpt lat="43.61399" lon="6.85172">
        <ele>235</ele>
        <time>2019-02-07T08:34:17.000Z</time>
      </trkpt>
      <trkpt lat="43.61401" lon="6.85173">
        <ele>235</ele>
        <time>2019-02-07T08:34:18.000Z</time>
      </trkpt>
      <trkpt lat="43.61403" lon="6.85175">
        <ele>234</ele>
        <time>2019-02-07T08:34:19.000Z</time>
      </trkpt>
      <trkpt lat="43.61405" lon="6.85177">
        <ele>234</ele>
        <time>2019-02-07T08:34:20.000Z</time>
      </trkpt>
      <trkpt lat="43.61407" lon="6.85179">
        <ele>234</ele>
        <time>2019-02-07T08:34:21.000Z</time>
      </trkpt>
      <trkpt lat="43.61409" lon="6.8518">
        <ele>234</ele>
        <time>2019-02-07T08:34:22.000Z</time>
      </trkpt>
      <trkpt lat="43.61411" lon="6.85182">
        <ele>233</ele>
        <time>2019-02-07T08:34:23.000Z</time>
      </trkpt>
      <trkpt lat="43.61412" lon="6.85183">
        <ele>233</ele>
        <time>2019-02-07T08:34:24.000Z</time>
      </trkpt>
      <trkpt lat="43.61414" lon="6.85184">
        <ele>234</ele>
        <time>2019-02-07T08:34:25.000Z</time>
      </trkpt>
      <trkpt lat="43.61416" lon="6.85185">
        <ele>234</ele>
        <time>2019-02-07T08:34:26.000Z</time>
      </trkpt>
      <trkpt lat="43.61418" lon="6.85187">
        <ele>234</ele>
        <time>2019-02-07T08:34:27.000Z</time>
      </trkpt>
      <trkpt lat="43.6142" lon="6.85189">
        <ele>234</ele>
        <time>2019-02-07T08:34:28.000Z</time>
      </trkpt>
      <trkpt lat="43.61422" lon="6.85191">
        <ele>233</ele>
        <time>2019-02-07T08:34:29.000Z</time>
      </trkpt>
      <trkpt lat="43.61424" lon="6.85193">
        <ele>233</ele>
        <time>2019-02-07T08:34:30.000Z</time>
      </trkpt>
      <trkpt lat="43.61426" lon="6.85195">
        <ele>234</ele>
        <time>2019-02-07T08:34:31.000Z</time>
      </trkpt>
      <trkpt lat="43.61428" lon="6.85197">
        <ele>234</ele>
        <time>2019-02-07T08:34:32.000Z</time>
      </trkpt>
      <trkpt lat="43.6143" lon="6.85199">
        <ele>233</ele>
        <time>2019-02-07T08:34:33.000Z</time>
      </trkpt>
      <trkpt lat="43.61431" lon="6.85201">
        <ele>233</ele>
        <time>2019-02-07T08:34:34.000Z</time>
      </trkpt>
      <trkpt lat="43.61433" lon="6.85203">
        <ele>233</ele>
        <time>2019-02-07T08:34:35.000Z</time>
      </trkpt>
      <trkpt lat="43.61435" lon="6.85205">
        <ele>233</ele>
        <time>2019-02-07T08:34:36.000Z</time>
      </trkpt>
      <trkpt lat="43.61437" lon="6.85207">
        <ele>233</ele>
        <time>2019-02-07T08:34:37.000Z</time>
      </trkpt>
      <trkpt lat="43.61439" lon="6.85209">
        <ele>233</ele>
        <time>2019-02-07T08:34:38.000Z</time>
      </trkpt>
      <trkpt lat="43.6144" lon="6.85211">
        <ele>233</ele>
        <time>2019-02-07T08:34:39.000Z</time>
      </trkpt>
      <trkpt lat="43.61443" lon="6.85212">
        <ele>233</ele>
        <time>2019-02-07T08:34:40.000Z</time>
      </trkpt>
      <trkpt lat="43.61445" lon="6.85213">
        <ele>233</ele>
        <time>2019-02-07T08:34:41.000Z</time>
      </trkpt>
      <trkpt lat="43.61447" lon="6.85215">
        <ele>233</ele>
        <time>2019-02-07T08:34:42.000Z</time>
      </trkpt>
      <trkpt lat="43.61449" lon="6.85216">
        <ele>233</ele>
        <time>2019-02-07T08:34:43.000Z</time>
      </trkpt>
      <trkpt lat="43.61451" lon="6.85218">
        <ele>233</ele>
        <time>2019-02-07T08:34:44.000Z</time>
      </trkpt>
      <trkpt lat="43.61453" lon="6.8522">
        <ele>233</ele>
        <time>2019-02-07T08:34:45.000Z</time>
      </trkpt>
      <trkpt lat="43.61455" lon="6.85221">
        <ele>233</ele>
        <time>2019-02-07T08:34:46.000Z</time>
      </trkpt>
      <trkpt lat="43.61457" lon="6.85223">
        <ele>234</ele>
        <time>2019-02-07T08:34:47.000Z</time>
      </trkpt>
      <trkpt lat="43.61459" lon="6.85224">
        <ele>234</ele>
        <time>2019-02-07T08:34:48.000Z</time>
      </trkpt>
      <trkpt lat="43.61461" lon="6.85226">
        <ele>234</ele>
        <time>2019-02-07T08:34:49.000Z</time>
      </trkpt>
      <trkpt lat="43.61463" lon="6.85228">
        <ele>234</ele>
        <time>2019-02-07T08:34:50.000Z</time>
      </trkpt>
      <trkpt lat="43.61465" lon="6.85229">
        <ele>235</ele>
        <time>2019-02-07T08:34:51.000Z</time>
      </trkpt>
      <trkpt lat="43.61467" lon="6.8523">
        <ele>235</ele>
        <time>2019-02-07T08:34:52.000Z</time>
      </trkpt>
      <trkpt lat="43.6147" lon="6.85231">
        <ele>235</ele>
        <time>2019-02-07T08:34:53.000Z</time>
      </trkpt>
      <trkpt lat="43.61472" lon="6.85232">
        <ele>235</ele>
        <time>2019-02-07T08:34:54.000Z</time>
      </trkpt>
      <trkpt lat="43.61474" lon="6.85232">
        <ele>235</ele>
        <time>2019-02-07T08:34:55.000Z</time>
      </trkpt>
      <trkpt lat="43.61476" lon="6.85233">
        <ele>235</ele>
        <time>2019-02-07T08:34:56.000Z</time>
      </trkpt>
      <trkpt lat="43.61478" lon="6.85233">
        <ele>235</ele>
        <time>2019-02-07T08:34:57.000Z</time>
      </trkpt>
      <trkpt lat="43.6148" lon="6.85233">
        <ele>236</ele>
        <time>2019-02-07T08:34:58.000Z</time>
      </trkpt>
      <trkpt lat="43.61483" lon="6.85233">
        <ele>236</ele>
        <time>2019-02-07T08:34:59.000Z</time>
      </trkpt>
      <trkpt lat="43.61485" lon="6.85234">
        <ele>236</ele>
        <time>2019-02-07T08:35:00.000Z</time>
      </trkpt>
      <trkpt lat="43.61487" lon="6.85234">
        <ele>236</ele>
        <time>2019-02-07T08:35:01.000Z</time>
      </trkpt>
      <trkpt lat="43.61489" lon="6.85235">
        <ele>236</ele>
        <time>2019-02-07T08:35:02.000Z</time>
      </trkpt>
      <trkpt lat="43.61491" lon="6.85236">
        <ele>236</ele>
        <time>2019-02-07T08:35:03.000Z</time>
      </trkpt>
      <trkpt lat="43.61493" lon="6.85237">
        <ele>235</ele>
        <time>2019-02-07T08:35:04.000Z</time>
      </trkpt>
      <trkpt lat="43.61495" lon="6.85238">
        <ele>236</ele>
        <time>2019-02-07T08:35:05.000Z</time>
      </trkpt>
      <trkpt lat="43.61497" lon="6.85238">
        <ele>236</ele>
        <time>2019-02-07T08:35:06.000Z</time>
      </trkpt>
      <trkpt lat="43.615" lon="6.85239">
        <ele>236</ele>
        <time>2019-02-07T08:35:07.000Z</time>
      </trkpt>
      <trkpt lat="43.61502" lon="6.85239">
        <ele>236</ele>
        <time>2019-02-07T08:35:08.000Z</time>
      </trkpt>
      <trkpt lat="43.61504" lon="6.8524">
        <ele>236</ele>
        <time>2019-02-07T08:35:09.000Z</time>
      </trkpt>
      <trkpt lat="43.61506" lon="6.85241">
        <ele>235</ele>
        <time>2019-02-07T08:35:10.000Z</time>
      </trkpt>
      <trkpt lat="43.61508" lon="6.85241">
        <ele>236</ele>
        <time>2019-02-07T08:35:11.000Z</time>
      </trkpt>
      <trkpt lat="43.61511" lon="6.85242">
        <ele>237</ele>
        <time>2019-02-07T08:35:12.000Z</time>
      </trkpt>
      <trkpt lat="43.61513" lon="6.85243">
        <ele>237</ele>
        <time>2019-02-07T08:35:13.000Z</time>
      </trkpt>
      <trkpt lat="43.61516" lon="6.85244">
        <ele>238</ele>
        <time>2019-02-07T08:35:14.000Z</time>
      </trkpt>
      <trkpt lat="43.61518" lon="6.85245">
        <ele>238</ele>
        <time>2019-02-07T08:35:15.000Z</time>
      </trkpt>
      <trkpt lat="43.6152" lon="6.85246">
        <ele>239</ele>
        <time>2019-02-07T08:35:16.000Z</time>
      </trkpt>
      <trkpt lat="43.61523" lon="6.85246">
        <ele>239</ele>
        <time>2019-02-07T08:35:17.000Z</time>
      </trkpt>
      <trkpt lat="43.61525" lon="6.85247">
        <ele>240</ele>
        <time>2019-02-07T08:35:18.000Z</time>
      </trkpt>
      <trkpt lat="43.61527" lon="6.85247">
        <ele>240</ele>
        <time>2019-02-07T08:35:19.000Z</time>
      </trkpt>
      <trkpt lat="43.6153" lon="6.85248">
        <ele>240</ele>
        <time>2019-02-07T08:35:20.000Z</time>
      </trkpt>
      <trkpt lat="43.61532" lon="6.85249">
        <ele>240</ele>
        <time>2019-02-07T08:35:21.000Z</time>
      </trkpt>
      <trkpt lat="43.61535" lon="6.85249">
        <ele>239</ele>
        <time>2019-02-07T08:35:22.000Z</time>
      </trkpt>
      <trkpt lat="43.61537" lon="6.85249">
        <ele>237</ele>
        <time>2019-02-07T08:35:23.000Z</time>
      </trkpt>
      <trkpt lat="43.61539" lon="6.85249">
        <ele>237</ele>
        <time>2019-02-07T08:35:24.000Z</time>
      </trkpt>
      <trkpt lat="43.61541" lon="6.8525">
        <ele>237</ele>
        <time>2019-02-07T08:35:25.000Z</time>
      </trkpt>
      <trkpt lat="43.61542" lon="6.85249">
        <ele>238</ele>
        <time>2019-02-07T08:35:26.000Z</time>
      </trkpt>
      <trkpt lat="43.61544" lon="6.85248">
        <ele>238</ele>
        <time>2019-02-07T08:35:27.000Z</time>
      </trkpt>
      <trkpt lat="43.61545" lon="6.85247">
        <ele>237</ele>
        <time>2019-02-07T08:35:28.000Z</time>
      </trkpt>
      <trkpt lat="43.61545" lon="6.85245">
        <ele>238</ele>
        <time>2019-02-07T08:35:29.000Z</time>
      </trkpt>
      <trkpt lat="43.61545" lon="6.85243">
        <ele>237</ele>
        <time>2019-02-07T08:35:30.000Z</time>
      </trkpt>
      <trkpt lat="43.61544" lon="6.85241">
        <ele>234</ele>
        <time>2019-02-07T08:35:31.000Z</time>
      </trkpt>
      <trkpt lat="43.61544" lon="6.85239">
        <ele>233</ele>
        <time>2019-02-07T08:35:32.000Z</time>
      </trkpt>
      <trkpt lat="43.61543" lon="6.85237">
        <ele>232</ele>
        <time>2019-02-07T08:35:33.000Z</time>
      </trkpt>
      <trkpt lat="43.61543" lon="6.85235">
        <ele>231</ele>
        <time>2019-02-07T08:35:34.000Z</time>
      </trkpt>
      <trkpt lat="43.61542" lon="6.85233">
        <ele>231</ele>
        <time>2019-02-07T08:35:35.000Z</time>
      </trkpt>
      <trkpt lat="43.61541" lon="6.85231">
        <ele>230</ele>
        <time>2019-02-07T08:35:36.000Z</time>
      </trkpt>
      <trkpt lat="43.61541" lon="6.85229">
        <ele>230</ele>
        <time>2019-02-07T08:35:37.000Z</time>
      </trkpt>
      <trkpt lat="43.6154" lon="6.85227">
        <ele>229</ele>
        <time>2019-02-07T08:35:38.000Z</time>
      </trkpt>
      <trkpt lat="43.6154" lon="6.85225">
        <ele>227</ele>
        <time>2019-02-07T08:35:39.000Z</time>
      </trkpt>
      <trkpt lat="43.61541" lon="6.85223">
        <ele>227</ele>
        <time>2019-02-07T08:35:40.000Z</time>
      </trkpt>
      <trkpt lat="43.61542" lon="6.85221">
        <ele>227</ele>
        <time>2019-02-07T08:35:41.000Z</time>
      </trkpt>
      <trkpt lat="43.61542" lon="6.85219">
        <ele>226</ele>
        <time>2019-02-07T08:35:42.000Z</time>
      </trkpt>
      <trkpt lat="43.61542" lon="6.85217">
        <ele>225</ele>
        <time>2019-02-07T08:35:43.000Z</time>
      </trkpt>
      <trkpt lat="43.61542" lon="6.85215">
        <ele>224</ele>
        <time>2019-02-07T08:35:44.000Z</time>
      </trkpt>
      <trkpt lat="43.61542" lon="6.85213">
        <ele>224</ele>
        <time>2019-02-07T08:35:45.000Z</time>
      </trkpt>
      <trkpt lat="43.61542" lon="6.85211">
        <ele>224</ele>
        <time>2019-02-07T08:35:46.000Z</time>
      </trkpt>
      <trkpt lat="43.61542" lon="6.85209">
        <ele>224</ele>
        <time>2019-02-07T08:35:47.000Z</time>
      </trkpt>
      <trkpt lat="43.61543" lon="6.85207">
        <ele>224</ele>
        <time>2019-02-07T08:35:48.000Z</time>
      </trkpt>
      <trkpt lat="43.61544" lon="6.85205">
        <ele>224</ele>
        <time>2019-02-07T08:35:49.000Z</time>
      </trkpt>
      <trkpt lat="43.61545" lon="6.85204">
        <ele>223</ele>
        <time>2019-02-07T08:35:50.000Z</time>
      </trkpt>
      <trkpt lat="43.61546" lon="6.85202">
        <ele>223</ele>
        <time>2019-02-07T08:35:51.000Z</time>
      </trkpt>
      <trkpt lat="43.61547" lon="6.852">
        <ele>222</ele>
        <time>2019-02-07T08:35:52.000Z</time>
      </trkpt>
      <trkpt lat="43.61548" lon="6.85199">
        <ele>222</ele>
        <time>2019-02-07T08:35:53.000Z</time>
      </trkpt>
      <trkpt lat="43.61549" lon="6.85197">
        <ele>221</ele>
        <time>2019-02-07T08:35:54.000Z</time>
      </trkpt>
      <trkpt lat="43.6155" lon="6.85196">
        <ele>220</ele>
        <time>2019-02-07T08:35:55.000Z</time>
      </trkpt>
      <trkpt lat="43.61551" lon="6.85194">
        <ele>220</ele>
        <time>2019-02-07T08:35:56.000Z</time>
      </trkpt>
      <trkpt lat="43.61551" lon="6.85192">
        <ele>217</ele>
        <time>2019-02-07T08:35:57.000Z</time>
      </trkpt>
      <trkpt lat="43.6155" lon="6.8519">
        <ele>217</ele>
        <time>2019-02-07T08:35:58.000Z</time>
      </trkpt>
      <trkpt lat="43.61548" lon="6.85189">
        <ele>216</ele>
        <time>2019-02-07T08:35:59.000Z</time>
      </trkpt>
      <trkpt lat="43.61547" lon="6.85187">
        <ele>215</ele>
        <time>2019-02-07T08:36:00.000Z</time>
      </trkpt>
      <trkpt lat="43.61546" lon="6.85186">
        <ele>215</ele>
        <time>2019-02-07T08:36:01.000Z</time>
      </trkpt>
      <trkpt lat="43.61545" lon="6.85184">
        <ele>215</ele>
        <time>2019-02-07T08:36:02.000Z</time>
      </trkpt>
      <trkpt lat="43.61545" lon="6.85182">
        <ele>213</ele>
        <time>2019-02-07T08:36:03.000Z</time>
      </trkpt>
      <trkpt lat="43.61545" lon="6.8518">
        <ele>213</ele>
        <time>2019-02-07T08:36:04.000Z</time>
      </trkpt>
      <trkpt lat="43.61546" lon="6.85179">
        <ele>213</ele>
        <time>2019-02-07T08:36:05.000Z</time>
      </trkpt>
      <trkpt lat="43.61546" lon="6.85177">
        <ele>212</ele>
        <time>2019-02-07T08:36:06.000Z</time>
      </trkpt>
      <trkpt lat="43.61547" lon="6.85176">
        <ele>212</ele>
        <time>2019-02-07T08:36:07.000Z</time>
      </trkpt>
      <trkpt lat="43.61548" lon="6.85175">
        <ele>212</ele>
        <time>2019-02-07T08:36:08.000Z</time>
      </trkpt>
      <trkpt lat="43.61549" lon="6.85175">
        <ele>213</ele>
        <time>2019-02-07T08:36:09.000Z</time>
      </trkpt>
      <trkpt lat="43.6155" lon="6.85174">
        <ele>213</ele>
        <time>2019-02-07T08:36:10.000Z</time>
      </trkpt>
      <trkpt lat="43.61551" lon="6.85173">
        <ele>213</ele>
        <time>2019-02-07T08:36:11.000Z</time>
      </trkpt>
      <trkpt lat="43.61551" lon="6.85173">
        <ele>213</ele>
        <time>2019-02-07T08:36:12.000Z</time>
      </trkpt>
      <trkpt lat="43.61551" lon="6.85171">
        <ele>213</ele>
        <time>2019-02-07T08:36:13.000Z</time>
      </trkpt>
      <trkpt lat="43.61551" lon="6.85169">
        <ele>213</ele>
        <time>2019-02-07T08:36:14.000Z</time>
      </trkpt>
      <trkpt lat="43.61551" lon="6.85167">
        <ele>212</ele>
        <time>2019-02-07T08:36:15.000Z</time>
      </trkpt>
      <trkpt lat="43.6155" lon="6.85166">
        <ele>211</ele>
        <time>2019-02-07T08:36:16.000Z</time>
      </trkpt>
      <trkpt lat="43.6155" lon="6.85165">
        <ele>211</ele>
        <time>2019-02-07T08:36:17.000Z</time>
      </trkpt>
      <trkpt lat="43.6155" lon="6.85164">
        <ele>212</ele>
        <time>2019-02-07T08:36:18.000Z</time>
      </trkpt>
      <trkpt lat="43.6155" lon="6.85162">
        <ele>212</ele>
        <time>2019-02-07T08:36:19.000Z</time>
      </trkpt>
      <trkpt lat="43.6155" lon="6.8516">
        <ele>211</ele>
        <time>2019-02-07T08:36:20.000Z</time>
      </trkpt>
      <trkpt lat="43.6155" lon="6.85159">
        <ele>211</ele>
        <time>2019-02-07T08:36:21.000Z</time>
      </trkpt>
      <trkpt lat="43.6155" lon="6.85157">
        <ele>211</ele>
        <time>2019-02-07T08:36:22.000Z</time>
      </trkpt>
      <trkpt lat="43.61551" lon="6.85156">
        <ele>210</ele>
        <time>2019-02-07T08:36:23.000Z</time>
      </trkpt>
      <trkpt lat="43.61552" lon="6.85155">
        <ele>209</ele>
        <time>2019-02-07T08:36:24.000Z</time>
      </trkpt>
      <trkpt lat="43.61553" lon="6.85154">
        <ele>209</ele>
        <time>2019-02-07T08:36:25.000Z</time>
      </trkpt>
      <trkpt lat="43.61554" lon="6.85154">
        <ele>207</ele>
        <time>2019-02-07T08:36:26.000Z</time>
      </trkpt>
      <trkpt lat="43.61555" lon="6.85153">
        <ele>208</ele>
        <time>2019-02-07T08:36:27.000Z</time>
      </trkpt>
      <trkpt lat="43.61556" lon="6.85153">
        <ele>208</ele>
        <time>2019-02-07T08:36:28.000Z</time>
      </trkpt>
      <trkpt lat="43.61558" lon="6.85153">
        <ele>208</ele>
        <time>2019-02-07T08:36:29.000Z</time>
      </trkpt>
      <trkpt lat="43.61559" lon="6.85152">
        <ele>209</ele>
        <time>2019-02-07T08:36:30.000Z</time>
      </trkpt>
      <trkpt lat="43.61561" lon="6.85152">
        <ele>208</ele>
        <time>2019-02-07T08:36:31.000Z</time>
      </trkpt>
      <trkpt lat="43.61563" lon="6.85151">
        <ele>207</ele>
        <time>2019-02-07T08:36:32.000Z</time>
      </trkpt>
      <trkpt lat="43.61564" lon="6.8515">
        <ele>206</ele>
        <time>2019-02-07T08:36:33.000Z</time>
      </trkpt>
      <trkpt lat="43.61566" lon="6.8515">
        <ele>206</ele>
        <time>2019-02-07T08:36:34.000Z</time>
      </trkpt>
      <trkpt lat="43.61568" lon="6.8515">
        <ele>206</ele>
        <time>2019-02-07T08:36:35.000Z</time>
      </trkpt>
      <trkpt lat="43.6157" lon="6.8515">
        <ele>205</ele>
        <time>2019-02-07T08:36:36.000Z</time>
      </trkpt>
      <trkpt lat="43.61572" lon="6.85151">
        <ele>205</ele>
        <time>2019-02-07T08:36:37.000Z</time>
      </trkpt>
      <trkpt lat="43.61574" lon="6.85151">
        <ele>204</ele>
        <time>2019-02-07T08:36:38.000Z</time>
      </trkpt>
      <trkpt lat="43.61576" lon="6.85151">
        <ele>204</ele>
        <time>2019-02-07T08:36:39.000Z</time>
      </trkpt>
      <trkpt lat="43.61577" lon="6.85151">
        <ele>203</ele>
        <time>2019-02-07T08:36:40.000Z</time>
      </trkpt>
      <trkpt lat="43.61579" lon="6.85152">
        <ele>204</ele>
        <time>2019-02-07T08:36:41.000Z</time>
      </trkpt>
      <trkpt lat="43.61582" lon="6.85153">
        <ele>204</ele>
        <time>2019-02-07T08:36:42.000Z</time>
      </trkpt>
      <trkpt lat="43.61584" lon="6.85154">
        <ele>205</ele>
        <time>2019-02-07T08:36:43.000Z</time>
      </trkpt>
      <trkpt lat="43.61586" lon="6.85155">
        <ele>205</ele>
        <time>2019-02-07T08:36:44.000Z</time>
      </trkpt>
      <trkpt lat="43.61587" lon="6.85156">
        <ele>205</ele>
        <time>2019-02-07T08:36:45.000Z</time>
      </trkpt>
      <trkpt lat="43.61589" lon="6.85157">
        <ele>204</ele>
        <time>2019-02-07T08:36:46.000Z</time>
      </trkpt>
      <trkpt lat="43.6159" lon="6.85158">
        <ele>206</ele>
        <time>2019-02-07T08:36:47.000Z</time>
      </trkpt>
      <trkpt lat="43.61592" lon="6.85159">
        <ele>205</ele>
        <time>2019-02-07T08:36:48.000Z</time>
      </trkpt>
      <trkpt lat="43.61593" lon="6.8516">
        <ele>205</ele>
        <time>2019-02-07T08:36:49.000Z</time>
      </trkpt>
      <trkpt lat="43.61594" lon="6.85161">
        <ele>205</ele>
        <time>2019-02-07T08:36:50.000Z</time>
      </trkpt>
      <trkpt lat="43.61595" lon="6.85162">
        <ele>205</ele>
        <time>2019-02-07T08:36:51.000Z</time>
      </trkpt>
      <trkpt lat="43.61596" lon="6.85163">
        <ele>206</ele>
        <time>2019-02-07T08:36:52.000Z</time>
      </trkpt>
      <trkpt lat="43.61597" lon="6.85163">
        <ele>207</ele>
        <time>2019-02-07T08:36:53.000Z</time>
      </trkpt>
      <trkpt lat="43.61599" lon="6.85164">
        <ele>207</ele>
        <time>2019-02-07T08:36:54.000Z</time>
      </trkpt>
      <trkpt lat="43.616" lon="6.85164">
        <ele>208</ele>
        <time>2019-02-07T08:36:55.000Z</time>
      </trkpt>
      <trkpt lat="43.61601" lon="6.85165">
        <ele>209</ele>
        <time>2019-02-07T08:36:56.000Z</time>
      </trkpt>
      <trkpt lat="43.61602" lon="6.85166">
        <ele>209</ele>
        <time>2019-02-07T08:36:57.000Z</time>
      </trkpt>
      <trkpt lat="43.61603" lon="6.85168">
        <ele>210</ele>
        <time>2019-02-07T08:36:58.000Z</time>
      </trkpt>
      <trkpt lat="43.61603" lon="6.85169">
        <ele>209</ele>
        <time>2019-02-07T08:36:59.000Z</time>
      </trkpt>
      <trkpt lat="43.61604" lon="6.85171">
        <ele>210</ele>
        <time>2019-02-07T08:37:00.000Z</time>
      </trkpt>
      <trkpt lat="43.61606" lon="6.85172">
        <ele>211</ele>
        <time>2019-02-07T08:37:01.000Z</time>
      </trkpt>
      <trkpt lat="43.61608" lon="6.85172">
        <ele>211</ele>
        <time>2019-02-07T08:37:02.000Z</time>
      </trkpt>
      <trkpt lat="43.6161" lon="6.85173">
        <ele>212</ele>
        <time>2019-02-07T08:37:03.000Z</time>
      </trkpt>
      <trkpt lat="43.61611" lon="6.85175">
        <ele>213</ele>
        <time>2019-02-07T08:37:04.000Z</time>
      </trkpt>
      <trkpt lat="43.61613" lon="6.85176">
        <ele>213</ele>
        <time>2019-02-07T08:37:05.000Z</time>
      </trkpt>
      <trkpt lat="43.61614" lon="6.85177">
        <ele>214</ele>
        <time>2019-02-07T08:37:06.000Z</time>
      </trkpt>
      <trkpt lat="43.61615" lon="6.85178">
        <ele>215</ele>
        <time>2019-02-07T08:37:07.000Z</time>
      </trkpt>
      <trkpt lat="43.61616" lon="6.85179">
        <ele>216</ele>
        <time>2019-02-07T08:37:08.000Z</time>
      </trkpt>
      <trkpt lat="43.61617" lon="6.8518">
        <ele>217</ele>
        <time>2019-02-07T08:37:09.000Z</time>
      </trkpt>
      <trkpt lat="43.61618" lon="6.85181">
        <ele>217</ele>
        <time>2019-02-07T08:37:10.000Z</time>
      </trkpt>
      <trkpt lat="43.6162" lon="6.85182">
        <ele>219</ele>
        <time>2019-02-07T08:37:11.000Z</time>
      </trkpt>
      <trkpt lat="43.61621" lon="6.85183">
        <ele>219</ele>
        <time>2019-02-07T08:37:12.000Z</time>
      </trkpt>
      <trkpt lat="43.61622" lon="6.85185">
        <ele>220</ele>
        <time>2019-02-07T08:37:13.000Z</time>
      </trkpt>
      <trkpt lat="43.61623" lon="6.85187">
        <ele>220</ele>
        <time>2019-02-07T08:37:14.000Z</time>
      </trkpt>
      <trkpt lat="43.61624" lon="6.85188">
        <ele>219</ele>
        <time>2019-02-07T08:37:15.000Z</time>
      </trkpt>
      <trkpt lat="43.61625" lon="6.85189">
        <ele>219</ele>
        <time>2019-02-07T08:37:16.000Z</time>
      </trkpt>
      <trkpt lat="43.61627" lon="6.8519">
        <ele>219</ele>
        <time>2019-02-07T08:37:17.000Z</time>
      </trkpt>
      <trkpt lat="43.61628" lon="6.85191">
        <ele>221</ele>
        <time>2019-02-07T08:37:18.000Z</time>
      </trkpt>
      <trkpt lat="43.6163" lon="6.85192">
        <ele>222</ele>
        <time>2019-02-07T08:37:19.000Z</time>
      </trkpt>
      <trkpt lat="43.61632" lon="6.85193">
        <ele>223</ele>
        <time>2019-02-07T08:37:20.000Z</time>
      </trkpt>
      <trkpt lat="43.61633" lon="6.85194">
        <ele>222</ele>
        <time>2019-02-07T08:37:21.000Z</time>
      </trkpt>
      <trkpt lat="43.61634" lon="6.85195">
        <ele>224</ele>
        <time>2019-02-07T08:37:22.000Z</time>
      </trkpt>
      <trkpt lat="43.61635" lon="6.85196">
        <ele>224</ele>
        <time>2019-02-07T08:37:23.000Z</time>
      </trkpt>
      <trkpt lat="43.61636" lon="6.85197">
        <ele>223</ele>
        <time>2019-02-07T08:37:24.000Z</time>
      </trkpt>
      <trkpt lat="43.61638" lon="6.85199">
        <ele>223</ele>
        <time>2019-02-07T08:37:25.000Z</time>
      </trkpt>
      <trkpt lat="43.61639" lon="6.85201">
        <ele>223</ele>
        <time>2019-02-07T08:37:26.000Z</time>
      </trkpt>
      <trkpt lat="43.61641" lon="6.85203">
        <ele>223</ele>
        <time>2019-02-07T08:37:27.000Z</time>
      </trkpt>
      <trkpt lat="43.61642" lon="6.85205">
        <ele>227</ele>
        <time>2019-02-07T08:37:28.000Z</time>
      </trkpt>
      <trkpt lat="43.61644" lon="6.85206">
        <ele>228</ele>
        <time>2019-02-07T08:37:29.000Z</time>
      </trkpt>
      <trkpt lat="43.61645" lon="6.85207">
        <ele>229</ele>
        <time>2019-02-07T08:37:30.000Z</time>
      </trkpt>
      <trkpt lat="43.61646" lon="6.85208">
        <ele>230</ele>
        <time>2019-02-07T08:37:31.000Z</time>
      </trkpt>
      <trkpt lat="43.61648" lon="6.85209">
        <ele>230</ele>
        <time>2019-02-07T08:37:32.000Z</time>
      </trkpt>
      <trkpt lat="43.61648" lon="6.8521">
        <ele>229</ele>
        <time>2019-02-07T08:37:33.000Z</time>
      </trkpt>
      <trkpt lat="43.61649" lon="6.85211">
        <ele>230</ele>
        <time>2019-02-07T08:37:34.000Z</time>
      </trkpt>
      <trkpt lat="43.6165" lon="6.85212">
        <ele>229</ele>
        <time>2019-02-07T08:37:35.000Z</time>
      </trkpt>
      <trkpt lat="43.6165" lon="6.85213">
        <ele>227</ele>
        <time>2019-02-07T08:37:36.000Z</time>
      </trkpt>
      <trkpt lat="43.61651" lon="6.85215">
        <ele>228</ele>
        <time>2019-02-07T08:37:37.000Z</time>
      </trkpt>
      <trkpt lat="43.61652" lon="6.85216">
        <ele>228</ele>
        <time>2019-02-07T08:37:38.000Z</time>
      </trkpt>
      <trkpt lat="43.61653" lon="6.85217">
        <ele>230</ele>
        <time>2019-02-07T08:37:39.000Z</time>
      </trkpt>
      <trkpt lat="43.61653" lon="6.85218">
        <ele>230</ele>
        <time>2019-02-07T08:37:40.000Z</time>
      </trkpt>
      <trkpt lat="43.61654" lon="6.85219">
        <ele>230</ele>
        <time>2019-02-07T08:37:41.000Z</time>
      </trkpt>
      <trkpt lat="43.61655" lon="6.85221">
        <ele>230</ele>
        <time>2019-02-07T08:37:42.000Z</time>
      </trkpt>
      <trkpt lat="43.61655" lon="6.85222">
        <ele>231</ele>
        <time>2019-02-07T08:37:43.000Z</time>
      </trkpt>
      <trkpt lat="43.61657" lon="6.85222">
        <ele>232</ele>
        <time>2019-02-07T08:37:44.000Z</time>
      </trkpt>
      <trkpt lat="43.61658" lon="6.85222">
        <ele>234</ele>
        <time>2019-02-07T08:37:45.000Z</time>
      </trkpt>
      <trkpt lat="43.61659" lon="6.85223">
        <ele>234</ele>
        <time>2019-02-07T08:37:46.000Z</time>
      </trkpt>
      <trkpt lat="43.6166" lon="6.85223">
        <ele>235</ele>
        <time>2019-02-07T08:37:47.000Z</time>
      </trkpt>
      <trkpt lat="43.61661" lon="6.85223">
        <ele>236</ele>
        <time>2019-02-07T08:37:48.000Z</time>
      </trkpt>
      <trkpt lat="43.61662" lon="6.85223">
        <ele>235</ele>
        <time>2019-02-07T08:37:49.000Z</time>
      </trkpt>
      <trkpt lat="43.61662" lon="6.85222">
        <ele>235</ele>
        <time>2019-02-07T08:37:50.000Z</time>
      </trkpt>
      <trkpt lat="43.61663" lon="6.85222">
        <ele>236</ele>
        <time>2019-02-07T08:37:51.000Z</time>
      </trkpt>
      <trkpt lat="43.61664" lon="6.85222">
        <ele>238</ele>
        <time>2019-02-07T08:37:52.000Z</time>
      </trkpt>
      <trkpt lat="43.61664" lon="6.85222">
        <ele>238</ele>
        <time>2019-02-07T08:37:53.000Z</time>
      </trkpt>
      <trkpt lat="43.61665" lon="6.85222">
        <ele>238</ele>
        <time>2019-02-07T08:37:54.000Z</time>
      </trkpt>
      <trkpt lat="43.61666" lon="6.85222">
        <ele>239</ele>
        <time>2019-02-07T08:37:55.000Z</time>
      </trkpt>
      <trkpt lat="43.61668" lon="6.85223">
        <ele>239</ele>
        <time>2019-02-07T08:37:56.000Z</time>
      </trkpt>
      <trkpt lat="43.61669" lon="6.85224">
        <ele>239</ele>
        <time>2019-02-07T08:37:57.000Z</time>
      </trkpt>
      <trkpt lat="43.6167" lon="6.85226">
        <ele>238</ele>
        <time>2019-02-07T08:37:58.000Z</time>
      </trkpt>
      <trkpt lat="43.61672" lon="6.85228">
        <ele>238</ele>
        <time>2019-02-07T08:37:59.000Z</time>
      </trkpt>
      <trkpt lat="43.61673" lon="6.85229">
        <ele>238</ele>
        <time>2019-02-07T08:38:00.000Z</time>
      </trkpt>
      <trkpt lat="43.61674" lon="6.8523">
        <ele>239</ele>
        <time>2019-02-07T08:38:01.000Z</time>
      </trkpt>
      <trkpt lat="43.61675" lon="6.8523">
        <ele>239</ele>
        <time>2019-02-07T08:38:02.000Z</time>
      </trkpt>
      <trkpt lat="43.61675" lon="6.85231">
        <ele>237</ele>
        <time>2019-02-07T08:38:03.000Z</time>
      </trkpt>
      <trkpt lat="43.61676" lon="6.85232">
        <ele>239</ele>
        <time>2019-02-07T08:38:04.000Z</time>
      </trkpt>
      <trkpt lat="43.61677" lon="6.85233">
        <ele>238</ele>
        <time>2019-02-07T08:38:05.000Z</time>
      </trkpt>
      <trkpt lat="43.61677" lon="6.85234">
        <ele>237</ele>
        <time>2019-02-07T08:38:06.000Z</time>
      </trkpt>
      <trkpt lat="43.61678" lon="6.85235">
        <ele>237</ele>
        <time>2019-02-07T08:38:07.000Z</time>
      </trkpt>
      <trkpt lat="43.61679" lon="6.85236">
        <ele>237</ele>
        <time>2019-02-07T08:38:08.000Z</time>
      </trkpt>
      <trkpt lat="43.6168" lon="6.85237">
        <ele>234</ele>
        <time>2019-02-07T08:38:09.000Z</time>
      </trkpt>
      <trkpt lat="43.6168" lon="6.85239">
        <ele>234</ele>
        <time>2019-02-07T08:38:10.000Z</time>
      </trkpt>
      <trkpt lat="43.6168" lon="6.8524">
        <ele>234</ele>
        <time>2019-02-07T08:38:11.000Z</time>
      </trkpt>
      <trkpt lat="43.61681" lon="6.8524">
        <ele>233</ele>
        <time>2019-02-07T08:38:12.000Z</time>
      </trkpt>
      <trkpt lat="43.61682" lon="6.85241">
        <ele>233</ele>
        <time>2019-02-07T08:38:13.000Z</time>
      </trkpt>
      <trkpt lat="43.61683" lon="6.85242">
        <ele>232</ele>
        <time>2019-02-07T08:38:14.000Z</time>
      </trkpt>
      <trkpt lat="43.61684" lon="6.85242">
        <ele>232</ele>
        <time>2019-02-07T08:38:15.000Z</time>
      </trkpt>
      <trkpt lat="43.61685" lon="6.85243">
        <ele>231</ele>
        <time>2019-02-07T08:38:16.000Z</time>
      </trkpt>
      <trkpt lat="43.61687" lon="6.85243">
        <ele>232</ele>
        <time>2019-02-07T08:38:17.000Z</time>
      </trkpt>
      <trkpt lat="43.61688" lon="6.85243">
        <ele>233</ele>
        <time>2019-02-07T08:38:18.000Z</time>
      </trkpt>
      <trkpt lat="43.61689" lon="6.85243">
        <ele>235</ele>
        <time>2019-02-07T08:38:19.000Z</time>
      </trkpt>
      <trkpt lat="43.61691" lon="6.85243">
        <ele>233</ele>
        <time>2019-02-07T08:38:20.000Z</time>
      </trkpt>
      <trkpt lat="43.61692" lon="6.85243">
        <ele>234</ele>
        <time>2019-02-07T08:38:21.000Z</time>
      </trkpt>
      <trkpt lat="43.61693" lon="6.85243">
        <ele>232</ele>
        <time>2019-02-07T08:38:22.000Z</time>
      </trkpt>
      <trkpt lat="43.61694" lon="6.85243">
        <ele>233</ele>
        <time>2019-02-07T08:38:23.000Z</time>
      </trkpt>
      <trkpt lat="43.61695" lon="6.85244">
        <ele>234</ele>
        <time>2019-02-07T08:38:24.000Z</time>
      </trkpt>
      <trkpt lat="43.61696" lon="6.85245">
        <ele>233</ele>
        <time>2019-02-07T08:38:25.000Z</time>
      </trkpt>
      <trkpt lat="43.61697" lon="6.85247">
        <ele>233</ele>
        <time>2019-02-07T08:38:26.000Z</time>
      </trkpt>
      <trkpt lat="43.61698" lon="6.85248">
        <ele>233</ele>
        <time>2019-02-07T08:38:27.000Z</time>
      </trkpt>
      <trkpt lat="43.61698" lon="6.85248">
        <ele>234</ele>
        <time>2019-02-07T08:38:28.000Z</time>
      </trkpt>
      <trkpt lat="43.61699" lon="6.85248">
        <ele>235</ele>
        <time>2019-02-07T08:38:29.000Z</time>
      </trkpt>
      <trkpt lat="43.61701" lon="6.85248">
        <ele>235</ele>
        <time>2019-02-07T08:38:30.000Z</time>
      </trkpt>
      <trkpt lat="43.61702" lon="6.85248">
        <ele>235</ele>
        <time>2019-02-07T08:38:31.000Z</time>
      </trkpt>
      <trkpt lat="43.61703" lon="6.85248">
        <ele>235</ele>
        <time>2019-02-07T08:38:32.000Z</time>
      </trkpt>
      <trkpt lat="43.61704" lon="6.85248">
        <ele>234</ele>
        <time>2019-02-07T08:38:33.000Z</time>
      </trkpt>
      <trkpt lat="43.61705" lon="6.85249">
        <ele>234</ele>
        <time>2019-02-07T08:38:34.000Z</time>
      </trkpt>
      <trkpt lat="43.61706" lon="6.8525">
        <ele>235</ele>
        <time>2019-02-07T08:38:35.000Z</time>
      </trkpt>
      <trkpt lat="43.61708" lon="6.85251">
        <ele>233</ele>
        <time>2019-02-07T08:38:36.000Z</time>
      </trkpt>
      <trkpt lat="43.61709" lon="6.85252">
        <ele>232</ele>
        <time>2019-02-07T08:38:37.000Z</time>
      </trkpt>
      <trkpt lat="43.6171" lon="6.85252">
        <ele>231</ele>
        <time>2019-02-07T08:38:38.000Z</time>
      </trkpt>
      <trkpt lat="43.61711" lon="6.85253">
        <ele>231</ele>
        <time>2019-02-07T08:38:39.000Z</time>
      </trkpt>
      <trkpt lat="43.61712" lon="6.85254">
        <ele>233</ele>
        <time>2019-02-07T08:38:40.000Z</time>
      </trkpt>
      <trkpt lat="43.61714" lon="6.85254">
        <ele>234</ele>
        <time>2019-02-07T08:38:41.000Z</time>
      </trkpt>
      <trkpt lat="43.61715" lon="6.85254">
        <ele>235</ele>
        <time>2019-02-07T08:38:42.000Z</time>
      </trkpt>
      <trkpt lat="43.61716" lon="6.85255">
        <ele>235</ele>
        <time>2019-02-07T08:38:43.000Z</time>
      </trkpt>
      <trkpt lat="43.61717" lon="6.85255">
        <ele>235</ele>
        <time>2019-02-07T08:38:44.000Z</time>
      </trkpt>
      <trkpt lat="43.61718" lon="6.85256">
        <ele>235</ele>
        <time>2019-02-07T08:38:45.000Z</time>
      </trkpt>
      <trkpt lat="43.61719" lon="6.85256">
        <ele>235</ele>
        <time>2019-02-07T08:38:46.000Z</time>
      </trkpt>
      <trkpt lat="43.6172" lon="6.85256">
        <ele>234</ele>
        <time>2019-02-07T08:38:47.000Z</time>
      </trkpt>
      <trkpt lat="43.61722" lon="6.85257">
        <ele>235</ele>
        <time>2019-02-07T08:38:48.000Z</time>
      </trkpt>
      <trkpt lat="43.61724" lon="6.85257">
        <ele>237</ele>
        <time>2019-02-07T08:38:49.000Z</time>
      </trkpt>
      <trkpt lat="43.61725" lon="6.85257">
        <ele>237</ele>
        <time>2019-02-07T08:38:50.000Z</time>
      </trkpt>
      <trkpt lat="43.61726" lon="6.85258">
        <ele>236</ele>
        <time>2019-02-07T08:38:51.000Z</time>
      </trkpt>
      <trkpt lat="43.61727" lon="6.85258">
        <ele>237</ele>
        <time>2019-02-07T08:38:52.000Z</time>
      </trkpt>
      <trkpt lat="43.61728" lon="6.85258">
        <ele>237</ele>
        <time>2019-02-07T08:38:53.000Z</time>
      </trkpt>
      <trkpt lat="43.6173" lon="6.85257">
        <ele>237</ele>
        <time>2019-02-07T08:38:54.000Z</time>
      </trkpt>
      <trkpt lat="43.61731" lon="6.85257">
        <ele>236</ele>
        <time>2019-02-07T08:38:55.000Z</time>
      </trkpt>
      <trkpt lat="43.61733" lon="6.85257">
        <ele>235</ele>
        <time>2019-02-07T08:38:56.000Z</time>
      </trkpt>
      <trkpt lat="43.61734" lon="6.85257">
        <ele>233</ele>
        <time>2019-02-07T08:38:57.000Z</time>
      </trkpt>
      <trkpt lat="43.61735" lon="6.85257">
        <ele>234</ele>
        <time>2019-02-07T08:38:58.000Z</time>
      </trkpt>
      <trkpt lat="43.61736" lon="6.85257">
        <ele>236</ele>
        <time>2019-02-07T08:38:59.000Z</time>
      </trkpt>
      <trkpt lat="43.61737" lon="6.85257">
        <ele>236</ele>
        <time>2019-02-07T08:39:00.000Z</time>
      </trkpt>
      <trkpt lat="43.61738" lon="6.85257">
        <ele>236</ele>
        <time>2019-02-07T08:39:01.000Z</time>
      </trkpt>
      <trkpt lat="43.61739" lon="6.85257">
        <ele>236</ele>
        <time>2019-02-07T08:39:02.000Z</time>
      </trkpt>
      <trkpt lat="43.61741" lon="6.85257">
        <ele>236</ele>
        <time>2019-02-07T08:39:03.000Z</time>
      </trkpt>
      <trkpt lat="43.61742" lon="6.85257">
        <ele>237</ele>
        <time>2019-02-07T08:39:04.000Z</time>
      </trkpt>
      <trkpt lat="43.61743" lon="6.85257">
        <ele>236</ele>
        <time>2019-02-07T08:39:05.000Z</time>
      </trkpt>
      <trkpt lat="43.61744" lon="6.85257">
        <ele>235</ele>
        <time>2019-02-07T08:39:06.000Z</time>
      </trkpt>
      <trkpt lat="43.61745" lon="6.85257">
        <ele>236</ele>
        <time>2019-02-07T08:39:07.000Z</time>
      </trkpt>
      <trkpt lat="43.61746" lon="6.85257">
        <ele>235</ele>
        <time>2019-02-07T08:39:08.000Z</time>
      </trkpt>
      <trkpt lat="43.61748" lon="6.85256">
        <ele>236</ele>
        <time>2019-02-07T08:39:09.000Z</time>
      </trkpt>
      <trkpt lat="43.61749" lon="6.85256">
        <ele>237</ele>
        <time>2019-02-07T08:39:10.000Z</time>
      </trkpt>
      <trkpt lat="43.61751" lon="6.85256">
        <ele>236</ele>
        <time>2019-02-07T08:39:11.000Z</time>
      </trkpt>
      <trkpt lat="43.61753" lon="6.85256">
        <ele>236</ele>
        <time>2019-02-07T08:39:12.000Z</time>
      </trkpt>
      <trkpt lat="43.61754" lon="6.85256">
        <ele>236</ele>
        <time>2019-02-07T08:39:13.000Z</time>
      </trkpt>
      <trkpt lat="43.61756" lon="6.85257">
        <ele>236</ele>
        <time>2019-02-07T08:39:14.000Z</time>
      </trkpt>
      <trkpt lat="43.61757" lon="6.85257">
        <ele>236</ele>
        <time>2019-02-07T08:39:15.000Z</time>
      </trkpt>
      <trkpt lat="43.61759" lon="6.85257">
        <ele>236</ele>
        <time>2019-02-07T08:39:16.000Z</time>
      </trkpt>
      <trkpt lat="43.6176" lon="6.85257">
        <ele>235</ele>
        <time>2019-02-07T08:39:17.000Z</time>
      </trkpt>
      <trkpt lat="43.61761" lon="6.85256">
        <ele>234</ele>
        <time>2019-02-07T08:39:18.000Z</time>
      </trkpt>
      <trkpt lat="43.61762" lon="6.85256">
        <ele>234</ele>
        <time>2019-02-07T08:39:19.000Z</time>
      </trkpt>
      <trkpt lat="43.61764" lon="6.85255">
        <ele>233</ele>
        <time>2019-02-07T08:39:20.000Z</time>
      </trkpt>
      <trkpt lat="43.61765" lon="6.85255">
        <ele>232</ele>
        <time>2019-02-07T08:39:21.000Z</time>
      </trkpt>
      <trkpt lat="43.61767" lon="6.85254">
        <ele>231</ele>
        <time>2019-02-07T08:39:22.000Z</time>
      </trkpt>
      <trkpt lat="43.61768" lon="6.85254">
        <ele>230</ele>
        <time>2019-02-07T08:39:23.000Z</time>
      </trkpt>
      <trkpt lat="43.6177" lon="6.85253">
        <ele>229</ele>
        <time>2019-02-07T08:39:24.000Z</time>
      </trkpt>
      <trkpt lat="43.61772" lon="6.85253">
        <ele>228</ele>
        <time>2019-02-07T08:39:25.000Z</time>
      </trkpt>
      <trkpt lat="43.61773" lon="6.85252">
        <ele>228</ele>
        <time>2019-02-07T08:39:26.000Z</time>
      </trkpt>
      <trkpt lat="43.61775" lon="6.85252">
        <ele>227</ele>
        <time>2019-02-07T08:39:27.000Z</time>
      </trkpt>
      <trkpt lat="43.61777" lon="6.85252">
        <ele>227</ele>
        <time>2019-02-07T08:39:28.000Z</time>
      </trkpt>
      <trkpt lat="43.61778" lon="6.85251">
        <ele>226</ele>
        <time>2019-02-07T08:39:29.000Z</time>
      </trkpt>
      <trkpt lat="43.6178" lon="6.85251">
        <ele>223</ele>
        <time>2019-02-07T08:39:30.000Z</time>
      </trkpt>
      <trkpt lat="43.61781" lon="6.8525">
        <ele>222</ele>
        <time>2019-02-07T08:39:31.000Z</time>
      </trkpt>
      <trkpt lat="43.61782" lon="6.85249">
        <ele>222</ele>
        <time>2019-02-07T08:39:32.000Z</time>
      </trkpt>
      <trkpt lat="43.61783" lon="6.85247">
        <ele>223</ele>
        <time>2019-02-07T08:39:33.000Z</time>
      </trkpt>
      <trkpt lat="43.61785" lon="6.85245">
        <ele>223</ele>
        <time>2019-02-07T08:39:34.000Z</time>
      </trkpt>
      <trkpt lat="43.61786" lon="6.85243">
        <ele>224</ele>
        <time>2019-02-07T08:39:35.000Z</time>
      </trkpt>
      <trkpt lat="43.61789" lon="6.85241">
        <ele>223</ele>
        <time>2019-02-07T08:39:36.000Z</time>
      </trkpt>
      <trkpt lat="43.61791" lon="6.8524">
        <ele>225</ele>
        <time>2019-02-07T08:39:37.000Z</time>
      </trkpt>
      <trkpt lat="43.61793" lon="6.85239">
        <ele>224</ele>
        <time>2019-02-07T08:39:38.000Z</time>
      </trkpt>
      <trkpt lat="43.61796" lon="6.85239">
        <ele>224</ele>
        <time>2019-02-07T08:39:39.000Z</time>
      </trkpt>
      <trkpt lat="43.61798" lon="6.85239">
        <ele>224</ele>
        <time>2019-02-07T08:39:40.000Z</time>
      </trkpt>
      <trkpt lat="43.618" lon="6.85239">
        <ele>224</ele>
        <time>2019-02-07T08:39:41.000Z</time>
      </trkpt>
      <trkpt lat="43.61802" lon="6.85239">
        <ele>225</ele>
        <time>2019-02-07T08:39:42.000Z</time>
      </trkpt>
      <trkpt lat="43.61805" lon="6.85239">
        <ele>225</ele>
        <time>2019-02-07T08:39:43.000Z</time>
      </trkpt>
      <trkpt lat="43.61807" lon="6.85239">
        <ele>226</ele>
        <time>2019-02-07T08:39:44.000Z</time>
      </trkpt>
      <trkpt lat="43.61809" lon="6.85239">
        <ele>227</ele>
        <time>2019-02-07T08:39:45.000Z</time>
      </trkpt>
      <trkpt lat="43.61811" lon="6.85239">
        <ele>226</ele>
        <time>2019-02-07T08:39:46.000Z</time>
      </trkpt>
      <trkpt lat="43.61813" lon="6.8524">
        <ele>227</ele>
        <time>2019-02-07T08:39:47.000Z</time>
      </trkpt>
      <trkpt lat="43.61815" lon="6.85241">
        <ele>228</ele>
        <time>2019-02-07T08:39:48.000Z</time>
      </trkpt>
      <trkpt lat="43.61817" lon="6.85242">
        <ele>227</ele>
        <time>2019-02-07T08:39:49.000Z</time>
      </trkpt>
      <trkpt lat="43.61819" lon="6.85244">
        <ele>227</ele>
        <time>2019-02-07T08:39:50.000Z</time>
      </trkpt>
      <trkpt lat="43.6182" lon="6.85245">
        <ele>226</ele>
        <time>2019-02-07T08:39:51.000Z</time>
      </trkpt>
      <trkpt lat="43.61822" lon="6.85246">
        <ele>226</ele>
        <time>2019-02-07T08:39:52.000Z</time>
      </trkpt>
      <trkpt lat="43.61824" lon="6.85247">
        <ele>226</ele>
        <time>2019-02-07T08:39:53.000Z</time>
      </trkpt>
      <trkpt lat="43.61826" lon="6.85248">
        <ele>226</ele>
        <time>2019-02-07T08:39:54.000Z</time>
      </trkpt>
      <trkpt lat="43.61827" lon="6.85249">
        <ele>225</ele>
        <time>2019-02-07T08:39:55.000Z</time>
      </trkpt>
      <trkpt lat="43.61829" lon="6.85251">
        <ele>225</ele>
        <time>2019-02-07T08:39:56.000Z</time>
      </trkpt>
      <trkpt lat="43.6183" lon="6.85253">
        <ele>224</ele>
        <time>2019-02-07T08:39:57.000Z</time>
      </trkpt>
      <trkpt lat="43.61831" lon="6.85255">
        <ele>223</ele>
        <time>2019-02-07T08:39:58.000Z</time>
      </trkpt>
      <trkpt lat="43.61832" lon="6.85258">
        <ele>223</ele>
        <time>2019-02-07T08:39:59.000Z</time>
      </trkpt>
      <trkpt lat="43.61832" lon="6.85261">
        <ele>223</ele>
        <time>2019-02-07T08:40:00.000Z</time>
      </trkpt>
      <trkpt lat="43.61833" lon="6.85263">
        <ele>222</ele>
        <time>2019-02-07T08:40:01.000Z</time>
      </trkpt>
      <trkpt lat="43.61833" lon="6.85266">
        <ele>222</ele>
        <time>2019-02-07T08:40:02.000Z</time>
      </trkpt>
      <trkpt lat="43.61832" lon="6.85268">
        <ele>221</ele>
        <time>2019-02-07T08:40:03.000Z</time>
      </trkpt>
      <trkpt lat="43.61832" lon="6.8527">
        <ele>220</ele>
        <time>2019-02-07T08:40:04.000Z</time>
      </trkpt>
      <trkpt lat="43.61832" lon="6.85273">
        <ele>220</ele>
        <time>2019-02-07T08:40:05.000Z</time>
      </trkpt>
      <trkpt lat="43.61831" lon="6.85275">
        <ele>220</ele>
        <time>2019-02-07T08:40:06.000Z</time>
      </trkpt>
      <trkpt lat="43.61831" lon="6.85278">
        <ele>218</ele>
        <time>2019-02-07T08:40:07.000Z</time>
      </trkpt>
      <trkpt lat="43.6183" lon="6.85281">
        <ele>217</ele>
        <time>2019-02-07T08:40:08.000Z</time>
      </trkpt>
      <trkpt lat="43.61829" lon="6.85284">
        <ele>217</ele>
        <time>2019-02-07T08:40:09.000Z</time>
      </trkpt>
      <trkpt lat="43.61829" lon="6.85286">
        <ele>216</ele>
        <time>2019-02-07T08:40:10.000Z</time>
      </trkpt>
      <trkpt lat="43.61828" lon="6.85289">
        <ele>216</ele>
        <time>2019-02-07T08:40:11.000Z</time>
      </trkpt>
      <trkpt lat="43.61828" lon="6.85291">
        <ele>216</ele>
        <time>2019-02-07T08:40:12.000Z</time>
      </trkpt>
      <trkpt lat="43.61828" lon="6.85294">
        <ele>216</ele>
        <time>2019-02-07T08:40:13.000Z</time>
      </trkpt>
      <trkpt lat="43.61827" lon="6.85296">
        <ele>216</ele>
        <time>2019-02-07T08:40:14.000Z</time>
      </trkpt>
      <trkpt lat="43.61827" lon="6.85299">
        <ele>215</ele>
        <time>2019-02-07T08:40:15.000Z</time>
      </trkpt>
      <trkpt lat="43.61826" lon="6.85302">
        <ele>215</ele>
        <time>2019-02-07T08:40:16.000Z</time>
      </trkpt>
      <trkpt lat="43.61826" lon="6.85304">
        <ele>214</ele>
        <time>2019-02-07T08:40:17.000Z</time>
      </trkpt>
      <trkpt lat="43.61826" lon="6.85306">
        <ele>213</ele>
        <time>2019-02-07T08:40:18.000Z</time>
      </trkpt>
      <trkpt lat="43.61825" lon="6.85308">
        <ele>213</ele>
        <time>2019-02-07T08:40:19.000Z</time>
      </trkpt>
      <trkpt lat="43.61824" lon="6.8531">
        <ele>213</ele>
        <time>2019-02-07T08:40:20.000Z</time>
      </trkpt>
      <trkpt lat="43.61823" lon="6.85313">
        <ele>213</ele>
        <time>2019-02-07T08:40:21.000Z</time>
      </trkpt>
      <trkpt lat="43.61822" lon="6.85316">
        <ele>213</ele>
        <time>2019-02-07T08:40:22.000Z</time>
      </trkpt>
      <trkpt lat="43.61821" lon="6.85319">
        <ele>213</ele>
        <time>2019-02-07T08:40:23.000Z</time>
      </trkpt>
      <trkpt lat="43.61821" lon="6.85322">
        <ele>213</ele>
        <time>2019-02-07T08:40:24.000Z</time>
      </trkpt>
      <trkpt lat="43.61822" lon="6.85324">
        <ele>213</ele>
        <time>2019-02-07T08:40:25.000Z</time>
      </trkpt>
      <trkpt lat="43.61822" lon="6.85327">
        <ele>213</ele>
        <time>2019-02-07T08:40:26.000Z</time>
      </trkpt>
      <trkpt lat="43.61824" lon="6.85328">
        <ele>212</ele>
        <time>2019-02-07T08:40:27.000Z</time>
      </trkpt>
      <trkpt lat="43.61825" lon="6.8533">
        <ele>213</ele>
        <time>2019-02-07T08:40:28.000Z</time>
      </trkpt>
      <trkpt lat="43.61827" lon="6.85331">
        <ele>213</ele>
        <time>2019-02-07T08:40:29.000Z</time>
      </trkpt>
      <trkpt lat="43.6183" lon="6.85332">
        <ele>213</ele>
        <time>2019-02-07T08:40:30.000Z</time>
      </trkpt>
      <trkpt lat="43.61832" lon="6.85334">
        <ele>213</ele>
        <time>2019-02-07T08:40:31.000Z</time>
      </trkpt>
      <trkpt lat="43.61833" lon="6.85335">
        <ele>212</ele>
        <time>2019-02-07T08:40:32.000Z</time>
      </trkpt>
      <trkpt lat="43.61835" lon="6.85336">
        <ele>212</ele>
        <time>2019-02-07T08:40:33.000Z</time>
      </trkpt>
      <trkpt lat="43.61836" lon="6.85338">
        <ele>212</ele>
        <time>2019-02-07T08:40:34.000Z</time>
      </trkpt>
      <trkpt lat="43.61837" lon="6.85339">
        <ele>213</ele>
        <time>2019-02-07T08:40:35.000Z</time>
      </trkpt>
      <trkpt lat="43.61839" lon="6.85341">
        <ele>213</ele>
        <time>2019-02-07T08:40:36.000Z</time>
      </trkpt>
      <trkpt lat="43.6184" lon="6.85342">
        <ele>214</ele>
        <time>2019-02-07T08:40:37.000Z</time>
      </trkpt>
      <trkpt lat="43.61841" lon="6.85344">
        <ele>214</ele>
        <time>2019-02-07T08:40:38.000Z</time>
      </trkpt>
      <trkpt lat="43.61842" lon="6.85345">
        <ele>213</ele>
        <time>2019-02-07T08:40:39.000Z</time>
      </trkpt>
      <trkpt lat="43.61843" lon="6.85347">
        <ele>213</ele>
        <time>2019-02-07T08:40:40.000Z</time>
      </trkpt>
      <trkpt lat="43.61844" lon="6.85349">
        <ele>213</ele>
        <time>2019-02-07T08:40:41.000Z</time>
      </trkpt>
      <trkpt lat="43.61846" lon="6.8535">
        <ele>214</ele>
        <time>2019-02-07T08:40:42.000Z</time>
      </trkpt>
      <trkpt lat="43.61847" lon="6.85351">
        <ele>215</ele>
        <time>2019-02-07T08:40:43.000Z</time>
      </trkpt>
      <trkpt lat="43.61848" lon="6.85352">
        <ele>215</ele>
        <time>2019-02-07T08:40:44.000Z</time>
      </trkpt>
      <trkpt lat="43.6185" lon="6.85353">
        <ele>215</ele>
        <time>2019-02-07T08:40:45.000Z</time>
      </trkpt>
      <trkpt lat="43.61851" lon="6.85355">
        <ele>216</ele>
        <time>2019-02-07T08:40:46.000Z</time>
      </trkpt>
      <trkpt lat="43.61852" lon="6.85356">
        <ele>215</ele>
        <time>2019-02-07T08:40:47.000Z</time>
      </trkpt>
      <trkpt lat="43.61853" lon="6.85356">
        <ele>215</ele>
        <time>2019-02-07T08:40:48.000Z</time>
      </trkpt>
      <trkpt lat="43.61854" lon="6.85356">
        <ele>214</ele>
        <time>2019-02-07T08:40:49.000Z</time>
      </trkpt>
      <trkpt lat="43.61856" lon="6.85356">
        <ele>214</ele>
        <time>2019-02-07T08:40:50.000Z</time>
      </trkpt>
      <trkpt lat="43.61858" lon="6.85356">
        <ele>214</ele>
        <time>2019-02-07T08:40:51.000Z</time>
      </trkpt>
      <trkpt lat="43.61859" lon="6.85355">
        <ele>214</ele>
        <time>2019-02-07T08:40:52.000Z</time>
      </trkpt>
      <trkpt lat="43.61861" lon="6.85354">
        <ele>215</ele>
        <time>2019-02-07T08:40:53.000Z</time>
      </trkpt>
      <trkpt lat="43.61862" lon="6.85353">
        <ele>215</ele>
        <time>2019-02-07T08:40:54.000Z</time>
      </trkpt>
      <trkpt lat="43.61863" lon="6.85352">
        <ele>215</ele>
        <time>2019-02-07T08:40:55.000Z</time>
      </trkpt>
      <trkpt lat="43.61865" lon="6.85351">
        <ele>215</ele>
        <time>2019-02-07T08:40:56.000Z</time>
      </trkpt>
      <trkpt lat="43.61866" lon="6.85351">
        <ele>216</ele>
        <time>2019-02-07T08:40:57.000Z</time>
      </trkpt>
      <trkpt lat="43.61868" lon="6.8535">
        <ele>217</ele>
        <time>2019-02-07T08:40:58.000Z</time>
      </trkpt>
      <trkpt lat="43.61869" lon="6.8535">
        <ele>216</ele>
        <time>2019-02-07T08:40:59.000Z</time>
      </trkpt>
      <trkpt lat="43.61871" lon="6.85349">
        <ele>216</ele>
        <time>2019-02-07T08:41:00.000Z</time>
      </trkpt>
      <trkpt lat="43.61872" lon="6.85349">
        <ele>217</ele>
        <time>2019-02-07T08:41:01.000Z</time>
      </trkpt>
      <trkpt lat="43.61873" lon="6.85348">
        <ele>217</ele>
        <time>2019-02-07T08:41:02.000Z</time>
      </trkpt>
      <trkpt lat="43.61875" lon="6.85348">
        <ele>217</ele>
        <time>2019-02-07T08:41:03.000Z</time>
      </trkpt>
      <trkpt lat="43.61876" lon="6.85347">
        <ele>217</ele>
        <time>2019-02-07T08:41:04.000Z</time>
      </trkpt>
      <trkpt lat="43.61878" lon="6.85347">
        <ele>217</ele>
        <time>2019-02-07T08:41:05.000Z</time>
      </trkpt>
      <trkpt lat="43.61879" lon="6.85347">
        <ele>217</ele>
        <time>2019-02-07T08:41:06.000Z</time>
      </trkpt>
      <trkpt lat="43.6188" lon="6.85347">
        <ele>218</ele>
        <time>2019-02-07T08:41:07.000Z</time>
      </trkpt>
      <trkpt lat="43.61882" lon="6.85347">
        <ele>217</ele>
        <time>2019-02-07T08:41:08.000Z</time>
      </trkpt>
      <trkpt lat="43.61883" lon="6.85347">
        <ele>217</ele>
        <time>2019-02-07T08:41:09.000Z</time>
      </trkpt>
      <trkpt lat="43.61885" lon="6.85347">
        <ele>218</ele>
        <time>2019-02-07T08:41:10.000Z</time>
      </trkpt>
      <trkpt lat="43.61886" lon="6.85347">
        <ele>218</ele>
        <time>2019-02-07T08:41:11.000Z</time>
      </trkpt>
      <trkpt lat="43.61888" lon="6.85347">
        <ele>218</ele>
        <time>2019-02-07T08:41:12.000Z</time>
      </trkpt>
      <trkpt lat="43.61889" lon="6.85348">
        <ele>219</ele>
        <time>2019-02-07T08:41:13.000Z</time>
      </trkpt>
      <trkpt lat="43.61891" lon="6.85348">
        <ele>219</ele>
        <time>2019-02-07T08:41:14.000Z</time>
      </trkpt>
      <trkpt lat="43.61893" lon="6.85348">
        <ele>220</ele>
        <time>2019-02-07T08:41:15.000Z</time>
      </trkpt>
      <trkpt lat="43.61895" lon="6.85349">
        <ele>221</ele>
        <time>2019-02-07T08:41:16.000Z</time>
      </trkpt>
      <trkpt lat="43.61896" lon="6.85349">
        <ele>220</ele>
        <time>2019-02-07T08:41:17.000Z</time>
      </trkpt>
      <trkpt lat="43.61898" lon="6.8535">
        <ele>221</ele>
        <time>2019-02-07T08:41:18.000Z</time>
      </trkpt>
      <trkpt lat="43.61899" lon="6.8535">
        <ele>221</ele>
        <time>2019-02-07T08:41:19.000Z</time>
      </trkpt>
      <trkpt lat="43.619" lon="6.85351">
        <ele>221</ele>
        <time>2019-02-07T08:41:20.000Z</time>
      </trkpt>
      <trkpt lat="43.61902" lon="6.85351">
        <ele>222</ele>
        <time>2019-02-07T08:41:21.000Z</time>
      </trkpt>
      <trkpt lat="43.61903" lon="6.85352">
        <ele>221</ele>
        <time>2019-02-07T08:41:22.000Z</time>
      </trkpt>
      <trkpt lat="43.61904" lon="6.85352">
        <ele>221</ele>
        <time>2019-02-07T08:41:23.000Z</time>
      </trkpt>
      <trkpt lat="43.61906" lon="6.85352">
        <ele>223</ele>
        <time>2019-02-07T08:41:24.000Z</time>
      </trkpt>
      <trkpt lat="43.61907" lon="6.85352">
        <ele>225</ele>
        <time>2019-02-07T08:41:25.000Z</time>
      </trkpt>
      <trkpt lat="43.61908" lon="6.85352">
        <ele>225</ele>
        <time>2019-02-07T08:41:26.000Z</time>
      </trkpt>
      <trkpt lat="43.61909" lon="6.85353">
        <ele>225</ele>
        <time>2019-02-07T08:41:27.000Z</time>
      </trkpt>
      <trkpt lat="43.61911" lon="6.85353">
        <ele>225</ele>
        <time>2019-02-07T08:41:28.000Z</time>
      </trkpt>
      <trkpt lat="43.61912" lon="6.85354">
        <ele>226</ele>
        <time>2019-02-07T08:41:29.000Z</time>
      </trkpt>
      <trkpt lat="43.61913" lon="6.85355">
        <ele>225</ele>
        <time>2019-02-07T08:41:30.000Z</time>
      </trkpt>
      <trkpt lat="43.61914" lon="6.85356">
        <ele>225</ele>
        <time>2019-02-07T08:41:31.000Z</time>
      </trkpt>
      <trkpt lat="43.61916" lon="6.85357">
        <ele>226</ele>
        <time>2019-02-07T08:41:32.000Z</time>
      </trkpt>
      <trkpt lat="43.61917" lon="6.85358">
        <ele>226</ele>
        <time>2019-02-07T08:41:33.000Z</time>
      </trkpt>
      <trkpt lat="43.61919" lon="6.85358">
        <ele>227</ele>
        <time>2019-02-07T08:41:34.000Z</time>
      </trkpt>
      <trkpt lat="43.6192" lon="6.85359">
        <ele>227</ele>
        <time>2019-02-07T08:41:35.000Z</time>
      </trkpt>
      <trkpt lat="43.61921" lon="6.8536">
        <ele>228</ele>
        <time>2019-02-07T08:41:36.000Z</time>
      </trkpt>
      <trkpt lat="43.61923" lon="6.8536">
        <ele>228</ele>
        <time>2019-02-07T08:41:37.000Z</time>
      </trkpt>
      <trkpt lat="43.61924" lon="6.85361">
        <ele>229</ele>
        <time>2019-02-07T08:41:38.000Z</time>
      </trkpt>
      <trkpt lat="43.61926" lon="6.85361">
        <ele>229</ele>
        <time>2019-02-07T08:41:39.000Z</time>
      </trkpt>
      <trkpt lat="43.61927" lon="6.85362">
        <ele>229</ele>
        <time>2019-02-07T08:41:40.000Z</time>
      </trkpt>
      <trkpt lat="43.61929" lon="6.85362">
        <ele>229</ele>
        <time>2019-02-07T08:41:41.000Z</time>
      </trkpt>
      <trkpt lat="43.6193" lon="6.85362">
        <ele>229</ele>
        <time>2019-02-07T08:41:42.000Z</time>
      </trkpt>
      <trkpt lat="43.61932" lon="6.85362">
        <ele>231</ele>
        <time>2019-02-07T08:41:43.000Z</time>
      </trkpt>
      <trkpt lat="43.61934" lon="6.85362">
        <ele>230</ele>
        <time>2019-02-07T08:41:44.000Z</time>
      </trkpt>
      <trkpt lat="43.61935" lon="6.85363">
        <ele>232</ele>
        <time>2019-02-07T08:41:45.000Z</time>
      </trkpt>
      <trkpt lat="43.61937" lon="6.85363">
        <ele>233</ele>
        <time>2019-02-07T08:41:46.000Z</time>
      </trkpt>
      <trkpt lat="43.61939" lon="6.85363">
        <ele>234</ele>
        <time>2019-02-07T08:41:47.000Z</time>
      </trkpt>
      <trkpt lat="43.61941" lon="6.85363">
        <ele>235</ele>
        <time>2019-02-07T08:41:48.000Z</time>
      </trkpt>
      <trkpt lat="43.61943" lon="6.85363">
        <ele>236</ele>
        <time>2019-02-07T08:41:49.000Z</time>
      </trkpt>
      <trkpt lat="43.61945" lon="6.85363">
        <ele>235</ele>
        <time>2019-02-07T08:41:50.000Z</time>
      </trkpt>
      <trkpt lat="43.61946" lon="6.85363">
        <ele>235</ele>
        <time>2019-02-07T08:41:51.000Z</time>
      </trkpt>
      <trkpt lat="43.61948" lon="6.85363">
        <ele>236</ele>
        <time>2019-02-07T08:41:52.000Z</time>
      </trkpt>
      <trkpt lat="43.61949" lon="6.85363">
        <ele>236</ele>
        <time>2019-02-07T08:41:53.000Z</time>
      </trkpt>
      <trkpt lat="43.61951" lon="6.85363">
        <ele>236</ele>
        <time>2019-02-07T08:41:54.000Z</time>
      </trkpt>
      <trkpt lat="43.61953" lon="6.85362">
        <ele>237</ele>
        <time>2019-02-07T08:41:55.000Z</time>
      </trkpt>
      <trkpt lat="43.61955" lon="6.85362">
        <ele>236</ele>
        <time>2019-02-07T08:41:56.000Z</time>
      </trkpt>
      <trkpt lat="43.61956" lon="6.85362">
        <ele>237</ele>
        <time>2019-02-07T08:41:57.000Z</time>
      </trkpt>
      <trkpt lat="43.61958" lon="6.85362">
        <ele>237</ele>
        <time>2019-02-07T08:41:58.000Z</time>
      </trkpt>
      <trkpt lat="43.61959" lon="6.85362">
        <ele>237</ele>
        <time>2019-02-07T08:41:59.000Z</time>
      </trkpt>
      <trkpt lat="43.61961" lon="6.85363">
        <ele>235</ele>
        <time>2019-02-07T08:42:00.000Z</time>
      </trkpt>
      <trkpt lat="43.61962" lon="6.85364">
        <ele>235</ele>
        <time>2019-02-07T08:42:01.000Z</time>
      </trkpt>
      <trkpt lat="43.61963" lon="6.85365">
        <ele>235</ele>
        <time>2019-02-07T08:42:02.000Z</time>
      </trkpt>
      <trkpt lat="43.61965" lon="6.85366">
        <ele>235</ele>
        <time>2019-02-07T08:42:03.000Z</time>
      </trkpt>
      <trkpt lat="43.61966" lon="6.85367">
        <ele>234</ele>
        <time>2019-02-07T08:42:04.000Z</time>
      </trkpt>
      <trkpt lat="43.61967" lon="6.85368">
        <ele>233</ele>
        <time>2019-02-07T08:42:05.000Z</time>
      </trkpt>
      <trkpt lat="43.61968" lon="6.85369">
        <ele>234</ele>
        <time>2019-02-07T08:42:06.000Z</time>
      </trkpt>
      <trkpt lat="43.61969" lon="6.8537">
        <ele>234</ele>
        <time>2019-02-07T08:42:07.000Z</time>
      </trkpt>
      <trkpt lat="43.6197" lon="6.8537">
        <ele>234</ele>
        <time>2019-02-07T08:42:08.000Z</time>
      </trkpt>
      <trkpt lat="43.61971" lon="6.85371">
        <ele>234</ele>
        <time>2019-02-07T08:42:09.000Z</time>
      </trkpt>
      <trkpt lat="43.61972" lon="6.85373">
        <ele>233</ele>
        <time>2019-02-07T08:42:10.000Z</time>
      </trkpt>
      <trkpt lat="43.61973" lon="6.85374">
        <ele>234</ele>
        <time>2019-02-07T08:42:11.000Z</time>
      </trkpt>
      <trkpt lat="43.61973" lon="6.85375">
        <ele>234</ele>
        <time>2019-02-07T08:42:12.000Z</time>
      </trkpt>
      <trkpt lat="43.61974" lon="6.85376">
        <ele>235</ele>
        <time>2019-02-07T08:42:13.000Z</time>
      </trkpt>
      <trkpt lat="43.61975" lon="6.85376">
        <ele>235</ele>
        <time>2019-02-07T08:42:14.000Z</time>
      </trkpt>
      <trkpt lat="43.61976" lon="6.85377">
        <ele>234</ele>
        <time>2019-02-07T08:42:15.000Z</time>
      </trkpt>
      <trkpt lat="43.61977" lon="6.85378">
        <ele>235</ele>
        <time>2019-02-07T08:42:16.000Z</time>
      </trkpt>
      <trkpt lat="43.61978" lon="6.85379">
        <ele>235</ele>
        <time>2019-02-07T08:42:17.000Z</time>
      </trkpt>
      <trkpt lat="43.61978" lon="6.8538">
        <ele>236</ele>
        <time>2019-02-07T08:42:18.000Z</time>
      </trkpt>
      <trkpt lat="43.6198" lon="6.85381">
        <ele>237</ele>
        <time>2019-02-07T08:42:19.000Z</time>
      </trkpt>
      <trkpt lat="43.61981" lon="6.85382">
        <ele>237</ele>
        <time>2019-02-07T08:42:20.000Z</time>
      </trkpt>
      <trkpt lat="43.61982" lon="6.85383">
        <ele>235</ele>
        <time>2019-02-07T08:42:21.000Z</time>
      </trkpt>
      <trkpt lat="43.61983" lon="6.85384">
        <ele>236</ele>
        <time>2019-02-07T08:42:22.000Z</time>
      </trkpt>
      <trkpt lat="43.61984" lon="6.85385">
        <ele>236</ele>
        <time>2019-02-07T08:42:23.000Z</time>
      </trkpt>
      <trkpt lat="43.61985" lon="6.85386">
        <ele>236</ele>
        <time>2019-02-07T08:42:24.000Z</time>
      </trkpt>
      <trkpt lat="43.61986" lon="6.85387">
        <ele>236</ele>
        <time>2019-02-07T08:42:25.000Z</time>
      </trkpt>
      <trkpt lat="43.61987" lon="6.85387">
        <ele>236</ele>
        <time>2019-02-07T08:42:26.000Z</time>
      </trkpt>
      <trkpt lat="43.61987" lon="6.85388">
        <ele>237</ele>
        <time>2019-02-07T08:42:27.000Z</time>
      </trkpt>
      <trkpt lat="43.61988" lon="6.8539">
        <ele>238</ele>
        <time>2019-02-07T08:42:28.000Z</time>
      </trkpt>
      <trkpt lat="43.61989" lon="6.85391">
        <ele>238</ele>
        <time>2019-02-07T08:42:29.000Z</time>
      </trkpt>
      <trkpt lat="43.6199" lon="6.85392">
        <ele>239</ele>
        <time>2019-02-07T08:42:30.000Z</time>
      </trkpt>
      <trkpt lat="43.61991" lon="6.85393">
        <ele>239</ele>
        <time>2019-02-07T08:42:31.000Z</time>
      </trkpt>
      <trkpt lat="43.61991" lon="6.85394">
        <ele>238</ele>
        <time>2019-02-07T08:42:32.000Z</time>
      </trkpt>
      <trkpt lat="43.61992" lon="6.85395">
        <ele>237</ele>
        <time>2019-02-07T08:42:33.000Z</time>
      </trkpt>
      <trkpt lat="43.61993" lon="6.85397">
        <ele>237</ele>
        <time>2019-02-07T08:42:34.000Z</time>
      </trkpt>
      <trkpt lat="43.61993" lon="6.85398">
        <ele>237</ele>
        <time>2019-02-07T08:42:35.000Z</time>
      </trkpt>
      <trkpt lat="43.61994" lon="6.85399">
        <ele>237</ele>
        <time>2019-02-07T08:42:36.000Z</time>
      </trkpt>
      <trkpt lat="43.61994" lon="6.85401">
        <ele>237</ele>
        <time>2019-02-07T08:42:37.000Z</time>
      </trkpt>
      <trkpt lat="43.61995" lon="6.85402">
        <ele>237</ele>
        <time>2019-02-07T08:42:38.000Z</time>
      </trkpt>
      <trkpt lat="43.61996" lon="6.85403">
        <ele>237</ele>
        <time>2019-02-07T08:42:39.000Z</time>
      </trkpt>
      <trkpt lat="43.61996" lon="6.85404">
        <ele>237</ele>
        <time>2019-02-07T08:42:40.000Z</time>
      </trkpt>
      <trkpt lat="43.61997" lon="6.85405">
        <ele>237</ele>
        <time>2019-02-07T08:42:41.000Z</time>
      </trkpt>
      <trkpt lat="43.61997" lon="6.85406">
        <ele>238</ele>
        <time>2019-02-07T08:42:42.000Z</time>
      </trkpt>
      <trkpt lat="43.61998" lon="6.85407">
        <ele>238</ele>
        <time>2019-02-07T08:42:43.000Z</time>
      </trkpt>
      <trkpt lat="43.61999" lon="6.85408">
        <ele>239</ele>
        <time>2019-02-07T08:42:44.000Z</time>
      </trkpt>
      <trkpt lat="43.62" lon="6.8541">
        <ele>239</ele>
        <time>2019-02-07T08:42:45.000Z</time>
      </trkpt>
      <trkpt lat="43.62" lon="6.85411">
        <ele>239</ele>
        <time>2019-02-07T08:42:46.000Z</time>
      </trkpt>
      <trkpt lat="43.62001" lon="6.85412">
        <ele>239</ele>
        <time>2019-02-07T08:42:47.000Z</time>
      </trkpt>
      <trkpt lat="43.62002" lon="6.85414">
        <ele>239</ele>
        <time>2019-02-07T08:42:48.000Z</time>
      </trkpt>
      <trkpt lat="43.62003" lon="6.85415">
        <ele>238</ele>
        <time>2019-02-07T08:42:49.000Z</time>
      </trkpt>
      <trkpt lat="43.62003" lon="6.85416">
        <ele>238</ele>
        <time>2019-02-07T08:42:50.000Z</time>
      </trkpt>
      <trkpt lat="43.62004" lon="6.85417">
        <ele>238</ele>
        <time>2019-02-07T08:42:51.000Z</time>
      </trkpt>
      <trkpt lat="43.62005" lon="6.85418">
        <ele>238</ele>
        <time>2019-02-07T08:42:52.000Z</time>
      </trkpt>
      <trkpt lat="43.62006" lon="6.85419">
        <ele>239</ele>
        <time>2019-02-07T08:42:53.000Z</time>
      </trkpt>
      <trkpt lat="43.62007" lon="6.8542">
        <ele>239</ele>
        <time>2019-02-07T08:42:54.000Z</time>
      </trkpt>
      <trkpt lat="43.62008" lon="6.85421">
        <ele>238</ele>
        <time>2019-02-07T08:42:55.000Z</time>
      </trkpt>
      <trkpt lat="43.62009" lon="6.85423">
        <ele>239</ele>
        <time>2019-02-07T08:42:56.000Z</time>
      </trkpt>
      <trkpt lat="43.62009" lon="6.85424">
        <ele>238</ele>
        <time>2019-02-07T08:42:57.000Z</time>
      </trkpt>
      <trkpt lat="43.6201" lon="6.85425">
        <ele>239</ele>
        <time>2019-02-07T08:42:58.000Z</time>
      </trkpt>
      <trkpt lat="43.62011" lon="6.85426">
        <ele>240</ele>
        <time>2019-02-07T08:42:59.000Z</time>
      </trkpt>
      <trkpt lat="43.62012" lon="6.85427">
        <ele>241</ele>
        <time>2019-02-07T08:43:00.000Z</time>
      </trkpt>
      <trkpt lat="43.62012" lon="6.85428">
        <ele>241</ele>
        <time>2019-02-07T08:43:01.000Z</time>
      </trkpt>
      <trkpt lat="43.62013" lon="6.85429">
        <ele>241</ele>
        <time>2019-02-07T08:43:02.000Z</time>
      </trkpt>
      <trkpt lat="43.62014" lon="6.85431">
        <ele>241</ele>
        <time>2019-02-07T08:43:03.000Z</time>
      </trkpt>
      <trkpt lat="43.62014" lon="6.85433">
        <ele>241</ele>
        <time>2019-02-07T08:43:04.000Z</time>
      </trkpt>
      <trkpt lat="43.62015" lon="6.85434">
        <ele>242</ele>
        <time>2019-02-07T08:43:05.000Z</time>
      </trkpt>
      <trkpt lat="43.62016" lon="6.85435">
        <ele>242</ele>
        <time>2019-02-07T08:43:06.000Z</time>
      </trkpt>
      <trkpt lat="43.62016" lon="6.85437">
        <ele>242</ele>
        <time>2019-02-07T08:43:07.000Z</time>
      </trkpt>
      <trkpt lat="43.62017" lon="6.85438">
        <ele>242</ele>
        <time>2019-02-07T08:43:08.000Z</time>
      </trkpt>
      <trkpt lat="43.62018" lon="6.8544">
        <ele>242</ele>
        <time>2019-02-07T08:43:09.000Z</time>
      </trkpt>
      <trkpt lat="43.62018" lon="6.85441">
        <ele>243</ele>
        <time>2019-02-07T08:43:10.000Z</time>
      </trkpt>
      <trkpt lat="43.62019" lon="6.85443">
        <ele>243</ele>
        <time>2019-02-07T08:43:11.000Z</time>
      </trkpt>
      <trkpt lat="43.6202" lon="6.85444">
        <ele>243</ele>
        <time>2019-02-07T08:43:12.000Z</time>
      </trkpt>
      <trkpt lat="43.6202" lon="6.85445">
        <ele>243</ele>
        <time>2019-02-07T08:43:13.000Z</time>
      </trkpt>
      <trkpt lat="43.62021" lon="6.85447">
        <ele>243</ele>
        <time>2019-02-07T08:43:14.000Z</time>
      </trkpt>
      <trkpt lat="43.62021" lon="6.85449">
        <ele>243</ele>
        <time>2019-02-07T08:43:15.000Z</time>
      </trkpt>
      <trkpt lat="43.62021" lon="6.85451">
        <ele>242</ele>
        <time>2019-02-07T08:43:16.000Z</time>
      </trkpt>
      <trkpt lat="43.62022" lon="6.85452">
        <ele>242</ele>
        <time>2019-02-07T08:43:17.000Z</time>
      </trkpt>
      <trkpt lat="43.62022" lon="6.85454">
        <ele>242</ele>
        <time>2019-02-07T08:43:18.000Z</time>
      </trkpt>
      <trkpt lat="43.62021" lon="6.85456">
        <ele>241</ele>
        <time>2019-02-07T08:43:19.000Z</time>
      </trkpt>
      <trkpt lat="43.62021" lon="6.85458">
        <ele>241</ele>
        <time>2019-02-07T08:43:20.000Z</time>
      </trkpt>
      <trkpt lat="43.62021" lon="6.85459">
        <ele>241</ele>
        <time>2019-02-07T08:43:21.000Z</time>
      </trkpt>
      <trkpt lat="43.62021" lon="6.85461">
        <ele>241</ele>
        <time>2019-02-07T08:43:22.000Z</time>
      </trkpt>
      <trkpt lat="43.62021" lon="6.85463">
        <ele>242</ele>
        <time>2019-02-07T08:43:23.000Z</time>
      </trkpt>
      <trkpt lat="43.6202" lon="6.85464">
        <ele>242</ele>
        <time>2019-02-07T08:43:24.000Z</time>
      </trkpt>
      <trkpt lat="43.6202" lon="6.85466">
        <ele>243</ele>
        <time>2019-02-07T08:43:25.000Z</time>
      </trkpt>
      <trkpt lat="43.62021" lon="6.85467">
        <ele>243</ele>
        <time>2019-02-07T08:43:26.000Z</time>
      </trkpt>
      <trkpt lat="43.62021" lon="6.85469">
        <ele>244</ele>
        <time>2019-02-07T08:43:27.000Z</time>
      </trkpt>
      <trkpt lat="43.6202" lon="6.8547">
        <ele>244</ele>
        <time>2019-02-07T08:43:28.000Z</time>
      </trkpt>
      <trkpt lat="43.6202" lon="6.85472">
        <ele>245</ele>
        <time>2019-02-07T08:43:29.000Z</time>
      </trkpt>
      <trkpt lat="43.6202" lon="6.85474">
        <ele>246</ele>
        <time>2019-02-07T08:43:30.000Z</time>
      </trkpt>
      <trkpt lat="43.6202" lon="6.85475">
        <ele>246</ele>
        <time>2019-02-07T08:43:31.000Z</time>
      </trkpt>
      <trkpt lat="43.62019" lon="6.85477">
        <ele>246</ele>
        <time>2019-02-07T08:43:32.000Z</time>
      </trkpt>
      <trkpt lat="43.62019" lon="6.85478">
        <ele>246</ele>
        <time>2019-02-07T08:43:33.000Z</time>
      </trkpt>
      <trkpt lat="43.62019" lon="6.8548">
        <ele>246</ele>
        <time>2019-02-07T08:43:34.000Z</time>
      </trkpt>
      <trkpt lat="43.62018" lon="6.85481">
        <ele>245</ele>
        <time>2019-02-07T08:43:35.000Z</time>
      </trkpt>
      <trkpt lat="43.62017" lon="6.85483">
        <ele>244</ele>
        <time>2019-02-07T08:43:36.000Z</time>
      </trkpt>
      <trkpt lat="43.62017" lon="6.85484">
        <ele>243</ele>
        <time>2019-02-07T08:43:37.000Z</time>
      </trkpt>
      <trkpt lat="43.62016" lon="6.85486">
        <ele>243</ele>
        <time>2019-02-07T08:43:38.000Z</time>
      </trkpt>
      <trkpt lat="43.62015" lon="6.85487">
        <ele>243</ele>
        <time>2019-02-07T08:43:39.000Z</time>
      </trkpt>
      <trkpt lat="43.62014" lon="6.85488">
        <ele>243</ele>
        <time>2019-02-07T08:43:40.000Z</time>
      </trkpt>
      <trkpt lat="43.62014" lon="6.8549">
        <ele>244</ele>
        <time>2019-02-07T08:43:41.000Z</time>
      </trkpt>
      <trkpt lat="43.62013" lon="6.85491">
        <ele>244</ele>
        <time>2019-02-07T08:43:42.000Z</time>
      </trkpt>
      <trkpt lat="43.62013" lon="6.85492">
        <ele>245</ele>
        <time>2019-02-07T08:43:43.000Z</time>
      </trkpt>
      <trkpt lat="43.62012" lon="6.85494">
        <ele>245</ele>
        <time>2019-02-07T08:43:44.000Z</time>
      </trkpt>
      <trkpt lat="43.62011" lon="6.85494">
        <ele>246</ele>
        <time>2019-02-07T08:43:45.000Z</time>
      </trkpt>
      <trkpt lat="43.62011" lon="6.85495">
        <ele>247</ele>
        <time>2019-02-07T08:43:46.000Z</time>
      </trkpt>
      <trkpt lat="43.6201" lon="6.85495">
        <ele>249</ele>
        <time>2019-02-07T08:43:47.000Z</time>
      </trkpt>
      <trkpt lat="43.62009" lon="6.85494">
        <ele>249</ele>
        <time>2019-02-07T08:43:48.000Z</time>
      </trkpt>
      <trkpt lat="43.62009" lon="6.85494">
        <ele>250</ele>
        <time>2019-02-07T08:43:49.000Z</time>
      </trkpt>
      <trkpt lat="43.62008" lon="6.85494">
        <ele>251</ele>
        <time>2019-02-07T08:43:50.000Z</time>
      </trkpt>
      <trkpt lat="43.62007" lon="6.85493">
        <ele>252</ele>
        <time>2019-02-07T08:43:51.000Z</time>
      </trkpt>
      <trkpt lat="43.62006" lon="6.85493">
        <ele>252</ele>
        <time>2019-02-07T08:43:52.000Z</time>
      </trkpt>
      <trkpt lat="43.62006" lon="6.85493">
        <ele>252</ele>
        <time>2019-02-07T08:43:53.000Z</time>
      </trkpt>
      <trkpt lat="43.62005" lon="6.85492">
        <ele>253</ele>
        <time>2019-02-07T08:43:54.000Z</time>
      </trkpt>
      <trkpt lat="43.62005" lon="6.85492">
        <ele>253</ele>
        <time>2019-02-07T08:43:55.000Z</time>
      </trkpt>
      <trkpt lat="43.62004" lon="6.85492">
        <ele>253</ele>
        <time>2019-02-07T08:43:56.000Z</time>
      </trkpt>
      <trkpt lat="43.62003" lon="6.85492">
        <ele>253</ele>
        <time>2019-02-07T08:43:57.000Z</time>
      </trkpt>
      <trkpt lat="43.62002" lon="6.85493">
        <ele>253</ele>
        <time>2019-02-07T08:43:58.000Z</time>
      </trkpt>
      <trkpt lat="43.62002" lon="6.85493">
        <ele>253</ele>
        <time>2019-02-07T08:43:59.000Z</time>
      </trkpt>
      <trkpt lat="43.62001" lon="6.85492">
        <ele>253</ele>
        <time>2019-02-07T08:44:00.000Z</time>
      </trkpt>
      <trkpt lat="43.62" lon="6.85492">
        <ele>253</ele>
        <time>2019-02-07T08:44:01.000Z</time>
      </trkpt>
      <trkpt lat="43.61999" lon="6.85492">
        <ele>253</ele>
        <time>2019-02-07T08:44:02.000Z</time>
      </trkpt>
      <trkpt lat="43.61999" lon="6.85492">
        <ele>254</ele>
        <time>2019-02-07T08:44:03.000Z</time>
      </trkpt>
      <trkpt lat="43.61998" lon="6.85492">
        <ele>254</ele>
        <time>2019-02-07T08:44:04.000Z</time>
      </trkpt>
      <trkpt lat="43.61998" lon="6.85492">
        <ele>255</ele>
        <time>2019-02-07T08:44:05.000Z</time>
      </trkpt>
      <trkpt lat="43.61997" lon="6.85492">
        <ele>255</ele>
        <time>2019-02-07T08:44:06.000Z</time>
      </trkpt>
      <trkpt lat="43.61997" lon="6.85492">
        <ele>256</ele>
        <time>2019-02-07T08:44:07.000Z</time>
      </trkpt>
      <trkpt lat="43.61996" lon="6.85493">
        <ele>256</ele>
        <time>2019-02-07T08:44:08.000Z</time>
      </trkpt>
      <trkpt lat="43.61995" lon="6.85493">
        <ele>257</ele>
        <time>2019-02-07T08:44:09.000Z</time>
      </trkpt>
      <trkpt lat="43.61994" lon="6.85493">
        <ele>257</ele>
        <time>2019-02-07T08:44:10.000Z</time>
      </trkpt>
      <trkpt lat="43.61994" lon="6.85493">
        <ele>258</ele>
        <time>2019-02-07T08:44:11.000Z</time>
      </trkpt>
      <trkpt lat="43.61993" lon="6.85494">
        <ele>258</ele>
        <time>2019-02-07T08:44:12.000Z</time>
      </trkpt>
      <trkpt lat="43.61993" lon="6.85494">
        <ele>258</ele>
        <time>2019-02-07T08:44:13.000Z</time>
      </trkpt>
      <trkpt lat="43.61992" lon="6.85494">
        <ele>258</ele>
        <time>2019-02-07T08:44:14.000Z</time>
      </trkpt>
      <trkpt lat="43.61991" lon="6.85495">
        <ele>258</ele>
        <time>2019-02-07T08:44:15.000Z</time>
      </trkpt>
      <trkpt lat="43.61991" lon="6.85495">
        <ele>257</ele>
        <time>2019-02-07T08:44:16.000Z</time>
      </trkpt>
      <trkpt lat="43.6199" lon="6.85495">
        <ele>257</ele>
        <time>2019-02-07T08:44:17.000Z</time>
      </trkpt>
      <trkpt lat="43.61989" lon="6.85495">
        <ele>258</ele>
        <time>2019-02-07T08:44:18.000Z</time>
      </trkpt>
      <trkpt lat="43.61988" lon="6.85495">
        <ele>258</ele>
        <time>2019-02-07T08:44:19.000Z</time>
      </trkpt>
      <trkpt lat="43.61988" lon="6.85495">
        <ele>258</ele>
        <time>2019-02-07T08:44:20.000Z</time>
      </trkpt>
      <trkpt lat="43.61987" lon="6.85495">
        <ele>259</ele>
        <time>2019-02-07T08:44:21.000Z</time>
      </trkpt>
      <trkpt lat="43.61986" lon="6.85496">
        <ele>259</ele>
        <time>2019-02-07T08:44:22.000Z</time>
      </trkpt>
      <trkpt lat="43.61985" lon="6.85496">
        <ele>260</ele>
        <time>2019-02-07T08:44:23.000Z</time>
      </trkpt>
      <trkpt lat="43.61984" lon="6.85497">
        <ele>259</ele>
        <time>2019-02-07T08:44:24.000Z</time>
      </trkpt>
      <trkpt lat="43.61983" lon="6.85497">
        <ele>260</ele>
        <time>2019-02-07T08:44:25.000Z</time>
      </trkpt>
      <trkpt lat="43.61982" lon="6.85498">
        <ele>260</ele>
        <time>2019-02-07T08:44:26.000Z</time>
      </trkpt>
      <trkpt lat="43.61981" lon="6.85499">
        <ele>261</ele>
        <time>2019-02-07T08:44:27.000Z</time>
      </trkpt>
      <trkpt lat="43.6198" lon="6.855">
        <ele>261</ele>
        <time>2019-02-07T08:44:28.000Z</time>
      </trkpt>
      <trkpt lat="43.61979" lon="6.85501">
        <ele>262</ele>
        <time>2019-02-07T08:44:29.000Z</time>
      </trkpt>
      <trkpt lat="43.61979" lon="6.85502">
        <ele>262</ele>
        <time>2019-02-07T08:44:30.000Z</time>
      </trkpt>
      <trkpt lat="43.61978" lon="6.85503">
        <ele>262</ele>
        <time>2019-02-07T08:44:31.000Z</time>
      </trkpt>
      <trkpt lat="43.61977" lon="6.85504">
        <ele>263</ele>
        <time>2019-02-07T08:44:32.000Z</time>
      </trkpt>
      <trkpt lat="43.61976" lon="6.85505">
        <ele>263</ele>
        <time>2019-02-07T08:44:33.000Z</time>
      </trkpt>
      <trkpt lat="43.61975" lon="6.85506">
        <ele>263</ele>
        <time>2019-02-07T08:44:34.000Z</time>
      </trkpt>
      <trkpt lat="43.61975" lon="6.85507">
        <ele>263</ele>
        <time>2019-02-07T08:44:35.000Z</time>
      </trkpt>
      <trkpt lat="43.61974" lon="6.85507">
        <ele>263</ele>
        <time>2019-02-07T08:44:36.000Z</time>
      </trkpt>
      <trkpt lat="43.61973" lon="6.85507">
        <ele>262</ele>
        <time>2019-02-07T08:44:37.000Z</time>
      </trkpt>
      <trkpt lat="43.61972" lon="6.85507">
        <ele>262</ele>
        <time>2019-02-07T08:44:38.000Z</time>
      </trkpt>
      <trkpt lat="43.6197" lon="6.85508">
        <ele>262</ele>
        <time>2019-02-07T08:44:39.000Z</time>
      </trkpt>
      <trkpt lat="43.6197" lon="6.85508">
        <ele>262</ele>
        <time>2019-02-07T08:44:40.000Z</time>
      </trkpt>
      <trkpt lat="43.61969" lon="6.85508">
        <ele>263</ele>
        <time>2019-02-07T08:44:41.000Z</time>
      </trkpt>
      <trkpt lat="43.61968" lon="6.85508">
        <ele>263</ele>
        <time>2019-02-07T08:44:42.000Z</time>
      </trkpt>
      <trkpt lat="43.61967" lon="6.85507">
        <ele>263</ele>
        <time>2019-02-07T08:44:43.000Z</time>
      </trkpt>
      <trkpt lat="43.61966" lon="6.85507">
        <ele>263</ele>
        <time>2019-02-07T08:44:44.000Z</time>
      </trkpt>
      <trkpt lat="43.61966" lon="6.85507">
        <ele>264</ele>
        <time>2019-02-07T08:44:45.000Z</time>
      </trkpt>
      <trkpt lat="43.61965" lon="6.85508">
        <ele>264</ele>
        <time>2019-02-07T08:44:46.000Z</time>
      </trkpt>
      <trkpt lat="43.61964" lon="6.85508">
        <ele>264</ele>
        <time>2019-02-07T08:44:47.000Z</time>
      </trkpt>
      <trkpt lat="43.61964" lon="6.85508">
        <ele>264</ele>
        <time>2019-02-07T08:44:48.000Z</time>
      </trkpt>
      <trkpt lat="43.61963" lon="6.85508">
        <ele>264</ele>
        <time>2019-02-07T08:44:49.000Z</time>
      </trkpt>
      <trkpt lat="43.61962" lon="6.85508">
        <ele>265</ele>
        <time>2019-02-07T08:44:50.000Z</time>
      </trkpt>
      <trkpt lat="43.61961" lon="6.85508">
        <ele>265</ele>
        <time>2019-02-07T08:44:51.000Z</time>
      </trkpt>
      <trkpt lat="43.6196" lon="6.85508">
        <ele>265</ele>
        <time>2019-02-07T08:44:52.000Z</time>
      </trkpt>
      <trkpt lat="43.61959" lon="6.85509">
        <ele>266</ele>
        <time>2019-02-07T08:44:53.000Z</time>
      </trkpt>
      <trkpt lat="43.61958" lon="6.85509">
        <ele>266</ele>
        <time>2019-02-07T08:44:54.000Z</time>
      </trkpt>
      <trkpt lat="43.61957" lon="6.85509">
        <ele>266</ele>
        <time>2019-02-07T08:44:55.000Z</time>
      </trkpt>
      <trkpt lat="43.61956" lon="6.85509">
        <ele>266</ele>
        <time>2019-02-07T08:44:56.000Z</time>
      </trkpt>
      <trkpt lat="43.61955" lon="6.85509">
        <ele>265</ele>
        <time>2019-02-07T08:44:57.000Z</time>
      </trkpt>
      <trkpt lat="43.61954" lon="6.85509">
        <ele>265</ele>
        <time>2019-02-07T08:44:58.000Z</time>
      </trkpt>
      <trkpt lat="43.61952" lon="6.8551">
        <ele>265</ele>
        <time>2019-02-07T08:44:59.000Z</time>
      </trkpt>
      <trkpt lat="43.61951" lon="6.8551">
        <ele>265</ele>
        <time>2019-02-07T08:45:00.000Z</time>
      </trkpt>
      <trkpt lat="43.6195" lon="6.8551">
        <ele>265</ele>
        <time>2019-02-07T08:45:01.000Z</time>
      </trkpt>
      <trkpt lat="43.61949" lon="6.8551">
        <ele>265</ele>
        <time>2019-02-07T08:45:02.000Z</time>
      </trkpt>
      <trkpt lat="43.61947" lon="6.8551">
        <ele>265</ele>
        <time>2019-02-07T08:45:03.000Z</time>
      </trkpt>
      <trkpt lat="43.61945" lon="6.8551">
        <ele>266</ele>
        <time>2019-02-07T08:45:04.000Z</time>
      </trkpt>
      <trkpt lat="43.61944" lon="6.8551">
        <ele>266</ele>
        <time>2019-02-07T08:45:05.000Z</time>
      </trkpt>
      <trkpt lat="43.61943" lon="6.85511">
        <ele>267</ele>
        <time>2019-02-07T08:45:06.000Z</time>
      </trkpt>
      <trkpt lat="43.61942" lon="6.85512">
        <ele>267</ele>
        <time>2019-02-07T08:45:07.000Z</time>
      </trkpt>
      <trkpt lat="43.61941" lon="6.85513">
        <ele>267</ele>
        <time>2019-02-07T08:45:08.000Z</time>
      </trkpt>
      <trkpt lat="43.6194" lon="6.85514">
        <ele>266</ele>
        <time>2019-02-07T08:45:09.000Z</time>
      </trkpt>
      <trkpt lat="43.61939" lon="6.85516">
        <ele>266</ele>
        <time>2019-02-07T08:45:10.000Z</time>
      </trkpt>
      <trkpt lat="43.61937" lon="6.85517">
        <ele>266</ele>
        <time>2019-02-07T08:45:11.000Z</time>
      </trkpt>
      <trkpt lat="43.61936" lon="6.85519">
        <ele>266</ele>
        <time>2019-02-07T08:45:12.000Z</time>
      </trkpt>
      <trkpt lat="43.61935" lon="6.85521">
        <ele>266</ele>
        <time>2019-02-07T08:45:13.000Z</time>
      </trkpt>
      <trkpt lat="43.61933" lon="6.85523">
        <ele>266</ele>
        <time>2019-02-07T08:45:14.000Z</time>
      </trkpt>
      <trkpt lat="43.61932" lon="6.85525">
        <ele>267</ele>
        <time>2019-02-07T08:45:15.000Z</time>
      </trkpt>
      <trkpt lat="43.61931" lon="6.85527">
        <ele>267</ele>
        <time>2019-02-07T08:45:16.000Z</time>
      </trkpt>
      <trkpt lat="43.61929" lon="6.85529">
        <ele>267</ele>
        <time>2019-02-07T08:45:17.000Z</time>
      </trkpt>
      <trkpt lat="43.61928" lon="6.85531">
        <ele>268</ele>
        <time>2019-02-07T08:45:18.000Z</time>
      </trkpt>
      <trkpt lat="43.61927" lon="6.85533">
        <ele>267</ele>
        <time>2019-02-07T08:45:19.000Z</time>
      </trkpt>
      <trkpt lat="43.61926" lon="6.85535">
        <ele>268</ele>
        <time>2019-02-07T08:45:20.000Z</time>
      </trkpt>
      <trkpt lat="43.61924" lon="6.85536">
        <ele>268</ele>
        <time>2019-02-07T08:45:21.000Z</time>
      </trkpt>
      <trkpt lat="43.61922" lon="6.85538">
        <ele>268</ele>
        <time>2019-02-07T08:45:22.000Z</time>
      </trkpt>
      <trkpt lat="43.61921" lon="6.85541">
        <ele>267</ele>
        <time>2019-02-07T08:45:23.000Z</time>
      </trkpt>
      <trkpt lat="43.61919" lon="6.85543">
        <ele>267</ele>
        <time>2019-02-07T08:45:24.000Z</time>
      </trkpt>
      <trkpt lat="43.61918" lon="6.85545">
        <ele>266</ele>
        <time>2019-02-07T08:45:25.000Z</time>
      </trkpt>
      <trkpt lat="43.61916" lon="6.85548">
        <ele>267</ele>
        <time>2019-02-07T08:45:26.000Z</time>
      </trkpt>
      <trkpt lat="43.61914" lon="6.8555">
        <ele>267</ele>
        <time>2019-02-07T08:45:27.000Z</time>
      </trkpt>
      <trkpt lat="43.61912" lon="6.85552">
        <ele>268</ele>
        <time>2019-02-07T08:45:28.000Z</time>
      </trkpt>
      <trkpt lat="43.6191" lon="6.85553">
        <ele>267</ele>
        <time>2019-02-07T08:45:29.000Z</time>
      </trkpt>
      <trkpt lat="43.61907" lon="6.85554">
        <ele>267</ele>
        <time>2019-02-07T08:45:30.000Z</time>
      </trkpt>
      <trkpt lat="43.61905" lon="6.85555">
        <ele>266</ele>
        <time>2019-02-07T08:45:31.000Z</time>
      </trkpt>
      <trkpt lat="43.61903" lon="6.85555">
        <ele>266</ele>
        <time>2019-02-07T08:45:32.000Z</time>
      </trkpt>
      <trkpt lat="43.619" lon="6.85555">
        <ele>266</ele>
        <time>2019-02-07T08:45:33.000Z</time>
      </trkpt>
      <trkpt lat="43.61898" lon="6.85555">
        <ele>266</ele>
        <time>2019-02-07T08:45:34.000Z</time>
      </trkpt>
      <trkpt lat="43.61896" lon="6.85555">
        <ele>266</ele>
        <time>2019-02-07T08:45:35.000Z</time>
      </trkpt>
      <trkpt lat="43.61893" lon="6.85555">
        <ele>266</ele>
        <time>2019-02-07T08:45:36.000Z</time>
      </trkpt>
      <trkpt lat="43.61891" lon="6.85555">
        <ele>266</ele>
        <time>2019-02-07T08:45:37.000Z</time>
      </trkpt>
      <trkpt lat="43.61889" lon="6.85554">
        <ele>266</ele>
        <time>2019-02-07T08:45:38.000Z</time>
      </trkpt>
      <trkpt lat="43.61887" lon="6.85555">
        <ele>266</ele>
        <time>2019-02-07T08:45:39.000Z</time>
      </trkpt>
      <trkpt lat="43.61884" lon="6.85555">
        <ele>265</ele>
        <time>2019-02-07T08:45:40.000Z</time>
      </trkpt>
      <trkpt lat="43.61882" lon="6.85555">
        <ele>265</ele>
        <time>2019-02-07T08:45:41.000Z</time>
      </trkpt>
      <trkpt lat="43.6188" lon="6.85555">
        <ele>265</ele>
        <time>2019-02-07T08:45:42.000Z</time>
      </trkpt>
      <trkpt lat="43.61877" lon="6.85555">
        <ele>265</ele>
        <time>2019-02-07T08:45:43.000Z</time>
      </trkpt>
      <trkpt lat="43.61875" lon="6.85555">
        <ele>265</ele>
        <time>2019-02-07T08:45:44.000Z</time>
      </trkpt>
      <trkpt lat="43.61873" lon="6.85555">
        <ele>265</ele>
        <time>2019-02-07T08:45:45.000Z</time>
      </trkpt>
      <trkpt lat="43.61871" lon="6.85556">
        <ele>265</ele>
        <time>2019-02-07T08:45:46.000Z</time>
      </trkpt>
      <trkpt lat="43.6187" lon="6.85556">
        <ele>265</ele>
        <time>2019-02-07T08:45:47.000Z</time>
      </trkpt>
      <trkpt lat="43.61867" lon="6.85558">
        <ele>263</ele>
        <time>2019-02-07T08:45:48.000Z</time>
      </trkpt>
      <trkpt lat="43.61865" lon="6.8556">
        <ele>263</ele>
        <time>2019-02-07T08:45:49.000Z</time>
      </trkpt>
      <trkpt lat="43.61863" lon="6.85563">
        <ele>263</ele>
        <time>2019-02-07T08:45:50.000Z</time>
      </trkpt>
      <trkpt lat="43.61861" lon="6.85565">
        <ele>264</ele>
        <time>2019-02-07T08:45:51.000Z</time>
      </trkpt>
      <trkpt lat="43.61859" lon="6.85567">
        <ele>264</ele>
        <time>2019-02-07T08:45:52.000Z</time>
      </trkpt>
      <trkpt lat="43.61858" lon="6.85569">
        <ele>264</ele>
        <time>2019-02-07T08:45:53.000Z</time>
      </trkpt>
      <trkpt lat="43.61856" lon="6.8557">
        <ele>265</ele>
        <time>2019-02-07T08:45:54.000Z</time>
      </trkpt>
      <trkpt lat="43.61854" lon="6.85572">
        <ele>265</ele>
        <time>2019-02-07T08:45:55.000Z</time>
      </trkpt>
      <trkpt lat="43.61852" lon="6.85573">
        <ele>265</ele>
        <time>2019-02-07T08:45:56.000Z</time>
      </trkpt>
      <trkpt lat="43.6185" lon="6.85575">
        <ele>265</ele>
        <time>2019-02-07T08:45:57.000Z</time>
      </trkpt>
      <trkpt lat="43.61848" lon="6.85576">
        <ele>266</ele>
        <time>2019-02-07T08:45:58.000Z</time>
      </trkpt>
      <trkpt lat="43.61846" lon="6.85577">
        <ele>266</ele>
        <time>2019-02-07T08:45:59.000Z</time>
      </trkpt>
      <trkpt lat="43.61843" lon="6.85577">
        <ele>267</ele>
        <time>2019-02-07T08:46:00.000Z</time>
      </trkpt>
      <trkpt lat="43.61842" lon="6.85578">
        <ele>268</ele>
        <time>2019-02-07T08:46:01.000Z</time>
      </trkpt>
      <trkpt lat="43.61839" lon="6.85579">
        <ele>268</ele>
        <time>2019-02-07T08:46:02.000Z</time>
      </trkpt>
      <trkpt lat="43.61837" lon="6.85579">
        <ele>268</ele>
        <time>2019-02-07T08:46:03.000Z</time>
      </trkpt>
      <trkpt lat="43.61835" lon="6.8558">
        <ele>268</ele>
        <time>2019-02-07T08:46:04.000Z</time>
      </trkpt>
      <trkpt lat="43.61833" lon="6.8558">
        <ele>269</ele>
        <time>2019-02-07T08:46:05.000Z</time>
      </trkpt>
      <trkpt lat="43.61831" lon="6.85581">
        <ele>269</ele>
        <time>2019-02-07T08:46:06.000Z</time>
      </trkpt>
      <trkpt lat="43.61828" lon="6.85581">
        <ele>270</ele>
        <time>2019-02-07T08:46:07.000Z</time>
      </trkpt>
      <trkpt lat="43.61826" lon="6.85582">
        <ele>271</ele>
        <time>2019-02-07T08:46:08.000Z</time>
      </trkpt>
      <trkpt lat="43.61824" lon="6.85582">
        <ele>272</ele>
        <time>2019-02-07T08:46:09.000Z</time>
      </trkpt>
      <trkpt lat="43.61822" lon="6.85583">
        <ele>272</ele>
        <time>2019-02-07T08:46:10.000Z</time>
      </trkpt>
      <trkpt lat="43.6182" lon="6.85583">
        <ele>273</ele>
        <time>2019-02-07T08:46:11.000Z</time>
      </trkpt>
      <trkpt lat="43.61818" lon="6.85584">
        <ele>273</ele>
        <time>2019-02-07T08:46:12.000Z</time>
      </trkpt>
      <trkpt lat="43.61816" lon="6.85585">
        <ele>274</ele>
        <time>2019-02-07T08:46:13.000Z</time>
      </trkpt>
      <trkpt lat="43.61814" lon="6.85585">
        <ele>274</ele>
        <time>2019-02-07T08:46:14.000Z</time>
      </trkpt>
      <trkpt lat="43.61812" lon="6.85586">
        <ele>274</ele>
        <time>2019-02-07T08:46:15.000Z</time>
      </trkpt>
      <trkpt lat="43.6181" lon="6.85587">
        <ele>275</ele>
        <time>2019-02-07T08:46:16.000Z</time>
      </trkpt>
      <trkpt lat="43.61808" lon="6.85588">
        <ele>275</ele>
        <time>2019-02-07T08:46:17.000Z</time>
      </trkpt>
      <trkpt lat="43.61806" lon="6.85588">
        <ele>275</ele>
        <time>2019-02-07T08:46:18.000Z</time>
      </trkpt>
      <trkpt lat="43.61804" lon="6.85589">
        <ele>276</ele>
        <time>2019-02-07T08:46:19.000Z</time>
      </trkpt>
      <trkpt lat="43.61802" lon="6.85589">
        <ele>276</ele>
        <time>2019-02-07T08:46:20.000Z</time>
      </trkpt>
      <trkpt lat="43.618" lon="6.8559">
        <ele>276</ele>
        <time>2019-02-07T08:46:21.000Z</time>
      </trkpt>
      <trkpt lat="43.61798" lon="6.8559">
        <ele>276</ele>
        <time>2019-02-07T08:46:22.000Z</time>
      </trkpt>
      <trkpt lat="43.61796" lon="6.8559">
        <ele>275</ele>
        <time>2019-02-07T08:46:23.000Z</time>
      </trkpt>
      <trkpt lat="43.61794" lon="6.8559">
        <ele>275</ele>
        <time>2019-02-07T08:46:24.000Z</time>
      </trkpt>
      <trkpt lat="43.61791" lon="6.85591">
        <ele>275</ele>
        <time>2019-02-07T08:46:25.000Z</time>
      </trkpt>
      <trkpt lat="43.61789" lon="6.85591">
        <ele>275</ele>
        <time>2019-02-07T08:46:26.000Z</time>
      </trkpt>
      <trkpt lat="43.61786" lon="6.85592">
        <ele>274</ele>
        <time>2019-02-07T08:46:27.000Z</time>
      </trkpt>
      <trkpt lat="43.61784" lon="6.85592">
        <ele>275</ele>
        <time>2019-02-07T08:46:28.000Z</time>
      </trkpt>
      <trkpt lat="43.61782" lon="6.85593">
        <ele>275</ele>
        <time>2019-02-07T08:46:29.000Z</time>
      </trkpt>
      <trkpt lat="43.61779" lon="6.85594">
        <ele>275</ele>
        <time>2019-02-07T08:46:30.000Z</time>
      </trkpt>
      <trkpt lat="43.61777" lon="6.85594">
        <ele>275</ele>
        <time>2019-02-07T08:46:31.000Z</time>
      </trkpt>
      <trkpt lat="43.61775" lon="6.85595">
        <ele>274</ele>
        <time>2019-02-07T08:46:32.000Z</time>
      </trkpt>
      <trkpt lat="43.61772" lon="6.85596">
        <ele>275</ele>
        <time>2019-02-07T08:46:33.000Z</time>
      </trkpt>
      <trkpt lat="43.6177" lon="6.85596">
        <ele>275</ele>
        <time>2019-02-07T08:46:34.000Z</time>
      </trkpt>
      <trkpt lat="43.61768" lon="6.85597">
        <ele>275</ele>
        <time>2019-02-07T08:46:35.000Z</time>
      </trkpt>
      <trkpt lat="43.61766" lon="6.85598">
        <ele>274</ele>
        <time>2019-02-07T08:46:36.000Z</time>
      </trkpt>
      <trkpt lat="43.61763" lon="6.85599">
        <ele>274</ele>
        <time>2019-02-07T08:46:37.000Z</time>
      </trkpt>
      <trkpt lat="43.61761" lon="6.85599">
        <ele>274</ele>
        <time>2019-02-07T08:46:38.000Z</time>
      </trkpt>
      <trkpt lat="43.61759" lon="6.856">
        <ele>274</ele>
        <time>2019-02-07T08:46:39.000Z</time>
      </trkpt>
      <trkpt lat="43.61756" lon="6.85601">
        <ele>273</ele>
        <time>2019-02-07T08:46:40.000Z</time>
      </trkpt>
      <trkpt lat="43.61754" lon="6.85602">
        <ele>273</ele>
        <time>2019-02-07T08:46:41.000Z</time>
      </trkpt>
      <trkpt lat="43.61751" lon="6.85603">
        <ele>272</ele>
        <time>2019-02-07T08:46:42.000Z</time>
      </trkpt>
      <trkpt lat="43.61749" lon="6.85604">
        <ele>272</ele>
        <time>2019-02-07T08:46:43.000Z</time>
      </trkpt>
      <trkpt lat="43.61747" lon="6.85604">
        <ele>272</ele>
        <time>2019-02-07T08:46:44.000Z</time>
      </trkpt>
      <trkpt lat="43.61745" lon="6.85605">
        <ele>272</ele>
        <time>2019-02-07T08:46:45.000Z</time>
      </trkpt>
      <trkpt lat="43.61743" lon="6.85606">
        <ele>271</ele>
        <time>2019-02-07T08:46:46.000Z</time>
      </trkpt>
      <trkpt lat="43.61741" lon="6.85607">
        <ele>271</ele>
        <time>2019-02-07T08:46:47.000Z</time>
      </trkpt>
      <trkpt lat="43.61739" lon="6.85608">
        <ele>270</ele>
        <time>2019-02-07T08:46:48.000Z</time>
      </trkpt>
      <trkpt lat="43.61737" lon="6.85608">
        <ele>270</ele>
        <time>2019-02-07T08:46:49.000Z</time>
      </trkpt>
      <trkpt lat="43.61735" lon="6.85609">
        <ele>269</ele>
        <time>2019-02-07T08:46:50.000Z</time>
      </trkpt>
      <trkpt lat="43.61734" lon="6.85609">
        <ele>269</ele>
        <time>2019-02-07T08:46:51.000Z</time>
      </trkpt>
      <trkpt lat="43.61732" lon="6.8561">
        <ele>268</ele>
        <time>2019-02-07T08:46:52.000Z</time>
      </trkpt>
      <trkpt lat="43.6173" lon="6.8561">
        <ele>268</ele>
        <time>2019-02-07T08:46:53.000Z</time>
      </trkpt>
      <trkpt lat="43.61727" lon="6.85611">
        <ele>268</ele>
        <time>2019-02-07T08:46:54.000Z</time>
      </trkpt>
      <trkpt lat="43.61725" lon="6.85611">
        <ele>268</ele>
        <time>2019-02-07T08:46:55.000Z</time>
      </trkpt>
      <trkpt lat="43.61722" lon="6.85611">
        <ele>267</ele>
        <time>2019-02-07T08:46:56.000Z</time>
      </trkpt>
      <trkpt lat="43.61719" lon="6.85611">
        <ele>267</ele>
        <time>2019-02-07T08:46:57.000Z</time>
      </trkpt>
      <trkpt lat="43.61716" lon="6.85611">
        <ele>266</ele>
        <time>2019-02-07T08:46:58.000Z</time>
      </trkpt>
      <trkpt lat="43.61714" lon="6.85611">
        <ele>266</ele>
        <time>2019-02-07T08:46:59.000Z</time>
      </trkpt>
      <trkpt lat="43.61711" lon="6.85612">
        <ele>266</ele>
        <time>2019-02-07T08:47:00.000Z</time>
      </trkpt>
      <trkpt lat="43.61709" lon="6.85612">
        <ele>265</ele>
        <time>2019-02-07T08:47:01.000Z</time>
      </trkpt>
      <trkpt lat="43.61707" lon="6.85613">
        <ele>265</ele>
        <time>2019-02-07T08:47:02.000Z</time>
      </trkpt>
      <trkpt lat="43.61705" lon="6.85613">
        <ele>264</ele>
        <time>2019-02-07T08:47:03.000Z</time>
      </trkpt>
      <trkpt lat="43.61704" lon="6.85613">
        <ele>266</ele>
        <time>2019-02-07T08:47:04.000Z</time>
      </trkpt>
      <trkpt lat="43.61704" lon="6.85614">
        <ele>266</ele>
        <time>2019-02-07T08:47:05.000Z</time>
      </trkpt>
      <trkpt lat="43.61705" lon="6.85613">
        <ele>267</ele>
        <time>2019-02-07T08:47:06.000Z</time>
      </trkpt>
      <trkpt lat="43.61705" lon="6.85613">
        <ele>267</ele>
        <time>2019-02-07T08:47:07.000Z</time>
      </trkpt>
      <trkpt lat="43.61704" lon="6.85613">
        <ele>266</ele>
        <time>2019-02-07T08:47:08.000Z</time>
      </trkpt>
      <trkpt lat="43.61704" lon="6.85613">
        <ele>266</ele>
        <time>2019-02-07T08:47:09.000Z</time>
      </trkpt>
      <trkpt lat="43.61704" lon="6.85613">
        <ele>266</ele>
        <time>2019-02-07T08:47:10.000Z</time>
      </trkpt>
      <trkpt lat="43.61703" lon="6.85613">
        <ele>265</ele>
        <time>2019-02-07T08:47:11.000Z</time>
      </trkpt>
      <trkpt lat="43.61702" lon="6.85613">
        <ele>264</ele>
        <time>2019-02-07T08:47:12.000Z</time>
      </trkpt>
      <trkpt lat="43.61701" lon="6.85614">
        <ele>264</ele>
        <time>2019-02-07T08:47:13.000Z</time>
      </trkpt>
      <trkpt lat="43.617" lon="6.85614">
        <ele>264</ele>
        <time>2019-02-07T08:47:14.000Z</time>
      </trkpt>
      <trkpt lat="43.61699" lon="6.85613">
        <ele>263</ele>
        <time>2019-02-07T08:47:15.000Z</time>
      </trkpt>
      <trkpt lat="43.61698" lon="6.85613">
        <ele>263</ele>
        <time>2019-02-07T08:47:16.000Z</time>
      </trkpt>
      <trkpt lat="43.61697" lon="6.85612">
        <ele>263</ele>
        <time>2019-02-07T08:47:17.000Z</time>
      </trkpt>
      <trkpt lat="43.61696" lon="6.85612">
        <ele>262</ele>
        <time>2019-02-07T08:47:18.000Z</time>
      </trkpt>
      <trkpt lat="43.61695" lon="6.85611">
        <ele>262</ele>
        <time>2019-02-07T08:47:19.000Z</time>
      </trkpt>
      <trkpt lat="43.61694" lon="6.85611">
        <ele>262</ele>
        <time>2019-02-07T08:47:20.000Z</time>
      </trkpt>
      <trkpt lat="43.61693" lon="6.85611">
        <ele>262</ele>
        <time>2019-02-07T08:47:21.000Z</time>
      </trkpt>
      <trkpt lat="43.61693" lon="6.85611">
        <ele>262</ele>
        <time>2019-02-07T08:47:22.000Z</time>
      </trkpt>
      <trkpt lat="43.61692" lon="6.85611">
        <ele>262</ele>
        <time>2019-02-07T08:47:23.000Z</time>
      </trkpt>
      <trkpt lat="43.61691" lon="6.85611">
        <ele>262</ele>
        <time>2019-02-07T08:47:24.000Z</time>
      </trkpt>
      <trkpt lat="43.6169" lon="6.85611">
        <ele>262</ele>
        <time>2019-02-07T08:47:25.000Z</time>
      </trkpt>
      <trkpt lat="43.6169" lon="6.85611">
        <ele>262</ele>
        <time>2019-02-07T08:47:26.000Z</time>
      </trkpt>
      <trkpt lat="43.61689" lon="6.85611">
        <ele>262</ele>
        <time>2019-02-07T08:47:27.000Z</time>
      </trkpt>
      <trkpt lat="43.61688" lon="6.85612">
        <ele>262</ele>
        <time>2019-02-07T08:47:28.000Z</time>
      </trkpt>
      <trkpt lat="43.61687" lon="6.85612">
        <ele>263</ele>
        <time>2019-02-07T08:47:29.000Z</time>
      </trkpt>
      <trkpt lat="43.61687" lon="6.85612">
        <ele>262</ele>
        <time>2019-02-07T08:47:30.000Z</time>
      </trkpt>
      <trkpt lat="43.61687" lon="6.85612">
        <ele>263</ele>
        <time>2019-02-07T08:47:31.000Z</time>
      </trkpt>
      <trkpt lat="43.61686" lon="6.85612">
        <ele>263</ele>
        <time>2019-02-07T08:47:32.000Z</time>
      </trkpt>
      <trkpt lat="43.61686" lon="6.85612">
        <ele>263</ele>
        <time>2019-02-07T08:47:33.000Z</time>
      </trkpt>
      <trkpt lat="43.61686" lon="6.85612">
        <ele>263</ele>
        <time>2019-02-07T08:47:34.000Z</time>
      </trkpt>
      <trkpt lat="43.61686" lon="6.85612">
        <ele>263</ele>
        <time>2019-02-07T08:47:35.000Z</time>
      </trkpt>
      <trkpt lat="43.61686" lon="6.85612">
        <ele>262</ele>
        <time>2019-02-07T08:47:36.000Z</time>
      </trkpt>
      <trkpt lat="43.61686" lon="6.85612">
        <ele>262</ele>
        <time>2019-02-07T08:47:37.000Z</time>
      </trkpt>
      <trkpt lat="43.61687" lon="6.85612">
        <ele>262</ele>
        <time>2019-02-07T08:47:38.000Z</time>
      </trkpt>
      <trkpt lat="43.61687" lon="6.85611">
        <ele>262</ele>
        <time>2019-02-07T08:47:39.000Z</time>
      </trkpt>
      <trkpt lat="43.61687" lon="6.85611">
        <ele>262</ele>
        <time>2019-02-07T08:47:40.000Z</time>
      </trkpt>
      <trkpt lat="43.61687" lon="6.85611">
        <ele>262</ele>
        <time>2019-02-07T08:47:41.000Z</time>
      </trkpt>
      <trkpt lat="43.61687" lon="6.85611">
        <ele>262</ele>
        <time>2019-02-07T08:47:42.000Z</time>
      </trkpt>
      <trkpt lat="43.61688" lon="6.85611">
        <ele>263</ele>
        <time>2019-02-07T08:47:43.000Z</time>
      </trkpt>
      <trkpt lat="43.61688" lon="6.8561">
        <ele>263</ele>
        <time>2019-02-07T08:47:44.000Z</time>
      </trkpt>
      <trkpt lat="43.61688" lon="6.8561">
        <ele>263</ele>
        <time>2019-02-07T08:47:45.000Z</time>
      </trkpt>
      <trkpt lat="43.61688" lon="6.8561">
        <ele>264</ele>
        <time>2019-02-07T08:47:46.000Z</time>
      </trkpt>
      <trkpt lat="43.61688" lon="6.8561">
        <ele>263</ele>
        <time>2019-02-07T08:47:47.000Z</time>
      </trkpt>
      <trkpt lat="43.61688" lon="6.8561">
        <ele>263</ele>
        <time>2019-02-07T08:47:48.000Z</time>
      </trkpt>
      <trkpt lat="43.61688" lon="6.8561">
        <ele>263</ele>
        <time>2019-02-07T08:47:49.000Z</time>
      </trkpt>
      <trkpt lat="43.61688" lon="6.8561">
        <ele>263</ele>
        <time>2019-02-07T08:47:50.000Z</time>
      </trkpt>
      <trkpt lat="43.61688" lon="6.85611">
        <ele>263</ele>
        <time>2019-02-07T08:47:51.000Z</time>
      </trkpt>
      <trkpt lat="43.61687" lon="6.85611">
        <ele>263</ele>
        <time>2019-02-07T08:47:52.000Z</time>
      </trkpt>
      <trkpt lat="43.61687" lon="6.85611">
        <ele>262</ele>
        <time>2019-02-07T08:47:53.000Z</time>
      </trkpt>
      <trkpt lat="43.61687" lon="6.85611">
        <ele>262</ele>
        <time>2019-02-07T08:47:54.000Z</time>
      </trkpt>
      <trkpt lat="43.61687" lon="6.85611">
        <ele>262</ele>
        <time>2019-02-07T08:47:55.000Z</time>
      </trkpt>
      <trkpt lat="43.61687" lon="6.85611">
        <ele>261</ele>
        <time>2019-02-07T08:47:56.000Z</time>
      </trkpt>
      <trkpt lat="43.61687" lon="6.85612">
        <ele>262</ele>
        <time>2019-02-07T08:47:57.000Z</time>
      </trkpt>
      <trkpt lat="43.61687" lon="6.85612">
        <ele>262</ele>
        <time>2019-02-07T08:47:58.000Z</time>
      </trkpt>
      <trkpt lat="43.61686" lon="6.85612">
        <ele>262</ele>
        <time>2019-02-07T08:47:59.000Z</time>
      </trkpt>
      <trkpt lat="43.61686" lon="6.85612">
        <ele>262</ele>
        <time>2019-02-07T08:48:00.000Z</time>
      </trkpt>
      <trkpt lat="43.61686" lon="6.85612">
        <ele>262</ele>
        <time>2019-02-07T08:48:01.000Z</time>
      </trkpt>
      <trkpt lat="43.61687" lon="6.85611">
        <ele>262</ele>
        <time>2019-02-07T08:48:02.000Z</time>
      </trkpt>
      <trkpt lat="43.61687" lon="6.85611">
        <ele>262</ele>
        <time>2019-02-07T08:48:03.000Z</time>
      </trkpt>
      <trkpt lat="43.61687" lon="6.85611">
        <ele>262</ele>
        <time>2019-02-07T08:48:04.000Z</time>
      </trkpt>
      <trkpt lat="43.61687" lon="6.8561">
        <ele>263</ele>
        <time>2019-02-07T08:48:05.000Z</time>
      </trkpt>
      <trkpt lat="43.61687" lon="6.8561">
        <ele>263</ele>
        <time>2019-02-07T08:48:06.000Z</time>
      </trkpt>
      <trkpt lat="43.61688" lon="6.8561">
        <ele>263</ele>
        <time>2019-02-07T08:48:07.000Z</time>
      </trkpt>
      <trkpt lat="43.61688" lon="6.8561">
        <ele>263</ele>
        <time>2019-02-07T08:48:08.000Z</time>
      </trkpt>
      <trkpt lat="43.61688" lon="6.8561">
        <ele>263</ele>
        <time>2019-02-07T08:48:09.000Z</time>
      </trkpt>
      <trkpt lat="43.61688" lon="6.8561">
        <ele>263</ele>
        <time>2019-02-07T08:48:10.000Z</time>
      </trkpt>
      <trkpt lat="43.61688" lon="6.8561">
        <ele>263</ele>
        <time>2019-02-07T08:48:11.000Z</time>
      </trkpt>
      <trkpt lat="43.61688" lon="6.8561">
        <ele>263</ele>
        <time>2019-02-07T08:48:12.000Z</time>
      </trkpt>
      <trkpt lat="43.61688" lon="6.85611">
        <ele>263</ele>
        <time>2019-02-07T08:48:13.000Z</time>
      </trkpt>
      <trkpt lat="43.61688" lon="6.85611">
        <ele>263</ele>
        <time>2019-02-07T08:48:14.000Z</time>
      </trkpt>
      <trkpt lat="43.61688" lon="6.85611">
        <ele>263</ele>
        <time>2019-02-07T08:48:15.000Z</time>
      </trkpt>
      <trkpt lat="43.61688" lon="6.85611">
        <ele>263</ele>
        <time>2019-02-07T08:48:16.000Z</time>
      </trkpt>
      <trkpt lat="43.61688" lon="6.85611">
        <ele>263</ele>
        <time>2019-02-07T08:48:17.000Z</time>
      </trkpt>
      <trkpt lat="43.61688" lon="6.8561">
        <ele>262</ele>
        <time>2019-02-07T08:48:18.000Z</time>
      </trkpt>
      <trkpt lat="43.61687" lon="6.8561">
        <ele>262</ele>
        <time>2019-02-07T08:48:19.000Z</time>
      </trkpt>
      <trkpt lat="43.61687" lon="6.85609">
        <ele>262</ele>
        <time>2019-02-07T08:48:20.000Z</time>
      </trkpt>
      <trkpt lat="43.61687" lon="6.85609">
        <ele>261</ele>
        <time>2019-02-07T08:48:21.000Z</time>
      </trkpt>
      <trkpt lat="43.61687" lon="6.85609">
        <ele>261</ele>
        <time>2019-02-07T08:48:22.000Z</time>
      </trkpt>
      <trkpt lat="43.61687" lon="6.85609">
        <ele>262</ele>
        <time>2019-02-07T08:48:23.000Z</time>
      </trkpt>
      <trkpt lat="43.61687" lon="6.85609">
        <ele>262</ele>
        <time>2019-02-07T08:48:24.000Z</time>
      </trkpt>
      <trkpt lat="43.61687" lon="6.85609">
        <ele>262</ele>
        <time>2019-02-07T08:48:25.000Z</time>
      </trkpt>
      <trkpt lat="43.61687" lon="6.85609">
        <ele>262</ele>
        <time>2019-02-07T08:48:26.000Z</time>
      </trkpt>
      <trkpt lat="43.61687" lon="6.85609">
        <ele>262</ele>
        <time>2019-02-07T08:48:27.000Z</time>
      </trkpt>
      <trkpt lat="43.61687" lon="6.85609">
        <ele>263</ele>
        <time>2019-02-07T08:48:28.000Z</time>
      </trkpt>
      <trkpt lat="43.61687" lon="6.85609">
        <ele>262</ele>
        <time>2019-02-07T08:48:29.000Z</time>
      </trkpt>
      <trkpt lat="43.61687" lon="6.8561">
        <ele>263</ele>
        <time>2019-02-07T08:48:30.000Z</time>
      </trkpt>
      <trkpt lat="43.61687" lon="6.8561">
        <ele>262</ele>
        <time>2019-02-07T08:48:31.000Z</time>
      </trkpt>
      <trkpt lat="43.61687" lon="6.8561">
        <ele>262</ele>
        <time>2019-02-07T08:48:32.000Z</time>
      </trkpt>
      <trkpt lat="43.61687" lon="6.8561">
        <ele>262</ele>
        <time>2019-02-07T08:48:33.000Z</time>
      </trkpt>
      <trkpt lat="43.61687" lon="6.8561">
        <ele>262</ele>
        <time>2019-02-07T08:48:34.000Z</time>
      </trkpt>
      <trkpt lat="43.61687" lon="6.8561">
        <ele>263</ele>
        <time>2019-02-07T08:48:35.000Z</time>
      </trkpt>
      <trkpt lat="43.61687" lon="6.8561">
        <ele>263</ele>
        <time>2019-02-07T08:48:36.000Z</time>
      </trkpt>
      <trkpt lat="43.61688" lon="6.8561">
        <ele>262</ele>
        <time>2019-02-07T08:48:37.000Z</time>
      </trkpt>
      <trkpt lat="43.61688" lon="6.8561">
        <ele>263</ele>
        <time>2019-02-07T08:48:38.000Z</time>
      </trkpt>
      <trkpt lat="43.61688" lon="6.8561">
        <ele>263</ele>
        <time>2019-02-07T08:48:39.000Z</time>
      </trkpt>
      <trkpt lat="43.61687" lon="6.8561">
        <ele>263</ele>
        <time>2019-02-07T08:48:40.000Z</time>
      </trkpt>
      <trkpt lat="43.61688" lon="6.8561">
        <ele>263</ele>
        <time>2019-02-07T08:48:41.000Z</time>
      </trkpt>
      <trkpt lat="43.61688" lon="6.8561">
        <ele>263</ele>
        <time>2019-02-07T08:48:42.000Z</time>
      </trkpt>
      <trkpt lat="43.61687" lon="6.8561">
        <ele>263</ele>
        <time>2019-02-07T08:48:43.000Z</time>
      </trkpt>
      <trkpt lat="43.61687" lon="6.8561">
        <ele>263</ele>
        <time>2019-02-07T08:48:44.000Z</time>
      </trkpt>
      <trkpt lat="43.61687" lon="6.85611">
        <ele>263</ele>
        <time>2019-02-07T08:48:45.000Z</time>
      </trkpt>
      <trkpt lat="43.61687" lon="6.85611">
        <ele>262</ele>
        <time>2019-02-07T08:48:46.000Z</time>
      </trkpt>
      <trkpt lat="43.61687" lon="6.85611">
        <ele>262</ele>
        <time>2019-02-07T08:48:47.000Z</time>
      </trkpt>
      <trkpt lat="43.61687" lon="6.85611">
        <ele>263</ele>
        <time>2019-02-07T08:48:48.000Z</time>
      </trkpt>
      <trkpt lat="43.61687" lon="6.85611">
        <ele>263</ele>
        <time>2019-02-07T08:48:49.000Z</time>
      </trkpt>
      <trkpt lat="43.61687" lon="6.85611">
        <ele>263</ele>
        <time>2019-02-07T08:48:50.000Z</time>
      </trkpt>
      <trkpt lat="43.61687" lon="6.85611">
        <ele>263</ele>
        <time>2019-02-07T08:48:51.000Z</time>
      </trkpt>
      <trkpt lat="43.61687" lon="6.85611">
        <ele>263</ele>
        <time>2019-02-07T08:48:52.000Z</time>
      </trkpt>
      <trkpt lat="43.61687" lon="6.85611">
        <ele>263</ele>
        <time>2019-02-07T08:48:53.000Z</time>
      </trkpt>
      <trkpt lat="43.61687" lon="6.85611">
        <ele>263</ele>
        <time>2019-02-07T08:48:54.000Z</time>
      </trkpt>
      <trkpt lat="43.61687" lon="6.85611">
        <ele>263</ele>
        <time>2019-02-07T08:48:55.000Z</time>
      </trkpt>
      <trkpt lat="43.61687" lon="6.85611">
        <ele>263</ele>
        <time>2019-02-07T08:48:56.000Z</time>
      </trkpt>
      <trkpt lat="43.61687" lon="6.85611">
        <ele>263</ele>
        <time>2019-02-07T08:48:57.000Z</time>
      </trkpt>
      <trkpt lat="43.61687" lon="6.85612">
        <ele>263</ele>
        <time>2019-02-07T08:48:58.000Z</time>
      </trkpt>
      <trkpt lat="43.61687" lon="6.85612">
        <ele>262</ele>
        <time>2019-02-07T08:48:59.000Z</time>
      </trkpt>
      <trkpt lat="43.61687" lon="6.85612">
        <ele>262</ele>
        <time>2019-02-07T08:49:00.000Z</time>
      </trkpt>
      <trkpt lat="43.61687" lon="6.85612">
        <ele>262</ele>
        <time>2019-02-07T08:49:01.000Z</time>
      </trkpt>
      <trkpt lat="43.61687" lon="6.85612">
        <ele>262</ele>
        <time>2019-02-07T08:49:02.000Z</time>
      </trkpt>
      <trkpt lat="43.61687" lon="6.85612">
        <ele>262</ele>
        <time>2019-02-07T08:49:03.000Z</time>
      </trkpt>
      <trkpt lat="43.61687" lon="6.85612">
        <ele>262</ele>
        <time>2019-02-07T08:49:04.000Z</time>
      </trkpt>
      <trkpt lat="43.61687" lon="6.85612">
        <ele>262</ele>
        <time>2019-02-07T08:49:05.000Z</time>
      </trkpt>
      <trkpt lat="43.61687" lon="6.85612">
        <ele>262</ele>
        <time>2019-02-07T08:49:06.000Z</time>
      </trkpt>
      <trkpt lat="43.61687" lon="6.85612">
        <ele>262</ele>
        <time>2019-02-07T08:49:07.000Z</time>
      </trkpt>
      <trkpt lat="43.61687" lon="6.85612">
        <ele>262</ele>
        <time>2019-02-07T08:49:08.000Z</time>
      </trkpt>
      <trkpt lat="43.61687" lon="6.85612">
        <ele>262</ele>
        <time>2019-02-07T08:49:09.000Z</time>
      </trkpt>
      <trkpt lat="43.61687" lon="6.85612">
        <ele>262</ele>
        <time>2019-02-07T08:49:10.000Z</time>
      </trkpt>
      <trkpt lat="43.61687" lon="6.85612">
        <ele>262</ele>
        <time>2019-02-07T08:49:11.000Z</time>
      </trkpt>
      <trkpt lat="43.61687" lon="6.85613">
        <ele>263</ele>
        <time>2019-02-07T08:49:12.000Z</time>
      </trkpt>
      <trkpt lat="43.61687" lon="6.85613">
        <ele>262</ele>
        <time>2019-02-07T08:49:13.000Z</time>
      </trkpt>
      <trkpt lat="43.61686" lon="6.85613">
        <ele>262</ele>
        <time>2019-02-07T08:49:14.000Z</time>
      </trkpt>
      <trkpt lat="43.61686" lon="6.85613">
        <ele>262</ele>
        <time>2019-02-07T08:49:15.000Z</time>
      </trkpt>
      <trkpt lat="43.61685" lon="6.85612">
        <ele>261</ele>
        <time>2019-02-07T08:49:16.000Z</time>
      </trkpt>
      <trkpt lat="43.61685" lon="6.85612">
        <ele>261</ele>
        <time>2019-02-07T08:49:17.000Z</time>
      </trkpt>
      <trkpt lat="43.61685" lon="6.85612">
        <ele>260</ele>
        <time>2019-02-07T08:49:18.000Z</time>
      </trkpt>
      <trkpt lat="43.61685" lon="6.85612">
        <ele>260</ele>
        <time>2019-02-07T08:49:19.000Z</time>
      </trkpt>
      <trkpt lat="43.61685" lon="6.85612">
        <ele>260</ele>
        <time>2019-02-07T08:49:20.000Z</time>
      </trkpt>
      <trkpt lat="43.61685" lon="6.85612">
        <ele>260</ele>
        <time>2019-02-07T08:49:21.000Z</time>
      </trkpt>
      <trkpt lat="43.61685" lon="6.85612">
        <ele>259</ele>
        <time>2019-02-07T08:49:22.000Z</time>
      </trkpt>
      <trkpt lat="43.61685" lon="6.85612">
        <ele>259</ele>
        <time>2019-02-07T08:49:23.000Z</time>
      </trkpt>
      <trkpt lat="43.61685" lon="6.85612">
        <ele>259</ele>
        <time>2019-02-07T08:49:24.000Z</time>
      </trkpt>
      <trkpt lat="43.61685" lon="6.85612">
        <ele>259</ele>
        <time>2019-02-07T08:49:25.000Z</time>
      </trkpt>
      <trkpt lat="43.61685" lon="6.85612">
        <ele>259</ele>
        <time>2019-02-07T08:49:26.000Z</time>
      </trkpt>
      <trkpt lat="43.61685" lon="6.85612">
        <ele>259</ele>
        <time>2019-02-07T08:49:27.000Z</time>
      </trkpt>
      <trkpt lat="43.61685" lon="6.85611">
        <ele>259</ele>
        <time>2019-02-07T08:49:28.000Z</time>
      </trkpt>
      <trkpt lat="43.61685" lon="6.85611">
        <ele>259</ele>
        <time>2019-02-07T08:49:29.000Z</time>
      </trkpt>
      <trkpt lat="43.61685" lon="6.85611">
        <ele>259</ele>
        <time>2019-02-07T08:49:30.000Z</time>
      </trkpt>
      <trkpt lat="43.61685" lon="6.85611">
        <ele>259</ele>
        <time>2019-02-07T08:49:31.000Z</time>
      </trkpt>
      <trkpt lat="43.61685" lon="6.85611">
        <ele>259</ele>
        <time>2019-02-07T08:49:32.000Z</time>
      </trkpt>
      <trkpt lat="43.61685" lon="6.85611">
        <ele>259</ele>
        <time>2019-02-07T08:49:33.000Z</time>
      </trkpt>
      <trkpt lat="43.61685" lon="6.85611">
        <ele>259</ele>
        <time>2019-02-07T08:49:34.000Z</time>
      </trkpt>
      <trkpt lat="43.61685" lon="6.85611">
        <ele>259</ele>
        <time>2019-02-07T08:49:35.000Z</time>
      </trkpt>
      <trkpt lat="43.61685" lon="6.85611">
        <ele>259</ele>
        <time>2019-02-07T08:49:36.000Z</time>
      </trkpt>
      <trkpt lat="43.61685" lon="6.85611">
        <ele>259</ele>
        <time>2019-02-07T08:49:37.000Z</time>
      </trkpt>
      <trkpt lat="43.61685" lon="6.85611">
        <ele>259</ele>
        <time>2019-02-07T08:49:38.000Z</time>
      </trkpt>
      <trkpt lat="43.61685" lon="6.85611">
        <ele>259</ele>
        <time>2019-02-07T08:49:39.000Z</time>
      </trkpt>
      <trkpt lat="43.61685" lon="6.85611">
        <ele>259</ele>
        <time>2019-02-07T08:49:40.000Z</time>
      </trkpt>
      <trkpt lat="43.61685" lon="6.85611">
        <ele>259</ele>
        <time>2019-02-07T08:49:41.000Z</time>
      </trkpt>
      <trkpt lat="43.61685" lon="6.85611">
        <ele>260</ele>
        <time>2019-02-07T08:49:42.000Z</time>
      </trkpt>
      <trkpt lat="43.61685" lon="6.8561">
        <ele>260</ele>
        <time>2019-02-07T08:49:43.000Z</time>
      </trkpt>
      <trkpt lat="43.61685" lon="6.8561">
        <ele>260</ele>
        <time>2019-02-07T08:49:44.000Z</time>
      </trkpt>
      <trkpt lat="43.61685" lon="6.8561">
        <ele>260</ele>
        <time>2019-02-07T08:49:45.000Z</time>
      </trkpt>
      <trkpt lat="43.61685" lon="6.8561">
        <ele>260</ele>
        <time>2019-02-07T08:49:46.000Z</time>
      </trkpt>
      <trkpt lat="43.61685" lon="6.8561">
        <ele>260</ele>
        <time>2019-02-07T08:49:47.000Z</time>
      </trkpt>
      <trkpt lat="43.61685" lon="6.8561">
        <ele>260</ele>
        <time>2019-02-07T08:49:48.000Z</time>
      </trkpt>
      <trkpt lat="43.61685" lon="6.8561">
        <ele>260</ele>
        <time>2019-02-07T08:49:49.000Z</time>
      </trkpt>
      <trkpt lat="43.61685" lon="6.8561">
        <ele>260</ele>
        <time>2019-02-07T08:49:50.000Z</time>
      </trkpt>
      <trkpt lat="43.61685" lon="6.8561">
        <ele>260</ele>
        <time>2019-02-07T08:49:51.000Z</time>
      </trkpt>
      <trkpt lat="43.61685" lon="6.8561">
        <ele>260</ele>
        <time>2019-02-07T08:49:52.000Z</time>
      </trkpt>
      <trkpt lat="43.61685" lon="6.8561">
        <ele>260</ele>
        <time>2019-02-07T08:49:53.000Z</time>
      </trkpt>
      <trkpt lat="43.61685" lon="6.8561">
        <ele>260</ele>
        <time>2019-02-07T08:49:54.000Z</time>
      </trkpt>
      <trkpt lat="43.61685" lon="6.8561">
        <ele>260</ele>
        <time>2019-02-07T08:49:55.000Z</time>
      </trkpt>
      <trkpt lat="43.61685" lon="6.8561">
        <ele>260</ele>
        <time>2019-02-07T08:49:56.000Z</time>
      </trkpt>
      <trkpt lat="43.61685" lon="6.8561">
        <ele>260</ele>
        <time>2019-02-07T08:49:57.000Z</time>
      </trkpt>
      <trkpt lat="43.61685" lon="6.8561">
        <ele>260</ele>
        <time>2019-02-07T08:49:58.000Z</time>
      </trkpt>
      <trkpt lat="43.61685" lon="6.8561">
        <ele>260</ele>
        <time>2019-02-07T08:49:59.000Z</time>
      </trkpt>
      <trkpt lat="43.61685" lon="6.8561">
        <ele>260</ele>
        <time>2019-02-07T08:50:00.000Z</time>
      </trkpt>
      <trkpt lat="43.61685" lon="6.8561">
        <ele>260</ele>
        <time>2019-02-07T08:50:01.000Z</time>
      </trkpt>
      <trkpt lat="43.61685" lon="6.8561">
        <ele>261</ele>
        <time>2019-02-07T08:50:02.000Z</time>
      </trkpt>
      <trkpt lat="43.61685" lon="6.8561">
        <ele>261</ele>
        <time>2019-02-07T08:50:03.000Z</time>
      </trkpt>
      <trkpt lat="43.61685" lon="6.8561">
        <ele>261</ele>
        <time>2019-02-07T08:50:04.000Z</time>
      </trkpt>
      <trkpt lat="43.61685" lon="6.8561">
        <ele>261</ele>
        <time>2019-02-07T08:50:05.000Z</time>
      </trkpt>
      <trkpt lat="43.61685" lon="6.8561">
        <ele>261</ele>
        <time>2019-02-07T08:50:06.000Z</time>
      </trkpt>
      <trkpt lat="43.61685" lon="6.8561">
        <ele>261</ele>
        <time>2019-02-07T08:50:07.000Z</time>
      </trkpt>
      <trkpt lat="43.61685" lon="6.8561">
        <ele>261</ele>
        <time>2019-02-07T08:50:08.000Z</time>
      </trkpt>
      <trkpt lat="43.61685" lon="6.8561">
        <ele>261</ele>
        <time>2019-02-07T08:50:09.000Z</time>
      </trkpt>
      <trkpt lat="43.61685" lon="6.8561">
        <ele>261</ele>
        <time>2019-02-07T08:50:10.000Z</time>
      </trkpt>
      <trkpt lat="43.61685" lon="6.85609">
        <ele>262</ele>
        <time>2019-02-07T08:50:11.000Z</time>
      </trkpt>
      <trkpt lat="43.61685" lon="6.85609">
        <ele>262</ele>
        <time>2019-02-07T08:50:12.000Z</time>
      </trkpt>
      <trkpt lat="43.61685" lon="6.85609">
        <ele>262</ele>
        <time>2019-02-07T08:50:13.000Z</time>
      </trkpt>
      <trkpt lat="43.61685" lon="6.85609">
        <ele>262</ele>
        <time>2019-02-07T08:50:14.000Z</time>
      </trkpt>
      <trkpt lat="43.61685" lon="6.8561">
        <ele>262</ele>
        <time>2019-02-07T08:50:15.000Z</time>
      </trkpt>
      <trkpt lat="43.61685" lon="6.8561">
        <ele>262</ele>
        <time>2019-02-07T08:50:16.000Z</time>
      </trkpt>
      <trkpt lat="43.61685" lon="6.8561">
        <ele>262</ele>
        <time>2019-02-07T08:50:17.000Z</time>
      </trkpt>
      <trkpt lat="43.61685" lon="6.8561">
        <ele>262</ele>
        <time>2019-02-07T08:50:18.000Z</time>
      </trkpt>
      <trkpt lat="43.61685" lon="6.8561">
        <ele>262</ele>
        <time>2019-02-07T08:50:19.000Z</time>
      </trkpt>
      <trkpt lat="43.61685" lon="6.8561">
        <ele>262</ele>
        <time>2019-02-07T08:50:20.000Z</time>
      </trkpt>
      <trkpt lat="43.61685" lon="6.8561">
        <ele>262</ele>
        <time>2019-02-07T08:50:21.000Z</time>
      </trkpt>
      <trkpt lat="43.61685" lon="6.8561">
        <ele>262</ele>
        <time>2019-02-07T08:50:22.000Z</time>
      </trkpt>
      <trkpt lat="43.61685" lon="6.8561">
        <ele>262</ele>
        <time>2019-02-07T08:50:23.000Z</time>
      </trkpt>
      <trkpt lat="43.61685" lon="6.8561">
        <ele>262</ele>
        <time>2019-02-07T08:50:24.000Z</time>
      </trkpt>
      <trkpt lat="43.61685" lon="6.8561">
        <ele>262</ele>
        <time>2019-02-07T08:50:25.000Z</time>
      </trkpt>
      <trkpt lat="43.61685" lon="6.8561">
        <ele>262</ele>
        <time>2019-02-07T08:50:26.000Z</time>
      </trkpt>
      <trkpt lat="43.61685" lon="6.8561">
        <ele>262</ele>
        <time>2019-02-07T08:50:27.000Z</time>
      </trkpt>
      <trkpt lat="43.61684" lon="6.8561">
        <ele>262</ele>
        <time>2019-02-07T08:50:28.000Z</time>
      </trkpt>
      <trkpt lat="43.61684" lon="6.8561">
        <ele>262</ele>
        <time>2019-02-07T08:50:29.000Z</time>
      </trkpt>
      <trkpt lat="43.61685" lon="6.8561">
        <ele>262</ele>
        <time>2019-02-07T08:50:30.000Z</time>
      </trkpt>
      <trkpt lat="43.61685" lon="6.8561">
        <ele>262</ele>
        <time>2019-02-07T08:50:31.000Z</time>
      </trkpt>
      <trkpt lat="43.61685" lon="6.8561">
        <ele>261</ele>
        <time>2019-02-07T08:50:32.000Z</time>
      </trkpt>
      <trkpt lat="43.61685" lon="6.8561">
        <ele>261</ele>
        <time>2019-02-07T08:50:33.000Z</time>
      </trkpt>
      <trkpt lat="43.61684" lon="6.8561">
        <ele>262</ele>
        <time>2019-02-07T08:50:34.000Z</time>
      </trkpt>
      <trkpt lat="43.61684" lon="6.8561">
        <ele>262</ele>
        <time>2019-02-07T08:50:35.000Z</time>
      </trkpt>
      <trkpt lat="43.61684" lon="6.8561">
        <ele>262</ele>
        <time>2019-02-07T08:50:36.000Z</time>
      </trkpt>
      <trkpt lat="43.61684" lon="6.8561">
        <ele>262</ele>
        <time>2019-02-07T08:50:37.000Z</time>
      </trkpt>
      <trkpt lat="43.61684" lon="6.8561">
        <ele>261</ele>
        <time>2019-02-07T08:50:38.000Z</time>
      </trkpt>
      <trkpt lat="43.61684" lon="6.8561">
        <ele>261</ele>
        <time>2019-02-07T08:50:39.000Z</time>
      </trkpt>
      <trkpt lat="43.61684" lon="6.8561">
        <ele>261</ele>
        <time>2019-02-07T08:50:40.000Z</time>
      </trkpt>
      <trkpt lat="43.61684" lon="6.8561">
        <ele>262</ele>
        <time>2019-02-07T08:50:41.000Z</time>
      </trkpt>
      <trkpt lat="43.61684" lon="6.8561">
        <ele>261</ele>
        <time>2019-02-07T08:50:42.000Z</time>
      </trkpt>
      <trkpt lat="43.61685" lon="6.85609">
        <ele>261</ele>
        <time>2019-02-07T08:50:43.000Z</time>
      </trkpt>
      <trkpt lat="43.61685" lon="6.8561">
        <ele>261</ele>
        <time>2019-02-07T08:50:44.000Z</time>
      </trkpt>
      <trkpt lat="43.61685" lon="6.8561">
        <ele>261</ele>
        <time>2019-02-07T08:50:45.000Z</time>
      </trkpt>
      <trkpt lat="43.61685" lon="6.8561">
        <ele>260</ele>
        <time>2019-02-07T08:50:46.000Z</time>
      </trkpt>
      <trkpt lat="43.61685" lon="6.8561">
        <ele>260</ele>
        <time>2019-02-07T08:50:47.000Z</time>
      </trkpt>
      <trkpt lat="43.61685" lon="6.8561">
        <ele>260</ele>
        <time>2019-02-07T08:50:48.000Z</time>
      </trkpt>
      <trkpt lat="43.61685" lon="6.8561">
        <ele>261</ele>
        <time>2019-02-07T08:50:49.000Z</time>
      </trkpt>
      <trkpt lat="43.61685" lon="6.8561">
        <ele>260</ele>
        <time>2019-02-07T08:50:50.000Z</time>
      </trkpt>
      <trkpt lat="43.61685" lon="6.8561">
        <ele>260</ele>
        <time>2019-02-07T08:50:51.000Z</time>
      </trkpt>
      <trkpt lat="43.61685" lon="6.8561">
        <ele>260</ele>
        <time>2019-02-07T08:50:52.000Z</time>
      </trkpt>
      <trkpt lat="43.61685" lon="6.8561">
        <ele>260</ele>
        <time>2019-02-07T08:50:53.000Z</time>
      </trkpt>
      <trkpt lat="43.61685" lon="6.8561">
        <ele>260</ele>
        <time>2019-02-07T08:50:54.000Z</time>
      </trkpt>
      <trkpt lat="43.61685" lon="6.8561">
        <ele>260</ele>
        <time>2019-02-07T08:50:55.000Z</time>
      </trkpt>
      <trkpt lat="43.61685" lon="6.85611">
        <ele>260</ele>
        <time>2019-02-07T08:50:56.000Z</time>
      </trkpt>
      <trkpt lat="43.61685" lon="6.8561">
        <ele>260</ele>
        <time>2019-02-07T08:50:57.000Z</time>
      </trkpt>
      <trkpt lat="43.61685" lon="6.8561">
        <ele>260</ele>
        <time>2019-02-07T08:50:58.000Z</time>
      </trkpt>
      <trkpt lat="43.61685" lon="6.8561">
        <ele>260</ele>
        <time>2019-02-07T08:50:59.000Z</time>
      </trkpt>
      <trkpt lat="43.61685" lon="6.8561">
        <ele>260</ele>
        <time>2019-02-07T08:51:00.000Z</time>
      </trkpt>
      <trkpt lat="43.61685" lon="6.8561">
        <ele>259</ele>
        <time>2019-02-07T08:51:01.000Z</time>
      </trkpt>
      <trkpt lat="43.61685" lon="6.8561">
        <ele>259</ele>
        <time>2019-02-07T08:51:02.000Z</time>
      </trkpt>
      <trkpt lat="43.61685" lon="6.8561">
        <ele>259</ele>
        <time>2019-02-07T08:51:03.000Z</time>
      </trkpt>
      <trkpt lat="43.61685" lon="6.8561">
        <ele>259</ele>
        <time>2019-02-07T08:51:04.000Z</time>
      </trkpt>
      <trkpt lat="43.61685" lon="6.8561">
        <ele>260</ele>
        <time>2019-02-07T08:51:05.000Z</time>
      </trkpt>
      <trkpt lat="43.61685" lon="6.8561">
        <ele>260</ele>
        <time>2019-02-07T08:51:06.000Z</time>
      </trkpt>
      <trkpt lat="43.61685" lon="6.8561">
        <ele>260</ele>
        <time>2019-02-07T08:51:07.000Z</time>
      </trkpt>
      <trkpt lat="43.61685" lon="6.8561">
        <ele>260</ele>
        <time>2019-02-07T08:51:08.000Z</time>
      </trkpt>
      <trkpt lat="43.61685" lon="6.8561">
        <ele>260</ele>
        <time>2019-02-07T08:51:09.000Z</time>
      </trkpt>
      <trkpt lat="43.61685" lon="6.8561">
        <ele>260</ele>
        <time>2019-02-07T08:51:10.000Z</time>
      </trkpt>
      <trkpt lat="43.61685" lon="6.8561">
        <ele>260</ele>
        <time>2019-02-07T08:51:11.000Z</time>
      </trkpt>
      <trkpt lat="43.61686" lon="6.8561">
        <ele>260</ele>
        <time>2019-02-07T08:51:12.000Z</time>
      </trkpt>
      <trkpt lat="43.61686" lon="6.8561">
        <ele>260</ele>
        <time>2019-02-07T08:51:13.000Z</time>
      </trkpt>
      <trkpt lat="43.61686" lon="6.8561">
        <ele>260</ele>
        <time>2019-02-07T08:51:14.000Z</time>
      </trkpt>
      <trkpt lat="43.61686" lon="6.8561">
        <ele>260</ele>
        <time>2019-02-07T08:51:15.000Z</time>
      </trkpt>
      <trkpt lat="43.61686" lon="6.8561">
        <ele>260</ele>
        <time>2019-02-07T08:51:16.000Z</time>
      </trkpt>
      <trkpt lat="43.61686" lon="6.8561">
        <ele>260</ele>
        <time>2019-02-07T08:51:17.000Z</time>
      </trkpt>
      <trkpt lat="43.61686" lon="6.8561">
        <ele>260</ele>
        <time>2019-02-07T08:51:18.000Z</time>
      </trkpt>
      <trkpt lat="43.61686" lon="6.8561">
        <ele>260</ele>
        <time>2019-02-07T08:51:19.000Z</time>
      </trkpt>
      <trkpt lat="43.61686" lon="6.8561">
        <ele>260</ele>
        <time>2019-02-07T08:51:20.000Z</time>
      </trkpt>
      <trkpt lat="43.61686" lon="6.8561">
        <ele>261</ele>
        <time>2019-02-07T08:51:21.000Z</time>
      </trkpt>
      <trkpt lat="43.61686" lon="6.8561">
        <ele>261</ele>
        <time>2019-02-07T08:51:22.000Z</time>
      </trkpt>
      <trkpt lat="43.61686" lon="6.8561">
        <ele>260</ele>
        <time>2019-02-07T08:51:23.000Z</time>
      </trkpt>
      <trkpt lat="43.61686" lon="6.8561">
        <ele>260</ele>
        <time>2019-02-07T08:51:24.000Z</time>
      </trkpt>
      <trkpt lat="43.61686" lon="6.8561">
        <ele>260</ele>
        <time>2019-02-07T08:51:25.000Z</time>
      </trkpt>
      <trkpt lat="43.61686" lon="6.85611">
        <ele>260</ele>
        <time>2019-02-07T08:51:26.000Z</time>
      </trkpt>
      <trkpt lat="43.61685" lon="6.85611">
        <ele>259</ele>
        <time>2019-02-07T08:51:27.000Z</time>
      </trkpt>
      <trkpt lat="43.61685" lon="6.85611">
        <ele>259</ele>
        <time>2019-02-07T08:51:28.000Z</time>
      </trkpt>
      <trkpt lat="43.61684" lon="6.85611">
        <ele>259</ele>
        <time>2019-02-07T08:51:29.000Z</time>
      </trkpt>
      <trkpt lat="43.61684" lon="6.85611">
        <ele>260</ele>
        <time>2019-02-07T08:51:30.000Z</time>
      </trkpt>
      <trkpt lat="43.61684" lon="6.85611">
        <ele>260</ele>
        <time>2019-02-07T08:51:31.000Z</time>
      </trkpt>
      <trkpt lat="43.61684" lon="6.85611">
        <ele>260</ele>
        <time>2019-02-07T08:51:32.000Z</time>
      </trkpt>
      <trkpt lat="43.61684" lon="6.85611">
        <ele>260</ele>
        <time>2019-02-07T08:51:33.000Z</time>
      </trkpt>
      <trkpt lat="43.61684" lon="6.85611">
        <ele>260</ele>
        <time>2019-02-07T08:51:34.000Z</time>
      </trkpt>
      <trkpt lat="43.61684" lon="6.8561">
        <ele>260</ele>
        <time>2019-02-07T08:51:35.000Z</time>
      </trkpt>
      <trkpt lat="43.61685" lon="6.8561">
        <ele>260</ele>
        <time>2019-02-07T08:51:36.000Z</time>
      </trkpt>
      <trkpt lat="43.61685" lon="6.8561">
        <ele>261</ele>
        <time>2019-02-07T08:51:37.000Z</time>
      </trkpt>
      <trkpt lat="43.61685" lon="6.8561">
        <ele>261</ele>
        <time>2019-02-07T08:51:38.000Z</time>
      </trkpt>
      <trkpt lat="43.61685" lon="6.8561">
        <ele>261</ele>
        <time>2019-02-07T08:51:39.000Z</time>
      </trkpt>
      <trkpt lat="43.61685" lon="6.8561">
        <ele>261</ele>
        <time>2019-02-07T08:51:40.000Z</time>
      </trkpt>
      <trkpt lat="43.61685" lon="6.85609">
        <ele>262</ele>
        <time>2019-02-07T08:51:41.000Z</time>
      </trkpt>
      <trkpt lat="43.61685" lon="6.8561">
        <ele>262</ele>
        <time>2019-02-07T08:51:42.000Z</time>
      </trkpt>
      <trkpt lat="43.61685" lon="6.8561">
        <ele>262</ele>
        <time>2019-02-07T08:51:43.000Z</time>
      </trkpt>
      <trkpt lat="43.61685" lon="6.8561">
        <ele>262</ele>
        <time>2019-02-07T08:51:44.000Z</time>
      </trkpt>
      <trkpt lat="43.61685" lon="6.8561">
        <ele>262</ele>
        <time>2019-02-07T08:51:45.000Z</time>
      </trkpt>
      <trkpt lat="43.61685" lon="6.85609">
        <ele>262</ele>
        <time>2019-02-07T08:51:46.000Z</time>
      </trkpt>
      <trkpt lat="43.61685" lon="6.85609">
        <ele>262</ele>
        <time>2019-02-07T08:51:47.000Z</time>
      </trkpt>
      <trkpt lat="43.61685" lon="6.85609">
        <ele>262</ele>
        <time>2019-02-07T08:51:48.000Z</time>
      </trkpt>
      <trkpt lat="43.61685" lon="6.85609">
        <ele>262</ele>
        <time>2019-02-07T08:51:49.000Z</time>
      </trkpt>
      <trkpt lat="43.61685" lon="6.85609">
        <ele>262</ele>
        <time>2019-02-07T08:51:50.000Z</time>
      </trkpt>
      <trkpt lat="43.61685" lon="6.8561">
        <ele>262</ele>
        <time>2019-02-07T08:51:51.000Z</time>
      </trkpt>
      <trkpt lat="43.61684" lon="6.8561">
        <ele>262</ele>
        <time>2019-02-07T08:51:52.000Z</time>
      </trkpt>
      <trkpt lat="43.61684" lon="6.85609">
        <ele>262</ele>
        <time>2019-02-07T08:51:53.000Z</time>
      </trkpt>
      <trkpt lat="43.61684" lon="6.85609">
        <ele>261</ele>
        <time>2019-02-07T08:51:54.000Z</time>
      </trkpt>
      <trkpt lat="43.61684" lon="6.85609">
        <ele>261</ele>
        <time>2019-02-07T08:51:55.000Z</time>
      </trkpt>
      <trkpt lat="43.61684" lon="6.85609">
        <ele>261</ele>
        <time>2019-02-07T08:51:56.000Z</time>
      </trkpt>
      <trkpt lat="43.61684" lon="6.85609">
        <ele>261</ele>
        <time>2019-02-07T08:51:57.000Z</time>
      </trkpt>
      <trkpt lat="43.61684" lon="6.85609">
        <ele>261</ele>
        <time>2019-02-07T08:51:58.000Z</time>
      </trkpt>
      <trkpt lat="43.61684" lon="6.85609">
        <ele>261</ele>
        <time>2019-02-07T08:51:59.000Z</time>
      </trkpt>
      <trkpt lat="43.61684" lon="6.85609">
        <ele>261</ele>
        <time>2019-02-07T08:52:00.000Z</time>
      </trkpt>
      <trkpt lat="43.61684" lon="6.85609">
        <ele>261</ele>
        <time>2019-02-07T08:52:01.000Z</time>
      </trkpt>
      <trkpt lat="43.61684" lon="6.85609">
        <ele>261</ele>
        <time>2019-02-07T08:52:02.000Z</time>
      </trkpt>
      <trkpt lat="43.61684" lon="6.85609">
        <ele>261</ele>
        <time>2019-02-07T08:52:03.000Z</time>
      </trkpt>
      <trkpt lat="43.61684" lon="6.85609">
        <ele>260</ele>
        <time>2019-02-07T08:52:04.000Z</time>
      </trkpt>
      <trkpt lat="43.61684" lon="6.85609">
        <ele>260</ele>
        <time>2019-02-07T08:52:05.000Z</time>
      </trkpt>
      <trkpt lat="43.61684" lon="6.85609">
        <ele>260</ele>
        <time>2019-02-07T08:52:06.000Z</time>
      </trkpt>
      <trkpt lat="43.61684" lon="6.85609">
        <ele>260</ele>
        <time>2019-02-07T08:52:07.000Z</time>
      </trkpt>
      <trkpt lat="43.61684" lon="6.85609">
        <ele>261</ele>
        <time>2019-02-07T08:52:08.000Z</time>
      </trkpt>
      <trkpt lat="43.61684" lon="6.8561">
        <ele>261</ele>
        <time>2019-02-07T08:52:09.000Z</time>
      </trkpt>
      <trkpt lat="43.61684" lon="6.8561">
        <ele>261</ele>
        <time>2019-02-07T08:52:10.000Z</time>
      </trkpt>
      <trkpt lat="43.61684" lon="6.8561">
        <ele>260</ele>
        <time>2019-02-07T08:52:11.000Z</time>
      </trkpt>
      <trkpt lat="43.61684" lon="6.8561">
        <ele>261</ele>
        <time>2019-02-07T08:52:12.000Z</time>
      </trkpt>
      <trkpt lat="43.61684" lon="6.8561">
        <ele>261</ele>
        <time>2019-02-07T08:52:13.000Z</time>
      </trkpt>
      <trkpt lat="43.61685" lon="6.8561">
        <ele>261</ele>
        <time>2019-02-07T08:52:14.000Z</time>
      </trkpt>
      <trkpt lat="43.61685" lon="6.85609">
        <ele>261</ele>
        <time>2019-02-07T08:52:15.000Z</time>
      </trkpt>
      <trkpt lat="43.61685" lon="6.85609">
        <ele>260</ele>
        <time>2019-02-07T08:52:16.000Z</time>
      </trkpt>
      <trkpt lat="43.61685" lon="6.85609">
        <ele>260</ele>
        <time>2019-02-07T08:52:17.000Z</time>
      </trkpt>
      <trkpt lat="43.61685" lon="6.85609">
        <ele>260</ele>
        <time>2019-02-07T08:52:18.000Z</time>
      </trkpt>
      <trkpt lat="43.61684" lon="6.85609">
        <ele>261</ele>
        <time>2019-02-07T08:52:19.000Z</time>
      </trkpt>
      <trkpt lat="43.61684" lon="6.85609">
        <ele>261</ele>
        <time>2019-02-07T08:52:20.000Z</time>
      </trkpt>
      <trkpt lat="43.61684" lon="6.85609">
        <ele>261</ele>
        <time>2019-02-07T08:52:21.000Z</time>
      </trkpt>
      <trkpt lat="43.61684" lon="6.85609">
        <ele>261</ele>
        <time>2019-02-07T08:52:22.000Z</time>
      </trkpt>
      <trkpt lat="43.61684" lon="6.85609">
        <ele>260</ele>
        <time>2019-02-07T08:52:23.000Z</time>
      </trkpt>
      <trkpt lat="43.61684" lon="6.8561">
        <ele>260</ele>
        <time>2019-02-07T08:52:24.000Z</time>
      </trkpt>
      <trkpt lat="43.61684" lon="6.8561">
        <ele>260</ele>
        <time>2019-02-07T08:52:25.000Z</time>
      </trkpt>
      <trkpt lat="43.61684" lon="6.8561">
        <ele>260</ele>
        <time>2019-02-07T08:52:26.000Z</time>
      </trkpt>
      <trkpt lat="43.61684" lon="6.85609">
        <ele>260</ele>
        <time>2019-02-07T08:52:27.000Z</time>
      </trkpt>
      <trkpt lat="43.61684" lon="6.85609">
        <ele>260</ele>
        <time>2019-02-07T08:52:28.000Z</time>
      </trkpt>
      <trkpt lat="43.61684" lon="6.8561">
        <ele>260</ele>
        <time>2019-02-07T08:52:29.000Z</time>
      </trkpt>
      <trkpt lat="43.61684" lon="6.8561">
        <ele>260</ele>
        <time>2019-02-07T08:52:30.000Z</time>
      </trkpt>
      <trkpt lat="43.61684" lon="6.8561">
        <ele>260</ele>
        <time>2019-02-07T08:52:31.000Z</time>
      </trkpt>
      <trkpt lat="43.61684" lon="6.8561">
        <ele>260</ele>
        <time>2019-02-07T08:52:32.000Z</time>
      </trkpt>
      <trkpt lat="43.61684" lon="6.8561">
        <ele>260</ele>
        <time>2019-02-07T08:52:33.000Z</time>
      </trkpt>
      <trkpt lat="43.61684" lon="6.8561">
        <ele>261</ele>
        <time>2019-02-07T08:52:34.000Z</time>
      </trkpt>
      <trkpt lat="43.61684" lon="6.8561">
        <ele>261</ele>
        <time>2019-02-07T08:52:35.000Z</time>
      </trkpt>
      <trkpt lat="43.61684" lon="6.8561">
        <ele>261</ele>
        <time>2019-02-07T08:52:36.000Z</time>
      </trkpt>
      <trkpt lat="43.61684" lon="6.8561">
        <ele>261</ele>
        <time>2019-02-07T08:52:37.000Z</time>
      </trkpt>
      <trkpt lat="43.61684" lon="6.8561">
        <ele>261</ele>
        <time>2019-02-07T08:52:38.000Z</time>
      </trkpt>
      <trkpt lat="43.61684" lon="6.8561">
        <ele>261</ele>
        <time>2019-02-07T08:52:39.000Z</time>
      </trkpt>
      <trkpt lat="43.61684" lon="6.8561">
        <ele>261</ele>
        <time>2019-02-07T08:52:40.000Z</time>
      </trkpt>
      <trkpt lat="43.61684" lon="6.8561">
        <ele>261</ele>
        <time>2019-02-07T08:52:41.000Z</time>
      </trkpt>
      <trkpt lat="43.61685" lon="6.8561">
        <ele>261</ele>
        <time>2019-02-07T08:52:42.000Z</time>
      </trkpt>
      <trkpt lat="43.61685" lon="6.8561">
        <ele>261</ele>
        <time>2019-02-07T08:52:43.000Z</time>
      </trkpt>
      <trkpt lat="43.61685" lon="6.8561">
        <ele>261</ele>
        <time>2019-02-07T08:52:44.000Z</time>
      </trkpt>
      <trkpt lat="43.61684" lon="6.8561">
        <ele>261</ele>
        <time>2019-02-07T08:52:45.000Z</time>
      </trkpt>
      <trkpt lat="43.61684" lon="6.8561">
        <ele>261</ele>
        <time>2019-02-07T08:52:46.000Z</time>
      </trkpt>
      <trkpt lat="43.61684" lon="6.85611">
        <ele>261</ele>
        <time>2019-02-07T08:52:47.000Z</time>
      </trkpt>
      <trkpt lat="43.61684" lon="6.85611">
        <ele>260</ele>
        <time>2019-02-07T08:52:48.000Z</time>
      </trkpt>
      <trkpt lat="43.61683" lon="6.85612">
        <ele>260</ele>
        <time>2019-02-07T08:52:49.000Z</time>
      </trkpt>
      <trkpt lat="43.61683" lon="6.85612">
        <ele>260</ele>
        <time>2019-02-07T08:52:50.000Z</time>
      </trkpt>
      <trkpt lat="43.61683" lon="6.85612">
        <ele>260</ele>
        <time>2019-02-07T08:52:51.000Z</time>
      </trkpt>
      <trkpt lat="43.61683" lon="6.85612">
        <ele>260</ele>
        <time>2019-02-07T08:52:52.000Z</time>
      </trkpt>
      <trkpt lat="43.61683" lon="6.85612">
        <ele>261</ele>
        <time>2019-02-07T08:52:53.000Z</time>
      </trkpt>
      <trkpt lat="43.61683" lon="6.85612">
        <ele>261</ele>
        <time>2019-02-07T08:52:54.000Z</time>
      </trkpt>
      <trkpt lat="43.61683" lon="6.85613">
        <ele>261</ele>
        <time>2019-02-07T08:52:55.000Z</time>
      </trkpt>
      <trkpt lat="43.61683" lon="6.85613">
        <ele>261</ele>
        <time>2019-02-07T08:52:56.000Z</time>
      </trkpt>
      <trkpt lat="43.61683" lon="6.85613">
        <ele>261</ele>
        <time>2019-02-07T08:52:57.000Z</time>
      </trkpt>
      <trkpt lat="43.61683" lon="6.85613">
        <ele>261</ele>
        <time>2019-02-07T08:52:58.000Z</time>
      </trkpt>
      <trkpt lat="43.61683" lon="6.85613">
        <ele>261</ele>
        <time>2019-02-07T08:52:59.000Z</time>
      </trkpt>
      <trkpt lat="43.61683" lon="6.85614">
        <ele>261</ele>
        <time>2019-02-07T08:53:00.000Z</time>
      </trkpt>
      <trkpt lat="43.61683" lon="6.85614">
        <ele>261</ele>
        <time>2019-02-07T08:53:01.000Z</time>
      </trkpt>
      <trkpt lat="43.61683" lon="6.85613">
        <ele>261</ele>
        <time>2019-02-07T08:53:02.000Z</time>
      </trkpt>
      <trkpt lat="43.61683" lon="6.85613">
        <ele>261</ele>
        <time>2019-02-07T08:53:03.000Z</time>
      </trkpt>
      <trkpt lat="43.61682" lon="6.85613">
        <ele>262</ele>
        <time>2019-02-07T08:53:04.000Z</time>
      </trkpt>
      <trkpt lat="43.61682" lon="6.85613">
        <ele>261</ele>
        <time>2019-02-07T08:53:05.000Z</time>
      </trkpt>
      <trkpt lat="43.61682" lon="6.85614">
        <ele>262</ele>
        <time>2019-02-07T08:53:06.000Z</time>
      </trkpt>
      <trkpt lat="43.61682" lon="6.85614">
        <ele>262</ele>
        <time>2019-02-07T08:53:07.000Z</time>
      </trkpt>
      <trkpt lat="43.61681" lon="6.85614">
        <ele>262</ele>
        <time>2019-02-07T08:53:08.000Z</time>
      </trkpt>
      <trkpt lat="43.61681" lon="6.85614">
        <ele>262</ele>
        <time>2019-02-07T08:53:09.000Z</time>
      </trkpt>
      <trkpt lat="43.61681" lon="6.85614">
        <ele>262</ele>
        <time>2019-02-07T08:53:10.000Z</time>
      </trkpt>
      <trkpt lat="43.61681" lon="6.85614">
        <ele>261</ele>
        <time>2019-02-07T08:53:11.000Z</time>
      </trkpt>
      <trkpt lat="43.61681" lon="6.85614">
        <ele>261</ele>
        <time>2019-02-07T08:53:12.000Z</time>
      </trkpt>
      <trkpt lat="43.61681" lon="6.85614">
        <ele>261</ele>
        <time>2019-02-07T08:53:13.000Z</time>
      </trkpt>
      <trkpt lat="43.61681" lon="6.85614">
        <ele>261</ele>
        <time>2019-02-07T08:53:14.000Z</time>
      </trkpt>
      <trkpt lat="43.6168" lon="6.85614">
        <ele>261</ele>
        <time>2019-02-07T08:53:15.000Z</time>
      </trkpt>
      <trkpt lat="43.6168" lon="6.85614">
        <ele>261</ele>
        <time>2019-02-07T08:53:16.000Z</time>
      </trkpt>
      <trkpt lat="43.6168" lon="6.85614">
        <ele>261</ele>
        <time>2019-02-07T08:53:17.000Z</time>
      </trkpt>
      <trkpt lat="43.6168" lon="6.85613">
        <ele>260</ele>
        <time>2019-02-07T08:53:18.000Z</time>
      </trkpt>
      <trkpt lat="43.6168" lon="6.85613">
        <ele>260</ele>
        <time>2019-02-07T08:53:19.000Z</time>
      </trkpt>
      <trkpt lat="43.6168" lon="6.85613">
        <ele>260</ele>
        <time>2019-02-07T08:53:20.000Z</time>
      </trkpt>
      <trkpt lat="43.6168" lon="6.85613">
        <ele>260</ele>
        <time>2019-02-07T08:53:21.000Z</time>
      </trkpt>
      <trkpt lat="43.6168" lon="6.85613">
        <ele>260</ele>
        <time>2019-02-07T08:53:22.000Z</time>
      </trkpt>
      <trkpt lat="43.61679" lon="6.85614">
        <ele>260</ele>
        <time>2019-02-07T08:53:23.000Z</time>
      </trkpt>
      <trkpt lat="43.61679" lon="6.85614">
        <ele>260</ele>
        <time>2019-02-07T08:53:24.000Z</time>
      </trkpt>
      <trkpt lat="43.61679" lon="6.85614">
        <ele>260</ele>
        <time>2019-02-07T08:53:25.000Z</time>
      </trkpt>
      <trkpt lat="43.61678" lon="6.85615">
        <ele>260</ele>
        <time>2019-02-07T08:53:26.000Z</time>
      </trkpt>
      <trkpt lat="43.61678" lon="6.85615">
        <ele>260</ele>
        <time>2019-02-07T08:53:27.000Z</time>
      </trkpt>
      <trkpt lat="43.61678" lon="6.85615">
        <ele>260</ele>
        <time>2019-02-07T08:53:28.000Z</time>
      </trkpt>
      <trkpt lat="43.61678" lon="6.85615">
        <ele>260</ele>
        <time>2019-02-07T08:53:29.000Z</time>
      </trkpt>
      <trkpt lat="43.61678" lon="6.85615">
        <ele>260</ele>
        <time>2019-02-07T08:53:30.000Z</time>
      </trkpt>
      <trkpt lat="43.61678" lon="6.85615">
        <ele>261</ele>
        <time>2019-02-07T08:53:31.000Z</time>
      </trkpt>
      <trkpt lat="43.61678" lon="6.85615">
        <ele>261</ele>
        <time>2019-02-07T08:53:32.000Z</time>
      </trkpt>
      <trkpt lat="43.61678" lon="6.85616">
        <ele>261</ele>
        <time>2019-02-07T08:53:33.000Z</time>
      </trkpt>
      <trkpt lat="43.61678" lon="6.85616">
        <ele>261</ele>
        <time>2019-02-07T08:53:34.000Z</time>
      </trkpt>
      <trkpt lat="43.61678" lon="6.85617">
        <ele>260</ele>
        <time>2019-02-07T08:53:35.000Z</time>
      </trkpt>
      <trkpt lat="43.61677" lon="6.85617">
        <ele>260</ele>
        <time>2019-02-07T08:53:36.000Z</time>
      </trkpt>
      <trkpt lat="43.61677" lon="6.85617">
        <ele>260</ele>
        <time>2019-02-07T08:53:37.000Z</time>
      </trkpt>
      <trkpt lat="43.61676" lon="6.85617">
        <ele>260</ele>
        <time>2019-02-07T08:53:38.000Z</time>
      </trkpt>
      <trkpt lat="43.61675" lon="6.85618">
        <ele>259</ele>
        <time>2019-02-07T08:53:39.000Z</time>
      </trkpt>
      <trkpt lat="43.61674" lon="6.85618">
        <ele>259</ele>
        <time>2019-02-07T08:53:40.000Z</time>
      </trkpt>
      <trkpt lat="43.61673" lon="6.85618">
        <ele>259</ele>
        <time>2019-02-07T08:53:41.000Z</time>
      </trkpt>
      <trkpt lat="43.61672" lon="6.85618">
        <ele>259</ele>
        <time>2019-02-07T08:53:42.000Z</time>
      </trkpt>
      <trkpt lat="43.61671" lon="6.85617">
        <ele>259</ele>
        <time>2019-02-07T08:53:43.000Z</time>
      </trkpt>
      <trkpt lat="43.61669" lon="6.85616">
        <ele>258</ele>
        <time>2019-02-07T08:53:44.000Z</time>
      </trkpt>
      <trkpt lat="43.61668" lon="6.85615">
        <ele>257</ele>
        <time>2019-02-07T08:53:45.000Z</time>
      </trkpt>
      <trkpt lat="43.61667" lon="6.85614">
        <ele>257</ele>
        <time>2019-02-07T08:53:46.000Z</time>
      </trkpt>
      <trkpt lat="43.61666" lon="6.85613">
        <ele>256</ele>
        <time>2019-02-07T08:53:47.000Z</time>
      </trkpt>
      <trkpt lat="43.61665" lon="6.85611">
        <ele>256</ele>
        <time>2019-02-07T08:53:48.000Z</time>
      </trkpt>
      <trkpt lat="43.61664" lon="6.8561">
        <ele>255</ele>
        <time>2019-02-07T08:53:49.000Z</time>
      </trkpt>
      <trkpt lat="43.61663" lon="6.85609">
        <ele>255</ele>
        <time>2019-02-07T08:53:50.000Z</time>
      </trkpt>
      <trkpt lat="43.61662" lon="6.85607">
        <ele>255</ele>
        <time>2019-02-07T08:53:51.000Z</time>
      </trkpt>
      <trkpt lat="43.61661" lon="6.85604">
        <ele>255</ele>
        <time>2019-02-07T08:53:52.000Z</time>
      </trkpt>
      <trkpt lat="43.6166" lon="6.85602">
        <ele>254</ele>
        <time>2019-02-07T08:53:53.000Z</time>
      </trkpt>
      <trkpt lat="43.61659" lon="6.85601">
        <ele>253</ele>
        <time>2019-02-07T08:53:54.000Z</time>
      </trkpt>
      <trkpt lat="43.61658" lon="6.85599">
        <ele>253</ele>
        <time>2019-02-07T08:53:55.000Z</time>
      </trkpt>
      <trkpt lat="43.61657" lon="6.85598">
        <ele>253</ele>
        <time>2019-02-07T08:53:56.000Z</time>
      </trkpt>
      <trkpt lat="43.61655" lon="6.85597">
        <ele>253</ele>
        <time>2019-02-07T08:53:57.000Z</time>
      </trkpt>
      <trkpt lat="43.61654" lon="6.85596">
        <ele>252</ele>
        <time>2019-02-07T08:53:58.000Z</time>
      </trkpt>
      <trkpt lat="43.61653" lon="6.85595">
        <ele>252</ele>
        <time>2019-02-07T08:53:59.000Z</time>
      </trkpt>
      <trkpt lat="43.61652" lon="6.85594">
        <ele>252</ele>
        <time>2019-02-07T08:54:00.000Z</time>
      </trkpt>
      <trkpt lat="43.61651" lon="6.85593">
        <ele>252</ele>
        <time>2019-02-07T08:54:01.000Z</time>
      </trkpt>
      <trkpt lat="43.6165" lon="6.85593">
        <ele>251</ele>
        <time>2019-02-07T08:54:02.000Z</time>
      </trkpt>
      <trkpt lat="43.61648" lon="6.85592">
        <ele>251</ele>
        <time>2019-02-07T08:54:03.000Z</time>
      </trkpt>
      <trkpt lat="43.61647" lon="6.85592">
        <ele>251</ele>
        <time>2019-02-07T08:54:04.000Z</time>
      </trkpt>
      <trkpt lat="43.61646" lon="6.85592">
        <ele>251</ele>
        <time>2019-02-07T08:54:05.000Z</time>
      </trkpt>
      <trkpt lat="43.61644" lon="6.85591">
        <ele>250</ele>
        <time>2019-02-07T08:54:06.000Z</time>
      </trkpt>
      <trkpt lat="43.61643" lon="6.85591">
        <ele>250</ele>
        <time>2019-02-07T08:54:07.000Z</time>
      </trkpt>
      <trkpt lat="43.61641" lon="6.8559">
        <ele>250</ele>
        <time>2019-02-07T08:54:08.000Z</time>
      </trkpt>
      <trkpt lat="43.6164" lon="6.8559">
        <ele>249</ele>
        <time>2019-02-07T08:54:09.000Z</time>
      </trkpt>
      <trkpt lat="43.61638" lon="6.85589">
        <ele>249</ele>
        <time>2019-02-07T08:54:10.000Z</time>
      </trkpt>
      <trkpt lat="43.61637" lon="6.85589">
        <ele>248</ele>
        <time>2019-02-07T08:54:11.000Z</time>
      </trkpt>
      <trkpt lat="43.61636" lon="6.85588">
        <ele>248</ele>
        <time>2019-02-07T08:54:12.000Z</time>
      </trkpt>
      <trkpt lat="43.61634" lon="6.85588">
        <ele>248</ele>
        <time>2019-02-07T08:54:13.000Z</time>
      </trkpt>
      <trkpt lat="43.61633" lon="6.85587">
        <ele>248</ele>
        <time>2019-02-07T08:54:14.000Z</time>
      </trkpt>
      <trkpt lat="43.61632" lon="6.85587">
        <ele>248</ele>
        <time>2019-02-07T08:54:15.000Z</time>
      </trkpt>
      <trkpt lat="43.6163" lon="6.85587">
        <ele>248</ele>
        <time>2019-02-07T08:54:16.000Z</time>
      </trkpt>
      <trkpt lat="43.61629" lon="6.85587">
        <ele>247</ele>
        <time>2019-02-07T08:54:17.000Z</time>
      </trkpt>
      <trkpt lat="43.61627" lon="6.85587">
        <ele>247</ele>
        <time>2019-02-07T08:54:18.000Z</time>
      </trkpt>
      <trkpt lat="43.61626" lon="6.85586">
        <ele>247</ele>
        <time>2019-02-07T08:54:19.000Z</time>
      </trkpt>
      <trkpt lat="43.61625" lon="6.85586">
        <ele>246</ele>
        <time>2019-02-07T08:54:20.000Z</time>
      </trkpt>
      <trkpt lat="43.61623" lon="6.85585">
        <ele>246</ele>
        <time>2019-02-07T08:54:21.000Z</time>
      </trkpt>
      <trkpt lat="43.61622" lon="6.85585">
        <ele>245</ele>
        <time>2019-02-07T08:54:22.000Z</time>
      </trkpt>
      <trkpt lat="43.6162" lon="6.85584">
        <ele>245</ele>
        <time>2019-02-07T08:54:23.000Z</time>
      </trkpt>
      <trkpt lat="43.61619" lon="6.85584">
        <ele>244</ele>
        <time>2019-02-07T08:54:24.000Z</time>
      </trkpt>
      <trkpt lat="43.61618" lon="6.85584">
        <ele>244</ele>
        <time>2019-02-07T08:54:25.000Z</time>
      </trkpt>
      <trkpt lat="43.61616" lon="6.85584">
        <ele>243</ele>
        <time>2019-02-07T08:54:26.000Z</time>
      </trkpt>
      <trkpt lat="43.61615" lon="6.85584">
        <ele>243</ele>
        <time>2019-02-07T08:54:27.000Z</time>
      </trkpt>
      <trkpt lat="43.61613" lon="6.85583">
        <ele>242</ele>
        <time>2019-02-07T08:54:28.000Z</time>
      </trkpt>
      <trkpt lat="43.61612" lon="6.85583">
        <ele>241</ele>
        <time>2019-02-07T08:54:29.000Z</time>
      </trkpt>
      <trkpt lat="43.6161" lon="6.85582">
        <ele>241</ele>
        <time>2019-02-07T08:54:30.000Z</time>
      </trkpt>
      <trkpt lat="43.61608" lon="6.85582">
        <ele>240</ele>
        <time>2019-02-07T08:54:31.000Z</time>
      </trkpt>
      <trkpt lat="43.61607" lon="6.85581">
        <ele>240</ele>
        <time>2019-02-07T08:54:32.000Z</time>
      </trkpt>
      <trkpt lat="43.61605" lon="6.85581">
        <ele>240</ele>
        <time>2019-02-07T08:54:33.000Z</time>
      </trkpt>
      <trkpt lat="43.61604" lon="6.8558">
        <ele>239</ele>
        <time>2019-02-07T08:54:34.000Z</time>
      </trkpt>
      <trkpt lat="43.61602" lon="6.8558">
        <ele>239</ele>
        <time>2019-02-07T08:54:35.000Z</time>
      </trkpt>
      <trkpt lat="43.616" lon="6.8558">
        <ele>239</ele>
        <time>2019-02-07T08:54:36.000Z</time>
      </trkpt>
      <trkpt lat="43.61598" lon="6.85579">
        <ele>239</ele>
        <time>2019-02-07T08:54:37.000Z</time>
      </trkpt>
      <trkpt lat="43.61597" lon="6.85579">
        <ele>239</ele>
        <time>2019-02-07T08:54:38.000Z</time>
      </trkpt>
      <trkpt lat="43.61595" lon="6.85578">
        <ele>240</ele>
        <time>2019-02-07T08:54:39.000Z</time>
      </trkpt>
      <trkpt lat="43.61594" lon="6.85578">
        <ele>240</ele>
        <time>2019-02-07T08:54:40.000Z</time>
      </trkpt>
      <trkpt lat="43.61592" lon="6.85578">
        <ele>239</ele>
        <time>2019-02-07T08:54:41.000Z</time>
      </trkpt>
      <trkpt lat="43.6159" lon="6.85577">
        <ele>239</ele>
        <time>2019-02-07T08:54:42.000Z</time>
      </trkpt>
      <trkpt lat="43.61588" lon="6.85576">
        <ele>239</ele>
        <time>2019-02-07T08:54:43.000Z</time>
      </trkpt>
      <trkpt lat="43.61587" lon="6.85576">
        <ele>239</ele>
        <time>2019-02-07T08:54:44.000Z</time>
      </trkpt>
      <trkpt lat="43.61585" lon="6.85575">
        <ele>238</ele>
        <time>2019-02-07T08:54:45.000Z</time>
      </trkpt>
      <trkpt lat="43.61583" lon="6.85575">
        <ele>238</ele>
        <time>2019-02-07T08:54:46.000Z</time>
      </trkpt>
      <trkpt lat="43.61581" lon="6.85575">
        <ele>238</ele>
        <time>2019-02-07T08:54:47.000Z</time>
      </trkpt>
      <trkpt lat="43.61579" lon="6.85575">
        <ele>238</ele>
        <time>2019-02-07T08:54:48.000Z</time>
      </trkpt>
      <trkpt lat="43.61577" lon="6.85575">
        <ele>238</ele>
        <time>2019-02-07T08:54:49.000Z</time>
      </trkpt>
      <trkpt lat="43.61575" lon="6.85574">
        <ele>238</ele>
        <time>2019-02-07T08:54:50.000Z</time>
      </trkpt>
      <trkpt lat="43.61573" lon="6.85574">
        <ele>238</ele>
        <time>2019-02-07T08:54:51.000Z</time>
      </trkpt>
      <trkpt lat="43.61571" lon="6.85574">
        <ele>238</ele>
        <time>2019-02-07T08:54:52.000Z</time>
      </trkpt>
      <trkpt lat="43.6157" lon="6.85574">
        <ele>237</ele>
        <time>2019-02-07T08:54:53.000Z</time>
      </trkpt>
      <trkpt lat="43.61568" lon="6.85574">
        <ele>237</ele>
        <time>2019-02-07T08:54:54.000Z</time>
      </trkpt>
      <trkpt lat="43.61566" lon="6.85573">
        <ele>237</ele>
        <time>2019-02-07T08:54:55.000Z</time>
      </trkpt>
      <trkpt lat="43.61565" lon="6.85573">
        <ele>237</ele>
        <time>2019-02-07T08:54:56.000Z</time>
      </trkpt>
      <trkpt lat="43.61563" lon="6.85572">
        <ele>236</ele>
        <time>2019-02-07T08:54:57.000Z</time>
      </trkpt>
      <trkpt lat="43.61562" lon="6.85572">
        <ele>236</ele>
        <time>2019-02-07T08:54:58.000Z</time>
      </trkpt>
      <trkpt lat="43.6156" lon="6.85572">
        <ele>235</ele>
        <time>2019-02-07T08:54:59.000Z</time>
      </trkpt>
      <trkpt lat="43.61559" lon="6.85572">
        <ele>234</ele>
        <time>2019-02-07T08:55:00.000Z</time>
      </trkpt>
      <trkpt lat="43.61557" lon="6.85571">
        <ele>234</ele>
        <time>2019-02-07T08:55:01.000Z</time>
      </trkpt>
      <trkpt lat="43.61556" lon="6.85571">
        <ele>233</ele>
        <time>2019-02-07T08:55:02.000Z</time>
      </trkpt>
      <trkpt lat="43.61554" lon="6.85571">
        <ele>232</ele>
        <time>2019-02-07T08:55:03.000Z</time>
      </trkpt>
      <trkpt lat="43.61552" lon="6.85571">
        <ele>232</ele>
        <time>2019-02-07T08:55:04.000Z</time>
      </trkpt>
      <trkpt lat="43.6155" lon="6.85571">
        <ele>232</ele>
        <time>2019-02-07T08:55:05.000Z</time>
      </trkpt>
      <trkpt lat="43.61549" lon="6.85571">
        <ele>232</ele>
        <time>2019-02-07T08:55:06.000Z</time>
      </trkpt>
      <trkpt lat="43.61547" lon="6.85571">
        <ele>231</ele>
        <time>2019-02-07T08:55:07.000Z</time>
      </trkpt>
      <trkpt lat="43.61546" lon="6.85571">
        <ele>231</ele>
        <time>2019-02-07T08:55:08.000Z</time>
      </trkpt>
      <trkpt lat="43.61544" lon="6.85571">
        <ele>231</ele>
        <time>2019-02-07T08:55:09.000Z</time>
      </trkpt>
      <trkpt lat="43.61542" lon="6.85571">
        <ele>230</ele>
        <time>2019-02-07T08:55:10.000Z</time>
      </trkpt>
      <trkpt lat="43.6154" lon="6.8557">
        <ele>230</ele>
        <time>2019-02-07T08:55:11.000Z</time>
      </trkpt>
      <trkpt lat="43.61539" lon="6.8557">
        <ele>230</ele>
        <time>2019-02-07T08:55:12.000Z</time>
      </trkpt>
      <trkpt lat="43.61537" lon="6.8557">
        <ele>229</ele>
        <time>2019-02-07T08:55:13.000Z</time>
      </trkpt>
      <trkpt lat="43.61535" lon="6.8557">
        <ele>229</ele>
        <time>2019-02-07T08:55:14.000Z</time>
      </trkpt>
      <trkpt lat="43.61533" lon="6.8557">
        <ele>229</ele>
        <time>2019-02-07T08:55:15.000Z</time>
      </trkpt>
      <trkpt lat="43.61532" lon="6.8557">
        <ele>229</ele>
        <time>2019-02-07T08:55:16.000Z</time>
      </trkpt>
      <trkpt lat="43.6153" lon="6.85569">
        <ele>228</ele>
        <time>2019-02-07T08:55:17.000Z</time>
      </trkpt>
      <trkpt lat="43.61528" lon="6.85569">
        <ele>228</ele>
        <time>2019-02-07T08:55:18.000Z</time>
      </trkpt>
      <trkpt lat="43.61526" lon="6.85569">
        <ele>227</ele>
        <time>2019-02-07T08:55:19.000Z</time>
      </trkpt>
      <trkpt lat="43.61524" lon="6.85569">
        <ele>227</ele>
        <time>2019-02-07T08:55:20.000Z</time>
      </trkpt>
      <trkpt lat="43.61522" lon="6.85568">
        <ele>227</ele>
        <time>2019-02-07T08:55:21.000Z</time>
      </trkpt>
      <trkpt lat="43.6152" lon="6.85568">
        <ele>226</ele>
        <time>2019-02-07T08:55:22.000Z</time>
      </trkpt>
      <trkpt lat="43.61518" lon="6.85568">
        <ele>226</ele>
        <time>2019-02-07T08:55:23.000Z</time>
      </trkpt>
      <trkpt lat="43.61516" lon="6.85568">
        <ele>225</ele>
        <time>2019-02-07T08:55:24.000Z</time>
      </trkpt>
      <trkpt lat="43.61514" lon="6.85568">
        <ele>224</ele>
        <time>2019-02-07T08:55:25.000Z</time>
      </trkpt>
      <trkpt lat="43.61512" lon="6.85567">
        <ele>224</ele>
        <time>2019-02-07T08:55:26.000Z</time>
      </trkpt>
      <trkpt lat="43.6151" lon="6.85566">
        <ele>224</ele>
        <time>2019-02-07T08:55:27.000Z</time>
      </trkpt>
      <trkpt lat="43.61509" lon="6.85566">
        <ele>224</ele>
        <time>2019-02-07T08:55:28.000Z</time>
      </trkpt>
      <trkpt lat="43.61507" lon="6.85566">
        <ele>223</ele>
        <time>2019-02-07T08:55:29.000Z</time>
      </trkpt>
      <trkpt lat="43.61505" lon="6.85566">
        <ele>223</ele>
        <time>2019-02-07T08:55:30.000Z</time>
      </trkpt>
      <trkpt lat="43.61503" lon="6.85565">
        <ele>222</ele>
        <time>2019-02-07T08:55:31.000Z</time>
      </trkpt>
      <trkpt lat="43.61501" lon="6.85565">
        <ele>222</ele>
        <time>2019-02-07T08:55:32.000Z</time>
      </trkpt>
      <trkpt lat="43.61499" lon="6.85565">
        <ele>222</ele>
        <time>2019-02-07T08:55:33.000Z</time>
      </trkpt>
      <trkpt lat="43.61497" lon="6.85564">
        <ele>222</ele>
        <time>2019-02-07T08:55:34.000Z</time>
      </trkpt>
      <trkpt lat="43.61495" lon="6.85564">
        <ele>222</ele>
        <time>2019-02-07T08:55:35.000Z</time>
      </trkpt>
      <trkpt lat="43.61493" lon="6.85564">
        <ele>221</ele>
        <time>2019-02-07T08:55:36.000Z</time>
      </trkpt>
      <trkpt lat="43.61491" lon="6.85564">
        <ele>221</ele>
        <time>2019-02-07T08:55:37.000Z</time>
      </trkpt>
      <trkpt lat="43.61488" lon="6.85564">
        <ele>221</ele>
        <time>2019-02-07T08:55:38.000Z</time>
      </trkpt>
      <trkpt lat="43.61486" lon="6.85563">
        <ele>221</ele>
        <time>2019-02-07T08:55:39.000Z</time>
      </trkpt>
      <trkpt lat="43.61483" lon="6.85563">
        <ele>221</ele>
        <time>2019-02-07T08:55:40.000Z</time>
      </trkpt>
      <trkpt lat="43.61481" lon="6.85562">
        <ele>221</ele>
        <time>2019-02-07T08:55:41.000Z</time>
      </trkpt>
      <trkpt lat="43.61479" lon="6.85561">
        <ele>220</ele>
        <time>2019-02-07T08:55:42.000Z</time>
      </trkpt>
      <trkpt lat="43.61477" lon="6.8556">
        <ele>220</ele>
        <time>2019-02-07T08:55:43.000Z</time>
      </trkpt>
      <trkpt lat="43.61474" lon="6.85558">
        <ele>220</ele>
        <time>2019-02-07T08:55:44.000Z</time>
      </trkpt>
      <trkpt lat="43.61472" lon="6.85556">
        <ele>220</ele>
        <time>2019-02-07T08:55:45.000Z</time>
      </trkpt>
      <trkpt lat="43.61471" lon="6.85554">
        <ele>220</ele>
        <time>2019-02-07T08:55:46.000Z</time>
      </trkpt>
      <trkpt lat="43.61469" lon="6.85552">
        <ele>219</ele>
        <time>2019-02-07T08:55:47.000Z</time>
      </trkpt>
      <trkpt lat="43.61468" lon="6.8555">
        <ele>219</ele>
        <time>2019-02-07T08:55:48.000Z</time>
      </trkpt>
      <trkpt lat="43.61467" lon="6.85547">
        <ele>218</ele>
        <time>2019-02-07T08:55:49.000Z</time>
      </trkpt>
      <trkpt lat="43.61466" lon="6.85545">
        <ele>218</ele>
        <time>2019-02-07T08:55:50.000Z</time>
      </trkpt>
      <trkpt lat="43.61465" lon="6.85542">
        <ele>218</ele>
        <time>2019-02-07T08:55:51.000Z</time>
      </trkpt>
      <trkpt lat="43.61464" lon="6.85539">
        <ele>218</ele>
        <time>2019-02-07T08:55:52.000Z</time>
      </trkpt>
      <trkpt lat="43.61463" lon="6.85537">
        <ele>217</ele>
        <time>2019-02-07T08:55:53.000Z</time>
      </trkpt>
      <trkpt lat="43.61463" lon="6.85536">
        <ele>218</ele>
        <time>2019-02-07T08:55:54.000Z</time>
      </trkpt>
      <trkpt lat="43.61462" lon="6.85534">
        <ele>217</ele>
        <time>2019-02-07T08:55:55.000Z</time>
      </trkpt>
      <trkpt lat="43.61462" lon="6.85534">
        <ele>217</ele>
        <time>2019-02-07T08:55:56.000Z</time>
      </trkpt>
      <trkpt lat="43.61462" lon="6.85533">
        <ele>216</ele>
        <time>2019-02-07T08:55:57.000Z</time>
      </trkpt>
      <trkpt lat="43.61462" lon="6.85533">
        <ele>217</ele>
        <time>2019-02-07T08:55:58.000Z</time>
      </trkpt>
      <trkpt lat="43.61462" lon="6.85533">
        <ele>217</ele>
        <time>2019-02-07T08:55:59.000Z</time>
      </trkpt>
      <trkpt lat="43.61462" lon="6.85533">
        <ele>217</ele>
        <time>2019-02-07T08:56:00.000Z</time>
      </trkpt>
      <trkpt lat="43.61462" lon="6.85533">
        <ele>217</ele>
        <time>2019-02-07T08:56:01.000Z</time>
      </trkpt>
      <trkpt lat="43.61462" lon="6.85532">
        <ele>218</ele>
        <time>2019-02-07T08:56:02.000Z</time>
      </trkpt>
      <trkpt lat="43.61462" lon="6.85532">
        <ele>217</ele>
        <time>2019-02-07T08:56:03.000Z</time>
      </trkpt>
      <trkpt lat="43.61461" lon="6.85532">
        <ele>218</ele>
        <time>2019-02-07T08:56:04.000Z</time>
      </trkpt>
      <trkpt lat="43.61461" lon="6.85532">
        <ele>218</ele>
        <time>2019-02-07T08:56:05.000Z</time>
      </trkpt>
      <trkpt lat="43.6146" lon="6.85531">
        <ele>218</ele>
        <time>2019-02-07T08:56:06.000Z</time>
      </trkpt>
      <trkpt lat="43.61459" lon="6.8553">
        <ele>218</ele>
        <time>2019-02-07T08:56:07.000Z</time>
      </trkpt>
      <trkpt lat="43.61459" lon="6.8553">
        <ele>217</ele>
        <time>2019-02-07T08:56:08.000Z</time>
      </trkpt>
      <trkpt lat="43.61458" lon="6.85529">
        <ele>217</ele>
        <time>2019-02-07T08:56:09.000Z</time>
      </trkpt>
      <trkpt lat="43.61457" lon="6.85528">
        <ele>217</ele>
        <time>2019-02-07T08:56:10.000Z</time>
      </trkpt>
      <trkpt lat="43.61457" lon="6.85527">
        <ele>217</ele>
        <time>2019-02-07T08:56:11.000Z</time>
      </trkpt>
      <trkpt lat="43.61456" lon="6.85525">
        <ele>216</ele>
        <time>2019-02-07T08:56:12.000Z</time>
      </trkpt>
      <trkpt lat="43.61456" lon="6.85524">
        <ele>216</ele>
        <time>2019-02-07T08:56:13.000Z</time>
      </trkpt>
      <trkpt lat="43.61455" lon="6.85522">
        <ele>216</ele>
        <time>2019-02-07T08:56:14.000Z</time>
      </trkpt>
      <trkpt lat="43.61454" lon="6.85521">
        <ele>216</ele>
        <time>2019-02-07T08:56:15.000Z</time>
      </trkpt>
      <trkpt lat="43.61454" lon="6.8552">
        <ele>215</ele>
        <time>2019-02-07T08:56:16.000Z</time>
      </trkpt>
      <trkpt lat="43.61453" lon="6.85519">
        <ele>215</ele>
        <time>2019-02-07T08:56:17.000Z</time>
      </trkpt>
      <trkpt lat="43.61452" lon="6.85518">
        <ele>215</ele>
        <time>2019-02-07T08:56:18.000Z</time>
      </trkpt>
      <trkpt lat="43.61451" lon="6.85517">
        <ele>214</ele>
        <time>2019-02-07T08:56:19.000Z</time>
      </trkpt>
      <trkpt lat="43.6145" lon="6.85516">
        <ele>214</ele>
        <time>2019-02-07T08:56:20.000Z</time>
      </trkpt>
      <trkpt lat="43.61449" lon="6.85515">
        <ele>213</ele>
        <time>2019-02-07T08:56:21.000Z</time>
      </trkpt>
      <trkpt lat="43.61448" lon="6.85514">
        <ele>213</ele>
        <time>2019-02-07T08:56:22.000Z</time>
      </trkpt>
      <trkpt lat="43.61447" lon="6.85513">
        <ele>212</ele>
        <time>2019-02-07T08:56:23.000Z</time>
      </trkpt>
      <trkpt lat="43.61446" lon="6.85513">
        <ele>212</ele>
        <time>2019-02-07T08:56:24.000Z</time>
      </trkpt>
      <trkpt lat="43.61445" lon="6.85512">
        <ele>212</ele>
        <time>2019-02-07T08:56:25.000Z</time>
      </trkpt>
      <trkpt lat="43.61444" lon="6.85511">
        <ele>211</ele>
        <time>2019-02-07T08:56:26.000Z</time>
      </trkpt>
      <trkpt lat="43.61443" lon="6.85511">
        <ele>211</ele>
        <time>2019-02-07T08:56:27.000Z</time>
      </trkpt>
      <trkpt lat="43.61442" lon="6.8551">
        <ele>211</ele>
        <time>2019-02-07T08:56:28.000Z</time>
      </trkpt>
      <trkpt lat="43.61442" lon="6.8551">
        <ele>211</ele>
        <time>2019-02-07T08:56:29.000Z</time>
      </trkpt>
      <trkpt lat="43.61441" lon="6.8551">
        <ele>211</ele>
        <time>2019-02-07T08:56:30.000Z</time>
      </trkpt>
      <trkpt lat="43.6144" lon="6.85509">
        <ele>210</ele>
        <time>2019-02-07T08:56:31.000Z</time>
      </trkpt>
      <trkpt lat="43.61439" lon="6.85509">
        <ele>210</ele>
        <time>2019-02-07T08:56:32.000Z</time>
      </trkpt>
      <trkpt lat="43.61438" lon="6.85509">
        <ele>209</ele>
        <time>2019-02-07T08:56:33.000Z</time>
      </trkpt>
      <trkpt lat="43.61438" lon="6.85509">
        <ele>209</ele>
        <time>2019-02-07T08:56:34.000Z</time>
      </trkpt>
      <trkpt lat="43.61437" lon="6.85508">
        <ele>209</ele>
        <time>2019-02-07T08:56:35.000Z</time>
      </trkpt>
      <trkpt lat="43.61436" lon="6.85508">
        <ele>208</ele>
        <time>2019-02-07T08:56:36.000Z</time>
      </trkpt>
      <trkpt lat="43.61435" lon="6.85508">
        <ele>208</ele>
        <time>2019-02-07T08:56:37.000Z</time>
      </trkpt>
      <trkpt lat="43.61435" lon="6.85507">
        <ele>208</ele>
        <time>2019-02-07T08:56:38.000Z</time>
      </trkpt>
      <trkpt lat="43.61434" lon="6.85507">
        <ele>208</ele>
        <time>2019-02-07T08:56:39.000Z</time>
      </trkpt>
      <trkpt lat="43.61433" lon="6.85507">
        <ele>207</ele>
        <time>2019-02-07T08:56:40.000Z</time>
      </trkpt>
      <trkpt lat="43.61433" lon="6.85507">
        <ele>207</ele>
        <time>2019-02-07T08:56:41.000Z</time>
      </trkpt>
      <trkpt lat="43.61432" lon="6.85506">
        <ele>207</ele>
        <time>2019-02-07T08:56:42.000Z</time>
      </trkpt>
      <trkpt lat="43.61431" lon="6.85506">
        <ele>206</ele>
        <time>2019-02-07T08:56:43.000Z</time>
      </trkpt>
      <trkpt lat="43.6143" lon="6.85506">
        <ele>205</ele>
        <time>2019-02-07T08:56:44.000Z</time>
      </trkpt>
      <trkpt lat="43.61429" lon="6.85505">
        <ele>205</ele>
        <time>2019-02-07T08:56:45.000Z</time>
      </trkpt>
      <trkpt lat="43.61428" lon="6.85505">
        <ele>204</ele>
        <time>2019-02-07T08:56:46.000Z</time>
      </trkpt>
      <trkpt lat="43.61427" lon="6.85505">
        <ele>203</ele>
        <time>2019-02-07T08:56:47.000Z</time>
      </trkpt>
      <trkpt lat="43.61426" lon="6.85504">
        <ele>203</ele>
        <time>2019-02-07T08:56:48.000Z</time>
      </trkpt>
      <trkpt lat="43.61425" lon="6.85504">
        <ele>203</ele>
        <time>2019-02-07T08:56:49.000Z</time>
      </trkpt>
      <trkpt lat="43.61424" lon="6.85504">
        <ele>203</ele>
        <time>2019-02-07T08:56:50.000Z</time>
      </trkpt>
      <trkpt lat="43.61423" lon="6.85504">
        <ele>203</ele>
        <time>2019-02-07T08:56:51.000Z</time>
      </trkpt>
      <trkpt lat="43.61421" lon="6.85504">
        <ele>203</ele>
        <time>2019-02-07T08:56:52.000Z</time>
      </trkpt>
      <trkpt lat="43.6142" lon="6.85504">
        <ele>203</ele>
        <time>2019-02-07T08:56:53.000Z</time>
      </trkpt>
      <trkpt lat="43.61419" lon="6.85504">
        <ele>203</ele>
        <time>2019-02-07T08:56:54.000Z</time>
      </trkpt>
      <trkpt lat="43.61418" lon="6.85504">
        <ele>202</ele>
        <time>2019-02-07T08:56:55.000Z</time>
      </trkpt>
      <trkpt lat="43.61417" lon="6.85503">
        <ele>202</ele>
        <time>2019-02-07T08:56:56.000Z</time>
      </trkpt>
      <trkpt lat="43.61416" lon="6.85503">
        <ele>202</ele>
        <time>2019-02-07T08:56:57.000Z</time>
      </trkpt>
      <trkpt lat="43.61415" lon="6.85502">
        <ele>201</ele>
        <time>2019-02-07T08:56:58.000Z</time>
      </trkpt>
      <trkpt lat="43.61414" lon="6.85502">
        <ele>201</ele>
        <time>2019-02-07T08:56:59.000Z</time>
      </trkpt>
      <trkpt lat="43.61413" lon="6.85502">
        <ele>200</ele>
        <time>2019-02-07T08:57:00.000Z</time>
      </trkpt>
      <trkpt lat="43.61411" lon="6.85502">
        <ele>200</ele>
        <time>2019-02-07T08:57:01.000Z</time>
      </trkpt>
      <trkpt lat="43.6141" lon="6.85502">
        <ele>199</ele>
        <time>2019-02-07T08:57:02.000Z</time>
      </trkpt>
      <trkpt lat="43.61409" lon="6.85502">
        <ele>199</ele>
        <time>2019-02-07T08:57:03.000Z</time>
      </trkpt>
      <trkpt lat="43.61407" lon="6.85502">
        <ele>198</ele>
        <time>2019-02-07T08:57:04.000Z</time>
      </trkpt>
      <trkpt lat="43.61406" lon="6.85501">
        <ele>198</ele>
        <time>2019-02-07T08:57:05.000Z</time>
      </trkpt>
      <trkpt lat="43.61405" lon="6.85501">
        <ele>197</ele>
        <time>2019-02-07T08:57:06.000Z</time>
      </trkpt>
      <trkpt lat="43.61404" lon="6.85501">
        <ele>197</ele>
        <time>2019-02-07T08:57:07.000Z</time>
      </trkpt>
      <trkpt lat="43.61403" lon="6.85501">
        <ele>197</ele>
        <time>2019-02-07T08:57:08.000Z</time>
      </trkpt>
      <trkpt lat="43.61401" lon="6.85501">
        <ele>196</ele>
        <time>2019-02-07T08:57:09.000Z</time>
      </trkpt>
      <trkpt lat="43.614" lon="6.855">
        <ele>195</ele>
        <time>2019-02-07T08:57:10.000Z</time>
      </trkpt>
      <trkpt lat="43.61399" lon="6.855">
        <ele>194</ele>
        <time>2019-02-07T08:57:11.000Z</time>
      </trkpt>
      <trkpt lat="43.61397" lon="6.855">
        <ele>194</ele>
        <time>2019-02-07T08:57:12.000Z</time>
      </trkpt>
      <trkpt lat="43.61396" lon="6.855">
        <ele>194</ele>
        <time>2019-02-07T08:57:13.000Z</time>
      </trkpt>
      <trkpt lat="43.61394" lon="6.855">
        <ele>193</ele>
        <time>2019-02-07T08:57:14.000Z</time>
      </trkpt>
      <trkpt lat="43.61393" lon="6.855">
        <ele>193</ele>
        <time>2019-02-07T08:57:15.000Z</time>
      </trkpt>
      <trkpt lat="43.61392" lon="6.855">
        <ele>192</ele>
        <time>2019-02-07T08:57:16.000Z</time>
      </trkpt>
      <trkpt lat="43.61391" lon="6.855">
        <ele>192</ele>
        <time>2019-02-07T08:57:17.000Z</time>
      </trkpt>
      <trkpt lat="43.6139" lon="6.85499">
        <ele>192</ele>
        <time>2019-02-07T08:57:18.000Z</time>
      </trkpt>
      <trkpt lat="43.61388" lon="6.85499">
        <ele>191</ele>
        <time>2019-02-07T08:57:19.000Z</time>
      </trkpt>
      <trkpt lat="43.61387" lon="6.85499">
        <ele>190</ele>
        <time>2019-02-07T08:57:20.000Z</time>
      </trkpt>
      <trkpt lat="43.61386" lon="6.85498">
        <ele>190</ele>
        <time>2019-02-07T08:57:21.000Z</time>
      </trkpt>
      <trkpt lat="43.61384" lon="6.85498">
        <ele>190</ele>
        <time>2019-02-07T08:57:22.000Z</time>
      </trkpt>
      <trkpt lat="43.61382" lon="6.85498">
        <ele>190</ele>
        <time>2019-02-07T08:57:23.000Z</time>
      </trkpt>
      <trkpt lat="43.6138" lon="6.85498">
        <ele>189</ele>
        <time>2019-02-07T08:57:24.000Z</time>
      </trkpt>
      <trkpt lat="43.61378" lon="6.85499">
        <ele>188</ele>
        <time>2019-02-07T08:57:25.000Z</time>
      </trkpt>
      <trkpt lat="43.61377" lon="6.85499">
        <ele>188</ele>
        <time>2019-02-07T08:57:26.000Z</time>
      </trkpt>
      <trkpt lat="43.61375" lon="6.855">
        <ele>187</ele>
        <time>2019-02-07T08:57:27.000Z</time>
      </trkpt>
      <trkpt lat="43.61373" lon="6.855">
        <ele>187</ele>
        <time>2019-02-07T08:57:28.000Z</time>
      </trkpt>
      <trkpt lat="43.61372" lon="6.85501">
        <ele>187</ele>
        <time>2019-02-07T08:57:29.000Z</time>
      </trkpt>
      <trkpt lat="43.6137" lon="6.85501">
        <ele>187</ele>
        <time>2019-02-07T08:57:30.000Z</time>
      </trkpt>
      <trkpt lat="43.61369" lon="6.85502">
        <ele>186</ele>
        <time>2019-02-07T08:57:31.000Z</time>
      </trkpt>
      <trkpt lat="43.61367" lon="6.85502">
        <ele>186</ele>
        <time>2019-02-07T08:57:32.000Z</time>
      </trkpt>
      <trkpt lat="43.61366" lon="6.85503">
        <ele>186</ele>
        <time>2019-02-07T08:57:33.000Z</time>
      </trkpt>
      <trkpt lat="43.61364" lon="6.85503">
        <ele>187</ele>
        <time>2019-02-07T08:57:34.000Z</time>
      </trkpt>
      <trkpt lat="43.61363" lon="6.85504">
        <ele>187</ele>
        <time>2019-02-07T08:57:35.000Z</time>
      </trkpt>
      <trkpt lat="43.61362" lon="6.85505">
        <ele>186</ele>
        <time>2019-02-07T08:57:36.000Z</time>
      </trkpt>
      <trkpt lat="43.61361" lon="6.85505">
        <ele>186</ele>
        <time>2019-02-07T08:57:37.000Z</time>
      </trkpt>
      <trkpt lat="43.6136" lon="6.85506">
        <ele>186</ele>
        <time>2019-02-07T08:57:38.000Z</time>
      </trkpt>
      <trkpt lat="43.61358" lon="6.85506">
        <ele>185</ele>
        <time>2019-02-07T08:57:39.000Z</time>
      </trkpt>
      <trkpt lat="43.61357" lon="6.85507">
        <ele>185</ele>
        <time>2019-02-07T08:57:40.000Z</time>
      </trkpt>
      <trkpt lat="43.61356" lon="6.85507">
        <ele>185</ele>
        <time>2019-02-07T08:57:41.000Z</time>
      </trkpt>
      <trkpt lat="43.61354" lon="6.85508">
        <ele>184</ele>
        <time>2019-02-07T08:57:42.000Z</time>
      </trkpt>
      <trkpt lat="43.61353" lon="6.85509">
        <ele>184</ele>
        <time>2019-02-07T08:57:43.000Z</time>
      </trkpt>
      <trkpt lat="43.61351" lon="6.8551">
        <ele>183</ele>
        <time>2019-02-07T08:57:44.000Z</time>
      </trkpt>
      <trkpt lat="43.6135" lon="6.85511">
        <ele>183</ele>
        <time>2019-02-07T08:57:45.000Z</time>
      </trkpt>
      <trkpt lat="43.61348" lon="6.85512">
        <ele>182</ele>
        <time>2019-02-07T08:57:46.000Z</time>
      </trkpt>
      <trkpt lat="43.61347" lon="6.85513">
        <ele>181</ele>
        <time>2019-02-07T08:57:47.000Z</time>
      </trkpt>
      <trkpt lat="43.61346" lon="6.85514">
        <ele>181</ele>
        <time>2019-02-07T08:57:48.000Z</time>
      </trkpt>
      <trkpt lat="43.61344" lon="6.85516">
        <ele>181</ele>
        <time>2019-02-07T08:57:49.000Z</time>
      </trkpt>
      <trkpt lat="43.61343" lon="6.85517">
        <ele>180</ele>
        <time>2019-02-07T08:57:50.000Z</time>
      </trkpt>
      <trkpt lat="43.61341" lon="6.85518">
        <ele>179</ele>
        <time>2019-02-07T08:57:51.000Z</time>
      </trkpt>
      <trkpt lat="43.61339" lon="6.85519">
        <ele>179</ele>
        <time>2019-02-07T08:57:52.000Z</time>
      </trkpt>
      <trkpt lat="43.61338" lon="6.8552">
        <ele>178</ele>
        <time>2019-02-07T08:57:53.000Z</time>
      </trkpt>
      <trkpt lat="43.61336" lon="6.85521">
        <ele>178</ele>
        <time>2019-02-07T08:57:54.000Z</time>
      </trkpt>
      <trkpt lat="43.61335" lon="6.85521">
        <ele>178</ele>
        <time>2019-02-07T08:57:55.000Z</time>
      </trkpt>
      <trkpt lat="43.61334" lon="6.85521">
        <ele>177</ele>
        <time>2019-02-07T08:57:56.000Z</time>
      </trkpt>
      <trkpt lat="43.61333" lon="6.85521">
        <ele>177</ele>
        <time>2019-02-07T08:57:57.000Z</time>
      </trkpt>
      <trkpt lat="43.61331" lon="6.8552">
        <ele>176</ele>
        <time>2019-02-07T08:57:58.000Z</time>
      </trkpt>
      <trkpt lat="43.6133" lon="6.8552">
        <ele>176</ele>
        <time>2019-02-07T08:57:59.000Z</time>
      </trkpt>
      <trkpt lat="43.61329" lon="6.8552">
        <ele>175</ele>
        <time>2019-02-07T08:58:00.000Z</time>
      </trkpt>
      <trkpt lat="43.61327" lon="6.8552">
        <ele>174</ele>
        <time>2019-02-07T08:58:01.000Z</time>
      </trkpt>
      <trkpt lat="43.61326" lon="6.8552">
        <ele>174</ele>
        <time>2019-02-07T08:58:02.000Z</time>
      </trkpt>
      <trkpt lat="43.61325" lon="6.85519">
        <ele>173</ele>
        <time>2019-02-07T08:58:03.000Z</time>
      </trkpt>
      <trkpt lat="43.61323" lon="6.85519">
        <ele>173</ele>
        <time>2019-02-07T08:58:04.000Z</time>
      </trkpt>
      <trkpt lat="43.61322" lon="6.85518">
        <ele>173</ele>
        <time>2019-02-07T08:58:05.000Z</time>
      </trkpt>
      <trkpt lat="43.6132" lon="6.85518">
        <ele>172</ele>
        <time>2019-02-07T08:58:06.000Z</time>
      </trkpt>
      <trkpt lat="43.61319" lon="6.85517">
        <ele>172</ele>
        <time>2019-02-07T08:58:07.000Z</time>
      </trkpt>
      <trkpt lat="43.61317" lon="6.85517">
        <ele>171</ele>
        <time>2019-02-07T08:58:08.000Z</time>
      </trkpt>
      <trkpt lat="43.61316" lon="6.85516">
        <ele>171</ele>
        <time>2019-02-07T08:58:09.000Z</time>
      </trkpt>
      <trkpt lat="43.61314" lon="6.85515">
        <ele>170</ele>
        <time>2019-02-07T08:58:10.000Z</time>
      </trkpt>
      <trkpt lat="43.61313" lon="6.85515">
        <ele>170</ele>
        <time>2019-02-07T08:58:11.000Z</time>
      </trkpt>
      <trkpt lat="43.61312" lon="6.85514">
        <ele>169</ele>
        <time>2019-02-07T08:58:12.000Z</time>
      </trkpt>
      <trkpt lat="43.6131" lon="6.85513">
        <ele>169</ele>
        <time>2019-02-07T08:58:13.000Z</time>
      </trkpt>
      <trkpt lat="43.61308" lon="6.85512">
        <ele>168</ele>
        <time>2019-02-07T08:58:14.000Z</time>
      </trkpt>
      <trkpt lat="43.61307" lon="6.85511">
        <ele>167</ele>
        <time>2019-02-07T08:58:15.000Z</time>
      </trkpt>
      <trkpt lat="43.61306" lon="6.8551">
        <ele>167</ele>
        <time>2019-02-07T08:58:16.000Z</time>
      </trkpt>
      <trkpt lat="43.61304" lon="6.85509">
        <ele>167</ele>
        <time>2019-02-07T08:58:17.000Z</time>
      </trkpt>
      <trkpt lat="43.61303" lon="6.85508">
        <ele>166</ele>
        <time>2019-02-07T08:58:18.000Z</time>
      </trkpt>
      <trkpt lat="43.61302" lon="6.85508">
        <ele>165</ele>
        <time>2019-02-07T08:58:19.000Z</time>
      </trkpt>
      <trkpt lat="43.613" lon="6.85507">
        <ele>165</ele>
        <time>2019-02-07T08:58:20.000Z</time>
      </trkpt>
      <trkpt lat="43.61299" lon="6.85506">
        <ele>165</ele>
        <time>2019-02-07T08:58:21.000Z</time>
      </trkpt>
      <trkpt lat="43.61298" lon="6.85505">
        <ele>164</ele>
        <time>2019-02-07T08:58:22.000Z</time>
      </trkpt>
      <trkpt lat="43.61296" lon="6.85504">
        <ele>164</ele>
        <time>2019-02-07T08:58:23.000Z</time>
      </trkpt>
      <trkpt lat="43.61295" lon="6.85503">
        <ele>163</ele>
        <time>2019-02-07T08:58:24.000Z</time>
      </trkpt>
      <trkpt lat="43.61294" lon="6.85502">
        <ele>163</ele>
        <time>2019-02-07T08:58:25.000Z</time>
      </trkpt>
      <trkpt lat="43.61293" lon="6.85501">
        <ele>163</ele>
        <time>2019-02-07T08:58:26.000Z</time>
      </trkpt>
      <trkpt lat="43.61292" lon="6.855">
        <ele>162</ele>
        <time>2019-02-07T08:58:27.000Z</time>
      </trkpt>
      <trkpt lat="43.6129" lon="6.85499">
        <ele>162</ele>
        <time>2019-02-07T08:58:28.000Z</time>
      </trkpt>
      <trkpt lat="43.61289" lon="6.85498">
        <ele>162</ele>
        <time>2019-02-07T08:58:29.000Z</time>
      </trkpt>
      <trkpt lat="43.61288" lon="6.85497">
        <ele>161</ele>
        <time>2019-02-07T08:58:30.000Z</time>
      </trkpt>
      <trkpt lat="43.61287" lon="6.85496">
        <ele>161</ele>
        <time>2019-02-07T08:58:31.000Z</time>
      </trkpt>
      <trkpt lat="43.61286" lon="6.85495">
        <ele>161</ele>
        <time>2019-02-07T08:58:32.000Z</time>
      </trkpt>
      <trkpt lat="43.61285" lon="6.85494">
        <ele>160</ele>
        <time>2019-02-07T08:58:33.000Z</time>
      </trkpt>
      <trkpt lat="43.61284" lon="6.85493">
        <ele>160</ele>
        <time>2019-02-07T08:58:34.000Z</time>
      </trkpt>
      <trkpt lat="43.61282" lon="6.85492">
        <ele>159</ele>
        <time>2019-02-07T08:58:35.000Z</time>
      </trkpt>
      <trkpt lat="43.61281" lon="6.85492">
        <ele>159</ele>
        <time>2019-02-07T08:58:36.000Z</time>
      </trkpt>
      <trkpt lat="43.6128" lon="6.85491">
        <ele>159</ele>
        <time>2019-02-07T08:58:37.000Z</time>
      </trkpt>
      <trkpt lat="43.61279" lon="6.85491">
        <ele>158</ele>
        <time>2019-02-07T08:58:38.000Z</time>
      </trkpt>
      <trkpt lat="43.61278" lon="6.8549">
        <ele>158</ele>
        <time>2019-02-07T08:58:39.000Z</time>
      </trkpt>
      <trkpt lat="43.61277" lon="6.8549">
        <ele>157</ele>
        <time>2019-02-07T08:58:40.000Z</time>
      </trkpt>
      <trkpt lat="43.61276" lon="6.85489">
        <ele>157</ele>
        <time>2019-02-07T08:58:41.000Z</time>
      </trkpt>
      <trkpt lat="43.61275" lon="6.85489">
        <ele>157</ele>
        <time>2019-02-07T08:58:42.000Z</time>
      </trkpt>
      <trkpt lat="43.61273" lon="6.85488">
        <ele>156</ele>
        <time>2019-02-07T08:58:43.000Z</time>
      </trkpt>
      <trkpt lat="43.61273" lon="6.85488">
        <ele>156</ele>
        <time>2019-02-07T08:58:44.000Z</time>
      </trkpt>
      <trkpt lat="43.61272" lon="6.85488">
        <ele>155</ele>
        <time>2019-02-07T08:58:45.000Z</time>
      </trkpt>
      <trkpt lat="43.61271" lon="6.85488">
        <ele>155</ele>
        <time>2019-02-07T08:58:46.000Z</time>
      </trkpt>
      <trkpt lat="43.6127" lon="6.85487">
        <ele>154</ele>
        <time>2019-02-07T08:58:47.000Z</time>
      </trkpt>
      <trkpt lat="43.61269" lon="6.85487">
        <ele>154</ele>
        <time>2019-02-07T08:58:48.000Z</time>
      </trkpt>
      <trkpt lat="43.61268" lon="6.85487">
        <ele>154</ele>
        <time>2019-02-07T08:58:49.000Z</time>
      </trkpt>
      <trkpt lat="43.61267" lon="6.85487">
        <ele>153</ele>
        <time>2019-02-07T08:58:50.000Z</time>
      </trkpt>
      <trkpt lat="43.61266" lon="6.85486">
        <ele>153</ele>
        <time>2019-02-07T08:58:51.000Z</time>
      </trkpt>
      <trkpt lat="43.61265" lon="6.85486">
        <ele>153</ele>
        <time>2019-02-07T08:58:52.000Z</time>
      </trkpt>
      <trkpt lat="43.61264" lon="6.85486">
        <ele>152</ele>
        <time>2019-02-07T08:58:53.000Z</time>
      </trkpt>
      <trkpt lat="43.61263" lon="6.85486">
        <ele>152</ele>
        <time>2019-02-07T08:58:54.000Z</time>
      </trkpt>
      <trkpt lat="43.61262" lon="6.85486">
        <ele>151</ele>
        <time>2019-02-07T08:58:55.000Z</time>
      </trkpt>
      <trkpt lat="43.6126" lon="6.85486">
        <ele>150</ele>
        <time>2019-02-07T08:58:56.000Z</time>
      </trkpt>
      <trkpt lat="43.61259" lon="6.85486">
        <ele>150</ele>
        <time>2019-02-07T08:58:57.000Z</time>
      </trkpt>
      <trkpt lat="43.61258" lon="6.85486">
        <ele>149</ele>
        <time>2019-02-07T08:58:58.000Z</time>
      </trkpt>
      <trkpt lat="43.61257" lon="6.85486">
        <ele>149</ele>
        <time>2019-02-07T08:58:59.000Z</time>
      </trkpt>
      <trkpt lat="43.61256" lon="6.85486">
        <ele>149</ele>
        <time>2019-02-07T08:59:00.000Z</time>
      </trkpt>
      <trkpt lat="43.61255" lon="6.85485">
        <ele>148</ele>
        <time>2019-02-07T08:59:01.000Z</time>
      </trkpt>
      <trkpt lat="43.61253" lon="6.85485">
        <ele>147</ele>
        <time>2019-02-07T08:59:02.000Z</time>
      </trkpt>
      <trkpt lat="43.61252" lon="6.85485">
        <ele>147</ele>
        <time>2019-02-07T08:59:03.000Z</time>
      </trkpt>
      <trkpt lat="43.61251" lon="6.85485">
        <ele>147</ele>
        <time>2019-02-07T08:59:04.000Z</time>
      </trkpt>
      <trkpt lat="43.6125" lon="6.85485">
        <ele>147</ele>
        <time>2019-02-07T08:59:05.000Z</time>
      </trkpt>
      <trkpt lat="43.61249" lon="6.85485">
        <ele>146</ele>
        <time>2019-02-07T08:59:06.000Z</time>
      </trkpt>
      <trkpt lat="43.61248" lon="6.85485">
        <ele>146</ele>
        <time>2019-02-07T08:59:07.000Z</time>
      </trkpt>
      <trkpt lat="43.61247" lon="6.85485">
        <ele>145</ele>
        <time>2019-02-07T08:59:08.000Z</time>
      </trkpt>
      <trkpt lat="43.61245" lon="6.85485">
        <ele>145</ele>
        <time>2019-02-07T08:59:09.000Z</time>
      </trkpt>
      <trkpt lat="43.61244" lon="6.85485">
        <ele>145</ele>
        <time>2019-02-07T08:59:10.000Z</time>
      </trkpt>
      <trkpt lat="43.61243" lon="6.85485">
        <ele>144</ele>
        <time>2019-02-07T08:59:11.000Z</time>
      </trkpt>
      <trkpt lat="43.61242" lon="6.85485">
        <ele>144</ele>
        <time>2019-02-07T08:59:12.000Z</time>
      </trkpt>
      <trkpt lat="43.6124" lon="6.85485">
        <ele>144</ele>
        <time>2019-02-07T08:59:13.000Z</time>
      </trkpt>
      <trkpt lat="43.61239" lon="6.85485">
        <ele>143</ele>
        <time>2019-02-07T08:59:14.000Z</time>
      </trkpt>
      <trkpt lat="43.61238" lon="6.85486">
        <ele>143</ele>
        <time>2019-02-07T08:59:15.000Z</time>
      </trkpt>
      <trkpt lat="43.61236" lon="6.85486">
        <ele>142</ele>
        <time>2019-02-07T08:59:16.000Z</time>
      </trkpt>
      <trkpt lat="43.61235" lon="6.85486">
        <ele>142</ele>
        <time>2019-02-07T08:59:17.000Z</time>
      </trkpt>
      <trkpt lat="43.61234" lon="6.85486">
        <ele>141</ele>
        <time>2019-02-07T08:59:18.000Z</time>
      </trkpt>
      <trkpt lat="43.61233" lon="6.85486">
        <ele>141</ele>
        <time>2019-02-07T08:59:19.000Z</time>
      </trkpt>
      <trkpt lat="43.61232" lon="6.85487">
        <ele>140</ele>
        <time>2019-02-07T08:59:20.000Z</time>
      </trkpt>
      <trkpt lat="43.61231" lon="6.85487">
        <ele>140</ele>
        <time>2019-02-07T08:59:21.000Z</time>
      </trkpt>
      <trkpt lat="43.61231" lon="6.85487">
        <ele>139</ele>
        <time>2019-02-07T08:59:22.000Z</time>
      </trkpt>
      <trkpt lat="43.6123" lon="6.85488">
        <ele>139</ele>
        <time>2019-02-07T08:59:23.000Z</time>
      </trkpt>
      <trkpt lat="43.61229" lon="6.85489">
        <ele>138</ele>
        <time>2019-02-07T08:59:24.000Z</time>
      </trkpt>
      <trkpt lat="43.61228" lon="6.85489">
        <ele>137</ele>
        <time>2019-02-07T08:59:25.000Z</time>
      </trkpt>
      <trkpt lat="43.61227" lon="6.8549">
        <ele>137</ele>
        <time>2019-02-07T08:59:26.000Z</time>
      </trkpt>
      <trkpt lat="43.61226" lon="6.85491">
        <ele>136</ele>
        <time>2019-02-07T08:59:27.000Z</time>
      </trkpt>
      <trkpt lat="43.61225" lon="6.85492">
        <ele>136</ele>
        <time>2019-02-07T08:59:28.000Z</time>
      </trkpt>
      <trkpt lat="43.61223" lon="6.85493">
        <ele>136</ele>
        <time>2019-02-07T08:59:29.000Z</time>
      </trkpt>
      <trkpt lat="43.61222" lon="6.85494">
        <ele>135</ele>
        <time>2019-02-07T08:59:30.000Z</time>
      </trkpt>
      <trkpt lat="43.6122" lon="6.85495">
        <ele>135</ele>
        <time>2019-02-07T08:59:31.000Z</time>
      </trkpt>
      <trkpt lat="43.61219" lon="6.85496">
        <ele>134</ele>
        <time>2019-02-07T08:59:32.000Z</time>
      </trkpt>
      <trkpt lat="43.61218" lon="6.85497">
        <ele>134</ele>
        <time>2019-02-07T08:59:33.000Z</time>
      </trkpt>
      <trkpt lat="43.61216" lon="6.85498">
        <ele>133</ele>
        <time>2019-02-07T08:59:34.000Z</time>
      </trkpt>
      <trkpt lat="43.61215" lon="6.85498">
        <ele>132</ele>
        <time>2019-02-07T08:59:35.000Z</time>
      </trkpt>
      <trkpt lat="43.61214" lon="6.85499">
        <ele>132</ele>
        <time>2019-02-07T08:59:36.000Z</time>
      </trkpt>
      <trkpt lat="43.61214" lon="6.855">
        <ele>131</ele>
        <time>2019-02-07T08:59:37.000Z</time>
      </trkpt>
      <trkpt lat="43.61213" lon="6.85501">
        <ele>130</ele>
        <time>2019-02-07T08:59:38.000Z</time>
      </trkpt>
      <trkpt lat="43.61212" lon="6.85502">
        <ele>130</ele>
        <time>2019-02-07T08:59:39.000Z</time>
      </trkpt>
      <trkpt lat="43.61211" lon="6.85503">
        <ele>129</ele>
        <time>2019-02-07T08:59:40.000Z</time>
      </trkpt>
      <trkpt lat="43.61209" lon="6.85504">
        <ele>128</ele>
        <time>2019-02-07T08:59:41.000Z</time>
      </trkpt>
      <trkpt lat="43.61208" lon="6.85505">
        <ele>128</ele>
        <time>2019-02-07T08:59:42.000Z</time>
      </trkpt>
      <trkpt lat="43.61207" lon="6.85506">
        <ele>127</ele>
        <time>2019-02-07T08:59:43.000Z</time>
      </trkpt>
      <trkpt lat="43.61206" lon="6.85507">
        <ele>127</ele>
        <time>2019-02-07T08:59:44.000Z</time>
      </trkpt>
      <trkpt lat="43.61204" lon="6.85508">
        <ele>127</ele>
        <time>2019-02-07T08:59:45.000Z</time>
      </trkpt>
      <trkpt lat="43.61203" lon="6.85509">
        <ele>127</ele>
        <time>2019-02-07T08:59:46.000Z</time>
      </trkpt>
      <trkpt lat="43.61201" lon="6.8551">
        <ele>126</ele>
        <time>2019-02-07T08:59:47.000Z</time>
      </trkpt>
      <trkpt lat="43.61199" lon="6.85511">
        <ele>125</ele>
        <time>2019-02-07T08:59:48.000Z</time>
      </trkpt>
      <trkpt lat="43.61197" lon="6.85512">
        <ele>125</ele>
        <time>2019-02-07T08:59:49.000Z</time>
      </trkpt>
      <trkpt lat="43.61195" lon="6.85513">
        <ele>125</ele>
        <time>2019-02-07T08:59:50.000Z</time>
      </trkpt>
      <trkpt lat="43.61193" lon="6.85514">
        <ele>124</ele>
        <time>2019-02-07T08:59:51.000Z</time>
      </trkpt>
      <trkpt lat="43.61191" lon="6.85515">
        <ele>124</ele>
        <time>2019-02-07T08:59:52.000Z</time>
      </trkpt>
      <trkpt lat="43.61189" lon="6.85516">
        <ele>125</ele>
        <time>2019-02-07T08:59:53.000Z</time>
      </trkpt>
      <trkpt lat="43.61188" lon="6.85516">
        <ele>124</ele>
        <time>2019-02-07T08:59:54.000Z</time>
      </trkpt>
      <trkpt lat="43.61186" lon="6.85517">
        <ele>124</ele>
        <time>2019-02-07T08:59:55.000Z</time>
      </trkpt>
      <trkpt lat="43.61184" lon="6.85517">
        <ele>124</ele>
        <time>2019-02-07T08:59:56.000Z</time>
      </trkpt>
      <trkpt lat="43.61183" lon="6.85517">
        <ele>124</ele>
        <time>2019-02-07T08:59:57.000Z</time>
      </trkpt>
      <trkpt lat="43.61181" lon="6.85517">
        <ele>124</ele>
        <time>2019-02-07T08:59:58.000Z</time>
      </trkpt>
      <trkpt lat="43.61179" lon="6.85518">
        <ele>124</ele>
        <time>2019-02-07T08:59:59.000Z</time>
      </trkpt>
      <trkpt lat="43.61176" lon="6.85518">
        <ele>123</ele>
        <time>2019-02-07T09:00:00.000Z</time>
      </trkpt>
      <trkpt lat="43.61174" lon="6.85518">
        <ele>124</ele>
        <time>2019-02-07T09:00:01.000Z</time>
      </trkpt>
      <trkpt lat="43.61172" lon="6.85517">
        <ele>123</ele>
        <time>2019-02-07T09:00:02.000Z</time>
      </trkpt>
      <trkpt lat="43.61171" lon="6.85517">
        <ele>123</ele>
        <time>2019-02-07T09:00:03.000Z</time>
      </trkpt>
      <trkpt lat="43.61169" lon="6.85516">
        <ele>122</ele>
        <time>2019-02-07T09:00:04.000Z</time>
      </trkpt>
      <trkpt lat="43.61167" lon="6.85515">
        <ele>121</ele>
        <time>2019-02-07T09:00:05.000Z</time>
      </trkpt>
      <trkpt lat="43.61166" lon="6.85514">
        <ele>121</ele>
        <time>2019-02-07T09:00:06.000Z</time>
      </trkpt>
      <trkpt lat="43.61164" lon="6.85513">
        <ele>120</ele>
        <time>2019-02-07T09:00:07.000Z</time>
      </trkpt>
      <trkpt lat="43.61163" lon="6.85512">
        <ele>120</ele>
        <time>2019-02-07T09:00:08.000Z</time>
      </trkpt>
      <trkpt lat="43.61161" lon="6.85511">
        <ele>119</ele>
        <time>2019-02-07T09:00:09.000Z</time>
      </trkpt>
      <trkpt lat="43.61159" lon="6.8551">
        <ele>119</ele>
        <time>2019-02-07T09:00:10.000Z</time>
      </trkpt>
      <trkpt lat="43.61158" lon="6.85509">
        <ele>119</ele>
        <time>2019-02-07T09:00:11.000Z</time>
      </trkpt>
      <trkpt lat="43.61156" lon="6.85508">
        <ele>118</ele>
        <time>2019-02-07T09:00:12.000Z</time>
      </trkpt>
      <trkpt lat="43.61155" lon="6.85508">
        <ele>118</ele>
        <time>2019-02-07T09:00:13.000Z</time>
      </trkpt>
      <trkpt lat="43.61153" lon="6.85507">
        <ele>117</ele>
        <time>2019-02-07T09:00:14.000Z</time>
      </trkpt>
      <trkpt lat="43.61152" lon="6.85507">
        <ele>117</ele>
        <time>2019-02-07T09:00:15.000Z</time>
      </trkpt>
      <trkpt lat="43.6115" lon="6.85507">
        <ele>117</ele>
        <time>2019-02-07T09:00:16.000Z</time>
      </trkpt>
      <trkpt lat="43.61149" lon="6.85507">
        <ele>117</ele>
        <time>2019-02-07T09:00:17.000Z</time>
      </trkpt>
      <trkpt lat="43.61147" lon="6.85508">
        <ele>117</ele>
        <time>2019-02-07T09:00:18.000Z</time>
      </trkpt>
      <trkpt lat="43.61146" lon="6.85508">
        <ele>116</ele>
        <time>2019-02-07T09:00:19.000Z</time>
      </trkpt>
      <trkpt lat="43.61145" lon="6.85508">
        <ele>115</ele>
        <time>2019-02-07T09:00:20.000Z</time>
      </trkpt>
      <trkpt lat="43.61144" lon="6.85509">
        <ele>115</ele>
        <time>2019-02-07T09:00:21.000Z</time>
      </trkpt>
      <trkpt lat="43.61143" lon="6.8551">
        <ele>114</ele>
        <time>2019-02-07T09:00:22.000Z</time>
      </trkpt>
      <trkpt lat="43.61142" lon="6.85511">
        <ele>114</ele>
        <time>2019-02-07T09:00:23.000Z</time>
      </trkpt>
      <trkpt lat="43.6114" lon="6.85512">
        <ele>113</ele>
        <time>2019-02-07T09:00:24.000Z</time>
      </trkpt>
      <trkpt lat="43.61139" lon="6.85514">
        <ele>113</ele>
        <time>2019-02-07T09:00:25.000Z</time>
      </trkpt>
      <trkpt lat="43.61138" lon="6.85515">
        <ele>113</ele>
        <time>2019-02-07T09:00:26.000Z</time>
      </trkpt>
      <trkpt lat="43.61136" lon="6.85517">
        <ele>112</ele>
        <time>2019-02-07T09:00:27.000Z</time>
      </trkpt>
      <trkpt lat="43.61135" lon="6.85518">
        <ele>112</ele>
        <time>2019-02-07T09:00:28.000Z</time>
      </trkpt>
      <trkpt lat="43.61134" lon="6.8552">
        <ele>112</ele>
        <time>2019-02-07T09:00:29.000Z</time>
      </trkpt>
      <trkpt lat="43.61133" lon="6.85521">
        <ele>111</ele>
        <time>2019-02-07T09:00:30.000Z</time>
      </trkpt>
      <trkpt lat="43.61132" lon="6.85523">
        <ele>111</ele>
        <time>2019-02-07T09:00:31.000Z</time>
      </trkpt>
      <trkpt lat="43.6113" lon="6.85524">
        <ele>110</ele>
        <time>2019-02-07T09:00:32.000Z</time>
      </trkpt>
      <trkpt lat="43.61129" lon="6.85525">
        <ele>110</ele>
        <time>2019-02-07T09:00:33.000Z</time>
      </trkpt>
      <trkpt lat="43.61128" lon="6.85526">
        <ele>109</ele>
        <time>2019-02-07T09:00:34.000Z</time>
      </trkpt>
      <trkpt lat="43.61127" lon="6.85527">
        <ele>109</ele>
        <time>2019-02-07T09:00:35.000Z</time>
      </trkpt>
      <trkpt lat="43.61126" lon="6.85529">
        <ele>108</ele>
        <time>2019-02-07T09:00:36.000Z</time>
      </trkpt>
      <trkpt lat="43.61124" lon="6.8553">
        <ele>108</ele>
        <time>2019-02-07T09:00:37.000Z</time>
      </trkpt>
      <trkpt lat="43.61123" lon="6.85533">
        <ele>108</ele>
        <time>2019-02-07T09:00:38.000Z</time>
      </trkpt>
      <trkpt lat="43.61122" lon="6.85535">
        <ele>108</ele>
        <time>2019-02-07T09:00:39.000Z</time>
      </trkpt>
      <trkpt lat="43.61121" lon="6.85537">
        <ele>108</ele>
        <time>2019-02-07T09:00:40.000Z</time>
      </trkpt>
      <trkpt lat="43.61119" lon="6.85538">
        <ele>107</ele>
        <time>2019-02-07T09:00:41.000Z</time>
      </trkpt>
      <trkpt lat="43.61117" lon="6.85539">
        <ele>108</ele>
        <time>2019-02-07T09:00:42.000Z</time>
      </trkpt>
      <trkpt lat="43.61116" lon="6.85538">
        <ele>107</ele>
        <time>2019-02-07T09:00:43.000Z</time>
      </trkpt>
      <trkpt lat="43.61115" lon="6.85538">
        <ele>107</ele>
        <time>2019-02-07T09:00:44.000Z</time>
      </trkpt>
      <trkpt lat="43.61115" lon="6.85538">
        <ele>107</ele>
        <time>2019-02-07T09:00:45.000Z</time>
      </trkpt>
      <trkpt lat="43.61114" lon="6.85538">
        <ele>107</ele>
        <time>2019-02-07T09:00:46.000Z</time>
      </trkpt>
      <trkpt lat="43.61114" lon="6.85538">
        <ele>106</ele>
        <time>2019-02-07T09:00:47.000Z</time>
      </trkpt>
      <trkpt lat="43.61113" lon="6.85537">
        <ele>106</ele>
        <time>2019-02-07T09:00:48.000Z</time>
      </trkpt>
      <trkpt lat="43.61112" lon="6.85537">
        <ele>106</ele>
        <time>2019-02-07T09:00:49.000Z</time>
      </trkpt>
      <trkpt lat="43.61111" lon="6.85536">
        <ele>106</ele>
        <time>2019-02-07T09:00:50.000Z</time>
      </trkpt>
      <trkpt lat="43.6111" lon="6.85535">
        <ele>105</ele>
        <time>2019-02-07T09:00:51.000Z</time>
      </trkpt>
      <trkpt lat="43.61109" lon="6.85534">
        <ele>105</ele>
        <time>2019-02-07T09:00:52.000Z</time>
      </trkpt>
      <trkpt lat="43.61108" lon="6.85533">
        <ele>105</ele>
        <time>2019-02-07T09:00:53.000Z</time>
      </trkpt>
      <trkpt lat="43.61107" lon="6.85533">
        <ele>104</ele>
        <time>2019-02-07T09:00:54.000Z</time>
      </trkpt>
      <trkpt lat="43.61106" lon="6.85532">
        <ele>104</ele>
        <time>2019-02-07T09:00:55.000Z</time>
      </trkpt>
      <trkpt lat="43.61105" lon="6.85531">
        <ele>103</ele>
        <time>2019-02-07T09:00:56.000Z</time>
      </trkpt>
      <trkpt lat="43.61104" lon="6.85531">
        <ele>103</ele>
        <time>2019-02-07T09:00:57.000Z</time>
      </trkpt>
      <trkpt lat="43.61102" lon="6.85531">
        <ele>103</ele>
        <time>2019-02-07T09:00:58.000Z</time>
      </trkpt>
      <trkpt lat="43.61101" lon="6.85531">
        <ele>102</ele>
        <time>2019-02-07T09:00:59.000Z</time>
      </trkpt>
      <trkpt lat="43.611" lon="6.8553">
        <ele>102</ele>
        <time>2019-02-07T09:01:00.000Z</time>
      </trkpt>
      <trkpt lat="43.61098" lon="6.8553">
        <ele>101</ele>
        <time>2019-02-07T09:01:01.000Z</time>
      </trkpt>
      <trkpt lat="43.61097" lon="6.8553">
        <ele>101</ele>
        <time>2019-02-07T09:01:02.000Z</time>
      </trkpt>
      <trkpt lat="43.61096" lon="6.85529">
        <ele>102</ele>
        <time>2019-02-07T09:01:03.000Z</time>
      </trkpt>
      <trkpt lat="43.61095" lon="6.85527">
        <ele>102</ele>
        <time>2019-02-07T09:01:04.000Z</time>
      </trkpt>
      <trkpt lat="43.61094" lon="6.85527">
        <ele>101</ele>
        <time>2019-02-07T09:01:05.000Z</time>
      </trkpt>
      <trkpt lat="43.61094" lon="6.85526">
        <ele>101</ele>
        <time>2019-02-07T09:01:06.000Z</time>
      </trkpt>
      <trkpt lat="43.61093" lon="6.85525">
        <ele>100</ele>
        <time>2019-02-07T09:01:07.000Z</time>
      </trkpt>
      <trkpt lat="43.61093" lon="6.85524">
        <ele>100</ele>
        <time>2019-02-07T09:01:08.000Z</time>
      </trkpt>
      <trkpt lat="43.61093" lon="6.85523">
        <ele>100</ele>
        <time>2019-02-07T09:01:09.000Z</time>
      </trkpt>
      <trkpt lat="43.61092" lon="6.85523">
        <ele>100</ele>
        <time>2019-02-07T09:01:10.000Z</time>
      </trkpt>
      <trkpt lat="43.61092" lon="6.85523">
        <ele>99</ele>
        <time>2019-02-07T09:01:11.000Z</time>
      </trkpt>
      <trkpt lat="43.61091" lon="6.85523">
        <ele>99</ele>
        <time>2019-02-07T09:01:12.000Z</time>
      </trkpt>
      <trkpt lat="43.6109" lon="6.85523">
        <ele>98</ele>
        <time>2019-02-07T09:01:13.000Z</time>
      </trkpt>
      <trkpt lat="43.6109" lon="6.85523">
        <ele>98</ele>
        <time>2019-02-07T09:01:14.000Z</time>
      </trkpt>
      <trkpt lat="43.61089" lon="6.85523">
        <ele>97</ele>
        <time>2019-02-07T09:01:15.000Z</time>
      </trkpt>
      <trkpt lat="43.61088" lon="6.85523">
        <ele>97</ele>
        <time>2019-02-07T09:01:16.000Z</time>
      </trkpt>
      <trkpt lat="43.61088" lon="6.85523">
        <ele>96</ele>
        <time>2019-02-07T09:01:17.000Z</time>
      </trkpt>
      <trkpt lat="43.61087" lon="6.85523">
        <ele>96</ele>
        <time>2019-02-07T09:01:18.000Z</time>
      </trkpt>
      <trkpt lat="43.61086" lon="6.85522">
        <ele>95</ele>
        <time>2019-02-07T09:01:19.000Z</time>
      </trkpt>
      <trkpt lat="43.61086" lon="6.85521">
        <ele>95</ele>
        <time>2019-02-07T09:01:20.000Z</time>
      </trkpt>
      <trkpt lat="43.61085" lon="6.85521">
        <ele>94</ele>
        <time>2019-02-07T09:01:21.000Z</time>
      </trkpt>
      <trkpt lat="43.61084" lon="6.85521">
        <ele>94</ele>
        <time>2019-02-07T09:01:22.000Z</time>
      </trkpt>
      <trkpt lat="43.61083" lon="6.85521">
        <ele>94</ele>
        <time>2019-02-07T09:01:23.000Z</time>
      </trkpt>
      <trkpt lat="43.61082" lon="6.85521">
        <ele>94</ele>
        <time>2019-02-07T09:01:24.000Z</time>
      </trkpt>
      <trkpt lat="43.61082" lon="6.85521">
        <ele>94</ele>
        <time>2019-02-07T09:01:25.000Z</time>
      </trkpt>
      <trkpt lat="43.6108" lon="6.8552">
        <ele>93</ele>
        <time>2019-02-07T09:01:26.000Z</time>
      </trkpt>
      <trkpt lat="43.6108" lon="6.8552">
        <ele>93</ele>
        <time>2019-02-07T09:01:27.000Z</time>
      </trkpt>
      <trkpt lat="43.61079" lon="6.8552">
        <ele>93</ele>
        <time>2019-02-07T09:01:28.000Z</time>
      </trkpt>
      <trkpt lat="43.61078" lon="6.8552">
        <ele>92</ele>
        <time>2019-02-07T09:01:29.000Z</time>
      </trkpt>
      <trkpt lat="43.61076" lon="6.8552">
        <ele>92</ele>
        <time>2019-02-07T09:01:30.000Z</time>
      </trkpt>
      <trkpt lat="43.61075" lon="6.85519">
        <ele>91</ele>
        <time>2019-02-07T09:01:31.000Z</time>
      </trkpt>
      <trkpt lat="43.61073" lon="6.85519">
        <ele>91</ele>
        <time>2019-02-07T09:01:32.000Z</time>
      </trkpt>
      <trkpt lat="43.61072" lon="6.85519">
        <ele>90</ele>
        <time>2019-02-07T09:01:33.000Z</time>
      </trkpt>
      <trkpt lat="43.6107" lon="6.85518">
        <ele>89</ele>
        <time>2019-02-07T09:01:34.000Z</time>
      </trkpt>
      <trkpt lat="43.61069" lon="6.85518">
        <ele>88</ele>
        <time>2019-02-07T09:01:35.000Z</time>
      </trkpt>
      <trkpt lat="43.61067" lon="6.85518">
        <ele>88</ele>
        <time>2019-02-07T09:01:36.000Z</time>
      </trkpt>
      <trkpt lat="43.61066" lon="6.85518">
        <ele>88</ele>
        <time>2019-02-07T09:01:37.000Z</time>
      </trkpt>
      <trkpt lat="43.61065" lon="6.85518">
        <ele>87</ele>
        <time>2019-02-07T09:01:38.000Z</time>
      </trkpt>
      <trkpt lat="43.61063" lon="6.85519">
        <ele>87</ele>
        <time>2019-02-07T09:01:39.000Z</time>
      </trkpt>
      <trkpt lat="43.61062" lon="6.8552">
        <ele>87</ele>
        <time>2019-02-07T09:01:40.000Z</time>
      </trkpt>
      <trkpt lat="43.61061" lon="6.85521">
        <ele>86</ele>
        <time>2019-02-07T09:01:41.000Z</time>
      </trkpt>
      <trkpt lat="43.6106" lon="6.85522">
        <ele>85</ele>
        <time>2019-02-07T09:01:42.000Z</time>
      </trkpt>
      <trkpt lat="43.61058" lon="6.85522">
        <ele>85</ele>
        <time>2019-02-07T09:01:43.000Z</time>
      </trkpt>
      <trkpt lat="43.61057" lon="6.85522">
        <ele>84</ele>
        <time>2019-02-07T09:01:44.000Z</time>
      </trkpt>
      <trkpt lat="43.61056" lon="6.85522">
        <ele>84</ele>
        <time>2019-02-07T09:01:45.000Z</time>
      </trkpt>
      <trkpt lat="43.61055" lon="6.85522">
        <ele>84</ele>
        <time>2019-02-07T09:01:46.000Z</time>
      </trkpt>
      <trkpt lat="43.61054" lon="6.85521">
        <ele>83</ele>
        <time>2019-02-07T09:01:47.000Z</time>
      </trkpt>
      <trkpt lat="43.61053" lon="6.85521">
        <ele>83</ele>
        <time>2019-02-07T09:01:48.000Z</time>
      </trkpt>
      <trkpt lat="43.61052" lon="6.85521">
        <ele>82</ele>
        <time>2019-02-07T09:01:49.000Z</time>
      </trkpt>
      <trkpt lat="43.61051" lon="6.85521">
        <ele>82</ele>
        <time>2019-02-07T09:01:50.000Z</time>
      </trkpt>
      <trkpt lat="43.6105" lon="6.85521">
        <ele>81</ele>
        <time>2019-02-07T09:01:51.000Z</time>
      </trkpt>
      <trkpt lat="43.61049" lon="6.85521">
        <ele>81</ele>
        <time>2019-02-07T09:01:52.000Z</time>
      </trkpt>
      <trkpt lat="43.61047" lon="6.85521">
        <ele>81</ele>
        <time>2019-02-07T09:01:53.000Z</time>
      </trkpt>
      <trkpt lat="43.61046" lon="6.8552">
        <ele>80</ele>
        <time>2019-02-07T09:01:54.000Z</time>
      </trkpt>
      <trkpt lat="43.61045" lon="6.8552">
        <ele>80</ele>
        <time>2019-02-07T09:01:55.000Z</time>
      </trkpt>
      <trkpt lat="43.61044" lon="6.8552">
        <ele>79</ele>
        <time>2019-02-07T09:01:56.000Z</time>
      </trkpt>
      <trkpt lat="43.61043" lon="6.8552">
        <ele>79</ele>
        <time>2019-02-07T09:01:57.000Z</time>
      </trkpt>
      <trkpt lat="43.61042" lon="6.85521">
        <ele>79</ele>
        <time>2019-02-07T09:01:58.000Z</time>
      </trkpt>
      <trkpt lat="43.6104" lon="6.85522">
        <ele>78</ele>
        <time>2019-02-07T09:01:59.000Z</time>
      </trkpt>
      <trkpt lat="43.61039" lon="6.85522">
        <ele>78</ele>
        <time>2019-02-07T09:02:00.000Z</time>
      </trkpt>
      <trkpt lat="43.61037" lon="6.85521">
        <ele>78</ele>
        <time>2019-02-07T09:02:01.000Z</time>
      </trkpt>
      <trkpt lat="43.61036" lon="6.8552">
        <ele>77</ele>
        <time>2019-02-07T09:02:02.000Z</time>
      </trkpt>
      <trkpt lat="43.61035" lon="6.8552">
        <ele>77</ele>
        <time>2019-02-07T09:02:03.000Z</time>
      </trkpt>
      <trkpt lat="43.61033" lon="6.8552">
        <ele>76</ele>
        <time>2019-02-07T09:02:04.000Z</time>
      </trkpt>
      <trkpt lat="43.61032" lon="6.8552">
        <ele>75</ele>
        <time>2019-02-07T09:02:05.000Z</time>
      </trkpt>
      <trkpt lat="43.6103" lon="6.85521">
        <ele>74</ele>
        <time>2019-02-07T09:02:06.000Z</time>
      </trkpt>
      <trkpt lat="43.61029" lon="6.85522">
        <ele>74</ele>
        <time>2019-02-07T09:02:07.000Z</time>
      </trkpt>
      <trkpt lat="43.61027" lon="6.85524">
        <ele>73</ele>
        <time>2019-02-07T09:02:08.000Z</time>
      </trkpt>
      <trkpt lat="43.61026" lon="6.85525">
        <ele>73</ele>
        <time>2019-02-07T09:02:09.000Z</time>
      </trkpt>
      <trkpt lat="43.61024" lon="6.85526">
        <ele>73</ele>
        <time>2019-02-07T09:02:10.000Z</time>
      </trkpt>
      <trkpt lat="43.61023" lon="6.85526">
        <ele>72</ele>
        <time>2019-02-07T09:02:11.000Z</time>
      </trkpt>
      <trkpt lat="43.61022" lon="6.85525">
        <ele>72</ele>
        <time>2019-02-07T09:02:12.000Z</time>
      </trkpt>
      <trkpt lat="43.61021" lon="6.85525">
        <ele>72</ele>
        <time>2019-02-07T09:02:13.000Z</time>
      </trkpt>
      <trkpt lat="43.61019" lon="6.85525">
        <ele>72</ele>
        <time>2019-02-07T09:02:14.000Z</time>
      </trkpt>
      <trkpt lat="43.61018" lon="6.85526">
        <ele>72</ele>
        <time>2019-02-07T09:02:15.000Z</time>
      </trkpt>
      <trkpt lat="43.61017" lon="6.85527">
        <ele>72</ele>
        <time>2019-02-07T09:02:16.000Z</time>
      </trkpt>
      <trkpt lat="43.61017" lon="6.85528">
        <ele>71</ele>
        <time>2019-02-07T09:02:17.000Z</time>
      </trkpt>
      <trkpt lat="43.61016" lon="6.85529">
        <ele>71</ele>
        <time>2019-02-07T09:02:18.000Z</time>
      </trkpt>
      <trkpt lat="43.61015" lon="6.85531">
        <ele>70</ele>
        <time>2019-02-07T09:02:19.000Z</time>
      </trkpt>
      <trkpt lat="43.61014" lon="6.85533">
        <ele>69</ele>
        <time>2019-02-07T09:02:20.000Z</time>
      </trkpt>
      <trkpt lat="43.61013" lon="6.85534">
        <ele>69</ele>
        <time>2019-02-07T09:02:21.000Z</time>
      </trkpt>
      <trkpt lat="43.61012" lon="6.85535">
        <ele>68</ele>
        <time>2019-02-07T09:02:22.000Z</time>
      </trkpt>
      <trkpt lat="43.61011" lon="6.85536">
        <ele>68</ele>
        <time>2019-02-07T09:02:23.000Z</time>
      </trkpt>
      <trkpt lat="43.6101" lon="6.85537">
        <ele>67</ele>
        <time>2019-02-07T09:02:24.000Z</time>
      </trkpt>
      <trkpt lat="43.61009" lon="6.85539">
        <ele>67</ele>
        <time>2019-02-07T09:02:25.000Z</time>
      </trkpt>
      <trkpt lat="43.61008" lon="6.8554">
        <ele>66</ele>
        <time>2019-02-07T09:02:26.000Z</time>
      </trkpt>
      <trkpt lat="43.61007" lon="6.85541">
        <ele>66</ele>
        <time>2019-02-07T09:02:27.000Z</time>
      </trkpt>
      <trkpt lat="43.61006" lon="6.85542">
        <ele>65</ele>
        <time>2019-02-07T09:02:28.000Z</time>
      </trkpt>
      <trkpt lat="43.61005" lon="6.85544">
        <ele>65</ele>
        <time>2019-02-07T09:02:29.000Z</time>
      </trkpt>
      <trkpt lat="43.61004" lon="6.85546">
        <ele>64</ele>
        <time>2019-02-07T09:02:30.000Z</time>
      </trkpt>
      <trkpt lat="43.61003" lon="6.85547">
        <ele>63</ele>
        <time>2019-02-07T09:02:31.000Z</time>
      </trkpt>
      <trkpt lat="43.61002" lon="6.8555">
        <ele>63</ele>
        <time>2019-02-07T09:02:32.000Z</time>
      </trkpt>
      <trkpt lat="43.61002" lon="6.85552">
        <ele>63</ele>
        <time>2019-02-07T09:02:33.000Z</time>
      </trkpt>
      <trkpt lat="43.61001" lon="6.85554">
        <ele>62</ele>
        <time>2019-02-07T09:02:34.000Z</time>
      </trkpt>
      <trkpt lat="43.61001" lon="6.85556">
        <ele>62</ele>
        <time>2019-02-07T09:02:35.000Z</time>
      </trkpt>
      <trkpt lat="43.61002" lon="6.85558">
        <ele>62</ele>
        <time>2019-02-07T09:02:36.000Z</time>
      </trkpt>
      <trkpt lat="43.61001" lon="6.85561">
        <ele>62</ele>
        <time>2019-02-07T09:02:37.000Z</time>
      </trkpt>
      <trkpt lat="43.61001" lon="6.85563">
        <ele>62</ele>
        <time>2019-02-07T09:02:38.000Z</time>
      </trkpt>
      <trkpt lat="43.61002" lon="6.85565">
        <ele>61</ele>
        <time>2019-02-07T09:02:39.000Z</time>
      </trkpt>
      <trkpt lat="43.61002" lon="6.85568">
        <ele>61</ele>
        <time>2019-02-07T09:02:40.000Z</time>
      </trkpt>
      <trkpt lat="43.61003" lon="6.8557">
        <ele>60</ele>
        <time>2019-02-07T09:02:41.000Z</time>
      </trkpt>
      <trkpt lat="43.61004" lon="6.85573">
        <ele>60</ele>
        <time>2019-02-07T09:02:42.000Z</time>
      </trkpt>
      <trkpt lat="43.61005" lon="6.85575">
        <ele>60</ele>
        <time>2019-02-07T09:02:43.000Z</time>
      </trkpt>
      <trkpt lat="43.61006" lon="6.85576">
        <ele>59</ele>
        <time>2019-02-07T09:02:44.000Z</time>
      </trkpt>
      <trkpt lat="43.61006" lon="6.85578">
        <ele>59</ele>
        <time>2019-02-07T09:02:45.000Z</time>
      </trkpt>
      <trkpt lat="43.61007" lon="6.8558">
        <ele>58</ele>
        <time>2019-02-07T09:02:46.000Z</time>
      </trkpt>
      <trkpt lat="43.61008" lon="6.85582">
        <ele>58</ele>
        <time>2019-02-07T09:02:47.000Z</time>
      </trkpt>
      <trkpt lat="43.61008" lon="6.85583">
        <ele>57</ele>
        <time>2019-02-07T09:02:48.000Z</time>
      </trkpt>
      <trkpt lat="43.61009" lon="6.85584">
        <ele>57</ele>
        <time>2019-02-07T09:02:49.000Z</time>
      </trkpt>
      <trkpt lat="43.6101" lon="6.85586">
        <ele>57</ele>
        <time>2019-02-07T09:02:50.000Z</time>
      </trkpt>
      <trkpt lat="43.61011" lon="6.85588">
        <ele>56</ele>
        <time>2019-02-07T09:02:51.000Z</time>
      </trkpt>
      <trkpt lat="43.61012" lon="6.8559">
        <ele>56</ele>
        <time>2019-02-07T09:02:52.000Z</time>
      </trkpt>
      <trkpt lat="43.61013" lon="6.85592">
        <ele>55</ele>
        <time>2019-02-07T09:02:53.000Z</time>
      </trkpt>
      <trkpt lat="43.61014" lon="6.85593">
        <ele>55</ele>
        <time>2019-02-07T09:02:54.000Z</time>
      </trkpt>
      <trkpt lat="43.61015" lon="6.85595">
        <ele>55</ele>
        <time>2019-02-07T09:02:55.000Z</time>
      </trkpt>
      <trkpt lat="43.61016" lon="6.85596">
        <ele>54</ele>
        <time>2019-02-07T09:02:56.000Z</time>
      </trkpt>
      <trkpt lat="43.61017" lon="6.85598">
        <ele>54</ele>
        <time>2019-02-07T09:02:57.000Z</time>
      </trkpt>
      <trkpt lat="43.61019" lon="6.85599">
        <ele>53</ele>
        <time>2019-02-07T09:02:58.000Z</time>
      </trkpt>
      <trkpt lat="43.61021" lon="6.85601">
        <ele>53</ele>
        <time>2019-02-07T09:02:59.000Z</time>
      </trkpt>
      <trkpt lat="43.61023" lon="6.85602">
        <ele>53</ele>
        <time>2019-02-07T09:03:00.000Z</time>
      </trkpt>
      <trkpt lat="43.61024" lon="6.85603">
        <ele>53</ele>
        <time>2019-02-07T09:03:01.000Z</time>
      </trkpt>
      <trkpt lat="43.61025" lon="6.85604">
        <ele>53</ele>
        <time>2019-02-07T09:03:02.000Z</time>
      </trkpt>
      <trkpt lat="43.61026" lon="6.85606">
        <ele>55</ele>
        <time>2019-02-07T09:03:03.000Z</time>
      </trkpt>
      <trkpt lat="43.61027" lon="6.85608">
        <ele>55</ele>
        <time>2019-02-07T09:03:04.000Z</time>
      </trkpt>
      <trkpt lat="43.61027" lon="6.8561">
        <ele>54</ele>
        <time>2019-02-07T09:03:05.000Z</time>
      </trkpt>
      <trkpt lat="43.61026" lon="6.85612">
        <ele>54</ele>
        <time>2019-02-07T09:03:06.000Z</time>
      </trkpt>
      <trkpt lat="43.61026" lon="6.85613">
        <ele>53</ele>
        <time>2019-02-07T09:03:07.000Z</time>
      </trkpt>
      <trkpt lat="43.61025" lon="6.85614">
        <ele>53</ele>
        <time>2019-02-07T09:03:08.000Z</time>
      </trkpt>
      <trkpt lat="43.61024" lon="6.85615">
        <ele>53</ele>
        <time>2019-02-07T09:03:09.000Z</time>
      </trkpt>
      <trkpt lat="43.61022" lon="6.85615">
        <ele>52</ele>
        <time>2019-02-07T09:03:10.000Z</time>
      </trkpt>
      <trkpt lat="43.61021" lon="6.85615">
        <ele>52</ele>
        <time>2019-02-07T09:03:11.000Z</time>
      </trkpt>
      <trkpt lat="43.6102" lon="6.85616">
        <ele>53</ele>
        <time>2019-02-07T09:03:12.000Z</time>
      </trkpt>
      <trkpt lat="43.61019" lon="6.85617">
        <ele>53</ele>
        <time>2019-02-07T09:03:13.000Z</time>
      </trkpt>
      <trkpt lat="43.61018" lon="6.85618">
        <ele>53</ele>
        <time>2019-02-07T09:03:14.000Z</time>
      </trkpt>
      <trkpt lat="43.61017" lon="6.85618">
        <ele>54</ele>
        <time>2019-02-07T09:03:15.000Z</time>
      </trkpt>
      <trkpt lat="43.61016" lon="6.85619">
        <ele>54</ele>
        <time>2019-02-07T09:03:16.000Z</time>
      </trkpt>
      <trkpt lat="43.61015" lon="6.8562">
        <ele>54</ele>
        <time>2019-02-07T09:03:17.000Z</time>
      </trkpt>
      <trkpt lat="43.61014" lon="6.85621">
        <ele>54</ele>
        <time>2019-02-07T09:03:18.000Z</time>
      </trkpt>
      <trkpt lat="43.61013" lon="6.85622">
        <ele>53</ele>
        <time>2019-02-07T09:03:19.000Z</time>
      </trkpt>
      <trkpt lat="43.61012" lon="6.85622">
        <ele>53</ele>
        <time>2019-02-07T09:03:20.000Z</time>
      </trkpt>
      <trkpt lat="43.6101" lon="6.85623">
        <ele>54</ele>
        <time>2019-02-07T09:03:21.000Z</time>
      </trkpt>
      <trkpt lat="43.61008" lon="6.85624">
        <ele>54</ele>
        <time>2019-02-07T09:03:22.000Z</time>
      </trkpt>
      <trkpt lat="43.61006" lon="6.85625">
        <ele>54</ele>
        <time>2019-02-07T09:03:23.000Z</time>
      </trkpt>
      <trkpt lat="43.61004" lon="6.85626">
        <ele>53</ele>
        <time>2019-02-07T09:03:24.000Z</time>
      </trkpt>
      <trkpt lat="43.61002" lon="6.85627">
        <ele>53</ele>
        <time>2019-02-07T09:03:25.000Z</time>
      </trkpt>
      <trkpt lat="43.61" lon="6.85629">
        <ele>53</ele>
        <time>2019-02-07T09:03:26.000Z</time>
      </trkpt>
      <trkpt lat="43.60998" lon="6.8563">
        <ele>53</ele>
        <time>2019-02-07T09:03:27.000Z</time>
      </trkpt>
      <trkpt lat="43.60996" lon="6.8563">
        <ele>54</ele>
        <time>2019-02-07T09:03:28.000Z</time>
      </trkpt>
      <trkpt lat="43.60993" lon="6.85631">
        <ele>54</ele>
        <time>2019-02-07T09:03:29.000Z</time>
      </trkpt>
      <trkpt lat="43.60992" lon="6.85631">
        <ele>54</ele>
        <time>2019-02-07T09:03:30.000Z</time>
      </trkpt>
      <trkpt lat="43.6099" lon="6.85632">
        <ele>54</ele>
        <time>2019-02-07T09:03:31.000Z</time>
      </trkpt>
      <trkpt lat="43.60987" lon="6.85633">
        <ele>54</ele>
        <time>2019-02-07T09:03:32.000Z</time>
      </trkpt>
      <trkpt lat="43.60985" lon="6.85634">
        <ele>54</ele>
        <time>2019-02-07T09:03:33.000Z</time>
      </trkpt>
      <trkpt lat="43.60982" lon="6.85636">
        <ele>53</ele>
        <time>2019-02-07T09:03:34.000Z</time>
      </trkpt>
      <trkpt lat="43.60979" lon="6.85637">
        <ele>53</ele>
        <time>2019-02-07T09:03:35.000Z</time>
      </trkpt>
      <trkpt lat="43.60976" lon="6.85639">
        <ele>53</ele>
        <time>2019-02-07T09:03:36.000Z</time>
      </trkpt>
      <trkpt lat="43.60974" lon="6.8564">
        <ele>52</ele>
        <time>2019-02-07T09:03:37.000Z</time>
      </trkpt>
      <trkpt lat="43.60972" lon="6.85641">
        <ele>52</ele>
        <time>2019-02-07T09:03:38.000Z</time>
      </trkpt>
      <trkpt lat="43.6097" lon="6.85642">
        <ele>51</ele>
        <time>2019-02-07T09:03:39.000Z</time>
      </trkpt>
      <trkpt lat="43.60968" lon="6.85642">
        <ele>52</ele>
        <time>2019-02-07T09:03:40.000Z</time>
      </trkpt>
      <trkpt lat="43.60966" lon="6.85643">
        <ele>52</ele>
        <time>2019-02-07T09:03:41.000Z</time>
      </trkpt>
      <trkpt lat="43.60964" lon="6.85644">
        <ele>52</ele>
        <time>2019-02-07T09:03:42.000Z</time>
      </trkpt>
      <trkpt lat="43.60962" lon="6.85644">
        <ele>52</ele>
        <time>2019-02-07T09:03:43.000Z</time>
      </trkpt>
      <trkpt lat="43.6096" lon="6.85645">
        <ele>53</ele>
        <time>2019-02-07T09:03:44.000Z</time>
      </trkpt>
      <trkpt lat="43.60958" lon="6.85646">
        <ele>54</ele>
        <time>2019-02-07T09:03:45.000Z</time>
      </trkpt>
      <trkpt lat="43.60956" lon="6.85646">
        <ele>53</ele>
        <time>2019-02-07T09:03:46.000Z</time>
      </trkpt>
      <trkpt lat="43.60954" lon="6.85645">
        <ele>54</ele>
        <time>2019-02-07T09:03:47.000Z</time>
      </trkpt>
      <trkpt lat="43.60952" lon="6.85645">
        <ele>54</ele>
        <time>2019-02-07T09:03:48.000Z</time>
      </trkpt>
      <trkpt lat="43.60949" lon="6.85645">
        <ele>54</ele>
        <time>2019-02-07T09:03:49.000Z</time>
      </trkpt>
      <trkpt lat="43.60947" lon="6.85645">
        <ele>53</ele>
        <time>2019-02-07T09:03:50.000Z</time>
      </trkpt>
      <trkpt lat="43.60944" lon="6.85644">
        <ele>54</ele>
        <time>2019-02-07T09:03:51.000Z</time>
      </trkpt>
      <trkpt lat="43.60942" lon="6.85642">
        <ele>53</ele>
        <time>2019-02-07T09:03:52.000Z</time>
      </trkpt>
      <trkpt lat="43.60941" lon="6.8564">
        <ele>53</ele>
        <time>2019-02-07T09:03:53.000Z</time>
      </trkpt>
      <trkpt lat="43.60939" lon="6.85638">
        <ele>54</ele>
        <time>2019-02-07T09:03:54.000Z</time>
      </trkpt>
      <trkpt lat="43.60938" lon="6.85636">
        <ele>54</ele>
        <time>2019-02-07T09:03:55.000Z</time>
      </trkpt>
      <trkpt lat="43.60937" lon="6.85634">
        <ele>53</ele>
        <time>2019-02-07T09:03:56.000Z</time>
      </trkpt>
      <trkpt lat="43.60936" lon="6.85632">
        <ele>54</ele>
        <time>2019-02-07T09:03:57.000Z</time>
      </trkpt>
      <trkpt lat="43.60934" lon="6.8563">
        <ele>54</ele>
        <time>2019-02-07T09:03:58.000Z</time>
      </trkpt>
      <trkpt lat="43.60933" lon="6.85628">
        <ele>53</ele>
        <time>2019-02-07T09:03:59.000Z</time>
      </trkpt>
      <trkpt lat="43.60932" lon="6.85625">
        <ele>54</ele>
        <time>2019-02-07T09:04:00.000Z</time>
      </trkpt>
      <trkpt lat="43.60932" lon="6.85623">
        <ele>54</ele>
        <time>2019-02-07T09:04:01.000Z</time>
      </trkpt>
      <trkpt lat="43.60931" lon="6.85621">
        <ele>54</ele>
        <time>2019-02-07T09:04:02.000Z</time>
      </trkpt>
      <trkpt lat="43.60931" lon="6.85618">
        <ele>54</ele>
        <time>2019-02-07T09:04:03.000Z</time>
      </trkpt>
      <trkpt lat="43.6093" lon="6.85616">
        <ele>54</ele>
        <time>2019-02-07T09:04:04.000Z</time>
      </trkpt>
      <trkpt lat="43.6093" lon="6.85614">
        <ele>54</ele>
        <time>2019-02-07T09:04:05.000Z</time>
      </trkpt>
      <trkpt lat="43.60929" lon="6.85611">
        <ele>54</ele>
        <time>2019-02-07T09:04:06.000Z</time>
      </trkpt>
      <trkpt lat="43.60929" lon="6.85608">
        <ele>54</ele>
        <time>2019-02-07T09:04:07.000Z</time>
      </trkpt>
      <trkpt lat="43.60929" lon="6.85606">
        <ele>53</ele>
        <time>2019-02-07T09:04:08.000Z</time>
      </trkpt>
      <trkpt lat="43.6093" lon="6.85604">
        <ele>53</ele>
        <time>2019-02-07T09:04:09.000Z</time>
      </trkpt>
      <trkpt lat="43.6093" lon="6.85602">
        <ele>52</ele>
        <time>2019-02-07T09:04:10.000Z</time>
      </trkpt>
      <trkpt lat="43.6093" lon="6.856">
        <ele>51</ele>
        <time>2019-02-07T09:04:11.000Z</time>
      </trkpt>
      <trkpt lat="43.6093" lon="6.85598">
        <ele>51</ele>
        <time>2019-02-07T09:04:12.000Z</time>
      </trkpt>
      <trkpt lat="43.60931" lon="6.85595">
        <ele>51</ele>
        <time>2019-02-07T09:04:13.000Z</time>
      </trkpt>
      <trkpt lat="43.60931" lon="6.85593">
        <ele>51</ele>
        <time>2019-02-07T09:04:14.000Z</time>
      </trkpt>
      <trkpt lat="43.60931" lon="6.8559">
        <ele>52</ele>
        <time>2019-02-07T09:04:15.000Z</time>
      </trkpt>
      <trkpt lat="43.60931" lon="6.85587">
        <ele>51</ele>
        <time>2019-02-07T09:04:16.000Z</time>
      </trkpt>
      <trkpt lat="43.60931" lon="6.85584">
        <ele>51</ele>
        <time>2019-02-07T09:04:17.000Z</time>
      </trkpt>
      <trkpt lat="43.60931" lon="6.85582">
        <ele>51</ele>
        <time>2019-02-07T09:04:18.000Z</time>
      </trkpt>
      <trkpt lat="43.60931" lon="6.85579">
        <ele>51</ele>
        <time>2019-02-07T09:04:19.000Z</time>
      </trkpt>
      <trkpt lat="43.60931" lon="6.85577">
        <ele>51</ele>
        <time>2019-02-07T09:04:20.000Z</time>
      </trkpt>
      <trkpt lat="43.60931" lon="6.85574">
        <ele>50</ele>
        <time>2019-02-07T09:04:21.000Z</time>
      </trkpt>
      <trkpt lat="43.60931" lon="6.85572">
        <ele>49</ele>
        <time>2019-02-07T09:04:22.000Z</time>
      </trkpt>
      <trkpt lat="43.60931" lon="6.8557">
        <ele>49</ele>
        <time>2019-02-07T09:04:23.000Z</time>
      </trkpt>
      <trkpt lat="43.60931" lon="6.85568">
        <ele>49</ele>
        <time>2019-02-07T09:04:24.000Z</time>
      </trkpt>
      <trkpt lat="43.60931" lon="6.85566">
        <ele>49</ele>
        <time>2019-02-07T09:04:25.000Z</time>
      </trkpt>
      <trkpt lat="43.6093" lon="6.85565">
        <ele>48</ele>
        <time>2019-02-07T09:04:26.000Z</time>
      </trkpt>
      <trkpt lat="43.60931" lon="6.85563">
        <ele>48</ele>
        <time>2019-02-07T09:04:27.000Z</time>
      </trkpt>
      <trkpt lat="43.60931" lon="6.85561">
        <ele>47</ele>
        <time>2019-02-07T09:04:28.000Z</time>
      </trkpt>
      <trkpt lat="43.60931" lon="6.8556">
        <ele>48</ele>
        <time>2019-02-07T09:04:29.000Z</time>
      </trkpt>
      <trkpt lat="43.60932" lon="6.85558">
        <ele>47</ele>
        <time>2019-02-07T09:04:30.000Z</time>
      </trkpt>
      <trkpt lat="43.60932" lon="6.85556">
        <ele>46</ele>
        <time>2019-02-07T09:04:31.000Z</time>
      </trkpt>
      <trkpt lat="43.60933" lon="6.85554">
        <ele>46</ele>
        <time>2019-02-07T09:04:32.000Z</time>
      </trkpt>
      <trkpt lat="43.60934" lon="6.85552">
        <ele>46</ele>
        <time>2019-02-07T09:04:33.000Z</time>
      </trkpt>
      <trkpt lat="43.60935" lon="6.8555">
        <ele>46</ele>
        <time>2019-02-07T09:04:34.000Z</time>
      </trkpt>
      <trkpt lat="43.60936" lon="6.85549">
        <ele>46</ele>
        <time>2019-02-07T09:04:35.000Z</time>
      </trkpt>
      <trkpt lat="43.60937" lon="6.85547">
        <ele>46</ele>
        <time>2019-02-07T09:04:36.000Z</time>
      </trkpt>
      <trkpt lat="43.60938" lon="6.85546">
        <ele>45</ele>
        <time>2019-02-07T09:04:37.000Z</time>
      </trkpt>
      <trkpt lat="43.60939" lon="6.85544">
        <ele>45</ele>
        <time>2019-02-07T09:04:38.000Z</time>
      </trkpt>
      <trkpt lat="43.60941" lon="6.85542">
        <ele>44</ele>
        <time>2019-02-07T09:04:39.000Z</time>
      </trkpt>
      <trkpt lat="43.60942" lon="6.8554">
        <ele>44</ele>
        <time>2019-02-07T09:04:40.000Z</time>
      </trkpt>
      <trkpt lat="43.60943" lon="6.85538">
        <ele>43</ele>
        <time>2019-02-07T09:04:41.000Z</time>
      </trkpt>
      <trkpt lat="43.60944" lon="6.85537">
        <ele>44</ele>
        <time>2019-02-07T09:04:42.000Z</time>
      </trkpt>
      <trkpt lat="43.60945" lon="6.85534">
        <ele>45</ele>
        <time>2019-02-07T09:04:43.000Z</time>
      </trkpt>
      <trkpt lat="43.60945" lon="6.85532">
        <ele>45</ele>
        <time>2019-02-07T09:04:44.000Z</time>
      </trkpt>
      <trkpt lat="43.60946" lon="6.8553">
        <ele>45</ele>
        <time>2019-02-07T09:04:45.000Z</time>
      </trkpt>
      <trkpt lat="43.60947" lon="6.85527">
        <ele>45</ele>
        <time>2019-02-07T09:04:46.000Z</time>
      </trkpt>
      <trkpt lat="43.60947" lon="6.85525">
        <ele>45</ele>
        <time>2019-02-07T09:04:47.000Z</time>
      </trkpt>
      <trkpt lat="43.60948" lon="6.85523">
        <ele>45</ele>
        <time>2019-02-07T09:04:48.000Z</time>
      </trkpt>
      <trkpt lat="43.6095" lon="6.8552">
        <ele>44</ele>
        <time>2019-02-07T09:04:49.000Z</time>
      </trkpt>
      <trkpt lat="43.60951" lon="6.85517">
        <ele>43</ele>
        <time>2019-02-07T09:04:50.000Z</time>
      </trkpt>
      <trkpt lat="43.60951" lon="6.85514">
        <ele>43</ele>
        <time>2019-02-07T09:04:51.000Z</time>
      </trkpt>
      <trkpt lat="43.60952" lon="6.85512">
        <ele>43</ele>
        <time>2019-02-07T09:04:52.000Z</time>
      </trkpt>
      <trkpt lat="43.60952" lon="6.85509">
        <ele>43</ele>
        <time>2019-02-07T09:04:53.000Z</time>
      </trkpt>
      <trkpt lat="43.60953" lon="6.85507">
        <ele>43</ele>
        <time>2019-02-07T09:04:54.000Z</time>
      </trkpt>
      <trkpt lat="43.60954" lon="6.85504">
        <ele>42</ele>
        <time>2019-02-07T09:04:55.000Z</time>
      </trkpt>
      <trkpt lat="43.60955" lon="6.85502">
        <ele>42</ele>
        <time>2019-02-07T09:04:56.000Z</time>
      </trkpt>
      <trkpt lat="43.60956" lon="6.85499">
        <ele>43</ele>
        <time>2019-02-07T09:04:57.000Z</time>
      </trkpt>
      <trkpt lat="43.60957" lon="6.85496">
        <ele>43</ele>
        <time>2019-02-07T09:04:58.000Z</time>
      </trkpt>
      <trkpt lat="43.60958" lon="6.85494">
        <ele>43</ele>
        <time>2019-02-07T09:04:59.000Z</time>
      </trkpt>
      <trkpt lat="43.60959" lon="6.85491">
        <ele>42</ele>
        <time>2019-02-07T09:05:00.000Z</time>
      </trkpt>
      <trkpt lat="43.6096" lon="6.85489">
        <ele>42</ele>
        <time>2019-02-07T09:05:01.000Z</time>
      </trkpt>
      <trkpt lat="43.60961" lon="6.85486">
        <ele>41</ele>
        <time>2019-02-07T09:05:02.000Z</time>
      </trkpt>
      <trkpt lat="43.60962" lon="6.85483">
        <ele>40</ele>
        <time>2019-02-07T09:05:03.000Z</time>
      </trkpt>
      <trkpt lat="43.60963" lon="6.85481">
        <ele>42</ele>
        <time>2019-02-07T09:05:04.000Z</time>
      </trkpt>
      <trkpt lat="43.60964" lon="6.85478">
        <ele>43</ele>
        <time>2019-02-07T09:05:05.000Z</time>
      </trkpt>
      <trkpt lat="43.60965" lon="6.85476">
        <ele>44</ele>
        <time>2019-02-07T09:05:06.000Z</time>
      </trkpt>
      <trkpt lat="43.60966" lon="6.85473">
        <ele>42</ele>
        <time>2019-02-07T09:05:07.000Z</time>
      </trkpt>
      <trkpt lat="43.60966" lon="6.85471">
        <ele>41</ele>
        <time>2019-02-07T09:05:08.000Z</time>
      </trkpt>
      <trkpt lat="43.60967" lon="6.85469">
        <ele>41</ele>
        <time>2019-02-07T09:05:09.000Z</time>
      </trkpt>
      <trkpt lat="43.60968" lon="6.85466">
        <ele>41</ele>
        <time>2019-02-07T09:05:10.000Z</time>
      </trkpt>
      <trkpt lat="43.60969" lon="6.85464">
        <ele>41</ele>
        <time>2019-02-07T09:05:11.000Z</time>
      </trkpt>
      <trkpt lat="43.60969" lon="6.85462">
        <ele>40</ele>
        <time>2019-02-07T09:05:12.000Z</time>
      </trkpt>
      <trkpt lat="43.6097" lon="6.8546">
        <ele>40</ele>
        <time>2019-02-07T09:05:13.000Z</time>
      </trkpt>
      <trkpt lat="43.6097" lon="6.85456">
        <ele>41</ele>
        <time>2019-02-07T09:05:14.000Z</time>
      </trkpt>
      <trkpt lat="43.60971" lon="6.85453">
        <ele>40</ele>
        <time>2019-02-07T09:05:15.000Z</time>
      </trkpt>
      <trkpt lat="43.60971" lon="6.8545">
        <ele>39</ele>
        <time>2019-02-07T09:05:16.000Z</time>
      </trkpt>
      <trkpt lat="43.60971" lon="6.85448">
        <ele>39</ele>
        <time>2019-02-07T09:05:17.000Z</time>
      </trkpt>
      <trkpt lat="43.60971" lon="6.85445">
        <ele>38</ele>
        <time>2019-02-07T09:05:18.000Z</time>
      </trkpt>
      <trkpt lat="43.60971" lon="6.85442">
        <ele>37</ele>
        <time>2019-02-07T09:05:19.000Z</time>
      </trkpt>
      <trkpt lat="43.60971" lon="6.85438">
        <ele>37</ele>
        <time>2019-02-07T09:05:20.000Z</time>
      </trkpt>
      <trkpt lat="43.60971" lon="6.85435">
        <ele>37</ele>
        <time>2019-02-07T09:05:21.000Z</time>
      </trkpt>
      <trkpt lat="43.60972" lon="6.85433">
        <ele>37</ele>
        <time>2019-02-07T09:05:22.000Z</time>
      </trkpt>
      <trkpt lat="43.60972" lon="6.8543">
        <ele>37</ele>
        <time>2019-02-07T09:05:23.000Z</time>
      </trkpt>
      <trkpt lat="43.60972" lon="6.85428">
        <ele>38</ele>
        <time>2019-02-07T09:05:24.000Z</time>
      </trkpt>
      <trkpt lat="43.60972" lon="6.85425">
        <ele>38</ele>
        <time>2019-02-07T09:05:25.000Z</time>
      </trkpt>
      <trkpt lat="43.60972" lon="6.85422">
        <ele>38</ele>
        <time>2019-02-07T09:05:26.000Z</time>
      </trkpt>
      <trkpt lat="43.60973" lon="6.8542">
        <ele>38</ele>
        <time>2019-02-07T09:05:27.000Z</time>
      </trkpt>
      <trkpt lat="43.60973" lon="6.85417">
        <ele>38</ele>
        <time>2019-02-07T09:05:28.000Z</time>
      </trkpt>
      <trkpt lat="43.60973" lon="6.85415">
        <ele>39</ele>
        <time>2019-02-07T09:05:29.000Z</time>
      </trkpt>
      <trkpt lat="43.60973" lon="6.85413">
        <ele>39</ele>
        <time>2019-02-07T09:05:30.000Z</time>
      </trkpt>
      <trkpt lat="43.60973" lon="6.8541">
        <ele>38</ele>
        <time>2019-02-07T09:05:31.000Z</time>
      </trkpt>
      <trkpt lat="43.60973" lon="6.85408">
        <ele>39</ele>
        <time>2019-02-07T09:05:32.000Z</time>
      </trkpt>
      <trkpt lat="43.60973" lon="6.85406">
        <ele>38</ele>
        <time>2019-02-07T09:05:33.000Z</time>
      </trkpt>
      <trkpt lat="43.60973" lon="6.85403">
        <ele>39</ele>
        <time>2019-02-07T09:05:34.000Z</time>
      </trkpt>
      <trkpt lat="43.60972" lon="6.854">
        <ele>39</ele>
        <time>2019-02-07T09:05:35.000Z</time>
      </trkpt>
      <trkpt lat="43.60972" lon="6.85396">
        <ele>40</ele>
        <time>2019-02-07T09:05:36.000Z</time>
      </trkpt>
      <trkpt lat="43.60972" lon="6.85393">
        <ele>41</ele>
        <time>2019-02-07T09:05:37.000Z</time>
      </trkpt>
      <trkpt lat="43.60972" lon="6.8539">
        <ele>40</ele>
        <time>2019-02-07T09:05:38.000Z</time>
      </trkpt>
      <trkpt lat="43.60972" lon="6.85387">
        <ele>41</ele>
        <time>2019-02-07T09:05:39.000Z</time>
      </trkpt>
      <trkpt lat="43.60971" lon="6.85384">
        <ele>42</ele>
        <time>2019-02-07T09:05:40.000Z</time>
      </trkpt>
      <trkpt lat="43.60971" lon="6.85381">
        <ele>42</ele>
        <time>2019-02-07T09:05:41.000Z</time>
      </trkpt>
      <trkpt lat="43.60971" lon="6.85378">
        <ele>43</ele>
        <time>2019-02-07T09:05:42.000Z</time>
      </trkpt>
      <trkpt lat="43.6097" lon="6.85375">
        <ele>44</ele>
        <time>2019-02-07T09:05:43.000Z</time>
      </trkpt>
      <trkpt lat="43.60969" lon="6.85371">
        <ele>45</ele>
        <time>2019-02-07T09:05:44.000Z</time>
      </trkpt>
      <trkpt lat="43.60969" lon="6.85368">
        <ele>46</ele>
        <time>2019-02-07T09:05:45.000Z</time>
      </trkpt>
      <trkpt lat="43.60968" lon="6.85364">
        <ele>46</ele>
        <time>2019-02-07T09:05:46.000Z</time>
      </trkpt>
      <trkpt lat="43.60967" lon="6.85361">
        <ele>46</ele>
        <time>2019-02-07T09:05:47.000Z</time>
      </trkpt>
      <trkpt lat="43.60967" lon="6.85357">
        <ele>46</ele>
        <time>2019-02-07T09:05:48.000Z</time>
      </trkpt>
      <trkpt lat="43.60967" lon="6.85353">
        <ele>46</ele>
        <time>2019-02-07T09:05:49.000Z</time>
      </trkpt>
      <trkpt lat="43.60966" lon="6.85351">
        <ele>46</ele>
        <time>2019-02-07T09:05:50.000Z</time>
      </trkpt>
      <trkpt lat="43.60966" lon="6.85348">
        <ele>47</ele>
        <time>2019-02-07T09:05:51.000Z</time>
      </trkpt>
      <trkpt lat="43.60965" lon="6.85345">
        <ele>46</ele>
        <time>2019-02-07T09:05:52.000Z</time>
      </trkpt>
      <trkpt lat="43.60964" lon="6.85343">
        <ele>46</ele>
        <time>2019-02-07T09:05:53.000Z</time>
      </trkpt>
      <trkpt lat="43.60964" lon="6.85339">
        <ele>46</ele>
        <time>2019-02-07T09:05:54.000Z</time>
      </trkpt>
      <trkpt lat="43.60963" lon="6.85336">
        <ele>46</ele>
        <time>2019-02-07T09:05:55.000Z</time>
      </trkpt>
      <trkpt lat="43.60962" lon="6.85332">
        <ele>45</ele>
        <time>2019-02-07T09:05:56.000Z</time>
      </trkpt>
      <trkpt lat="43.60962" lon="6.8533">
        <ele>45</ele>
        <time>2019-02-07T09:05:57.000Z</time>
      </trkpt>
      <trkpt lat="43.60961" lon="6.85328">
        <ele>45</ele>
        <time>2019-02-07T09:05:58.000Z</time>
      </trkpt>
      <trkpt lat="43.60959" lon="6.85326">
        <ele>44</ele>
        <time>2019-02-07T09:05:59.000Z</time>
      </trkpt>
      <trkpt lat="43.60958" lon="6.85324">
        <ele>45</ele>
        <time>2019-02-07T09:06:00.000Z</time>
      </trkpt>
      <trkpt lat="43.60957" lon="6.85322">
        <ele>44</ele>
        <time>2019-02-07T09:06:01.000Z</time>
      </trkpt>
      <trkpt lat="43.60955" lon="6.85319">
        <ele>44</ele>
        <time>2019-02-07T09:06:02.000Z</time>
      </trkpt>
      <trkpt lat="43.60954" lon="6.85317">
        <ele>44</ele>
        <time>2019-02-07T09:06:03.000Z</time>
      </trkpt>
      <trkpt lat="43.60953" lon="6.85315">
        <ele>44</ele>
        <time>2019-02-07T09:06:04.000Z</time>
      </trkpt>
      <trkpt lat="43.60952" lon="6.85312">
        <ele>44</ele>
        <time>2019-02-07T09:06:05.000Z</time>
      </trkpt>
      <trkpt lat="43.60951" lon="6.8531">
        <ele>44</ele>
        <time>2019-02-07T09:06:06.000Z</time>
      </trkpt>
      <trkpt lat="43.60949" lon="6.85308">
        <ele>45</ele>
        <time>2019-02-07T09:06:07.000Z</time>
      </trkpt>
      <trkpt lat="43.60948" lon="6.85306">
        <ele>45</ele>
        <time>2019-02-07T09:06:08.000Z</time>
      </trkpt>
      <trkpt lat="43.60947" lon="6.85304">
        <ele>44</ele>
        <time>2019-02-07T09:06:09.000Z</time>
      </trkpt>
      <trkpt lat="43.60946" lon="6.85301">
        <ele>45</ele>
        <time>2019-02-07T09:06:10.000Z</time>
      </trkpt>
      <trkpt lat="43.60945" lon="6.85299">
        <ele>46</ele>
        <time>2019-02-07T09:06:11.000Z</time>
      </trkpt>
      <trkpt lat="43.60944" lon="6.85297">
        <ele>45</ele>
        <time>2019-02-07T09:06:12.000Z</time>
      </trkpt>
      <trkpt lat="43.60942" lon="6.85295">
        <ele>46</ele>
        <time>2019-02-07T09:06:13.000Z</time>
      </trkpt>
      <trkpt lat="43.6094" lon="6.85292">
        <ele>47</ele>
        <time>2019-02-07T09:06:14.000Z</time>
      </trkpt>
      <trkpt lat="43.60939" lon="6.8529">
        <ele>47</ele>
        <time>2019-02-07T09:06:15.000Z</time>
      </trkpt>
      <trkpt lat="43.60937" lon="6.85288">
        <ele>47</ele>
        <time>2019-02-07T09:06:16.000Z</time>
      </trkpt>
      <trkpt lat="43.60936" lon="6.85287">
        <ele>48</ele>
        <time>2019-02-07T09:06:17.000Z</time>
      </trkpt>
      <trkpt lat="43.60935" lon="6.85285">
        <ele>48</ele>
        <time>2019-02-07T09:06:18.000Z</time>
      </trkpt>
      <trkpt lat="43.60933" lon="6.85284">
        <ele>48</ele>
        <time>2019-02-07T09:06:19.000Z</time>
      </trkpt>
      <trkpt lat="43.60931" lon="6.85283">
        <ele>49</ele>
        <time>2019-02-07T09:06:20.000Z</time>
      </trkpt>
      <trkpt lat="43.60929" lon="6.85282">
        <ele>49</ele>
        <time>2019-02-07T09:06:21.000Z</time>
      </trkpt>
      <trkpt lat="43.60928" lon="6.85281">
        <ele>49</ele>
        <time>2019-02-07T09:06:22.000Z</time>
      </trkpt>
      <trkpt lat="43.60927" lon="6.85281">
        <ele>50</ele>
        <time>2019-02-07T09:06:23.000Z</time>
      </trkpt>
      <trkpt lat="43.60926" lon="6.8528">
        <ele>52</ele>
        <time>2019-02-07T09:06:24.000Z</time>
      </trkpt>
      <trkpt lat="43.60925" lon="6.85279">
        <ele>53</ele>
        <time>2019-02-07T09:06:25.000Z</time>
      </trkpt>
      <trkpt lat="43.60923" lon="6.85278">
        <ele>55</ele>
        <time>2019-02-07T09:06:26.000Z</time>
      </trkpt>
      <trkpt lat="43.60922" lon="6.85278">
        <ele>55</ele>
        <time>2019-02-07T09:06:27.000Z</time>
      </trkpt>
      <trkpt lat="43.60921" lon="6.85277">
        <ele>55</ele>
        <time>2019-02-07T09:06:28.000Z</time>
      </trkpt>
      <trkpt lat="43.60919" lon="6.85277">
        <ele>55</ele>
        <time>2019-02-07T09:06:29.000Z</time>
      </trkpt>
      <trkpt lat="43.60918" lon="6.85276">
        <ele>56</ele>
        <time>2019-02-07T09:06:30.000Z</time>
      </trkpt>
      <trkpt lat="43.60917" lon="6.85275">
        <ele>56</ele>
        <time>2019-02-07T09:06:31.000Z</time>
      </trkpt>
      <trkpt lat="43.60916" lon="6.85275">
        <ele>57</ele>
        <time>2019-02-07T09:06:32.000Z</time>
      </trkpt>
      <trkpt lat="43.60915" lon="6.85275">
        <ele>57</ele>
        <time>2019-02-07T09:06:33.000Z</time>
      </trkpt>
      <trkpt lat="43.60914" lon="6.85274">
        <ele>57</ele>
        <time>2019-02-07T09:06:34.000Z</time>
      </trkpt>
      <trkpt lat="43.60913" lon="6.85274">
        <ele>57</ele>
        <time>2019-02-07T09:06:35.000Z</time>
      </trkpt>
      <trkpt lat="43.60912" lon="6.85273">
        <ele>56</ele>
        <time>2019-02-07T09:06:36.000Z</time>
      </trkpt>
      <trkpt lat="43.60911" lon="6.85273">
        <ele>56</ele>
        <time>2019-02-07T09:06:37.000Z</time>
      </trkpt>
      <trkpt lat="43.6091" lon="6.85272">
        <ele>57</ele>
        <time>2019-02-07T09:06:38.000Z</time>
      </trkpt>
      <trkpt lat="43.60909" lon="6.85271">
        <ele>56</ele>
        <time>2019-02-07T09:06:39.000Z</time>
      </trkpt>
      <trkpt lat="43.60908" lon="6.8527">
        <ele>56</ele>
        <time>2019-02-07T09:06:40.000Z</time>
      </trkpt>
      <trkpt lat="43.60907" lon="6.85269">
        <ele>56</ele>
        <time>2019-02-07T09:06:41.000Z</time>
      </trkpt>
      <trkpt lat="43.60905" lon="6.85269">
        <ele>56</ele>
        <time>2019-02-07T09:06:42.000Z</time>
      </trkpt>
      <trkpt lat="43.60904" lon="6.85268">
        <ele>57</ele>
        <time>2019-02-07T09:06:43.000Z</time>
      </trkpt>
      <trkpt lat="43.60903" lon="6.85267">
        <ele>57</ele>
        <time>2019-02-07T09:06:44.000Z</time>
      </trkpt>
      <trkpt lat="43.60902" lon="6.85266">
        <ele>57</ele>
        <time>2019-02-07T09:06:45.000Z</time>
      </trkpt>
      <trkpt lat="43.60901" lon="6.85265">
        <ele>57</ele>
        <time>2019-02-07T09:06:46.000Z</time>
      </trkpt>
      <trkpt lat="43.60901" lon="6.85264">
        <ele>57</ele>
        <time>2019-02-07T09:06:47.000Z</time>
      </trkpt>
      <trkpt lat="43.609" lon="6.85263">
        <ele>57</ele>
        <time>2019-02-07T09:06:48.000Z</time>
      </trkpt>
      <trkpt lat="43.60899" lon="6.85261">
        <ele>57</ele>
        <time>2019-02-07T09:06:49.000Z</time>
      </trkpt>
      <trkpt lat="43.60898" lon="6.8526">
        <ele>58</ele>
        <time>2019-02-07T09:06:50.000Z</time>
      </trkpt>
      <trkpt lat="43.60896" lon="6.85258">
        <ele>59</ele>
        <time>2019-02-07T09:06:51.000Z</time>
      </trkpt>
      <trkpt lat="43.60895" lon="6.85256">
        <ele>59</ele>
        <time>2019-02-07T09:06:52.000Z</time>
      </trkpt>
      <trkpt lat="43.60894" lon="6.85255">
        <ele>59</ele>
        <time>2019-02-07T09:06:53.000Z</time>
      </trkpt>
      <trkpt lat="43.60893" lon="6.85253">
        <ele>59</ele>
        <time>2019-02-07T09:06:54.000Z</time>
      </trkpt>
      <trkpt lat="43.60891" lon="6.85251">
        <ele>59</ele>
        <time>2019-02-07T09:06:55.000Z</time>
      </trkpt>
      <trkpt lat="43.6089" lon="6.85248">
        <ele>59</ele>
        <time>2019-02-07T09:06:56.000Z</time>
      </trkpt>
      <trkpt lat="43.6089" lon="6.85246">
        <ele>60</ele>
        <time>2019-02-07T09:06:57.000Z</time>
      </trkpt>
      <trkpt lat="43.60889" lon="6.85244">
        <ele>59</ele>
        <time>2019-02-07T09:06:58.000Z</time>
      </trkpt>
      <trkpt lat="43.60888" lon="6.85242">
        <ele>60</ele>
        <time>2019-02-07T09:06:59.000Z</time>
      </trkpt>
      <trkpt lat="43.60886" lon="6.8524">
        <ele>61</ele>
        <time>2019-02-07T09:07:00.000Z</time>
      </trkpt>
      <trkpt lat="43.60884" lon="6.85239">
        <ele>59</ele>
        <time>2019-02-07T09:07:01.000Z</time>
      </trkpt>
      <trkpt lat="43.60881" lon="6.85237">
        <ele>58</ele>
        <time>2019-02-07T09:07:02.000Z</time>
      </trkpt>
      <trkpt lat="43.60879" lon="6.85236">
        <ele>58</ele>
        <time>2019-02-07T09:07:03.000Z</time>
      </trkpt>
      <trkpt lat="43.60878" lon="6.85235">
        <ele>57</ele>
        <time>2019-02-07T09:07:04.000Z</time>
      </trkpt>
      <trkpt lat="43.60876" lon="6.85234">
        <ele>57</ele>
        <time>2019-02-07T09:07:05.000Z</time>
      </trkpt>
      <trkpt lat="43.60875" lon="6.85233">
        <ele>57</ele>
        <time>2019-02-07T09:07:06.000Z</time>
      </trkpt>
      <trkpt lat="43.60873" lon="6.85233">
        <ele>57</ele>
        <time>2019-02-07T09:07:07.000Z</time>
      </trkpt>
      <trkpt lat="43.60872" lon="6.85233">
        <ele>57</ele>
        <time>2019-02-07T09:07:08.000Z</time>
      </trkpt>
      <trkpt lat="43.6087" lon="6.85233">
        <ele>57</ele>
        <time>2019-02-07T09:07:09.000Z</time>
      </trkpt>
      <trkpt lat="43.60869" lon="6.85232">
        <ele>56</ele>
        <time>2019-02-07T09:07:10.000Z</time>
      </trkpt>
      <trkpt lat="43.60869" lon="6.85231">
        <ele>56</ele>
        <time>2019-02-07T09:07:11.000Z</time>
      </trkpt>
      <trkpt lat="43.60869" lon="6.85231">
        <ele>57</ele>
        <time>2019-02-07T09:07:12.000Z</time>
      </trkpt>
      <trkpt lat="43.6087" lon="6.8523">
        <ele>57</ele>
        <time>2019-02-07T09:07:13.000Z</time>
      </trkpt>
      <trkpt lat="43.6087" lon="6.8523">
        <ele>57</ele>
        <time>2019-02-07T09:07:14.000Z</time>
      </trkpt>
      <trkpt lat="43.60869" lon="6.85229">
        <ele>57</ele>
        <time>2019-02-07T09:07:15.000Z</time>
      </trkpt>
      <trkpt lat="43.60868" lon="6.85229">
        <ele>57</ele>
        <time>2019-02-07T09:07:16.000Z</time>
      </trkpt>
      <trkpt lat="43.60867" lon="6.85229">
        <ele>57</ele>
        <time>2019-02-07T09:07:17.000Z</time>
      </trkpt>
      <trkpt lat="43.60866" lon="6.85229">
        <ele>56</ele>
        <time>2019-02-07T09:07:18.000Z</time>
      </trkpt>
      <trkpt lat="43.60865" lon="6.85229">
        <ele>56</ele>
        <time>2019-02-07T09:07:19.000Z</time>
      </trkpt>
      <trkpt lat="43.60864" lon="6.85229">
        <ele>56</ele>
        <time>2019-02-07T09:07:20.000Z</time>
      </trkpt>
      <trkpt lat="43.60862" lon="6.85229">
        <ele>56</ele>
        <time>2019-02-07T09:07:21.000Z</time>
      </trkpt>
      <trkpt lat="43.60861" lon="6.85229">
        <ele>56</ele>
        <time>2019-02-07T09:07:22.000Z</time>
      </trkpt>
      <trkpt lat="43.6086" lon="6.85228">
        <ele>55</ele>
        <time>2019-02-07T09:07:23.000Z</time>
      </trkpt>
      <trkpt lat="43.60859" lon="6.85228">
        <ele>55</ele>
        <time>2019-02-07T09:07:24.000Z</time>
      </trkpt>
      <trkpt lat="43.60858" lon="6.85228">
        <ele>54</ele>
        <time>2019-02-07T09:07:25.000Z</time>
      </trkpt>
      <trkpt lat="43.60856" lon="6.85227">
        <ele>54</ele>
        <time>2019-02-07T09:07:26.000Z</time>
      </trkpt>
      <trkpt lat="43.60855" lon="6.85227">
        <ele>54</ele>
        <time>2019-02-07T09:07:27.000Z</time>
      </trkpt>
      <trkpt lat="43.60853" lon="6.85227">
        <ele>54</ele>
        <time>2019-02-07T09:07:28.000Z</time>
      </trkpt>
      <trkpt lat="43.60852" lon="6.85226">
        <ele>54</ele>
        <time>2019-02-07T09:07:29.000Z</time>
      </trkpt>
      <trkpt lat="43.6085" lon="6.85227">
        <ele>54</ele>
        <time>2019-02-07T09:07:30.000Z</time>
      </trkpt>
      <trkpt lat="43.60848" lon="6.85227">
        <ele>55</ele>
        <time>2019-02-07T09:07:31.000Z</time>
      </trkpt>
      <trkpt lat="43.60846" lon="6.85228">
        <ele>56</ele>
        <time>2019-02-07T09:07:32.000Z</time>
      </trkpt>
      <trkpt lat="43.60844" lon="6.85228">
        <ele>57</ele>
        <time>2019-02-07T09:07:33.000Z</time>
      </trkpt>
      <trkpt lat="43.60842" lon="6.85228">
        <ele>57</ele>
        <time>2019-02-07T09:07:34.000Z</time>
      </trkpt>
      <trkpt lat="43.6084" lon="6.85228">
        <ele>57</ele>
        <time>2019-02-07T09:07:35.000Z</time>
      </trkpt>
      <trkpt lat="43.60838" lon="6.85229">
        <ele>56</ele>
        <time>2019-02-07T09:07:36.000Z</time>
      </trkpt>
      <trkpt lat="43.60836" lon="6.85229">
        <ele>56</ele>
        <time>2019-02-07T09:07:37.000Z</time>
      </trkpt>
      <trkpt lat="43.60834" lon="6.85229">
        <ele>56</ele>
        <time>2019-02-07T09:07:38.000Z</time>
      </trkpt>
      <trkpt lat="43.60833" lon="6.8523">
        <ele>55</ele>
        <time>2019-02-07T09:07:39.000Z</time>
      </trkpt>
      <trkpt lat="43.60832" lon="6.8523">
        <ele>55</ele>
        <time>2019-02-07T09:07:40.000Z</time>
      </trkpt>
      <trkpt lat="43.6083" lon="6.8523">
        <ele>55</ele>
        <time>2019-02-07T09:07:41.000Z</time>
      </trkpt>
      <trkpt lat="43.60829" lon="6.85231">
        <ele>54</ele>
        <time>2019-02-07T09:07:42.000Z</time>
      </trkpt>
      <trkpt lat="43.60828" lon="6.85232">
        <ele>54</ele>
        <time>2019-02-07T09:07:43.000Z</time>
      </trkpt>
      <trkpt lat="43.60826" lon="6.85233">
        <ele>54</ele>
        <time>2019-02-07T09:07:44.000Z</time>
      </trkpt>
      <trkpt lat="43.60824" lon="6.85235">
        <ele>55</ele>
        <time>2019-02-07T09:07:45.000Z</time>
      </trkpt>
      <trkpt lat="43.60822" lon="6.85236">
        <ele>55</ele>
        <time>2019-02-07T09:07:46.000Z</time>
      </trkpt>
      <trkpt lat="43.6082" lon="6.85237">
        <ele>55</ele>
        <time>2019-02-07T09:07:47.000Z</time>
      </trkpt>
      <trkpt lat="43.60817" lon="6.85238">
        <ele>55</ele>
        <time>2019-02-07T09:07:48.000Z</time>
      </trkpt>
      <trkpt lat="43.60815" lon="6.85239">
        <ele>55</ele>
        <time>2019-02-07T09:07:49.000Z</time>
      </trkpt>
      <trkpt lat="43.60812" lon="6.85239">
        <ele>55</ele>
        <time>2019-02-07T09:07:50.000Z</time>
      </trkpt>
      <trkpt lat="43.60808" lon="6.85239">
        <ele>54</ele>
        <time>2019-02-07T09:07:51.000Z</time>
      </trkpt>
      <trkpt lat="43.60805" lon="6.85238">
        <ele>53</ele>
        <time>2019-02-07T09:07:52.000Z</time>
      </trkpt>
      <trkpt lat="43.60802" lon="6.85238">
        <ele>54</ele>
        <time>2019-02-07T09:07:53.000Z</time>
      </trkpt>
      <trkpt lat="43.608" lon="6.85237">
        <ele>55</ele>
        <time>2019-02-07T09:07:54.000Z</time>
      </trkpt>
      <trkpt lat="43.60798" lon="6.85236">
        <ele>55</ele>
        <time>2019-02-07T09:07:55.000Z</time>
      </trkpt>
      <trkpt lat="43.60796" lon="6.85236">
        <ele>56</ele>
        <time>2019-02-07T09:07:56.000Z</time>
      </trkpt>
      <trkpt lat="43.60794" lon="6.85235">
        <ele>56</ele>
        <time>2019-02-07T09:07:57.000Z</time>
      </trkpt>
      <trkpt lat="43.60793" lon="6.85234">
        <ele>56</ele>
        <time>2019-02-07T09:07:58.000Z</time>
      </trkpt>
      <trkpt lat="43.60791" lon="6.85233">
        <ele>57</ele>
        <time>2019-02-07T09:07:59.000Z</time>
      </trkpt>
      <trkpt lat="43.6079" lon="6.85232">
        <ele>57</ele>
        <time>2019-02-07T09:08:00.000Z</time>
      </trkpt>
      <trkpt lat="43.60788" lon="6.85232">
        <ele>58</ele>
        <time>2019-02-07T09:08:01.000Z</time>
      </trkpt>
      <trkpt lat="43.60786" lon="6.85232">
        <ele>59</ele>
        <time>2019-02-07T09:08:02.000Z</time>
      </trkpt>
      <trkpt lat="43.60785" lon="6.85232">
        <ele>59</ele>
        <time>2019-02-07T09:08:03.000Z</time>
      </trkpt>
      <trkpt lat="43.60783" lon="6.85233">
        <ele>59</ele>
        <time>2019-02-07T09:08:04.000Z</time>
      </trkpt>
      <trkpt lat="43.60782" lon="6.85233">
        <ele>59</ele>
        <time>2019-02-07T09:08:05.000Z</time>
      </trkpt>
      <trkpt lat="43.6078" lon="6.85233">
        <ele>60</ele>
        <time>2019-02-07T09:08:06.000Z</time>
      </trkpt>
      <trkpt lat="43.60779" lon="6.85234">
        <ele>59</ele>
        <time>2019-02-07T09:08:07.000Z</time>
      </trkpt>
      <trkpt lat="43.60777" lon="6.85234">
        <ele>59</ele>
        <time>2019-02-07T09:08:08.000Z</time>
      </trkpt>
      <trkpt lat="43.60775" lon="6.85234">
        <ele>60</ele>
        <time>2019-02-07T09:08:09.000Z</time>
      </trkpt>
      <trkpt lat="43.60774" lon="6.85233">
        <ele>60</ele>
        <time>2019-02-07T09:08:10.000Z</time>
      </trkpt>
      <trkpt lat="43.60773" lon="6.85233">
        <ele>60</ele>
        <time>2019-02-07T09:08:11.000Z</time>
      </trkpt>
      <trkpt lat="43.60771" lon="6.85233">
        <ele>60</ele>
        <time>2019-02-07T09:08:12.000Z</time>
      </trkpt>
      <trkpt lat="43.6077" lon="6.85233">
        <ele>60</ele>
        <time>2019-02-07T09:08:13.000Z</time>
      </trkpt>
      <trkpt lat="43.60768" lon="6.85234">
        <ele>60</ele>
        <time>2019-02-07T09:08:14.000Z</time>
      </trkpt>
      <trkpt lat="43.60766" lon="6.85234">
        <ele>61</ele>
        <time>2019-02-07T09:08:15.000Z</time>
      </trkpt>
      <trkpt lat="43.60764" lon="6.85234">
        <ele>61</ele>
        <time>2019-02-07T09:08:16.000Z</time>
      </trkpt>
      <trkpt lat="43.60763" lon="6.85234">
        <ele>61</ele>
        <time>2019-02-07T09:08:17.000Z</time>
      </trkpt>
      <trkpt lat="43.60761" lon="6.85234">
        <ele>61</ele>
        <time>2019-02-07T09:08:18.000Z</time>
      </trkpt>
      <trkpt lat="43.60759" lon="6.85234">
        <ele>62</ele>
        <time>2019-02-07T09:08:19.000Z</time>
      </trkpt>
      <trkpt lat="43.60757" lon="6.85234">
        <ele>62</ele>
        <time>2019-02-07T09:08:20.000Z</time>
      </trkpt>
      <trkpt lat="43.60755" lon="6.85235">
        <ele>62</ele>
        <time>2019-02-07T09:08:21.000Z</time>
      </trkpt>
      <trkpt lat="43.60754" lon="6.85235">
        <ele>62</ele>
        <time>2019-02-07T09:08:22.000Z</time>
      </trkpt>
      <trkpt lat="43.60753" lon="6.85235">
        <ele>62</ele>
        <time>2019-02-07T09:08:23.000Z</time>
      </trkpt>
      <trkpt lat="43.60751" lon="6.85236">
        <ele>62</ele>
        <time>2019-02-07T09:08:24.000Z</time>
      </trkpt>
      <trkpt lat="43.6075" lon="6.85236">
        <ele>61</ele>
        <time>2019-02-07T09:08:25.000Z</time>
      </trkpt>
      <trkpt lat="43.60748" lon="6.85236">
        <ele>62</ele>
        <time>2019-02-07T09:08:26.000Z</time>
      </trkpt>
      <trkpt lat="43.60747" lon="6.85236">
        <ele>62</ele>
        <time>2019-02-07T09:08:27.000Z</time>
      </trkpt>
      <trkpt lat="43.60745" lon="6.85237">
        <ele>62</ele>
        <time>2019-02-07T09:08:28.000Z</time>
      </trkpt>
      <trkpt lat="43.60743" lon="6.85238">
        <ele>63</ele>
        <time>2019-02-07T09:08:29.000Z</time>
      </trkpt>
      <trkpt lat="43.60741" lon="6.85239">
        <ele>63</ele>
        <time>2019-02-07T09:08:30.000Z</time>
      </trkpt>
      <trkpt lat="43.6074" lon="6.85241">
        <ele>63</ele>
        <time>2019-02-07T09:08:31.000Z</time>
      </trkpt>
      <trkpt lat="43.60738" lon="6.85242">
        <ele>62</ele>
        <time>2019-02-07T09:08:32.000Z</time>
      </trkpt>
      <trkpt lat="43.60736" lon="6.85243">
        <ele>62</ele>
        <time>2019-02-07T09:08:33.000Z</time>
      </trkpt>
      <trkpt lat="43.60735" lon="6.85244">
        <ele>63</ele>
        <time>2019-02-07T09:08:34.000Z</time>
      </trkpt>
      <trkpt lat="43.60733" lon="6.85245">
        <ele>63</ele>
        <time>2019-02-07T09:08:35.000Z</time>
      </trkpt>
      <trkpt lat="43.60732" lon="6.85246">
        <ele>63</ele>
        <time>2019-02-07T09:08:36.000Z</time>
      </trkpt>
      <trkpt lat="43.6073" lon="6.85246">
        <ele>63</ele>
        <time>2019-02-07T09:08:37.000Z</time>
      </trkpt>
      <trkpt lat="43.60728" lon="6.85247">
        <ele>63</ele>
        <time>2019-02-07T09:08:38.000Z</time>
      </trkpt>
      <trkpt lat="43.60726" lon="6.85248">
        <ele>63</ele>
        <time>2019-02-07T09:08:39.000Z</time>
      </trkpt>
      <trkpt lat="43.60724" lon="6.8525">
        <ele>63</ele>
        <time>2019-02-07T09:08:40.000Z</time>
      </trkpt>
      <trkpt lat="43.60722" lon="6.85251">
        <ele>64</ele>
        <time>2019-02-07T09:08:41.000Z</time>
      </trkpt>
      <trkpt lat="43.60722" lon="6.85252">
        <ele>63</ele>
        <time>2019-02-07T09:08:42.000Z</time>
      </trkpt>
      <trkpt lat="43.60721" lon="6.85252">
        <ele>64</ele>
        <time>2019-02-07T09:08:43.000Z</time>
      </trkpt>
      <trkpt lat="43.6072" lon="6.85253">
        <ele>64</ele>
        <time>2019-02-07T09:08:44.000Z</time>
      </trkpt>
      <trkpt lat="43.60719" lon="6.85253">
        <ele>64</ele>
        <time>2019-02-07T09:08:45.000Z</time>
      </trkpt>
      <trkpt lat="43.60718" lon="6.85254">
        <ele>64</ele>
        <time>2019-02-07T09:08:46.000Z</time>
      </trkpt>
      <trkpt lat="43.60717" lon="6.85255">
        <ele>64</ele>
        <time>2019-02-07T09:08:47.000Z</time>
      </trkpt>
      <trkpt lat="43.60715" lon="6.85256">
        <ele>64</ele>
        <time>2019-02-07T09:08:48.000Z</time>
      </trkpt>
      <trkpt lat="43.60714" lon="6.85257">
        <ele>64</ele>
        <time>2019-02-07T09:08:49.000Z</time>
      </trkpt>
      <trkpt lat="43.60712" lon="6.85258">
        <ele>63</ele>
        <time>2019-02-07T09:08:50.000Z</time>
      </trkpt>
      <trkpt lat="43.60711" lon="6.85259">
        <ele>62</ele>
        <time>2019-02-07T09:08:51.000Z</time>
      </trkpt>
      <trkpt lat="43.60709" lon="6.8526">
        <ele>62</ele>
        <time>2019-02-07T09:08:52.000Z</time>
      </trkpt>
      <trkpt lat="43.60707" lon="6.85261">
        <ele>61</ele>
        <time>2019-02-07T09:08:53.000Z</time>
      </trkpt>
      <trkpt lat="43.60705" lon="6.85262">
        <ele>61</ele>
        <time>2019-02-07T09:08:54.000Z</time>
      </trkpt>
      <trkpt lat="43.60702" lon="6.85262">
        <ele>60</ele>
        <time>2019-02-07T09:08:55.000Z</time>
      </trkpt>
      <trkpt lat="43.607" lon="6.85263">
        <ele>60</ele>
        <time>2019-02-07T09:08:56.000Z</time>
      </trkpt>
      <trkpt lat="43.60698" lon="6.85263">
        <ele>60</ele>
        <time>2019-02-07T09:08:57.000Z</time>
      </trkpt>
      <trkpt lat="43.60696" lon="6.85263">
        <ele>60</ele>
        <time>2019-02-07T09:08:58.000Z</time>
      </trkpt>
      <trkpt lat="43.60695" lon="6.85263">
        <ele>60</ele>
        <time>2019-02-07T09:08:59.000Z</time>
      </trkpt>
      <trkpt lat="43.60693" lon="6.85263">
        <ele>60</ele>
        <time>2019-02-07T09:09:00.000Z</time>
      </trkpt>
      <trkpt lat="43.60692" lon="6.85263">
        <ele>59</ele>
        <time>2019-02-07T09:09:01.000Z</time>
      </trkpt>
      <trkpt lat="43.60691" lon="6.85263">
        <ele>60</ele>
        <time>2019-02-07T09:09:02.000Z</time>
      </trkpt>
      <trkpt lat="43.6069" lon="6.85263">
        <ele>60</ele>
        <time>2019-02-07T09:09:03.000Z</time>
      </trkpt>
      <trkpt lat="43.60688" lon="6.85262">
        <ele>61</ele>
        <time>2019-02-07T09:09:04.000Z</time>
      </trkpt>
      <trkpt lat="43.60687" lon="6.85262">
        <ele>61</ele>
        <time>2019-02-07T09:09:05.000Z</time>
      </trkpt>
      <trkpt lat="43.60686" lon="6.85262">
        <ele>61</ele>
        <time>2019-02-07T09:09:06.000Z</time>
      </trkpt>
      <trkpt lat="43.60685" lon="6.85261">
        <ele>61</ele>
        <time>2019-02-07T09:09:07.000Z</time>
      </trkpt>
      <trkpt lat="43.60684" lon="6.8526">
        <ele>62</ele>
        <time>2019-02-07T09:09:08.000Z</time>
      </trkpt>
      <trkpt lat="43.60684" lon="6.85259">
        <ele>61</ele>
        <time>2019-02-07T09:09:09.000Z</time>
      </trkpt>
      <trkpt lat="43.60683" lon="6.85258">
        <ele>62</ele>
        <time>2019-02-07T09:09:10.000Z</time>
      </trkpt>
      <trkpt lat="43.60683" lon="6.85257">
        <ele>62</ele>
        <time>2019-02-07T09:09:11.000Z</time>
      </trkpt>
      <trkpt lat="43.60682" lon="6.85256">
        <ele>62</ele>
        <time>2019-02-07T09:09:12.000Z</time>
      </trkpt>
      <trkpt lat="43.60681" lon="6.85255">
        <ele>63</ele>
        <time>2019-02-07T09:09:13.000Z</time>
      </trkpt>
      <trkpt lat="43.6068" lon="6.85254">
        <ele>63</ele>
        <time>2019-02-07T09:09:14.000Z</time>
      </trkpt>
      <trkpt lat="43.6068" lon="6.85253">
        <ele>63</ele>
        <time>2019-02-07T09:09:15.000Z</time>
      </trkpt>
      <trkpt lat="43.60679" lon="6.85252">
        <ele>64</ele>
        <time>2019-02-07T09:09:16.000Z</time>
      </trkpt>
      <trkpt lat="43.60678" lon="6.85251">
        <ele>64</ele>
        <time>2019-02-07T09:09:17.000Z</time>
      </trkpt>
      <trkpt lat="43.60678" lon="6.8525">
        <ele>63</ele>
        <time>2019-02-07T09:09:18.000Z</time>
      </trkpt>
      <trkpt lat="43.60677" lon="6.8525">
        <ele>63</ele>
        <time>2019-02-07T09:09:19.000Z</time>
      </trkpt>
      <trkpt lat="43.60677" lon="6.85249">
        <ele>63</ele>
        <time>2019-02-07T09:09:20.000Z</time>
      </trkpt>
      <trkpt lat="43.60677" lon="6.85249">
        <ele>63</ele>
        <time>2019-02-07T09:09:21.000Z</time>
      </trkpt>
      <trkpt lat="43.60677" lon="6.85248">
        <ele>63</ele>
        <time>2019-02-07T09:09:22.000Z</time>
      </trkpt>
      <trkpt lat="43.60676" lon="6.85247">
        <ele>64</ele>
        <time>2019-02-07T09:09:23.000Z</time>
      </trkpt>
      <trkpt lat="43.60676" lon="6.85246">
        <ele>64</ele>
        <time>2019-02-07T09:09:24.000Z</time>
      </trkpt>
      <trkpt lat="43.60676" lon="6.85245">
        <ele>64</ele>
        <time>2019-02-07T09:09:25.000Z</time>
      </trkpt>
      <trkpt lat="43.60675" lon="6.85244">
        <ele>64</ele>
        <time>2019-02-07T09:09:26.000Z</time>
      </trkpt>
      <trkpt lat="43.60675" lon="6.85243">
        <ele>65</ele>
        <time>2019-02-07T09:09:27.000Z</time>
      </trkpt>
      <trkpt lat="43.60674" lon="6.85242">
        <ele>65</ele>
        <time>2019-02-07T09:09:28.000Z</time>
      </trkpt>
      <trkpt lat="43.60673" lon="6.85242">
        <ele>66</ele>
        <time>2019-02-07T09:09:29.000Z</time>
      </trkpt>
      <trkpt lat="43.60673" lon="6.8524">
        <ele>66</ele>
        <time>2019-02-07T09:09:30.000Z</time>
      </trkpt>
      <trkpt lat="43.60672" lon="6.85239">
        <ele>66</ele>
        <time>2019-02-07T09:09:31.000Z</time>
      </trkpt>
      <trkpt lat="43.60672" lon="6.85238">
        <ele>66</ele>
        <time>2019-02-07T09:09:32.000Z</time>
      </trkpt>
      <trkpt lat="43.60671" lon="6.85237">
        <ele>66</ele>
        <time>2019-02-07T09:09:33.000Z</time>
      </trkpt>
      <trkpt lat="43.60671" lon="6.85236">
        <ele>66</ele>
        <time>2019-02-07T09:09:34.000Z</time>
      </trkpt>
      <trkpt lat="43.60671" lon="6.85235">
        <ele>66</ele>
        <time>2019-02-07T09:09:35.000Z</time>
      </trkpt>
      <trkpt lat="43.6067" lon="6.85234">
        <ele>66</ele>
        <time>2019-02-07T09:09:36.000Z</time>
      </trkpt>
      <trkpt lat="43.6067" lon="6.85232">
        <ele>66</ele>
        <time>2019-02-07T09:09:37.000Z</time>
      </trkpt>
      <trkpt lat="43.60669" lon="6.85231">
        <ele>68</ele>
        <time>2019-02-07T09:09:38.000Z</time>
      </trkpt>
      <trkpt lat="43.60669" lon="6.85229">
        <ele>67</ele>
        <time>2019-02-07T09:09:39.000Z</time>
      </trkpt>
      <trkpt lat="43.60668" lon="6.85228">
        <ele>67</ele>
        <time>2019-02-07T09:09:40.000Z</time>
      </trkpt>
      <trkpt lat="43.60667" lon="6.85227">
        <ele>68</ele>
        <time>2019-02-07T09:09:41.000Z</time>
      </trkpt>
      <trkpt lat="43.60667" lon="6.85226">
        <ele>69</ele>
        <time>2019-02-07T09:09:42.000Z</time>
      </trkpt>
      <trkpt lat="43.60666" lon="6.85225">
        <ele>69</ele>
        <time>2019-02-07T09:09:43.000Z</time>
      </trkpt>
      <trkpt lat="43.60666" lon="6.85224">
        <ele>69</ele>
        <time>2019-02-07T09:09:44.000Z</time>
      </trkpt>
      <trkpt lat="43.60665" lon="6.85223">
        <ele>69</ele>
        <time>2019-02-07T09:09:45.000Z</time>
      </trkpt>
      <trkpt lat="43.60665" lon="6.85222">
        <ele>69</ele>
        <time>2019-02-07T09:09:46.000Z</time>
      </trkpt>
      <trkpt lat="43.60664" lon="6.85221">
        <ele>69</ele>
        <time>2019-02-07T09:09:47.000Z</time>
      </trkpt>
      <trkpt lat="43.60664" lon="6.8522">
        <ele>69</ele>
        <time>2019-02-07T09:09:48.000Z</time>
      </trkpt>
      <trkpt lat="43.60663" lon="6.85219">
        <ele>69</ele>
        <time>2019-02-07T09:09:49.000Z</time>
      </trkpt>
      <trkpt lat="43.60663" lon="6.85219">
        <ele>69</ele>
        <time>2019-02-07T09:09:50.000Z</time>
      </trkpt>
      <trkpt lat="43.60662" lon="6.85218">
        <ele>69</ele>
        <time>2019-02-07T09:09:51.000Z</time>
      </trkpt>
      <trkpt lat="43.60661" lon="6.85218">
        <ele>69</ele>
        <time>2019-02-07T09:09:52.000Z</time>
      </trkpt>
      <trkpt lat="43.6066" lon="6.85217">
        <ele>70</ele>
        <time>2019-02-07T09:09:53.000Z</time>
      </trkpt>
      <trkpt lat="43.60659" lon="6.85217">
        <ele>70</ele>
        <time>2019-02-07T09:09:54.000Z</time>
      </trkpt>
      <trkpt lat="43.60658" lon="6.85216">
        <ele>70</ele>
        <time>2019-02-07T09:09:55.000Z</time>
      </trkpt>
      <trkpt lat="43.60657" lon="6.85216">
        <ele>70</ele>
        <time>2019-02-07T09:09:56.000Z</time>
      </trkpt>
      <trkpt lat="43.60656" lon="6.85215">
        <ele>70</ele>
        <time>2019-02-07T09:09:57.000Z</time>
      </trkpt>
      <trkpt lat="43.60655" lon="6.85215">
        <ele>70</ele>
        <time>2019-02-07T09:09:58.000Z</time>
      </trkpt>
      <trkpt lat="43.60655" lon="6.85214">
        <ele>70</ele>
        <time>2019-02-07T09:09:59.000Z</time>
      </trkpt>
      <trkpt lat="43.60654" lon="6.85212">
        <ele>70</ele>
        <time>2019-02-07T09:10:00.000Z</time>
      </trkpt>
      <trkpt lat="43.60654" lon="6.85211">
        <ele>71</ele>
        <time>2019-02-07T09:10:01.000Z</time>
      </trkpt>
      <trkpt lat="43.60653" lon="6.85209">
        <ele>71</ele>
        <time>2019-02-07T09:10:02.000Z</time>
      </trkpt>
      <trkpt lat="43.60653" lon="6.85208">
        <ele>71</ele>
        <time>2019-02-07T09:10:03.000Z</time>
      </trkpt>
      <trkpt lat="43.60652" lon="6.85206">
        <ele>71</ele>
        <time>2019-02-07T09:10:04.000Z</time>
      </trkpt>
      <trkpt lat="43.60652" lon="6.85205">
        <ele>72</ele>
        <time>2019-02-07T09:10:05.000Z</time>
      </trkpt>
      <trkpt lat="43.60651" lon="6.85203">
        <ele>72</ele>
        <time>2019-02-07T09:10:06.000Z</time>
      </trkpt>
      <trkpt lat="43.60651" lon="6.85202">
        <ele>72</ele>
        <time>2019-02-07T09:10:07.000Z</time>
      </trkpt>
      <trkpt lat="43.60651" lon="6.85201">
        <ele>72</ele>
        <time>2019-02-07T09:10:08.000Z</time>
      </trkpt>
      <trkpt lat="43.60651" lon="6.852">
        <ele>72</ele>
        <time>2019-02-07T09:10:09.000Z</time>
      </trkpt>
      <trkpt lat="43.6065" lon="6.85198">
        <ele>72</ele>
        <time>2019-02-07T09:10:10.000Z</time>
      </trkpt>
      <trkpt lat="43.6065" lon="6.85197">
        <ele>73</ele>
        <time>2019-02-07T09:10:11.000Z</time>
      </trkpt>
      <trkpt lat="43.60649" lon="6.85196">
        <ele>72</ele>
        <time>2019-02-07T09:10:12.000Z</time>
      </trkpt>
      <trkpt lat="43.60649" lon="6.85195">
        <ele>72</ele>
        <time>2019-02-07T09:10:13.000Z</time>
      </trkpt>
      <trkpt lat="43.60649" lon="6.85194">
        <ele>73</ele>
        <time>2019-02-07T09:10:14.000Z</time>
      </trkpt>
      <trkpt lat="43.60648" lon="6.85193">
        <ele>73</ele>
        <time>2019-02-07T09:10:15.000Z</time>
      </trkpt>
      <trkpt lat="43.60648" lon="6.85192">
        <ele>73</ele>
        <time>2019-02-07T09:10:16.000Z</time>
      </trkpt>
      <trkpt lat="43.60647" lon="6.85191">
        <ele>74</ele>
        <time>2019-02-07T09:10:17.000Z</time>
      </trkpt>
      <trkpt lat="43.60647" lon="6.85189">
        <ele>74</ele>
        <time>2019-02-07T09:10:18.000Z</time>
      </trkpt>
      <trkpt lat="43.60646" lon="6.85188">
        <ele>73</ele>
        <time>2019-02-07T09:10:19.000Z</time>
      </trkpt>
      <trkpt lat="43.60646" lon="6.85187">
        <ele>73</ele>
        <time>2019-02-07T09:10:20.000Z</time>
      </trkpt>
      <trkpt lat="43.60645" lon="6.85186">
        <ele>73</ele>
        <time>2019-02-07T09:10:21.000Z</time>
      </trkpt>
      <trkpt lat="43.60645" lon="6.85184">
        <ele>74</ele>
        <time>2019-02-07T09:10:22.000Z</time>
      </trkpt>
      <trkpt lat="43.60645" lon="6.85183">
        <ele>74</ele>
        <time>2019-02-07T09:10:23.000Z</time>
      </trkpt>
      <trkpt lat="43.60644" lon="6.85181">
        <ele>74</ele>
        <time>2019-02-07T09:10:24.000Z</time>
      </trkpt>
      <trkpt lat="43.60644" lon="6.8518">
        <ele>74</ele>
        <time>2019-02-07T09:10:25.000Z</time>
      </trkpt>
      <trkpt lat="43.60644" lon="6.85179">
        <ele>75</ele>
        <time>2019-02-07T09:10:26.000Z</time>
      </trkpt>
      <trkpt lat="43.60643" lon="6.85178">
        <ele>75</ele>
        <time>2019-02-07T09:10:27.000Z</time>
      </trkpt>
      <trkpt lat="43.60643" lon="6.85176">
        <ele>75</ele>
        <time>2019-02-07T09:10:28.000Z</time>
      </trkpt>
      <trkpt lat="43.60642" lon="6.85175">
        <ele>76</ele>
        <time>2019-02-07T09:10:29.000Z</time>
      </trkpt>
      <trkpt lat="43.60642" lon="6.85174">
        <ele>76</ele>
        <time>2019-02-07T09:10:30.000Z</time>
      </trkpt>
      <trkpt lat="43.60642" lon="6.85173">
        <ele>76</ele>
        <time>2019-02-07T09:10:31.000Z</time>
      </trkpt>
      <trkpt lat="43.60642" lon="6.85172">
        <ele>77</ele>
        <time>2019-02-07T09:10:32.000Z</time>
      </trkpt>
      <trkpt lat="43.60641" lon="6.85171">
        <ele>77</ele>
        <time>2019-02-07T09:10:33.000Z</time>
      </trkpt>
      <trkpt lat="43.60641" lon="6.8517">
        <ele>77</ele>
        <time>2019-02-07T09:10:34.000Z</time>
      </trkpt>
      <trkpt lat="43.60641" lon="6.85169">
        <ele>77</ele>
        <time>2019-02-07T09:10:35.000Z</time>
      </trkpt>
      <trkpt lat="43.60641" lon="6.85168">
        <ele>77</ele>
        <time>2019-02-07T09:10:36.000Z</time>
      </trkpt>
      <trkpt lat="43.60641" lon="6.85167">
        <ele>78</ele>
        <time>2019-02-07T09:10:37.000Z</time>
      </trkpt>
      <trkpt lat="43.60641" lon="6.85166">
        <ele>78</ele>
        <time>2019-02-07T09:10:38.000Z</time>
      </trkpt>
      <trkpt lat="43.6064" lon="6.85165">
        <ele>78</ele>
        <time>2019-02-07T09:10:39.000Z</time>
      </trkpt>
      <trkpt lat="43.6064" lon="6.85164">
        <ele>79</ele>
        <time>2019-02-07T09:10:40.000Z</time>
      </trkpt>
      <trkpt lat="43.6064" lon="6.85163">
        <ele>79</ele>
        <time>2019-02-07T09:10:41.000Z</time>
      </trkpt>
      <trkpt lat="43.60639" lon="6.85161">
        <ele>79</ele>
        <time>2019-02-07T09:10:42.000Z</time>
      </trkpt>
      <trkpt lat="43.60639" lon="6.8516">
        <ele>79</ele>
        <time>2019-02-07T09:10:43.000Z</time>
      </trkpt>
      <trkpt lat="43.60638" lon="6.85159">
        <ele>80</ele>
        <time>2019-02-07T09:10:44.000Z</time>
      </trkpt>
      <trkpt lat="43.60638" lon="6.85158">
        <ele>80</ele>
        <time>2019-02-07T09:10:45.000Z</time>
      </trkpt>
      <trkpt lat="43.60638" lon="6.85157">
        <ele>80</ele>
        <time>2019-02-07T09:10:46.000Z</time>
      </trkpt>
      <trkpt lat="43.60637" lon="6.85156">
        <ele>80</ele>
        <time>2019-02-07T09:10:47.000Z</time>
      </trkpt>
      <trkpt lat="43.60637" lon="6.85154">
        <ele>80</ele>
        <time>2019-02-07T09:10:48.000Z</time>
      </trkpt>
      <trkpt lat="43.60637" lon="6.85153">
        <ele>81</ele>
        <time>2019-02-07T09:10:49.000Z</time>
      </trkpt>
      <trkpt lat="43.60637" lon="6.85152">
        <ele>81</ele>
        <time>2019-02-07T09:10:50.000Z</time>
      </trkpt>
      <trkpt lat="43.60636" lon="6.85151">
        <ele>81</ele>
        <time>2019-02-07T09:10:51.000Z</time>
      </trkpt>
      <trkpt lat="43.60636" lon="6.8515">
        <ele>81</ele>
        <time>2019-02-07T09:10:52.000Z</time>
      </trkpt>
      <trkpt lat="43.60636" lon="6.85149">
        <ele>82</ele>
        <time>2019-02-07T09:10:53.000Z</time>
      </trkpt>
      <trkpt lat="43.60636" lon="6.85148">
        <ele>82</ele>
        <time>2019-02-07T09:10:54.000Z</time>
      </trkpt>
      <trkpt lat="43.60635" lon="6.85147">
        <ele>82</ele>
        <time>2019-02-07T09:10:55.000Z</time>
      </trkpt>
      <trkpt lat="43.60635" lon="6.85146">
        <ele>82</ele>
        <time>2019-02-07T09:10:56.000Z</time>
      </trkpt>
      <trkpt lat="43.60635" lon="6.85144">
        <ele>82</ele>
        <time>2019-02-07T09:10:57.000Z</time>
      </trkpt>
      <trkpt lat="43.60635" lon="6.85143">
        <ele>82</ele>
        <time>2019-02-07T09:10:58.000Z</time>
      </trkpt>
      <trkpt lat="43.60634" lon="6.85142">
        <ele>83</ele>
        <time>2019-02-07T09:10:59.000Z</time>
      </trkpt>
      <trkpt lat="43.60634" lon="6.85141">
        <ele>83</ele>
        <time>2019-02-07T09:11:00.000Z</time>
      </trkpt>
      <trkpt lat="43.60633" lon="6.85139">
        <ele>83</ele>
        <time>2019-02-07T09:11:01.000Z</time>
      </trkpt>
      <trkpt lat="43.60633" lon="6.85138">
        <ele>84</ele>
        <time>2019-02-07T09:11:02.000Z</time>
      </trkpt>
      <trkpt lat="43.60633" lon="6.85137">
        <ele>84</ele>
        <time>2019-02-07T09:11:03.000Z</time>
      </trkpt>
      <trkpt lat="43.60633" lon="6.85136">
        <ele>84</ele>
        <time>2019-02-07T09:11:04.000Z</time>
      </trkpt>
      <trkpt lat="43.60632" lon="6.85135">
        <ele>85</ele>
        <time>2019-02-07T09:11:05.000Z</time>
      </trkpt>
      <trkpt lat="43.60632" lon="6.85133">
        <ele>85</ele>
        <time>2019-02-07T09:11:06.000Z</time>
      </trkpt>
      <trkpt lat="43.60632" lon="6.85132">
        <ele>85</ele>
        <time>2019-02-07T09:11:07.000Z</time>
      </trkpt>
      <trkpt lat="43.60632" lon="6.8513">
        <ele>85</ele>
        <time>2019-02-07T09:11:08.000Z</time>
      </trkpt>
      <trkpt lat="43.60632" lon="6.85129">
        <ele>85</ele>
        <time>2019-02-07T09:11:09.000Z</time>
      </trkpt>
      <trkpt lat="43.60633" lon="6.85127">
        <ele>85</ele>
        <time>2019-02-07T09:11:10.000Z</time>
      </trkpt>
      <trkpt lat="43.60633" lon="6.85125">
        <ele>85</ele>
        <time>2019-02-07T09:11:11.000Z</time>
      </trkpt>
      <trkpt lat="43.60633" lon="6.85124">
        <ele>86</ele>
        <time>2019-02-07T09:11:12.000Z</time>
      </trkpt>
      <trkpt lat="43.60633" lon="6.85122">
        <ele>86</ele>
        <time>2019-02-07T09:11:13.000Z</time>
      </trkpt>
      <trkpt lat="43.60634" lon="6.85121">
        <ele>86</ele>
        <time>2019-02-07T09:11:14.000Z</time>
      </trkpt>
      <trkpt lat="43.60634" lon="6.85119">
        <ele>86</ele>
        <time>2019-02-07T09:11:15.000Z</time>
      </trkpt>
      <trkpt lat="43.60635" lon="6.85117">
        <ele>86</ele>
        <time>2019-02-07T09:11:16.000Z</time>
      </trkpt>
      <trkpt lat="43.60636" lon="6.85116">
        <ele>86</ele>
        <time>2019-02-07T09:11:17.000Z</time>
      </trkpt>
      <trkpt lat="43.60637" lon="6.85115">
        <ele>87</ele>
        <time>2019-02-07T09:11:18.000Z</time>
      </trkpt>
      <trkpt lat="43.60638" lon="6.85114">
        <ele>87</ele>
        <time>2019-02-07T09:11:19.000Z</time>
      </trkpt>
      <trkpt lat="43.60639" lon="6.85112">
        <ele>87</ele>
        <time>2019-02-07T09:11:20.000Z</time>
      </trkpt>
      <trkpt lat="43.6064" lon="6.85111">
        <ele>87</ele>
        <time>2019-02-07T09:11:21.000Z</time>
      </trkpt>
      <trkpt lat="43.60641" lon="6.8511">
        <ele>87</ele>
        <time>2019-02-07T09:11:22.000Z</time>
      </trkpt>
      <trkpt lat="43.60642" lon="6.85109">
        <ele>87</ele>
        <time>2019-02-07T09:11:23.000Z</time>
      </trkpt>
      <trkpt lat="43.60643" lon="6.85108">
        <ele>88</ele>
        <time>2019-02-07T09:11:24.000Z</time>
      </trkpt>
      <trkpt lat="43.60644" lon="6.85107">
        <ele>88</ele>
        <time>2019-02-07T09:11:25.000Z</time>
      </trkpt>
      <trkpt lat="43.60645" lon="6.85107">
        <ele>88</ele>
        <time>2019-02-07T09:11:26.000Z</time>
      </trkpt>
      <trkpt lat="43.60646" lon="6.85106">
        <ele>88</ele>
        <time>2019-02-07T09:11:27.000Z</time>
      </trkpt>
      <trkpt lat="43.60647" lon="6.85105">
        <ele>88</ele>
        <time>2019-02-07T09:11:28.000Z</time>
      </trkpt>
      <trkpt lat="43.60648" lon="6.85104">
        <ele>89</ele>
        <time>2019-02-07T09:11:29.000Z</time>
      </trkpt>
      <trkpt lat="43.60649" lon="6.85104">
        <ele>89</ele>
        <time>2019-02-07T09:11:30.000Z</time>
      </trkpt>
      <trkpt lat="43.60651" lon="6.85104">
        <ele>89</ele>
        <time>2019-02-07T09:11:31.000Z</time>
      </trkpt>
      <trkpt lat="43.60652" lon="6.85103">
        <ele>90</ele>
        <time>2019-02-07T09:11:32.000Z</time>
      </trkpt>
      <trkpt lat="43.60653" lon="6.85103">
        <ele>90</ele>
        <time>2019-02-07T09:11:33.000Z</time>
      </trkpt>
      <trkpt lat="43.60654" lon="6.85102">
        <ele>91</ele>
        <time>2019-02-07T09:11:34.000Z</time>
      </trkpt>
      <trkpt lat="43.60655" lon="6.85102">
        <ele>91</ele>
        <time>2019-02-07T09:11:35.000Z</time>
      </trkpt>
      <trkpt lat="43.60656" lon="6.85102">
        <ele>91</ele>
        <time>2019-02-07T09:11:36.000Z</time>
      </trkpt>
      <trkpt lat="43.60657" lon="6.85102">
        <ele>91</ele>
        <time>2019-02-07T09:11:37.000Z</time>
      </trkpt>
      <trkpt lat="43.60659" lon="6.85102">
        <ele>90</ele>
        <time>2019-02-07T09:11:38.000Z</time>
      </trkpt>
      <trkpt lat="43.6066" lon="6.85102">
        <ele>91</ele>
        <time>2019-02-07T09:11:39.000Z</time>
      </trkpt>
      <trkpt lat="43.60661" lon="6.85102">
        <ele>91</ele>
        <time>2019-02-07T09:11:40.000Z</time>
      </trkpt>
      <trkpt lat="43.60663" lon="6.85101">
        <ele>91</ele>
        <time>2019-02-07T09:11:41.000Z</time>
      </trkpt>
      <trkpt lat="43.60664" lon="6.85101">
        <ele>91</ele>
        <time>2019-02-07T09:11:42.000Z</time>
      </trkpt>
      <trkpt lat="43.60665" lon="6.85101">
        <ele>91</ele>
        <time>2019-02-07T09:11:43.000Z</time>
      </trkpt>
      <trkpt lat="43.60666" lon="6.85101">
        <ele>92</ele>
        <time>2019-02-07T09:11:44.000Z</time>
      </trkpt>
      <trkpt lat="43.60667" lon="6.85101">
        <ele>92</ele>
        <time>2019-02-07T09:11:45.000Z</time>
      </trkpt>
      <trkpt lat="43.60668" lon="6.85101">
        <ele>92</ele>
        <time>2019-02-07T09:11:46.000Z</time>
      </trkpt>
      <trkpt lat="43.60669" lon="6.85101">
        <ele>92</ele>
        <time>2019-02-07T09:11:47.000Z</time>
      </trkpt>
      <trkpt lat="43.6067" lon="6.85101">
        <ele>93</ele>
        <time>2019-02-07T09:11:48.000Z</time>
      </trkpt>
      <trkpt lat="43.60672" lon="6.85101">
        <ele>93</ele>
        <time>2019-02-07T09:11:49.000Z</time>
      </trkpt>
      <trkpt lat="43.60673" lon="6.85102">
        <ele>93</ele>
        <time>2019-02-07T09:11:50.000Z</time>
      </trkpt>
      <trkpt lat="43.60674" lon="6.85102">
        <ele>93</ele>
        <time>2019-02-07T09:11:51.000Z</time>
      </trkpt>
      <trkpt lat="43.60675" lon="6.85102">
        <ele>93</ele>
        <time>2019-02-07T09:11:52.000Z</time>
      </trkpt>
      <trkpt lat="43.60676" lon="6.85103">
        <ele>93</ele>
        <time>2019-02-07T09:11:53.000Z</time>
      </trkpt>
      <trkpt lat="43.60677" lon="6.85103">
        <ele>94</ele>
        <time>2019-02-07T09:11:54.000Z</time>
      </trkpt>
      <trkpt lat="43.60678" lon="6.85103">
        <ele>95</ele>
        <time>2019-02-07T09:11:55.000Z</time>
      </trkpt>
      <trkpt lat="43.60679" lon="6.85104">
        <ele>95</ele>
        <time>2019-02-07T09:11:56.000Z</time>
      </trkpt>
      <trkpt lat="43.6068" lon="6.85104">
        <ele>94</ele>
        <time>2019-02-07T09:11:57.000Z</time>
      </trkpt>
      <trkpt lat="43.60681" lon="6.85104">
        <ele>95</ele>
        <time>2019-02-07T09:11:58.000Z</time>
      </trkpt>
      <trkpt lat="43.60682" lon="6.85104">
        <ele>96</ele>
        <time>2019-02-07T09:11:59.000Z</time>
      </trkpt>
      <trkpt lat="43.60683" lon="6.85104">
        <ele>96</ele>
        <time>2019-02-07T09:12:00.000Z</time>
      </trkpt>
      <trkpt lat="43.60685" lon="6.85105">
        <ele>97</ele>
        <time>2019-02-07T09:12:01.000Z</time>
      </trkpt>
      <trkpt lat="43.60686" lon="6.85105">
        <ele>97</ele>
        <time>2019-02-07T09:12:02.000Z</time>
      </trkpt>
      <trkpt lat="43.60687" lon="6.85106">
        <ele>97</ele>
        <time>2019-02-07T09:12:03.000Z</time>
      </trkpt>
      <trkpt lat="43.60688" lon="6.85106">
        <ele>97</ele>
        <time>2019-02-07T09:12:04.000Z</time>
      </trkpt>
      <trkpt lat="43.60689" lon="6.85106">
        <ele>97</ele>
        <time>2019-02-07T09:12:05.000Z</time>
      </trkpt>
      <trkpt lat="43.6069" lon="6.85106">
        <ele>96</ele>
        <time>2019-02-07T09:12:06.000Z</time>
      </trkpt>
      <trkpt lat="43.60691" lon="6.85107">
        <ele>96</ele>
        <time>2019-02-07T09:12:07.000Z</time>
      </trkpt>
      <trkpt lat="43.60692" lon="6.85107">
        <ele>95</ele>
        <time>2019-02-07T09:12:08.000Z</time>
      </trkpt>
      <trkpt lat="43.60693" lon="6.85107">
        <ele>94</ele>
        <time>2019-02-07T09:12:09.000Z</time>
      </trkpt>
      <trkpt lat="43.60695" lon="6.85108">
        <ele>94</ele>
        <time>2019-02-07T09:12:10.000Z</time>
      </trkpt>
      <trkpt lat="43.60696" lon="6.85107">
        <ele>94</ele>
        <time>2019-02-07T09:12:11.000Z</time>
      </trkpt>
      <trkpt lat="43.60697" lon="6.85107">
        <ele>94</ele>
        <time>2019-02-07T09:12:12.000Z</time>
      </trkpt>
      <trkpt lat="43.60698" lon="6.85107">
        <ele>94</ele>
        <time>2019-02-07T09:12:13.000Z</time>
      </trkpt>
      <trkpt lat="43.60699" lon="6.85107">
        <ele>94</ele>
        <time>2019-02-07T09:12:14.000Z</time>
      </trkpt>
      <trkpt lat="43.607" lon="6.85106">
        <ele>94</ele>
        <time>2019-02-07T09:12:15.000Z</time>
      </trkpt>
      <trkpt lat="43.60702" lon="6.85106">
        <ele>94</ele>
        <time>2019-02-07T09:12:16.000Z</time>
      </trkpt>
      <trkpt lat="43.60703" lon="6.85105">
        <ele>94</ele>
        <time>2019-02-07T09:12:17.000Z</time>
      </trkpt>
      <trkpt lat="43.60704" lon="6.85105">
        <ele>94</ele>
        <time>2019-02-07T09:12:18.000Z</time>
      </trkpt>
      <trkpt lat="43.60705" lon="6.85104">
        <ele>94</ele>
        <time>2019-02-07T09:12:19.000Z</time>
      </trkpt>
      <trkpt lat="43.60706" lon="6.85104">
        <ele>95</ele>
        <time>2019-02-07T09:12:20.000Z</time>
      </trkpt>
      <trkpt lat="43.60708" lon="6.85103">
        <ele>95</ele>
        <time>2019-02-07T09:12:21.000Z</time>
      </trkpt>
      <trkpt lat="43.60709" lon="6.85102">
        <ele>94</ele>
        <time>2019-02-07T09:12:22.000Z</time>
      </trkpt>
      <trkpt lat="43.6071" lon="6.85102">
        <ele>95</ele>
        <time>2019-02-07T09:12:23.000Z</time>
      </trkpt>
      <trkpt lat="43.60711" lon="6.85101">
        <ele>95</ele>
        <time>2019-02-07T09:12:24.000Z</time>
      </trkpt>
      <trkpt lat="43.60712" lon="6.851">
        <ele>96</ele>
        <time>2019-02-07T09:12:25.000Z</time>
      </trkpt>
      <trkpt lat="43.60713" lon="6.85099">
        <ele>96</ele>
        <time>2019-02-07T09:12:26.000Z</time>
      </trkpt>
      <trkpt lat="43.60714" lon="6.85098">
        <ele>96</ele>
        <time>2019-02-07T09:12:27.000Z</time>
      </trkpt>
      <trkpt lat="43.60715" lon="6.85098">
        <ele>97</ele>
        <time>2019-02-07T09:12:28.000Z</time>
      </trkpt>
      <trkpt lat="43.60717" lon="6.85097">
        <ele>96</ele>
        <time>2019-02-07T09:12:29.000Z</time>
      </trkpt>
      <trkpt lat="43.60718" lon="6.85096">
        <ele>96</ele>
        <time>2019-02-07T09:12:30.000Z</time>
      </trkpt>
      <trkpt lat="43.60719" lon="6.85095">
        <ele>96</ele>
        <time>2019-02-07T09:12:31.000Z</time>
      </trkpt>
      <trkpt lat="43.6072" lon="6.85094">
        <ele>96</ele>
        <time>2019-02-07T09:12:32.000Z</time>
      </trkpt>
      <trkpt lat="43.60721" lon="6.85094">
        <ele>96</ele>
        <time>2019-02-07T09:12:33.000Z</time>
      </trkpt>
      <trkpt lat="43.60722" lon="6.85093">
        <ele>96</ele>
        <time>2019-02-07T09:12:34.000Z</time>
      </trkpt>
      <trkpt lat="43.60723" lon="6.85093">
        <ele>95</ele>
        <time>2019-02-07T09:12:35.000Z</time>
      </trkpt>
      <trkpt lat="43.60725" lon="6.85093">
        <ele>95</ele>
        <time>2019-02-07T09:12:36.000Z</time>
      </trkpt>
      <trkpt lat="43.60726" lon="6.85092">
        <ele>96</ele>
        <time>2019-02-07T09:12:37.000Z</time>
      </trkpt>
      <trkpt lat="43.60727" lon="6.85092">
        <ele>95</ele>
        <time>2019-02-07T09:12:38.000Z</time>
      </trkpt>
      <trkpt lat="43.60728" lon="6.85092">
        <ele>96</ele>
        <time>2019-02-07T09:12:39.000Z</time>
      </trkpt>
      <trkpt lat="43.60729" lon="6.85092">
        <ele>96</ele>
        <time>2019-02-07T09:12:40.000Z</time>
      </trkpt>
      <trkpt lat="43.6073" lon="6.85091">
        <ele>96</ele>
        <time>2019-02-07T09:12:41.000Z</time>
      </trkpt>
      <trkpt lat="43.60731" lon="6.85091">
        <ele>95</ele>
        <time>2019-02-07T09:12:42.000Z</time>
      </trkpt>
      <trkpt lat="43.60732" lon="6.85091">
        <ele>95</ele>
        <time>2019-02-07T09:12:43.000Z</time>
      </trkpt>
      <trkpt lat="43.60733" lon="6.8509">
        <ele>96</ele>
        <time>2019-02-07T09:12:44.000Z</time>
      </trkpt>
      <trkpt lat="43.60734" lon="6.8509">
        <ele>96</ele>
        <time>2019-02-07T09:12:45.000Z</time>
      </trkpt>
      <trkpt lat="43.60735" lon="6.8509">
        <ele>96</ele>
        <time>2019-02-07T09:12:46.000Z</time>
      </trkpt>
      <trkpt lat="43.60737" lon="6.8509">
        <ele>96</ele>
        <time>2019-02-07T09:12:47.000Z</time>
      </trkpt>
      <trkpt lat="43.60738" lon="6.85089">
        <ele>96</ele>
        <time>2019-02-07T09:12:48.000Z</time>
      </trkpt>
      <trkpt lat="43.60739" lon="6.85089">
        <ele>96</ele>
        <time>2019-02-07T09:12:49.000Z</time>
      </trkpt>
      <trkpt lat="43.6074" lon="6.85088">
        <ele>96</ele>
        <time>2019-02-07T09:12:50.000Z</time>
      </trkpt>
      <trkpt lat="43.60741" lon="6.85088">
        <ele>97</ele>
        <time>2019-02-07T09:12:51.000Z</time>
      </trkpt>
      <trkpt lat="43.60742" lon="6.85087">
        <ele>97</ele>
        <time>2019-02-07T09:12:52.000Z</time>
      </trkpt>
      <trkpt lat="43.60743" lon="6.85087">
        <ele>98</ele>
        <time>2019-02-07T09:12:53.000Z</time>
      </trkpt>
      <trkpt lat="43.60745" lon="6.85086">
        <ele>98</ele>
        <time>2019-02-07T09:12:54.000Z</time>
      </trkpt>
      <trkpt lat="43.60746" lon="6.85086">
        <ele>99</ele>
        <time>2019-02-07T09:12:55.000Z</time>
      </trkpt>
      <trkpt lat="43.60747" lon="6.85085">
        <ele>100</ele>
        <time>2019-02-07T09:12:56.000Z</time>
      </trkpt>
      <trkpt lat="43.60748" lon="6.85084">
        <ele>100</ele>
        <time>2019-02-07T09:12:57.000Z</time>
      </trkpt>
      <trkpt lat="43.60749" lon="6.85084">
        <ele>100</ele>
        <time>2019-02-07T09:12:58.000Z</time>
      </trkpt>
      <trkpt lat="43.6075" lon="6.85083">
        <ele>100</ele>
        <time>2019-02-07T09:12:59.000Z</time>
      </trkpt>
      <trkpt lat="43.6075" lon="6.85083">
        <ele>100</ele>
        <time>2019-02-07T09:13:00.000Z</time>
      </trkpt>
      <trkpt lat="43.60751" lon="6.85083">
        <ele>100</ele>
        <time>2019-02-07T09:13:01.000Z</time>
      </trkpt>
      <trkpt lat="43.60752" lon="6.85082">
        <ele>100</ele>
        <time>2019-02-07T09:13:02.000Z</time>
      </trkpt>
      <trkpt lat="43.60753" lon="6.85081">
        <ele>100</ele>
        <time>2019-02-07T09:13:03.000Z</time>
      </trkpt>
      <trkpt lat="43.60754" lon="6.85081">
        <ele>100</ele>
        <time>2019-02-07T09:13:04.000Z</time>
      </trkpt>
      <trkpt lat="43.60755" lon="6.8508">
        <ele>100</ele>
        <time>2019-02-07T09:13:05.000Z</time>
      </trkpt>
      <trkpt lat="43.60756" lon="6.85079">
        <ele>101</ele>
        <time>2019-02-07T09:13:06.000Z</time>
      </trkpt>
      <trkpt lat="43.60757" lon="6.85079">
        <ele>102</ele>
        <time>2019-02-07T09:13:07.000Z</time>
      </trkpt>
      <trkpt lat="43.60758" lon="6.85078">
        <ele>102</ele>
        <time>2019-02-07T09:13:08.000Z</time>
      </trkpt>
      <trkpt lat="43.60759" lon="6.85078">
        <ele>103</ele>
        <time>2019-02-07T09:13:09.000Z</time>
      </trkpt>
      <trkpt lat="43.6076" lon="6.85078">
        <ele>102</ele>
        <time>2019-02-07T09:13:10.000Z</time>
      </trkpt>
      <trkpt lat="43.60761" lon="6.85077">
        <ele>103</ele>
        <time>2019-02-07T09:13:11.000Z</time>
      </trkpt>
      <trkpt lat="43.60763" lon="6.85077">
        <ele>103</ele>
        <time>2019-02-07T09:13:12.000Z</time>
      </trkpt>
      <trkpt lat="43.60764" lon="6.85077">
        <ele>103</ele>
        <time>2019-02-07T09:13:13.000Z</time>
      </trkpt>
      <trkpt lat="43.60765" lon="6.85076">
        <ele>103</ele>
        <time>2019-02-07T09:13:14.000Z</time>
      </trkpt>
      <trkpt lat="43.60766" lon="6.85076">
        <ele>103</ele>
        <time>2019-02-07T09:13:15.000Z</time>
      </trkpt>
      <trkpt lat="43.60767" lon="6.85076">
        <ele>104</ele>
        <time>2019-02-07T09:13:16.000Z</time>
      </trkpt>
      <trkpt lat="43.60768" lon="6.85075">
        <ele>104</ele>
        <time>2019-02-07T09:13:17.000Z</time>
      </trkpt>
      <trkpt lat="43.60769" lon="6.85075">
        <ele>104</ele>
        <time>2019-02-07T09:13:18.000Z</time>
      </trkpt>
      <trkpt lat="43.6077" lon="6.85074">
        <ele>104</ele>
        <time>2019-02-07T09:13:19.000Z</time>
      </trkpt>
      <trkpt lat="43.60771" lon="6.85073">
        <ele>105</ele>
        <time>2019-02-07T09:13:20.000Z</time>
      </trkpt>
      <trkpt lat="43.60772" lon="6.85072">
        <ele>105</ele>
        <time>2019-02-07T09:13:21.000Z</time>
      </trkpt>
      <trkpt lat="43.60773" lon="6.85072">
        <ele>105</ele>
        <time>2019-02-07T09:13:22.000Z</time>
      </trkpt>
      <trkpt lat="43.60774" lon="6.85071">
        <ele>106</ele>
        <time>2019-02-07T09:13:23.000Z</time>
      </trkpt>
      <trkpt lat="43.60775" lon="6.8507">
        <ele>106</ele>
        <time>2019-02-07T09:13:24.000Z</time>
      </trkpt>
      <trkpt lat="43.60776" lon="6.8507">
        <ele>106</ele>
        <time>2019-02-07T09:13:25.000Z</time>
      </trkpt>
      <trkpt lat="43.60777" lon="6.85069">
        <ele>106</ele>
        <time>2019-02-07T09:13:26.000Z</time>
      </trkpt>
      <trkpt lat="43.60778" lon="6.85068">
        <ele>106</ele>
        <time>2019-02-07T09:13:27.000Z</time>
      </trkpt>
      <trkpt lat="43.60779" lon="6.85068">
        <ele>107</ele>
        <time>2019-02-07T09:13:28.000Z</time>
      </trkpt>
      <trkpt lat="43.60781" lon="6.85067">
        <ele>107</ele>
        <time>2019-02-07T09:13:29.000Z</time>
      </trkpt>
      <trkpt lat="43.60782" lon="6.85067">
        <ele>107</ele>
        <time>2019-02-07T09:13:30.000Z</time>
      </trkpt>
      <trkpt lat="43.60783" lon="6.85066">
        <ele>107</ele>
        <time>2019-02-07T09:13:31.000Z</time>
      </trkpt>
      <trkpt lat="43.60784" lon="6.85066">
        <ele>107</ele>
        <time>2019-02-07T09:13:32.000Z</time>
      </trkpt>
      <trkpt lat="43.60785" lon="6.85065">
        <ele>108</ele>
        <time>2019-02-07T09:13:33.000Z</time>
      </trkpt>
      <trkpt lat="43.60786" lon="6.85065">
        <ele>108</ele>
        <time>2019-02-07T09:13:34.000Z</time>
      </trkpt>
      <trkpt lat="43.60787" lon="6.85064">
        <ele>108</ele>
        <time>2019-02-07T09:13:35.000Z</time>
      </trkpt>
      <trkpt lat="43.60788" lon="6.85064">
        <ele>108</ele>
        <time>2019-02-07T09:13:36.000Z</time>
      </trkpt>
      <trkpt lat="43.6079" lon="6.85063">
        <ele>109</ele>
        <time>2019-02-07T09:13:37.000Z</time>
      </trkpt>
      <trkpt lat="43.60791" lon="6.85062">
        <ele>109</ele>
        <time>2019-02-07T09:13:38.000Z</time>
      </trkpt>
      <trkpt lat="43.60792" lon="6.85062">
        <ele>109</ele>
        <time>2019-02-07T09:13:39.000Z</time>
      </trkpt>
      <trkpt lat="43.60793" lon="6.85061">
        <ele>109</ele>
        <time>2019-02-07T09:13:40.000Z</time>
      </trkpt>
      <trkpt lat="43.60794" lon="6.85061">
        <ele>109</ele>
        <time>2019-02-07T09:13:41.000Z</time>
      </trkpt>
      <trkpt lat="43.60795" lon="6.8506">
        <ele>109</ele>
        <time>2019-02-07T09:13:42.000Z</time>
      </trkpt>
      <trkpt lat="43.60796" lon="6.8506">
        <ele>110</ele>
        <time>2019-02-07T09:13:43.000Z</time>
      </trkpt>
      <trkpt lat="43.60797" lon="6.8506">
        <ele>110</ele>
        <time>2019-02-07T09:13:44.000Z</time>
      </trkpt>
      <trkpt lat="43.60798" lon="6.85059">
        <ele>110</ele>
        <time>2019-02-07T09:13:45.000Z</time>
      </trkpt>
      <trkpt lat="43.60799" lon="6.85059">
        <ele>110</ele>
        <time>2019-02-07T09:13:46.000Z</time>
      </trkpt>
      <trkpt lat="43.608" lon="6.85058">
        <ele>110</ele>
        <time>2019-02-07T09:13:47.000Z</time>
      </trkpt>
      <trkpt lat="43.60801" lon="6.85058">
        <ele>110</ele>
        <time>2019-02-07T09:13:48.000Z</time>
      </trkpt>
      <trkpt lat="43.60803" lon="6.85057">
        <ele>110</ele>
        <time>2019-02-07T09:13:49.000Z</time>
      </trkpt>
      <trkpt lat="43.60804" lon="6.85057">
        <ele>110</ele>
        <time>2019-02-07T09:13:50.000Z</time>
      </trkpt>
      <trkpt lat="43.60805" lon="6.85056">
        <ele>110</ele>
        <time>2019-02-07T09:13:51.000Z</time>
      </trkpt>
      <trkpt lat="43.60806" lon="6.85056">
        <ele>111</ele>
        <time>2019-02-07T09:13:52.000Z</time>
      </trkpt>
      <trkpt lat="43.60807" lon="6.85056">
        <ele>111</ele>
        <time>2019-02-07T09:13:53.000Z</time>
      </trkpt>
      <trkpt lat="43.60808" lon="6.85055">
        <ele>111</ele>
        <time>2019-02-07T09:13:54.000Z</time>
      </trkpt>
      <trkpt lat="43.60809" lon="6.85055">
        <ele>111</ele>
        <time>2019-02-07T09:13:55.000Z</time>
      </trkpt>
      <trkpt lat="43.60811" lon="6.85054">
        <ele>112</ele>
        <time>2019-02-07T09:13:56.000Z</time>
      </trkpt>
      <trkpt lat="43.60812" lon="6.85054">
        <ele>111</ele>
        <time>2019-02-07T09:13:57.000Z</time>
      </trkpt>
      <trkpt lat="43.60813" lon="6.85054">
        <ele>111</ele>
        <time>2019-02-07T09:13:58.000Z</time>
      </trkpt>
      <trkpt lat="43.60814" lon="6.85053">
        <ele>111</ele>
        <time>2019-02-07T09:13:59.000Z</time>
      </trkpt>
      <trkpt lat="43.60815" lon="6.85053">
        <ele>111</ele>
        <time>2019-02-07T09:14:00.000Z</time>
      </trkpt>
      <trkpt lat="43.60816" lon="6.85052">
        <ele>111</ele>
        <time>2019-02-07T09:14:01.000Z</time>
      </trkpt>
      <trkpt lat="43.60817" lon="6.85051">
        <ele>112</ele>
        <time>2019-02-07T09:14:02.000Z</time>
      </trkpt>
      <trkpt lat="43.60819" lon="6.85051">
        <ele>112</ele>
        <time>2019-02-07T09:14:03.000Z</time>
      </trkpt>
      <trkpt lat="43.6082" lon="6.8505">
        <ele>112</ele>
        <time>2019-02-07T09:14:04.000Z</time>
      </trkpt>
      <trkpt lat="43.60821" lon="6.85049">
        <ele>113</ele>
        <time>2019-02-07T09:14:05.000Z</time>
      </trkpt>
      <trkpt lat="43.60822" lon="6.85048">
        <ele>112</ele>
        <time>2019-02-07T09:14:06.000Z</time>
      </trkpt>
      <trkpt lat="43.60822" lon="6.85047">
        <ele>113</ele>
        <time>2019-02-07T09:14:07.000Z</time>
      </trkpt>
      <trkpt lat="43.60823" lon="6.85046">
        <ele>112</ele>
        <time>2019-02-07T09:14:08.000Z</time>
      </trkpt>
      <trkpt lat="43.60824" lon="6.85045">
        <ele>113</ele>
        <time>2019-02-07T09:14:09.000Z</time>
      </trkpt>
      <trkpt lat="43.60825" lon="6.85045">
        <ele>113</ele>
        <time>2019-02-07T09:14:10.000Z</time>
      </trkpt>
      <trkpt lat="43.60826" lon="6.85044">
        <ele>113</ele>
        <time>2019-02-07T09:14:11.000Z</time>
      </trkpt>
      <trkpt lat="43.60827" lon="6.85043">
        <ele>113</ele>
        <time>2019-02-07T09:14:12.000Z</time>
      </trkpt>
      <trkpt lat="43.60828" lon="6.85042">
        <ele>113</ele>
        <time>2019-02-07T09:14:13.000Z</time>
      </trkpt>
      <trkpt lat="43.60829" lon="6.85042">
        <ele>113</ele>
        <time>2019-02-07T09:14:14.000Z</time>
      </trkpt>
      <trkpt lat="43.60829" lon="6.85041">
        <ele>112</ele>
        <time>2019-02-07T09:14:15.000Z</time>
      </trkpt>
      <trkpt lat="43.6083" lon="6.8504">
        <ele>113</ele>
        <time>2019-02-07T09:14:16.000Z</time>
      </trkpt>
      <trkpt lat="43.60831" lon="6.85039">
        <ele>113</ele>
        <time>2019-02-07T09:14:17.000Z</time>
      </trkpt>
      <trkpt lat="43.60832" lon="6.85038">
        <ele>113</ele>
        <time>2019-02-07T09:14:18.000Z</time>
      </trkpt>
      <trkpt lat="43.60833" lon="6.85038">
        <ele>113</ele>
        <time>2019-02-07T09:14:19.000Z</time>
      </trkpt>
      <trkpt lat="43.60834" lon="6.85036">
        <ele>114</ele>
        <time>2019-02-07T09:14:20.000Z</time>
      </trkpt>
      <trkpt lat="43.60834" lon="6.85035">
        <ele>114</ele>
        <time>2019-02-07T09:14:21.000Z</time>
      </trkpt>
      <trkpt lat="43.60835" lon="6.85034">
        <ele>115</ele>
        <time>2019-02-07T09:14:22.000Z</time>
      </trkpt>
      <trkpt lat="43.60836" lon="6.85033">
        <ele>115</ele>
        <time>2019-02-07T09:14:23.000Z</time>
      </trkpt>
      <trkpt lat="43.60837" lon="6.85032">
        <ele>115</ele>
        <time>2019-02-07T09:14:24.000Z</time>
      </trkpt>
      <trkpt lat="43.60838" lon="6.85031">
        <ele>116</ele>
        <time>2019-02-07T09:14:25.000Z</time>
      </trkpt>
      <trkpt lat="43.60838" lon="6.85031">
        <ele>116</ele>
        <time>2019-02-07T09:14:26.000Z</time>
      </trkpt>
      <trkpt lat="43.60839" lon="6.8503">
        <ele>115</ele>
        <time>2019-02-07T09:14:27.000Z</time>
      </trkpt>
      <trkpt lat="43.6084" lon="6.85029">
        <ele>115</ele>
        <time>2019-02-07T09:14:28.000Z</time>
      </trkpt>
      <trkpt lat="43.60841" lon="6.85028">
        <ele>115</ele>
        <time>2019-02-07T09:14:29.000Z</time>
      </trkpt>
      <trkpt lat="43.60842" lon="6.85027">
        <ele>116</ele>
        <time>2019-02-07T09:14:30.000Z</time>
      </trkpt>
      <trkpt lat="43.60843" lon="6.85026">
        <ele>116</ele>
        <time>2019-02-07T09:14:31.000Z</time>
      </trkpt>
      <trkpt lat="43.60844" lon="6.85026">
        <ele>116</ele>
        <time>2019-02-07T09:14:32.000Z</time>
      </trkpt>
      <trkpt lat="43.60845" lon="6.85025">
        <ele>117</ele>
        <time>2019-02-07T09:14:33.000Z</time>
      </trkpt>
      <trkpt lat="43.60847" lon="6.85024">
        <ele>117</ele>
        <time>2019-02-07T09:14:34.000Z</time>
      </trkpt>
      <trkpt lat="43.60848" lon="6.85024">
        <ele>117</ele>
        <time>2019-02-07T09:14:35.000Z</time>
      </trkpt>
      <trkpt lat="43.60849" lon="6.85024">
        <ele>117</ele>
        <time>2019-02-07T09:14:36.000Z</time>
      </trkpt>
      <trkpt lat="43.60851" lon="6.85024">
        <ele>117</ele>
        <time>2019-02-07T09:14:37.000Z</time>
      </trkpt>
      <trkpt lat="43.60852" lon="6.85025">
        <ele>117</ele>
        <time>2019-02-07T09:14:38.000Z</time>
      </trkpt>
      <trkpt lat="43.60853" lon="6.85025">
        <ele>117</ele>
        <time>2019-02-07T09:14:39.000Z</time>
      </trkpt>
      <trkpt lat="43.60854" lon="6.85025">
        <ele>117</ele>
        <time>2019-02-07T09:14:40.000Z</time>
      </trkpt>
      <trkpt lat="43.60854" lon="6.85026">
        <ele>117</ele>
        <time>2019-02-07T09:14:41.000Z</time>
      </trkpt>
      <trkpt lat="43.60855" lon="6.85026">
        <ele>118</ele>
        <time>2019-02-07T09:14:42.000Z</time>
      </trkpt>
      <trkpt lat="43.60856" lon="6.85026">
        <ele>118</ele>
        <time>2019-02-07T09:14:43.000Z</time>
      </trkpt>
      <trkpt lat="43.60857" lon="6.85026">
        <ele>118</ele>
        <time>2019-02-07T09:14:44.000Z</time>
      </trkpt>
      <trkpt lat="43.60858" lon="6.85026">
        <ele>118</ele>
        <time>2019-02-07T09:14:45.000Z</time>
      </trkpt>
      <trkpt lat="43.60859" lon="6.85027">
        <ele>118</ele>
        <time>2019-02-07T09:14:46.000Z</time>
      </trkpt>
      <trkpt lat="43.6086" lon="6.85027">
        <ele>119</ele>
        <time>2019-02-07T09:14:47.000Z</time>
      </trkpt>
      <trkpt lat="43.60862" lon="6.85027">
        <ele>119</ele>
        <time>2019-02-07T09:14:48.000Z</time>
      </trkpt>
      <trkpt lat="43.60863" lon="6.85028">
        <ele>119</ele>
        <time>2019-02-07T09:14:49.000Z</time>
      </trkpt>
      <trkpt lat="43.60864" lon="6.85028">
        <ele>119</ele>
        <time>2019-02-07T09:14:50.000Z</time>
      </trkpt>
      <trkpt lat="43.60865" lon="6.85029">
        <ele>119</ele>
        <time>2019-02-07T09:14:51.000Z</time>
      </trkpt>
      <trkpt lat="43.60866" lon="6.85029">
        <ele>120</ele>
        <time>2019-02-07T09:14:52.000Z</time>
      </trkpt>
      <trkpt lat="43.60867" lon="6.8503">
        <ele>120</ele>
        <time>2019-02-07T09:14:53.000Z</time>
      </trkpt>
      <trkpt lat="43.60868" lon="6.8503">
        <ele>120</ele>
        <time>2019-02-07T09:14:54.000Z</time>
      </trkpt>
      <trkpt lat="43.60869" lon="6.85031">
        <ele>120</ele>
        <time>2019-02-07T09:14:55.000Z</time>
      </trkpt>
      <trkpt lat="43.6087" lon="6.85032">
        <ele>120</ele>
        <time>2019-02-07T09:14:56.000Z</time>
      </trkpt>
      <trkpt lat="43.60871" lon="6.85033">
        <ele>120</ele>
        <time>2019-02-07T09:14:57.000Z</time>
      </trkpt>
      <trkpt lat="43.60871" lon="6.85033">
        <ele>121</ele>
        <time>2019-02-07T09:14:58.000Z</time>
      </trkpt>
      <trkpt lat="43.60872" lon="6.85034">
        <ele>121</ele>
        <time>2019-02-07T09:14:59.000Z</time>
      </trkpt>
      <trkpt lat="43.60873" lon="6.85035">
        <ele>121</ele>
        <time>2019-02-07T09:15:00.000Z</time>
      </trkpt>
      <trkpt lat="43.60874" lon="6.85035">
        <ele>122</ele>
        <time>2019-02-07T09:15:01.000Z</time>
      </trkpt>
      <trkpt lat="43.60874" lon="6.85036">
        <ele>122</ele>
        <time>2019-02-07T09:15:02.000Z</time>
      </trkpt>
      <trkpt lat="43.60875" lon="6.85037">
        <ele>123</ele>
        <time>2019-02-07T09:15:03.000Z</time>
      </trkpt>
      <trkpt lat="43.60876" lon="6.85038">
        <ele>123</ele>
        <time>2019-02-07T09:15:04.000Z</time>
      </trkpt>
      <trkpt lat="43.60876" lon="6.85038">
        <ele>124</ele>
        <time>2019-02-07T09:15:05.000Z</time>
      </trkpt>
      <trkpt lat="43.60877" lon="6.85039">
        <ele>124</ele>
        <time>2019-02-07T09:15:06.000Z</time>
      </trkpt>
      <trkpt lat="43.60878" lon="6.8504">
        <ele>125</ele>
        <time>2019-02-07T09:15:07.000Z</time>
      </trkpt>
      <trkpt lat="43.60878" lon="6.85041">
        <ele>124</ele>
        <time>2019-02-07T09:15:08.000Z</time>
      </trkpt>
      <trkpt lat="43.60879" lon="6.85041">
        <ele>125</ele>
        <time>2019-02-07T09:15:09.000Z</time>
      </trkpt>
      <trkpt lat="43.6088" lon="6.85042">
        <ele>125</ele>
        <time>2019-02-07T09:15:10.000Z</time>
      </trkpt>
      <trkpt lat="43.60881" lon="6.85043">
        <ele>125</ele>
        <time>2019-02-07T09:15:11.000Z</time>
      </trkpt>
      <trkpt lat="43.60881" lon="6.85044">
        <ele>126</ele>
        <time>2019-02-07T09:15:12.000Z</time>
      </trkpt>
      <trkpt lat="43.60882" lon="6.85045">
        <ele>126</ele>
        <time>2019-02-07T09:15:13.000Z</time>
      </trkpt>
      <trkpt lat="43.60882" lon="6.85045">
        <ele>127</ele>
        <time>2019-02-07T09:15:14.000Z</time>
      </trkpt>
      <trkpt lat="43.60883" lon="6.85046">
        <ele>127</ele>
        <time>2019-02-07T09:15:15.000Z</time>
      </trkpt>
      <trkpt lat="43.60883" lon="6.85047">
        <ele>127</ele>
        <time>2019-02-07T09:15:16.000Z</time>
      </trkpt>
      <trkpt lat="43.60884" lon="6.85047">
        <ele>126</ele>
        <time>2019-02-07T09:15:17.000Z</time>
      </trkpt>
      <trkpt lat="43.60885" lon="6.85048">
        <ele>126</ele>
        <time>2019-02-07T09:15:18.000Z</time>
      </trkpt>
      <trkpt lat="43.60886" lon="6.85049">
        <ele>126</ele>
        <time>2019-02-07T09:15:19.000Z</time>
      </trkpt>
      <trkpt lat="43.60886" lon="6.8505">
        <ele>126</ele>
        <time>2019-02-07T09:15:20.000Z</time>
      </trkpt>
      <trkpt lat="43.60887" lon="6.85051">
        <ele>125</ele>
        <time>2019-02-07T09:15:21.000Z</time>
      </trkpt>
      <trkpt lat="43.60887" lon="6.85052">
        <ele>125</ele>
        <time>2019-02-07T09:15:22.000Z</time>
      </trkpt>
      <trkpt lat="43.60888" lon="6.85052">
        <ele>125</ele>
        <time>2019-02-07T09:15:23.000Z</time>
      </trkpt>
      <trkpt lat="43.60889" lon="6.85053">
        <ele>125</ele>
        <time>2019-02-07T09:15:24.000Z</time>
      </trkpt>
      <trkpt lat="43.60891" lon="6.85054">
        <ele>125</ele>
        <time>2019-02-07T09:15:25.000Z</time>
      </trkpt>
      <trkpt lat="43.60892" lon="6.85055">
        <ele>125</ele>
        <time>2019-02-07T09:15:26.000Z</time>
      </trkpt>
      <trkpt lat="43.60893" lon="6.85056">
        <ele>125</ele>
        <time>2019-02-07T09:15:27.000Z</time>
      </trkpt>
      <trkpt lat="43.60895" lon="6.85056">
        <ele>126</ele>
        <time>2019-02-07T09:15:28.000Z</time>
      </trkpt>
      <trkpt lat="43.60896" lon="6.85057">
        <ele>126</ele>
        <time>2019-02-07T09:15:29.000Z</time>
      </trkpt>
      <trkpt lat="43.60897" lon="6.85058">
        <ele>126</ele>
        <time>2019-02-07T09:15:30.000Z</time>
      </trkpt>
      <trkpt lat="43.60898" lon="6.85059">
        <ele>126</ele>
        <time>2019-02-07T09:15:31.000Z</time>
      </trkpt>
      <trkpt lat="43.60899" lon="6.8506">
        <ele>126</ele>
        <time>2019-02-07T09:15:32.000Z</time>
      </trkpt>
      <trkpt lat="43.609" lon="6.8506">
        <ele>127</ele>
        <time>2019-02-07T09:15:33.000Z</time>
      </trkpt>
      <trkpt lat="43.60902" lon="6.85062">
        <ele>126</ele>
        <time>2019-02-07T09:15:34.000Z</time>
      </trkpt>
      <trkpt lat="43.60903" lon="6.85063">
        <ele>127</ele>
        <time>2019-02-07T09:15:35.000Z</time>
      </trkpt>
      <trkpt lat="43.60904" lon="6.85064">
        <ele>127</ele>
        <time>2019-02-07T09:15:36.000Z</time>
      </trkpt>
      <trkpt lat="43.60905" lon="6.85065">
        <ele>127</ele>
        <time>2019-02-07T09:15:37.000Z</time>
      </trkpt>
      <trkpt lat="43.60905" lon="6.85066">
        <ele>127</ele>
        <time>2019-02-07T09:15:38.000Z</time>
      </trkpt>
      <trkpt lat="43.60906" lon="6.85067">
        <ele>127</ele>
        <time>2019-02-07T09:15:39.000Z</time>
      </trkpt>
      <trkpt lat="43.60907" lon="6.85068">
        <ele>127</ele>
        <time>2019-02-07T09:15:40.000Z</time>
      </trkpt>
      <trkpt lat="43.60908" lon="6.85069">
        <ele>127</ele>
        <time>2019-02-07T09:15:41.000Z</time>
      </trkpt>
      <trkpt lat="43.60909" lon="6.8507">
        <ele>127</ele>
        <time>2019-02-07T09:15:42.000Z</time>
      </trkpt>
      <trkpt lat="43.6091" lon="6.85071">
        <ele>127</ele>
        <time>2019-02-07T09:15:43.000Z</time>
      </trkpt>
      <trkpt lat="43.60911" lon="6.85072">
        <ele>127</ele>
        <time>2019-02-07T09:15:44.000Z</time>
      </trkpt>
      <trkpt lat="43.60912" lon="6.85072">
        <ele>128</ele>
        <time>2019-02-07T09:15:45.000Z</time>
      </trkpt>
      <trkpt lat="43.60913" lon="6.85073">
        <ele>128</ele>
        <time>2019-02-07T09:15:46.000Z</time>
      </trkpt>
      <trkpt lat="43.60914" lon="6.85075">
        <ele>129</ele>
        <time>2019-02-07T09:15:47.000Z</time>
      </trkpt>
      <trkpt lat="43.60915" lon="6.85076">
        <ele>129</ele>
        <time>2019-02-07T09:15:48.000Z</time>
      </trkpt>
      <trkpt lat="43.60916" lon="6.85077">
        <ele>129</ele>
        <time>2019-02-07T09:15:49.000Z</time>
      </trkpt>
      <trkpt lat="43.60917" lon="6.85077">
        <ele>130</ele>
        <time>2019-02-07T09:15:50.000Z</time>
      </trkpt>
      <trkpt lat="43.60918" lon="6.85078">
        <ele>130</ele>
        <time>2019-02-07T09:15:51.000Z</time>
      </trkpt>
      <trkpt lat="43.60919" lon="6.85078">
        <ele>129</ele>
        <time>2019-02-07T09:15:52.000Z</time>
      </trkpt>
      <trkpt lat="43.6092" lon="6.85078">
        <ele>129</ele>
        <time>2019-02-07T09:15:53.000Z</time>
      </trkpt>
      <trkpt lat="43.60921" lon="6.85078">
        <ele>129</ele>
        <time>2019-02-07T09:15:54.000Z</time>
      </trkpt>
      <trkpt lat="43.60922" lon="6.85077">
        <ele>130</ele>
        <time>2019-02-07T09:15:55.000Z</time>
      </trkpt>
      <trkpt lat="43.60922" lon="6.85076">
        <ele>130</ele>
        <time>2019-02-07T09:15:56.000Z</time>
      </trkpt>
      <trkpt lat="43.60923" lon="6.85075">
        <ele>131</ele>
        <time>2019-02-07T09:15:57.000Z</time>
      </trkpt>
      <trkpt lat="43.60923" lon="6.85074">
        <ele>131</ele>
        <time>2019-02-07T09:15:58.000Z</time>
      </trkpt>
      <trkpt lat="43.60924" lon="6.85072">
        <ele>131</ele>
        <time>2019-02-07T09:15:59.000Z</time>
      </trkpt>
      <trkpt lat="43.60924" lon="6.85071">
        <ele>132</ele>
        <time>2019-02-07T09:16:00.000Z</time>
      </trkpt>
      <trkpt lat="43.60924" lon="6.85069">
        <ele>132</ele>
        <time>2019-02-07T09:16:01.000Z</time>
      </trkpt>
      <trkpt lat="43.60924" lon="6.85068">
        <ele>132</ele>
        <time>2019-02-07T09:16:02.000Z</time>
      </trkpt>
      <trkpt lat="43.60923" lon="6.85067">
        <ele>132</ele>
        <time>2019-02-07T09:16:03.000Z</time>
      </trkpt>
      <trkpt lat="43.60923" lon="6.85065">
        <ele>131</ele>
        <time>2019-02-07T09:16:04.000Z</time>
      </trkpt>
      <trkpt lat="43.60923" lon="6.85064">
        <ele>131</ele>
        <time>2019-02-07T09:16:05.000Z</time>
      </trkpt>
      <trkpt lat="43.60922" lon="6.85063">
        <ele>132</ele>
        <time>2019-02-07T09:16:06.000Z</time>
      </trkpt>
      <trkpt lat="43.60922" lon="6.85061">
        <ele>132</ele>
        <time>2019-02-07T09:16:07.000Z</time>
      </trkpt>
      <trkpt lat="43.60922" lon="6.85059">
        <ele>132</ele>
        <time>2019-02-07T09:16:08.000Z</time>
      </trkpt>
      <trkpt lat="43.60921" lon="6.85058">
        <ele>132</ele>
        <time>2019-02-07T09:16:09.000Z</time>
      </trkpt>
      <trkpt lat="43.60921" lon="6.85056">
        <ele>132</ele>
        <time>2019-02-07T09:16:10.000Z</time>
      </trkpt>
      <trkpt lat="43.60921" lon="6.85054">
        <ele>132</ele>
        <time>2019-02-07T09:16:11.000Z</time>
      </trkpt>
      <trkpt lat="43.6092" lon="6.85052">
        <ele>132</ele>
        <time>2019-02-07T09:16:12.000Z</time>
      </trkpt>
      <trkpt lat="43.6092" lon="6.85051">
        <ele>132</ele>
        <time>2019-02-07T09:16:13.000Z</time>
      </trkpt>
      <trkpt lat="43.6092" lon="6.85049">
        <ele>132</ele>
        <time>2019-02-07T09:16:14.000Z</time>
      </trkpt>
      <trkpt lat="43.6092" lon="6.85047">
        <ele>132</ele>
        <time>2019-02-07T09:16:15.000Z</time>
      </trkpt>
      <trkpt lat="43.6092" lon="6.85046">
        <ele>132</ele>
        <time>2019-02-07T09:16:16.000Z</time>
      </trkpt>
      <trkpt lat="43.6092" lon="6.85044">
        <ele>133</ele>
        <time>2019-02-07T09:16:17.000Z</time>
      </trkpt>
      <trkpt lat="43.6092" lon="6.85042">
        <ele>133</ele>
        <time>2019-02-07T09:16:18.000Z</time>
      </trkpt>
      <trkpt lat="43.6092" lon="6.8504">
        <ele>132</ele>
        <time>2019-02-07T09:16:19.000Z</time>
      </trkpt>
      <trkpt lat="43.6092" lon="6.85039">
        <ele>132</ele>
        <time>2019-02-07T09:16:20.000Z</time>
      </trkpt>
      <trkpt lat="43.6092" lon="6.85037">
        <ele>132</ele>
        <time>2019-02-07T09:16:21.000Z</time>
      </trkpt>
      <trkpt lat="43.6092" lon="6.85035">
        <ele>133</ele>
        <time>2019-02-07T09:16:22.000Z</time>
      </trkpt>
      <trkpt lat="43.6092" lon="6.85033">
        <ele>133</ele>
        <time>2019-02-07T09:16:23.000Z</time>
      </trkpt>
      <trkpt lat="43.6092" lon="6.85032">
        <ele>133</ele>
        <time>2019-02-07T09:16:24.000Z</time>
      </trkpt>
      <trkpt lat="43.6092" lon="6.8503">
        <ele>133</ele>
        <time>2019-02-07T09:16:25.000Z</time>
      </trkpt>
      <trkpt lat="43.6092" lon="6.85029">
        <ele>133</ele>
        <time>2019-02-07T09:16:26.000Z</time>
      </trkpt>
      <trkpt lat="43.60921" lon="6.85028">
        <ele>133</ele>
        <time>2019-02-07T09:16:27.000Z</time>
      </trkpt>
      <trkpt lat="43.60921" lon="6.85026">
        <ele>133</ele>
        <time>2019-02-07T09:16:28.000Z</time>
      </trkpt>
      <trkpt lat="43.60921" lon="6.85024">
        <ele>133</ele>
        <time>2019-02-07T09:16:29.000Z</time>
      </trkpt>
      <trkpt lat="43.60922" lon="6.85022">
        <ele>133</ele>
        <time>2019-02-07T09:16:30.000Z</time>
      </trkpt>
      <trkpt lat="43.60922" lon="6.8502">
        <ele>134</ele>
        <time>2019-02-07T09:16:31.000Z</time>
      </trkpt>
      <trkpt lat="43.60923" lon="6.85019">
        <ele>134</ele>
        <time>2019-02-07T09:16:32.000Z</time>
      </trkpt>
      <trkpt lat="43.60923" lon="6.85017">
        <ele>134</ele>
        <time>2019-02-07T09:16:33.000Z</time>
      </trkpt>
      <trkpt lat="43.60924" lon="6.85016">
        <ele>134</ele>
        <time>2019-02-07T09:16:34.000Z</time>
      </trkpt>
      <trkpt lat="43.60924" lon="6.85014">
        <ele>134</ele>
        <time>2019-02-07T09:16:35.000Z</time>
      </trkpt>
      <trkpt lat="43.60924" lon="6.85013">
        <ele>134</ele>
        <time>2019-02-07T09:16:36.000Z</time>
      </trkpt>
      <trkpt lat="43.60924" lon="6.85011">
        <ele>134</ele>
        <time>2019-02-07T09:16:37.000Z</time>
      </trkpt>
      <trkpt lat="43.60925" lon="6.8501">
        <ele>134</ele>
        <time>2019-02-07T09:16:38.000Z</time>
      </trkpt>
      <trkpt lat="43.60925" lon="6.85008">
        <ele>134</ele>
        <time>2019-02-07T09:16:39.000Z</time>
      </trkpt>
      <trkpt lat="43.60925" lon="6.85007">
        <ele>134</ele>
        <time>2019-02-07T09:16:40.000Z</time>
      </trkpt>
      <trkpt lat="43.60926" lon="6.85005">
        <ele>134</ele>
        <time>2019-02-07T09:16:41.000Z</time>
      </trkpt>
      <trkpt lat="43.60926" lon="6.85003">
        <ele>134</ele>
        <time>2019-02-07T09:16:42.000Z</time>
      </trkpt>
      <trkpt lat="43.60926" lon="6.85002">
        <ele>133</ele>
        <time>2019-02-07T09:16:43.000Z</time>
      </trkpt>
      <trkpt lat="43.60926" lon="6.85">
        <ele>133</ele>
        <time>2019-02-07T09:16:44.000Z</time>
      </trkpt>
      <trkpt lat="43.60926" lon="6.84998">
        <ele>133</ele>
        <time>2019-02-07T09:16:45.000Z</time>
      </trkpt>
      <trkpt lat="43.60926" lon="6.84997">
        <ele>133</ele>
        <time>2019-02-07T09:16:46.000Z</time>
      </trkpt>
      <trkpt lat="43.60926" lon="6.84995">
        <ele>133</ele>
        <time>2019-02-07T09:16:47.000Z</time>
      </trkpt>
      <trkpt lat="43.60927" lon="6.84993">
        <ele>133</ele>
        <time>2019-02-07T09:16:48.000Z</time>
      </trkpt>
      <trkpt lat="43.60927" lon="6.84991">
        <ele>133</ele>
        <time>2019-02-07T09:16:49.000Z</time>
      </trkpt>
      <trkpt lat="43.60929" lon="6.8499">
        <ele>134</ele>
        <time>2019-02-07T09:16:50.000Z</time>
      </trkpt>
      <trkpt lat="43.6093" lon="6.84989">
        <ele>134</ele>
        <time>2019-02-07T09:16:51.000Z</time>
      </trkpt>
      <trkpt lat="43.60931" lon="6.84988">
        <ele>135</ele>
        <time>2019-02-07T09:16:52.000Z</time>
      </trkpt>
      <trkpt lat="43.60933" lon="6.84988">
        <ele>135</ele>
        <time>2019-02-07T09:16:53.000Z</time>
      </trkpt>
      <trkpt lat="43.60934" lon="6.84988">
        <ele>135</ele>
        <time>2019-02-07T09:16:54.000Z</time>
      </trkpt>
      <trkpt lat="43.60935" lon="6.84988">
        <ele>135</ele>
        <time>2019-02-07T09:16:55.000Z</time>
      </trkpt>
      <trkpt lat="43.60936" lon="6.8499">
        <ele>135</ele>
        <time>2019-02-07T09:16:56.000Z</time>
      </trkpt>
      <trkpt lat="43.60937" lon="6.84991">
        <ele>135</ele>
        <time>2019-02-07T09:16:57.000Z</time>
      </trkpt>
      <trkpt lat="43.60937" lon="6.84992">
        <ele>135</ele>
        <time>2019-02-07T09:16:58.000Z</time>
      </trkpt>
      <trkpt lat="43.60938" lon="6.84993">
        <ele>136</ele>
        <time>2019-02-07T09:16:59.000Z</time>
      </trkpt>
      <trkpt lat="43.60938" lon="6.84995">
        <ele>136</ele>
        <time>2019-02-07T09:17:00.000Z</time>
      </trkpt>
      <trkpt lat="43.60938" lon="6.84996">
        <ele>136</ele>
        <time>2019-02-07T09:17:01.000Z</time>
      </trkpt>
      <trkpt lat="43.60939" lon="6.84997">
        <ele>136</ele>
        <time>2019-02-07T09:17:02.000Z</time>
      </trkpt>
      <trkpt lat="43.60939" lon="6.84998">
        <ele>137</ele>
        <time>2019-02-07T09:17:03.000Z</time>
      </trkpt>
      <trkpt lat="43.6094" lon="6.85">
        <ele>137</ele>
        <time>2019-02-07T09:17:04.000Z</time>
      </trkpt>
      <trkpt lat="43.6094" lon="6.85001">
        <ele>137</ele>
        <time>2019-02-07T09:17:05.000Z</time>
      </trkpt>
      <trkpt lat="43.60941" lon="6.85002">
        <ele>137</ele>
        <time>2019-02-07T09:17:06.000Z</time>
      </trkpt>
      <trkpt lat="43.60941" lon="6.85004">
        <ele>138</ele>
        <time>2019-02-07T09:17:07.000Z</time>
      </trkpt>
      <trkpt lat="43.60941" lon="6.85005">
        <ele>139</ele>
        <time>2019-02-07T09:17:08.000Z</time>
      </trkpt>
      <trkpt lat="43.60942" lon="6.85006">
        <ele>139</ele>
        <time>2019-02-07T09:17:09.000Z</time>
      </trkpt>
      <trkpt lat="43.60942" lon="6.85007">
        <ele>139</ele>
        <time>2019-02-07T09:17:10.000Z</time>
      </trkpt>
      <trkpt lat="43.60943" lon="6.85008">
        <ele>139</ele>
        <time>2019-02-07T09:17:11.000Z</time>
      </trkpt>
      <trkpt lat="43.60943" lon="6.85009">
        <ele>139</ele>
        <time>2019-02-07T09:17:12.000Z</time>
      </trkpt>
      <trkpt lat="43.60944" lon="6.8501">
        <ele>139</ele>
        <time>2019-02-07T09:17:13.000Z</time>
      </trkpt>
      <trkpt lat="43.60945" lon="6.85011">
        <ele>139</ele>
        <time>2019-02-07T09:17:14.000Z</time>
      </trkpt>
      <trkpt lat="43.60945" lon="6.85013">
        <ele>140</ele>
        <time>2019-02-07T09:17:15.000Z</time>
      </trkpt>
      <trkpt lat="43.60946" lon="6.85014">
        <ele>140</ele>
        <time>2019-02-07T09:17:16.000Z</time>
      </trkpt>
      <trkpt lat="43.60946" lon="6.85016">
        <ele>140</ele>
        <time>2019-02-07T09:17:17.000Z</time>
      </trkpt>
      <trkpt lat="43.60947" lon="6.85017">
        <ele>140</ele>
        <time>2019-02-07T09:17:18.000Z</time>
      </trkpt>
      <trkpt lat="43.60948" lon="6.85018">
        <ele>140</ele>
        <time>2019-02-07T09:17:19.000Z</time>
      </trkpt>
      <trkpt lat="43.60948" lon="6.85019">
        <ele>140</ele>
        <time>2019-02-07T09:17:20.000Z</time>
      </trkpt>
      <trkpt lat="43.60949" lon="6.8502">
        <ele>140</ele>
        <time>2019-02-07T09:17:21.000Z</time>
      </trkpt>
      <trkpt lat="43.6095" lon="6.85021">
        <ele>141</ele>
        <time>2019-02-07T09:17:22.000Z</time>
      </trkpt>
      <trkpt lat="43.6095" lon="6.85022">
        <ele>141</ele>
        <time>2019-02-07T09:17:23.000Z</time>
      </trkpt>
      <trkpt lat="43.60951" lon="6.85023">
        <ele>141</ele>
        <time>2019-02-07T09:17:24.000Z</time>
      </trkpt>
      <trkpt lat="43.60952" lon="6.85024">
        <ele>142</ele>
        <time>2019-02-07T09:17:25.000Z</time>
      </trkpt>
      <trkpt lat="43.60953" lon="6.85024">
        <ele>142</ele>
        <time>2019-02-07T09:17:26.000Z</time>
      </trkpt>
      <trkpt lat="43.60953" lon="6.85025">
        <ele>143</ele>
        <time>2019-02-07T09:17:27.000Z</time>
      </trkpt>
      <trkpt lat="43.60954" lon="6.85027">
        <ele>143</ele>
        <time>2019-02-07T09:17:28.000Z</time>
      </trkpt>
      <trkpt lat="43.60955" lon="6.85028">
        <ele>143</ele>
        <time>2019-02-07T09:17:29.000Z</time>
      </trkpt>
      <trkpt lat="43.60956" lon="6.85029">
        <ele>144</ele>
        <time>2019-02-07T09:17:30.000Z</time>
      </trkpt>
      <trkpt lat="43.60956" lon="6.8503">
        <ele>144</ele>
        <time>2019-02-07T09:17:31.000Z</time>
      </trkpt>
      <trkpt lat="43.60957" lon="6.8503">
        <ele>144</ele>
        <time>2019-02-07T09:17:32.000Z</time>
      </trkpt>
      <trkpt lat="43.60958" lon="6.85031">
        <ele>144</ele>
        <time>2019-02-07T09:17:33.000Z</time>
      </trkpt>
      <trkpt lat="43.60959" lon="6.85032">
        <ele>144</ele>
        <time>2019-02-07T09:17:34.000Z</time>
      </trkpt>
      <trkpt lat="43.6096" lon="6.85032">
        <ele>145</ele>
        <time>2019-02-07T09:17:35.000Z</time>
      </trkpt>
      <trkpt lat="43.60961" lon="6.85032">
        <ele>145</ele>
        <time>2019-02-07T09:17:36.000Z</time>
      </trkpt>
      <trkpt lat="43.60962" lon="6.85032">
        <ele>146</ele>
        <time>2019-02-07T09:17:37.000Z</time>
      </trkpt>
      <trkpt lat="43.60963" lon="6.85033">
        <ele>146</ele>
        <time>2019-02-07T09:17:38.000Z</time>
      </trkpt>
      <trkpt lat="43.60965" lon="6.85033">
        <ele>146</ele>
        <time>2019-02-07T09:17:39.000Z</time>
      </trkpt>
      <trkpt lat="43.60966" lon="6.85033">
        <ele>147</ele>
        <time>2019-02-07T09:17:40.000Z</time>
      </trkpt>
      <trkpt lat="43.60967" lon="6.85033">
        <ele>147</ele>
        <time>2019-02-07T09:17:41.000Z</time>
      </trkpt>
      <trkpt lat="43.60968" lon="6.85034">
        <ele>146</ele>
        <time>2019-02-07T09:17:42.000Z</time>
      </trkpt>
      <trkpt lat="43.6097" lon="6.85034">
        <ele>146</ele>
        <time>2019-02-07T09:17:43.000Z</time>
      </trkpt>
      <trkpt lat="43.60971" lon="6.85034">
        <ele>146</ele>
        <time>2019-02-07T09:17:44.000Z</time>
      </trkpt>
      <trkpt lat="43.60972" lon="6.85034">
        <ele>147</ele>
        <time>2019-02-07T09:17:45.000Z</time>
      </trkpt>
      <trkpt lat="43.60973" lon="6.85033">
        <ele>147</ele>
        <time>2019-02-07T09:17:46.000Z</time>
      </trkpt>
      <trkpt lat="43.60974" lon="6.85033">
        <ele>147</ele>
        <time>2019-02-07T09:17:47.000Z</time>
      </trkpt>
      <trkpt lat="43.60975" lon="6.85033">
        <ele>146</ele>
        <time>2019-02-07T09:17:48.000Z</time>
      </trkpt>
      <trkpt lat="43.60976" lon="6.85032">
        <ele>146</ele>
        <time>2019-02-07T09:17:49.000Z</time>
      </trkpt>
      <trkpt lat="43.60977" lon="6.85032">
        <ele>147</ele>
        <time>2019-02-07T09:17:50.000Z</time>
      </trkpt>
      <trkpt lat="43.60979" lon="6.85032">
        <ele>147</ele>
        <time>2019-02-07T09:17:51.000Z</time>
      </trkpt>
      <trkpt lat="43.6098" lon="6.85031">
        <ele>147</ele>
        <time>2019-02-07T09:17:52.000Z</time>
      </trkpt>
      <trkpt lat="43.60981" lon="6.85031">
        <ele>147</ele>
        <time>2019-02-07T09:17:53.000Z</time>
      </trkpt>
      <trkpt lat="43.60982" lon="6.8503">
        <ele>148</ele>
        <time>2019-02-07T09:17:54.000Z</time>
      </trkpt>
      <trkpt lat="43.60984" lon="6.85029">
        <ele>147</ele>
        <time>2019-02-07T09:17:55.000Z</time>
      </trkpt>
      <trkpt lat="43.60985" lon="6.85029">
        <ele>148</ele>
        <time>2019-02-07T09:17:56.000Z</time>
      </trkpt>
      <trkpt lat="43.60986" lon="6.85028">
        <ele>148</ele>
        <time>2019-02-07T09:17:57.000Z</time>
      </trkpt>
      <trkpt lat="43.60986" lon="6.85027">
        <ele>148</ele>
        <time>2019-02-07T09:17:58.000Z</time>
      </trkpt>
      <trkpt lat="43.60987" lon="6.85027">
        <ele>147</ele>
        <time>2019-02-07T09:17:59.000Z</time>
      </trkpt>
      <trkpt lat="43.60988" lon="6.85026">
        <ele>148</ele>
        <time>2019-02-07T09:18:00.000Z</time>
      </trkpt>
      <trkpt lat="43.60989" lon="6.85026">
        <ele>148</ele>
        <time>2019-02-07T09:18:01.000Z</time>
      </trkpt>
      <trkpt lat="43.6099" lon="6.85025">
        <ele>148</ele>
        <time>2019-02-07T09:18:02.000Z</time>
      </trkpt>
      <trkpt lat="43.60991" lon="6.85025">
        <ele>148</ele>
        <time>2019-02-07T09:18:03.000Z</time>
      </trkpt>
      <trkpt lat="43.60992" lon="6.85024">
        <ele>149</ele>
        <time>2019-02-07T09:18:04.000Z</time>
      </trkpt>
      <trkpt lat="43.60993" lon="6.85024">
        <ele>149</ele>
        <time>2019-02-07T09:18:05.000Z</time>
      </trkpt>
      <trkpt lat="43.60994" lon="6.85023">
        <ele>149</ele>
        <time>2019-02-07T09:18:06.000Z</time>
      </trkpt>
      <trkpt lat="43.60995" lon="6.85023">
        <ele>149</ele>
        <time>2019-02-07T09:18:07.000Z</time>
      </trkpt>
      <trkpt lat="43.60996" lon="6.85022">
        <ele>150</ele>
        <time>2019-02-07T09:18:08.000Z</time>
      </trkpt>
      <trkpt lat="43.60997" lon="6.85022">
        <ele>150</ele>
        <time>2019-02-07T09:18:09.000Z</time>
      </trkpt>
      <trkpt lat="43.60998" lon="6.85021">
        <ele>150</ele>
        <time>2019-02-07T09:18:10.000Z</time>
      </trkpt>
      <trkpt lat="43.60999" lon="6.85021">
        <ele>151</ele>
        <time>2019-02-07T09:18:11.000Z</time>
      </trkpt>
      <trkpt lat="43.61001" lon="6.8502">
        <ele>151</ele>
        <time>2019-02-07T09:18:12.000Z</time>
      </trkpt>
      <trkpt lat="43.61002" lon="6.8502">
        <ele>151</ele>
        <time>2019-02-07T09:18:13.000Z</time>
      </trkpt>
      <trkpt lat="43.61003" lon="6.85019">
        <ele>151</ele>
        <time>2019-02-07T09:18:14.000Z</time>
      </trkpt>
      <trkpt lat="43.61004" lon="6.85018">
        <ele>152</ele>
        <time>2019-02-07T09:18:15.000Z</time>
      </trkpt>
      <trkpt lat="43.61005" lon="6.85018">
        <ele>152</ele>
        <time>2019-02-07T09:18:16.000Z</time>
      </trkpt>
      <trkpt lat="43.61006" lon="6.85017">
        <ele>152</ele>
        <time>2019-02-07T09:18:17.000Z</time>
      </trkpt>
      <trkpt lat="43.61007" lon="6.85017">
        <ele>152</ele>
        <time>2019-02-07T09:18:18.000Z</time>
      </trkpt>
      <trkpt lat="43.61008" lon="6.85016">
        <ele>152</ele>
        <time>2019-02-07T09:18:19.000Z</time>
      </trkpt>
      <trkpt lat="43.61009" lon="6.85016">
        <ele>152</ele>
        <time>2019-02-07T09:18:20.000Z</time>
      </trkpt>
      <trkpt lat="43.6101" lon="6.85015">
        <ele>152</ele>
        <time>2019-02-07T09:18:21.000Z</time>
      </trkpt>
      <trkpt lat="43.61011" lon="6.85015">
        <ele>153</ele>
        <time>2019-02-07T09:18:22.000Z</time>
      </trkpt>
      <trkpt lat="43.61012" lon="6.85014">
        <ele>152</ele>
        <time>2019-02-07T09:18:23.000Z</time>
      </trkpt>
      <trkpt lat="43.61013" lon="6.85014">
        <ele>152</ele>
        <time>2019-02-07T09:18:24.000Z</time>
      </trkpt>
      <trkpt lat="43.61014" lon="6.85013">
        <ele>153</ele>
        <time>2019-02-07T09:18:25.000Z</time>
      </trkpt>
      <trkpt lat="43.61015" lon="6.85012">
        <ele>154</ele>
        <time>2019-02-07T09:18:26.000Z</time>
      </trkpt>
      <trkpt lat="43.61016" lon="6.85011">
        <ele>155</ele>
        <time>2019-02-07T09:18:27.000Z</time>
      </trkpt>
      <trkpt lat="43.61017" lon="6.85011">
        <ele>156</ele>
        <time>2019-02-07T09:18:28.000Z</time>
      </trkpt>
      <trkpt lat="43.61018" lon="6.8501">
        <ele>157</ele>
        <time>2019-02-07T09:18:29.000Z</time>
      </trkpt>
      <trkpt lat="43.61019" lon="6.85009">
        <ele>158</ele>
        <time>2019-02-07T09:18:30.000Z</time>
      </trkpt>
      <trkpt lat="43.61021" lon="6.85009">
        <ele>159</ele>
        <time>2019-02-07T09:18:31.000Z</time>
      </trkpt>
      <trkpt lat="43.61022" lon="6.85008">
        <ele>159</ele>
        <time>2019-02-07T09:18:32.000Z</time>
      </trkpt>
      <trkpt lat="43.61023" lon="6.85007">
        <ele>160</ele>
        <time>2019-02-07T09:18:33.000Z</time>
      </trkpt>
      <trkpt lat="43.61024" lon="6.85006">
        <ele>160</ele>
        <time>2019-02-07T09:18:34.000Z</time>
      </trkpt>
      <trkpt lat="43.61025" lon="6.85006">
        <ele>160</ele>
        <time>2019-02-07T09:18:35.000Z</time>
      </trkpt>
      <trkpt lat="43.61026" lon="6.85005">
        <ele>161</ele>
        <time>2019-02-07T09:18:36.000Z</time>
      </trkpt>
      <trkpt lat="43.61027" lon="6.85005">
        <ele>161</ele>
        <time>2019-02-07T09:18:37.000Z</time>
      </trkpt>
      <trkpt lat="43.61028" lon="6.85006">
        <ele>162</ele>
        <time>2019-02-07T09:18:38.000Z</time>
      </trkpt>
      <trkpt lat="43.61029" lon="6.85006">
        <ele>163</ele>
        <time>2019-02-07T09:18:39.000Z</time>
      </trkpt>
      <trkpt lat="43.6103" lon="6.85006">
        <ele>163</ele>
        <time>2019-02-07T09:18:40.000Z</time>
      </trkpt>
      <trkpt lat="43.61031" lon="6.85006">
        <ele>162</ele>
        <time>2019-02-07T09:18:41.000Z</time>
      </trkpt>
      <trkpt lat="43.61032" lon="6.85006">
        <ele>162</ele>
        <time>2019-02-07T09:18:42.000Z</time>
      </trkpt>
      <trkpt lat="43.61033" lon="6.85006">
        <ele>162</ele>
        <time>2019-02-07T09:18:43.000Z</time>
      </trkpt>
      <trkpt lat="43.61034" lon="6.85006">
        <ele>162</ele>
        <time>2019-02-07T09:18:44.000Z</time>
      </trkpt>
      <trkpt lat="43.61035" lon="6.85005">
        <ele>162</ele>
        <time>2019-02-07T09:18:45.000Z</time>
      </trkpt>
      <trkpt lat="43.61035" lon="6.85005">
        <ele>161</ele>
        <time>2019-02-07T09:18:46.000Z</time>
      </trkpt>
      <trkpt lat="43.61036" lon="6.85005">
        <ele>162</ele>
        <time>2019-02-07T09:18:47.000Z</time>
      </trkpt>
      <trkpt lat="43.61036" lon="6.85004">
        <ele>161</ele>
        <time>2019-02-07T09:18:48.000Z</time>
      </trkpt>
      <trkpt lat="43.61036" lon="6.85004">
        <ele>160</ele>
        <time>2019-02-07T09:18:49.000Z</time>
      </trkpt>
      <trkpt lat="43.61037" lon="6.85004">
        <ele>159</ele>
        <time>2019-02-07T09:18:50.000Z</time>
      </trkpt>
      <trkpt lat="43.61037" lon="6.85004">
        <ele>158</ele>
        <time>2019-02-07T09:18:51.000Z</time>
      </trkpt>
      <trkpt lat="43.61037" lon="6.85003">
        <ele>159</ele>
        <time>2019-02-07T09:18:52.000Z</time>
      </trkpt>
      <trkpt lat="43.61037" lon="6.85003">
        <ele>158</ele>
        <time>2019-02-07T09:18:53.000Z</time>
      </trkpt>
      <trkpt lat="43.61037" lon="6.85003">
        <ele>158</ele>
        <time>2019-02-07T09:18:54.000Z</time>
      </trkpt>
      <trkpt lat="43.61036" lon="6.85002">
        <ele>157</ele>
        <time>2019-02-07T09:18:55.000Z</time>
      </trkpt>
      <trkpt lat="43.61036" lon="6.85002">
        <ele>157</ele>
        <time>2019-02-07T09:18:56.000Z</time>
      </trkpt>
      <trkpt lat="43.61035" lon="6.85001">
        <ele>157</ele>
        <time>2019-02-07T09:18:57.000Z</time>
      </trkpt>
      <trkpt lat="43.61035" lon="6.85">
        <ele>157</ele>
        <time>2019-02-07T09:18:58.000Z</time>
      </trkpt>
      <trkpt lat="43.61034" lon="6.84999">
        <ele>157</ele>
        <time>2019-02-07T09:18:59.000Z</time>
      </trkpt>
      <trkpt lat="43.61034" lon="6.84999">
        <ele>157</ele>
        <time>2019-02-07T09:19:00.000Z</time>
      </trkpt>
      <trkpt lat="43.61033" lon="6.84998">
        <ele>157</ele>
        <time>2019-02-07T09:19:01.000Z</time>
      </trkpt>
      <trkpt lat="43.61032" lon="6.84997">
        <ele>157</ele>
        <time>2019-02-07T09:19:02.000Z</time>
      </trkpt>
      <trkpt lat="43.61031" lon="6.84996">
        <ele>157</ele>
        <time>2019-02-07T09:19:03.000Z</time>
      </trkpt>
      <trkpt lat="43.6103" lon="6.84996">
        <ele>157</ele>
        <time>2019-02-07T09:19:04.000Z</time>
      </trkpt>
      <trkpt lat="43.61029" lon="6.84995">
        <ele>157</ele>
        <time>2019-02-07T09:19:05.000Z</time>
      </trkpt>
      <trkpt lat="43.61028" lon="6.84994">
        <ele>157</ele>
        <time>2019-02-07T09:19:06.000Z</time>
      </trkpt>
      <trkpt lat="43.61027" lon="6.84993">
        <ele>158</ele>
        <time>2019-02-07T09:19:07.000Z</time>
      </trkpt>
      <trkpt lat="43.61026" lon="6.84993">
        <ele>157</ele>
        <time>2019-02-07T09:19:08.000Z</time>
      </trkpt>
      <trkpt lat="43.61025" lon="6.84992">
        <ele>158</ele>
        <time>2019-02-07T09:19:09.000Z</time>
      </trkpt>
      <trkpt lat="43.61025" lon="6.84992">
        <ele>158</ele>
        <time>2019-02-07T09:19:10.000Z</time>
      </trkpt>
      <trkpt lat="43.61024" lon="6.84991">
        <ele>158</ele>
        <time>2019-02-07T09:19:11.000Z</time>
      </trkpt>
      <trkpt lat="43.61023" lon="6.8499">
        <ele>158</ele>
        <time>2019-02-07T09:19:12.000Z</time>
      </trkpt>
      <trkpt lat="43.61022" lon="6.8499">
        <ele>159</ele>
        <time>2019-02-07T09:19:13.000Z</time>
      </trkpt>
      <trkpt lat="43.61021" lon="6.84989">
        <ele>159</ele>
        <time>2019-02-07T09:19:14.000Z</time>
      </trkpt>
      <trkpt lat="43.61021" lon="6.84988">
        <ele>159</ele>
        <time>2019-02-07T09:19:15.000Z</time>
      </trkpt>
      <trkpt lat="43.6102" lon="6.84987">
        <ele>159</ele>
        <time>2019-02-07T09:19:16.000Z</time>
      </trkpt>
      <trkpt lat="43.61019" lon="6.84986">
        <ele>160</ele>
        <time>2019-02-07T09:19:17.000Z</time>
      </trkpt>
      <trkpt lat="43.61018" lon="6.84985">
        <ele>160</ele>
        <time>2019-02-07T09:19:18.000Z</time>
      </trkpt>
      <trkpt lat="43.61017" lon="6.84984">
        <ele>160</ele>
        <time>2019-02-07T09:19:19.000Z</time>
      </trkpt>
      <trkpt lat="43.61017" lon="6.84983">
        <ele>160</ele>
        <time>2019-02-07T09:19:20.000Z</time>
      </trkpt>
      <trkpt lat="43.61016" lon="6.84982">
        <ele>160</ele>
        <time>2019-02-07T09:19:21.000Z</time>
      </trkpt>
      <trkpt lat="43.61015" lon="6.84981">
        <ele>161</ele>
        <time>2019-02-07T09:19:22.000Z</time>
      </trkpt>
      <trkpt lat="43.61015" lon="6.84979">
        <ele>160</ele>
        <time>2019-02-07T09:19:23.000Z</time>
      </trkpt>
      <trkpt lat="43.61014" lon="6.84978">
        <ele>160</ele>
        <time>2019-02-07T09:19:24.000Z</time>
      </trkpt>
      <trkpt lat="43.61014" lon="6.84977">
        <ele>160</ele>
        <time>2019-02-07T09:19:25.000Z</time>
      </trkpt>
      <trkpt lat="43.61013" lon="6.84975">
        <ele>161</ele>
        <time>2019-02-07T09:19:26.000Z</time>
      </trkpt>
      <trkpt lat="43.61013" lon="6.84974">
        <ele>161</ele>
        <time>2019-02-07T09:19:27.000Z</time>
      </trkpt>
      <trkpt lat="43.61013" lon="6.84972">
        <ele>161</ele>
        <time>2019-02-07T09:19:28.000Z</time>
      </trkpt>
      <trkpt lat="43.61012" lon="6.8497">
        <ele>161</ele>
        <time>2019-02-07T09:19:29.000Z</time>
      </trkpt>
      <trkpt lat="43.61012" lon="6.84969">
        <ele>161</ele>
        <time>2019-02-07T09:19:30.000Z</time>
      </trkpt>
      <trkpt lat="43.61012" lon="6.84967">
        <ele>162</ele>
        <time>2019-02-07T09:19:31.000Z</time>
      </trkpt>
      <trkpt lat="43.61012" lon="6.84966">
        <ele>162</ele>
        <time>2019-02-07T09:19:32.000Z</time>
      </trkpt>
      <trkpt lat="43.61011" lon="6.84964">
        <ele>162</ele>
        <time>2019-02-07T09:19:33.000Z</time>
      </trkpt>
      <trkpt lat="43.61011" lon="6.84963">
        <ele>162</ele>
        <time>2019-02-07T09:19:34.000Z</time>
      </trkpt>
      <trkpt lat="43.61011" lon="6.84961">
        <ele>162</ele>
        <time>2019-02-07T09:19:35.000Z</time>
      </trkpt>
      <trkpt lat="43.61011" lon="6.84959">
        <ele>161</ele>
        <time>2019-02-07T09:19:36.000Z</time>
      </trkpt>
      <trkpt lat="43.61012" lon="6.84957">
        <ele>160</ele>
        <time>2019-02-07T09:19:37.000Z</time>
      </trkpt>
      <trkpt lat="43.61012" lon="6.84955">
        <ele>160</ele>
        <time>2019-02-07T09:19:38.000Z</time>
      </trkpt>
      <trkpt lat="43.61012" lon="6.84953">
        <ele>160</ele>
        <time>2019-02-07T09:19:39.000Z</time>
      </trkpt>
      <trkpt lat="43.61013" lon="6.84952">
        <ele>160</ele>
        <time>2019-02-07T09:19:40.000Z</time>
      </trkpt>
      <trkpt lat="43.61013" lon="6.8495">
        <ele>160</ele>
        <time>2019-02-07T09:19:41.000Z</time>
      </trkpt>
      <trkpt lat="43.61014" lon="6.84948">
        <ele>160</ele>
        <time>2019-02-07T09:19:42.000Z</time>
      </trkpt>
      <trkpt lat="43.61014" lon="6.84947">
        <ele>160</ele>
        <time>2019-02-07T09:19:43.000Z</time>
      </trkpt>
      <trkpt lat="43.61015" lon="6.84946">
        <ele>160</ele>
        <time>2019-02-07T09:19:44.000Z</time>
      </trkpt>
      <trkpt lat="43.61017" lon="6.84945">
        <ele>161</ele>
        <time>2019-02-07T09:19:45.000Z</time>
      </trkpt>
      <trkpt lat="43.61018" lon="6.84944">
        <ele>161</ele>
        <time>2019-02-07T09:19:46.000Z</time>
      </trkpt>
      <trkpt lat="43.61019" lon="6.84943">
        <ele>162</ele>
        <time>2019-02-07T09:19:47.000Z</time>
      </trkpt>
      <trkpt lat="43.6102" lon="6.84943">
        <ele>163</ele>
        <time>2019-02-07T09:19:48.000Z</time>
      </trkpt>
      <trkpt lat="43.61021" lon="6.84942">
        <ele>163</ele>
        <time>2019-02-07T09:19:49.000Z</time>
      </trkpt>
      <trkpt lat="43.61022" lon="6.84942">
        <ele>163</ele>
        <time>2019-02-07T09:19:50.000Z</time>
      </trkpt>
      <trkpt lat="43.61023" lon="6.84942">
        <ele>164</ele>
        <time>2019-02-07T09:19:51.000Z</time>
      </trkpt>
      <trkpt lat="43.61024" lon="6.84943">
        <ele>164</ele>
        <time>2019-02-07T09:19:52.000Z</time>
      </trkpt>
      <trkpt lat="43.61025" lon="6.84943">
        <ele>164</ele>
        <time>2019-02-07T09:19:53.000Z</time>
      </trkpt>
      <trkpt lat="43.61026" lon="6.84943">
        <ele>164</ele>
        <time>2019-02-07T09:19:54.000Z</time>
      </trkpt>
      <trkpt lat="43.61028" lon="6.84943">
        <ele>164</ele>
        <time>2019-02-07T09:19:55.000Z</time>
      </trkpt>
      <trkpt lat="43.61029" lon="6.84944">
        <ele>164</ele>
        <time>2019-02-07T09:19:56.000Z</time>
      </trkpt>
      <trkpt lat="43.6103" lon="6.84944">
        <ele>164</ele>
        <time>2019-02-07T09:19:57.000Z</time>
      </trkpt>
      <trkpt lat="43.61031" lon="6.84944">
        <ele>165</ele>
        <time>2019-02-07T09:19:58.000Z</time>
      </trkpt>
      <trkpt lat="43.61032" lon="6.84945">
        <ele>165</ele>
        <time>2019-02-07T09:19:59.000Z</time>
      </trkpt>
      <trkpt lat="43.61033" lon="6.84945">
        <ele>164</ele>
        <time>2019-02-07T09:20:00.000Z</time>
      </trkpt>
      <trkpt lat="43.61034" lon="6.84945">
        <ele>165</ele>
        <time>2019-02-07T09:20:01.000Z</time>
      </trkpt>
      <trkpt lat="43.61035" lon="6.84945">
        <ele>165</ele>
        <time>2019-02-07T09:20:02.000Z</time>
      </trkpt>
      <trkpt lat="43.61037" lon="6.84945">
        <ele>165</ele>
        <time>2019-02-07T09:20:03.000Z</time>
      </trkpt>
      <trkpt lat="43.61038" lon="6.84945">
        <ele>166</ele>
        <time>2019-02-07T09:20:04.000Z</time>
      </trkpt>
      <trkpt lat="43.61039" lon="6.84945">
        <ele>166</ele>
        <time>2019-02-07T09:20:05.000Z</time>
      </trkpt>
      <trkpt lat="43.6104" lon="6.84946">
        <ele>166</ele>
        <time>2019-02-07T09:20:06.000Z</time>
      </trkpt>
      <trkpt lat="43.61041" lon="6.84946">
        <ele>167</ele>
        <time>2019-02-07T09:20:07.000Z</time>
      </trkpt>
      <trkpt lat="43.61042" lon="6.84946">
        <ele>167</ele>
        <time>2019-02-07T09:20:08.000Z</time>
      </trkpt>
      <trkpt lat="43.61042" lon="6.84946">
        <ele>166</ele>
        <time>2019-02-07T09:20:09.000Z</time>
      </trkpt>
      <trkpt lat="43.61043" lon="6.84945">
        <ele>166</ele>
        <time>2019-02-07T09:20:10.000Z</time>
      </trkpt>
      <trkpt lat="43.61044" lon="6.84944">
        <ele>166</ele>
        <time>2019-02-07T09:20:11.000Z</time>
      </trkpt>
      <trkpt lat="43.61045" lon="6.84944">
        <ele>167</ele>
        <time>2019-02-07T09:20:12.000Z</time>
      </trkpt>
      <trkpt lat="43.61046" lon="6.84944">
        <ele>167</ele>
        <time>2019-02-07T09:20:13.000Z</time>
      </trkpt>
      <trkpt lat="43.61048" lon="6.84943">
        <ele>167</ele>
        <time>2019-02-07T09:20:14.000Z</time>
      </trkpt>
      <trkpt lat="43.61049" lon="6.84943">
        <ele>167</ele>
        <time>2019-02-07T09:20:15.000Z</time>
      </trkpt>
      <trkpt lat="43.6105" lon="6.84942">
        <ele>168</ele>
        <time>2019-02-07T09:20:16.000Z</time>
      </trkpt>
      <trkpt lat="43.61051" lon="6.84942">
        <ele>168</ele>
        <time>2019-02-07T09:20:17.000Z</time>
      </trkpt>
      <trkpt lat="43.61052" lon="6.84941">
        <ele>168</ele>
        <time>2019-02-07T09:20:18.000Z</time>
      </trkpt>
      <trkpt lat="43.61053" lon="6.84941">
        <ele>168</ele>
        <time>2019-02-07T09:20:19.000Z</time>
      </trkpt>
      <trkpt lat="43.61054" lon="6.8494">
        <ele>169</ele>
        <time>2019-02-07T09:20:20.000Z</time>
      </trkpt>
      <trkpt lat="43.61055" lon="6.8494">
        <ele>169</ele>
        <time>2019-02-07T09:20:21.000Z</time>
      </trkpt>
      <trkpt lat="43.61056" lon="6.8494">
        <ele>169</ele>
        <time>2019-02-07T09:20:22.000Z</time>
      </trkpt>
      <trkpt lat="43.61057" lon="6.84939">
        <ele>169</ele>
        <time>2019-02-07T09:20:23.000Z</time>
      </trkpt>
      <trkpt lat="43.61058" lon="6.84939">
        <ele>170</ele>
        <time>2019-02-07T09:20:24.000Z</time>
      </trkpt>
      <trkpt lat="43.61059" lon="6.84939">
        <ele>170</ele>
        <time>2019-02-07T09:20:25.000Z</time>
      </trkpt>
      <trkpt lat="43.6106" lon="6.84938">
        <ele>171</ele>
        <time>2019-02-07T09:20:26.000Z</time>
      </trkpt>
      <trkpt lat="43.61061" lon="6.84938">
        <ele>171</ele>
        <time>2019-02-07T09:20:27.000Z</time>
      </trkpt>
      <trkpt lat="43.61062" lon="6.84937">
        <ele>171</ele>
        <time>2019-02-07T09:20:28.000Z</time>
      </trkpt>
      <trkpt lat="43.61063" lon="6.84937">
        <ele>172</ele>
        <time>2019-02-07T09:20:29.000Z</time>
      </trkpt>
      <trkpt lat="43.61064" lon="6.84936">
        <ele>172</ele>
        <time>2019-02-07T09:20:30.000Z</time>
      </trkpt>
      <trkpt lat="43.61065" lon="6.84936">
        <ele>172</ele>
        <time>2019-02-07T09:20:31.000Z</time>
      </trkpt>
      <trkpt lat="43.61066" lon="6.84936">
        <ele>172</ele>
        <time>2019-02-07T09:20:32.000Z</time>
      </trkpt>
      <trkpt lat="43.61067" lon="6.84935">
        <ele>172</ele>
        <time>2019-02-07T09:20:33.000Z</time>
      </trkpt>
      <trkpt lat="43.61068" lon="6.84935">
        <ele>172</ele>
        <time>2019-02-07T09:20:34.000Z</time>
      </trkpt>
      <trkpt lat="43.61069" lon="6.84935">
        <ele>172</ele>
        <time>2019-02-07T09:20:35.000Z</time>
      </trkpt>
      <trkpt lat="43.6107" lon="6.84935">
        <ele>172</ele>
        <time>2019-02-07T09:20:36.000Z</time>
      </trkpt>
      <trkpt lat="43.61071" lon="6.84935">
        <ele>172</ele>
        <time>2019-02-07T09:20:37.000Z</time>
      </trkpt>
      <trkpt lat="43.61072" lon="6.84935">
        <ele>172</ele>
        <time>2019-02-07T09:20:38.000Z</time>
      </trkpt>
      <trkpt lat="43.61073" lon="6.84934">
        <ele>173</ele>
        <time>2019-02-07T09:20:39.000Z</time>
      </trkpt>
      <trkpt lat="43.61074" lon="6.84934">
        <ele>173</ele>
        <time>2019-02-07T09:20:40.000Z</time>
      </trkpt>
      <trkpt lat="43.61075" lon="6.84933">
        <ele>172</ele>
        <time>2019-02-07T09:20:41.000Z</time>
      </trkpt>
      <trkpt lat="43.61076" lon="6.84933">
        <ele>172</ele>
        <time>2019-02-07T09:20:42.000Z</time>
      </trkpt>
      <trkpt lat="43.61077" lon="6.84933">
        <ele>173</ele>
        <time>2019-02-07T09:20:43.000Z</time>
      </trkpt>
      <trkpt lat="43.61078" lon="6.84932">
        <ele>173</ele>
        <time>2019-02-07T09:20:44.000Z</time>
      </trkpt>
      <trkpt lat="43.61079" lon="6.84932">
        <ele>174</ele>
        <time>2019-02-07T09:20:45.000Z</time>
      </trkpt>
      <trkpt lat="43.6108" lon="6.84932">
        <ele>174</ele>
        <time>2019-02-07T09:20:46.000Z</time>
      </trkpt>
      <trkpt lat="43.61081" lon="6.84932">
        <ele>174</ele>
        <time>2019-02-07T09:20:47.000Z</time>
      </trkpt>
      <trkpt lat="43.61082" lon="6.84932">
        <ele>174</ele>
        <time>2019-02-07T09:20:48.000Z</time>
      </trkpt>
      <trkpt lat="43.61083" lon="6.84932">
        <ele>174</ele>
        <time>2019-02-07T09:20:49.000Z</time>
      </trkpt>
      <trkpt lat="43.61084" lon="6.84932">
        <ele>175</ele>
        <time>2019-02-07T09:20:50.000Z</time>
      </trkpt>
      <trkpt lat="43.61085" lon="6.84932">
        <ele>175</ele>
        <time>2019-02-07T09:20:51.000Z</time>
      </trkpt>
      <trkpt lat="43.61086" lon="6.84932">
        <ele>175</ele>
        <time>2019-02-07T09:20:52.000Z</time>
      </trkpt>
      <trkpt lat="43.61087" lon="6.84932">
        <ele>176</ele>
        <time>2019-02-07T09:20:53.000Z</time>
      </trkpt>
      <trkpt lat="43.61088" lon="6.84933">
        <ele>175</ele>
        <time>2019-02-07T09:20:54.000Z</time>
      </trkpt>
      <trkpt lat="43.61089" lon="6.84933">
        <ele>176</ele>
        <time>2019-02-07T09:20:55.000Z</time>
      </trkpt>
      <trkpt lat="43.6109" lon="6.84933">
        <ele>176</ele>
        <time>2019-02-07T09:20:56.000Z</time>
      </trkpt>
      <trkpt lat="43.61091" lon="6.84933">
        <ele>176</ele>
        <time>2019-02-07T09:20:57.000Z</time>
      </trkpt>
      <trkpt lat="43.61092" lon="6.84933">
        <ele>175</ele>
        <time>2019-02-07T09:20:58.000Z</time>
      </trkpt>
      <trkpt lat="43.61093" lon="6.84934">
        <ele>175</ele>
        <time>2019-02-07T09:20:59.000Z</time>
      </trkpt>
      <trkpt lat="43.61094" lon="6.84934">
        <ele>175</ele>
        <time>2019-02-07T09:21:00.000Z</time>
      </trkpt>
      <trkpt lat="43.61095" lon="6.84934">
        <ele>175</ele>
        <time>2019-02-07T09:21:01.000Z</time>
      </trkpt>
      <trkpt lat="43.61096" lon="6.84934">
        <ele>176</ele>
        <time>2019-02-07T09:21:02.000Z</time>
      </trkpt>
      <trkpt lat="43.61097" lon="6.84934">
        <ele>176</ele>
        <time>2019-02-07T09:21:03.000Z</time>
      </trkpt>
      <trkpt lat="43.61098" lon="6.84934">
        <ele>176</ele>
        <time>2019-02-07T09:21:04.000Z</time>
      </trkpt>
      <trkpt lat="43.61099" lon="6.84934">
        <ele>177</ele>
        <time>2019-02-07T09:21:05.000Z</time>
      </trkpt>
      <trkpt lat="43.611" lon="6.84934">
        <ele>177</ele>
        <time>2019-02-07T09:21:06.000Z</time>
      </trkpt>
      <trkpt lat="43.61101" lon="6.84935">
        <ele>178</ele>
        <time>2019-02-07T09:21:07.000Z</time>
      </trkpt>
      <trkpt lat="43.61101" lon="6.84934">
        <ele>178</ele>
        <time>2019-02-07T09:21:08.000Z</time>
      </trkpt>
      <trkpt lat="43.61101" lon="6.84935">
        <ele>177</ele>
        <time>2019-02-07T09:21:09.000Z</time>
      </trkpt>
      <trkpt lat="43.61101" lon="6.84935">
        <ele>177</ele>
        <time>2019-02-07T09:21:10.000Z</time>
      </trkpt>
      <trkpt lat="43.61101" lon="6.84936">
        <ele>178</ele>
        <time>2019-02-07T09:21:11.000Z</time>
      </trkpt>
      <trkpt lat="43.61102" lon="6.84937">
        <ele>178</ele>
        <time>2019-02-07T09:21:12.000Z</time>
      </trkpt>
      <trkpt lat="43.61102" lon="6.84938">
        <ele>178</ele>
        <time>2019-02-07T09:21:13.000Z</time>
      </trkpt>
      <trkpt lat="43.61103" lon="6.84939">
        <ele>178</ele>
        <time>2019-02-07T09:21:14.000Z</time>
      </trkpt>
      <trkpt lat="43.61104" lon="6.84941">
        <ele>178</ele>
        <time>2019-02-07T09:21:15.000Z</time>
      </trkpt>
      <trkpt lat="43.61105" lon="6.84942">
        <ele>178</ele>
        <time>2019-02-07T09:21:16.000Z</time>
      </trkpt>
      <trkpt lat="43.61106" lon="6.84943">
        <ele>178</ele>
        <time>2019-02-07T09:21:17.000Z</time>
      </trkpt>
      <trkpt lat="43.61106" lon="6.84945">
        <ele>178</ele>
        <time>2019-02-07T09:21:18.000Z</time>
      </trkpt>
      <trkpt lat="43.61107" lon="6.84947">
        <ele>178</ele>
        <time>2019-02-07T09:21:19.000Z</time>
      </trkpt>
      <trkpt lat="43.61107" lon="6.84948">
        <ele>178</ele>
        <time>2019-02-07T09:21:20.000Z</time>
      </trkpt>
      <trkpt lat="43.61107" lon="6.8495">
        <ele>178</ele>
        <time>2019-02-07T09:21:21.000Z</time>
      </trkpt>
      <trkpt lat="43.61108" lon="6.84951">
        <ele>178</ele>
        <time>2019-02-07T09:21:22.000Z</time>
      </trkpt>
      <trkpt lat="43.61109" lon="6.84953">
        <ele>178</ele>
        <time>2019-02-07T09:21:23.000Z</time>
      </trkpt>
      <trkpt lat="43.61109" lon="6.84954">
        <ele>178</ele>
        <time>2019-02-07T09:21:24.000Z</time>
      </trkpt>
      <trkpt lat="43.6111" lon="6.84956">
        <ele>178</ele>
        <time>2019-02-07T09:21:25.000Z</time>
      </trkpt>
      <trkpt lat="43.61111" lon="6.84957">
        <ele>178</ele>
        <time>2019-02-07T09:21:26.000Z</time>
      </trkpt>
      <trkpt lat="43.61111" lon="6.84958">
        <ele>179</ele>
        <time>2019-02-07T09:21:27.000Z</time>
      </trkpt>
      <trkpt lat="43.61112" lon="6.8496">
        <ele>179</ele>
        <time>2019-02-07T09:21:28.000Z</time>
      </trkpt>
      <trkpt lat="43.61113" lon="6.84961">
        <ele>179</ele>
        <time>2019-02-07T09:21:29.000Z</time>
      </trkpt>
      <trkpt lat="43.61114" lon="6.84962">
        <ele>179</ele>
        <time>2019-02-07T09:21:30.000Z</time>
      </trkpt>
      <trkpt lat="43.61115" lon="6.84964">
        <ele>179</ele>
        <time>2019-02-07T09:21:31.000Z</time>
      </trkpt>
      <trkpt lat="43.61115" lon="6.84965">
        <ele>179</ele>
        <time>2019-02-07T09:21:32.000Z</time>
      </trkpt>
      <trkpt lat="43.61116" lon="6.84966">
        <ele>179</ele>
        <time>2019-02-07T09:21:33.000Z</time>
      </trkpt>
      <trkpt lat="43.61116" lon="6.84968">
        <ele>179</ele>
        <time>2019-02-07T09:21:34.000Z</time>
      </trkpt>
      <trkpt lat="43.61117" lon="6.84969">
        <ele>179</ele>
        <time>2019-02-07T09:21:35.000Z</time>
      </trkpt>
      <trkpt lat="43.61117" lon="6.8497">
        <ele>179</ele>
        <time>2019-02-07T09:21:36.000Z</time>
      </trkpt>
      <trkpt lat="43.61118" lon="6.84972">
        <ele>179</ele>
        <time>2019-02-07T09:21:37.000Z</time>
      </trkpt>
      <trkpt lat="43.61119" lon="6.84973">
        <ele>179</ele>
        <time>2019-02-07T09:21:38.000Z</time>
      </trkpt>
      <trkpt lat="43.6112" lon="6.84974">
        <ele>179</ele>
        <time>2019-02-07T09:21:39.000Z</time>
      </trkpt>
      <trkpt lat="43.6112" lon="6.84975">
        <ele>179</ele>
        <time>2019-02-07T09:21:40.000Z</time>
      </trkpt>
      <trkpt lat="43.61121" lon="6.84976">
        <ele>180</ele>
        <time>2019-02-07T09:21:41.000Z</time>
      </trkpt>
      <trkpt lat="43.61122" lon="6.84977">
        <ele>180</ele>
        <time>2019-02-07T09:21:42.000Z</time>
      </trkpt>
      <trkpt lat="43.61123" lon="6.84978">
        <ele>180</ele>
        <time>2019-02-07T09:21:43.000Z</time>
      </trkpt>
      <trkpt lat="43.61123" lon="6.8498">
        <ele>180</ele>
        <time>2019-02-07T09:21:44.000Z</time>
      </trkpt>
      <trkpt lat="43.61124" lon="6.84981">
        <ele>180</ele>
        <time>2019-02-07T09:21:45.000Z</time>
      </trkpt>
      <trkpt lat="43.61124" lon="6.84982">
        <ele>180</ele>
        <time>2019-02-07T09:21:46.000Z</time>
      </trkpt>
      <trkpt lat="43.61125" lon="6.84983">
        <ele>180</ele>
        <time>2019-02-07T09:21:47.000Z</time>
      </trkpt>
      <trkpt lat="43.61125" lon="6.84985">
        <ele>180</ele>
        <time>2019-02-07T09:21:48.000Z</time>
      </trkpt>
      <trkpt lat="43.61126" lon="6.84986">
        <ele>180</ele>
        <time>2019-02-07T09:21:49.000Z</time>
      </trkpt>
      <trkpt lat="43.61126" lon="6.84987">
        <ele>180</ele>
        <time>2019-02-07T09:21:50.000Z</time>
      </trkpt>
      <trkpt lat="43.61127" lon="6.84989">
        <ele>180</ele>
        <time>2019-02-07T09:21:51.000Z</time>
      </trkpt>
      <trkpt lat="43.61127" lon="6.8499">
        <ele>180</ele>
        <time>2019-02-07T09:21:52.000Z</time>
      </trkpt>
      <trkpt lat="43.61128" lon="6.84991">
        <ele>180</ele>
        <time>2019-02-07T09:21:53.000Z</time>
      </trkpt>
      <trkpt lat="43.61128" lon="6.84992">
        <ele>180</ele>
        <time>2019-02-07T09:21:54.000Z</time>
      </trkpt>
      <trkpt lat="43.61129" lon="6.84993">
        <ele>180</ele>
        <time>2019-02-07T09:21:55.000Z</time>
      </trkpt>
      <trkpt lat="43.61129" lon="6.84995">
        <ele>181</ele>
        <time>2019-02-07T09:21:56.000Z</time>
      </trkpt>
      <trkpt lat="43.61129" lon="6.84996">
        <ele>181</ele>
        <time>2019-02-07T09:21:57.000Z</time>
      </trkpt>
      <trkpt lat="43.6113" lon="6.84998">
        <ele>181</ele>
        <time>2019-02-07T09:21:58.000Z</time>
      </trkpt>
      <trkpt lat="43.6113" lon="6.84999">
        <ele>181</ele>
        <time>2019-02-07T09:21:59.000Z</time>
      </trkpt>
      <trkpt lat="43.61131" lon="6.85">
        <ele>181</ele>
        <time>2019-02-07T09:22:00.000Z</time>
      </trkpt>
      <trkpt lat="43.61131" lon="6.85001">
        <ele>181</ele>
        <time>2019-02-07T09:22:01.000Z</time>
      </trkpt>
      <trkpt lat="43.61132" lon="6.85003">
        <ele>181</ele>
        <time>2019-02-07T09:22:02.000Z</time>
      </trkpt>
      <trkpt lat="43.61132" lon="6.85005">
        <ele>181</ele>
        <time>2019-02-07T09:22:03.000Z</time>
      </trkpt>
      <trkpt lat="43.61132" lon="6.85006">
        <ele>181</ele>
        <time>2019-02-07T09:22:04.000Z</time>
      </trkpt>
      <trkpt lat="43.61132" lon="6.85008">
        <ele>181</ele>
        <time>2019-02-07T09:22:05.000Z</time>
      </trkpt>
      <trkpt lat="43.61132" lon="6.85009">
        <ele>181</ele>
        <time>2019-02-07T09:22:06.000Z</time>
      </trkpt>
      <trkpt lat="43.61132" lon="6.85011">
        <ele>181</ele>
        <time>2019-02-07T09:22:07.000Z</time>
      </trkpt>
      <trkpt lat="43.61132" lon="6.85012">
        <ele>182</ele>
        <time>2019-02-07T09:22:08.000Z</time>
      </trkpt>
      <trkpt lat="43.61132" lon="6.85014">
        <ele>182</ele>
        <time>2019-02-07T09:22:09.000Z</time>
      </trkpt>
      <trkpt lat="43.61132" lon="6.85015">
        <ele>182</ele>
        <time>2019-02-07T09:22:10.000Z</time>
      </trkpt>
      <trkpt lat="43.61132" lon="6.85016">
        <ele>182</ele>
        <time>2019-02-07T09:22:11.000Z</time>
      </trkpt>
      <trkpt lat="43.61132" lon="6.85016">
        <ele>181</ele>
        <time>2019-02-07T09:22:12.000Z</time>
      </trkpt>
      <trkpt lat="43.61132" lon="6.85017">
        <ele>181</ele>
        <time>2019-02-07T09:22:13.000Z</time>
      </trkpt>
      <trkpt lat="43.61133" lon="6.85018">
        <ele>181</ele>
        <time>2019-02-07T09:22:14.000Z</time>
      </trkpt>
      <trkpt lat="43.61133" lon="6.85019">
        <ele>181</ele>
        <time>2019-02-07T09:22:15.000Z</time>
      </trkpt>
      <trkpt lat="43.61133" lon="6.8502">
        <ele>181</ele>
        <time>2019-02-07T09:22:16.000Z</time>
      </trkpt>
      <trkpt lat="43.61133" lon="6.85022">
        <ele>181</ele>
        <time>2019-02-07T09:22:17.000Z</time>
      </trkpt>
      <trkpt lat="43.61133" lon="6.85023">
        <ele>181</ele>
        <time>2019-02-07T09:22:18.000Z</time>
      </trkpt>
      <trkpt lat="43.61133" lon="6.85024">
        <ele>181</ele>
        <time>2019-02-07T09:22:19.000Z</time>
      </trkpt>
      <trkpt lat="43.61133" lon="6.85026">
        <ele>182</ele>
        <time>2019-02-07T09:22:20.000Z</time>
      </trkpt>
      <trkpt lat="43.61133" lon="6.85027">
        <ele>182</ele>
        <time>2019-02-07T09:22:21.000Z</time>
      </trkpt>
      <trkpt lat="43.61134" lon="6.85029">
        <ele>182</ele>
        <time>2019-02-07T09:22:22.000Z</time>
      </trkpt>
      <trkpt lat="43.61134" lon="6.8503">
        <ele>182</ele>
        <time>2019-02-07T09:22:23.000Z</time>
      </trkpt>
      <trkpt lat="43.61135" lon="6.85032">
        <ele>183</ele>
        <time>2019-02-07T09:22:24.000Z</time>
      </trkpt>
      <trkpt lat="43.61135" lon="6.85033">
        <ele>183</ele>
        <time>2019-02-07T09:22:25.000Z</time>
      </trkpt>
      <trkpt lat="43.61136" lon="6.85034">
        <ele>182</ele>
        <time>2019-02-07T09:22:26.000Z</time>
      </trkpt>
      <trkpt lat="43.61136" lon="6.85036">
        <ele>182</ele>
        <time>2019-02-07T09:22:27.000Z</time>
      </trkpt>
      <trkpt lat="43.61137" lon="6.85037">
        <ele>183</ele>
        <time>2019-02-07T09:22:28.000Z</time>
      </trkpt>
      <trkpt lat="43.61137" lon="6.85039">
        <ele>183</ele>
        <time>2019-02-07T09:22:29.000Z</time>
      </trkpt>
      <trkpt lat="43.61138" lon="6.8504">
        <ele>183</ele>
        <time>2019-02-07T09:22:30.000Z</time>
      </trkpt>
      <trkpt lat="43.61138" lon="6.85041">
        <ele>183</ele>
        <time>2019-02-07T09:22:31.000Z</time>
      </trkpt>
      <trkpt lat="43.61138" lon="6.85043">
        <ele>183</ele>
        <time>2019-02-07T09:22:32.000Z</time>
      </trkpt>
      <trkpt lat="43.61139" lon="6.85045">
        <ele>184</ele>
        <time>2019-02-07T09:22:33.000Z</time>
      </trkpt>
      <trkpt lat="43.61139" lon="6.85046">
        <ele>184</ele>
        <time>2019-02-07T09:22:34.000Z</time>
      </trkpt>
      <trkpt lat="43.61139" lon="6.85048">
        <ele>184</ele>
        <time>2019-02-07T09:22:35.000Z</time>
      </trkpt>
      <trkpt lat="43.61139" lon="6.8505">
        <ele>184</ele>
        <time>2019-02-07T09:22:36.000Z</time>
      </trkpt>
      <trkpt lat="43.6114" lon="6.85051">
        <ele>184</ele>
        <time>2019-02-07T09:22:37.000Z</time>
      </trkpt>
      <trkpt lat="43.6114" lon="6.85053">
        <ele>185</ele>
        <time>2019-02-07T09:22:38.000Z</time>
      </trkpt>
      <trkpt lat="43.6114" lon="6.85054">
        <ele>185</ele>
        <time>2019-02-07T09:22:39.000Z</time>
      </trkpt>
      <trkpt lat="43.6114" lon="6.85056">
        <ele>185</ele>
        <time>2019-02-07T09:22:40.000Z</time>
      </trkpt>
      <trkpt lat="43.61141" lon="6.85058">
        <ele>185</ele>
        <time>2019-02-07T09:22:41.000Z</time>
      </trkpt>
      <trkpt lat="43.61141" lon="6.85059">
        <ele>185</ele>
        <time>2019-02-07T09:22:42.000Z</time>
      </trkpt>
      <trkpt lat="43.61141" lon="6.85061">
        <ele>185</ele>
        <time>2019-02-07T09:22:43.000Z</time>
      </trkpt>
      <trkpt lat="43.61141" lon="6.85063">
        <ele>185</ele>
        <time>2019-02-07T09:22:44.000Z</time>
      </trkpt>
      <trkpt lat="43.61141" lon="6.85064">
        <ele>186</ele>
        <time>2019-02-07T09:22:45.000Z</time>
      </trkpt>
      <trkpt lat="43.61142" lon="6.85066">
        <ele>186</ele>
        <time>2019-02-07T09:22:46.000Z</time>
      </trkpt>
      <trkpt lat="43.61142" lon="6.85067">
        <ele>186</ele>
        <time>2019-02-07T09:22:47.000Z</time>
      </trkpt>
      <trkpt lat="43.61142" lon="6.85069">
        <ele>187</ele>
        <time>2019-02-07T09:22:48.000Z</time>
      </trkpt>
      <trkpt lat="43.61142" lon="6.8507">
        <ele>186</ele>
        <time>2019-02-07T09:22:49.000Z</time>
      </trkpt>
      <trkpt lat="43.61142" lon="6.85071">
        <ele>187</ele>
        <time>2019-02-07T09:22:50.000Z</time>
      </trkpt>
      <trkpt lat="43.61142" lon="6.85073">
        <ele>187</ele>
        <time>2019-02-07T09:22:51.000Z</time>
      </trkpt>
      <trkpt lat="43.61143" lon="6.85074">
        <ele>187</ele>
        <time>2019-02-07T09:22:52.000Z</time>
      </trkpt>
      <trkpt lat="43.61143" lon="6.85075">
        <ele>187</ele>
        <time>2019-02-07T09:22:53.000Z</time>
      </trkpt>
      <trkpt lat="43.61144" lon="6.85077">
        <ele>187</ele>
        <time>2019-02-07T09:22:54.000Z</time>
      </trkpt>
      <trkpt lat="43.61144" lon="6.85078">
        <ele>187</ele>
        <time>2019-02-07T09:22:55.000Z</time>
      </trkpt>
      <trkpt lat="43.61144" lon="6.8508">
        <ele>187</ele>
        <time>2019-02-07T09:22:56.000Z</time>
      </trkpt>
      <trkpt lat="43.61144" lon="6.85081">
        <ele>187</ele>
        <time>2019-02-07T09:22:57.000Z</time>
      </trkpt>
      <trkpt lat="43.61144" lon="6.85083">
        <ele>188</ele>
        <time>2019-02-07T09:22:58.000Z</time>
      </trkpt>
      <trkpt lat="43.61145" lon="6.85085">
        <ele>188</ele>
        <time>2019-02-07T09:22:59.000Z</time>
      </trkpt>
      <trkpt lat="43.61145" lon="6.85086">
        <ele>187</ele>
        <time>2019-02-07T09:23:00.000Z</time>
      </trkpt>
      <trkpt lat="43.61145" lon="6.85088">
        <ele>188</ele>
        <time>2019-02-07T09:23:01.000Z</time>
      </trkpt>
      <trkpt lat="43.61145" lon="6.85089">
        <ele>188</ele>
        <time>2019-02-07T09:23:02.000Z</time>
      </trkpt>
      <trkpt lat="43.61145" lon="6.8509">
        <ele>188</ele>
        <time>2019-02-07T09:23:03.000Z</time>
      </trkpt>
      <trkpt lat="43.61146" lon="6.85092">
        <ele>188</ele>
        <time>2019-02-07T09:23:04.000Z</time>
      </trkpt>
      <trkpt lat="43.61146" lon="6.85094">
        <ele>188</ele>
        <time>2019-02-07T09:23:05.000Z</time>
      </trkpt>
      <trkpt lat="43.61146" lon="6.85095">
        <ele>188</ele>
        <time>2019-02-07T09:23:06.000Z</time>
      </trkpt>
      <trkpt lat="43.61146" lon="6.85097">
        <ele>189</ele>
        <time>2019-02-07T09:23:07.000Z</time>
      </trkpt>
      <trkpt lat="43.61147" lon="6.85099">
        <ele>189</ele>
        <time>2019-02-07T09:23:08.000Z</time>
      </trkpt>
      <trkpt lat="43.61147" lon="6.851">
        <ele>189</ele>
        <time>2019-02-07T09:23:09.000Z</time>
      </trkpt>
      <trkpt lat="43.61147" lon="6.85101">
        <ele>189</ele>
        <time>2019-02-07T09:23:10.000Z</time>
      </trkpt>
      <trkpt lat="43.61148" lon="6.85102">
        <ele>189</ele>
        <time>2019-02-07T09:23:11.000Z</time>
      </trkpt>
      <trkpt lat="43.61148" lon="6.85104">
        <ele>189</ele>
        <time>2019-02-07T09:23:12.000Z</time>
      </trkpt>
      <trkpt lat="43.61149" lon="6.85105">
        <ele>190</ele>
        <time>2019-02-07T09:23:13.000Z</time>
      </trkpt>
      <trkpt lat="43.61149" lon="6.85107">
        <ele>190</ele>
        <time>2019-02-07T09:23:14.000Z</time>
      </trkpt>
      <trkpt lat="43.6115" lon="6.85108">
        <ele>190</ele>
        <time>2019-02-07T09:23:15.000Z</time>
      </trkpt>
      <trkpt lat="43.6115" lon="6.8511">
        <ele>190</ele>
        <time>2019-02-07T09:23:16.000Z</time>
      </trkpt>
      <trkpt lat="43.6115" lon="6.85111">
        <ele>191</ele>
        <time>2019-02-07T09:23:17.000Z</time>
      </trkpt>
      <trkpt lat="43.61151" lon="6.85112">
        <ele>191</ele>
        <time>2019-02-07T09:23:18.000Z</time>
      </trkpt>
      <trkpt lat="43.61151" lon="6.85114">
        <ele>191</ele>
        <time>2019-02-07T09:23:19.000Z</time>
      </trkpt>
      <trkpt lat="43.61151" lon="6.85115">
        <ele>191</ele>
        <time>2019-02-07T09:23:20.000Z</time>
      </trkpt>
      <trkpt lat="43.61152" lon="6.85116">
        <ele>191</ele>
        <time>2019-02-07T09:23:21.000Z</time>
      </trkpt>
      <trkpt lat="43.61152" lon="6.85117">
        <ele>191</ele>
        <time>2019-02-07T09:23:22.000Z</time>
      </trkpt>
      <trkpt lat="43.61153" lon="6.85119">
        <ele>191</ele>
        <time>2019-02-07T09:23:23.000Z</time>
      </trkpt>
      <trkpt lat="43.61153" lon="6.8512">
        <ele>191</ele>
        <time>2019-02-07T09:23:24.000Z</time>
      </trkpt>
      <trkpt lat="43.61153" lon="6.85122">
        <ele>191</ele>
        <time>2019-02-07T09:23:25.000Z</time>
      </trkpt>
      <trkpt lat="43.61154" lon="6.85123">
        <ele>191</ele>
        <time>2019-02-07T09:23:26.000Z</time>
      </trkpt>
      <trkpt lat="43.61154" lon="6.85124">
        <ele>191</ele>
        <time>2019-02-07T09:23:27.000Z</time>
      </trkpt>
      <trkpt lat="43.61155" lon="6.85126">
        <ele>192</ele>
        <time>2019-02-07T09:23:28.000Z</time>
      </trkpt>
      <trkpt lat="43.61155" lon="6.85127">
        <ele>192</ele>
        <time>2019-02-07T09:23:29.000Z</time>
      </trkpt>
      <trkpt lat="43.61156" lon="6.85129">
        <ele>192</ele>
        <time>2019-02-07T09:23:30.000Z</time>
      </trkpt>
      <trkpt lat="43.61157" lon="6.8513">
        <ele>192</ele>
        <time>2019-02-07T09:23:31.000Z</time>
      </trkpt>
      <trkpt lat="43.61157" lon="6.85132">
        <ele>192</ele>
        <time>2019-02-07T09:23:32.000Z</time>
      </trkpt>
      <trkpt lat="43.61158" lon="6.85133">
        <ele>192</ele>
        <time>2019-02-07T09:23:33.000Z</time>
      </trkpt>
      <trkpt lat="43.61159" lon="6.85134">
        <ele>192</ele>
        <time>2019-02-07T09:23:34.000Z</time>
      </trkpt>
      <trkpt lat="43.61159" lon="6.85135">
        <ele>192</ele>
        <time>2019-02-07T09:23:35.000Z</time>
      </trkpt>
      <trkpt lat="43.6116" lon="6.85136">
        <ele>192</ele>
        <time>2019-02-07T09:23:36.000Z</time>
      </trkpt>
      <trkpt lat="43.61161" lon="6.85138">
        <ele>192</ele>
        <time>2019-02-07T09:23:37.000Z</time>
      </trkpt>
      <trkpt lat="43.61162" lon="6.85139">
        <ele>191</ele>
        <time>2019-02-07T09:23:38.000Z</time>
      </trkpt>
      <trkpt lat="43.61162" lon="6.85141">
        <ele>192</ele>
        <time>2019-02-07T09:23:39.000Z</time>
      </trkpt>
      <trkpt lat="43.61163" lon="6.85142">
        <ele>192</ele>
        <time>2019-02-07T09:23:40.000Z</time>
      </trkpt>
      <trkpt lat="43.61164" lon="6.85144">
        <ele>193</ele>
        <time>2019-02-07T09:23:41.000Z</time>
      </trkpt>
      <trkpt lat="43.61164" lon="6.85146">
        <ele>193</ele>
        <time>2019-02-07T09:23:42.000Z</time>
      </trkpt>
      <trkpt lat="43.61165" lon="6.85147">
        <ele>193</ele>
        <time>2019-02-07T09:23:43.000Z</time>
      </trkpt>
      <trkpt lat="43.61166" lon="6.85149">
        <ele>193</ele>
        <time>2019-02-07T09:23:44.000Z</time>
      </trkpt>
      <trkpt lat="43.61166" lon="6.85151">
        <ele>193</ele>
        <time>2019-02-07T09:23:45.000Z</time>
      </trkpt>
      <trkpt lat="43.61167" lon="6.85152">
        <ele>193</ele>
        <time>2019-02-07T09:23:46.000Z</time>
      </trkpt>
      <trkpt lat="43.61168" lon="6.85153">
        <ele>194</ele>
        <time>2019-02-07T09:23:47.000Z</time>
      </trkpt>
      <trkpt lat="43.61168" lon="6.85154">
        <ele>194</ele>
        <time>2019-02-07T09:23:48.000Z</time>
      </trkpt>
      <trkpt lat="43.61169" lon="6.85156">
        <ele>193</ele>
        <time>2019-02-07T09:23:49.000Z</time>
      </trkpt>
      <trkpt lat="43.6117" lon="6.85157">
        <ele>193</ele>
        <time>2019-02-07T09:23:50.000Z</time>
      </trkpt>
      <trkpt lat="43.6117" lon="6.85159">
        <ele>193</ele>
        <time>2019-02-07T09:23:51.000Z</time>
      </trkpt>
      <trkpt lat="43.61171" lon="6.8516">
        <ele>193</ele>
        <time>2019-02-07T09:23:52.000Z</time>
      </trkpt>
      <trkpt lat="43.61172" lon="6.85161">
        <ele>194</ele>
        <time>2019-02-07T09:23:53.000Z</time>
      </trkpt>
      <trkpt lat="43.61173" lon="6.85162">
        <ele>194</ele>
        <time>2019-02-07T09:23:54.000Z</time>
      </trkpt>
      <trkpt lat="43.61173" lon="6.85164">
        <ele>194</ele>
        <time>2019-02-07T09:23:55.000Z</time>
      </trkpt>
      <trkpt lat="43.61174" lon="6.85164">
        <ele>194</ele>
        <time>2019-02-07T09:23:56.000Z</time>
      </trkpt>
      <trkpt lat="43.61175" lon="6.85165">
        <ele>194</ele>
        <time>2019-02-07T09:23:57.000Z</time>
      </trkpt>
      <trkpt lat="43.61176" lon="6.85166">
        <ele>194</ele>
        <time>2019-02-07T09:23:58.000Z</time>
      </trkpt>
      <trkpt lat="43.61177" lon="6.85167">
        <ele>195</ele>
        <time>2019-02-07T09:23:59.000Z</time>
      </trkpt>
      <trkpt lat="43.61177" lon="6.85168">
        <ele>196</ele>
        <time>2019-02-07T09:24:00.000Z</time>
      </trkpt>
      <trkpt lat="43.61177" lon="6.85169">
        <ele>196</ele>
        <time>2019-02-07T09:24:01.000Z</time>
      </trkpt>
      <trkpt lat="43.61177" lon="6.85169">
        <ele>196</ele>
        <time>2019-02-07T09:24:02.000Z</time>
      </trkpt>
      <trkpt lat="43.61177" lon="6.85169">
        <ele>196</ele>
        <time>2019-02-07T09:24:03.000Z</time>
      </trkpt>
      <trkpt lat="43.61176" lon="6.85169">
        <ele>196</ele>
        <time>2019-02-07T09:24:04.000Z</time>
      </trkpt>
      <trkpt lat="43.61176" lon="6.8517">
        <ele>196</ele>
        <time>2019-02-07T09:24:05.000Z</time>
      </trkpt>
      <trkpt lat="43.61176" lon="6.8517">
        <ele>196</ele>
        <time>2019-02-07T09:24:06.000Z</time>
      </trkpt>
      <trkpt lat="43.61176" lon="6.8517">
        <ele>196</ele>
        <time>2019-02-07T09:24:07.000Z</time>
      </trkpt>
      <trkpt lat="43.61176" lon="6.8517">
        <ele>195</ele>
        <time>2019-02-07T09:24:08.000Z</time>
      </trkpt>
      <trkpt lat="43.61176" lon="6.8517">
        <ele>196</ele>
        <time>2019-02-07T09:24:09.000Z</time>
      </trkpt>
      <trkpt lat="43.61176" lon="6.8517">
        <ele>195</ele>
        <time>2019-02-07T09:24:10.000Z</time>
      </trkpt>
      <trkpt lat="43.61176" lon="6.8517">
        <ele>195</ele>
        <time>2019-02-07T09:24:11.000Z</time>
      </trkpt>
      <trkpt lat="43.61176" lon="6.8517">
        <ele>196</ele>
        <time>2019-02-07T09:24:12.000Z</time>
      </trkpt>
      <trkpt lat="43.61176" lon="6.8517">
        <ele>196</ele>
        <time>2019-02-07T09:24:13.000Z</time>
      </trkpt>
      <trkpt lat="43.61177" lon="6.8517">
        <ele>196</ele>
        <time>2019-02-07T09:24:14.000Z</time>
      </trkpt>
      <trkpt lat="43.61177" lon="6.85171">
        <ele>196</ele>
        <time>2019-02-07T09:24:15.000Z</time>
      </trkpt>
      <trkpt lat="43.61178" lon="6.85171">
        <ele>195</ele>
        <time>2019-02-07T09:24:16.000Z</time>
      </trkpt>
      <trkpt lat="43.61179" lon="6.85171">
        <ele>195</ele>
        <time>2019-02-07T09:24:17.000Z</time>
      </trkpt>
      <trkpt lat="43.61179" lon="6.85172">
        <ele>195</ele>
        <time>2019-02-07T09:24:18.000Z</time>
      </trkpt>
      <trkpt lat="43.6118" lon="6.85173">
        <ele>196</ele>
        <time>2019-02-07T09:24:19.000Z</time>
      </trkpt>
      <trkpt lat="43.61182" lon="6.85174">
        <ele>196</ele>
        <time>2019-02-07T09:24:20.000Z</time>
      </trkpt>
      <trkpt lat="43.61183" lon="6.85174">
        <ele>196</ele>
        <time>2019-02-07T09:24:21.000Z</time>
      </trkpt>
      <trkpt lat="43.61184" lon="6.85175">
        <ele>196</ele>
        <time>2019-02-07T09:24:22.000Z</time>
      </trkpt>
      <trkpt lat="43.61186" lon="6.85176">
        <ele>195</ele>
        <time>2019-02-07T09:24:23.000Z</time>
      </trkpt>
      <trkpt lat="43.61187" lon="6.85176">
        <ele>196</ele>
        <time>2019-02-07T09:24:24.000Z</time>
      </trkpt>
      <trkpt lat="43.61188" lon="6.85177">
        <ele>196</ele>
        <time>2019-02-07T09:24:25.000Z</time>
      </trkpt>
      <trkpt lat="43.61189" lon="6.85178">
        <ele>196</ele>
        <time>2019-02-07T09:24:26.000Z</time>
      </trkpt>
      <trkpt lat="43.6119" lon="6.85178">
        <ele>196</ele>
        <time>2019-02-07T09:24:27.000Z</time>
      </trkpt>
      <trkpt lat="43.61192" lon="6.85179">
        <ele>196</ele>
        <time>2019-02-07T09:24:28.000Z</time>
      </trkpt>
      <trkpt lat="43.61193" lon="6.85179">
        <ele>196</ele>
        <time>2019-02-07T09:24:29.000Z</time>
      </trkpt>
      <trkpt lat="43.61194" lon="6.8518">
        <ele>197</ele>
        <time>2019-02-07T09:24:30.000Z</time>
      </trkpt>
      <trkpt lat="43.61195" lon="6.8518">
        <ele>197</ele>
        <time>2019-02-07T09:24:31.000Z</time>
      </trkpt>
      <trkpt lat="43.61196" lon="6.85181">
        <ele>197</ele>
        <time>2019-02-07T09:24:32.000Z</time>
      </trkpt>
      <trkpt lat="43.61198" lon="6.85181">
        <ele>197</ele>
        <time>2019-02-07T09:24:33.000Z</time>
      </trkpt>
      <trkpt lat="43.61199" lon="6.85182">
        <ele>197</ele>
        <time>2019-02-07T09:24:34.000Z</time>
      </trkpt>
      <trkpt lat="43.612" lon="6.85182">
        <ele>197</ele>
        <time>2019-02-07T09:24:35.000Z</time>
      </trkpt>
      <trkpt lat="43.61201" lon="6.85183">
        <ele>197</ele>
        <time>2019-02-07T09:24:36.000Z</time>
      </trkpt>
      <trkpt lat="43.61202" lon="6.85183">
        <ele>197</ele>
        <time>2019-02-07T09:24:37.000Z</time>
      </trkpt>
      <trkpt lat="43.61204" lon="6.85184">
        <ele>197</ele>
        <time>2019-02-07T09:24:38.000Z</time>
      </trkpt>
      <trkpt lat="43.61205" lon="6.85185">
        <ele>197</ele>
        <time>2019-02-07T09:24:39.000Z</time>
      </trkpt>
      <trkpt lat="43.61206" lon="6.85186">
        <ele>198</ele>
        <time>2019-02-07T09:24:40.000Z</time>
      </trkpt>
      <trkpt lat="43.61207" lon="6.85186">
        <ele>198</ele>
        <time>2019-02-07T09:24:41.000Z</time>
      </trkpt>
      <trkpt lat="43.61209" lon="6.85187">
        <ele>198</ele>
        <time>2019-02-07T09:24:42.000Z</time>
      </trkpt>
      <trkpt lat="43.6121" lon="6.85187">
        <ele>199</ele>
        <time>2019-02-07T09:24:43.000Z</time>
      </trkpt>
      <trkpt lat="43.61211" lon="6.85186">
        <ele>199</ele>
        <time>2019-02-07T09:24:44.000Z</time>
      </trkpt>
      <trkpt lat="43.61212" lon="6.85186">
        <ele>199</ele>
        <time>2019-02-07T09:24:45.000Z</time>
      </trkpt>
      <trkpt lat="43.61213" lon="6.85186">
        <ele>199</ele>
        <time>2019-02-07T09:24:46.000Z</time>
      </trkpt>
      <trkpt lat="43.61215" lon="6.85187">
        <ele>200</ele>
        <time>2019-02-07T09:24:47.000Z</time>
      </trkpt>
      <trkpt lat="43.61216" lon="6.85186">
        <ele>200</ele>
        <time>2019-02-07T09:24:48.000Z</time>
      </trkpt>
      <trkpt lat="43.61217" lon="6.85186">
        <ele>200</ele>
        <time>2019-02-07T09:24:49.000Z</time>
      </trkpt>
      <trkpt lat="43.61218" lon="6.85186">
        <ele>201</ele>
        <time>2019-02-07T09:24:50.000Z</time>
      </trkpt>
      <trkpt lat="43.61219" lon="6.85185">
        <ele>201</ele>
        <time>2019-02-07T09:24:51.000Z</time>
      </trkpt>
      <trkpt lat="43.6122" lon="6.85185">
        <ele>202</ele>
        <time>2019-02-07T09:24:52.000Z</time>
      </trkpt>
      <trkpt lat="43.61221" lon="6.85185">
        <ele>202</ele>
        <time>2019-02-07T09:24:53.000Z</time>
      </trkpt>
      <trkpt lat="43.61222" lon="6.85185">
        <ele>202</ele>
        <time>2019-02-07T09:24:54.000Z</time>
      </trkpt>
      <trkpt lat="43.61223" lon="6.85185">
        <ele>202</ele>
        <time>2019-02-07T09:24:55.000Z</time>
      </trkpt>
      <trkpt lat="43.61224" lon="6.85184">
        <ele>203</ele>
        <time>2019-02-07T09:24:56.000Z</time>
      </trkpt>
      <trkpt lat="43.61225" lon="6.85183">
        <ele>203</ele>
        <time>2019-02-07T09:24:57.000Z</time>
      </trkpt>
      <trkpt lat="43.61226" lon="6.85183">
        <ele>203</ele>
        <time>2019-02-07T09:24:58.000Z</time>
      </trkpt>
      <trkpt lat="43.61227" lon="6.85182">
        <ele>203</ele>
        <time>2019-02-07T09:24:59.000Z</time>
      </trkpt>
      <trkpt lat="43.61227" lon="6.8518">
        <ele>203</ele>
        <time>2019-02-07T09:25:00.000Z</time>
      </trkpt>
      <trkpt lat="43.61227" lon="6.85179">
        <ele>203</ele>
        <time>2019-02-07T09:25:01.000Z</time>
      </trkpt>
      <trkpt lat="43.61228" lon="6.85178">
        <ele>203</ele>
        <time>2019-02-07T09:25:02.000Z</time>
      </trkpt>
      <trkpt lat="43.61228" lon="6.85177">
        <ele>202</ele>
        <time>2019-02-07T09:25:03.000Z</time>
      </trkpt>
      <trkpt lat="43.61228" lon="6.85176">
        <ele>203</ele>
        <time>2019-02-07T09:25:04.000Z</time>
      </trkpt>
      <trkpt lat="43.61228" lon="6.85176">
        <ele>203</ele>
        <time>2019-02-07T09:25:05.000Z</time>
      </trkpt>
      <trkpt lat="43.61229" lon="6.85176">
        <ele>202</ele>
        <time>2019-02-07T09:25:06.000Z</time>
      </trkpt>
      <trkpt lat="43.61229" lon="6.85175">
        <ele>204</ele>
        <time>2019-02-07T09:25:07.000Z</time>
      </trkpt>
      <trkpt lat="43.61229" lon="6.85175">
        <ele>203</ele>
        <time>2019-02-07T09:25:08.000Z</time>
      </trkpt>
      <trkpt lat="43.61229" lon="6.85175">
        <ele>202</ele>
        <time>2019-02-07T09:25:09.000Z</time>
      </trkpt>
      <trkpt lat="43.61229" lon="6.85175">
        <ele>202</ele>
        <time>2019-02-07T09:25:10.000Z</time>
      </trkpt>
      <trkpt lat="43.61229" lon="6.85175">
        <ele>202</ele>
        <time>2019-02-07T09:25:11.000Z</time>
      </trkpt>
      <trkpt lat="43.61229" lon="6.85174">
        <ele>202</ele>
        <time>2019-02-07T09:25:12.000Z</time>
      </trkpt>
      <trkpt lat="43.61229" lon="6.85173">
        <ele>202</ele>
        <time>2019-02-07T09:25:13.000Z</time>
      </trkpt>
      <trkpt lat="43.61229" lon="6.85172">
        <ele>202</ele>
        <time>2019-02-07T09:25:14.000Z</time>
      </trkpt>
      <trkpt lat="43.61229" lon="6.8517">
        <ele>202</ele>
        <time>2019-02-07T09:25:15.000Z</time>
      </trkpt>
      <trkpt lat="43.61229" lon="6.85169">
        <ele>202</ele>
        <time>2019-02-07T09:25:16.000Z</time>
      </trkpt>
      <trkpt lat="43.61229" lon="6.85168">
        <ele>202</ele>
        <time>2019-02-07T09:25:17.000Z</time>
      </trkpt>
      <trkpt lat="43.6123" lon="6.85166">
        <ele>203</ele>
        <time>2019-02-07T09:25:18.000Z</time>
      </trkpt>
      <trkpt lat="43.6123" lon="6.85165">
        <ele>203</ele>
        <time>2019-02-07T09:25:19.000Z</time>
      </trkpt>
      <trkpt lat="43.6123" lon="6.85163">
        <ele>203</ele>
        <time>2019-02-07T09:25:20.000Z</time>
      </trkpt>
      <trkpt lat="43.6123" lon="6.85162">
        <ele>203</ele>
        <time>2019-02-07T09:25:21.000Z</time>
      </trkpt>
      <trkpt lat="43.6123" lon="6.85161">
        <ele>203</ele>
        <time>2019-02-07T09:25:22.000Z</time>
      </trkpt>
      <trkpt lat="43.6123" lon="6.85159">
        <ele>203</ele>
        <time>2019-02-07T09:25:23.000Z</time>
      </trkpt>
      <trkpt lat="43.6123" lon="6.85157">
        <ele>203</ele>
        <time>2019-02-07T09:25:24.000Z</time>
      </trkpt>
      <trkpt lat="43.6123" lon="6.85156">
        <ele>203</ele>
        <time>2019-02-07T09:25:25.000Z</time>
      </trkpt>
      <trkpt lat="43.6123" lon="6.85154">
        <ele>204</ele>
        <time>2019-02-07T09:25:26.000Z</time>
      </trkpt>
      <trkpt lat="43.6123" lon="6.85153">
        <ele>204</ele>
        <time>2019-02-07T09:25:27.000Z</time>
      </trkpt>
      <trkpt lat="43.6123" lon="6.85151">
        <ele>204</ele>
        <time>2019-02-07T09:25:28.000Z</time>
      </trkpt>
      <trkpt lat="43.6123" lon="6.8515">
        <ele>204</ele>
        <time>2019-02-07T09:25:29.000Z</time>
      </trkpt>
      <trkpt lat="43.6123" lon="6.85148">
        <ele>204</ele>
        <time>2019-02-07T09:25:30.000Z</time>
      </trkpt>
      <trkpt lat="43.6123" lon="6.85146">
        <ele>204</ele>
        <time>2019-02-07T09:25:31.000Z</time>
      </trkpt>
      <trkpt lat="43.6123" lon="6.85145">
        <ele>203</ele>
        <time>2019-02-07T09:25:32.000Z</time>
      </trkpt>
      <trkpt lat="43.6123" lon="6.85143">
        <ele>204</ele>
        <time>2019-02-07T09:25:33.000Z</time>
      </trkpt>
      <trkpt lat="43.6123" lon="6.85142">
        <ele>204</ele>
        <time>2019-02-07T09:25:34.000Z</time>
      </trkpt>
      <trkpt lat="43.6123" lon="6.85141">
        <ele>204</ele>
        <time>2019-02-07T09:25:35.000Z</time>
      </trkpt>
      <trkpt lat="43.6123" lon="6.85139">
        <ele>205</ele>
        <time>2019-02-07T09:25:36.000Z</time>
      </trkpt>
      <trkpt lat="43.6123" lon="6.85137">
        <ele>206</ele>
        <time>2019-02-07T09:25:37.000Z</time>
      </trkpt>
      <trkpt lat="43.6123" lon="6.85136">
        <ele>206</ele>
        <time>2019-02-07T09:25:38.000Z</time>
      </trkpt>
      <trkpt lat="43.6123" lon="6.85134">
        <ele>206</ele>
        <time>2019-02-07T09:25:39.000Z</time>
      </trkpt>
      <trkpt lat="43.6123" lon="6.85132">
        <ele>207</ele>
        <time>2019-02-07T09:25:40.000Z</time>
      </trkpt>
      <trkpt lat="43.6123" lon="6.85131">
        <ele>207</ele>
        <time>2019-02-07T09:25:41.000Z</time>
      </trkpt>
      <trkpt lat="43.6123" lon="6.8513">
        <ele>207</ele>
        <time>2019-02-07T09:25:42.000Z</time>
      </trkpt>
      <trkpt lat="43.6123" lon="6.85128">
        <ele>207</ele>
        <time>2019-02-07T09:25:43.000Z</time>
      </trkpt>
      <trkpt lat="43.6123" lon="6.85126">
        <ele>208</ele>
        <time>2019-02-07T09:25:44.000Z</time>
      </trkpt>
      <trkpt lat="43.6123" lon="6.85125">
        <ele>208</ele>
        <time>2019-02-07T09:25:45.000Z</time>
      </trkpt>
      <trkpt lat="43.6123" lon="6.85123">
        <ele>208</ele>
        <time>2019-02-07T09:25:46.000Z</time>
      </trkpt>
      <trkpt lat="43.6123" lon="6.85121">
        <ele>208</ele>
        <time>2019-02-07T09:25:47.000Z</time>
      </trkpt>
      <trkpt lat="43.6123" lon="6.8512">
        <ele>208</ele>
        <time>2019-02-07T09:25:48.000Z</time>
      </trkpt>
      <trkpt lat="43.61229" lon="6.85119">
        <ele>208</ele>
        <time>2019-02-07T09:25:49.000Z</time>
      </trkpt>
      <trkpt lat="43.61229" lon="6.85117">
        <ele>209</ele>
        <time>2019-02-07T09:25:50.000Z</time>
      </trkpt>
      <trkpt lat="43.61229" lon="6.85116">
        <ele>209</ele>
        <time>2019-02-07T09:25:51.000Z</time>
      </trkpt>
      <trkpt lat="43.6123" lon="6.85115">
        <ele>209</ele>
        <time>2019-02-07T09:25:52.000Z</time>
      </trkpt>
      <trkpt lat="43.6123" lon="6.85113">
        <ele>209</ele>
        <time>2019-02-07T09:25:53.000Z</time>
      </trkpt>
      <trkpt lat="43.6123" lon="6.85111">
        <ele>209</ele>
        <time>2019-02-07T09:25:54.000Z</time>
      </trkpt>
      <trkpt lat="43.6123" lon="6.8511">
        <ele>210</ele>
        <time>2019-02-07T09:25:55.000Z</time>
      </trkpt>
      <trkpt lat="43.61229" lon="6.85109">
        <ele>210</ele>
        <time>2019-02-07T09:25:56.000Z</time>
      </trkpt>
      <trkpt lat="43.61229" lon="6.85107">
        <ele>211</ele>
        <time>2019-02-07T09:25:57.000Z</time>
      </trkpt>
      <trkpt lat="43.61229" lon="6.85106">
        <ele>211</ele>
        <time>2019-02-07T09:25:58.000Z</time>
      </trkpt>
      <trkpt lat="43.61229" lon="6.85104">
        <ele>211</ele>
        <time>2019-02-07T09:25:59.000Z</time>
      </trkpt>
      <trkpt lat="43.61229" lon="6.85102">
        <ele>211</ele>
        <time>2019-02-07T09:26:00.000Z</time>
      </trkpt>
      <trkpt lat="43.61229" lon="6.85101">
        <ele>211</ele>
        <time>2019-02-07T09:26:01.000Z</time>
      </trkpt>
      <trkpt lat="43.61229" lon="6.851">
        <ele>212</ele>
        <time>2019-02-07T09:26:02.000Z</time>
      </trkpt>
      <trkpt lat="43.61229" lon="6.85098">
        <ele>212</ele>
        <time>2019-02-07T09:26:03.000Z</time>
      </trkpt>
      <trkpt lat="43.61229" lon="6.85097">
        <ele>212</ele>
        <time>2019-02-07T09:26:04.000Z</time>
      </trkpt>
      <trkpt lat="43.61229" lon="6.85095">
        <ele>212</ele>
        <time>2019-02-07T09:26:05.000Z</time>
      </trkpt>
      <trkpt lat="43.61229" lon="6.85094">
        <ele>212</ele>
        <time>2019-02-07T09:26:06.000Z</time>
      </trkpt>
      <trkpt lat="43.61229" lon="6.85092">
        <ele>211</ele>
        <time>2019-02-07T09:26:07.000Z</time>
      </trkpt>
      <trkpt lat="43.61229" lon="6.85091">
        <ele>211</ele>
        <time>2019-02-07T09:26:08.000Z</time>
      </trkpt>
      <trkpt lat="43.61229" lon="6.85089">
        <ele>211</ele>
        <time>2019-02-07T09:26:09.000Z</time>
      </trkpt>
      <trkpt lat="43.6123" lon="6.85088">
        <ele>210</ele>
        <time>2019-02-07T09:26:10.000Z</time>
      </trkpt>
      <trkpt lat="43.6123" lon="6.85086">
        <ele>209</ele>
        <time>2019-02-07T09:26:11.000Z</time>
      </trkpt>
      <trkpt lat="43.61231" lon="6.85084">
        <ele>209</ele>
        <time>2019-02-07T09:26:12.000Z</time>
      </trkpt>
      <trkpt lat="43.61231" lon="6.85083">
        <ele>209</ele>
        <time>2019-02-07T09:26:13.000Z</time>
      </trkpt>
      <trkpt lat="43.61232" lon="6.85081">
        <ele>209</ele>
        <time>2019-02-07T09:26:14.000Z</time>
      </trkpt>
      <trkpt lat="43.61232" lon="6.85079">
        <ele>209</ele>
        <time>2019-02-07T09:26:15.000Z</time>
      </trkpt>
      <trkpt lat="43.61233" lon="6.85078">
        <ele>209</ele>
        <time>2019-02-07T09:26:16.000Z</time>
      </trkpt>
      <trkpt lat="43.61234" lon="6.85076">
        <ele>209</ele>
        <time>2019-02-07T09:26:17.000Z</time>
      </trkpt>
      <trkpt lat="43.61234" lon="6.85074">
        <ele>209</ele>
        <time>2019-02-07T09:26:18.000Z</time>
      </trkpt>
      <trkpt lat="43.61235" lon="6.85073">
        <ele>210</ele>
        <time>2019-02-07T09:26:19.000Z</time>
      </trkpt>
      <trkpt lat="43.61236" lon="6.85072">
        <ele>210</ele>
        <time>2019-02-07T09:26:20.000Z</time>
      </trkpt>
      <trkpt lat="43.61236" lon="6.8507">
        <ele>210</ele>
        <time>2019-02-07T09:26:21.000Z</time>
      </trkpt>
      <trkpt lat="43.61237" lon="6.85069">
        <ele>210</ele>
        <time>2019-02-07T09:26:22.000Z</time>
      </trkpt>
      <trkpt lat="43.61238" lon="6.85068">
        <ele>211</ele>
        <time>2019-02-07T09:26:23.000Z</time>
      </trkpt>
      <trkpt lat="43.61239" lon="6.85067">
        <ele>211</ele>
        <time>2019-02-07T09:26:24.000Z</time>
      </trkpt>
      <trkpt lat="43.6124" lon="6.85065">
        <ele>211</ele>
        <time>2019-02-07T09:26:25.000Z</time>
      </trkpt>
      <trkpt lat="43.61241" lon="6.85064">
        <ele>211</ele>
        <time>2019-02-07T09:26:26.000Z</time>
      </trkpt>
      <trkpt lat="43.61242" lon="6.85064">
        <ele>211</ele>
        <time>2019-02-07T09:26:27.000Z</time>
      </trkpt>
      <trkpt lat="43.61243" lon="6.85064">
        <ele>212</ele>
        <time>2019-02-07T09:26:28.000Z</time>
      </trkpt>
      <trkpt lat="43.61244" lon="6.85064">
        <ele>213</ele>
        <time>2019-02-07T09:26:29.000Z</time>
      </trkpt>
      <trkpt lat="43.61244" lon="6.85064">
        <ele>214</ele>
        <time>2019-02-07T09:26:30.000Z</time>
      </trkpt>
      <trkpt lat="43.61245" lon="6.85065">
        <ele>214</ele>
        <time>2019-02-07T09:26:31.000Z</time>
      </trkpt>
      <trkpt lat="43.61246" lon="6.85065">
        <ele>214</ele>
        <time>2019-02-07T09:26:32.000Z</time>
      </trkpt>
      <trkpt lat="43.61246" lon="6.85066">
        <ele>215</ele>
        <time>2019-02-07T09:26:33.000Z</time>
      </trkpt>
      <trkpt lat="43.61247" lon="6.85067">
        <ele>215</ele>
        <time>2019-02-07T09:26:34.000Z</time>
      </trkpt>
      <trkpt lat="43.61248" lon="6.85068">
        <ele>215</ele>
        <time>2019-02-07T09:26:35.000Z</time>
      </trkpt>
      <trkpt lat="43.61249" lon="6.85069">
        <ele>216</ele>
        <time>2019-02-07T09:26:36.000Z</time>
      </trkpt>
      <trkpt lat="43.6125" lon="6.8507">
        <ele>216</ele>
        <time>2019-02-07T09:26:37.000Z</time>
      </trkpt>
      <trkpt lat="43.61251" lon="6.85071">
        <ele>216</ele>
        <time>2019-02-07T09:26:38.000Z</time>
      </trkpt>
      <trkpt lat="43.61251" lon="6.85072">
        <ele>216</ele>
        <time>2019-02-07T09:26:39.000Z</time>
      </trkpt>
      <trkpt lat="43.61252" lon="6.85073">
        <ele>217</ele>
        <time>2019-02-07T09:26:40.000Z</time>
      </trkpt>
      <trkpt lat="43.61253" lon="6.85074">
        <ele>216</ele>
        <time>2019-02-07T09:26:41.000Z</time>
      </trkpt>
      <trkpt lat="43.61254" lon="6.85075">
        <ele>217</ele>
        <time>2019-02-07T09:26:42.000Z</time>
      </trkpt>
      <trkpt lat="43.61255" lon="6.85076">
        <ele>217</ele>
        <time>2019-02-07T09:26:43.000Z</time>
      </trkpt>
      <trkpt lat="43.61256" lon="6.85077">
        <ele>217</ele>
        <time>2019-02-07T09:26:44.000Z</time>
      </trkpt>
      <trkpt lat="43.61257" lon="6.85077">
        <ele>218</ele>
        <time>2019-02-07T09:26:45.000Z</time>
      </trkpt>
      <trkpt lat="43.61257" lon="6.85078">
        <ele>219</ele>
        <time>2019-02-07T09:26:46.000Z</time>
      </trkpt>
      <trkpt lat="43.61258" lon="6.85078">
        <ele>219</ele>
        <time>2019-02-07T09:26:47.000Z</time>
      </trkpt>
      <trkpt lat="43.61259" lon="6.85079">
        <ele>220</ele>
        <time>2019-02-07T09:26:48.000Z</time>
      </trkpt>
      <trkpt lat="43.6126" lon="6.85079">
        <ele>220</ele>
        <time>2019-02-07T09:26:49.000Z</time>
      </trkpt>
      <trkpt lat="43.61261" lon="6.85079">
        <ele>221</ele>
        <time>2019-02-07T09:26:50.000Z</time>
      </trkpt>
      <trkpt lat="43.61262" lon="6.85079">
        <ele>221</ele>
        <time>2019-02-07T09:26:51.000Z</time>
      </trkpt>
      <trkpt lat="43.61263" lon="6.8508">
        <ele>221</ele>
        <time>2019-02-07T09:26:52.000Z</time>
      </trkpt>
      <trkpt lat="43.61264" lon="6.8508">
        <ele>221</ele>
        <time>2019-02-07T09:26:53.000Z</time>
      </trkpt>
      <trkpt lat="43.61265" lon="6.8508">
        <ele>221</ele>
        <time>2019-02-07T09:26:54.000Z</time>
      </trkpt>
      <trkpt lat="43.61266" lon="6.8508">
        <ele>221</ele>
        <time>2019-02-07T09:26:55.000Z</time>
      </trkpt>
      <trkpt lat="43.61268" lon="6.85081">
        <ele>221</ele>
        <time>2019-02-07T09:26:56.000Z</time>
      </trkpt>
      <trkpt lat="43.61269" lon="6.85081">
        <ele>221</ele>
        <time>2019-02-07T09:26:57.000Z</time>
      </trkpt>
      <trkpt lat="43.6127" lon="6.85081">
        <ele>221</ele>
        <time>2019-02-07T09:26:58.000Z</time>
      </trkpt>
      <trkpt lat="43.61271" lon="6.85081">
        <ele>221</ele>
        <time>2019-02-07T09:26:59.000Z</time>
      </trkpt>
      <trkpt lat="43.61272" lon="6.85081">
        <ele>221</ele>
        <time>2019-02-07T09:27:00.000Z</time>
      </trkpt>
      <trkpt lat="43.61273" lon="6.85081">
        <ele>221</ele>
        <time>2019-02-07T09:27:01.000Z</time>
      </trkpt>
      <trkpt lat="43.61274" lon="6.85082">
        <ele>222</ele>
        <time>2019-02-07T09:27:02.000Z</time>
      </trkpt>
      <trkpt lat="43.61275" lon="6.85082">
        <ele>222</ele>
        <time>2019-02-07T09:27:03.000Z</time>
      </trkpt>
      <trkpt lat="43.61276" lon="6.85082">
        <ele>221</ele>
        <time>2019-02-07T09:27:04.000Z</time>
      </trkpt>
      <trkpt lat="43.61277" lon="6.85082">
        <ele>222</ele>
        <time>2019-02-07T09:27:05.000Z</time>
      </trkpt>
      <trkpt lat="43.61278" lon="6.85083">
        <ele>222</ele>
        <time>2019-02-07T09:27:06.000Z</time>
      </trkpt>
      <trkpt lat="43.61279" lon="6.85083">
        <ele>222</ele>
        <time>2019-02-07T09:27:07.000Z</time>
      </trkpt>
      <trkpt lat="43.61279" lon="6.85083">
        <ele>223</ele>
        <time>2019-02-07T09:27:08.000Z</time>
      </trkpt>
      <trkpt lat="43.61281" lon="6.85083">
        <ele>223</ele>
        <time>2019-02-07T09:27:09.000Z</time>
      </trkpt>
      <trkpt lat="43.61282" lon="6.85083">
        <ele>223</ele>
        <time>2019-02-07T09:27:10.000Z</time>
      </trkpt>
      <trkpt lat="43.61283" lon="6.85084">
        <ele>224</ele>
        <time>2019-02-07T09:27:11.000Z</time>
      </trkpt>
      <trkpt lat="43.61284" lon="6.85084">
        <ele>224</ele>
        <time>2019-02-07T09:27:12.000Z</time>
      </trkpt>
      <trkpt lat="43.61284" lon="6.85084">
        <ele>225</ele>
        <time>2019-02-07T09:27:13.000Z</time>
      </trkpt>
      <trkpt lat="43.61285" lon="6.85085">
        <ele>224</ele>
        <time>2019-02-07T09:27:14.000Z</time>
      </trkpt>
      <trkpt lat="43.61287" lon="6.85085">
        <ele>224</ele>
        <time>2019-02-07T09:27:15.000Z</time>
      </trkpt>
      <trkpt lat="43.61288" lon="6.85086">
        <ele>225</ele>
        <time>2019-02-07T09:27:16.000Z</time>
      </trkpt>
      <trkpt lat="43.61289" lon="6.85087">
        <ele>225</ele>
        <time>2019-02-07T09:27:17.000Z</time>
      </trkpt>
      <trkpt lat="43.6129" lon="6.85088">
        <ele>225</ele>
        <time>2019-02-07T09:27:18.000Z</time>
      </trkpt>
      <trkpt lat="43.61291" lon="6.85089">
        <ele>225</ele>
        <time>2019-02-07T09:27:19.000Z</time>
      </trkpt>
      <trkpt lat="43.61292" lon="6.8509">
        <ele>225</ele>
        <time>2019-02-07T09:27:20.000Z</time>
      </trkpt>
      <trkpt lat="43.61292" lon="6.85091">
        <ele>225</ele>
        <time>2019-02-07T09:27:21.000Z</time>
      </trkpt>
      <trkpt lat="43.61293" lon="6.85092">
        <ele>225</ele>
        <time>2019-02-07T09:27:22.000Z</time>
      </trkpt>
      <trkpt lat="43.61294" lon="6.85093">
        <ele>225</ele>
        <time>2019-02-07T09:27:23.000Z</time>
      </trkpt>
      <trkpt lat="43.61295" lon="6.85094">
        <ele>225</ele>
        <time>2019-02-07T09:27:24.000Z</time>
      </trkpt>
      <trkpt lat="43.61296" lon="6.85095">
        <ele>226</ele>
        <time>2019-02-07T09:27:25.000Z</time>
      </trkpt>
      <trkpt lat="43.61297" lon="6.85096">
        <ele>226</ele>
        <time>2019-02-07T09:27:26.000Z</time>
      </trkpt>
      <trkpt lat="43.61298" lon="6.85097">
        <ele>226</ele>
        <time>2019-02-07T09:27:27.000Z</time>
      </trkpt>
      <trkpt lat="43.61298" lon="6.85098">
        <ele>226</ele>
        <time>2019-02-07T09:27:28.000Z</time>
      </trkpt>
      <trkpt lat="43.61299" lon="6.85099">
        <ele>227</ele>
        <time>2019-02-07T09:27:29.000Z</time>
      </trkpt>
      <trkpt lat="43.613" lon="6.851">
        <ele>227</ele>
        <time>2019-02-07T09:27:30.000Z</time>
      </trkpt>
      <trkpt lat="43.61301" lon="6.85101">
        <ele>227</ele>
        <time>2019-02-07T09:27:31.000Z</time>
      </trkpt>
      <trkpt lat="43.61301" lon="6.85102">
        <ele>227</ele>
        <time>2019-02-07T09:27:32.000Z</time>
      </trkpt>
      <trkpt lat="43.61302" lon="6.85103">
        <ele>228</ele>
        <time>2019-02-07T09:27:33.000Z</time>
      </trkpt>
      <trkpt lat="43.61303" lon="6.85105">
        <ele>228</ele>
        <time>2019-02-07T09:27:34.000Z</time>
      </trkpt>
      <trkpt lat="43.61304" lon="6.85106">
        <ele>229</ele>
        <time>2019-02-07T09:27:35.000Z</time>
      </trkpt>
      <trkpt lat="43.61305" lon="6.85107">
        <ele>229</ele>
        <time>2019-02-07T09:27:36.000Z</time>
      </trkpt>
      <trkpt lat="43.61305" lon="6.85108">
        <ele>228</ele>
        <time>2019-02-07T09:27:37.000Z</time>
      </trkpt>
      <trkpt lat="43.61306" lon="6.8511">
        <ele>228</ele>
        <time>2019-02-07T09:27:38.000Z</time>
      </trkpt>
      <trkpt lat="43.61307" lon="6.85111">
        <ele>228</ele>
        <time>2019-02-07T09:27:39.000Z</time>
      </trkpt>
      <trkpt lat="43.61307" lon="6.85112">
        <ele>229</ele>
        <time>2019-02-07T09:27:40.000Z</time>
      </trkpt>
      <trkpt lat="43.61308" lon="6.85113">
        <ele>229</ele>
        <time>2019-02-07T09:27:41.000Z</time>
      </trkpt>
      <trkpt lat="43.61309" lon="6.85113">
        <ele>230</ele>
        <time>2019-02-07T09:27:42.000Z</time>
      </trkpt>
      <trkpt lat="43.61309" lon="6.85114">
        <ele>229</ele>
        <time>2019-02-07T09:27:43.000Z</time>
      </trkpt>
      <trkpt lat="43.6131" lon="6.85115">
        <ele>230</ele>
        <time>2019-02-07T09:27:44.000Z</time>
      </trkpt>
      <trkpt lat="43.61311" lon="6.85116">
        <ele>230</ele>
        <time>2019-02-07T09:27:45.000Z</time>
      </trkpt>
      <trkpt lat="43.61312" lon="6.85116">
        <ele>230</ele>
        <time>2019-02-07T09:27:46.000Z</time>
      </trkpt>
      <trkpt lat="43.61312" lon="6.85117">
        <ele>231</ele>
        <time>2019-02-07T09:27:47.000Z</time>
      </trkpt>
      <trkpt lat="43.61313" lon="6.85118">
        <ele>231</ele>
        <time>2019-02-07T09:27:48.000Z</time>
      </trkpt>
      <trkpt lat="43.61314" lon="6.85119">
        <ele>231</ele>
        <time>2019-02-07T09:27:49.000Z</time>
      </trkpt>
      <trkpt lat="43.61315" lon="6.8512">
        <ele>231</ele>
        <time>2019-02-07T09:27:50.000Z</time>
      </trkpt>
      <trkpt lat="43.61316" lon="6.85122">
        <ele>231</ele>
        <time>2019-02-07T09:27:51.000Z</time>
      </trkpt>
      <trkpt lat="43.61316" lon="6.85123">
        <ele>230</ele>
        <time>2019-02-07T09:27:52.000Z</time>
      </trkpt>
      <trkpt lat="43.61317" lon="6.85124">
        <ele>231</ele>
        <time>2019-02-07T09:27:53.000Z</time>
      </trkpt>
      <trkpt lat="43.61318" lon="6.85125">
        <ele>231</ele>
        <time>2019-02-07T09:27:54.000Z</time>
      </trkpt>
      <trkpt lat="43.61319" lon="6.85126">
        <ele>231</ele>
        <time>2019-02-07T09:27:55.000Z</time>
      </trkpt>
      <trkpt lat="43.6132" lon="6.85127">
        <ele>231</ele>
        <time>2019-02-07T09:27:56.000Z</time>
      </trkpt>
      <trkpt lat="43.61321" lon="6.85129">
        <ele>231</ele>
        <time>2019-02-07T09:27:57.000Z</time>
      </trkpt>
      <trkpt lat="43.61323" lon="6.8513">
        <ele>231</ele>
        <time>2019-02-07T09:27:58.000Z</time>
      </trkpt>
      <trkpt lat="43.61324" lon="6.85131">
        <ele>232</ele>
        <time>2019-02-07T09:27:59.000Z</time>
      </trkpt>
      <trkpt lat="43.61325" lon="6.85132">
        <ele>232</ele>
        <time>2019-02-07T09:28:00.000Z</time>
      </trkpt>
      <trkpt lat="43.61326" lon="6.85133">
        <ele>232</ele>
        <time>2019-02-07T09:28:01.000Z</time>
      </trkpt>
      <trkpt lat="43.61326" lon="6.85135">
        <ele>232</ele>
        <time>2019-02-07T09:28:02.000Z</time>
      </trkpt>
      <trkpt lat="43.61327" lon="6.85136">
        <ele>232</ele>
        <time>2019-02-07T09:28:03.000Z</time>
      </trkpt>
      <trkpt lat="43.61328" lon="6.85137">
        <ele>232</ele>
        <time>2019-02-07T09:28:04.000Z</time>
      </trkpt>
      <trkpt lat="43.61328" lon="6.85139">
        <ele>233</ele>
        <time>2019-02-07T09:28:05.000Z</time>
      </trkpt>
      <trkpt lat="43.61329" lon="6.8514">
        <ele>233</ele>
        <time>2019-02-07T09:28:06.000Z</time>
      </trkpt>
      <trkpt lat="43.6133" lon="6.85141">
        <ele>233</ele>
        <time>2019-02-07T09:28:07.000Z</time>
      </trkpt>
      <trkpt lat="43.61331" lon="6.85142">
        <ele>233</ele>
        <time>2019-02-07T09:28:08.000Z</time>
      </trkpt>
      <trkpt lat="43.61332" lon="6.85144">
        <ele>233</ele>
        <time>2019-02-07T09:28:09.000Z</time>
      </trkpt>
      <trkpt lat="43.61333" lon="6.85145">
        <ele>234</ele>
        <time>2019-02-07T09:28:10.000Z</time>
      </trkpt>
      <trkpt lat="43.61335" lon="6.85146">
        <ele>233</ele>
        <time>2019-02-07T09:28:11.000Z</time>
      </trkpt>
      <trkpt lat="43.61336" lon="6.85147">
        <ele>234</ele>
        <time>2019-02-07T09:28:12.000Z</time>
      </trkpt>
      <trkpt lat="43.61337" lon="6.85148">
        <ele>234</ele>
        <time>2019-02-07T09:28:13.000Z</time>
      </trkpt>
      <trkpt lat="43.61338" lon="6.85148">
        <ele>235</ele>
        <time>2019-02-07T09:28:14.000Z</time>
      </trkpt>
      <trkpt lat="43.61339" lon="6.85149">
        <ele>234</ele>
        <time>2019-02-07T09:28:15.000Z</time>
      </trkpt>
      <trkpt lat="43.6134" lon="6.8515">
        <ele>234</ele>
        <time>2019-02-07T09:28:16.000Z</time>
      </trkpt>
      <trkpt lat="43.61341" lon="6.8515">
        <ele>234</ele>
        <time>2019-02-07T09:28:17.000Z</time>
      </trkpt>
      <trkpt lat="43.61342" lon="6.85151">
        <ele>234</ele>
        <time>2019-02-07T09:28:18.000Z</time>
      </trkpt>
      <trkpt lat="43.61343" lon="6.85151">
        <ele>235</ele>
        <time>2019-02-07T09:28:19.000Z</time>
      </trkpt>
      <trkpt lat="43.61345" lon="6.85151">
        <ele>234</ele>
        <time>2019-02-07T09:28:20.000Z</time>
      </trkpt>
      <trkpt lat="43.61346" lon="6.85152">
        <ele>234</ele>
        <time>2019-02-07T09:28:21.000Z</time>
      </trkpt>
      <trkpt lat="43.61347" lon="6.85152">
        <ele>234</ele>
        <time>2019-02-07T09:28:22.000Z</time>
      </trkpt>
      <trkpt lat="43.61348" lon="6.85152">
        <ele>235</ele>
        <time>2019-02-07T09:28:23.000Z</time>
      </trkpt>
      <trkpt lat="43.61349" lon="6.85152">
        <ele>235</ele>
        <time>2019-02-07T09:28:24.000Z</time>
      </trkpt>
      <trkpt lat="43.6135" lon="6.85153">
        <ele>235</ele>
        <time>2019-02-07T09:28:25.000Z</time>
      </trkpt>
      <trkpt lat="43.61352" lon="6.85154">
        <ele>235</ele>
        <time>2019-02-07T09:28:26.000Z</time>
      </trkpt>
      <trkpt lat="43.61353" lon="6.85154">
        <ele>235</ele>
        <time>2019-02-07T09:28:27.000Z</time>
      </trkpt>
      <trkpt lat="43.61354" lon="6.85155">
        <ele>235</ele>
        <time>2019-02-07T09:28:28.000Z</time>
      </trkpt>
      <trkpt lat="43.61356" lon="6.85156">
        <ele>234</ele>
        <time>2019-02-07T09:28:29.000Z</time>
      </trkpt>
      <trkpt lat="43.61356" lon="6.85158">
        <ele>234</ele>
        <time>2019-02-07T09:28:30.000Z</time>
      </trkpt>
      <trkpt lat="43.61357" lon="6.85159">
        <ele>234</ele>
        <time>2019-02-07T09:28:31.000Z</time>
      </trkpt>
      <trkpt lat="43.61358" lon="6.8516">
        <ele>234</ele>
        <time>2019-02-07T09:28:32.000Z</time>
      </trkpt>
      <trkpt lat="43.61359" lon="6.85161">
        <ele>233</ele>
        <time>2019-02-07T09:28:33.000Z</time>
      </trkpt>
      <trkpt lat="43.6136" lon="6.85162">
        <ele>233</ele>
        <time>2019-02-07T09:28:34.000Z</time>
      </trkpt>
      <trkpt lat="43.61361" lon="6.85164">
        <ele>233</ele>
        <time>2019-02-07T09:28:35.000Z</time>
      </trkpt>
      <trkpt lat="43.61362" lon="6.85165">
        <ele>233</ele>
        <time>2019-02-07T09:28:36.000Z</time>
      </trkpt>
      <trkpt lat="43.61363" lon="6.85167">
        <ele>233</ele>
        <time>2019-02-07T09:28:37.000Z</time>
      </trkpt>
      <trkpt lat="43.61364" lon="6.85168">
        <ele>233</ele>
        <time>2019-02-07T09:28:38.000Z</time>
      </trkpt>
      <trkpt lat="43.61365" lon="6.8517">
        <ele>233</ele>
        <time>2019-02-07T09:28:39.000Z</time>
      </trkpt>
      <trkpt lat="43.61366" lon="6.85171">
        <ele>233</ele>
        <time>2019-02-07T09:28:40.000Z</time>
      </trkpt>
      <trkpt lat="43.61367" lon="6.85172">
        <ele>233</ele>
        <time>2019-02-07T09:28:41.000Z</time>
      </trkpt>
      <trkpt lat="43.61368" lon="6.85172">
        <ele>233</ele>
        <time>2019-02-07T09:28:42.000Z</time>
      </trkpt>
      <trkpt lat="43.61369" lon="6.85172">
        <ele>233</ele>
        <time>2019-02-07T09:28:43.000Z</time>
      </trkpt>
      <trkpt lat="43.6137" lon="6.85172">
        <ele>233</ele>
        <time>2019-02-07T09:28:44.000Z</time>
      </trkpt>
      <trkpt lat="43.61372" lon="6.85172">
        <ele>233</ele>
        <time>2019-02-07T09:28:45.000Z</time>
      </trkpt>
      <trkpt lat="43.61373" lon="6.85173">
        <ele>233</ele>
        <time>2019-02-07T09:28:46.000Z</time>
      </trkpt>
      <trkpt lat="43.61374" lon="6.85173">
        <ele>233</ele>
        <time>2019-02-07T09:28:47.000Z</time>
      </trkpt>
      <trkpt lat="43.61375" lon="6.85173">
        <ele>233</ele>
        <time>2019-02-07T09:28:48.000Z</time>
      </trkpt>
      <trkpt lat="43.61377" lon="6.85174">
        <ele>233</ele>
        <time>2019-02-07T09:28:49.000Z</time>
      </trkpt>
      <trkpt lat="43.61378" lon="6.85175">
        <ele>233</ele>
        <time>2019-02-07T09:28:50.000Z</time>
      </trkpt>
      <trkpt lat="43.6138" lon="6.85176">
        <ele>233</ele>
        <time>2019-02-07T09:28:51.000Z</time>
      </trkpt>
      <trkpt lat="43.61381" lon="6.85178">
        <ele>234</ele>
        <time>2019-02-07T09:28:52.000Z</time>
      </trkpt>
      <trkpt lat="43.61383" lon="6.85179">
        <ele>233</ele>
        <time>2019-02-07T09:28:53.000Z</time>
      </trkpt>
      <trkpt lat="43.61384" lon="6.85181">
        <ele>232</ele>
        <time>2019-02-07T09:28:54.000Z</time>
      </trkpt>
      <trkpt lat="43.61386" lon="6.85183">
        <ele>232</ele>
        <time>2019-02-07T09:28:55.000Z</time>
      </trkpt>
      <trkpt lat="43.61387" lon="6.85184">
        <ele>231</ele>
        <time>2019-02-07T09:28:56.000Z</time>
      </trkpt>
      <trkpt lat="43.61388" lon="6.85186">
        <ele>231</ele>
        <time>2019-02-07T09:28:57.000Z</time>
      </trkpt>
      <trkpt lat="43.61389" lon="6.85188">
        <ele>230</ele>
        <time>2019-02-07T09:28:58.000Z</time>
      </trkpt>
      <trkpt lat="43.61389" lon="6.85189">
        <ele>230</ele>
        <time>2019-02-07T09:28:59.000Z</time>
      </trkpt>
      <trkpt lat="43.6139" lon="6.8519">
        <ele>230</ele>
        <time>2019-02-07T09:29:00.000Z</time>
      </trkpt>
      <trkpt lat="43.61392" lon="6.85191">
        <ele>229</ele>
        <time>2019-02-07T09:29:01.000Z</time>
      </trkpt>
      <trkpt lat="43.61394" lon="6.85192">
        <ele>229</ele>
        <time>2019-02-07T09:29:02.000Z</time>
      </trkpt>
      <trkpt lat="43.61396" lon="6.85194">
        <ele>229</ele>
        <time>2019-02-07T09:29:03.000Z</time>
      </trkpt>
      <trkpt lat="43.61397" lon="6.85195">
        <ele>229</ele>
        <time>2019-02-07T09:29:04.000Z</time>
      </trkpt>
      <trkpt lat="43.61398" lon="6.85197">
        <ele>229</ele>
        <time>2019-02-07T09:29:05.000Z</time>
      </trkpt>
      <trkpt lat="43.61399" lon="6.85197">
        <ele>229</ele>
        <time>2019-02-07T09:29:06.000Z</time>
      </trkpt>
      <trkpt lat="43.61401" lon="6.85198">
        <ele>229</ele>
        <time>2019-02-07T09:29:07.000Z</time>
      </trkpt>
      <trkpt lat="43.61403" lon="6.85199">
        <ele>230</ele>
        <time>2019-02-07T09:29:08.000Z</time>
      </trkpt>
      <trkpt lat="43.61404" lon="6.852">
        <ele>229</ele>
        <time>2019-02-07T09:29:09.000Z</time>
      </trkpt>
      <trkpt lat="43.61406" lon="6.85202">
        <ele>229</ele>
        <time>2019-02-07T09:29:10.000Z</time>
      </trkpt>
      <trkpt lat="43.61407" lon="6.85204">
        <ele>229</ele>
        <time>2019-02-07T09:29:11.000Z</time>
      </trkpt>
      <trkpt lat="43.61409" lon="6.85206">
        <ele>229</ele>
        <time>2019-02-07T09:29:12.000Z</time>
      </trkpt>
      <trkpt lat="43.61411" lon="6.85209">
        <ele>228</ele>
        <time>2019-02-07T09:29:13.000Z</time>
      </trkpt>
      <trkpt lat="43.61412" lon="6.8521">
        <ele>228</ele>
        <time>2019-02-07T09:29:14.000Z</time>
      </trkpt>
      <trkpt lat="43.61414" lon="6.85212">
        <ele>229</ele>
        <time>2019-02-07T09:29:15.000Z</time>
      </trkpt>
      <trkpt lat="43.61415" lon="6.85213">
        <ele>228</ele>
        <time>2019-02-07T09:29:16.000Z</time>
      </trkpt>
      <trkpt lat="43.61417" lon="6.85214">
        <ele>227</ele>
        <time>2019-02-07T09:29:17.000Z</time>
      </trkpt>
      <trkpt lat="43.61419" lon="6.85216">
        <ele>227</ele>
        <time>2019-02-07T09:29:18.000Z</time>
      </trkpt>
      <trkpt lat="43.61422" lon="6.85218">
        <ele>226</ele>
        <time>2019-02-07T09:29:19.000Z</time>
      </trkpt>
      <trkpt lat="43.61424" lon="6.8522">
        <ele>227</ele>
        <time>2019-02-07T09:29:20.000Z</time>
      </trkpt>
      <trkpt lat="43.61426" lon="6.85222">
        <ele>226</ele>
        <time>2019-02-07T09:29:21.000Z</time>
      </trkpt>
      <trkpt lat="43.61428" lon="6.85223">
        <ele>227</ele>
        <time>2019-02-07T09:29:22.000Z</time>
      </trkpt>
      <trkpt lat="43.6143" lon="6.85225">
        <ele>227</ele>
        <time>2019-02-07T09:29:23.000Z</time>
      </trkpt>
      <trkpt lat="43.61432" lon="6.85227">
        <ele>227</ele>
        <time>2019-02-07T09:29:24.000Z</time>
      </trkpt>
      <trkpt lat="43.61434" lon="6.85229">
        <ele>227</ele>
        <time>2019-02-07T09:29:25.000Z</time>
      </trkpt>
      <trkpt lat="43.61436" lon="6.8523">
        <ele>227</ele>
        <time>2019-02-07T09:29:26.000Z</time>
      </trkpt>
      <trkpt lat="43.61438" lon="6.85232">
        <ele>227</ele>
        <time>2019-02-07T09:29:27.000Z</time>
      </trkpt>
      <trkpt lat="43.6144" lon="6.85233">
        <ele>228</ele>
        <time>2019-02-07T09:29:28.000Z</time>
      </trkpt>
      <trkpt lat="43.61443" lon="6.85235">
        <ele>228</ele>
        <time>2019-02-07T09:29:29.000Z</time>
      </trkpt>
      <trkpt lat="43.61444" lon="6.85237">
        <ele>228</ele>
        <time>2019-02-07T09:29:30.000Z</time>
      </trkpt>
      <trkpt lat="43.61446" lon="6.85238">
        <ele>227</ele>
        <time>2019-02-07T09:29:31.000Z</time>
      </trkpt>
      <trkpt lat="43.61448" lon="6.8524">
        <ele>228</ele>
        <time>2019-02-07T09:29:32.000Z</time>
      </trkpt>
      <trkpt lat="43.61449" lon="6.85242">
        <ele>227</ele>
        <time>2019-02-07T09:29:33.000Z</time>
      </trkpt>
      <trkpt lat="43.6145" lon="6.85244">
        <ele>227</ele>
        <time>2019-02-07T09:29:34.000Z</time>
      </trkpt>
      <trkpt lat="43.61451" lon="6.85246">
        <ele>227</ele>
        <time>2019-02-07T09:29:35.000Z</time>
      </trkpt>
      <trkpt lat="43.61453" lon="6.85248">
        <ele>227</ele>
        <time>2019-02-07T09:29:36.000Z</time>
      </trkpt>
      <trkpt lat="43.61454" lon="6.85249">
        <ele>228</ele>
        <time>2019-02-07T09:29:37.000Z</time>
      </trkpt>
      <trkpt lat="43.61456" lon="6.85249">
        <ele>227</ele>
        <time>2019-02-07T09:29:38.000Z</time>
      </trkpt>
      <trkpt lat="43.61458" lon="6.8525">
        <ele>227</ele>
        <time>2019-02-07T09:29:39.000Z</time>
      </trkpt>
      <trkpt lat="43.61459" lon="6.85252">
        <ele>227</ele>
        <time>2019-02-07T09:29:40.000Z</time>
      </trkpt>
      <trkpt lat="43.61461" lon="6.85253">
        <ele>227</ele>
        <time>2019-02-07T09:29:41.000Z</time>
      </trkpt>
      <trkpt lat="43.61462" lon="6.85255">
        <ele>226</ele>
        <time>2019-02-07T09:29:42.000Z</time>
      </trkpt>
      <trkpt lat="43.61463" lon="6.85256">
        <ele>226</ele>
        <time>2019-02-07T09:29:43.000Z</time>
      </trkpt>
      <trkpt lat="43.61464" lon="6.85257">
        <ele>226</ele>
        <time>2019-02-07T09:29:44.000Z</time>
      </trkpt>
      <trkpt lat="43.61466" lon="6.85259">
        <ele>226</ele>
        <time>2019-02-07T09:29:45.000Z</time>
      </trkpt>
      <trkpt lat="43.61467" lon="6.8526">
        <ele>226</ele>
        <time>2019-02-07T09:29:46.000Z</time>
      </trkpt>
      <trkpt lat="43.61469" lon="6.8526">
        <ele>227</ele>
        <time>2019-02-07T09:29:47.000Z</time>
      </trkpt>
      <trkpt lat="43.6147" lon="6.85261">
        <ele>227</ele>
        <time>2019-02-07T09:29:48.000Z</time>
      </trkpt>
      <trkpt lat="43.61472" lon="6.85261">
        <ele>227</ele>
        <time>2019-02-07T09:29:49.000Z</time>
      </trkpt>
      <trkpt lat="43.61473" lon="6.85262">
        <ele>227</ele>
        <time>2019-02-07T09:29:50.000Z</time>
      </trkpt>
      <trkpt lat="43.61474" lon="6.85263">
        <ele>226</ele>
        <time>2019-02-07T09:29:51.000Z</time>
      </trkpt>
      <trkpt lat="43.61476" lon="6.85265">
        <ele>224</ele>
        <time>2019-02-07T09:29:52.000Z</time>
      </trkpt>
      <trkpt lat="43.61477" lon="6.85267">
        <ele>223</ele>
        <time>2019-02-07T09:29:53.000Z</time>
      </trkpt>
      <trkpt lat="43.61479" lon="6.85269">
        <ele>221</ele>
        <time>2019-02-07T09:29:54.000Z</time>
      </trkpt>
      <trkpt lat="43.6148" lon="6.85271">
        <ele>220</ele>
        <time>2019-02-07T09:29:55.000Z</time>
      </trkpt>
      <trkpt lat="43.61481" lon="6.85273">
        <ele>220</ele>
        <time>2019-02-07T09:29:56.000Z</time>
      </trkpt>
      <trkpt lat="43.61482" lon="6.85276">
        <ele>219</ele>
        <time>2019-02-07T09:29:57.000Z</time>
      </trkpt>
      <trkpt lat="43.61483" lon="6.85278">
        <ele>218</ele>
        <time>2019-02-07T09:29:58.000Z</time>
      </trkpt>
      <trkpt lat="43.61484" lon="6.85279">
        <ele>216</ele>
        <time>2019-02-07T09:29:59.000Z</time>
      </trkpt>
      <trkpt lat="43.61485" lon="6.85281">
        <ele>215</ele>
        <time>2019-02-07T09:30:00.000Z</time>
      </trkpt>
      <trkpt lat="43.61485" lon="6.85284">
        <ele>216</ele>
        <time>2019-02-07T09:30:01.000Z</time>
      </trkpt>
      <trkpt lat="43.61484" lon="6.85287">
        <ele>215</ele>
        <time>2019-02-07T09:30:02.000Z</time>
      </trkpt>
      <trkpt lat="43.61483" lon="6.8529">
        <ele>214</ele>
        <time>2019-02-07T09:30:03.000Z</time>
      </trkpt>
      <trkpt lat="43.61483" lon="6.85293">
        <ele>214</ele>
        <time>2019-02-07T09:30:04.000Z</time>
      </trkpt>
      <trkpt lat="43.61483" lon="6.85295">
        <ele>214</ele>
        <time>2019-02-07T09:30:05.000Z</time>
      </trkpt>
      <trkpt lat="43.61483" lon="6.85297">
        <ele>213</ele>
        <time>2019-02-07T09:30:06.000Z</time>
      </trkpt>
      <trkpt lat="43.61483" lon="6.85299">
        <ele>212</ele>
        <time>2019-02-07T09:30:07.000Z</time>
      </trkpt>
      <trkpt lat="43.61485" lon="6.85302">
        <ele>212</ele>
        <time>2019-02-07T09:30:08.000Z</time>
      </trkpt>
      <trkpt lat="43.61486" lon="6.85304">
        <ele>212</ele>
        <time>2019-02-07T09:30:09.000Z</time>
      </trkpt>
      <trkpt lat="43.61488" lon="6.85307">
        <ele>212</ele>
        <time>2019-02-07T09:30:10.000Z</time>
      </trkpt>
      <trkpt lat="43.6149" lon="6.85309">
        <ele>212</ele>
        <time>2019-02-07T09:30:11.000Z</time>
      </trkpt>
      <trkpt lat="43.61491" lon="6.85311">
        <ele>211</ele>
        <time>2019-02-07T09:30:12.000Z</time>
      </trkpt>
      <trkpt lat="43.61492" lon="6.85312">
        <ele>212</ele>
        <time>2019-02-07T09:30:13.000Z</time>
      </trkpt>
      <trkpt lat="43.61493" lon="6.85314">
        <ele>211</ele>
        <time>2019-02-07T09:30:14.000Z</time>
      </trkpt>
      <trkpt lat="43.61494" lon="6.85316">
        <ele>211</ele>
        <time>2019-02-07T09:30:15.000Z</time>
      </trkpt>
      <trkpt lat="43.61495" lon="6.85318">
        <ele>210</ele>
        <time>2019-02-07T09:30:16.000Z</time>
      </trkpt>
      <trkpt lat="43.61497" lon="6.85321">
        <ele>211</ele>
        <time>2019-02-07T09:30:17.000Z</time>
      </trkpt>
      <trkpt lat="43.61498" lon="6.85323">
        <ele>212</ele>
        <time>2019-02-07T09:30:18.000Z</time>
      </trkpt>
      <trkpt lat="43.61499" lon="6.85325">
        <ele>211</ele>
        <time>2019-02-07T09:30:19.000Z</time>
      </trkpt>
      <trkpt lat="43.61501" lon="6.85327">
        <ele>210</ele>
        <time>2019-02-07T09:30:20.000Z</time>
      </trkpt>
      <trkpt lat="43.61502" lon="6.85328">
        <ele>210</ele>
        <time>2019-02-07T09:30:21.000Z</time>
      </trkpt>
      <trkpt lat="43.61503" lon="6.8533">
        <ele>210</ele>
        <time>2019-02-07T09:30:22.000Z</time>
      </trkpt>
      <trkpt lat="43.61505" lon="6.85331">
        <ele>210</ele>
        <time>2019-02-07T09:30:23.000Z</time>
      </trkpt>
      <trkpt lat="43.61506" lon="6.85333">
        <ele>211</ele>
        <time>2019-02-07T09:30:24.000Z</time>
      </trkpt>
      <trkpt lat="43.61507" lon="6.85334">
        <ele>211</ele>
        <time>2019-02-07T09:30:25.000Z</time>
      </trkpt>
      <trkpt lat="43.61509" lon="6.85335">
        <ele>210</ele>
        <time>2019-02-07T09:30:26.000Z</time>
      </trkpt>
      <trkpt lat="43.6151" lon="6.85336">
        <ele>208</ele>
        <time>2019-02-07T09:30:27.000Z</time>
      </trkpt>
      <trkpt lat="43.61513" lon="6.85337">
        <ele>208</ele>
        <time>2019-02-07T09:30:28.000Z</time>
      </trkpt>
      <trkpt lat="43.61515" lon="6.85339">
        <ele>209</ele>
        <time>2019-02-07T09:30:29.000Z</time>
      </trkpt>
      <trkpt lat="43.61518" lon="6.8534">
        <ele>207</ele>
        <time>2019-02-07T09:30:30.000Z</time>
      </trkpt>
      <trkpt lat="43.6152" lon="6.85341">
        <ele>207</ele>
        <time>2019-02-07T09:30:31.000Z</time>
      </trkpt>
      <trkpt lat="43.61522" lon="6.85342">
        <ele>206</ele>
        <time>2019-02-07T09:30:32.000Z</time>
      </trkpt>
      <trkpt lat="43.61523" lon="6.85343">
        <ele>207</ele>
        <time>2019-02-07T09:30:33.000Z</time>
      </trkpt>
      <trkpt lat="43.61524" lon="6.85343">
        <ele>207</ele>
        <time>2019-02-07T09:30:34.000Z</time>
      </trkpt>
      <trkpt lat="43.61525" lon="6.85344">
        <ele>206</ele>
        <time>2019-02-07T09:30:35.000Z</time>
      </trkpt>
      <trkpt lat="43.61526" lon="6.85344">
        <ele>207</ele>
        <time>2019-02-07T09:30:36.000Z</time>
      </trkpt>
      <trkpt lat="43.61527" lon="6.85345">
        <ele>208</ele>
        <time>2019-02-07T09:30:37.000Z</time>
      </trkpt>
      <trkpt lat="43.61527" lon="6.85346">
        <ele>209</ele>
        <time>2019-02-07T09:30:38.000Z</time>
      </trkpt>
      <trkpt lat="43.61526" lon="6.85347">
        <ele>209</ele>
        <time>2019-02-07T09:30:39.000Z</time>
      </trkpt>
      <trkpt lat="43.61526" lon="6.85348">
        <ele>209</ele>
        <time>2019-02-07T09:30:40.000Z</time>
      </trkpt>
      <trkpt lat="43.61526" lon="6.85349">
        <ele>209</ele>
        <time>2019-02-07T09:30:41.000Z</time>
      </trkpt>
      <trkpt lat="43.61526" lon="6.85349">
        <ele>209</ele>
        <time>2019-02-07T09:30:42.000Z</time>
      </trkpt>
      <trkpt lat="43.61526" lon="6.8535">
        <ele>208</ele>
        <time>2019-02-07T09:30:43.000Z</time>
      </trkpt>
      <trkpt lat="43.61526" lon="6.85351">
        <ele>207</ele>
        <time>2019-02-07T09:30:44.000Z</time>
      </trkpt>
      <trkpt lat="43.61526" lon="6.85351">
        <ele>206</ele>
        <time>2019-02-07T09:30:45.000Z</time>
      </trkpt>
      <trkpt lat="43.61526" lon="6.85352">
        <ele>206</ele>
        <time>2019-02-07T09:30:46.000Z</time>
      </trkpt>
      <trkpt lat="43.61526" lon="6.85353">
        <ele>206</ele>
        <time>2019-02-07T09:30:47.000Z</time>
      </trkpt>
      <trkpt lat="43.61525" lon="6.85353">
        <ele>206</ele>
        <time>2019-02-07T09:30:48.000Z</time>
      </trkpt>
      <trkpt lat="43.61525" lon="6.85353">
        <ele>207</ele>
        <time>2019-02-07T09:30:49.000Z</time>
      </trkpt>
      <trkpt lat="43.61524" lon="6.85353">
        <ele>206</ele>
        <time>2019-02-07T09:30:50.000Z</time>
      </trkpt>
      <trkpt lat="43.61524" lon="6.85353">
        <ele>207</ele>
        <time>2019-02-07T09:30:51.000Z</time>
      </trkpt>
      <trkpt lat="43.61524" lon="6.85353">
        <ele>208</ele>
        <time>2019-02-07T09:30:52.000Z</time>
      </trkpt>
      <trkpt lat="43.61524" lon="6.85354">
        <ele>209</ele>
        <time>2019-02-07T09:30:53.000Z</time>
      </trkpt>
      <trkpt lat="43.61524" lon="6.85354">
        <ele>209</ele>
        <time>2019-02-07T09:30:54.000Z</time>
      </trkpt>
      <trkpt lat="43.61523" lon="6.85355">
        <ele>210</ele>
        <time>2019-02-07T09:30:55.000Z</time>
      </trkpt>
      <trkpt lat="43.61523" lon="6.85355">
        <ele>210</ele>
        <time>2019-02-07T09:30:56.000Z</time>
      </trkpt>
      <trkpt lat="43.61523" lon="6.85356">
        <ele>209</ele>
        <time>2019-02-07T09:30:57.000Z</time>
      </trkpt>
      <trkpt lat="43.61523" lon="6.85356">
        <ele>210</ele>
        <time>2019-02-07T09:30:58.000Z</time>
      </trkpt>
      <trkpt lat="43.61523" lon="6.85357">
        <ele>210</ele>
        <time>2019-02-07T09:30:59.000Z</time>
      </trkpt>
      <trkpt lat="43.61523" lon="6.85358">
        <ele>211</ele>
        <time>2019-02-07T09:31:00.000Z</time>
      </trkpt>
      <trkpt lat="43.61523" lon="6.8536">
        <ele>212</ele>
        <time>2019-02-07T09:31:01.000Z</time>
      </trkpt>
      <trkpt lat="43.61523" lon="6.85362">
        <ele>212</ele>
        <time>2019-02-07T09:31:02.000Z</time>
      </trkpt>
      <trkpt lat="43.61522" lon="6.85364">
        <ele>213</ele>
        <time>2019-02-07T09:31:03.000Z</time>
      </trkpt>
      <trkpt lat="43.61522" lon="6.85365">
        <ele>213</ele>
        <time>2019-02-07T09:31:04.000Z</time>
      </trkpt>
      <trkpt lat="43.61522" lon="6.85366">
        <ele>214</ele>
        <time>2019-02-07T09:31:05.000Z</time>
      </trkpt>
      <trkpt lat="43.61522" lon="6.85367">
        <ele>214</ele>
        <time>2019-02-07T09:31:06.000Z</time>
      </trkpt>
      <trkpt lat="43.61521" lon="6.85368">
        <ele>215</ele>
        <time>2019-02-07T09:31:07.000Z</time>
      </trkpt>
      <trkpt lat="43.61521" lon="6.85368">
        <ele>215</ele>
        <time>2019-02-07T09:31:08.000Z</time>
      </trkpt>
      <trkpt lat="43.61521" lon="6.85368">
        <ele>216</ele>
        <time>2019-02-07T09:31:09.000Z</time>
      </trkpt>
      <trkpt lat="43.61521" lon="6.85368">
        <ele>216</ele>
        <time>2019-02-07T09:31:10.000Z</time>
      </trkpt>
      <trkpt lat="43.6152" lon="6.85369">
        <ele>217</ele>
        <time>2019-02-07T09:31:11.000Z</time>
      </trkpt>
      <trkpt lat="43.61521" lon="6.85371">
        <ele>215</ele>
        <time>2019-02-07T09:31:12.000Z</time>
      </trkpt>
      <trkpt lat="43.61521" lon="6.85373">
        <ele>215</ele>
        <time>2019-02-07T09:31:13.000Z</time>
      </trkpt>
      <trkpt lat="43.61521" lon="6.85375">
        <ele>215</ele>
        <time>2019-02-07T09:31:14.000Z</time>
      </trkpt>
      <trkpt lat="43.6152" lon="6.85377">
        <ele>214</ele>
        <time>2019-02-07T09:31:15.000Z</time>
      </trkpt>
      <trkpt lat="43.6152" lon="6.8538">
        <ele>214</ele>
        <time>2019-02-07T09:31:16.000Z</time>
      </trkpt>
      <trkpt lat="43.6152" lon="6.85382">
        <ele>214</ele>
        <time>2019-02-07T09:31:17.000Z</time>
      </trkpt>
      <trkpt lat="43.61521" lon="6.85384">
        <ele>213</ele>
        <time>2019-02-07T09:31:18.000Z</time>
      </trkpt>
      <trkpt lat="43.61521" lon="6.85387">
        <ele>213</ele>
        <time>2019-02-07T09:31:19.000Z</time>
      </trkpt>
      <trkpt lat="43.61522" lon="6.85389">
        <ele>213</ele>
        <time>2019-02-07T09:31:20.000Z</time>
      </trkpt>
      <trkpt lat="43.61522" lon="6.85392">
        <ele>214</ele>
        <time>2019-02-07T09:31:21.000Z</time>
      </trkpt>
      <trkpt lat="43.61522" lon="6.85396">
        <ele>213</ele>
        <time>2019-02-07T09:31:22.000Z</time>
      </trkpt>
      <trkpt lat="43.61522" lon="6.85399">
        <ele>213</ele>
        <time>2019-02-07T09:31:23.000Z</time>
      </trkpt>
      <trkpt lat="43.61522" lon="6.85401">
        <ele>213</ele>
        <time>2019-02-07T09:31:24.000Z</time>
      </trkpt>
      <trkpt lat="43.61521" lon="6.85404">
        <ele>214</ele>
        <time>2019-02-07T09:31:25.000Z</time>
      </trkpt>
      <trkpt lat="43.61521" lon="6.85406">
        <ele>215</ele>
        <time>2019-02-07T09:31:26.000Z</time>
      </trkpt>
      <trkpt lat="43.6152" lon="6.85408">
        <ele>216</ele>
        <time>2019-02-07T09:31:27.000Z</time>
      </trkpt>
      <trkpt lat="43.6152" lon="6.8541">
        <ele>217</ele>
        <time>2019-02-07T09:31:28.000Z</time>
      </trkpt>
      <trkpt lat="43.61519" lon="6.85412">
        <ele>218</ele>
        <time>2019-02-07T09:31:29.000Z</time>
      </trkpt>
      <trkpt lat="43.61518" lon="6.85414">
        <ele>218</ele>
        <time>2019-02-07T09:31:30.000Z</time>
      </trkpt>
      <trkpt lat="43.61518" lon="6.85415">
        <ele>219</ele>
        <time>2019-02-07T09:31:31.000Z</time>
      </trkpt>
      <trkpt lat="43.61517" lon="6.85416">
        <ele>219</ele>
        <time>2019-02-07T09:31:32.000Z</time>
      </trkpt>
      <trkpt lat="43.61516" lon="6.85418">
        <ele>219</ele>
        <time>2019-02-07T09:31:33.000Z</time>
      </trkpt>
      <trkpt lat="43.61516" lon="6.85419">
        <ele>219</ele>
        <time>2019-02-07T09:31:34.000Z</time>
      </trkpt>
      <trkpt lat="43.61515" lon="6.8542">
        <ele>220</ele>
        <time>2019-02-07T09:31:35.000Z</time>
      </trkpt>
      <trkpt lat="43.61514" lon="6.85422">
        <ele>220</ele>
        <time>2019-02-07T09:31:36.000Z</time>
      </trkpt>
      <trkpt lat="43.61513" lon="6.85423">
        <ele>219</ele>
        <time>2019-02-07T09:31:37.000Z</time>
      </trkpt>
      <trkpt lat="43.61512" lon="6.85424">
        <ele>218</ele>
        <time>2019-02-07T09:31:38.000Z</time>
      </trkpt>
      <trkpt lat="43.61511" lon="6.85425">
        <ele>218</ele>
        <time>2019-02-07T09:31:39.000Z</time>
      </trkpt>
      <trkpt lat="43.61511" lon="6.85426">
        <ele>219</ele>
        <time>2019-02-07T09:31:40.000Z</time>
      </trkpt>
      <trkpt lat="43.61511" lon="6.85427">
        <ele>219</ele>
        <time>2019-02-07T09:31:41.000Z</time>
      </trkpt>
      <trkpt lat="43.6151" lon="6.85428">
        <ele>219</ele>
        <time>2019-02-07T09:31:42.000Z</time>
      </trkpt>
      <trkpt lat="43.6151" lon="6.85429">
        <ele>220</ele>
        <time>2019-02-07T09:31:43.000Z</time>
      </trkpt>
      <trkpt lat="43.6151" lon="6.8543">
        <ele>220</ele>
        <time>2019-02-07T09:31:44.000Z</time>
      </trkpt>
      <trkpt lat="43.6151" lon="6.85431">
        <ele>220</ele>
        <time>2019-02-07T09:31:45.000Z</time>
      </trkpt>
      <trkpt lat="43.6151" lon="6.85433">
        <ele>220</ele>
        <time>2019-02-07T09:31:46.000Z</time>
      </trkpt>
      <trkpt lat="43.6151" lon="6.85434">
        <ele>220</ele>
        <time>2019-02-07T09:31:47.000Z</time>
      </trkpt>
      <trkpt lat="43.6151" lon="6.85435">
        <ele>220</ele>
        <time>2019-02-07T09:31:48.000Z</time>
      </trkpt>
      <trkpt lat="43.61509" lon="6.85436">
        <ele>220</ele>
        <time>2019-02-07T09:31:49.000Z</time>
      </trkpt>
      <trkpt lat="43.61509" lon="6.85437">
        <ele>220</ele>
        <time>2019-02-07T09:31:50.000Z</time>
      </trkpt>
      <trkpt lat="43.61509" lon="6.85438">
        <ele>221</ele>
        <time>2019-02-07T09:31:51.000Z</time>
      </trkpt>
      <trkpt lat="43.61509" lon="6.85439">
        <ele>221</ele>
        <time>2019-02-07T09:31:52.000Z</time>
      </trkpt>
      <trkpt lat="43.61508" lon="6.85441">
        <ele>221</ele>
        <time>2019-02-07T09:31:53.000Z</time>
      </trkpt>
      <trkpt lat="43.61508" lon="6.85442">
        <ele>221</ele>
        <time>2019-02-07T09:31:54.000Z</time>
      </trkpt>
      <trkpt lat="43.61508" lon="6.85443">
        <ele>221</ele>
        <time>2019-02-07T09:31:55.000Z</time>
      </trkpt>
      <trkpt lat="43.61508" lon="6.85445">
        <ele>221</ele>
        <time>2019-02-07T09:31:56.000Z</time>
      </trkpt>
      <trkpt lat="43.61507" lon="6.85446">
        <ele>222</ele>
        <time>2019-02-07T09:31:57.000Z</time>
      </trkpt>
      <trkpt lat="43.61507" lon="6.85447">
        <ele>221</ele>
        <time>2019-02-07T09:31:58.000Z</time>
      </trkpt>
      <trkpt lat="43.61506" lon="6.85448">
        <ele>222</ele>
        <time>2019-02-07T09:31:59.000Z</time>
      </trkpt>
      <trkpt lat="43.61505" lon="6.8545">
        <ele>222</ele>
        <time>2019-02-07T09:32:00.000Z</time>
      </trkpt>
      <trkpt lat="43.61505" lon="6.85451">
        <ele>223</ele>
        <time>2019-02-07T09:32:01.000Z</time>
      </trkpt>
      <trkpt lat="43.61504" lon="6.85453">
        <ele>224</ele>
        <time>2019-02-07T09:32:02.000Z</time>
      </trkpt>
      <trkpt lat="43.61504" lon="6.85454">
        <ele>224</ele>
        <time>2019-02-07T09:32:03.000Z</time>
      </trkpt>
      <trkpt lat="43.61504" lon="6.85455">
        <ele>224</ele>
        <time>2019-02-07T09:32:04.000Z</time>
      </trkpt>
      <trkpt lat="43.61503" lon="6.85456">
        <ele>224</ele>
        <time>2019-02-07T09:32:05.000Z</time>
      </trkpt>
      <trkpt lat="43.61503" lon="6.85458">
        <ele>223</ele>
        <time>2019-02-07T09:32:06.000Z</time>
      </trkpt>
      <trkpt lat="43.61502" lon="6.85459">
        <ele>223</ele>
        <time>2019-02-07T09:32:07.000Z</time>
      </trkpt>
      <trkpt lat="43.61502" lon="6.85461">
        <ele>224</ele>
        <time>2019-02-07T09:32:08.000Z</time>
      </trkpt>
      <trkpt lat="43.61501" lon="6.85462">
        <ele>224</ele>
        <time>2019-02-07T09:32:09.000Z</time>
      </trkpt>
      <trkpt lat="43.61501" lon="6.85464">
        <ele>224</ele>
        <time>2019-02-07T09:32:10.000Z</time>
      </trkpt>
      <trkpt lat="43.615" lon="6.85465">
        <ele>224</ele>
        <time>2019-02-07T09:32:11.000Z</time>
      </trkpt>
      <trkpt lat="43.615" lon="6.85466">
        <ele>224</ele>
        <time>2019-02-07T09:32:12.000Z</time>
      </trkpt>
      <trkpt lat="43.61499" lon="6.85468">
        <ele>224</ele>
        <time>2019-02-07T09:32:13.000Z</time>
      </trkpt>
      <trkpt lat="43.61499" lon="6.85469">
        <ele>224</ele>
        <time>2019-02-07T09:32:14.000Z</time>
      </trkpt>
      <trkpt lat="43.61498" lon="6.8547">
        <ele>224</ele>
        <time>2019-02-07T09:32:15.000Z</time>
      </trkpt>
      <trkpt lat="43.61498" lon="6.85472">
        <ele>225</ele>
        <time>2019-02-07T09:32:16.000Z</time>
      </trkpt>
      <trkpt lat="43.61498" lon="6.85473">
        <ele>225</ele>
        <time>2019-02-07T09:32:17.000Z</time>
      </trkpt>
      <trkpt lat="43.61497" lon="6.85474">
        <ele>225</ele>
        <time>2019-02-07T09:32:18.000Z</time>
      </trkpt>
      <trkpt lat="43.61497" lon="6.85475">
        <ele>225</ele>
        <time>2019-02-07T09:32:19.000Z</time>
      </trkpt>
      <trkpt lat="43.61497" lon="6.85476">
        <ele>225</ele>
        <time>2019-02-07T09:32:20.000Z</time>
      </trkpt>
      <trkpt lat="43.61496" lon="6.85477">
        <ele>226</ele>
        <time>2019-02-07T09:32:21.000Z</time>
      </trkpt>
      <trkpt lat="43.61496" lon="6.85478">
        <ele>226</ele>
        <time>2019-02-07T09:32:22.000Z</time>
      </trkpt>
      <trkpt lat="43.61496" lon="6.85479">
        <ele>227</ele>
        <time>2019-02-07T09:32:23.000Z</time>
      </trkpt>
      <trkpt lat="43.61496" lon="6.8548">
        <ele>227</ele>
        <time>2019-02-07T09:32:24.000Z</time>
      </trkpt>
      <trkpt lat="43.61496" lon="6.85482">
        <ele>227</ele>
        <time>2019-02-07T09:32:25.000Z</time>
      </trkpt>
      <trkpt lat="43.61495" lon="6.85483">
        <ele>228</ele>
        <time>2019-02-07T09:32:26.000Z</time>
      </trkpt>
      <trkpt lat="43.61495" lon="6.85484">
        <ele>228</ele>
        <time>2019-02-07T09:32:27.000Z</time>
      </trkpt>
      <trkpt lat="43.61495" lon="6.85486">
        <ele>228</ele>
        <time>2019-02-07T09:32:28.000Z</time>
      </trkpt>
      <trkpt lat="43.61495" lon="6.85487">
        <ele>228</ele>
        <time>2019-02-07T09:32:29.000Z</time>
      </trkpt>
      <trkpt lat="43.61494" lon="6.85488">
        <ele>229</ele>
        <time>2019-02-07T09:32:30.000Z</time>
      </trkpt>
      <trkpt lat="43.61493" lon="6.85488">
        <ele>229</ele>
        <time>2019-02-07T09:32:31.000Z</time>
      </trkpt>
      <trkpt lat="43.61492" lon="6.85489">
        <ele>229</ele>
        <time>2019-02-07T09:32:32.000Z</time>
      </trkpt>
      <trkpt lat="43.61491" lon="6.8549">
        <ele>229</ele>
        <time>2019-02-07T09:32:33.000Z</time>
      </trkpt>
      <trkpt lat="43.6149" lon="6.85491">
        <ele>229</ele>
        <time>2019-02-07T09:32:34.000Z</time>
      </trkpt>
      <trkpt lat="43.61488" lon="6.85493">
        <ele>229</ele>
        <time>2019-02-07T09:32:35.000Z</time>
      </trkpt>
      <trkpt lat="43.61487" lon="6.85494">
        <ele>229</ele>
        <time>2019-02-07T09:32:36.000Z</time>
      </trkpt>
      <trkpt lat="43.61485" lon="6.85495">
        <ele>229</ele>
        <time>2019-02-07T09:32:37.000Z</time>
      </trkpt>
      <trkpt lat="43.61484" lon="6.85496">
        <ele>228</ele>
        <time>2019-02-07T09:32:38.000Z</time>
      </trkpt>
      <trkpt lat="43.61483" lon="6.85497">
        <ele>228</ele>
        <time>2019-02-07T09:32:39.000Z</time>
      </trkpt>
      <trkpt lat="43.61482" lon="6.85498">
        <ele>228</ele>
        <time>2019-02-07T09:32:40.000Z</time>
      </trkpt>
      <trkpt lat="43.61481" lon="6.85499">
        <ele>227</ele>
        <time>2019-02-07T09:32:41.000Z</time>
      </trkpt>
      <trkpt lat="43.61481" lon="6.855">
        <ele>227</ele>
        <time>2019-02-07T09:32:42.000Z</time>
      </trkpt>
      <trkpt lat="43.6148" lon="6.85502">
        <ele>227</ele>
        <time>2019-02-07T09:32:43.000Z</time>
      </trkpt>
      <trkpt lat="43.61479" lon="6.85503">
        <ele>227</ele>
        <time>2019-02-07T09:32:44.000Z</time>
      </trkpt>
      <trkpt lat="43.61478" lon="6.85504">
        <ele>227</ele>
        <time>2019-02-07T09:32:45.000Z</time>
      </trkpt>
      <trkpt lat="43.61477" lon="6.85505">
        <ele>226</ele>
        <time>2019-02-07T09:32:46.000Z</time>
      </trkpt>
      <trkpt lat="43.61476" lon="6.85506">
        <ele>226</ele>
        <time>2019-02-07T09:32:47.000Z</time>
      </trkpt>
      <trkpt lat="43.61476" lon="6.85508">
        <ele>226</ele>
        <time>2019-02-07T09:32:48.000Z</time>
      </trkpt>
      <trkpt lat="43.61475" lon="6.85509">
        <ele>226</ele>
        <time>2019-02-07T09:32:49.000Z</time>
      </trkpt>
      <trkpt lat="43.61474" lon="6.8551">
        <ele>226</ele>
        <time>2019-02-07T09:32:50.000Z</time>
      </trkpt>
      <trkpt lat="43.61473" lon="6.85512">
        <ele>226</ele>
        <time>2019-02-07T09:32:51.000Z</time>
      </trkpt>
      <trkpt lat="43.61473" lon="6.85513">
        <ele>226</ele>
        <time>2019-02-07T09:32:52.000Z</time>
      </trkpt>
      <trkpt lat="43.61472" lon="6.85514">
        <ele>225</ele>
        <time>2019-02-07T09:32:53.000Z</time>
      </trkpt>
      <trkpt lat="43.61471" lon="6.85516">
        <ele>225</ele>
        <time>2019-02-07T09:32:54.000Z</time>
      </trkpt>
      <trkpt lat="43.6147" lon="6.85517">
        <ele>225</ele>
        <time>2019-02-07T09:32:55.000Z</time>
      </trkpt>
      <trkpt lat="43.6147" lon="6.85519">
        <ele>225</ele>
        <time>2019-02-07T09:32:56.000Z</time>
      </trkpt>
      <trkpt lat="43.61469" lon="6.8552">
        <ele>225</ele>
        <time>2019-02-07T09:32:57.000Z</time>
      </trkpt>
      <trkpt lat="43.61469" lon="6.85522">
        <ele>225</ele>
        <time>2019-02-07T09:32:58.000Z</time>
      </trkpt>
      <trkpt lat="43.61469" lon="6.85524">
        <ele>225</ele>
        <time>2019-02-07T09:32:59.000Z</time>
      </trkpt>
      <trkpt lat="43.61468" lon="6.85525">
        <ele>224</ele>
        <time>2019-02-07T09:33:00.000Z</time>
      </trkpt>
      <trkpt lat="43.61468" lon="6.85527">
        <ele>224</ele>
        <time>2019-02-07T09:33:01.000Z</time>
      </trkpt>
      <trkpt lat="43.61468" lon="6.85527">
        <ele>224</ele>
        <time>2019-02-07T09:33:02.000Z</time>
      </trkpt>
      <trkpt lat="43.61468" lon="6.85528">
        <ele>224</ele>
        <time>2019-02-07T09:33:03.000Z</time>
      </trkpt>
      <trkpt lat="43.61468" lon="6.85529">
        <ele>224</ele>
        <time>2019-02-07T09:33:04.000Z</time>
      </trkpt>
      <trkpt lat="43.61468" lon="6.85529">
        <ele>224</ele>
        <time>2019-02-07T09:33:05.000Z</time>
      </trkpt>
      <trkpt lat="43.61468" lon="6.85529">
        <ele>224</ele>
        <time>2019-02-07T09:33:06.000Z</time>
      </trkpt>
      <trkpt lat="43.61468" lon="6.85529">
        <ele>224</ele>
        <time>2019-02-07T09:33:07.000Z</time>
      </trkpt>
      <trkpt lat="43.61469" lon="6.85529">
        <ele>224</ele>
        <time>2019-02-07T09:33:08.000Z</time>
      </trkpt>
      <trkpt lat="43.61469" lon="6.85529">
        <ele>224</ele>
        <time>2019-02-07T09:33:09.000Z</time>
      </trkpt>
      <trkpt lat="43.6147" lon="6.85529">
        <ele>223</ele>
        <time>2019-02-07T09:33:10.000Z</time>
      </trkpt>
      <trkpt lat="43.61471" lon="6.85529">
        <ele>224</ele>
        <time>2019-02-07T09:33:11.000Z</time>
      </trkpt>
      <trkpt lat="43.61471" lon="6.85529">
        <ele>224</ele>
        <time>2019-02-07T09:33:12.000Z</time>
      </trkpt>
      <trkpt lat="43.61472" lon="6.85529">
        <ele>223</ele>
        <time>2019-02-07T09:33:13.000Z</time>
      </trkpt>
      <trkpt lat="43.61472" lon="6.85528">
        <ele>223</ele>
        <time>2019-02-07T09:33:14.000Z</time>
      </trkpt>
      <trkpt lat="43.61473" lon="6.85528">
        <ele>223</ele>
        <time>2019-02-07T09:33:15.000Z</time>
      </trkpt>
      <trkpt lat="43.61473" lon="6.85528">
        <ele>223</ele>
        <time>2019-02-07T09:33:16.000Z</time>
      </trkpt>
      <trkpt lat="43.61474" lon="6.85527">
        <ele>223</ele>
        <time>2019-02-07T09:33:17.000Z</time>
      </trkpt>
      <trkpt lat="43.61475" lon="6.85527">
        <ele>224</ele>
        <time>2019-02-07T09:33:18.000Z</time>
      </trkpt>
      <trkpt lat="43.61476" lon="6.85527">
        <ele>224</ele>
        <time>2019-02-07T09:33:19.000Z</time>
      </trkpt>
      <trkpt lat="43.61477" lon="6.85528">
        <ele>224</ele>
        <time>2019-02-07T09:33:20.000Z</time>
      </trkpt>
      <trkpt lat="43.61477" lon="6.85528">
        <ele>224</ele>
        <time>2019-02-07T09:33:21.000Z</time>
      </trkpt>
      <trkpt lat="43.61478" lon="6.85528">
        <ele>224</ele>
        <time>2019-02-07T09:33:22.000Z</time>
      </trkpt>
      <trkpt lat="43.61479" lon="6.85528">
        <ele>224</ele>
        <time>2019-02-07T09:33:23.000Z</time>
      </trkpt>
      <trkpt lat="43.6148" lon="6.85528">
        <ele>224</ele>
        <time>2019-02-07T09:33:24.000Z</time>
      </trkpt>
      <trkpt lat="43.6148" lon="6.85528">
        <ele>225</ele>
        <time>2019-02-07T09:33:25.000Z</time>
      </trkpt>
      <trkpt lat="43.61481" lon="6.85528">
        <ele>225</ele>
        <time>2019-02-07T09:33:26.000Z</time>
      </trkpt>
      <trkpt lat="43.61482" lon="6.85528">
        <ele>225</ele>
        <time>2019-02-07T09:33:27.000Z</time>
      </trkpt>
      <trkpt lat="43.61482" lon="6.85527">
        <ele>225</ele>
        <time>2019-02-07T09:33:28.000Z</time>
      </trkpt>
      <trkpt lat="43.61483" lon="6.85527">
        <ele>226</ele>
        <time>2019-02-07T09:33:29.000Z</time>
      </trkpt>
      <trkpt lat="43.61484" lon="6.85528">
        <ele>226</ele>
        <time>2019-02-07T09:33:30.000Z</time>
      </trkpt>
      <trkpt lat="43.61485" lon="6.85528">
        <ele>226</ele>
        <time>2019-02-07T09:33:31.000Z</time>
      </trkpt>
      <trkpt lat="43.61486" lon="6.85528">
        <ele>227</ele>
        <time>2019-02-07T09:33:32.000Z</time>
      </trkpt>
      <trkpt lat="43.61486" lon="6.85528">
        <ele>227</ele>
        <time>2019-02-07T09:33:33.000Z</time>
      </trkpt>
      <trkpt lat="43.61486" lon="6.85528">
        <ele>227</ele>
        <time>2019-02-07T09:33:34.000Z</time>
      </trkpt>
      <trkpt lat="43.61486" lon="6.85528">
        <ele>227</ele>
        <time>2019-02-07T09:33:35.000Z</time>
      </trkpt>
      <trkpt lat="43.61487" lon="6.85528">
        <ele>228</ele>
        <time>2019-02-07T09:33:36.000Z</time>
      </trkpt>
      <trkpt lat="43.61488" lon="6.85528">
        <ele>228</ele>
        <time>2019-02-07T09:33:37.000Z</time>
      </trkpt>
      <trkpt lat="43.61489" lon="6.85528">
        <ele>228</ele>
        <time>2019-02-07T09:33:38.000Z</time>
      </trkpt>
      <trkpt lat="43.6149" lon="6.85529">
        <ele>228</ele>
        <time>2019-02-07T09:33:39.000Z</time>
      </trkpt>
      <trkpt lat="43.6149" lon="6.85529">
        <ele>228</ele>
        <time>2019-02-07T09:33:40.000Z</time>
      </trkpt>
      <trkpt lat="43.61491" lon="6.85529">
        <ele>228</ele>
        <time>2019-02-07T09:33:41.000Z</time>
      </trkpt>
      <trkpt lat="43.61492" lon="6.85529">
        <ele>228</ele>
        <time>2019-02-07T09:33:42.000Z</time>
      </trkpt>
      <trkpt lat="43.61492" lon="6.85529">
        <ele>228</ele>
        <time>2019-02-07T09:33:43.000Z</time>
      </trkpt>
      <trkpt lat="43.61493" lon="6.85529">
        <ele>229</ele>
        <time>2019-02-07T09:33:44.000Z</time>
      </trkpt>
      <trkpt lat="43.61494" lon="6.85529">
        <ele>229</ele>
        <time>2019-02-07T09:33:45.000Z</time>
      </trkpt>
      <trkpt lat="43.61495" lon="6.85528">
        <ele>229</ele>
        <time>2019-02-07T09:33:46.000Z</time>
      </trkpt>
      <trkpt lat="43.61496" lon="6.85528">
        <ele>230</ele>
        <time>2019-02-07T09:33:47.000Z</time>
      </trkpt>
      <trkpt lat="43.61497" lon="6.85528">
        <ele>230</ele>
        <time>2019-02-07T09:33:48.000Z</time>
      </trkpt>
      <trkpt lat="43.61498" lon="6.85528">
        <ele>230</ele>
        <time>2019-02-07T09:33:49.000Z</time>
      </trkpt>
      <trkpt lat="43.61499" lon="6.85528">
        <ele>230</ele>
        <time>2019-02-07T09:33:50.000Z</time>
      </trkpt>
      <trkpt lat="43.61499" lon="6.85529">
        <ele>230</ele>
        <time>2019-02-07T09:33:51.000Z</time>
      </trkpt>
      <trkpt lat="43.61499" lon="6.85529">
        <ele>231</ele>
        <time>2019-02-07T09:33:52.000Z</time>
      </trkpt>
      <trkpt lat="43.61499" lon="6.85529">
        <ele>230</ele>
        <time>2019-02-07T09:33:53.000Z</time>
      </trkpt>
      <trkpt lat="43.61499" lon="6.85529">
        <ele>231</ele>
        <time>2019-02-07T09:33:54.000Z</time>
      </trkpt>
      <trkpt lat="43.615" lon="6.8553">
        <ele>232</ele>
        <time>2019-02-07T09:33:55.000Z</time>
      </trkpt>
      <trkpt lat="43.615" lon="6.8553">
        <ele>231</ele>
        <time>2019-02-07T09:33:56.000Z</time>
      </trkpt>
      <trkpt lat="43.61501" lon="6.8553">
        <ele>231</ele>
        <time>2019-02-07T09:33:57.000Z</time>
      </trkpt>
      <trkpt lat="43.61501" lon="6.8553">
        <ele>232</ele>
        <time>2019-02-07T09:33:58.000Z</time>
      </trkpt>
      <trkpt lat="43.61502" lon="6.8553">
        <ele>232</ele>
        <time>2019-02-07T09:33:59.000Z</time>
      </trkpt>
      <trkpt lat="43.61502" lon="6.8553">
        <ele>233</ele>
        <time>2019-02-07T09:34:00.000Z</time>
      </trkpt>
      <trkpt lat="43.61503" lon="6.8553">
        <ele>233</ele>
        <time>2019-02-07T09:34:01.000Z</time>
      </trkpt>
      <trkpt lat="43.61504" lon="6.8553">
        <ele>233</ele>
        <time>2019-02-07T09:34:02.000Z</time>
      </trkpt>
      <trkpt lat="43.61505" lon="6.8553">
        <ele>233</ele>
        <time>2019-02-07T09:34:03.000Z</time>
      </trkpt>
      <trkpt lat="43.61507" lon="6.8553">
        <ele>234</ele>
        <time>2019-02-07T09:34:04.000Z</time>
      </trkpt>
      <trkpt lat="43.61508" lon="6.8553">
        <ele>234</ele>
        <time>2019-02-07T09:34:05.000Z</time>
      </trkpt>
      <trkpt lat="43.61509" lon="6.8553">
        <ele>234</ele>
        <time>2019-02-07T09:34:06.000Z</time>
      </trkpt>
      <trkpt lat="43.61509" lon="6.8553">
        <ele>235</ele>
        <time>2019-02-07T09:34:07.000Z</time>
      </trkpt>
      <trkpt lat="43.6151" lon="6.85529">
        <ele>235</ele>
        <time>2019-02-07T09:34:08.000Z</time>
      </trkpt>
      <trkpt lat="43.61511" lon="6.85529">
        <ele>235</ele>
        <time>2019-02-07T09:34:09.000Z</time>
      </trkpt>
      <trkpt lat="43.61513" lon="6.85529">
        <ele>235</ele>
        <time>2019-02-07T09:34:10.000Z</time>
      </trkpt>
      <trkpt lat="43.61514" lon="6.85528">
        <ele>236</ele>
        <time>2019-02-07T09:34:11.000Z</time>
      </trkpt>
      <trkpt lat="43.61515" lon="6.85528">
        <ele>236</ele>
        <time>2019-02-07T09:34:12.000Z</time>
      </trkpt>
      <trkpt lat="43.61516" lon="6.85529">
        <ele>236</ele>
        <time>2019-02-07T09:34:13.000Z</time>
      </trkpt>
      <trkpt lat="43.61517" lon="6.85529">
        <ele>236</ele>
        <time>2019-02-07T09:34:14.000Z</time>
      </trkpt>
      <trkpt lat="43.61518" lon="6.85529">
        <ele>237</ele>
        <time>2019-02-07T09:34:15.000Z</time>
      </trkpt>
      <trkpt lat="43.61519" lon="6.85529">
        <ele>237</ele>
        <time>2019-02-07T09:34:16.000Z</time>
      </trkpt>
      <trkpt lat="43.6152" lon="6.85528">
        <ele>237</ele>
        <time>2019-02-07T09:34:17.000Z</time>
      </trkpt>
      <trkpt lat="43.61521" lon="6.85529">
        <ele>238</ele>
        <time>2019-02-07T09:34:18.000Z</time>
      </trkpt>
      <trkpt lat="43.61522" lon="6.85529">
        <ele>238</ele>
        <time>2019-02-07T09:34:19.000Z</time>
      </trkpt>
      <trkpt lat="43.61523" lon="6.85529">
        <ele>238</ele>
        <time>2019-02-07T09:34:20.000Z</time>
      </trkpt>
      <trkpt lat="43.61523" lon="6.8553">
        <ele>239</ele>
        <time>2019-02-07T09:34:21.000Z</time>
      </trkpt>
      <trkpt lat="43.61524" lon="6.8553">
        <ele>239</ele>
        <time>2019-02-07T09:34:22.000Z</time>
      </trkpt>
      <trkpt lat="43.61525" lon="6.8553">
        <ele>239</ele>
        <time>2019-02-07T09:34:23.000Z</time>
      </trkpt>
      <trkpt lat="43.61526" lon="6.85529">
        <ele>239</ele>
        <time>2019-02-07T09:34:24.000Z</time>
      </trkpt>
      <trkpt lat="43.61527" lon="6.85529">
        <ele>239</ele>
        <time>2019-02-07T09:34:25.000Z</time>
      </trkpt>
      <trkpt lat="43.61528" lon="6.85529">
        <ele>239</ele>
        <time>2019-02-07T09:34:26.000Z</time>
      </trkpt>
      <trkpt lat="43.61529" lon="6.85529">
        <ele>240</ele>
        <time>2019-02-07T09:34:27.000Z</time>
      </trkpt>
      <trkpt lat="43.6153" lon="6.85528">
        <ele>240</ele>
        <time>2019-02-07T09:34:28.000Z</time>
      </trkpt>
      <trkpt lat="43.61531" lon="6.85528">
        <ele>240</ele>
        <time>2019-02-07T09:34:29.000Z</time>
      </trkpt>
      <trkpt lat="43.61532" lon="6.85528">
        <ele>241</ele>
        <time>2019-02-07T09:34:30.000Z</time>
      </trkpt>
      <trkpt lat="43.61533" lon="6.85528">
        <ele>241</ele>
        <time>2019-02-07T09:34:31.000Z</time>
      </trkpt>
      <trkpt lat="43.61534" lon="6.85528">
        <ele>241</ele>
        <time>2019-02-07T09:34:32.000Z</time>
      </trkpt>
      <trkpt lat="43.61534" lon="6.85528">
        <ele>241</ele>
        <time>2019-02-07T09:34:33.000Z</time>
      </trkpt>
      <trkpt lat="43.61535" lon="6.85527">
        <ele>242</ele>
        <time>2019-02-07T09:34:34.000Z</time>
      </trkpt>
      <trkpt lat="43.61536" lon="6.85527">
        <ele>242</ele>
        <time>2019-02-07T09:34:35.000Z</time>
      </trkpt>
      <trkpt lat="43.61536" lon="6.85526">
        <ele>243</ele>
        <time>2019-02-07T09:34:36.000Z</time>
      </trkpt>
      <trkpt lat="43.61537" lon="6.85526">
        <ele>243</ele>
        <time>2019-02-07T09:34:37.000Z</time>
      </trkpt>
      <trkpt lat="43.61538" lon="6.85526">
        <ele>243</ele>
        <time>2019-02-07T09:34:38.000Z</time>
      </trkpt>
      <trkpt lat="43.61539" lon="6.85526">
        <ele>243</ele>
        <time>2019-02-07T09:34:39.000Z</time>
      </trkpt>
      <trkpt lat="43.6154" lon="6.85525">
        <ele>244</ele>
        <time>2019-02-07T09:34:40.000Z</time>
      </trkpt>
      <trkpt lat="43.61541" lon="6.85525">
        <ele>243</ele>
        <time>2019-02-07T09:34:41.000Z</time>
      </trkpt>
      <trkpt lat="43.61542" lon="6.85526">
        <ele>243</ele>
        <time>2019-02-07T09:34:42.000Z</time>
      </trkpt>
      <trkpt lat="43.61543" lon="6.85526">
        <ele>243</ele>
        <time>2019-02-07T09:34:43.000Z</time>
      </trkpt>
      <trkpt lat="43.61544" lon="6.85526">
        <ele>244</ele>
        <time>2019-02-07T09:34:44.000Z</time>
      </trkpt>
      <trkpt lat="43.61545" lon="6.85526">
        <ele>244</ele>
        <time>2019-02-07T09:34:45.000Z</time>
      </trkpt>
      <trkpt lat="43.61546" lon="6.85526">
        <ele>244</ele>
        <time>2019-02-07T09:34:46.000Z</time>
      </trkpt>
      <trkpt lat="43.61547" lon="6.85526">
        <ele>245</ele>
        <time>2019-02-07T09:34:47.000Z</time>
      </trkpt>
      <trkpt lat="43.61548" lon="6.85526">
        <ele>245</ele>
        <time>2019-02-07T09:34:48.000Z</time>
      </trkpt>
      <trkpt lat="43.61549" lon="6.85526">
        <ele>245</ele>
        <time>2019-02-07T09:34:49.000Z</time>
      </trkpt>
      <trkpt lat="43.6155" lon="6.85526">
        <ele>245</ele>
        <time>2019-02-07T09:34:50.000Z</time>
      </trkpt>
      <trkpt lat="43.61551" lon="6.85526">
        <ele>245</ele>
        <time>2019-02-07T09:34:51.000Z</time>
      </trkpt>
      <trkpt lat="43.61552" lon="6.85527">
        <ele>245</ele>
        <time>2019-02-07T09:34:52.000Z</time>
      </trkpt>
      <trkpt lat="43.61553" lon="6.85527">
        <ele>245</ele>
        <time>2019-02-07T09:34:53.000Z</time>
      </trkpt>
      <trkpt lat="43.61554" lon="6.85528">
        <ele>246</ele>
        <time>2019-02-07T09:34:54.000Z</time>
      </trkpt>
      <trkpt lat="43.61555" lon="6.85528">
        <ele>246</ele>
        <time>2019-02-07T09:34:55.000Z</time>
      </trkpt>
      <trkpt lat="43.61556" lon="6.85528">
        <ele>246</ele>
        <time>2019-02-07T09:34:56.000Z</time>
      </trkpt>
      <trkpt lat="43.61557" lon="6.85528">
        <ele>246</ele>
        <time>2019-02-07T09:34:57.000Z</time>
      </trkpt>
      <trkpt lat="43.61558" lon="6.85528">
        <ele>247</ele>
        <time>2019-02-07T09:34:58.000Z</time>
      </trkpt>
      <trkpt lat="43.61559" lon="6.85528">
        <ele>247</ele>
        <time>2019-02-07T09:34:59.000Z</time>
      </trkpt>
      <trkpt lat="43.6156" lon="6.85528">
        <ele>248</ele>
        <time>2019-02-07T09:35:00.000Z</time>
      </trkpt>
      <trkpt lat="43.61561" lon="6.85528">
        <ele>248</ele>
        <time>2019-02-07T09:35:01.000Z</time>
      </trkpt>
      <trkpt lat="43.61562" lon="6.85528">
        <ele>248</ele>
        <time>2019-02-07T09:35:02.000Z</time>
      </trkpt>
      <trkpt lat="43.61563" lon="6.85528">
        <ele>248</ele>
        <time>2019-02-07T09:35:03.000Z</time>
      </trkpt>
      <trkpt lat="43.61564" lon="6.85529">
        <ele>247</ele>
        <time>2019-02-07T09:35:04.000Z</time>
      </trkpt>
      <trkpt lat="43.61565" lon="6.85529">
        <ele>247</ele>
        <time>2019-02-07T09:35:05.000Z</time>
      </trkpt>
      <trkpt lat="43.61566" lon="6.8553">
        <ele>247</ele>
        <time>2019-02-07T09:35:06.000Z</time>
      </trkpt>
      <trkpt lat="43.61567" lon="6.8553">
        <ele>247</ele>
        <time>2019-02-07T09:35:07.000Z</time>
      </trkpt>
      <trkpt lat="43.61568" lon="6.8553">
        <ele>247</ele>
        <time>2019-02-07T09:35:08.000Z</time>
      </trkpt>
      <trkpt lat="43.61569" lon="6.8553">
        <ele>248</ele>
        <time>2019-02-07T09:35:09.000Z</time>
      </trkpt>
      <trkpt lat="43.6157" lon="6.8553">
        <ele>248</ele>
        <time>2019-02-07T09:35:10.000Z</time>
      </trkpt>
      <trkpt lat="43.61571" lon="6.8553">
        <ele>248</ele>
        <time>2019-02-07T09:35:11.000Z</time>
      </trkpt>
      <trkpt lat="43.61572" lon="6.8553">
        <ele>249</ele>
        <time>2019-02-07T09:35:12.000Z</time>
      </trkpt>
      <trkpt lat="43.61573" lon="6.85531">
        <ele>248</ele>
        <time>2019-02-07T09:35:13.000Z</time>
      </trkpt>
      <trkpt lat="43.61574" lon="6.85531">
        <ele>248</ele>
        <time>2019-02-07T09:35:14.000Z</time>
      </trkpt>
      <trkpt lat="43.61575" lon="6.85531">
        <ele>248</ele>
        <time>2019-02-07T09:35:15.000Z</time>
      </trkpt>
      <trkpt lat="43.61576" lon="6.85531">
        <ele>248</ele>
        <time>2019-02-07T09:35:16.000Z</time>
      </trkpt>
      <trkpt lat="43.61577" lon="6.85531">
        <ele>248</ele>
        <time>2019-02-07T09:35:17.000Z</time>
      </trkpt>
      <trkpt lat="43.61579" lon="6.8553">
        <ele>248</ele>
        <time>2019-02-07T09:35:18.000Z</time>
      </trkpt>
      <trkpt lat="43.6158" lon="6.8553">
        <ele>248</ele>
        <time>2019-02-07T09:35:19.000Z</time>
      </trkpt>
      <trkpt lat="43.61581" lon="6.8553">
        <ele>248</ele>
        <time>2019-02-07T09:35:20.000Z</time>
      </trkpt>
      <trkpt lat="43.61582" lon="6.8553">
        <ele>248</ele>
        <time>2019-02-07T09:35:21.000Z</time>
      </trkpt>
      <trkpt lat="43.61583" lon="6.85529">
        <ele>248</ele>
        <time>2019-02-07T09:35:22.000Z</time>
      </trkpt>
      <trkpt lat="43.61583" lon="6.85529">
        <ele>248</ele>
        <time>2019-02-07T09:35:23.000Z</time>
      </trkpt>
      <trkpt lat="43.61584" lon="6.85529">
        <ele>248</ele>
        <time>2019-02-07T09:35:24.000Z</time>
      </trkpt>
      <trkpt lat="43.61585" lon="6.85529">
        <ele>248</ele>
        <time>2019-02-07T09:35:25.000Z</time>
      </trkpt>
      <trkpt lat="43.61586" lon="6.85529">
        <ele>248</ele>
        <time>2019-02-07T09:35:26.000Z</time>
      </trkpt>
      <trkpt lat="43.61587" lon="6.85529">
        <ele>248</ele>
        <time>2019-02-07T09:35:27.000Z</time>
      </trkpt>
      <trkpt lat="43.61587" lon="6.85529">
        <ele>248</ele>
        <time>2019-02-07T09:35:28.000Z</time>
      </trkpt>
      <trkpt lat="43.61588" lon="6.85528">
        <ele>248</ele>
        <time>2019-02-07T09:35:29.000Z</time>
      </trkpt>
      <trkpt lat="43.61589" lon="6.85528">
        <ele>249</ele>
        <time>2019-02-07T09:35:30.000Z</time>
      </trkpt>
      <trkpt lat="43.6159" lon="6.85528">
        <ele>249</ele>
        <time>2019-02-07T09:35:31.000Z</time>
      </trkpt>
      <trkpt lat="43.6159" lon="6.85527">
        <ele>249</ele>
        <time>2019-02-07T09:35:32.000Z</time>
      </trkpt>
      <trkpt lat="43.61591" lon="6.85527">
        <ele>249</ele>
        <time>2019-02-07T09:35:33.000Z</time>
      </trkpt>
      <trkpt lat="43.61592" lon="6.85527">
        <ele>250</ele>
        <time>2019-02-07T09:35:34.000Z</time>
      </trkpt>
      <trkpt lat="43.61593" lon="6.85526">
        <ele>250</ele>
        <time>2019-02-07T09:35:35.000Z</time>
      </trkpt>
      <trkpt lat="43.61593" lon="6.85526">
        <ele>250</ele>
        <time>2019-02-07T09:35:36.000Z</time>
      </trkpt>
      <trkpt lat="43.61594" lon="6.85526">
        <ele>250</ele>
        <time>2019-02-07T09:35:37.000Z</time>
      </trkpt>
      <trkpt lat="43.61595" lon="6.85526">
        <ele>250</ele>
        <time>2019-02-07T09:35:38.000Z</time>
      </trkpt>
      <trkpt lat="43.61596" lon="6.85526">
        <ele>251</ele>
        <time>2019-02-07T09:35:39.000Z</time>
      </trkpt>
      <trkpt lat="43.61597" lon="6.85525">
        <ele>251</ele>
        <time>2019-02-07T09:35:40.000Z</time>
      </trkpt>
      <trkpt lat="43.61598" lon="6.85525">
        <ele>251</ele>
        <time>2019-02-07T09:35:41.000Z</time>
      </trkpt>
      <trkpt lat="43.61599" lon="6.85525">
        <ele>251</ele>
        <time>2019-02-07T09:35:42.000Z</time>
      </trkpt>
      <trkpt lat="43.61599" lon="6.85525">
        <ele>252</ele>
        <time>2019-02-07T09:35:43.000Z</time>
      </trkpt>
      <trkpt lat="43.616" lon="6.85524">
        <ele>252</ele>
        <time>2019-02-07T09:35:44.000Z</time>
      </trkpt>
      <trkpt lat="43.61601" lon="6.85525">
        <ele>252</ele>
        <time>2019-02-07T09:35:45.000Z</time>
      </trkpt>
      <trkpt lat="43.61602" lon="6.85525">
        <ele>253</ele>
        <time>2019-02-07T09:35:46.000Z</time>
      </trkpt>
      <trkpt lat="43.61603" lon="6.85524">
        <ele>253</ele>
        <time>2019-02-07T09:35:47.000Z</time>
      </trkpt>
      <trkpt lat="43.61604" lon="6.85524">
        <ele>253</ele>
        <time>2019-02-07T09:35:48.000Z</time>
      </trkpt>
      <trkpt lat="43.61606" lon="6.85524">
        <ele>253</ele>
        <time>2019-02-07T09:35:49.000Z</time>
      </trkpt>
      <trkpt lat="43.61607" lon="6.85524">
        <ele>254</ele>
        <time>2019-02-07T09:35:50.000Z</time>
      </trkpt>
      <trkpt lat="43.61608" lon="6.85523">
        <ele>254</ele>
        <time>2019-02-07T09:35:51.000Z</time>
      </trkpt>
      <trkpt lat="43.61609" lon="6.85523">
        <ele>254</ele>
        <time>2019-02-07T09:35:52.000Z</time>
      </trkpt>
      <trkpt lat="43.6161" lon="6.85523">
        <ele>254</ele>
        <time>2019-02-07T09:35:53.000Z</time>
      </trkpt>
      <trkpt lat="43.61611" lon="6.85523">
        <ele>254</ele>
        <time>2019-02-07T09:35:54.000Z</time>
      </trkpt>
      <trkpt lat="43.61613" lon="6.85523">
        <ele>254</ele>
        <time>2019-02-07T09:35:55.000Z</time>
      </trkpt>
      <trkpt lat="43.61614" lon="6.85523">
        <ele>254</ele>
        <time>2019-02-07T09:35:56.000Z</time>
      </trkpt>
      <trkpt lat="43.61615" lon="6.85523">
        <ele>254</ele>
        <time>2019-02-07T09:35:57.000Z</time>
      </trkpt>
      <trkpt lat="43.61616" lon="6.85523">
        <ele>254</ele>
        <time>2019-02-07T09:35:58.000Z</time>
      </trkpt>
      <trkpt lat="43.61617" lon="6.85523">
        <ele>254</ele>
        <time>2019-02-07T09:35:59.000Z</time>
      </trkpt>
      <trkpt lat="43.61618" lon="6.85523">
        <ele>254</ele>
        <time>2019-02-07T09:36:00.000Z</time>
      </trkpt>
      <trkpt lat="43.61619" lon="6.85523">
        <ele>254</ele>
        <time>2019-02-07T09:36:01.000Z</time>
      </trkpt>
      <trkpt lat="43.61619" lon="6.85523">
        <ele>254</ele>
        <time>2019-02-07T09:36:02.000Z</time>
      </trkpt>
      <trkpt lat="43.6162" lon="6.85524">
        <ele>254</ele>
        <time>2019-02-07T09:36:03.000Z</time>
      </trkpt>
      <trkpt lat="43.61621" lon="6.85524">
        <ele>254</ele>
        <time>2019-02-07T09:36:04.000Z</time>
      </trkpt>
      <trkpt lat="43.61622" lon="6.85523">
        <ele>254</ele>
        <time>2019-02-07T09:36:05.000Z</time>
      </trkpt>
      <trkpt lat="43.61623" lon="6.85523">
        <ele>255</ele>
        <time>2019-02-07T09:36:06.000Z</time>
      </trkpt>
      <trkpt lat="43.61624" lon="6.85523">
        <ele>255</ele>
        <time>2019-02-07T09:36:07.000Z</time>
      </trkpt>
      <trkpt lat="43.61625" lon="6.85523">
        <ele>255</ele>
        <time>2019-02-07T09:36:08.000Z</time>
      </trkpt>
      <trkpt lat="43.61626" lon="6.85523">
        <ele>255</ele>
        <time>2019-02-07T09:36:09.000Z</time>
      </trkpt>
      <trkpt lat="43.61627" lon="6.85523">
        <ele>255</ele>
        <time>2019-02-07T09:36:10.000Z</time>
      </trkpt>
      <trkpt lat="43.61627" lon="6.85523">
        <ele>256</ele>
        <time>2019-02-07T09:36:11.000Z</time>
      </trkpt>
      <trkpt lat="43.61628" lon="6.85523">
        <ele>256</ele>
        <time>2019-02-07T09:36:12.000Z</time>
      </trkpt>
      <trkpt lat="43.61629" lon="6.85523">
        <ele>257</ele>
        <time>2019-02-07T09:36:13.000Z</time>
      </trkpt>
      <trkpt lat="43.61629" lon="6.85523">
        <ele>258</ele>
        <time>2019-02-07T09:36:14.000Z</time>
      </trkpt>
      <trkpt lat="43.6163" lon="6.85523">
        <ele>258</ele>
        <time>2019-02-07T09:36:15.000Z</time>
      </trkpt>
      <trkpt lat="43.61631" lon="6.85523">
        <ele>258</ele>
        <time>2019-02-07T09:36:16.000Z</time>
      </trkpt>
      <trkpt lat="43.61632" lon="6.85524">
        <ele>258</ele>
        <time>2019-02-07T09:36:17.000Z</time>
      </trkpt>
      <trkpt lat="43.61632" lon="6.85525">
        <ele>258</ele>
        <time>2019-02-07T09:36:18.000Z</time>
      </trkpt>
      <trkpt lat="43.61633" lon="6.85526">
        <ele>258</ele>
        <time>2019-02-07T09:36:19.000Z</time>
      </trkpt>
      <trkpt lat="43.61633" lon="6.85527">
        <ele>258</ele>
        <time>2019-02-07T09:36:20.000Z</time>
      </trkpt>
      <trkpt lat="43.61634" lon="6.85528">
        <ele>257</ele>
        <time>2019-02-07T09:36:21.000Z</time>
      </trkpt>
      <trkpt lat="43.61634" lon="6.85529">
        <ele>257</ele>
        <time>2019-02-07T09:36:22.000Z</time>
      </trkpt>
      <trkpt lat="43.61634" lon="6.8553">
        <ele>257</ele>
        <time>2019-02-07T09:36:23.000Z</time>
      </trkpt>
      <trkpt lat="43.61635" lon="6.85531">
        <ele>257</ele>
        <time>2019-02-07T09:36:24.000Z</time>
      </trkpt>
      <trkpt lat="43.61635" lon="6.85532">
        <ele>256</ele>
        <time>2019-02-07T09:36:25.000Z</time>
      </trkpt>
      <trkpt lat="43.61635" lon="6.85533">
        <ele>256</ele>
        <time>2019-02-07T09:36:26.000Z</time>
      </trkpt>
      <trkpt lat="43.61635" lon="6.85534">
        <ele>256</ele>
        <time>2019-02-07T09:36:27.000Z</time>
      </trkpt>
      <trkpt lat="43.61636" lon="6.85535">
        <ele>255</ele>
        <time>2019-02-07T09:36:28.000Z</time>
      </trkpt>
      <trkpt lat="43.61636" lon="6.85536">
        <ele>255</ele>
        <time>2019-02-07T09:36:29.000Z</time>
      </trkpt>
      <trkpt lat="43.61636" lon="6.85537">
        <ele>255</ele>
        <time>2019-02-07T09:36:30.000Z</time>
      </trkpt>
      <trkpt lat="43.61636" lon="6.85537">
        <ele>255</ele>
        <time>2019-02-07T09:36:31.000Z</time>
      </trkpt>
      <trkpt lat="43.61637" lon="6.85538">
        <ele>255</ele>
        <time>2019-02-07T09:36:32.000Z</time>
      </trkpt>
      <trkpt lat="43.61636" lon="6.85539">
        <ele>256</ele>
        <time>2019-02-07T09:36:33.000Z</time>
      </trkpt>
      <trkpt lat="43.61636" lon="6.8554">
        <ele>256</ele>
        <time>2019-02-07T09:36:34.000Z</time>
      </trkpt>
      <trkpt lat="43.61637" lon="6.85542">
        <ele>256</ele>
        <time>2019-02-07T09:36:35.000Z</time>
      </trkpt>
      <trkpt lat="43.61637" lon="6.85543">
        <ele>256</ele>
        <time>2019-02-07T09:36:36.000Z</time>
      </trkpt>
      <trkpt lat="43.61637" lon="6.85544">
        <ele>256</ele>
        <time>2019-02-07T09:36:37.000Z</time>
      </trkpt>
      <trkpt lat="43.61637" lon="6.85545">
        <ele>257</ele>
        <time>2019-02-07T09:36:38.000Z</time>
      </trkpt>
      <trkpt lat="43.61638" lon="6.85546">
        <ele>257</ele>
        <time>2019-02-07T09:36:39.000Z</time>
      </trkpt>
      <trkpt lat="43.61638" lon="6.85547">
        <ele>257</ele>
        <time>2019-02-07T09:36:40.000Z</time>
      </trkpt>
      <trkpt lat="43.61639" lon="6.85548">
        <ele>257</ele>
        <time>2019-02-07T09:36:41.000Z</time>
      </trkpt>
      <trkpt lat="43.61639" lon="6.85549">
        <ele>258</ele>
        <time>2019-02-07T09:36:42.000Z</time>
      </trkpt>
      <trkpt lat="43.6164" lon="6.8555">
        <ele>257</ele>
        <time>2019-02-07T09:36:43.000Z</time>
      </trkpt>
      <trkpt lat="43.6164" lon="6.85551">
        <ele>258</ele>
        <time>2019-02-07T09:36:44.000Z</time>
      </trkpt>
      <trkpt lat="43.61641" lon="6.85552">
        <ele>257</ele>
        <time>2019-02-07T09:36:45.000Z</time>
      </trkpt>
      <trkpt lat="43.61641" lon="6.85553">
        <ele>258</ele>
        <time>2019-02-07T09:36:46.000Z</time>
      </trkpt>
      <trkpt lat="43.61641" lon="6.85554">
        <ele>258</ele>
        <time>2019-02-07T09:36:47.000Z</time>
      </trkpt>
      <trkpt lat="43.61641" lon="6.85555">
        <ele>258</ele>
        <time>2019-02-07T09:36:48.000Z</time>
      </trkpt>
      <trkpt lat="43.61642" lon="6.85556">
        <ele>258</ele>
        <time>2019-02-07T09:36:49.000Z</time>
      </trkpt>
      <trkpt lat="43.61642" lon="6.85557">
        <ele>257</ele>
        <time>2019-02-07T09:36:50.000Z</time>
      </trkpt>
      <trkpt lat="43.61643" lon="6.85558">
        <ele>257</ele>
        <time>2019-02-07T09:36:51.000Z</time>
      </trkpt>
      <trkpt lat="43.61643" lon="6.85558">
        <ele>257</ele>
        <time>2019-02-07T09:36:52.000Z</time>
      </trkpt>
      <trkpt lat="43.61643" lon="6.85559">
        <ele>257</ele>
        <time>2019-02-07T09:36:53.000Z</time>
      </trkpt>
      <trkpt lat="43.61644" lon="6.8556">
        <ele>257</ele>
        <time>2019-02-07T09:36:54.000Z</time>
      </trkpt>
      <trkpt lat="43.61644" lon="6.85561">
        <ele>257</ele>
        <time>2019-02-07T09:36:55.000Z</time>
      </trkpt>
      <trkpt lat="43.61645" lon="6.85562">
        <ele>257</ele>
        <time>2019-02-07T09:36:56.000Z</time>
      </trkpt>
      <trkpt lat="43.61645" lon="6.85563">
        <ele>257</ele>
        <time>2019-02-07T09:36:57.000Z</time>
      </trkpt>
      <trkpt lat="43.61646" lon="6.85564">
        <ele>257</ele>
        <time>2019-02-07T09:36:58.000Z</time>
      </trkpt>
      <trkpt lat="43.61646" lon="6.85565">
        <ele>257</ele>
        <time>2019-02-07T09:36:59.000Z</time>
      </trkpt>
      <trkpt lat="43.61647" lon="6.85566">
        <ele>258</ele>
        <time>2019-02-07T09:37:00.000Z</time>
      </trkpt>
      <trkpt lat="43.61647" lon="6.85567">
        <ele>258</ele>
        <time>2019-02-07T09:37:01.000Z</time>
      </trkpt>
      <trkpt lat="43.61648" lon="6.85568">
        <ele>258</ele>
        <time>2019-02-07T09:37:02.000Z</time>
      </trkpt>
      <trkpt lat="43.61648" lon="6.85569">
        <ele>258</ele>
        <time>2019-02-07T09:37:03.000Z</time>
      </trkpt>
      <trkpt lat="43.61648" lon="6.8557">
        <ele>258</ele>
        <time>2019-02-07T09:37:04.000Z</time>
      </trkpt>
      <trkpt lat="43.61649" lon="6.85571">
        <ele>258</ele>
        <time>2019-02-07T09:37:05.000Z</time>
      </trkpt>
      <trkpt lat="43.61649" lon="6.85572">
        <ele>258</ele>
        <time>2019-02-07T09:37:06.000Z</time>
      </trkpt>
      <trkpt lat="43.6165" lon="6.85574">
        <ele>258</ele>
        <time>2019-02-07T09:37:07.000Z</time>
      </trkpt>
      <trkpt lat="43.6165" lon="6.85575">
        <ele>258</ele>
        <time>2019-02-07T09:37:08.000Z</time>
      </trkpt>
      <trkpt lat="43.61651" lon="6.85576">
        <ele>258</ele>
        <time>2019-02-07T09:37:09.000Z</time>
      </trkpt>
      <trkpt lat="43.61652" lon="6.85577">
        <ele>258</ele>
        <time>2019-02-07T09:37:10.000Z</time>
      </trkpt>
      <trkpt lat="43.61652" lon="6.85578">
        <ele>258</ele>
        <time>2019-02-07T09:37:11.000Z</time>
      </trkpt>
      <trkpt lat="43.61653" lon="6.85579">
        <ele>258</ele>
        <time>2019-02-07T09:37:12.000Z</time>
      </trkpt>
      <trkpt lat="43.61653" lon="6.85581">
        <ele>258</ele>
        <time>2019-02-07T09:37:13.000Z</time>
      </trkpt>
      <trkpt lat="43.61654" lon="6.85582">
        <ele>258</ele>
        <time>2019-02-07T09:37:14.000Z</time>
      </trkpt>
      <trkpt lat="43.61654" lon="6.85583">
        <ele>258</ele>
        <time>2019-02-07T09:37:15.000Z</time>
      </trkpt>
      <trkpt lat="43.61655" lon="6.85584">
        <ele>258</ele>
        <time>2019-02-07T09:37:16.000Z</time>
      </trkpt>
      <trkpt lat="43.61655" lon="6.85585">
        <ele>258</ele>
        <time>2019-02-07T09:37:17.000Z</time>
      </trkpt>
      <trkpt lat="43.61656" lon="6.85586">
        <ele>258</ele>
        <time>2019-02-07T09:37:18.000Z</time>
      </trkpt>
      <trkpt lat="43.61657" lon="6.85588">
        <ele>259</ele>
        <time>2019-02-07T09:37:19.000Z</time>
      </trkpt>
      <trkpt lat="43.61658" lon="6.85589">
        <ele>259</ele>
        <time>2019-02-07T09:37:20.000Z</time>
      </trkpt>
      <trkpt lat="43.61658" lon="6.8559">
        <ele>259</ele>
        <time>2019-02-07T09:37:21.000Z</time>
      </trkpt>
      <trkpt lat="43.61659" lon="6.85591">
        <ele>259</ele>
        <time>2019-02-07T09:37:22.000Z</time>
      </trkpt>
      <trkpt lat="43.61661" lon="6.85592">
        <ele>258</ele>
        <time>2019-02-07T09:37:23.000Z</time>
      </trkpt>
      <trkpt lat="43.61662" lon="6.85593">
        <ele>257</ele>
        <time>2019-02-07T09:37:24.000Z</time>
      </trkpt>
      <trkpt lat="43.61663" lon="6.85595">
        <ele>258</ele>
        <time>2019-02-07T09:37:25.000Z</time>
      </trkpt>
      <trkpt lat="43.61663" lon="6.85596">
        <ele>258</ele>
        <time>2019-02-07T09:37:26.000Z</time>
      </trkpt>
      <trkpt lat="43.61664" lon="6.85598">
        <ele>258</ele>
        <time>2019-02-07T09:37:27.000Z</time>
      </trkpt>
      <trkpt lat="43.61664" lon="6.85599">
        <ele>258</ele>
        <time>2019-02-07T09:37:28.000Z</time>
      </trkpt>
      <trkpt lat="43.61665" lon="6.856">
        <ele>258</ele>
        <time>2019-02-07T09:37:29.000Z</time>
      </trkpt>
      <trkpt lat="43.61666" lon="6.85602">
        <ele>259</ele>
        <time>2019-02-07T09:37:30.000Z</time>
      </trkpt>
      <trkpt lat="43.61666" lon="6.85603">
        <ele>259</ele>
        <time>2019-02-07T09:37:31.000Z</time>
      </trkpt>
      <trkpt lat="43.61667" lon="6.85604">
        <ele>259</ele>
        <time>2019-02-07T09:37:32.000Z</time>
      </trkpt>
      <trkpt lat="43.61667" lon="6.85606">
        <ele>259</ele>
        <time>2019-02-07T09:37:33.000Z</time>
      </trkpt>
      <trkpt lat="43.61667" lon="6.85606">
        <ele>259</ele>
        <time>2019-02-07T09:37:34.000Z</time>
      </trkpt>
      <trkpt lat="43.61667" lon="6.85607">
        <ele>259</ele>
        <time>2019-02-07T09:37:35.000Z</time>
      </trkpt>
      <trkpt lat="43.61666" lon="6.85607">
        <ele>259</ele>
        <time>2019-02-07T09:37:36.000Z</time>
      </trkpt>
      <trkpt lat="43.61666" lon="6.85607">
        <ele>259</ele>
        <time>2019-02-07T09:37:37.000Z</time>
      </trkpt>
      <trkpt lat="43.61666" lon="6.85607">
        <ele>259</ele>
        <time>2019-02-07T09:37:38.000Z</time>
      </trkpt>
      <trkpt lat="43.61666" lon="6.85607">
        <ele>259</ele>
        <time>2019-02-07T09:37:39.000Z</time>
      </trkpt>
      <trkpt lat="43.61666" lon="6.85607">
        <ele>259</ele>
        <time>2019-02-07T09:37:40.000Z</time>
      </trkpt>
      <trkpt lat="43.61666" lon="6.85607">
        <ele>259</ele>
        <time>2019-02-07T09:37:41.000Z</time>
      </trkpt>
      <trkpt lat="43.61666" lon="6.85607">
        <ele>259</ele>
        <time>2019-02-07T09:37:42.000Z</time>
      </trkpt>
      <trkpt lat="43.61666" lon="6.85607">
        <ele>259</ele>
        <time>2019-02-07T09:37:43.000Z</time>
      </trkpt>
      <trkpt lat="43.61666" lon="6.85607">
        <ele>259</ele>
        <time>2019-02-07T09:37:44.000Z</time>
      </trkpt>
      <trkpt lat="43.61666" lon="6.85607">
        <ele>259</ele>
        <time>2019-02-07T09:37:45.000Z</time>
      </trkpt>
      <trkpt lat="43.61666" lon="6.85607">
        <ele>259</ele>
        <time>2019-02-07T09:37:46.000Z</time>
      </trkpt>
      <trkpt lat="43.61667" lon="6.85608">
        <ele>258</ele>
        <time>2019-02-07T09:37:47.000Z</time>
      </trkpt>
      <trkpt lat="43.61667" lon="6.85608">
        <ele>258</ele>
        <time>2019-02-07T09:37:48.000Z</time>
      </trkpt>
      <trkpt lat="43.61668" lon="6.85609">
        <ele>259</ele>
        <time>2019-02-07T09:37:49.000Z</time>
      </trkpt>
      <trkpt lat="43.61668" lon="6.8561">
        <ele>259</ele>
        <time>2019-02-07T09:37:50.000Z</time>
      </trkpt>
      <trkpt lat="43.61668" lon="6.8561">
        <ele>259</ele>
        <time>2019-02-07T09:37:51.000Z</time>
      </trkpt>
      <trkpt lat="43.61668" lon="6.8561">
        <ele>259</ele>
        <time>2019-02-07T09:37:52.000Z</time>
      </trkpt>
      <trkpt lat="43.61668" lon="6.8561">
        <ele>259</ele>
        <time>2019-02-07T09:37:53.000Z</time>
      </trkpt>
      <trkpt lat="43.61668" lon="6.8561">
        <ele>260</ele>
        <time>2019-02-07T09:37:54.000Z</time>
      </trkpt>
      <trkpt lat="43.61669" lon="6.8561">
        <ele>260</ele>
        <time>2019-02-07T09:37:55.000Z</time>
      </trkpt>
      <trkpt lat="43.61669" lon="6.8561">
        <ele>260</ele>
        <time>2019-02-07T09:37:56.000Z</time>
      </trkpt>
      <trkpt lat="43.61669" lon="6.8561">
        <ele>260</ele>
        <time>2019-02-07T09:37:57.000Z</time>
      </trkpt>
      <trkpt lat="43.61669" lon="6.8561">
        <ele>260</ele>
        <time>2019-02-07T09:37:58.000Z</time>
      </trkpt>
      <trkpt lat="43.6167" lon="6.85611">
        <ele>260</ele>
        <time>2019-02-07T09:37:59.000Z</time>
      </trkpt>
      <trkpt lat="43.6167" lon="6.85612">
        <ele>260</ele>
        <time>2019-02-07T09:38:00.000Z</time>
      </trkpt>
      <trkpt lat="43.61671" lon="6.85613">
        <ele>260</ele>
        <time>2019-02-07T09:38:01.000Z</time>
      </trkpt>
      <trkpt lat="43.61672" lon="6.85614">
        <ele>260</ele>
        <time>2019-02-07T09:38:02.000Z</time>
      </trkpt>
      <trkpt lat="43.61672" lon="6.85615">
        <ele>261</ele>
        <time>2019-02-07T09:38:03.000Z</time>
      </trkpt>
      <trkpt lat="43.61673" lon="6.85616">
        <ele>261</ele>
        <time>2019-02-07T09:38:04.000Z</time>
      </trkpt>
      <trkpt lat="43.61673" lon="6.85618">
        <ele>260</ele>
        <time>2019-02-07T09:38:05.000Z</time>
      </trkpt>
      <trkpt lat="43.61674" lon="6.85619">
        <ele>260</ele>
        <time>2019-02-07T09:38:06.000Z</time>
      </trkpt>
      <trkpt lat="43.61675" lon="6.8562">
        <ele>259</ele>
        <time>2019-02-07T09:38:07.000Z</time>
      </trkpt>
      <trkpt lat="43.61676" lon="6.85621">
        <ele>260</ele>
        <time>2019-02-07T09:38:08.000Z</time>
      </trkpt>
      <trkpt lat="43.61677" lon="6.85622">
        <ele>260</ele>
        <time>2019-02-07T09:38:09.000Z</time>
      </trkpt>
      <trkpt lat="43.61677" lon="6.85623">
        <ele>260</ele>
        <time>2019-02-07T09:38:10.000Z</time>
      </trkpt>
      <trkpt lat="43.61678" lon="6.85624">
        <ele>260</ele>
        <time>2019-02-07T09:38:11.000Z</time>
      </trkpt>
      <trkpt lat="43.61679" lon="6.85625">
        <ele>260</ele>
        <time>2019-02-07T09:38:12.000Z</time>
      </trkpt>
      <trkpt lat="43.61679" lon="6.85626">
        <ele>259</ele>
        <time>2019-02-07T09:38:13.000Z</time>
      </trkpt>
      <trkpt lat="43.6168" lon="6.85627">
        <ele>259</ele>
        <time>2019-02-07T09:38:14.000Z</time>
      </trkpt>
      <trkpt lat="43.61681" lon="6.85628">
        <ele>259</ele>
        <time>2019-02-07T09:38:15.000Z</time>
      </trkpt>
      <trkpt lat="43.61682" lon="6.85629">
        <ele>259</ele>
        <time>2019-02-07T09:38:16.000Z</time>
      </trkpt>
      <trkpt lat="43.61682" lon="6.8563">
        <ele>259</ele>
        <time>2019-02-07T09:38:17.000Z</time>
      </trkpt>
      <trkpt lat="43.61683" lon="6.85631">
        <ele>259</ele>
        <time>2019-02-07T09:38:18.000Z</time>
      </trkpt>
      <trkpt lat="43.61684" lon="6.85632">
        <ele>259</ele>
        <time>2019-02-07T09:38:19.000Z</time>
      </trkpt>
      <trkpt lat="43.61685" lon="6.85632">
        <ele>259</ele>
        <time>2019-02-07T09:38:20.000Z</time>
      </trkpt>
      <trkpt lat="43.61686" lon="6.85633">
        <ele>259</ele>
        <time>2019-02-07T09:38:21.000Z</time>
      </trkpt>
      <trkpt lat="43.61687" lon="6.85634">
        <ele>259</ele>
        <time>2019-02-07T09:38:22.000Z</time>
      </trkpt>
      <trkpt lat="43.61687" lon="6.85635">
        <ele>259</ele>
        <time>2019-02-07T09:38:23.000Z</time>
      </trkpt>
      <trkpt lat="43.61688" lon="6.85636">
        <ele>259</ele>
        <time>2019-02-07T09:38:24.000Z</time>
      </trkpt>
      <trkpt lat="43.61689" lon="6.85636">
        <ele>259</ele>
        <time>2019-02-07T09:38:25.000Z</time>
      </trkpt>
      <trkpt lat="43.6169" lon="6.85637">
        <ele>259</ele>
        <time>2019-02-07T09:38:26.000Z</time>
      </trkpt>
      <trkpt lat="43.6169" lon="6.85638">
        <ele>259</ele>
        <time>2019-02-07T09:38:27.000Z</time>
      </trkpt>
      <trkpt lat="43.61691" lon="6.85639">
        <ele>259</ele>
        <time>2019-02-07T09:38:28.000Z</time>
      </trkpt>
      <trkpt lat="43.61692" lon="6.8564">
        <ele>258</ele>
        <time>2019-02-07T09:38:29.000Z</time>
      </trkpt>
      <trkpt lat="43.61692" lon="6.85641">
        <ele>258</ele>
        <time>2019-02-07T09:38:30.000Z</time>
      </trkpt>
      <trkpt lat="43.61693" lon="6.85642">
        <ele>258</ele>
        <time>2019-02-07T09:38:31.000Z</time>
      </trkpt>
      <trkpt lat="43.61694" lon="6.85643">
        <ele>258</ele>
        <time>2019-02-07T09:38:32.000Z</time>
      </trkpt>
      <trkpt lat="43.61694" lon="6.85644">
        <ele>258</ele>
        <time>2019-02-07T09:38:33.000Z</time>
      </trkpt>
      <trkpt lat="43.61695" lon="6.85645">
        <ele>258</ele>
        <time>2019-02-07T09:38:34.000Z</time>
      </trkpt>
      <trkpt lat="43.61695" lon="6.85645">
        <ele>257</ele>
        <time>2019-02-07T09:38:35.000Z</time>
      </trkpt>
      <trkpt lat="43.61696" lon="6.85646">
        <ele>257</ele>
        <time>2019-02-07T09:38:36.000Z</time>
      </trkpt>
      <trkpt lat="43.61696" lon="6.85647">
        <ele>257</ele>
        <time>2019-02-07T09:38:37.000Z</time>
      </trkpt>
      <trkpt lat="43.61697" lon="6.85648">
        <ele>257</ele>
        <time>2019-02-07T09:38:38.000Z</time>
      </trkpt>
      <trkpt lat="43.61697" lon="6.85648">
        <ele>257</ele>
        <time>2019-02-07T09:38:39.000Z</time>
      </trkpt>
      <trkpt lat="43.61698" lon="6.85649">
        <ele>257</ele>
        <time>2019-02-07T09:38:40.000Z</time>
      </trkpt>
      <trkpt lat="43.61699" lon="6.8565">
        <ele>257</ele>
        <time>2019-02-07T09:38:41.000Z</time>
      </trkpt>
      <trkpt lat="43.61699" lon="6.85652">
        <ele>257</ele>
        <time>2019-02-07T09:38:42.000Z</time>
      </trkpt>
      <trkpt lat="43.617" lon="6.85653">
        <ele>257</ele>
        <time>2019-02-07T09:38:43.000Z</time>
      </trkpt>
      <trkpt lat="43.61701" lon="6.85654">
        <ele>258</ele>
        <time>2019-02-07T09:38:44.000Z</time>
      </trkpt>
      <trkpt lat="43.61701" lon="6.85655">
        <ele>258</ele>
        <time>2019-02-07T09:38:45.000Z</time>
      </trkpt>
      <trkpt lat="43.61702" lon="6.85656">
        <ele>258</ele>
        <time>2019-02-07T09:38:46.000Z</time>
      </trkpt>
      <trkpt lat="43.61703" lon="6.85657">
        <ele>258</ele>
        <time>2019-02-07T09:38:47.000Z</time>
      </trkpt>
      <trkpt lat="43.61705" lon="6.85657">
        <ele>258</ele>
        <time>2019-02-07T09:38:48.000Z</time>
      </trkpt>
      <trkpt lat="43.61706" lon="6.85658">
        <ele>257</ele>
        <time>2019-02-07T09:38:49.000Z</time>
      </trkpt>
      <trkpt lat="43.61707" lon="6.85659">
        <ele>256</ele>
        <time>2019-02-07T09:38:50.000Z</time>
      </trkpt>
      <trkpt lat="43.61708" lon="6.85661">
        <ele>257</ele>
        <time>2019-02-07T09:38:51.000Z</time>
      </trkpt>
      <trkpt lat="43.61709" lon="6.85661">
        <ele>257</ele>
        <time>2019-02-07T09:38:52.000Z</time>
      </trkpt>
      <trkpt lat="43.6171" lon="6.85662">
        <ele>257</ele>
        <time>2019-02-07T09:38:53.000Z</time>
      </trkpt>
      <trkpt lat="43.6171" lon="6.85663">
        <ele>256</ele>
        <time>2019-02-07T09:38:54.000Z</time>
      </trkpt>
      <trkpt lat="43.61711" lon="6.85664">
        <ele>256</ele>
        <time>2019-02-07T09:38:55.000Z</time>
      </trkpt>
      <trkpt lat="43.61712" lon="6.85665">
        <ele>256</ele>
        <time>2019-02-07T09:38:56.000Z</time>
      </trkpt>
      <trkpt lat="43.61712" lon="6.85666">
        <ele>256</ele>
        <time>2019-02-07T09:38:57.000Z</time>
      </trkpt>
      <trkpt lat="43.61713" lon="6.85667">
        <ele>256</ele>
        <time>2019-02-07T09:38:58.000Z</time>
      </trkpt>
      <trkpt lat="43.61714" lon="6.85668">
        <ele>256</ele>
        <time>2019-02-07T09:38:59.000Z</time>
      </trkpt>
      <trkpt lat="43.61715" lon="6.85669">
        <ele>256</ele>
        <time>2019-02-07T09:39:00.000Z</time>
      </trkpt>
      <trkpt lat="43.61716" lon="6.85669">
        <ele>257</ele>
        <time>2019-02-07T09:39:01.000Z</time>
      </trkpt>
      <trkpt lat="43.61716" lon="6.8567">
        <ele>257</ele>
        <time>2019-02-07T09:39:02.000Z</time>
      </trkpt>
      <trkpt lat="43.61717" lon="6.85671">
        <ele>258</ele>
        <time>2019-02-07T09:39:03.000Z</time>
      </trkpt>
      <trkpt lat="43.61718" lon="6.85672">
        <ele>258</ele>
        <time>2019-02-07T09:39:04.000Z</time>
      </trkpt>
      <trkpt lat="43.61719" lon="6.85673">
        <ele>258</ele>
        <time>2019-02-07T09:39:05.000Z</time>
      </trkpt>
      <trkpt lat="43.6172" lon="6.85674">
        <ele>257</ele>
        <time>2019-02-07T09:39:06.000Z</time>
      </trkpt>
      <trkpt lat="43.61721" lon="6.85675">
        <ele>258</ele>
        <time>2019-02-07T09:39:07.000Z</time>
      </trkpt>
      <trkpt lat="43.61722" lon="6.85676">
        <ele>257</ele>
        <time>2019-02-07T09:39:08.000Z</time>
      </trkpt>
      <trkpt lat="43.61723" lon="6.85677">
        <ele>257</ele>
        <time>2019-02-07T09:39:09.000Z</time>
      </trkpt>
      <trkpt lat="43.61724" lon="6.85677">
        <ele>256</ele>
        <time>2019-02-07T09:39:10.000Z</time>
      </trkpt>
      <trkpt lat="43.61725" lon="6.85678">
        <ele>257</ele>
        <time>2019-02-07T09:39:11.000Z</time>
      </trkpt>
      <trkpt lat="43.61726" lon="6.85679">
        <ele>256</ele>
        <time>2019-02-07T09:39:12.000Z</time>
      </trkpt>
      <trkpt lat="43.61727" lon="6.85679">
        <ele>256</ele>
        <time>2019-02-07T09:39:13.000Z</time>
      </trkpt>
      <trkpt lat="43.61728" lon="6.8568">
        <ele>256</ele>
        <time>2019-02-07T09:39:14.000Z</time>
      </trkpt>
      <trkpt lat="43.61728" lon="6.85681">
        <ele>257</ele>
        <time>2019-02-07T09:39:15.000Z</time>
      </trkpt>
      <trkpt lat="43.61729" lon="6.85681">
        <ele>257</ele>
        <time>2019-02-07T09:39:16.000Z</time>
      </trkpt>
      <trkpt lat="43.61731" lon="6.85682">
        <ele>257</ele>
        <time>2019-02-07T09:39:17.000Z</time>
      </trkpt>
      <trkpt lat="43.61732" lon="6.85682">
        <ele>257</ele>
        <time>2019-02-07T09:39:18.000Z</time>
      </trkpt>
      <trkpt lat="43.61733" lon="6.85682">
        <ele>258</ele>
        <time>2019-02-07T09:39:19.000Z</time>
      </trkpt>
      <trkpt lat="43.61734" lon="6.85683">
        <ele>257</ele>
        <time>2019-02-07T09:39:20.000Z</time>
      </trkpt>
      <trkpt lat="43.61735" lon="6.85683">
        <ele>258</ele>
        <time>2019-02-07T09:39:21.000Z</time>
      </trkpt>
      <trkpt lat="43.61736" lon="6.85683">
        <ele>258</ele>
        <time>2019-02-07T09:39:22.000Z</time>
      </trkpt>
      <trkpt lat="43.61737" lon="6.85683">
        <ele>258</ele>
        <time>2019-02-07T09:39:23.000Z</time>
      </trkpt>
      <trkpt lat="43.61738" lon="6.85684">
        <ele>258</ele>
        <time>2019-02-07T09:39:24.000Z</time>
      </trkpt>
      <trkpt lat="43.61739" lon="6.85684">
        <ele>258</ele>
        <time>2019-02-07T09:39:25.000Z</time>
      </trkpt>
      <trkpt lat="43.6174" lon="6.85684">
        <ele>258</ele>
        <time>2019-02-07T09:39:26.000Z</time>
      </trkpt>
      <trkpt lat="43.61741" lon="6.85685">
        <ele>258</ele>
        <time>2019-02-07T09:39:27.000Z</time>
      </trkpt>
      <trkpt lat="43.61742" lon="6.85685">
        <ele>258</ele>
        <time>2019-02-07T09:39:28.000Z</time>
      </trkpt>
      <trkpt lat="43.61743" lon="6.85685">
        <ele>258</ele>
        <time>2019-02-07T09:39:29.000Z</time>
      </trkpt>
      <trkpt lat="43.61744" lon="6.85686">
        <ele>259</ele>
        <time>2019-02-07T09:39:30.000Z</time>
      </trkpt>
      <trkpt lat="43.61745" lon="6.85686">
        <ele>260</ele>
        <time>2019-02-07T09:39:31.000Z</time>
      </trkpt>
      <trkpt lat="43.61746" lon="6.85686">
        <ele>260</ele>
        <time>2019-02-07T09:39:32.000Z</time>
      </trkpt>
      <trkpt lat="43.61748" lon="6.85687">
        <ele>260</ele>
        <time>2019-02-07T09:39:33.000Z</time>
      </trkpt>
      <trkpt lat="43.61749" lon="6.85687">
        <ele>259</ele>
        <time>2019-02-07T09:39:34.000Z</time>
      </trkpt>
      <trkpt lat="43.6175" lon="6.85687">
        <ele>259</ele>
        <time>2019-02-07T09:39:35.000Z</time>
      </trkpt>
      <trkpt lat="43.61751" lon="6.85687">
        <ele>259</ele>
        <time>2019-02-07T09:39:36.000Z</time>
      </trkpt>
      <trkpt lat="43.61752" lon="6.85687">
        <ele>259</ele>
        <time>2019-02-07T09:39:37.000Z</time>
      </trkpt>
      <trkpt lat="43.61753" lon="6.85687">
        <ele>259</ele>
        <time>2019-02-07T09:39:38.000Z</time>
      </trkpt>
      <trkpt lat="43.61754" lon="6.85687">
        <ele>259</ele>
        <time>2019-02-07T09:39:39.000Z</time>
      </trkpt>
      <trkpt lat="43.61755" lon="6.85686">
        <ele>259</ele>
        <time>2019-02-07T09:39:40.000Z</time>
      </trkpt>
      <trkpt lat="43.61756" lon="6.85686">
        <ele>259</ele>
        <time>2019-02-07T09:39:41.000Z</time>
      </trkpt>
      <trkpt lat="43.61757" lon="6.85686">
        <ele>259</ele>
        <time>2019-02-07T09:39:42.000Z</time>
      </trkpt>
      <trkpt lat="43.61758" lon="6.85685">
        <ele>260</ele>
        <time>2019-02-07T09:39:43.000Z</time>
      </trkpt>
      <trkpt lat="43.61759" lon="6.85685">
        <ele>260</ele>
        <time>2019-02-07T09:39:44.000Z</time>
      </trkpt>
      <trkpt lat="43.6176" lon="6.85685">
        <ele>260</ele>
        <time>2019-02-07T09:39:45.000Z</time>
      </trkpt>
      <trkpt lat="43.61762" lon="6.85684">
        <ele>260</ele>
        <time>2019-02-07T09:39:46.000Z</time>
      </trkpt>
      <trkpt lat="43.61762" lon="6.85684">
        <ele>260</ele>
        <time>2019-02-07T09:39:47.000Z</time>
      </trkpt>
      <trkpt lat="43.61763" lon="6.85683">
        <ele>260</ele>
        <time>2019-02-07T09:39:48.000Z</time>
      </trkpt>
      <trkpt lat="43.61764" lon="6.85683">
        <ele>261</ele>
        <time>2019-02-07T09:39:49.000Z</time>
      </trkpt>
      <trkpt lat="43.61765" lon="6.85682">
        <ele>261</ele>
        <time>2019-02-07T09:39:50.000Z</time>
      </trkpt>
      <trkpt lat="43.61766" lon="6.85682">
        <ele>261</ele>
        <time>2019-02-07T09:39:51.000Z</time>
      </trkpt>
      <trkpt lat="43.61767" lon="6.85681">
        <ele>260</ele>
        <time>2019-02-07T09:39:52.000Z</time>
      </trkpt>
      <trkpt lat="43.61768" lon="6.85681">
        <ele>261</ele>
        <time>2019-02-07T09:39:53.000Z</time>
      </trkpt>
      <trkpt lat="43.61769" lon="6.8568">
        <ele>261</ele>
        <time>2019-02-07T09:39:54.000Z</time>
      </trkpt>
      <trkpt lat="43.6177" lon="6.8568">
        <ele>261</ele>
        <time>2019-02-07T09:39:55.000Z</time>
      </trkpt>
      <trkpt lat="43.61771" lon="6.8568">
        <ele>261</ele>
        <time>2019-02-07T09:39:56.000Z</time>
      </trkpt>
      <trkpt lat="43.61773" lon="6.8568">
        <ele>261</ele>
        <time>2019-02-07T09:39:57.000Z</time>
      </trkpt>
      <trkpt lat="43.61774" lon="6.8568">
        <ele>261</ele>
        <time>2019-02-07T09:39:58.000Z</time>
      </trkpt>
      <trkpt lat="43.61775" lon="6.85681">
        <ele>261</ele>
        <time>2019-02-07T09:39:59.000Z</time>
      </trkpt>
      <trkpt lat="43.61776" lon="6.8568">
        <ele>261</ele>
        <time>2019-02-07T09:40:00.000Z</time>
      </trkpt>
      <trkpt lat="43.61777" lon="6.8568">
        <ele>261</ele>
        <time>2019-02-07T09:40:01.000Z</time>
      </trkpt>
      <trkpt lat="43.61778" lon="6.85681">
        <ele>261</ele>
        <time>2019-02-07T09:40:02.000Z</time>
      </trkpt>
      <trkpt lat="43.61779" lon="6.85681">
        <ele>262</ele>
        <time>2019-02-07T09:40:03.000Z</time>
      </trkpt>
      <trkpt lat="43.61779" lon="6.85681">
        <ele>262</ele>
        <time>2019-02-07T09:40:04.000Z</time>
      </trkpt>
      <trkpt lat="43.6178" lon="6.8568">
        <ele>262</ele>
        <time>2019-02-07T09:40:05.000Z</time>
      </trkpt>
      <trkpt lat="43.61782" lon="6.8568">
        <ele>263</ele>
        <time>2019-02-07T09:40:06.000Z</time>
      </trkpt>
      <trkpt lat="43.61783" lon="6.8568">
        <ele>263</ele>
        <time>2019-02-07T09:40:07.000Z</time>
      </trkpt>
      <trkpt lat="43.61784" lon="6.8568">
        <ele>263</ele>
        <time>2019-02-07T09:40:08.000Z</time>
      </trkpt>
      <trkpt lat="43.61786" lon="6.8568">
        <ele>262</ele>
        <time>2019-02-07T09:40:09.000Z</time>
      </trkpt>
      <trkpt lat="43.61787" lon="6.8568">
        <ele>262</ele>
        <time>2019-02-07T09:40:10.000Z</time>
      </trkpt>
      <trkpt lat="43.61788" lon="6.8568">
        <ele>262</ele>
        <time>2019-02-07T09:40:11.000Z</time>
      </trkpt>
      <trkpt lat="43.61789" lon="6.8568">
        <ele>261</ele>
        <time>2019-02-07T09:40:12.000Z</time>
      </trkpt>
      <trkpt lat="43.61791" lon="6.8568">
        <ele>262</ele>
        <time>2019-02-07T09:40:13.000Z</time>
      </trkpt>
      <trkpt lat="43.61792" lon="6.8568">
        <ele>261</ele>
        <time>2019-02-07T09:40:14.000Z</time>
      </trkpt>
      <trkpt lat="43.61793" lon="6.8568">
        <ele>261</ele>
        <time>2019-02-07T09:40:15.000Z</time>
      </trkpt>
      <trkpt lat="43.61794" lon="6.85681">
        <ele>261</ele>
        <time>2019-02-07T09:40:16.000Z</time>
      </trkpt>
      <trkpt lat="43.61795" lon="6.85681">
        <ele>262</ele>
        <time>2019-02-07T09:40:17.000Z</time>
      </trkpt>
      <trkpt lat="43.61796" lon="6.85681">
        <ele>262</ele>
        <time>2019-02-07T09:40:18.000Z</time>
      </trkpt>
      <trkpt lat="43.61797" lon="6.85681">
        <ele>262</ele>
        <time>2019-02-07T09:40:19.000Z</time>
      </trkpt>
      <trkpt lat="43.61798" lon="6.85681">
        <ele>262</ele>
        <time>2019-02-07T09:40:20.000Z</time>
      </trkpt>
      <trkpt lat="43.618" lon="6.85681">
        <ele>262</ele>
        <time>2019-02-07T09:40:21.000Z</time>
      </trkpt>
      <trkpt lat="43.61801" lon="6.85681">
        <ele>262</ele>
        <time>2019-02-07T09:40:22.000Z</time>
      </trkpt>
      <trkpt lat="43.61802" lon="6.8568">
        <ele>262</ele>
        <time>2019-02-07T09:40:23.000Z</time>
      </trkpt>
      <trkpt lat="43.61804" lon="6.8568">
        <ele>262</ele>
        <time>2019-02-07T09:40:24.000Z</time>
      </trkpt>
      <trkpt lat="43.61805" lon="6.8568">
        <ele>263</ele>
        <time>2019-02-07T09:40:25.000Z</time>
      </trkpt>
      <trkpt lat="43.61807" lon="6.8568">
        <ele>262</ele>
        <time>2019-02-07T09:40:26.000Z</time>
      </trkpt>
      <trkpt lat="43.61809" lon="6.8568">
        <ele>262</ele>
        <time>2019-02-07T09:40:27.000Z</time>
      </trkpt>
      <trkpt lat="43.6181" lon="6.8568">
        <ele>261</ele>
        <time>2019-02-07T09:40:28.000Z</time>
      </trkpt>
      <trkpt lat="43.61812" lon="6.8568">
        <ele>260</ele>
        <time>2019-02-07T09:40:29.000Z</time>
      </trkpt>
      <trkpt lat="43.61814" lon="6.85681">
        <ele>259</ele>
        <time>2019-02-07T09:40:30.000Z</time>
      </trkpt>
      <trkpt lat="43.61816" lon="6.85681">
        <ele>258</ele>
        <time>2019-02-07T09:40:31.000Z</time>
      </trkpt>
      <trkpt lat="43.61817" lon="6.85681">
        <ele>258</ele>
        <time>2019-02-07T09:40:32.000Z</time>
      </trkpt>
      <trkpt lat="43.61818" lon="6.85681">
        <ele>258</ele>
        <time>2019-02-07T09:40:33.000Z</time>
      </trkpt>
      <trkpt lat="43.6182" lon="6.85681">
        <ele>258</ele>
        <time>2019-02-07T09:40:34.000Z</time>
      </trkpt>
      <trkpt lat="43.61821" lon="6.85682">
        <ele>257</ele>
        <time>2019-02-07T09:40:35.000Z</time>
      </trkpt>
      <trkpt lat="43.61823" lon="6.85683">
        <ele>257</ele>
        <time>2019-02-07T09:40:36.000Z</time>
      </trkpt>
      <trkpt lat="43.61825" lon="6.85684">
        <ele>257</ele>
        <time>2019-02-07T09:40:37.000Z</time>
      </trkpt>
      <trkpt lat="43.61827" lon="6.85685">
        <ele>257</ele>
        <time>2019-02-07T09:40:38.000Z</time>
      </trkpt>
      <trkpt lat="43.61829" lon="6.85686">
        <ele>256</ele>
        <time>2019-02-07T09:40:39.000Z</time>
      </trkpt>
      <trkpt lat="43.61831" lon="6.85687">
        <ele>256</ele>
        <time>2019-02-07T09:40:40.000Z</time>
      </trkpt>
      <trkpt lat="43.61833" lon="6.85687">
        <ele>255</ele>
        <time>2019-02-07T09:40:41.000Z</time>
      </trkpt>
      <trkpt lat="43.61834" lon="6.85688">
        <ele>254</ele>
        <time>2019-02-07T09:40:42.000Z</time>
      </trkpt>
      <trkpt lat="43.61836" lon="6.85689">
        <ele>254</ele>
        <time>2019-02-07T09:40:43.000Z</time>
      </trkpt>
      <trkpt lat="43.61837" lon="6.8569">
        <ele>254</ele>
        <time>2019-02-07T09:40:44.000Z</time>
      </trkpt>
      <trkpt lat="43.61838" lon="6.85691">
        <ele>253</ele>
        <time>2019-02-07T09:40:45.000Z</time>
      </trkpt>
      <trkpt lat="43.61839" lon="6.85692">
        <ele>253</ele>
        <time>2019-02-07T09:40:46.000Z</time>
      </trkpt>
      <trkpt lat="43.61841" lon="6.85693">
        <ele>252</ele>
        <time>2019-02-07T09:40:47.000Z</time>
      </trkpt>
      <trkpt lat="43.61842" lon="6.85694">
        <ele>252</ele>
        <time>2019-02-07T09:40:48.000Z</time>
      </trkpt>
      <trkpt lat="43.61844" lon="6.85695">
        <ele>252</ele>
        <time>2019-02-07T09:40:49.000Z</time>
      </trkpt>
      <trkpt lat="43.61845" lon="6.85696">
        <ele>251</ele>
        <time>2019-02-07T09:40:50.000Z</time>
      </trkpt>
      <trkpt lat="43.61847" lon="6.85696">
        <ele>251</ele>
        <time>2019-02-07T09:40:51.000Z</time>
      </trkpt>
      <trkpt lat="43.61849" lon="6.85697">
        <ele>251</ele>
        <time>2019-02-07T09:40:52.000Z</time>
      </trkpt>
      <trkpt lat="43.6185" lon="6.85697">
        <ele>250</ele>
        <time>2019-02-07T09:40:53.000Z</time>
      </trkpt>
      <trkpt lat="43.61852" lon="6.85697">
        <ele>250</ele>
        <time>2019-02-07T09:40:54.000Z</time>
      </trkpt>
      <trkpt lat="43.61853" lon="6.85697">
        <ele>248</ele>
        <time>2019-02-07T09:40:55.000Z</time>
      </trkpt>
      <trkpt lat="43.61855" lon="6.85697">
        <ele>248</ele>
        <time>2019-02-07T09:40:56.000Z</time>
      </trkpt>
      <trkpt lat="43.61857" lon="6.85697">
        <ele>247</ele>
        <time>2019-02-07T09:40:57.000Z</time>
      </trkpt>
      <trkpt lat="43.61859" lon="6.85697">
        <ele>246</ele>
        <time>2019-02-07T09:40:58.000Z</time>
      </trkpt>
      <trkpt lat="43.61861" lon="6.85696">
        <ele>246</ele>
        <time>2019-02-07T09:40:59.000Z</time>
      </trkpt>
      <trkpt lat="43.61863" lon="6.85696">
        <ele>246</ele>
        <time>2019-02-07T09:41:00.000Z</time>
      </trkpt>
      <trkpt lat="43.61866" lon="6.85695">
        <ele>245</ele>
        <time>2019-02-07T09:41:01.000Z</time>
      </trkpt>
      <trkpt lat="43.61869" lon="6.85695">
        <ele>246</ele>
        <time>2019-02-07T09:41:02.000Z</time>
      </trkpt>
      <trkpt lat="43.61871" lon="6.85695">
        <ele>245</ele>
        <time>2019-02-07T09:41:03.000Z</time>
      </trkpt>
      <trkpt lat="43.61874" lon="6.85695">
        <ele>244</ele>
        <time>2019-02-07T09:41:04.000Z</time>
      </trkpt>
      <trkpt lat="43.61876" lon="6.85695">
        <ele>244</ele>
        <time>2019-02-07T09:41:05.000Z</time>
      </trkpt>
      <trkpt lat="43.61879" lon="6.85695">
        <ele>244</ele>
        <time>2019-02-07T09:41:06.000Z</time>
      </trkpt>
      <trkpt lat="43.61881" lon="6.85696">
        <ele>244</ele>
        <time>2019-02-07T09:41:07.000Z</time>
      </trkpt>
      <trkpt lat="43.61883" lon="6.85696">
        <ele>244</ele>
        <time>2019-02-07T09:41:08.000Z</time>
      </trkpt>
      <trkpt lat="43.61886" lon="6.85696">
        <ele>245</ele>
        <time>2019-02-07T09:41:09.000Z</time>
      </trkpt>
      <trkpt lat="43.61888" lon="6.85697">
        <ele>246</ele>
        <time>2019-02-07T09:41:10.000Z</time>
      </trkpt>
      <trkpt lat="43.61891" lon="6.85697">
        <ele>247</ele>
        <time>2019-02-07T09:41:11.000Z</time>
      </trkpt>
      <trkpt lat="43.61894" lon="6.85697">
        <ele>248</ele>
        <time>2019-02-07T09:41:12.000Z</time>
      </trkpt>
      <trkpt lat="43.61896" lon="6.85698">
        <ele>248</ele>
        <time>2019-02-07T09:41:13.000Z</time>
      </trkpt>
      <trkpt lat="43.61899" lon="6.85699">
        <ele>249</ele>
        <time>2019-02-07T09:41:14.000Z</time>
      </trkpt>
      <trkpt lat="43.61901" lon="6.857">
        <ele>249</ele>
        <time>2019-02-07T09:41:15.000Z</time>
      </trkpt>
      <trkpt lat="43.61902" lon="6.85702">
        <ele>248</ele>
        <time>2019-02-07T09:41:16.000Z</time>
      </trkpt>
      <trkpt lat="43.61903" lon="6.85705">
        <ele>245</ele>
        <time>2019-02-07T09:41:17.000Z</time>
      </trkpt>
      <trkpt lat="43.61904" lon="6.85707">
        <ele>244</ele>
        <time>2019-02-07T09:41:18.000Z</time>
      </trkpt>
      <trkpt lat="43.61904" lon="6.85709">
        <ele>244</ele>
        <time>2019-02-07T09:41:19.000Z</time>
      </trkpt>
      <trkpt lat="43.61904" lon="6.85711">
        <ele>243</ele>
        <time>2019-02-07T09:41:20.000Z</time>
      </trkpt>
      <trkpt lat="43.61904" lon="6.85713">
        <ele>242</ele>
        <time>2019-02-07T09:41:21.000Z</time>
      </trkpt>
      <trkpt lat="43.61904" lon="6.85714">
        <ele>241</ele>
        <time>2019-02-07T09:41:22.000Z</time>
      </trkpt>
      <trkpt lat="43.61904" lon="6.85716">
        <ele>242</ele>
        <time>2019-02-07T09:41:23.000Z</time>
      </trkpt>
      <trkpt lat="43.61904" lon="6.85718">
        <ele>241</ele>
        <time>2019-02-07T09:41:24.000Z</time>
      </trkpt>
      <trkpt lat="43.61903" lon="6.8572">
        <ele>240</ele>
        <time>2019-02-07T09:41:25.000Z</time>
      </trkpt>
      <trkpt lat="43.61903" lon="6.85721">
        <ele>239</ele>
        <time>2019-02-07T09:41:26.000Z</time>
      </trkpt>
      <trkpt lat="43.61902" lon="6.85723">
        <ele>239</ele>
        <time>2019-02-07T09:41:27.000Z</time>
      </trkpt>
      <trkpt lat="43.61901" lon="6.85725">
        <ele>238</ele>
        <time>2019-02-07T09:41:28.000Z</time>
      </trkpt>
      <trkpt lat="43.61901" lon="6.85728">
        <ele>238</ele>
        <time>2019-02-07T09:41:29.000Z</time>
      </trkpt>
      <trkpt lat="43.619" lon="6.8573">
        <ele>238</ele>
        <time>2019-02-07T09:41:30.000Z</time>
      </trkpt>
      <trkpt lat="43.61899" lon="6.85733">
        <ele>239</ele>
        <time>2019-02-07T09:41:31.000Z</time>
      </trkpt>
      <trkpt lat="43.61899" lon="6.85736">
        <ele>239</ele>
        <time>2019-02-07T09:41:32.000Z</time>
      </trkpt>
      <trkpt lat="43.619" lon="6.8574">
        <ele>239</ele>
        <time>2019-02-07T09:41:33.000Z</time>
      </trkpt>
      <trkpt lat="43.61901" lon="6.85743">
        <ele>239</ele>
        <time>2019-02-07T09:41:34.000Z</time>
      </trkpt>
      <trkpt lat="43.61901" lon="6.85745">
        <ele>239</ele>
        <time>2019-02-07T09:41:35.000Z</time>
      </trkpt>
      <trkpt lat="43.61902" lon="6.85747">
        <ele>238</ele>
        <time>2019-02-07T09:41:36.000Z</time>
      </trkpt>
      <trkpt lat="43.61903" lon="6.85749">
        <ele>239</ele>
        <time>2019-02-07T09:41:37.000Z</time>
      </trkpt>
      <trkpt lat="43.61906" lon="6.8575">
        <ele>238</ele>
        <time>2019-02-07T09:41:38.000Z</time>
      </trkpt>
      <trkpt lat="43.61908" lon="6.8575">
        <ele>238</ele>
        <time>2019-02-07T09:41:39.000Z</time>
      </trkpt>
      <trkpt lat="43.61911" lon="6.85751">
        <ele>238</ele>
        <time>2019-02-07T09:41:40.000Z</time>
      </trkpt>
      <trkpt lat="43.61913" lon="6.85751">
        <ele>238</ele>
        <time>2019-02-07T09:41:41.000Z</time>
      </trkpt>
      <trkpt lat="43.61915" lon="6.85751">
        <ele>238</ele>
        <time>2019-02-07T09:41:42.000Z</time>
      </trkpt>
      <trkpt lat="43.61916" lon="6.85751">
        <ele>237</ele>
        <time>2019-02-07T09:41:43.000Z</time>
      </trkpt>
      <trkpt lat="43.61919" lon="6.8575">
        <ele>238</ele>
        <time>2019-02-07T09:41:44.000Z</time>
      </trkpt>
      <trkpt lat="43.61921" lon="6.85749">
        <ele>238</ele>
        <time>2019-02-07T09:41:45.000Z</time>
      </trkpt>
      <trkpt lat="43.61923" lon="6.85748">
        <ele>238</ele>
        <time>2019-02-07T09:41:46.000Z</time>
      </trkpt>
      <trkpt lat="43.61925" lon="6.85747">
        <ele>238</ele>
        <time>2019-02-07T09:41:47.000Z</time>
      </trkpt>
      <trkpt lat="43.61927" lon="6.85748">
        <ele>237</ele>
        <time>2019-02-07T09:41:48.000Z</time>
      </trkpt>
      <trkpt lat="43.61929" lon="6.85748">
        <ele>236</ele>
        <time>2019-02-07T09:41:49.000Z</time>
      </trkpt>
      <trkpt lat="43.61931" lon="6.85748">
        <ele>236</ele>
        <time>2019-02-07T09:41:50.000Z</time>
      </trkpt>
      <trkpt lat="43.61933" lon="6.85748">
        <ele>236</ele>
        <time>2019-02-07T09:41:51.000Z</time>
      </trkpt>
      <trkpt lat="43.61934" lon="6.85748">
        <ele>236</ele>
        <time>2019-02-07T09:41:52.000Z</time>
      </trkpt>
      <trkpt lat="43.61935" lon="6.85749">
        <ele>236</ele>
        <time>2019-02-07T09:41:53.000Z</time>
      </trkpt>
      <trkpt lat="43.61936" lon="6.8575">
        <ele>237</ele>
        <time>2019-02-07T09:41:54.000Z</time>
      </trkpt>
      <trkpt lat="43.61936" lon="6.85752">
        <ele>236</ele>
        <time>2019-02-07T09:41:55.000Z</time>
      </trkpt>
      <trkpt lat="43.61936" lon="6.85753">
        <ele>236</ele>
        <time>2019-02-07T09:41:56.000Z</time>
      </trkpt>
      <trkpt lat="43.61936" lon="6.85753">
        <ele>235</ele>
        <time>2019-02-07T09:41:57.000Z</time>
      </trkpt>
      <trkpt lat="43.61936" lon="6.85754">
        <ele>234</ele>
        <time>2019-02-07T09:41:58.000Z</time>
      </trkpt>
      <trkpt lat="43.61936" lon="6.85755">
        <ele>233</ele>
        <time>2019-02-07T09:41:59.000Z</time>
      </trkpt>
      <trkpt lat="43.61936" lon="6.85755">
        <ele>232</ele>
        <time>2019-02-07T09:42:00.000Z</time>
      </trkpt>
      <trkpt lat="43.61935" lon="6.85756">
        <ele>232</ele>
        <time>2019-02-07T09:42:01.000Z</time>
      </trkpt>
      <trkpt lat="43.61936" lon="6.85756">
        <ele>231</ele>
        <time>2019-02-07T09:42:02.000Z</time>
      </trkpt>
      <trkpt lat="43.61936" lon="6.85757">
        <ele>230</ele>
        <time>2019-02-07T09:42:03.000Z</time>
      </trkpt>
      <trkpt lat="43.61937" lon="6.85758">
        <ele>229</ele>
        <time>2019-02-07T09:42:04.000Z</time>
      </trkpt>
      <trkpt lat="43.61936" lon="6.85759">
        <ele>227</ele>
        <time>2019-02-07T09:42:05.000Z</time>
      </trkpt>
      <trkpt lat="43.61936" lon="6.85759">
        <ele>226</ele>
        <time>2019-02-07T09:42:06.000Z</time>
      </trkpt>
      <trkpt lat="43.61936" lon="6.8576">
        <ele>226</ele>
        <time>2019-02-07T09:42:07.000Z</time>
      </trkpt>
      <trkpt lat="43.61935" lon="6.85761">
        <ele>226</ele>
        <time>2019-02-07T09:42:08.000Z</time>
      </trkpt>
      <trkpt lat="43.61935" lon="6.85762">
        <ele>227</ele>
        <time>2019-02-07T09:42:09.000Z</time>
      </trkpt>
      <trkpt lat="43.61934" lon="6.85763">
        <ele>228</ele>
        <time>2019-02-07T09:42:10.000Z</time>
      </trkpt>
      <trkpt lat="43.61933" lon="6.85765">
        <ele>228</ele>
        <time>2019-02-07T09:42:11.000Z</time>
      </trkpt>
      <trkpt lat="43.61932" lon="6.85767">
        <ele>227</ele>
        <time>2019-02-07T09:42:12.000Z</time>
      </trkpt>
      <trkpt lat="43.61931" lon="6.85768">
        <ele>227</ele>
        <time>2019-02-07T09:42:13.000Z</time>
      </trkpt>
      <trkpt lat="43.61931" lon="6.8577">
        <ele>227</ele>
        <time>2019-02-07T09:42:14.000Z</time>
      </trkpt>
      <trkpt lat="43.61929" lon="6.85773">
        <ele>226</ele>
        <time>2019-02-07T09:42:15.000Z</time>
      </trkpt>
      <trkpt lat="43.61928" lon="6.85775">
        <ele>226</ele>
        <time>2019-02-07T09:42:16.000Z</time>
      </trkpt>
      <trkpt lat="43.61926" lon="6.85777">
        <ele>226</ele>
        <time>2019-02-07T09:42:17.000Z</time>
      </trkpt>
      <trkpt lat="43.61925" lon="6.85779">
        <ele>226</ele>
        <time>2019-02-07T09:42:18.000Z</time>
      </trkpt>
      <trkpt lat="43.61924" lon="6.85781">
        <ele>226</ele>
        <time>2019-02-07T09:42:19.000Z</time>
      </trkpt>
      <trkpt lat="43.61923" lon="6.85783">
        <ele>226</ele>
        <time>2019-02-07T09:42:20.000Z</time>
      </trkpt>
      <trkpt lat="43.61921" lon="6.85786">
        <ele>226</ele>
        <time>2019-02-07T09:42:21.000Z</time>
      </trkpt>
      <trkpt lat="43.6192" lon="6.85788">
        <ele>226</ele>
        <time>2019-02-07T09:42:22.000Z</time>
      </trkpt>
      <trkpt lat="43.61919" lon="6.8579">
        <ele>227</ele>
        <time>2019-02-07T09:42:23.000Z</time>
      </trkpt>
      <trkpt lat="43.61918" lon="6.85792">
        <ele>227</ele>
        <time>2019-02-07T09:42:24.000Z</time>
      </trkpt>
      <trkpt lat="43.61916" lon="6.85794">
        <ele>228</ele>
        <time>2019-02-07T09:42:25.000Z</time>
      </trkpt>
      <trkpt lat="43.61915" lon="6.85796">
        <ele>228</ele>
        <time>2019-02-07T09:42:26.000Z</time>
      </trkpt>
      <trkpt lat="43.61914" lon="6.85799">
        <ele>229</ele>
        <time>2019-02-07T09:42:27.000Z</time>
      </trkpt>
      <trkpt lat="43.61913" lon="6.85802">
        <ele>230</ele>
        <time>2019-02-07T09:42:28.000Z</time>
      </trkpt>
      <trkpt lat="43.61912" lon="6.85805">
        <ele>230</ele>
        <time>2019-02-07T09:42:29.000Z</time>
      </trkpt>
      <trkpt lat="43.61912" lon="6.85807">
        <ele>231</ele>
        <time>2019-02-07T09:42:30.000Z</time>
      </trkpt>
      <trkpt lat="43.61912" lon="6.85809">
        <ele>231</ele>
        <time>2019-02-07T09:42:31.000Z</time>
      </trkpt>
      <trkpt lat="43.61913" lon="6.8581">
        <ele>233</ele>
        <time>2019-02-07T09:42:32.000Z</time>
      </trkpt>
      <trkpt lat="43.61913" lon="6.85812">
        <ele>234</ele>
        <time>2019-02-07T09:42:33.000Z</time>
      </trkpt>
      <trkpt lat="43.61913" lon="6.85814">
        <ele>234</ele>
        <time>2019-02-07T09:42:34.000Z</time>
      </trkpt>
      <trkpt lat="43.61913" lon="6.85816">
        <ele>233</ele>
        <time>2019-02-07T09:42:35.000Z</time>
      </trkpt>
      <trkpt lat="43.61912" lon="6.85818">
        <ele>233</ele>
        <time>2019-02-07T09:42:36.000Z</time>
      </trkpt>
      <trkpt lat="43.61912" lon="6.85819">
        <ele>232</ele>
        <time>2019-02-07T09:42:37.000Z</time>
      </trkpt>
      <trkpt lat="43.61911" lon="6.85821">
        <ele>232</ele>
        <time>2019-02-07T09:42:38.000Z</time>
      </trkpt>
      <trkpt lat="43.6191" lon="6.85822">
        <ele>231</ele>
        <time>2019-02-07T09:42:39.000Z</time>
      </trkpt>
      <trkpt lat="43.61909" lon="6.85824">
        <ele>231</ele>
        <time>2019-02-07T09:42:40.000Z</time>
      </trkpt>
      <trkpt lat="43.61908" lon="6.85825">
        <ele>231</ele>
        <time>2019-02-07T09:42:41.000Z</time>
      </trkpt>
      <trkpt lat="43.61907" lon="6.85827">
        <ele>230</ele>
        <time>2019-02-07T09:42:42.000Z</time>
      </trkpt>
      <trkpt lat="43.61906" lon="6.85828">
        <ele>230</ele>
        <time>2019-02-07T09:42:43.000Z</time>
      </trkpt>
      <trkpt lat="43.61905" lon="6.85829">
        <ele>229</ele>
        <time>2019-02-07T09:42:44.000Z</time>
      </trkpt>
      <trkpt lat="43.61903" lon="6.8583">
        <ele>228</ele>
        <time>2019-02-07T09:42:45.000Z</time>
      </trkpt>
      <trkpt lat="43.61902" lon="6.85832">
        <ele>228</ele>
        <time>2019-02-07T09:42:46.000Z</time>
      </trkpt>
      <trkpt lat="43.61901" lon="6.85833">
        <ele>227</ele>
        <time>2019-02-07T09:42:47.000Z</time>
      </trkpt>
      <trkpt lat="43.61901" lon="6.85836">
        <ele>227</ele>
        <time>2019-02-07T09:42:48.000Z</time>
      </trkpt>
      <trkpt lat="43.619" lon="6.85838">
        <ele>227</ele>
        <time>2019-02-07T09:42:49.000Z</time>
      </trkpt>
      <trkpt lat="43.61899" lon="6.8584">
        <ele>227</ele>
        <time>2019-02-07T09:42:50.000Z</time>
      </trkpt>
      <trkpt lat="43.61898" lon="6.85843">
        <ele>228</ele>
        <time>2019-02-07T09:42:51.000Z</time>
      </trkpt>
      <trkpt lat="43.61897" lon="6.85846">
        <ele>230</ele>
        <time>2019-02-07T09:42:52.000Z</time>
      </trkpt>
      <trkpt lat="43.61896" lon="6.85849">
        <ele>231</ele>
        <time>2019-02-07T09:42:53.000Z</time>
      </trkpt>
      <trkpt lat="43.61895" lon="6.85852">
        <ele>232</ele>
        <time>2019-02-07T09:42:54.000Z</time>
      </trkpt>
      <trkpt lat="43.61895" lon="6.85855">
        <ele>232</ele>
        <time>2019-02-07T09:42:55.000Z</time>
      </trkpt>
      <trkpt lat="43.61895" lon="6.85857">
        <ele>233</ele>
        <time>2019-02-07T09:42:56.000Z</time>
      </trkpt>
      <trkpt lat="43.61895" lon="6.8586">
        <ele>233</ele>
        <time>2019-02-07T09:42:57.000Z</time>
      </trkpt>
      <trkpt lat="43.61896" lon="6.85862">
        <ele>234</ele>
        <time>2019-02-07T09:42:58.000Z</time>
      </trkpt>
      <trkpt lat="43.61896" lon="6.85864">
        <ele>234</ele>
        <time>2019-02-07T09:42:59.000Z</time>
      </trkpt>
      <trkpt lat="43.61897" lon="6.85867">
        <ele>234</ele>
        <time>2019-02-07T09:43:00.000Z</time>
      </trkpt>
      <trkpt lat="43.61898" lon="6.85869">
        <ele>234</ele>
        <time>2019-02-07T09:43:01.000Z</time>
      </trkpt>
      <trkpt lat="43.61899" lon="6.8587">
        <ele>234</ele>
        <time>2019-02-07T09:43:02.000Z</time>
      </trkpt>
      <trkpt lat="43.619" lon="6.85872">
        <ele>234</ele>
        <time>2019-02-07T09:43:03.000Z</time>
      </trkpt>
      <trkpt lat="43.61901" lon="6.85874">
        <ele>234</ele>
        <time>2019-02-07T09:43:04.000Z</time>
      </trkpt>
      <trkpt lat="43.61901" lon="6.85876">
        <ele>234</ele>
        <time>2019-02-07T09:43:05.000Z</time>
      </trkpt>
      <trkpt lat="43.61902" lon="6.85878">
        <ele>234</ele>
        <time>2019-02-07T09:43:06.000Z</time>
      </trkpt>
      <trkpt lat="43.61903" lon="6.8588">
        <ele>234</ele>
        <time>2019-02-07T09:43:07.000Z</time>
      </trkpt>
      <trkpt lat="43.61903" lon="6.85882">
        <ele>234</ele>
        <time>2019-02-07T09:43:08.000Z</time>
      </trkpt>
      <trkpt lat="43.61904" lon="6.85884">
        <ele>234</ele>
        <time>2019-02-07T09:43:09.000Z</time>
      </trkpt>
      <trkpt lat="43.61905" lon="6.85886">
        <ele>234</ele>
        <time>2019-02-07T09:43:10.000Z</time>
      </trkpt>
      <trkpt lat="43.61906" lon="6.85887">
        <ele>234</ele>
        <time>2019-02-07T09:43:11.000Z</time>
      </trkpt>
      <trkpt lat="43.61907" lon="6.85889">
        <ele>234</ele>
        <time>2019-02-07T09:43:12.000Z</time>
      </trkpt>
      <trkpt lat="43.61907" lon="6.8589">
        <ele>233</ele>
        <time>2019-02-07T09:43:13.000Z</time>
      </trkpt>
      <trkpt lat="43.61908" lon="6.85891">
        <ele>233</ele>
        <time>2019-02-07T09:43:14.000Z</time>
      </trkpt>
      <trkpt lat="43.61909" lon="6.85892">
        <ele>233</ele>
        <time>2019-02-07T09:43:15.000Z</time>
      </trkpt>
      <trkpt lat="43.6191" lon="6.85893">
        <ele>233</ele>
        <time>2019-02-07T09:43:16.000Z</time>
      </trkpt>
      <trkpt lat="43.61912" lon="6.85894">
        <ele>233</ele>
        <time>2019-02-07T09:43:17.000Z</time>
      </trkpt>
      <trkpt lat="43.61913" lon="6.85895">
        <ele>232</ele>
        <time>2019-02-07T09:43:18.000Z</time>
      </trkpt>
      <trkpt lat="43.61914" lon="6.85896">
        <ele>232</ele>
        <time>2019-02-07T09:43:19.000Z</time>
      </trkpt>
      <trkpt lat="43.61915" lon="6.85897">
        <ele>231</ele>
        <time>2019-02-07T09:43:20.000Z</time>
      </trkpt>
      <trkpt lat="43.61916" lon="6.85898">
        <ele>231</ele>
        <time>2019-02-07T09:43:21.000Z</time>
      </trkpt>
      <trkpt lat="43.61916" lon="6.859">
        <ele>230</ele>
        <time>2019-02-07T09:43:22.000Z</time>
      </trkpt>
      <trkpt lat="43.61917" lon="6.85901">
        <ele>230</ele>
        <time>2019-02-07T09:43:23.000Z</time>
      </trkpt>
      <trkpt lat="43.61917" lon="6.85902">
        <ele>229</ele>
        <time>2019-02-07T09:43:24.000Z</time>
      </trkpt>
      <trkpt lat="43.61917" lon="6.85904">
        <ele>229</ele>
        <time>2019-02-07T09:43:25.000Z</time>
      </trkpt>
      <trkpt lat="43.61917" lon="6.85905">
        <ele>228</ele>
        <time>2019-02-07T09:43:26.000Z</time>
      </trkpt>
      <trkpt lat="43.61918" lon="6.85907">
        <ele>228</ele>
        <time>2019-02-07T09:43:27.000Z</time>
      </trkpt>
      <trkpt lat="43.61918" lon="6.85908">
        <ele>227</ele>
        <time>2019-02-07T09:43:28.000Z</time>
      </trkpt>
      <trkpt lat="43.61919" lon="6.8591">
        <ele>226</ele>
        <time>2019-02-07T09:43:29.000Z</time>
      </trkpt>
      <trkpt lat="43.61919" lon="6.85911">
        <ele>225</ele>
        <time>2019-02-07T09:43:30.000Z</time>
      </trkpt>
      <trkpt lat="43.61919" lon="6.85913">
        <ele>225</ele>
        <time>2019-02-07T09:43:31.000Z</time>
      </trkpt>
      <trkpt lat="43.61919" lon="6.85914">
        <ele>224</ele>
        <time>2019-02-07T09:43:32.000Z</time>
      </trkpt>
      <trkpt lat="43.61919" lon="6.85916">
        <ele>224</ele>
        <time>2019-02-07T09:43:33.000Z</time>
      </trkpt>
      <trkpt lat="43.61919" lon="6.85917">
        <ele>223</ele>
        <time>2019-02-07T09:43:34.000Z</time>
      </trkpt>
      <trkpt lat="43.61918" lon="6.85918">
        <ele>223</ele>
        <time>2019-02-07T09:43:35.000Z</time>
      </trkpt>
      <trkpt lat="43.61918" lon="6.85919">
        <ele>223</ele>
        <time>2019-02-07T09:43:36.000Z</time>
      </trkpt>
      <trkpt lat="43.61918" lon="6.8592">
        <ele>222</ele>
        <time>2019-02-07T09:43:37.000Z</time>
      </trkpt>
      <trkpt lat="43.61918" lon="6.85921">
        <ele>221</ele>
        <time>2019-02-07T09:43:38.000Z</time>
      </trkpt>
      <trkpt lat="43.61918" lon="6.85922">
        <ele>221</ele>
        <time>2019-02-07T09:43:39.000Z</time>
      </trkpt>
      <trkpt lat="43.61917" lon="6.85924">
        <ele>220</ele>
        <time>2019-02-07T09:43:40.000Z</time>
      </trkpt>
      <trkpt lat="43.61917" lon="6.85925">
        <ele>219</ele>
        <time>2019-02-07T09:43:41.000Z</time>
      </trkpt>
      <trkpt lat="43.61916" lon="6.85927">
        <ele>219</ele>
        <time>2019-02-07T09:43:42.000Z</time>
      </trkpt>
      <trkpt lat="43.61916" lon="6.85929">
        <ele>219</ele>
        <time>2019-02-07T09:43:43.000Z</time>
      </trkpt>
      <trkpt lat="43.61916" lon="6.8593">
        <ele>218</ele>
        <time>2019-02-07T09:43:44.000Z</time>
      </trkpt>
      <trkpt lat="43.61915" lon="6.85932">
        <ele>218</ele>
        <time>2019-02-07T09:43:45.000Z</time>
      </trkpt>
      <trkpt lat="43.61915" lon="6.85934">
        <ele>218</ele>
        <time>2019-02-07T09:43:46.000Z</time>
      </trkpt>
      <trkpt lat="43.61915" lon="6.85936">
        <ele>218</ele>
        <time>2019-02-07T09:43:47.000Z</time>
      </trkpt>
      <trkpt lat="43.61915" lon="6.85938">
        <ele>217</ele>
        <time>2019-02-07T09:43:48.000Z</time>
      </trkpt>
      <trkpt lat="43.61915" lon="6.8594">
        <ele>217</ele>
        <time>2019-02-07T09:43:49.000Z</time>
      </trkpt>
      <trkpt lat="43.61916" lon="6.85942">
        <ele>216</ele>
        <time>2019-02-07T09:43:50.000Z</time>
      </trkpt>
      <trkpt lat="43.61917" lon="6.85943">
        <ele>216</ele>
        <time>2019-02-07T09:43:51.000Z</time>
      </trkpt>
      <trkpt lat="43.61918" lon="6.85945">
        <ele>215</ele>
        <time>2019-02-07T09:43:52.000Z</time>
      </trkpt>
      <trkpt lat="43.61919" lon="6.85946">
        <ele>215</ele>
        <time>2019-02-07T09:43:53.000Z</time>
      </trkpt>
      <trkpt lat="43.61921" lon="6.85947">
        <ele>215</ele>
        <time>2019-02-07T09:43:54.000Z</time>
      </trkpt>
      <trkpt lat="43.61922" lon="6.85948">
        <ele>216</ele>
        <time>2019-02-07T09:43:55.000Z</time>
      </trkpt>
      <trkpt lat="43.61923" lon="6.8595">
        <ele>218</ele>
        <time>2019-02-07T09:43:56.000Z</time>
      </trkpt>
      <trkpt lat="43.61924" lon="6.85952">
        <ele>217</ele>
        <time>2019-02-07T09:43:57.000Z</time>
      </trkpt>
      <trkpt lat="43.61926" lon="6.85953">
        <ele>217</ele>
        <time>2019-02-07T09:43:58.000Z</time>
      </trkpt>
      <trkpt lat="43.61927" lon="6.85955">
        <ele>217</ele>
        <time>2019-02-07T09:43:59.000Z</time>
      </trkpt>
      <trkpt lat="43.61929" lon="6.85956">
        <ele>217</ele>
        <time>2019-02-07T09:44:00.000Z</time>
      </trkpt>
      <trkpt lat="43.6193" lon="6.85958">
        <ele>216</ele>
        <time>2019-02-07T09:44:01.000Z</time>
      </trkpt>
      <trkpt lat="43.61931" lon="6.85959">
        <ele>216</ele>
        <time>2019-02-07T09:44:02.000Z</time>
      </trkpt>
      <trkpt lat="43.61932" lon="6.8596">
        <ele>216</ele>
        <time>2019-02-07T09:44:03.000Z</time>
      </trkpt>
      <trkpt lat="43.61933" lon="6.8596">
        <ele>216</ele>
        <time>2019-02-07T09:44:04.000Z</time>
      </trkpt>
      <trkpt lat="43.61934" lon="6.85962">
        <ele>213</ele>
        <time>2019-02-07T09:44:05.000Z</time>
      </trkpt>
      <trkpt lat="43.61935" lon="6.85964">
        <ele>211</ele>
        <time>2019-02-07T09:44:06.000Z</time>
      </trkpt>
      <trkpt lat="43.61935" lon="6.85966">
        <ele>210</ele>
        <time>2019-02-07T09:44:07.000Z</time>
      </trkpt>
      <trkpt lat="43.61935" lon="6.85968">
        <ele>209</ele>
        <time>2019-02-07T09:44:08.000Z</time>
      </trkpt>
      <trkpt lat="43.61935" lon="6.8597">
        <ele>208</ele>
        <time>2019-02-07T09:44:09.000Z</time>
      </trkpt>
      <trkpt lat="43.61934" lon="6.85971">
        <ele>207</ele>
        <time>2019-02-07T09:44:10.000Z</time>
      </trkpt>
      <trkpt lat="43.61933" lon="6.85972">
        <ele>207</ele>
        <time>2019-02-07T09:44:11.000Z</time>
      </trkpt>
      <trkpt lat="43.61932" lon="6.85972">
        <ele>206</ele>
        <time>2019-02-07T09:44:12.000Z</time>
      </trkpt>
      <trkpt lat="43.61931" lon="6.85973">
        <ele>206</ele>
        <time>2019-02-07T09:44:13.000Z</time>
      </trkpt>
      <trkpt lat="43.6193" lon="6.85973">
        <ele>205</ele>
        <time>2019-02-07T09:44:14.000Z</time>
      </trkpt>
      <trkpt lat="43.61929" lon="6.85974">
        <ele>205</ele>
        <time>2019-02-07T09:44:15.000Z</time>
      </trkpt>
      <trkpt lat="43.61928" lon="6.85974">
        <ele>204</ele>
        <time>2019-02-07T09:44:16.000Z</time>
      </trkpt>
      <trkpt lat="43.61927" lon="6.85975">
        <ele>203</ele>
        <time>2019-02-07T09:44:17.000Z</time>
      </trkpt>
      <trkpt lat="43.61926" lon="6.85975">
        <ele>203</ele>
        <time>2019-02-07T09:44:18.000Z</time>
      </trkpt>
      <trkpt lat="43.61925" lon="6.85975">
        <ele>202</ele>
        <time>2019-02-07T09:44:19.000Z</time>
      </trkpt>
      <trkpt lat="43.61924" lon="6.85975">
        <ele>202</ele>
        <time>2019-02-07T09:44:20.000Z</time>
      </trkpt>
      <trkpt lat="43.61923" lon="6.85975">
        <ele>201</ele>
        <time>2019-02-07T09:44:21.000Z</time>
      </trkpt>
      <trkpt lat="43.61923" lon="6.85976">
        <ele>200</ele>
        <time>2019-02-07T09:44:22.000Z</time>
      </trkpt>
      <trkpt lat="43.61922" lon="6.85976">
        <ele>200</ele>
        <time>2019-02-07T09:44:23.000Z</time>
      </trkpt>
      <trkpt lat="43.61921" lon="6.85978">
        <ele>199</ele>
        <time>2019-02-07T09:44:24.000Z</time>
      </trkpt>
      <trkpt lat="43.6192" lon="6.8598">
        <ele>199</ele>
        <time>2019-02-07T09:44:25.000Z</time>
      </trkpt>
      <trkpt lat="43.61919" lon="6.85982">
        <ele>199</ele>
        <time>2019-02-07T09:44:26.000Z</time>
      </trkpt>
      <trkpt lat="43.61919" lon="6.85984">
        <ele>200</ele>
        <time>2019-02-07T09:44:27.000Z</time>
      </trkpt>
      <trkpt lat="43.61919" lon="6.85986">
        <ele>200</ele>
        <time>2019-02-07T09:44:28.000Z</time>
      </trkpt>
      <trkpt lat="43.61919" lon="6.85988">
        <ele>201</ele>
        <time>2019-02-07T09:44:29.000Z</time>
      </trkpt>
      <trkpt lat="43.61919" lon="6.8599">
        <ele>201</ele>
        <time>2019-02-07T09:44:30.000Z</time>
      </trkpt>
      <trkpt lat="43.6192" lon="6.85991">
        <ele>202</ele>
        <time>2019-02-07T09:44:31.000Z</time>
      </trkpt>
      <trkpt lat="43.61921" lon="6.85992">
        <ele>204</ele>
        <time>2019-02-07T09:44:32.000Z</time>
      </trkpt>
      <trkpt lat="43.61923" lon="6.85994">
        <ele>205</ele>
        <time>2019-02-07T09:44:33.000Z</time>
      </trkpt>
      <trkpt lat="43.61924" lon="6.85995">
        <ele>206</ele>
        <time>2019-02-07T09:44:34.000Z</time>
      </trkpt>
      <trkpt lat="43.61925" lon="6.85997">
        <ele>207</ele>
        <time>2019-02-07T09:44:35.000Z</time>
      </trkpt>
      <trkpt lat="43.61925" lon="6.85999">
        <ele>207</ele>
        <time>2019-02-07T09:44:36.000Z</time>
      </trkpt>
      <trkpt lat="43.61926" lon="6.86001">
        <ele>208</ele>
        <time>2019-02-07T09:44:37.000Z</time>
      </trkpt>
      <trkpt lat="43.61926" lon="6.86002">
        <ele>210</ele>
        <time>2019-02-07T09:44:38.000Z</time>
      </trkpt>
      <trkpt lat="43.61927" lon="6.86004">
        <ele>210</ele>
        <time>2019-02-07T09:44:39.000Z</time>
      </trkpt>
      <trkpt lat="43.61927" lon="6.86006">
        <ele>211</ele>
        <time>2019-02-07T09:44:40.000Z</time>
      </trkpt>
      <trkpt lat="43.61927" lon="6.86008">
        <ele>212</ele>
        <time>2019-02-07T09:44:41.000Z</time>
      </trkpt>
      <trkpt lat="43.61928" lon="6.86009">
        <ele>212</ele>
        <time>2019-02-07T09:44:42.000Z</time>
      </trkpt>
      <trkpt lat="43.61928" lon="6.86011">
        <ele>213</ele>
        <time>2019-02-07T09:44:43.000Z</time>
      </trkpt>
      <trkpt lat="43.61928" lon="6.86013">
        <ele>214</ele>
        <time>2019-02-07T09:44:44.000Z</time>
      </trkpt>
      <trkpt lat="43.61928" lon="6.86015">
        <ele>214</ele>
        <time>2019-02-07T09:44:45.000Z</time>
      </trkpt>
      <trkpt lat="43.61928" lon="6.86016">
        <ele>214</ele>
        <time>2019-02-07T09:44:46.000Z</time>
      </trkpt>
      <trkpt lat="43.61927" lon="6.86018">
        <ele>214</ele>
        <time>2019-02-07T09:44:47.000Z</time>
      </trkpt>
      <trkpt lat="43.61927" lon="6.86019">
        <ele>214</ele>
        <time>2019-02-07T09:44:48.000Z</time>
      </trkpt>
      <trkpt lat="43.61927" lon="6.86021">
        <ele>214</ele>
        <time>2019-02-07T09:44:49.000Z</time>
      </trkpt>
      <trkpt lat="43.61927" lon="6.86022">
        <ele>214</ele>
        <time>2019-02-07T09:44:50.000Z</time>
      </trkpt>
      <trkpt lat="43.61927" lon="6.86023">
        <ele>215</ele>
        <time>2019-02-07T09:44:51.000Z</time>
      </trkpt>
      <trkpt lat="43.61927" lon="6.86024">
        <ele>215</ele>
        <time>2019-02-07T09:44:52.000Z</time>
      </trkpt>
      <trkpt lat="43.61928" lon="6.86025">
        <ele>215</ele>
        <time>2019-02-07T09:44:53.000Z</time>
      </trkpt>
      <trkpt lat="43.61929" lon="6.86025">
        <ele>215</ele>
        <time>2019-02-07T09:44:54.000Z</time>
      </trkpt>
      <trkpt lat="43.6193" lon="6.86026">
        <ele>215</ele>
        <time>2019-02-07T09:44:55.000Z</time>
      </trkpt>
      <trkpt lat="43.61932" lon="6.86026">
        <ele>215</ele>
        <time>2019-02-07T09:44:56.000Z</time>
      </trkpt>
      <trkpt lat="43.61933" lon="6.86027">
        <ele>216</ele>
        <time>2019-02-07T09:44:57.000Z</time>
      </trkpt>
      <trkpt lat="43.61934" lon="6.86028">
        <ele>215</ele>
        <time>2019-02-07T09:44:58.000Z</time>
      </trkpt>
      <trkpt lat="43.61934" lon="6.86029">
        <ele>215</ele>
        <time>2019-02-07T09:44:59.000Z</time>
      </trkpt>
      <trkpt lat="43.61935" lon="6.8603">
        <ele>215</ele>
        <time>2019-02-07T09:45:00.000Z</time>
      </trkpt>
      <trkpt lat="43.61936" lon="6.86031">
        <ele>214</ele>
        <time>2019-02-07T09:45:01.000Z</time>
      </trkpt>
      <trkpt lat="43.61936" lon="6.86032">
        <ele>216</ele>
        <time>2019-02-07T09:45:02.000Z</time>
      </trkpt>
      <trkpt lat="43.61937" lon="6.86034">
        <ele>216</ele>
        <time>2019-02-07T09:45:03.000Z</time>
      </trkpt>
      <trkpt lat="43.61937" lon="6.86035">
        <ele>216</ele>
        <time>2019-02-07T09:45:04.000Z</time>
      </trkpt>
      <trkpt lat="43.61938" lon="6.86036">
        <ele>217</ele>
        <time>2019-02-07T09:45:05.000Z</time>
      </trkpt>
      <trkpt lat="43.61938" lon="6.86037">
        <ele>217</ele>
        <time>2019-02-07T09:45:06.000Z</time>
      </trkpt>
      <trkpt lat="43.61939" lon="6.86038">
        <ele>218</ele>
        <time>2019-02-07T09:45:07.000Z</time>
      </trkpt>
      <trkpt lat="43.61939" lon="6.86039">
        <ele>218</ele>
        <time>2019-02-07T09:45:08.000Z</time>
      </trkpt>
      <trkpt lat="43.6194" lon="6.8604">
        <ele>218</ele>
        <time>2019-02-07T09:45:09.000Z</time>
      </trkpt>
      <trkpt lat="43.6194" lon="6.86041">
        <ele>218</ele>
        <time>2019-02-07T09:45:10.000Z</time>
      </trkpt>
      <trkpt lat="43.6194" lon="6.86042">
        <ele>219</ele>
        <time>2019-02-07T09:45:11.000Z</time>
      </trkpt>
      <trkpt lat="43.6194" lon="6.86043">
        <ele>218</ele>
        <time>2019-02-07T09:45:12.000Z</time>
      </trkpt>
      <trkpt lat="43.6194" lon="6.86045">
        <ele>219</ele>
        <time>2019-02-07T09:45:13.000Z</time>
      </trkpt>
      <trkpt lat="43.61941" lon="6.86046">
        <ele>220</ele>
        <time>2019-02-07T09:45:14.000Z</time>
      </trkpt>
      <trkpt lat="43.61941" lon="6.86047">
        <ele>220</ele>
        <time>2019-02-07T09:45:15.000Z</time>
      </trkpt>
      <trkpt lat="43.61941" lon="6.86048">
        <ele>220</ele>
        <time>2019-02-07T09:45:16.000Z</time>
      </trkpt>
      <trkpt lat="43.61941" lon="6.8605">
        <ele>221</ele>
        <time>2019-02-07T09:45:17.000Z</time>
      </trkpt>
      <trkpt lat="43.6194" lon="6.86051">
        <ele>222</ele>
        <time>2019-02-07T09:45:18.000Z</time>
      </trkpt>
      <trkpt lat="43.6194" lon="6.86052">
        <ele>222</ele>
        <time>2019-02-07T09:45:19.000Z</time>
      </trkpt>
      <trkpt lat="43.6194" lon="6.86054">
        <ele>222</ele>
        <time>2019-02-07T09:45:20.000Z</time>
      </trkpt>
      <trkpt lat="43.6194" lon="6.86055">
        <ele>222</ele>
        <time>2019-02-07T09:45:21.000Z</time>
      </trkpt>
      <trkpt lat="43.6194" lon="6.86056">
        <ele>222</ele>
        <time>2019-02-07T09:45:22.000Z</time>
      </trkpt>
      <trkpt lat="43.61939" lon="6.86057">
        <ele>222</ele>
        <time>2019-02-07T09:45:23.000Z</time>
      </trkpt>
      <trkpt lat="43.61939" lon="6.86058">
        <ele>222</ele>
        <time>2019-02-07T09:45:24.000Z</time>
      </trkpt>
      <trkpt lat="43.61938" lon="6.86059">
        <ele>222</ele>
        <time>2019-02-07T09:45:25.000Z</time>
      </trkpt>
      <trkpt lat="43.61938" lon="6.86061">
        <ele>223</ele>
        <time>2019-02-07T09:45:26.000Z</time>
      </trkpt>
      <trkpt lat="43.61938" lon="6.86062">
        <ele>223</ele>
        <time>2019-02-07T09:45:27.000Z</time>
      </trkpt>
      <trkpt lat="43.61938" lon="6.86063">
        <ele>223</ele>
        <time>2019-02-07T09:45:28.000Z</time>
      </trkpt>
      <trkpt lat="43.61938" lon="6.86064">
        <ele>224</ele>
        <time>2019-02-07T09:45:29.000Z</time>
      </trkpt>
      <trkpt lat="43.61938" lon="6.86066">
        <ele>223</ele>
        <time>2019-02-07T09:45:30.000Z</time>
      </trkpt>
      <trkpt lat="43.61938" lon="6.86067">
        <ele>224</ele>
        <time>2019-02-07T09:45:31.000Z</time>
      </trkpt>
      <trkpt lat="43.61938" lon="6.86068">
        <ele>225</ele>
        <time>2019-02-07T09:45:32.000Z</time>
      </trkpt>
      <trkpt lat="43.61938" lon="6.86069">
        <ele>225</ele>
        <time>2019-02-07T09:45:33.000Z</time>
      </trkpt>
      <trkpt lat="43.61939" lon="6.86069">
        <ele>225</ele>
        <time>2019-02-07T09:45:34.000Z</time>
      </trkpt>
      <trkpt lat="43.6194" lon="6.8607">
        <ele>226</ele>
        <time>2019-02-07T09:45:35.000Z</time>
      </trkpt>
      <trkpt lat="43.6194" lon="6.8607">
        <ele>226</ele>
        <time>2019-02-07T09:45:36.000Z</time>
      </trkpt>
      <trkpt lat="43.61941" lon="6.86071">
        <ele>226</ele>
        <time>2019-02-07T09:45:37.000Z</time>
      </trkpt>
      <trkpt lat="43.61941" lon="6.86072">
        <ele>225</ele>
        <time>2019-02-07T09:45:38.000Z</time>
      </trkpt>
      <trkpt lat="43.61942" lon="6.86074">
        <ele>225</ele>
        <time>2019-02-07T09:45:39.000Z</time>
      </trkpt>
      <trkpt lat="43.61942" lon="6.86075">
        <ele>226</ele>
        <time>2019-02-07T09:45:40.000Z</time>
      </trkpt>
      <trkpt lat="43.61942" lon="6.86077">
        <ele>226</ele>
        <time>2019-02-07T09:45:41.000Z</time>
      </trkpt>
      <trkpt lat="43.61942" lon="6.86078">
        <ele>227</ele>
        <time>2019-02-07T09:45:42.000Z</time>
      </trkpt>
      <trkpt lat="43.61942" lon="6.86079">
        <ele>228</ele>
        <time>2019-02-07T09:45:43.000Z</time>
      </trkpt>
      <trkpt lat="43.61942" lon="6.8608">
        <ele>228</ele>
        <time>2019-02-07T09:45:44.000Z</time>
      </trkpt>
      <trkpt lat="43.61942" lon="6.86082">
        <ele>228</ele>
        <time>2019-02-07T09:45:45.000Z</time>
      </trkpt>
      <trkpt lat="43.61942" lon="6.86084">
        <ele>228</ele>
        <time>2019-02-07T09:45:46.000Z</time>
      </trkpt>
      <trkpt lat="43.61942" lon="6.86085">
        <ele>228</ele>
        <time>2019-02-07T09:45:47.000Z</time>
      </trkpt>
      <trkpt lat="43.61942" lon="6.86087">
        <ele>228</ele>
        <time>2019-02-07T09:45:48.000Z</time>
      </trkpt>
      <trkpt lat="43.61942" lon="6.86088">
        <ele>229</ele>
        <time>2019-02-07T09:45:49.000Z</time>
      </trkpt>
      <trkpt lat="43.61943" lon="6.86089">
        <ele>229</ele>
        <time>2019-02-07T09:45:50.000Z</time>
      </trkpt>
      <trkpt lat="43.61943" lon="6.86091">
        <ele>230</ele>
        <time>2019-02-07T09:45:51.000Z</time>
      </trkpt>
      <trkpt lat="43.61944" lon="6.86092">
        <ele>230</ele>
        <time>2019-02-07T09:45:52.000Z</time>
      </trkpt>
      <trkpt lat="43.61944" lon="6.86093">
        <ele>231</ele>
        <time>2019-02-07T09:45:53.000Z</time>
      </trkpt>
      <trkpt lat="43.61945" lon="6.86094">
        <ele>232</ele>
        <time>2019-02-07T09:45:54.000Z</time>
      </trkpt>
      <trkpt lat="43.61945" lon="6.86095">
        <ele>231</ele>
        <time>2019-02-07T09:45:55.000Z</time>
      </trkpt>
      <trkpt lat="43.61946" lon="6.86097">
        <ele>231</ele>
        <time>2019-02-07T09:45:56.000Z</time>
      </trkpt>
      <trkpt lat="43.61946" lon="6.86098">
        <ele>231</ele>
        <time>2019-02-07T09:45:57.000Z</time>
      </trkpt>
      <trkpt lat="43.61947" lon="6.861">
        <ele>232</ele>
        <time>2019-02-07T09:45:58.000Z</time>
      </trkpt>
      <trkpt lat="43.61947" lon="6.86101">
        <ele>232</ele>
        <time>2019-02-07T09:45:59.000Z</time>
      </trkpt>
      <trkpt lat="43.61947" lon="6.86103">
        <ele>233</ele>
        <time>2019-02-07T09:46:00.000Z</time>
      </trkpt>
      <trkpt lat="43.61947" lon="6.86104">
        <ele>233</ele>
        <time>2019-02-07T09:46:01.000Z</time>
      </trkpt>
      <trkpt lat="43.61947" lon="6.86105">
        <ele>233</ele>
        <time>2019-02-07T09:46:02.000Z</time>
      </trkpt>
      <trkpt lat="43.61947" lon="6.86107">
        <ele>233</ele>
        <time>2019-02-07T09:46:03.000Z</time>
      </trkpt>
      <trkpt lat="43.61947" lon="6.86108">
        <ele>233</ele>
        <time>2019-02-07T09:46:04.000Z</time>
      </trkpt>
      <trkpt lat="43.61947" lon="6.8611">
        <ele>233</ele>
        <time>2019-02-07T09:46:05.000Z</time>
      </trkpt>
      <trkpt lat="43.61947" lon="6.86111">
        <ele>233</ele>
        <time>2019-02-07T09:46:06.000Z</time>
      </trkpt>
      <trkpt lat="43.61947" lon="6.86113">
        <ele>233</ele>
        <time>2019-02-07T09:46:07.000Z</time>
      </trkpt>
      <trkpt lat="43.61947" lon="6.86115">
        <ele>233</ele>
        <time>2019-02-07T09:46:08.000Z</time>
      </trkpt>
      <trkpt lat="43.61947" lon="6.86116">
        <ele>233</ele>
        <time>2019-02-07T09:46:09.000Z</time>
      </trkpt>
      <trkpt lat="43.61948" lon="6.86117">
        <ele>233</ele>
        <time>2019-02-07T09:46:10.000Z</time>
      </trkpt>
      <trkpt lat="43.61948" lon="6.86119">
        <ele>233</ele>
        <time>2019-02-07T09:46:11.000Z</time>
      </trkpt>
      <trkpt lat="43.61948" lon="6.8612">
        <ele>233</ele>
        <time>2019-02-07T09:46:12.000Z</time>
      </trkpt>
      <trkpt lat="43.61948" lon="6.86122">
        <ele>233</ele>
        <time>2019-02-07T09:46:13.000Z</time>
      </trkpt>
      <trkpt lat="43.61949" lon="6.86124">
        <ele>232</ele>
        <time>2019-02-07T09:46:14.000Z</time>
      </trkpt>
      <trkpt lat="43.61949" lon="6.86126">
        <ele>233</ele>
        <time>2019-02-07T09:46:15.000Z</time>
      </trkpt>
      <trkpt lat="43.6195" lon="6.86127">
        <ele>233</ele>
        <time>2019-02-07T09:46:16.000Z</time>
      </trkpt>
      <trkpt lat="43.6195" lon="6.86129">
        <ele>233</ele>
        <time>2019-02-07T09:46:17.000Z</time>
      </trkpt>
      <trkpt lat="43.6195" lon="6.8613">
        <ele>234</ele>
        <time>2019-02-07T09:46:18.000Z</time>
      </trkpt>
      <trkpt lat="43.61949" lon="6.86131">
        <ele>234</ele>
        <time>2019-02-07T09:46:19.000Z</time>
      </trkpt>
      <trkpt lat="43.61949" lon="6.86132">
        <ele>235</ele>
        <time>2019-02-07T09:46:20.000Z</time>
      </trkpt>
      <trkpt lat="43.61949" lon="6.86133">
        <ele>234</ele>
        <time>2019-02-07T09:46:21.000Z</time>
      </trkpt>
      <trkpt lat="43.61949" lon="6.86134">
        <ele>234</ele>
        <time>2019-02-07T09:46:22.000Z</time>
      </trkpt>
      <trkpt lat="43.61949" lon="6.86136">
        <ele>234</ele>
        <time>2019-02-07T09:46:23.000Z</time>
      </trkpt>
      <trkpt lat="43.61948" lon="6.86138">
        <ele>233</ele>
        <time>2019-02-07T09:46:24.000Z</time>
      </trkpt>
      <trkpt lat="43.61948" lon="6.8614">
        <ele>233</ele>
        <time>2019-02-07T09:46:25.000Z</time>
      </trkpt>
      <trkpt lat="43.61948" lon="6.86142">
        <ele>234</ele>
        <time>2019-02-07T09:46:26.000Z</time>
      </trkpt>
      <trkpt lat="43.61948" lon="6.86144">
        <ele>234</ele>
        <time>2019-02-07T09:46:27.000Z</time>
      </trkpt>
      <trkpt lat="43.61947" lon="6.86146">
        <ele>234</ele>
        <time>2019-02-07T09:46:28.000Z</time>
      </trkpt>
      <trkpt lat="43.61947" lon="6.86149">
        <ele>233</ele>
        <time>2019-02-07T09:46:29.000Z</time>
      </trkpt>
      <trkpt lat="43.61947" lon="6.86152">
        <ele>233</ele>
        <time>2019-02-07T09:46:30.000Z</time>
      </trkpt>
      <trkpt lat="43.61948" lon="6.86155">
        <ele>232</ele>
        <time>2019-02-07T09:46:31.000Z</time>
      </trkpt>
      <trkpt lat="43.61948" lon="6.86158">
        <ele>231</ele>
        <time>2019-02-07T09:46:32.000Z</time>
      </trkpt>
      <trkpt lat="43.61948" lon="6.86161">
        <ele>229</ele>
        <time>2019-02-07T09:46:33.000Z</time>
      </trkpt>
      <trkpt lat="43.61948" lon="6.86164">
        <ele>229</ele>
        <time>2019-02-07T09:46:34.000Z</time>
      </trkpt>
      <trkpt lat="43.61948" lon="6.86166">
        <ele>229</ele>
        <time>2019-02-07T09:46:35.000Z</time>
      </trkpt>
      <trkpt lat="43.61947" lon="6.86168">
        <ele>228</ele>
        <time>2019-02-07T09:46:36.000Z</time>
      </trkpt>
      <trkpt lat="43.61947" lon="6.86169">
        <ele>226</ele>
        <time>2019-02-07T09:46:37.000Z</time>
      </trkpt>
      <trkpt lat="43.61946" lon="6.8617">
        <ele>226</ele>
        <time>2019-02-07T09:46:38.000Z</time>
      </trkpt>
      <trkpt lat="43.61945" lon="6.86171">
        <ele>227</ele>
        <time>2019-02-07T09:46:39.000Z</time>
      </trkpt>
      <trkpt lat="43.61943" lon="6.86173">
        <ele>228</ele>
        <time>2019-02-07T09:46:40.000Z</time>
      </trkpt>
      <trkpt lat="43.61941" lon="6.86174">
        <ele>228</ele>
        <time>2019-02-07T09:46:41.000Z</time>
      </trkpt>
      <trkpt lat="43.6194" lon="6.86175">
        <ele>228</ele>
        <time>2019-02-07T09:46:42.000Z</time>
      </trkpt>
      <trkpt lat="43.61939" lon="6.86177">
        <ele>228</ele>
        <time>2019-02-07T09:46:43.000Z</time>
      </trkpt>
      <trkpt lat="43.61938" lon="6.86178">
        <ele>228</ele>
        <time>2019-02-07T09:46:44.000Z</time>
      </trkpt>
      <trkpt lat="43.61938" lon="6.8618">
        <ele>228</ele>
        <time>2019-02-07T09:46:45.000Z</time>
      </trkpt>
      <trkpt lat="43.61937" lon="6.86182">
        <ele>229</ele>
        <time>2019-02-07T09:46:46.000Z</time>
      </trkpt>
      <trkpt lat="43.61937" lon="6.86184">
        <ele>230</ele>
        <time>2019-02-07T09:46:47.000Z</time>
      </trkpt>
      <trkpt lat="43.61936" lon="6.86186">
        <ele>230</ele>
        <time>2019-02-07T09:46:48.000Z</time>
      </trkpt>
      <trkpt lat="43.61937" lon="6.86188">
        <ele>230</ele>
        <time>2019-02-07T09:46:49.000Z</time>
      </trkpt>
      <trkpt lat="43.61937" lon="6.8619">
        <ele>229</ele>
        <time>2019-02-07T09:46:50.000Z</time>
      </trkpt>
      <trkpt lat="43.61937" lon="6.86192">
        <ele>228</ele>
        <time>2019-02-07T09:46:51.000Z</time>
      </trkpt>
      <trkpt lat="43.61937" lon="6.86194">
        <ele>229</ele>
        <time>2019-02-07T09:46:52.000Z</time>
      </trkpt>
      <trkpt lat="43.61937" lon="6.86197">
        <ele>230</ele>
        <time>2019-02-07T09:46:53.000Z</time>
      </trkpt>
      <trkpt lat="43.61937" lon="6.86199">
        <ele>230</ele>
        <time>2019-02-07T09:46:54.000Z</time>
      </trkpt>
      <trkpt lat="43.61937" lon="6.86201">
        <ele>231</ele>
        <time>2019-02-07T09:46:55.000Z</time>
      </trkpt>
      <trkpt lat="43.61937" lon="6.86203">
        <ele>233</ele>
        <time>2019-02-07T09:46:56.000Z</time>
      </trkpt>
      <trkpt lat="43.61937" lon="6.86204">
        <ele>232</ele>
        <time>2019-02-07T09:46:57.000Z</time>
      </trkpt>
      <trkpt lat="43.61937" lon="6.86205">
        <ele>233</ele>
        <time>2019-02-07T09:46:58.000Z</time>
      </trkpt>
      <trkpt lat="43.61937" lon="6.86206">
        <ele>233</ele>
        <time>2019-02-07T09:46:59.000Z</time>
      </trkpt>
      <trkpt lat="43.61937" lon="6.86208">
        <ele>233</ele>
        <time>2019-02-07T09:47:00.000Z</time>
      </trkpt>
      <trkpt lat="43.61937" lon="6.8621">
        <ele>234</ele>
        <time>2019-02-07T09:47:01.000Z</time>
      </trkpt>
      <trkpt lat="43.61937" lon="6.86212">
        <ele>234</ele>
        <time>2019-02-07T09:47:02.000Z</time>
      </trkpt>
      <trkpt lat="43.61937" lon="6.86214">
        <ele>234</ele>
        <time>2019-02-07T09:47:03.000Z</time>
      </trkpt>
      <trkpt lat="43.61936" lon="6.86215">
        <ele>234</ele>
        <time>2019-02-07T09:47:04.000Z</time>
      </trkpt>
      <trkpt lat="43.61936" lon="6.86217">
        <ele>234</ele>
        <time>2019-02-07T09:47:05.000Z</time>
      </trkpt>
      <trkpt lat="43.61936" lon="6.86218">
        <ele>234</ele>
        <time>2019-02-07T09:47:06.000Z</time>
      </trkpt>
      <trkpt lat="43.61937" lon="6.8622">
        <ele>234</ele>
        <time>2019-02-07T09:47:07.000Z</time>
      </trkpt>
      <trkpt lat="43.61937" lon="6.86221">
        <ele>234</ele>
        <time>2019-02-07T09:47:08.000Z</time>
      </trkpt>
      <trkpt lat="43.61938" lon="6.86222">
        <ele>233</ele>
        <time>2019-02-07T09:47:09.000Z</time>
      </trkpt>
      <trkpt lat="43.61939" lon="6.86223">
        <ele>233</ele>
        <time>2019-02-07T09:47:10.000Z</time>
      </trkpt>
      <trkpt lat="43.6194" lon="6.86224">
        <ele>233</ele>
        <time>2019-02-07T09:47:11.000Z</time>
      </trkpt>
      <trkpt lat="43.6194" lon="6.86226">
        <ele>233</ele>
        <time>2019-02-07T09:47:12.000Z</time>
      </trkpt>
      <trkpt lat="43.61941" lon="6.86227">
        <ele>233</ele>
        <time>2019-02-07T09:47:13.000Z</time>
      </trkpt>
      <trkpt lat="43.61941" lon="6.86228">
        <ele>232</ele>
        <time>2019-02-07T09:47:14.000Z</time>
      </trkpt>
      <trkpt lat="43.61941" lon="6.8623">
        <ele>232</ele>
        <time>2019-02-07T09:47:15.000Z</time>
      </trkpt>
      <trkpt lat="43.61942" lon="6.86232">
        <ele>232</ele>
        <time>2019-02-07T09:47:16.000Z</time>
      </trkpt>
      <trkpt lat="43.61942" lon="6.86233">
        <ele>233</ele>
        <time>2019-02-07T09:47:17.000Z</time>
      </trkpt>
      <trkpt lat="43.61942" lon="6.86235">
        <ele>234</ele>
        <time>2019-02-07T09:47:18.000Z</time>
      </trkpt>
      <trkpt lat="43.61942" lon="6.86237">
        <ele>234</ele>
        <time>2019-02-07T09:47:19.000Z</time>
      </trkpt>
      <trkpt lat="43.61942" lon="6.86238">
        <ele>234</ele>
        <time>2019-02-07T09:47:20.000Z</time>
      </trkpt>
      <trkpt lat="43.61942" lon="6.86239">
        <ele>235</ele>
        <time>2019-02-07T09:47:21.000Z</time>
      </trkpt>
      <trkpt lat="43.61943" lon="6.8624">
        <ele>235</ele>
        <time>2019-02-07T09:47:22.000Z</time>
      </trkpt>
      <trkpt lat="43.61943" lon="6.86241">
        <ele>235</ele>
        <time>2019-02-07T09:47:23.000Z</time>
      </trkpt>
      <trkpt lat="43.61944" lon="6.86242">
        <ele>235</ele>
        <time>2019-02-07T09:47:24.000Z</time>
      </trkpt>
      <trkpt lat="43.61945" lon="6.86243">
        <ele>234</ele>
        <time>2019-02-07T09:47:25.000Z</time>
      </trkpt>
      <trkpt lat="43.61945" lon="6.86244">
        <ele>235</ele>
        <time>2019-02-07T09:47:26.000Z</time>
      </trkpt>
      <trkpt lat="43.61946" lon="6.86245">
        <ele>234</ele>
        <time>2019-02-07T09:47:27.000Z</time>
      </trkpt>
      <trkpt lat="43.61947" lon="6.86246">
        <ele>234</ele>
        <time>2019-02-07T09:47:28.000Z</time>
      </trkpt>
      <trkpt lat="43.61948" lon="6.86247">
        <ele>234</ele>
        <time>2019-02-07T09:47:29.000Z</time>
      </trkpt>
      <trkpt lat="43.61949" lon="6.86248">
        <ele>234</ele>
        <time>2019-02-07T09:47:30.000Z</time>
      </trkpt>
      <trkpt lat="43.61949" lon="6.86249">
        <ele>235</ele>
        <time>2019-02-07T09:47:31.000Z</time>
      </trkpt>
      <trkpt lat="43.6195" lon="6.86249">
        <ele>235</ele>
        <time>2019-02-07T09:47:32.000Z</time>
      </trkpt>
      <trkpt lat="43.6195" lon="6.86249">
        <ele>235</ele>
        <time>2019-02-07T09:47:33.000Z</time>
      </trkpt>
      <trkpt lat="43.61951" lon="6.86249">
        <ele>235</ele>
        <time>2019-02-07T09:47:34.000Z</time>
      </trkpt>
      <trkpt lat="43.61951" lon="6.86248">
        <ele>234</ele>
        <time>2019-02-07T09:47:35.000Z</time>
      </trkpt>
      <trkpt lat="43.61952" lon="6.86247">
        <ele>234</ele>
        <time>2019-02-07T09:47:36.000Z</time>
      </trkpt>
      <trkpt lat="43.61952" lon="6.86246">
        <ele>234</ele>
        <time>2019-02-07T09:47:37.000Z</time>
      </trkpt>
      <trkpt lat="43.61952" lon="6.86245">
        <ele>234</ele>
        <time>2019-02-07T09:47:38.000Z</time>
      </trkpt>
      <trkpt lat="43.61953" lon="6.86244">
        <ele>234</ele>
        <time>2019-02-07T09:47:39.000Z</time>
      </trkpt>
      <trkpt lat="43.61953" lon="6.86244">
        <ele>235</ele>
        <time>2019-02-07T09:47:40.000Z</time>
      </trkpt>
      <trkpt lat="43.61954" lon="6.86245">
        <ele>235</ele>
        <time>2019-02-07T09:47:41.000Z</time>
      </trkpt>
      <trkpt lat="43.61955" lon="6.86246">
        <ele>235</ele>
        <time>2019-02-07T09:47:42.000Z</time>
      </trkpt>
      <trkpt lat="43.61956" lon="6.86247">
        <ele>235</ele>
        <time>2019-02-07T09:47:43.000Z</time>
      </trkpt>
      <trkpt lat="43.61956" lon="6.86249">
        <ele>236</ele>
        <time>2019-02-07T09:47:44.000Z</time>
      </trkpt>
      <trkpt lat="43.61957" lon="6.86251">
        <ele>236</ele>
        <time>2019-02-07T09:47:45.000Z</time>
      </trkpt>
      <trkpt lat="43.61957" lon="6.86253">
        <ele>236</ele>
        <time>2019-02-07T09:47:46.000Z</time>
      </trkpt>
      <trkpt lat="43.61958" lon="6.86255">
        <ele>236</ele>
        <time>2019-02-07T09:47:47.000Z</time>
      </trkpt>
      <trkpt lat="43.61958" lon="6.86258">
        <ele>236</ele>
        <time>2019-02-07T09:47:48.000Z</time>
      </trkpt>
      <trkpt lat="43.61959" lon="6.8626">
        <ele>236</ele>
        <time>2019-02-07T09:47:49.000Z</time>
      </trkpt>
      <trkpt lat="43.6196" lon="6.86263">
        <ele>236</ele>
        <time>2019-02-07T09:47:50.000Z</time>
      </trkpt>
      <trkpt lat="43.61961" lon="6.86266">
        <ele>235</ele>
        <time>2019-02-07T09:47:51.000Z</time>
      </trkpt>
      <trkpt lat="43.61962" lon="6.86269">
        <ele>236</ele>
        <time>2019-02-07T09:47:52.000Z</time>
      </trkpt>
      <trkpt lat="43.61963" lon="6.86272">
        <ele>235</ele>
        <time>2019-02-07T09:47:53.000Z</time>
      </trkpt>
      <trkpt lat="43.61963" lon="6.86275">
        <ele>235</ele>
        <time>2019-02-07T09:47:54.000Z</time>
      </trkpt>
      <trkpt lat="43.61963" lon="6.86277">
        <ele>234</ele>
        <time>2019-02-07T09:47:55.000Z</time>
      </trkpt>
      <trkpt lat="43.61963" lon="6.8628">
        <ele>234</ele>
        <time>2019-02-07T09:47:56.000Z</time>
      </trkpt>
      <trkpt lat="43.61964" lon="6.86283">
        <ele>234</ele>
        <time>2019-02-07T09:47:57.000Z</time>
      </trkpt>
      <trkpt lat="43.61964" lon="6.86285">
        <ele>234</ele>
        <time>2019-02-07T09:47:58.000Z</time>
      </trkpt>
      <trkpt lat="43.61964" lon="6.86288">
        <ele>234</ele>
        <time>2019-02-07T09:47:59.000Z</time>
      </trkpt>
      <trkpt lat="43.61964" lon="6.86291">
        <ele>233</ele>
        <time>2019-02-07T09:48:00.000Z</time>
      </trkpt>
      <trkpt lat="43.61963" lon="6.86294">
        <ele>232</ele>
        <time>2019-02-07T09:48:01.000Z</time>
      </trkpt>
      <trkpt lat="43.61963" lon="6.86296">
        <ele>232</ele>
        <time>2019-02-07T09:48:02.000Z</time>
      </trkpt>
      <trkpt lat="43.61962" lon="6.86299">
        <ele>232</ele>
        <time>2019-02-07T09:48:03.000Z</time>
      </trkpt>
      <trkpt lat="43.61961" lon="6.86301">
        <ele>233</ele>
        <time>2019-02-07T09:48:04.000Z</time>
      </trkpt>
      <trkpt lat="43.6196" lon="6.86304">
        <ele>232</ele>
        <time>2019-02-07T09:48:05.000Z</time>
      </trkpt>
      <trkpt lat="43.61959" lon="6.86306">
        <ele>232</ele>
        <time>2019-02-07T09:48:06.000Z</time>
      </trkpt>
      <trkpt lat="43.61958" lon="6.86309">
        <ele>233</ele>
        <time>2019-02-07T09:48:07.000Z</time>
      </trkpt>
      <trkpt lat="43.61958" lon="6.86311">
        <ele>233</ele>
        <time>2019-02-07T09:48:08.000Z</time>
      </trkpt>
      <trkpt lat="43.61957" lon="6.86314">
        <ele>232</ele>
        <time>2019-02-07T09:48:09.000Z</time>
      </trkpt>
      <trkpt lat="43.61956" lon="6.86316">
        <ele>232</ele>
        <time>2019-02-07T09:48:10.000Z</time>
      </trkpt>
      <trkpt lat="43.61956" lon="6.86318">
        <ele>232</ele>
        <time>2019-02-07T09:48:11.000Z</time>
      </trkpt>
      <trkpt lat="43.61955" lon="6.86321">
        <ele>232</ele>
        <time>2019-02-07T09:48:12.000Z</time>
      </trkpt>
      <trkpt lat="43.61955" lon="6.86324">
        <ele>232</ele>
        <time>2019-02-07T09:48:13.000Z</time>
      </trkpt>
      <trkpt lat="43.61954" lon="6.86327">
        <ele>233</ele>
        <time>2019-02-07T09:48:14.000Z</time>
      </trkpt>
      <trkpt lat="43.61953" lon="6.8633">
        <ele>233</ele>
        <time>2019-02-07T09:48:15.000Z</time>
      </trkpt>
      <trkpt lat="43.61952" lon="6.86333">
        <ele>233</ele>
        <time>2019-02-07T09:48:16.000Z</time>
      </trkpt>
      <trkpt lat="43.61952" lon="6.86336">
        <ele>233</ele>
        <time>2019-02-07T09:48:17.000Z</time>
      </trkpt>
      <trkpt lat="43.61951" lon="6.86338">
        <ele>233</ele>
        <time>2019-02-07T09:48:18.000Z</time>
      </trkpt>
      <trkpt lat="43.6195" lon="6.8634">
        <ele>233</ele>
        <time>2019-02-07T09:48:19.000Z</time>
      </trkpt>
      <trkpt lat="43.61949" lon="6.86343">
        <ele>233</ele>
        <time>2019-02-07T09:48:20.000Z</time>
      </trkpt>
      <trkpt lat="43.61948" lon="6.86345">
        <ele>234</ele>
        <time>2019-02-07T09:48:21.000Z</time>
      </trkpt>
      <trkpt lat="43.61947" lon="6.86348">
        <ele>234</ele>
        <time>2019-02-07T09:48:22.000Z</time>
      </trkpt>
      <trkpt lat="43.61947" lon="6.8635">
        <ele>233</ele>
        <time>2019-02-07T09:48:23.000Z</time>
      </trkpt>
      <trkpt lat="43.61946" lon="6.86352">
        <ele>233</ele>
        <time>2019-02-07T09:48:24.000Z</time>
      </trkpt>
      <trkpt lat="43.61945" lon="6.86354">
        <ele>233</ele>
        <time>2019-02-07T09:48:25.000Z</time>
      </trkpt>
      <trkpt lat="43.61944" lon="6.86356">
        <ele>233</ele>
        <time>2019-02-07T09:48:26.000Z</time>
      </trkpt>
      <trkpt lat="43.61943" lon="6.86358">
        <ele>234</ele>
        <time>2019-02-07T09:48:27.000Z</time>
      </trkpt>
      <trkpt lat="43.61941" lon="6.8636">
        <ele>234</ele>
        <time>2019-02-07T09:48:28.000Z</time>
      </trkpt>
      <trkpt lat="43.6194" lon="6.86362">
        <ele>234</ele>
        <time>2019-02-07T09:48:29.000Z</time>
      </trkpt>
      <trkpt lat="43.61939" lon="6.86365">
        <ele>234</ele>
        <time>2019-02-07T09:48:30.000Z</time>
      </trkpt>
      <trkpt lat="43.61938" lon="6.86367">
        <ele>234</ele>
        <time>2019-02-07T09:48:31.000Z</time>
      </trkpt>
      <trkpt lat="43.61938" lon="6.86369">
        <ele>234</ele>
        <time>2019-02-07T09:48:32.000Z</time>
      </trkpt>
      <trkpt lat="43.61937" lon="6.86371">
        <ele>234</ele>
        <time>2019-02-07T09:48:33.000Z</time>
      </trkpt>
      <trkpt lat="43.61935" lon="6.86373">
        <ele>235</ele>
        <time>2019-02-07T09:48:34.000Z</time>
      </trkpt>
      <trkpt lat="43.61934" lon="6.86375">
        <ele>235</ele>
        <time>2019-02-07T09:48:35.000Z</time>
      </trkpt>
      <trkpt lat="43.61933" lon="6.86378">
        <ele>235</ele>
        <time>2019-02-07T09:48:36.000Z</time>
      </trkpt>
      <trkpt lat="43.61932" lon="6.8638">
        <ele>235</ele>
        <time>2019-02-07T09:48:37.000Z</time>
      </trkpt>
      <trkpt lat="43.61932" lon="6.86382">
        <ele>236</ele>
        <time>2019-02-07T09:48:38.000Z</time>
      </trkpt>
      <trkpt lat="43.61931" lon="6.86384">
        <ele>236</ele>
        <time>2019-02-07T09:48:39.000Z</time>
      </trkpt>
      <trkpt lat="43.61931" lon="6.86386">
        <ele>236</ele>
        <time>2019-02-07T09:48:40.000Z</time>
      </trkpt>
      <trkpt lat="43.6193" lon="6.86389">
        <ele>237</ele>
        <time>2019-02-07T09:48:41.000Z</time>
      </trkpt>
      <trkpt lat="43.61929" lon="6.86391">
        <ele>237</ele>
        <time>2019-02-07T09:48:42.000Z</time>
      </trkpt>
      <trkpt lat="43.61928" lon="6.86393">
        <ele>237</ele>
        <time>2019-02-07T09:48:43.000Z</time>
      </trkpt>
      <trkpt lat="43.61927" lon="6.86396">
        <ele>238</ele>
        <time>2019-02-07T09:48:44.000Z</time>
      </trkpt>
      <trkpt lat="43.61927" lon="6.86398">
        <ele>238</ele>
        <time>2019-02-07T09:48:45.000Z</time>
      </trkpt>
      <trkpt lat="43.61926" lon="6.864">
        <ele>238</ele>
        <time>2019-02-07T09:48:46.000Z</time>
      </trkpt>
      <trkpt lat="43.61925" lon="6.86402">
        <ele>239</ele>
        <time>2019-02-07T09:48:47.000Z</time>
      </trkpt>
      <trkpt lat="43.61924" lon="6.86405">
        <ele>239</ele>
        <time>2019-02-07T09:48:48.000Z</time>
      </trkpt>
      <trkpt lat="43.61924" lon="6.86407">
        <ele>239</ele>
        <time>2019-02-07T09:48:49.000Z</time>
      </trkpt>
      <trkpt lat="43.61923" lon="6.86409">
        <ele>239</ele>
        <time>2019-02-07T09:48:50.000Z</time>
      </trkpt>
      <trkpt lat="43.61923" lon="6.86411">
        <ele>239</ele>
        <time>2019-02-07T09:48:51.000Z</time>
      </trkpt>
      <trkpt lat="43.61923" lon="6.86413">
        <ele>239</ele>
        <time>2019-02-07T09:48:52.000Z</time>
      </trkpt>
      <trkpt lat="43.61922" lon="6.86416">
        <ele>239</ele>
        <time>2019-02-07T09:48:53.000Z</time>
      </trkpt>
      <trkpt lat="43.61922" lon="6.86418">
        <ele>239</ele>
        <time>2019-02-07T09:48:54.000Z</time>
      </trkpt>
      <trkpt lat="43.61921" lon="6.86421">
        <ele>239</ele>
        <time>2019-02-07T09:48:55.000Z</time>
      </trkpt>
      <trkpt lat="43.61921" lon="6.86424">
        <ele>239</ele>
        <time>2019-02-07T09:48:56.000Z</time>
      </trkpt>
      <trkpt lat="43.61921" lon="6.86426">
        <ele>239</ele>
        <time>2019-02-07T09:48:57.000Z</time>
      </trkpt>
      <trkpt lat="43.6192" lon="6.86429">
        <ele>239</ele>
        <time>2019-02-07T09:48:58.000Z</time>
      </trkpt>
      <trkpt lat="43.6192" lon="6.86431">
        <ele>238</ele>
        <time>2019-02-07T09:48:59.000Z</time>
      </trkpt>
      <trkpt lat="43.6192" lon="6.86433">
        <ele>239</ele>
        <time>2019-02-07T09:49:00.000Z</time>
      </trkpt>
      <trkpt lat="43.61919" lon="6.86436">
        <ele>239</ele>
        <time>2019-02-07T09:49:01.000Z</time>
      </trkpt>
      <trkpt lat="43.61918" lon="6.86438">
        <ele>239</ele>
        <time>2019-02-07T09:49:02.000Z</time>
      </trkpt>
      <trkpt lat="43.61918" lon="6.86441">
        <ele>239</ele>
        <time>2019-02-07T09:49:03.000Z</time>
      </trkpt>
      <trkpt lat="43.61918" lon="6.86444">
        <ele>239</ele>
        <time>2019-02-07T09:49:04.000Z</time>
      </trkpt>
      <trkpt lat="43.61918" lon="6.86446">
        <ele>238</ele>
        <time>2019-02-07T09:49:05.000Z</time>
      </trkpt>
      <trkpt lat="43.61917" lon="6.86449">
        <ele>239</ele>
        <time>2019-02-07T09:49:06.000Z</time>
      </trkpt>
      <trkpt lat="43.61917" lon="6.86451">
        <ele>239</ele>
        <time>2019-02-07T09:49:07.000Z</time>
      </trkpt>
      <trkpt lat="43.61916" lon="6.86454">
        <ele>239</ele>
        <time>2019-02-07T09:49:08.000Z</time>
      </trkpt>
      <trkpt lat="43.61915" lon="6.86456">
        <ele>239</ele>
        <time>2019-02-07T09:49:09.000Z</time>
      </trkpt>
      <trkpt lat="43.61914" lon="6.86459">
        <ele>240</ele>
        <time>2019-02-07T09:49:10.000Z</time>
      </trkpt>
      <trkpt lat="43.61913" lon="6.86462">
        <ele>240</ele>
        <time>2019-02-07T09:49:11.000Z</time>
      </trkpt>
      <trkpt lat="43.61913" lon="6.86464">
        <ele>241</ele>
        <time>2019-02-07T09:49:12.000Z</time>
      </trkpt>
      <trkpt lat="43.61912" lon="6.86467">
        <ele>241</ele>
        <time>2019-02-07T09:49:13.000Z</time>
      </trkpt>
      <trkpt lat="43.61911" lon="6.8647">
        <ele>241</ele>
        <time>2019-02-07T09:49:14.000Z</time>
      </trkpt>
      <trkpt lat="43.61911" lon="6.86473">
        <ele>241</ele>
        <time>2019-02-07T09:49:15.000Z</time>
      </trkpt>
      <trkpt lat="43.6191" lon="6.86476">
        <ele>242</ele>
        <time>2019-02-07T09:49:16.000Z</time>
      </trkpt>
      <trkpt lat="43.6191" lon="6.86478">
        <ele>243</ele>
        <time>2019-02-07T09:49:17.000Z</time>
      </trkpt>
      <trkpt lat="43.61909" lon="6.86481">
        <ele>243</ele>
        <time>2019-02-07T09:49:18.000Z</time>
      </trkpt>
      <trkpt lat="43.61909" lon="6.86483">
        <ele>243</ele>
        <time>2019-02-07T09:49:19.000Z</time>
      </trkpt>
      <trkpt lat="43.61909" lon="6.86486">
        <ele>244</ele>
        <time>2019-02-07T09:49:20.000Z</time>
      </trkpt>
      <trkpt lat="43.61909" lon="6.86489">
        <ele>244</ele>
        <time>2019-02-07T09:49:21.000Z</time>
      </trkpt>
      <trkpt lat="43.6191" lon="6.86491">
        <ele>244</ele>
        <time>2019-02-07T09:49:22.000Z</time>
      </trkpt>
      <trkpt lat="43.6191" lon="6.86494">
        <ele>244</ele>
        <time>2019-02-07T09:49:23.000Z</time>
      </trkpt>
      <trkpt lat="43.6191" lon="6.86496">
        <ele>244</ele>
        <time>2019-02-07T09:49:24.000Z</time>
      </trkpt>
      <trkpt lat="43.6191" lon="6.86499">
        <ele>244</ele>
        <time>2019-02-07T09:49:25.000Z</time>
      </trkpt>
      <trkpt lat="43.61911" lon="6.86501">
        <ele>245</ele>
        <time>2019-02-07T09:49:26.000Z</time>
      </trkpt>
      <trkpt lat="43.61911" lon="6.86503">
        <ele>244</ele>
        <time>2019-02-07T09:49:27.000Z</time>
      </trkpt>
      <trkpt lat="43.61912" lon="6.86505">
        <ele>244</ele>
        <time>2019-02-07T09:49:28.000Z</time>
      </trkpt>
      <trkpt lat="43.61912" lon="6.86508">
        <ele>244</ele>
        <time>2019-02-07T09:49:29.000Z</time>
      </trkpt>
      <trkpt lat="43.61912" lon="6.8651">
        <ele>245</ele>
        <time>2019-02-07T09:49:30.000Z</time>
      </trkpt>
      <trkpt lat="43.61913" lon="6.86512">
        <ele>244</ele>
        <time>2019-02-07T09:49:31.000Z</time>
      </trkpt>
      <trkpt lat="43.61913" lon="6.86514">
        <ele>245</ele>
        <time>2019-02-07T09:49:32.000Z</time>
      </trkpt>
      <trkpt lat="43.61913" lon="6.86517">
        <ele>245</ele>
        <time>2019-02-07T09:49:33.000Z</time>
      </trkpt>
      <trkpt lat="43.61912" lon="6.86519">
        <ele>245</ele>
        <time>2019-02-07T09:49:34.000Z</time>
      </trkpt>
      <trkpt lat="43.61912" lon="6.86521">
        <ele>245</ele>
        <time>2019-02-07T09:49:35.000Z</time>
      </trkpt>
      <trkpt lat="43.61911" lon="6.86522">
        <ele>245</ele>
        <time>2019-02-07T09:49:36.000Z</time>
      </trkpt>
      <trkpt lat="43.6191" lon="6.86524">
        <ele>245</ele>
        <time>2019-02-07T09:49:37.000Z</time>
      </trkpt>
      <trkpt lat="43.61909" lon="6.86525">
        <ele>245</ele>
        <time>2019-02-07T09:49:38.000Z</time>
      </trkpt>
      <trkpt lat="43.61907" lon="6.86526">
        <ele>245</ele>
        <time>2019-02-07T09:49:39.000Z</time>
      </trkpt>
      <trkpt lat="43.61906" lon="6.86527">
        <ele>244</ele>
        <time>2019-02-07T09:49:40.000Z</time>
      </trkpt>
      <trkpt lat="43.61905" lon="6.86528">
        <ele>244</ele>
        <time>2019-02-07T09:49:41.000Z</time>
      </trkpt>
      <trkpt lat="43.61903" lon="6.86528">
        <ele>245</ele>
        <time>2019-02-07T09:49:42.000Z</time>
      </trkpt>
      <trkpt lat="43.61902" lon="6.86528">
        <ele>245</ele>
        <time>2019-02-07T09:49:43.000Z</time>
      </trkpt>
      <trkpt lat="43.61901" lon="6.86529">
        <ele>245</ele>
        <time>2019-02-07T09:49:44.000Z</time>
      </trkpt>
      <trkpt lat="43.61899" lon="6.86528">
        <ele>244</ele>
        <time>2019-02-07T09:49:45.000Z</time>
      </trkpt>
      <trkpt lat="43.61898" lon="6.86528">
        <ele>244</ele>
        <time>2019-02-07T09:49:46.000Z</time>
      </trkpt>
      <trkpt lat="43.61896" lon="6.86529">
        <ele>245</ele>
        <time>2019-02-07T09:49:47.000Z</time>
      </trkpt>
      <trkpt lat="43.61894" lon="6.86528">
        <ele>245</ele>
        <time>2019-02-07T09:49:48.000Z</time>
      </trkpt>
      <trkpt lat="43.61892" lon="6.86527">
        <ele>245</ele>
        <time>2019-02-07T09:49:49.000Z</time>
      </trkpt>
      <trkpt lat="43.6189" lon="6.86526">
        <ele>246</ele>
        <time>2019-02-07T09:49:50.000Z</time>
      </trkpt>
      <trkpt lat="43.61889" lon="6.86525">
        <ele>246</ele>
        <time>2019-02-07T09:49:51.000Z</time>
      </trkpt>
      <trkpt lat="43.61887" lon="6.86524">
        <ele>247</ele>
        <time>2019-02-07T09:49:52.000Z</time>
      </trkpt>
      <trkpt lat="43.61885" lon="6.86522">
        <ele>247</ele>
        <time>2019-02-07T09:49:53.000Z</time>
      </trkpt>
      <trkpt lat="43.61884" lon="6.86521">
        <ele>247</ele>
        <time>2019-02-07T09:49:54.000Z</time>
      </trkpt>
      <trkpt lat="43.61883" lon="6.86519">
        <ele>247</ele>
        <time>2019-02-07T09:49:55.000Z</time>
      </trkpt>
      <trkpt lat="43.61881" lon="6.86517">
        <ele>247</ele>
        <time>2019-02-07T09:49:56.000Z</time>
      </trkpt>
      <trkpt lat="43.6188" lon="6.86516">
        <ele>247</ele>
        <time>2019-02-07T09:49:57.000Z</time>
      </trkpt>
      <trkpt lat="43.61879" lon="6.86515">
        <ele>247</ele>
        <time>2019-02-07T09:49:58.000Z</time>
      </trkpt>
      <trkpt lat="43.61878" lon="6.86514">
        <ele>246</ele>
        <time>2019-02-07T09:49:59.000Z</time>
      </trkpt>
      <trkpt lat="43.61876" lon="6.86513">
        <ele>246</ele>
        <time>2019-02-07T09:50:00.000Z</time>
      </trkpt>
      <trkpt lat="43.61875" lon="6.86512">
        <ele>246</ele>
        <time>2019-02-07T09:50:01.000Z</time>
      </trkpt>
      <trkpt lat="43.61873" lon="6.86511">
        <ele>245</ele>
        <time>2019-02-07T09:50:02.000Z</time>
      </trkpt>
      <trkpt lat="43.61872" lon="6.8651">
        <ele>245</ele>
        <time>2019-02-07T09:50:03.000Z</time>
      </trkpt>
      <trkpt lat="43.61871" lon="6.86509">
        <ele>245</ele>
        <time>2019-02-07T09:50:04.000Z</time>
      </trkpt>
      <trkpt lat="43.61869" lon="6.86508">
        <ele>243</ele>
        <time>2019-02-07T09:50:05.000Z</time>
      </trkpt>
      <trkpt lat="43.61868" lon="6.86507">
        <ele>243</ele>
        <time>2019-02-07T09:50:06.000Z</time>
      </trkpt>
      <trkpt lat="43.61867" lon="6.86505">
        <ele>243</ele>
        <time>2019-02-07T09:50:07.000Z</time>
      </trkpt>
      <trkpt lat="43.61866" lon="6.86505">
        <ele>243</ele>
        <time>2019-02-07T09:50:08.000Z</time>
      </trkpt>
      <trkpt lat="43.61865" lon="6.86503">
        <ele>243</ele>
        <time>2019-02-07T09:50:09.000Z</time>
      </trkpt>
      <trkpt lat="43.61863" lon="6.86503">
        <ele>243</ele>
        <time>2019-02-07T09:50:10.000Z</time>
      </trkpt>
      <trkpt lat="43.61862" lon="6.86502">
        <ele>244</ele>
        <time>2019-02-07T09:50:11.000Z</time>
      </trkpt>
      <trkpt lat="43.6186" lon="6.86501">
        <ele>244</ele>
        <time>2019-02-07T09:50:12.000Z</time>
      </trkpt>
      <trkpt lat="43.61859" lon="6.865">
        <ele>245</ele>
        <time>2019-02-07T09:50:13.000Z</time>
      </trkpt>
      <trkpt lat="43.61857" lon="6.86498">
        <ele>245</ele>
        <time>2019-02-07T09:50:14.000Z</time>
      </trkpt>
      <trkpt lat="43.61856" lon="6.86496">
        <ele>245</ele>
        <time>2019-02-07T09:50:15.000Z</time>
      </trkpt>
      <trkpt lat="43.61855" lon="6.86494">
        <ele>245</ele>
        <time>2019-02-07T09:50:16.000Z</time>
      </trkpt>
      <trkpt lat="43.61854" lon="6.86493">
        <ele>244</ele>
        <time>2019-02-07T09:50:17.000Z</time>
      </trkpt>
      <trkpt lat="43.61852" lon="6.86491">
        <ele>244</ele>
        <time>2019-02-07T09:50:18.000Z</time>
      </trkpt>
      <trkpt lat="43.61851" lon="6.86489">
        <ele>244</ele>
        <time>2019-02-07T09:50:19.000Z</time>
      </trkpt>
      <trkpt lat="43.6185" lon="6.86488">
        <ele>244</ele>
        <time>2019-02-07T09:50:20.000Z</time>
      </trkpt>
      <trkpt lat="43.61849" lon="6.86486">
        <ele>244</ele>
        <time>2019-02-07T09:50:21.000Z</time>
      </trkpt>
      <trkpt lat="43.61848" lon="6.86484">
        <ele>244</ele>
        <time>2019-02-07T09:50:22.000Z</time>
      </trkpt>
      <trkpt lat="43.61847" lon="6.86481">
        <ele>243</ele>
        <time>2019-02-07T09:50:23.000Z</time>
      </trkpt>
      <trkpt lat="43.61846" lon="6.86478">
        <ele>243</ele>
        <time>2019-02-07T09:50:24.000Z</time>
      </trkpt>
      <trkpt lat="43.61845" lon="6.86475">
        <ele>242</ele>
        <time>2019-02-07T09:50:25.000Z</time>
      </trkpt>
      <trkpt lat="43.61845" lon="6.86472">
        <ele>242</ele>
        <time>2019-02-07T09:50:26.000Z</time>
      </trkpt>
      <trkpt lat="43.61844" lon="6.8647">
        <ele>242</ele>
        <time>2019-02-07T09:50:27.000Z</time>
      </trkpt>
      <trkpt lat="43.61843" lon="6.86468">
        <ele>240</ele>
        <time>2019-02-07T09:50:28.000Z</time>
      </trkpt>
      <trkpt lat="43.61843" lon="6.86465">
        <ele>240</ele>
        <time>2019-02-07T09:50:29.000Z</time>
      </trkpt>
      <trkpt lat="43.61842" lon="6.86462">
        <ele>241</ele>
        <time>2019-02-07T09:50:30.000Z</time>
      </trkpt>
      <trkpt lat="43.61842" lon="6.8646">
        <ele>240</ele>
        <time>2019-02-07T09:50:31.000Z</time>
      </trkpt>
      <trkpt lat="43.61841" lon="6.86457">
        <ele>240</ele>
        <time>2019-02-07T09:50:32.000Z</time>
      </trkpt>
      <trkpt lat="43.61841" lon="6.86455">
        <ele>239</ele>
        <time>2019-02-07T09:50:33.000Z</time>
      </trkpt>
      <trkpt lat="43.6184" lon="6.86453">
        <ele>238</ele>
        <time>2019-02-07T09:50:34.000Z</time>
      </trkpt>
      <trkpt lat="43.61839" lon="6.86451">
        <ele>238</ele>
        <time>2019-02-07T09:50:35.000Z</time>
      </trkpt>
      <trkpt lat="43.61839" lon="6.86449">
        <ele>237</ele>
        <time>2019-02-07T09:50:36.000Z</time>
      </trkpt>
      <trkpt lat="43.61838" lon="6.86447">
        <ele>236</ele>
        <time>2019-02-07T09:50:37.000Z</time>
      </trkpt>
      <trkpt lat="43.61837" lon="6.86445">
        <ele>235</ele>
        <time>2019-02-07T09:50:38.000Z</time>
      </trkpt>
      <trkpt lat="43.61836" lon="6.86443">
        <ele>235</ele>
        <time>2019-02-07T09:50:39.000Z</time>
      </trkpt>
      <trkpt lat="43.61835" lon="6.86441">
        <ele>234</ele>
        <time>2019-02-07T09:50:40.000Z</time>
      </trkpt>
      <trkpt lat="43.61835" lon="6.86438">
        <ele>234</ele>
        <time>2019-02-07T09:50:41.000Z</time>
      </trkpt>
      <trkpt lat="43.61834" lon="6.86436">
        <ele>233</ele>
        <time>2019-02-07T09:50:42.000Z</time>
      </trkpt>
      <trkpt lat="43.61834" lon="6.86434">
        <ele>233</ele>
        <time>2019-02-07T09:50:43.000Z</time>
      </trkpt>
      <trkpt lat="43.61833" lon="6.86431">
        <ele>232</ele>
        <time>2019-02-07T09:50:44.000Z</time>
      </trkpt>
      <trkpt lat="43.61832" lon="6.86428">
        <ele>231</ele>
        <time>2019-02-07T09:50:45.000Z</time>
      </trkpt>
      <trkpt lat="43.61831" lon="6.86426">
        <ele>230</ele>
        <time>2019-02-07T09:50:46.000Z</time>
      </trkpt>
      <trkpt lat="43.6183" lon="6.86423">
        <ele>230</ele>
        <time>2019-02-07T09:50:47.000Z</time>
      </trkpt>
      <trkpt lat="43.61829" lon="6.86421">
        <ele>229</ele>
        <time>2019-02-07T09:50:48.000Z</time>
      </trkpt>
      <trkpt lat="43.61827" lon="6.86419">
        <ele>229</ele>
        <time>2019-02-07T09:50:49.000Z</time>
      </trkpt>
      <trkpt lat="43.61826" lon="6.86417">
        <ele>229</ele>
        <time>2019-02-07T09:50:50.000Z</time>
      </trkpt>
      <trkpt lat="43.61824" lon="6.86415">
        <ele>230</ele>
        <time>2019-02-07T09:50:51.000Z</time>
      </trkpt>
      <trkpt lat="43.61822" lon="6.86413">
        <ele>230</ele>
        <time>2019-02-07T09:50:52.000Z</time>
      </trkpt>
      <trkpt lat="43.6182" lon="6.86411">
        <ele>230</ele>
        <time>2019-02-07T09:50:53.000Z</time>
      </trkpt>
      <trkpt lat="43.61818" lon="6.8641">
        <ele>231</ele>
        <time>2019-02-07T09:50:54.000Z</time>
      </trkpt>
      <trkpt lat="43.61816" lon="6.8641">
        <ele>232</ele>
        <time>2019-02-07T09:50:55.000Z</time>
      </trkpt>
      <trkpt lat="43.61814" lon="6.86409">
        <ele>232</ele>
        <time>2019-02-07T09:50:56.000Z</time>
      </trkpt>
      <trkpt lat="43.61812" lon="6.86409">
        <ele>232</ele>
        <time>2019-02-07T09:50:57.000Z</time>
      </trkpt>
      <trkpt lat="43.6181" lon="6.86409">
        <ele>233</ele>
        <time>2019-02-07T09:50:58.000Z</time>
      </trkpt>
      <trkpt lat="43.61807" lon="6.86409">
        <ele>234</ele>
        <time>2019-02-07T09:50:59.000Z</time>
      </trkpt>
      <trkpt lat="43.61805" lon="6.86409">
        <ele>235</ele>
        <time>2019-02-07T09:51:00.000Z</time>
      </trkpt>
      <trkpt lat="43.61803" lon="6.86409">
        <ele>235</ele>
        <time>2019-02-07T09:51:01.000Z</time>
      </trkpt>
      <trkpt lat="43.61802" lon="6.86409">
        <ele>235</ele>
        <time>2019-02-07T09:51:02.000Z</time>
      </trkpt>
      <trkpt lat="43.61801" lon="6.8641">
        <ele>237</ele>
        <time>2019-02-07T09:51:03.000Z</time>
      </trkpt>
      <trkpt lat="43.61801" lon="6.8641">
        <ele>237</ele>
        <time>2019-02-07T09:51:04.000Z</time>
      </trkpt>
      <trkpt lat="43.618" lon="6.86411">
        <ele>238</ele>
        <time>2019-02-07T09:51:05.000Z</time>
      </trkpt>
      <trkpt lat="43.61799" lon="6.86412">
        <ele>239</ele>
        <time>2019-02-07T09:51:06.000Z</time>
      </trkpt>
      <trkpt lat="43.61798" lon="6.86412">
        <ele>239</ele>
        <time>2019-02-07T09:51:07.000Z</time>
      </trkpt>
      <trkpt lat="43.61798" lon="6.86413">
        <ele>240</ele>
        <time>2019-02-07T09:51:08.000Z</time>
      </trkpt>
      <trkpt lat="43.61796" lon="6.86414">
        <ele>241</ele>
        <time>2019-02-07T09:51:09.000Z</time>
      </trkpt>
      <trkpt lat="43.61795" lon="6.86415">
        <ele>241</ele>
        <time>2019-02-07T09:51:10.000Z</time>
      </trkpt>
      <trkpt lat="43.61793" lon="6.86416">
        <ele>241</ele>
        <time>2019-02-07T09:51:11.000Z</time>
      </trkpt>
      <trkpt lat="43.61792" lon="6.86417">
        <ele>241</ele>
        <time>2019-02-07T09:51:12.000Z</time>
      </trkpt>
      <trkpt lat="43.6179" lon="6.86417">
        <ele>242</ele>
        <time>2019-02-07T09:51:13.000Z</time>
      </trkpt>
      <trkpt lat="43.61789" lon="6.86418">
        <ele>243</ele>
        <time>2019-02-07T09:51:14.000Z</time>
      </trkpt>
      <trkpt lat="43.61787" lon="6.86417">
        <ele>243</ele>
        <time>2019-02-07T09:51:15.000Z</time>
      </trkpt>
      <trkpt lat="43.61786" lon="6.86417">
        <ele>243</ele>
        <time>2019-02-07T09:51:16.000Z</time>
      </trkpt>
      <trkpt lat="43.61784" lon="6.86416">
        <ele>244</ele>
        <time>2019-02-07T09:51:17.000Z</time>
      </trkpt>
      <trkpt lat="43.61782" lon="6.86415">
        <ele>243</ele>
        <time>2019-02-07T09:51:18.000Z</time>
      </trkpt>
      <trkpt lat="43.6178" lon="6.86413">
        <ele>243</ele>
        <time>2019-02-07T09:51:19.000Z</time>
      </trkpt>
      <trkpt lat="43.61778" lon="6.8641">
        <ele>242</ele>
        <time>2019-02-07T09:51:20.000Z</time>
      </trkpt>
      <trkpt lat="43.61776" lon="6.86408">
        <ele>242</ele>
        <time>2019-02-07T09:51:21.000Z</time>
      </trkpt>
      <trkpt lat="43.61775" lon="6.86405">
        <ele>242</ele>
        <time>2019-02-07T09:51:22.000Z</time>
      </trkpt>
      <trkpt lat="43.61774" lon="6.86403">
        <ele>242</ele>
        <time>2019-02-07T09:51:23.000Z</time>
      </trkpt>
      <trkpt lat="43.61773" lon="6.86401">
        <ele>242</ele>
        <time>2019-02-07T09:51:24.000Z</time>
      </trkpt>
      <trkpt lat="43.61772" lon="6.86399">
        <ele>243</ele>
        <time>2019-02-07T09:51:25.000Z</time>
      </trkpt>
      <trkpt lat="43.61772" lon="6.86397">
        <ele>242</ele>
        <time>2019-02-07T09:51:26.000Z</time>
      </trkpt>
      <trkpt lat="43.61771" lon="6.86394">
        <ele>241</ele>
        <time>2019-02-07T09:51:27.000Z</time>
      </trkpt>
      <trkpt lat="43.61771" lon="6.86392">
        <ele>240</ele>
        <time>2019-02-07T09:51:28.000Z</time>
      </trkpt>
      <trkpt lat="43.61771" lon="6.86389">
        <ele>239</ele>
        <time>2019-02-07T09:51:29.000Z</time>
      </trkpt>
      <trkpt lat="43.61771" lon="6.86387">
        <ele>239</ele>
        <time>2019-02-07T09:51:30.000Z</time>
      </trkpt>
      <trkpt lat="43.61772" lon="6.86385">
        <ele>238</ele>
        <time>2019-02-07T09:51:31.000Z</time>
      </trkpt>
      <trkpt lat="43.61772" lon="6.86382">
        <ele>238</ele>
        <time>2019-02-07T09:51:32.000Z</time>
      </trkpt>
      <trkpt lat="43.61772" lon="6.8638">
        <ele>237</ele>
        <time>2019-02-07T09:51:33.000Z</time>
      </trkpt>
      <trkpt lat="43.61772" lon="6.86378">
        <ele>237</ele>
        <time>2019-02-07T09:51:34.000Z</time>
      </trkpt>
      <trkpt lat="43.61772" lon="6.86376">
        <ele>236</ele>
        <time>2019-02-07T09:51:35.000Z</time>
      </trkpt>
      <trkpt lat="43.61772" lon="6.86373">
        <ele>235</ele>
        <time>2019-02-07T09:51:36.000Z</time>
      </trkpt>
      <trkpt lat="43.61772" lon="6.8637">
        <ele>234</ele>
        <time>2019-02-07T09:51:37.000Z</time>
      </trkpt>
      <trkpt lat="43.61772" lon="6.86367">
        <ele>234</ele>
        <time>2019-02-07T09:51:38.000Z</time>
      </trkpt>
      <trkpt lat="43.61771" lon="6.86364">
        <ele>234</ele>
        <time>2019-02-07T09:51:39.000Z</time>
      </trkpt>
      <trkpt lat="43.61771" lon="6.86361">
        <ele>234</ele>
        <time>2019-02-07T09:51:40.000Z</time>
      </trkpt>
      <trkpt lat="43.61771" lon="6.86359">
        <ele>234</ele>
        <time>2019-02-07T09:51:41.000Z</time>
      </trkpt>
      <trkpt lat="43.6177" lon="6.86356">
        <ele>234</ele>
        <time>2019-02-07T09:51:42.000Z</time>
      </trkpt>
      <trkpt lat="43.6177" lon="6.86354">
        <ele>234</ele>
        <time>2019-02-07T09:51:43.000Z</time>
      </trkpt>
      <trkpt lat="43.61769" lon="6.86351">
        <ele>233</ele>
        <time>2019-02-07T09:51:44.000Z</time>
      </trkpt>
      <trkpt lat="43.61768" lon="6.86348">
        <ele>233</ele>
        <time>2019-02-07T09:51:45.000Z</time>
      </trkpt>
      <trkpt lat="43.61767" lon="6.86346">
        <ele>233</ele>
        <time>2019-02-07T09:51:46.000Z</time>
      </trkpt>
      <trkpt lat="43.61766" lon="6.86344">
        <ele>232</ele>
        <time>2019-02-07T09:51:47.000Z</time>
      </trkpt>
      <trkpt lat="43.61765" lon="6.86341">
        <ele>231</ele>
        <time>2019-02-07T09:51:48.000Z</time>
      </trkpt>
      <trkpt lat="43.61764" lon="6.86339">
        <ele>231</ele>
        <time>2019-02-07T09:51:49.000Z</time>
      </trkpt>
      <trkpt lat="43.61763" lon="6.86337">
        <ele>230</ele>
        <time>2019-02-07T09:51:50.000Z</time>
      </trkpt>
      <trkpt lat="43.61762" lon="6.86336">
        <ele>230</ele>
        <time>2019-02-07T09:51:51.000Z</time>
      </trkpt>
      <trkpt lat="43.61762" lon="6.86334">
        <ele>230</ele>
        <time>2019-02-07T09:51:52.000Z</time>
      </trkpt>
      <trkpt lat="43.61761" lon="6.86332">
        <ele>230</ele>
        <time>2019-02-07T09:51:53.000Z</time>
      </trkpt>
      <trkpt lat="43.6176" lon="6.8633">
        <ele>229</ele>
        <time>2019-02-07T09:51:54.000Z</time>
      </trkpt>
      <trkpt lat="43.61759" lon="6.86328">
        <ele>229</ele>
        <time>2019-02-07T09:51:55.000Z</time>
      </trkpt>
      <trkpt lat="43.61758" lon="6.86326">
        <ele>229</ele>
        <time>2019-02-07T09:51:56.000Z</time>
      </trkpt>
      <trkpt lat="43.61756" lon="6.86324">
        <ele>230</ele>
        <time>2019-02-07T09:51:57.000Z</time>
      </trkpt>
      <trkpt lat="43.61754" lon="6.86322">
        <ele>230</ele>
        <time>2019-02-07T09:51:58.000Z</time>
      </trkpt>
      <trkpt lat="43.61753" lon="6.86319">
        <ele>230</ele>
        <time>2019-02-07T09:51:59.000Z</time>
      </trkpt>
      <trkpt lat="43.61751" lon="6.86317">
        <ele>230</ele>
        <time>2019-02-07T09:52:00.000Z</time>
      </trkpt>
      <trkpt lat="43.6175" lon="6.86315">
        <ele>231</ele>
        <time>2019-02-07T09:52:01.000Z</time>
      </trkpt>
      <trkpt lat="43.61749" lon="6.86313">
        <ele>229</ele>
        <time>2019-02-07T09:52:02.000Z</time>
      </trkpt>
      <trkpt lat="43.61748" lon="6.86311">
        <ele>230</ele>
        <time>2019-02-07T09:52:03.000Z</time>
      </trkpt>
      <trkpt lat="43.61747" lon="6.86309">
        <ele>230</ele>
        <time>2019-02-07T09:52:04.000Z</time>
      </trkpt>
      <trkpt lat="43.61746" lon="6.86307">
        <ele>231</ele>
        <time>2019-02-07T09:52:05.000Z</time>
      </trkpt>
      <trkpt lat="43.61746" lon="6.86305">
        <ele>230</ele>
        <time>2019-02-07T09:52:06.000Z</time>
      </trkpt>
      <trkpt lat="43.61745" lon="6.86303">
        <ele>230</ele>
        <time>2019-02-07T09:52:07.000Z</time>
      </trkpt>
      <trkpt lat="43.61744" lon="6.86301">
        <ele>230</ele>
        <time>2019-02-07T09:52:08.000Z</time>
      </trkpt>
      <trkpt lat="43.61743" lon="6.86299">
        <ele>230</ele>
        <time>2019-02-07T09:52:09.000Z</time>
      </trkpt>
      <trkpt lat="43.61742" lon="6.86298">
        <ele>230</ele>
        <time>2019-02-07T09:52:10.000Z</time>
      </trkpt>
      <trkpt lat="43.61743" lon="6.86298">
        <ele>229</ele>
        <time>2019-02-07T09:52:11.000Z</time>
      </trkpt>
      <trkpt lat="43.61743" lon="6.86298">
        <ele>230</ele>
        <time>2019-02-07T09:52:12.000Z</time>
      </trkpt>
      <trkpt lat="43.61743" lon="6.86298">
        <ele>229</ele>
        <time>2019-02-07T09:52:13.000Z</time>
      </trkpt>
      <trkpt lat="43.61742" lon="6.86297">
        <ele>226</ele>
        <time>2019-02-07T09:52:14.000Z</time>
      </trkpt>
      <trkpt lat="43.61742" lon="6.86295">
        <ele>226</ele>
        <time>2019-02-07T09:52:15.000Z</time>
      </trkpt>
      <trkpt lat="43.61741" lon="6.86293">
        <ele>225</ele>
        <time>2019-02-07T09:52:16.000Z</time>
      </trkpt>
      <trkpt lat="43.61741" lon="6.86291">
        <ele>224</ele>
        <time>2019-02-07T09:52:17.000Z</time>
      </trkpt>
      <trkpt lat="43.6174" lon="6.86289">
        <ele>223</ele>
        <time>2019-02-07T09:52:18.000Z</time>
      </trkpt>
      <trkpt lat="43.6174" lon="6.86286">
        <ele>223</ele>
        <time>2019-02-07T09:52:19.000Z</time>
      </trkpt>
      <trkpt lat="43.61739" lon="6.86284">
        <ele>223</ele>
        <time>2019-02-07T09:52:20.000Z</time>
      </trkpt>
      <trkpt lat="43.61739" lon="6.86281">
        <ele>224</ele>
        <time>2019-02-07T09:52:21.000Z</time>
      </trkpt>
      <trkpt lat="43.61738" lon="6.86278">
        <ele>224</ele>
        <time>2019-02-07T09:52:22.000Z</time>
      </trkpt>
      <trkpt lat="43.61737" lon="6.86276">
        <ele>224</ele>
        <time>2019-02-07T09:52:23.000Z</time>
      </trkpt>
      <trkpt lat="43.61736" lon="6.86272">
        <ele>225</ele>
        <time>2019-02-07T09:52:24.000Z</time>
      </trkpt>
      <trkpt lat="43.61736" lon="6.86269">
        <ele>226</ele>
        <time>2019-02-07T09:52:25.000Z</time>
      </trkpt>
      <trkpt lat="43.61735" lon="6.86266">
        <ele>226</ele>
        <time>2019-02-07T09:52:26.000Z</time>
      </trkpt>
      <trkpt lat="43.61734" lon="6.86263">
        <ele>227</ele>
        <time>2019-02-07T09:52:27.000Z</time>
      </trkpt>
      <trkpt lat="43.61733" lon="6.86261">
        <ele>227</ele>
        <time>2019-02-07T09:52:28.000Z</time>
      </trkpt>
      <trkpt lat="43.61732" lon="6.86258">
        <ele>229</ele>
        <time>2019-02-07T09:52:29.000Z</time>
      </trkpt>
      <trkpt lat="43.61731" lon="6.86256">
        <ele>230</ele>
        <time>2019-02-07T09:52:30.000Z</time>
      </trkpt>
      <trkpt lat="43.6173" lon="6.86254">
        <ele>230</ele>
        <time>2019-02-07T09:52:31.000Z</time>
      </trkpt>
      <trkpt lat="43.61729" lon="6.86252">
        <ele>230</ele>
        <time>2019-02-07T09:52:32.000Z</time>
      </trkpt>
      <trkpt lat="43.61727" lon="6.8625">
        <ele>231</ele>
        <time>2019-02-07T09:52:33.000Z</time>
      </trkpt>
      <trkpt lat="43.61726" lon="6.86249">
        <ele>231</ele>
        <time>2019-02-07T09:52:34.000Z</time>
      </trkpt>
      <trkpt lat="43.61724" lon="6.86247">
        <ele>231</ele>
        <time>2019-02-07T09:52:35.000Z</time>
      </trkpt>
      <trkpt lat="43.61723" lon="6.86246">
        <ele>231</ele>
        <time>2019-02-07T09:52:36.000Z</time>
      </trkpt>
      <trkpt lat="43.61722" lon="6.86245">
        <ele>231</ele>
        <time>2019-02-07T09:52:37.000Z</time>
      </trkpt>
      <trkpt lat="43.61721" lon="6.86245">
        <ele>231</ele>
        <time>2019-02-07T09:52:38.000Z</time>
      </trkpt>
      <trkpt lat="43.61719" lon="6.86244">
        <ele>232</ele>
        <time>2019-02-07T09:52:39.000Z</time>
      </trkpt>
      <trkpt lat="43.61718" lon="6.86244">
        <ele>232</ele>
        <time>2019-02-07T09:52:40.000Z</time>
      </trkpt>
      <trkpt lat="43.61717" lon="6.86244">
        <ele>231</ele>
        <time>2019-02-07T09:52:41.000Z</time>
      </trkpt>
      <trkpt lat="43.61716" lon="6.86244">
        <ele>231</ele>
        <time>2019-02-07T09:52:42.000Z</time>
      </trkpt>
      <trkpt lat="43.61715" lon="6.86244">
        <ele>231</ele>
        <time>2019-02-07T09:52:43.000Z</time>
      </trkpt>
      <trkpt lat="43.61714" lon="6.86244">
        <ele>231</ele>
        <time>2019-02-07T09:52:44.000Z</time>
      </trkpt>
      <trkpt lat="43.61713" lon="6.86244">
        <ele>230</ele>
        <time>2019-02-07T09:52:45.000Z</time>
      </trkpt>
      <trkpt lat="43.61712" lon="6.86245">
        <ele>230</ele>
        <time>2019-02-07T09:52:46.000Z</time>
      </trkpt>
      <trkpt lat="43.61711" lon="6.86245">
        <ele>230</ele>
        <time>2019-02-07T09:52:47.000Z</time>
      </trkpt>
      <trkpt lat="43.6171" lon="6.86245">
        <ele>230</ele>
        <time>2019-02-07T09:52:48.000Z</time>
      </trkpt>
      <trkpt lat="43.61709" lon="6.86246">
        <ele>230</ele>
        <time>2019-02-07T09:52:49.000Z</time>
      </trkpt>
      <trkpt lat="43.61708" lon="6.86246">
        <ele>229</ele>
        <time>2019-02-07T09:52:50.000Z</time>
      </trkpt>
      <trkpt lat="43.61707" lon="6.86247">
        <ele>229</ele>
        <time>2019-02-07T09:52:51.000Z</time>
      </trkpt>
      <trkpt lat="43.61705" lon="6.86248">
        <ele>228</ele>
        <time>2019-02-07T09:52:52.000Z</time>
      </trkpt>
      <trkpt lat="43.61704" lon="6.8625">
        <ele>228</ele>
        <time>2019-02-07T09:52:53.000Z</time>
      </trkpt>
      <trkpt lat="43.61702" lon="6.86251">
        <ele>227</ele>
        <time>2019-02-07T09:52:54.000Z</time>
      </trkpt>
      <trkpt lat="43.61701" lon="6.86253">
        <ele>227</ele>
        <time>2019-02-07T09:52:55.000Z</time>
      </trkpt>
      <trkpt lat="43.61699" lon="6.86254">
        <ele>227</ele>
        <time>2019-02-07T09:52:56.000Z</time>
      </trkpt>
      <trkpt lat="43.61698" lon="6.86256">
        <ele>227</ele>
        <time>2019-02-07T09:52:57.000Z</time>
      </trkpt>
      <trkpt lat="43.61696" lon="6.86257">
        <ele>227</ele>
        <time>2019-02-07T09:52:58.000Z</time>
      </trkpt>
      <trkpt lat="43.61695" lon="6.86258">
        <ele>227</ele>
        <time>2019-02-07T09:52:59.000Z</time>
      </trkpt>
      <trkpt lat="43.61693" lon="6.86259">
        <ele>227</ele>
        <time>2019-02-07T09:53:00.000Z</time>
      </trkpt>
      <trkpt lat="43.61691" lon="6.8626">
        <ele>227</ele>
        <time>2019-02-07T09:53:01.000Z</time>
      </trkpt>
      <trkpt lat="43.61689" lon="6.8626">
        <ele>228</ele>
        <time>2019-02-07T09:53:02.000Z</time>
      </trkpt>
      <trkpt lat="43.61687" lon="6.8626">
        <ele>229</ele>
        <time>2019-02-07T09:53:03.000Z</time>
      </trkpt>
      <trkpt lat="43.61685" lon="6.86259">
        <ele>229</ele>
        <time>2019-02-07T09:53:04.000Z</time>
      </trkpt>
      <trkpt lat="43.61683" lon="6.86259">
        <ele>229</ele>
        <time>2019-02-07T09:53:05.000Z</time>
      </trkpt>
      <trkpt lat="43.61681" lon="6.86259">
        <ele>229</ele>
        <time>2019-02-07T09:53:06.000Z</time>
      </trkpt>
      <trkpt lat="43.61679" lon="6.86258">
        <ele>229</ele>
        <time>2019-02-07T09:53:07.000Z</time>
      </trkpt>
      <trkpt lat="43.61677" lon="6.86258">
        <ele>229</ele>
        <time>2019-02-07T09:53:08.000Z</time>
      </trkpt>
      <trkpt lat="43.61675" lon="6.86257">
        <ele>229</ele>
        <time>2019-02-07T09:53:09.000Z</time>
      </trkpt>
      <trkpt lat="43.61672" lon="6.86256">
        <ele>230</ele>
        <time>2019-02-07T09:53:10.000Z</time>
      </trkpt>
      <trkpt lat="43.6167" lon="6.86256">
        <ele>230</ele>
        <time>2019-02-07T09:53:11.000Z</time>
      </trkpt>
      <trkpt lat="43.61669" lon="6.86255">
        <ele>230</ele>
        <time>2019-02-07T09:53:12.000Z</time>
      </trkpt>
      <trkpt lat="43.61667" lon="6.86255">
        <ele>231</ele>
        <time>2019-02-07T09:53:13.000Z</time>
      </trkpt>
      <trkpt lat="43.61665" lon="6.86255">
        <ele>231</ele>
        <time>2019-02-07T09:53:14.000Z</time>
      </trkpt>
      <trkpt lat="43.61664" lon="6.86254">
        <ele>230</ele>
        <time>2019-02-07T09:53:15.000Z</time>
      </trkpt>
      <trkpt lat="43.61662" lon="6.86254">
        <ele>230</ele>
        <time>2019-02-07T09:53:16.000Z</time>
      </trkpt>
      <trkpt lat="43.61661" lon="6.86253">
        <ele>230</ele>
        <time>2019-02-07T09:53:17.000Z</time>
      </trkpt>
      <trkpt lat="43.61659" lon="6.86252">
        <ele>230</ele>
        <time>2019-02-07T09:53:18.000Z</time>
      </trkpt>
      <trkpt lat="43.61657" lon="6.86251">
        <ele>231</ele>
        <time>2019-02-07T09:53:19.000Z</time>
      </trkpt>
      <trkpt lat="43.61654" lon="6.8625">
        <ele>232</ele>
        <time>2019-02-07T09:53:20.000Z</time>
      </trkpt>
      <trkpt lat="43.61653" lon="6.86249">
        <ele>231</ele>
        <time>2019-02-07T09:53:21.000Z</time>
      </trkpt>
      <trkpt lat="43.61651" lon="6.86248">
        <ele>232</ele>
        <time>2019-02-07T09:53:22.000Z</time>
      </trkpt>
      <trkpt lat="43.61649" lon="6.86247">
        <ele>231</ele>
        <time>2019-02-07T09:53:23.000Z</time>
      </trkpt>
      <trkpt lat="43.61647" lon="6.86245">
        <ele>231</ele>
        <time>2019-02-07T09:53:24.000Z</time>
      </trkpt>
      <trkpt lat="43.61646" lon="6.86244">
        <ele>231</ele>
        <time>2019-02-07T09:53:25.000Z</time>
      </trkpt>
      <trkpt lat="43.61644" lon="6.86242">
        <ele>230</ele>
        <time>2019-02-07T09:53:26.000Z</time>
      </trkpt>
      <trkpt lat="43.61642" lon="6.86241">
        <ele>230</ele>
        <time>2019-02-07T09:53:27.000Z</time>
      </trkpt>
      <trkpt lat="43.61641" lon="6.86239">
        <ele>230</ele>
        <time>2019-02-07T09:53:28.000Z</time>
      </trkpt>
      <trkpt lat="43.61639" lon="6.86237">
        <ele>230</ele>
        <time>2019-02-07T09:53:29.000Z</time>
      </trkpt>
      <trkpt lat="43.61638" lon="6.86234">
        <ele>230</ele>
        <time>2019-02-07T09:53:30.000Z</time>
      </trkpt>
      <trkpt lat="43.61636" lon="6.86232">
        <ele>230</ele>
        <time>2019-02-07T09:53:31.000Z</time>
      </trkpt>
      <trkpt lat="43.61635" lon="6.8623">
        <ele>231</ele>
        <time>2019-02-07T09:53:32.000Z</time>
      </trkpt>
      <trkpt lat="43.61634" lon="6.86228">
        <ele>230</ele>
        <time>2019-02-07T09:53:33.000Z</time>
      </trkpt>
      <trkpt lat="43.61632" lon="6.86226">
        <ele>229</ele>
        <time>2019-02-07T09:53:34.000Z</time>
      </trkpt>
      <trkpt lat="43.61631" lon="6.86225">
        <ele>229</ele>
        <time>2019-02-07T09:53:35.000Z</time>
      </trkpt>
      <trkpt lat="43.6163" lon="6.86223">
        <ele>229</ele>
        <time>2019-02-07T09:53:36.000Z</time>
      </trkpt>
      <trkpt lat="43.61629" lon="6.86222">
        <ele>229</ele>
        <time>2019-02-07T09:53:37.000Z</time>
      </trkpt>
      <trkpt lat="43.61628" lon="6.8622">
        <ele>231</ele>
        <time>2019-02-07T09:53:38.000Z</time>
      </trkpt>
      <trkpt lat="43.61627" lon="6.86218">
        <ele>232</ele>
        <time>2019-02-07T09:53:39.000Z</time>
      </trkpt>
      <trkpt lat="43.61626" lon="6.86217">
        <ele>233</ele>
        <time>2019-02-07T09:53:40.000Z</time>
      </trkpt>
      <trkpt lat="43.61624" lon="6.86217">
        <ele>232</ele>
        <time>2019-02-07T09:53:41.000Z</time>
      </trkpt>
      <trkpt lat="43.61622" lon="6.86216">
        <ele>233</ele>
        <time>2019-02-07T09:53:42.000Z</time>
      </trkpt>
      <trkpt lat="43.61621" lon="6.86217">
        <ele>233</ele>
        <time>2019-02-07T09:53:43.000Z</time>
      </trkpt>
      <trkpt lat="43.61619" lon="6.86217">
        <ele>233</ele>
        <time>2019-02-07T09:53:44.000Z</time>
      </trkpt>
      <trkpt lat="43.61618" lon="6.86217">
        <ele>232</ele>
        <time>2019-02-07T09:53:45.000Z</time>
      </trkpt>
      <trkpt lat="43.61616" lon="6.86217">
        <ele>232</ele>
        <time>2019-02-07T09:53:46.000Z</time>
      </trkpt>
      <trkpt lat="43.61615" lon="6.86217">
        <ele>232</ele>
        <time>2019-02-07T09:53:47.000Z</time>
      </trkpt>
      <trkpt lat="43.61614" lon="6.86217">
        <ele>232</ele>
        <time>2019-02-07T09:53:48.000Z</time>
      </trkpt>
      <trkpt lat="43.61612" lon="6.86218">
        <ele>231</ele>
        <time>2019-02-07T09:53:49.000Z</time>
      </trkpt>
      <trkpt lat="43.61611" lon="6.86217">
        <ele>232</ele>
        <time>2019-02-07T09:53:50.000Z</time>
      </trkpt>
      <trkpt lat="43.61609" lon="6.86217">
        <ele>232</ele>
        <time>2019-02-07T09:53:51.000Z</time>
      </trkpt>
      <trkpt lat="43.61607" lon="6.86217">
        <ele>232</ele>
        <time>2019-02-07T09:53:52.000Z</time>
      </trkpt>
      <trkpt lat="43.61605" lon="6.86217">
        <ele>232</ele>
        <time>2019-02-07T09:53:53.000Z</time>
      </trkpt>
      <trkpt lat="43.61603" lon="6.86218">
        <ele>231</ele>
        <time>2019-02-07T09:53:54.000Z</time>
      </trkpt>
      <trkpt lat="43.61601" lon="6.86218">
        <ele>231</ele>
        <time>2019-02-07T09:53:55.000Z</time>
      </trkpt>
      <trkpt lat="43.61599" lon="6.86218">
        <ele>232</ele>
        <time>2019-02-07T09:53:56.000Z</time>
      </trkpt>
      <trkpt lat="43.61597" lon="6.86218">
        <ele>232</ele>
        <time>2019-02-07T09:53:57.000Z</time>
      </trkpt>
      <trkpt lat="43.61595" lon="6.86219">
        <ele>232</ele>
        <time>2019-02-07T09:53:58.000Z</time>
      </trkpt>
      <trkpt lat="43.61592" lon="6.8622">
        <ele>233</ele>
        <time>2019-02-07T09:53:59.000Z</time>
      </trkpt>
      <trkpt lat="43.6159" lon="6.8622">
        <ele>234</ele>
        <time>2019-02-07T09:54:00.000Z</time>
      </trkpt>
      <trkpt lat="43.61588" lon="6.8622">
        <ele>234</ele>
        <time>2019-02-07T09:54:01.000Z</time>
      </trkpt>
      <trkpt lat="43.61586" lon="6.8622">
        <ele>234</ele>
        <time>2019-02-07T09:54:02.000Z</time>
      </trkpt>
      <trkpt lat="43.61584" lon="6.8622">
        <ele>234</ele>
        <time>2019-02-07T09:54:03.000Z</time>
      </trkpt>
      <trkpt lat="43.61582" lon="6.8622">
        <ele>234</ele>
        <time>2019-02-07T09:54:04.000Z</time>
      </trkpt>
      <trkpt lat="43.61579" lon="6.8622">
        <ele>233</ele>
        <time>2019-02-07T09:54:05.000Z</time>
      </trkpt>
      <trkpt lat="43.61577" lon="6.8622">
        <ele>231</ele>
        <time>2019-02-07T09:54:06.000Z</time>
      </trkpt>
      <trkpt lat="43.61575" lon="6.86221">
        <ele>231</ele>
        <time>2019-02-07T09:54:07.000Z</time>
      </trkpt>
      <trkpt lat="43.61573" lon="6.86222">
        <ele>230</ele>
        <time>2019-02-07T09:54:08.000Z</time>
      </trkpt>
      <trkpt lat="43.61573" lon="6.86223">
        <ele>228</ele>
        <time>2019-02-07T09:54:09.000Z</time>
      </trkpt>
      <trkpt lat="43.61572" lon="6.86225">
        <ele>227</ele>
        <time>2019-02-07T09:54:10.000Z</time>
      </trkpt>
      <trkpt lat="43.61571" lon="6.86228">
        <ele>227</ele>
        <time>2019-02-07T09:54:11.000Z</time>
      </trkpt>
      <trkpt lat="43.6157" lon="6.86231">
        <ele>225</ele>
        <time>2019-02-07T09:54:12.000Z</time>
      </trkpt>
      <trkpt lat="43.6157" lon="6.86235">
        <ele>224</ele>
        <time>2019-02-07T09:54:13.000Z</time>
      </trkpt>
      <trkpt lat="43.6157" lon="6.86238">
        <ele>222</ele>
        <time>2019-02-07T09:54:14.000Z</time>
      </trkpt>
      <trkpt lat="43.6157" lon="6.86241">
        <ele>221</ele>
        <time>2019-02-07T09:54:15.000Z</time>
      </trkpt>
      <trkpt lat="43.61571" lon="6.86244">
        <ele>222</ele>
        <time>2019-02-07T09:54:16.000Z</time>
      </trkpt>
      <trkpt lat="43.61571" lon="6.86246">
        <ele>221</ele>
        <time>2019-02-07T09:54:17.000Z</time>
      </trkpt>
      <trkpt lat="43.61571" lon="6.86248">
        <ele>221</ele>
        <time>2019-02-07T09:54:18.000Z</time>
      </trkpt>
      <trkpt lat="43.61572" lon="6.8625">
        <ele>221</ele>
        <time>2019-02-07T09:54:19.000Z</time>
      </trkpt>
      <trkpt lat="43.61573" lon="6.86252">
        <ele>221</ele>
        <time>2019-02-07T09:54:20.000Z</time>
      </trkpt>
      <trkpt lat="43.61574" lon="6.86254">
        <ele>220</ele>
        <time>2019-02-07T09:54:21.000Z</time>
      </trkpt>
      <trkpt lat="43.61576" lon="6.86256">
        <ele>220</ele>
        <time>2019-02-07T09:54:22.000Z</time>
      </trkpt>
      <trkpt lat="43.61577" lon="6.86258">
        <ele>220</ele>
        <time>2019-02-07T09:54:23.000Z</time>
      </trkpt>
      <trkpt lat="43.61577" lon="6.8626">
        <ele>220</ele>
        <time>2019-02-07T09:54:24.000Z</time>
      </trkpt>
      <trkpt lat="43.61578" lon="6.86262">
        <ele>221</ele>
        <time>2019-02-07T09:54:25.000Z</time>
      </trkpt>
      <trkpt lat="43.61578" lon="6.86264">
        <ele>221</ele>
        <time>2019-02-07T09:54:26.000Z</time>
      </trkpt>
      <trkpt lat="43.61579" lon="6.86266">
        <ele>222</ele>
        <time>2019-02-07T09:54:27.000Z</time>
      </trkpt>
      <trkpt lat="43.61579" lon="6.86269">
        <ele>222</ele>
        <time>2019-02-07T09:54:28.000Z</time>
      </trkpt>
      <trkpt lat="43.6158" lon="6.86271">
        <ele>222</ele>
        <time>2019-02-07T09:54:29.000Z</time>
      </trkpt>
      <trkpt lat="43.61582" lon="6.86273">
        <ele>222</ele>
        <time>2019-02-07T09:54:30.000Z</time>
      </trkpt>
      <trkpt lat="43.61583" lon="6.86275">
        <ele>223</ele>
        <time>2019-02-07T09:54:31.000Z</time>
      </trkpt>
      <trkpt lat="43.61584" lon="6.86276">
        <ele>223</ele>
        <time>2019-02-07T09:54:32.000Z</time>
      </trkpt>
      <trkpt lat="43.61585" lon="6.86278">
        <ele>223</ele>
        <time>2019-02-07T09:54:33.000Z</time>
      </trkpt>
      <trkpt lat="43.61586" lon="6.86279">
        <ele>224</ele>
        <time>2019-02-07T09:54:34.000Z</time>
      </trkpt>
      <trkpt lat="43.61586" lon="6.86281">
        <ele>224</ele>
        <time>2019-02-07T09:54:35.000Z</time>
      </trkpt>
      <trkpt lat="43.61587" lon="6.86282">
        <ele>225</ele>
        <time>2019-02-07T09:54:36.000Z</time>
      </trkpt>
      <trkpt lat="43.61587" lon="6.86284">
        <ele>224</ele>
        <time>2019-02-07T09:54:37.000Z</time>
      </trkpt>
      <trkpt lat="43.61588" lon="6.86285">
        <ele>225</ele>
        <time>2019-02-07T09:54:38.000Z</time>
      </trkpt>
      <trkpt lat="43.61589" lon="6.86287">
        <ele>225</ele>
        <time>2019-02-07T09:54:39.000Z</time>
      </trkpt>
      <trkpt lat="43.61589" lon="6.86288">
        <ele>226</ele>
        <time>2019-02-07T09:54:40.000Z</time>
      </trkpt>
      <trkpt lat="43.6159" lon="6.8629">
        <ele>225</ele>
        <time>2019-02-07T09:54:41.000Z</time>
      </trkpt>
      <trkpt lat="43.61591" lon="6.86291">
        <ele>225</ele>
        <time>2019-02-07T09:54:42.000Z</time>
      </trkpt>
      <trkpt lat="43.61592" lon="6.86294">
        <ele>226</ele>
        <time>2019-02-07T09:54:43.000Z</time>
      </trkpt>
      <trkpt lat="43.61593" lon="6.86296">
        <ele>226</ele>
        <time>2019-02-07T09:54:44.000Z</time>
      </trkpt>
      <trkpt lat="43.61594" lon="6.86299">
        <ele>225</ele>
        <time>2019-02-07T09:54:45.000Z</time>
      </trkpt>
      <trkpt lat="43.61595" lon="6.86301">
        <ele>226</ele>
        <time>2019-02-07T09:54:46.000Z</time>
      </trkpt>
      <trkpt lat="43.61596" lon="6.86304">
        <ele>227</ele>
        <time>2019-02-07T09:54:47.000Z</time>
      </trkpt>
      <trkpt lat="43.61596" lon="6.86306">
        <ele>227</ele>
        <time>2019-02-07T09:54:48.000Z</time>
      </trkpt>
      <trkpt lat="43.61597" lon="6.86309">
        <ele>228</ele>
        <time>2019-02-07T09:54:49.000Z</time>
      </trkpt>
      <trkpt lat="43.61598" lon="6.86312">
        <ele>228</ele>
        <time>2019-02-07T09:54:50.000Z</time>
      </trkpt>
      <trkpt lat="43.61598" lon="6.86314">
        <ele>228</ele>
        <time>2019-02-07T09:54:51.000Z</time>
      </trkpt>
      <trkpt lat="43.61599" lon="6.86317">
        <ele>228</ele>
        <time>2019-02-07T09:54:52.000Z</time>
      </trkpt>
      <trkpt lat="43.616" lon="6.86319">
        <ele>228</ele>
        <time>2019-02-07T09:54:53.000Z</time>
      </trkpt>
      <trkpt lat="43.61601" lon="6.86321">
        <ele>228</ele>
        <time>2019-02-07T09:54:54.000Z</time>
      </trkpt>
      <trkpt lat="43.61602" lon="6.86323">
        <ele>228</ele>
        <time>2019-02-07T09:54:55.000Z</time>
      </trkpt>
      <trkpt lat="43.61604" lon="6.86325">
        <ele>228</ele>
        <time>2019-02-07T09:54:56.000Z</time>
      </trkpt>
      <trkpt lat="43.61605" lon="6.86327">
        <ele>229</ele>
        <time>2019-02-07T09:54:57.000Z</time>
      </trkpt>
      <trkpt lat="43.61606" lon="6.86329">
        <ele>229</ele>
        <time>2019-02-07T09:54:58.000Z</time>
      </trkpt>
      <trkpt lat="43.61606" lon="6.86331">
        <ele>229</ele>
        <time>2019-02-07T09:54:59.000Z</time>
      </trkpt>
      <trkpt lat="43.61608" lon="6.86333">
        <ele>229</ele>
        <time>2019-02-07T09:55:00.000Z</time>
      </trkpt>
      <trkpt lat="43.61609" lon="6.86335">
        <ele>229</ele>
        <time>2019-02-07T09:55:01.000Z</time>
      </trkpt>
      <trkpt lat="43.61611" lon="6.86337">
        <ele>229</ele>
        <time>2019-02-07T09:55:02.000Z</time>
      </trkpt>
      <trkpt lat="43.61613" lon="6.86338">
        <ele>229</ele>
        <time>2019-02-07T09:55:03.000Z</time>
      </trkpt>
      <trkpt lat="43.61614" lon="6.86341">
        <ele>229</ele>
        <time>2019-02-07T09:55:04.000Z</time>
      </trkpt>
      <trkpt lat="43.61616" lon="6.86343">
        <ele>228</ele>
        <time>2019-02-07T09:55:05.000Z</time>
      </trkpt>
      <trkpt lat="43.61617" lon="6.86345">
        <ele>228</ele>
        <time>2019-02-07T09:55:06.000Z</time>
      </trkpt>
      <trkpt lat="43.61618" lon="6.86348">
        <ele>228</ele>
        <time>2019-02-07T09:55:07.000Z</time>
      </trkpt>
      <trkpt lat="43.61618" lon="6.86351">
        <ele>228</ele>
        <time>2019-02-07T09:55:08.000Z</time>
      </trkpt>
      <trkpt lat="43.61619" lon="6.86353">
        <ele>228</ele>
        <time>2019-02-07T09:55:09.000Z</time>
      </trkpt>
      <trkpt lat="43.61621" lon="6.86355">
        <ele>229</ele>
        <time>2019-02-07T09:55:10.000Z</time>
      </trkpt>
      <trkpt lat="43.61622" lon="6.86356">
        <ele>230</ele>
        <time>2019-02-07T09:55:11.000Z</time>
      </trkpt>
      <trkpt lat="43.61623" lon="6.86359">
        <ele>230</ele>
        <time>2019-02-07T09:55:12.000Z</time>
      </trkpt>
      <trkpt lat="43.61624" lon="6.86361">
        <ele>230</ele>
        <time>2019-02-07T09:55:13.000Z</time>
      </trkpt>
      <trkpt lat="43.61625" lon="6.86362">
        <ele>230</ele>
        <time>2019-02-07T09:55:14.000Z</time>
      </trkpt>
      <trkpt lat="43.61626" lon="6.86364">
        <ele>231</ele>
        <time>2019-02-07T09:55:15.000Z</time>
      </trkpt>
      <trkpt lat="43.61627" lon="6.86366">
        <ele>231</ele>
        <time>2019-02-07T09:55:16.000Z</time>
      </trkpt>
      <trkpt lat="43.61628" lon="6.86368">
        <ele>231</ele>
        <time>2019-02-07T09:55:17.000Z</time>
      </trkpt>
      <trkpt lat="43.6163" lon="6.86369">
        <ele>231</ele>
        <time>2019-02-07T09:55:18.000Z</time>
      </trkpt>
      <trkpt lat="43.61631" lon="6.86371">
        <ele>231</ele>
        <time>2019-02-07T09:55:19.000Z</time>
      </trkpt>
      <trkpt lat="43.61633" lon="6.86372">
        <ele>233</ele>
        <time>2019-02-07T09:55:20.000Z</time>
      </trkpt>
      <trkpt lat="43.61634" lon="6.86372">
        <ele>233</ele>
        <time>2019-02-07T09:55:21.000Z</time>
      </trkpt>
      <trkpt lat="43.61636" lon="6.86373">
        <ele>233</ele>
        <time>2019-02-07T09:55:22.000Z</time>
      </trkpt>
      <trkpt lat="43.61638" lon="6.86374">
        <ele>234</ele>
        <time>2019-02-07T09:55:23.000Z</time>
      </trkpt>
      <trkpt lat="43.61639" lon="6.86375">
        <ele>234</ele>
        <time>2019-02-07T09:55:24.000Z</time>
      </trkpt>
      <trkpt lat="43.61641" lon="6.86376">
        <ele>235</ele>
        <time>2019-02-07T09:55:25.000Z</time>
      </trkpt>
      <trkpt lat="43.61642" lon="6.86377">
        <ele>236</ele>
        <time>2019-02-07T09:55:26.000Z</time>
      </trkpt>
      <trkpt lat="43.61643" lon="6.86378">
        <ele>236</ele>
        <time>2019-02-07T09:55:27.000Z</time>
      </trkpt>
      <trkpt lat="43.61644" lon="6.86379">
        <ele>236</ele>
        <time>2019-02-07T09:55:28.000Z</time>
      </trkpt>
      <trkpt lat="43.61645" lon="6.8638">
        <ele>236</ele>
        <time>2019-02-07T09:55:29.000Z</time>
      </trkpt>
      <trkpt lat="43.61646" lon="6.86381">
        <ele>235</ele>
        <time>2019-02-07T09:55:30.000Z</time>
      </trkpt>
      <trkpt lat="43.61647" lon="6.86383">
        <ele>235</ele>
        <time>2019-02-07T09:55:31.000Z</time>
      </trkpt>
      <trkpt lat="43.61648" lon="6.86385">
        <ele>235</ele>
        <time>2019-02-07T09:55:32.000Z</time>
      </trkpt>
      <trkpt lat="43.61648" lon="6.86387">
        <ele>234</ele>
        <time>2019-02-07T09:55:33.000Z</time>
      </trkpt>
      <trkpt lat="43.61649" lon="6.86389">
        <ele>235</ele>
        <time>2019-02-07T09:55:34.000Z</time>
      </trkpt>
      <trkpt lat="43.61649" lon="6.86391">
        <ele>236</ele>
        <time>2019-02-07T09:55:35.000Z</time>
      </trkpt>
      <trkpt lat="43.61649" lon="6.86393">
        <ele>235</ele>
        <time>2019-02-07T09:55:36.000Z</time>
      </trkpt>
      <trkpt lat="43.61649" lon="6.86395">
        <ele>235</ele>
        <time>2019-02-07T09:55:37.000Z</time>
      </trkpt>
      <trkpt lat="43.61649" lon="6.86397">
        <ele>235</ele>
        <time>2019-02-07T09:55:38.000Z</time>
      </trkpt>
      <trkpt lat="43.61648" lon="6.86398">
        <ele>236</ele>
        <time>2019-02-07T09:55:39.000Z</time>
      </trkpt>
      <trkpt lat="43.61648" lon="6.864">
        <ele>235</ele>
        <time>2019-02-07T09:55:40.000Z</time>
      </trkpt>
      <trkpt lat="43.61647" lon="6.86402">
        <ele>235</ele>
        <time>2019-02-07T09:55:41.000Z</time>
      </trkpt>
      <trkpt lat="43.61646" lon="6.86404">
        <ele>236</ele>
        <time>2019-02-07T09:55:42.000Z</time>
      </trkpt>
      <trkpt lat="43.61646" lon="6.86405">
        <ele>235</ele>
        <time>2019-02-07T09:55:43.000Z</time>
      </trkpt>
      <trkpt lat="43.61645" lon="6.86407">
        <ele>235</ele>
        <time>2019-02-07T09:55:44.000Z</time>
      </trkpt>
      <trkpt lat="43.61645" lon="6.86408">
        <ele>235</ele>
        <time>2019-02-07T09:55:45.000Z</time>
      </trkpt>
      <trkpt lat="43.61645" lon="6.8641">
        <ele>234</ele>
        <time>2019-02-07T09:55:46.000Z</time>
      </trkpt>
      <trkpt lat="43.61644" lon="6.86412">
        <ele>233</ele>
        <time>2019-02-07T09:55:47.000Z</time>
      </trkpt>
      <trkpt lat="43.61644" lon="6.86415">
        <ele>233</ele>
        <time>2019-02-07T09:55:48.000Z</time>
      </trkpt>
      <trkpt lat="43.61643" lon="6.86417">
        <ele>233</ele>
        <time>2019-02-07T09:55:49.000Z</time>
      </trkpt>
      <trkpt lat="43.61643" lon="6.86419">
        <ele>233</ele>
        <time>2019-02-07T09:55:50.000Z</time>
      </trkpt>
      <trkpt lat="43.61643" lon="6.86421">
        <ele>233</ele>
        <time>2019-02-07T09:55:51.000Z</time>
      </trkpt>
      <trkpt lat="43.61643" lon="6.86423">
        <ele>233</ele>
        <time>2019-02-07T09:55:52.000Z</time>
      </trkpt>
      <trkpt lat="43.61642" lon="6.86425">
        <ele>234</ele>
        <time>2019-02-07T09:55:53.000Z</time>
      </trkpt>
      <trkpt lat="43.61642" lon="6.86428">
        <ele>234</ele>
        <time>2019-02-07T09:55:54.000Z</time>
      </trkpt>
      <trkpt lat="43.61641" lon="6.8643">
        <ele>234</ele>
        <time>2019-02-07T09:55:55.000Z</time>
      </trkpt>
      <trkpt lat="43.61641" lon="6.86433">
        <ele>234</ele>
        <time>2019-02-07T09:55:56.000Z</time>
      </trkpt>
      <trkpt lat="43.61641" lon="6.86435">
        <ele>233</ele>
        <time>2019-02-07T09:55:57.000Z</time>
      </trkpt>
      <trkpt lat="43.61641" lon="6.86437">
        <ele>233</ele>
        <time>2019-02-07T09:55:58.000Z</time>
      </trkpt>
      <trkpt lat="43.61641" lon="6.8644">
        <ele>232</ele>
        <time>2019-02-07T09:55:59.000Z</time>
      </trkpt>
      <trkpt lat="43.61641" lon="6.86442">
        <ele>232</ele>
        <time>2019-02-07T09:56:00.000Z</time>
      </trkpt>
      <trkpt lat="43.6164" lon="6.86444">
        <ele>232</ele>
        <time>2019-02-07T09:56:01.000Z</time>
      </trkpt>
      <trkpt lat="43.61639" lon="6.86446">
        <ele>232</ele>
        <time>2019-02-07T09:56:02.000Z</time>
      </trkpt>
      <trkpt lat="43.61638" lon="6.86448">
        <ele>232</ele>
        <time>2019-02-07T09:56:03.000Z</time>
      </trkpt>
      <trkpt lat="43.61637" lon="6.8645">
        <ele>232</ele>
        <time>2019-02-07T09:56:04.000Z</time>
      </trkpt>
      <trkpt lat="43.61637" lon="6.86452">
        <ele>232</ele>
        <time>2019-02-07T09:56:05.000Z</time>
      </trkpt>
      <trkpt lat="43.61635" lon="6.86454">
        <ele>232</ele>
        <time>2019-02-07T09:56:06.000Z</time>
      </trkpt>
      <trkpt lat="43.61634" lon="6.86456">
        <ele>231</ele>
        <time>2019-02-07T09:56:07.000Z</time>
      </trkpt>
      <trkpt lat="43.61634" lon="6.86458">
        <ele>232</ele>
        <time>2019-02-07T09:56:08.000Z</time>
      </trkpt>
      <trkpt lat="43.61633" lon="6.86461">
        <ele>232</ele>
        <time>2019-02-07T09:56:09.000Z</time>
      </trkpt>
      <trkpt lat="43.61632" lon="6.86463">
        <ele>233</ele>
        <time>2019-02-07T09:56:10.000Z</time>
      </trkpt>
      <trkpt lat="43.61631" lon="6.86466">
        <ele>235</ele>
        <time>2019-02-07T09:56:11.000Z</time>
      </trkpt>
      <trkpt lat="43.6163" lon="6.8647">
        <ele>236</ele>
        <time>2019-02-07T09:56:12.000Z</time>
      </trkpt>
      <trkpt lat="43.61628" lon="6.86474">
        <ele>236</ele>
        <time>2019-02-07T09:56:13.000Z</time>
      </trkpt>
      <trkpt lat="43.61627" lon="6.86477">
        <ele>236</ele>
        <time>2019-02-07T09:56:14.000Z</time>
      </trkpt>
      <trkpt lat="43.61627" lon="6.8648">
        <ele>236</ele>
        <time>2019-02-07T09:56:15.000Z</time>
      </trkpt>
      <trkpt lat="43.61626" lon="6.86483">
        <ele>236</ele>
        <time>2019-02-07T09:56:16.000Z</time>
      </trkpt>
      <trkpt lat="43.61627" lon="6.86486">
        <ele>235</ele>
        <time>2019-02-07T09:56:17.000Z</time>
      </trkpt>
      <trkpt lat="43.61627" lon="6.86489">
        <ele>235</ele>
        <time>2019-02-07T09:56:18.000Z</time>
      </trkpt>
      <trkpt lat="43.61628" lon="6.86492">
        <ele>235</ele>
        <time>2019-02-07T09:56:19.000Z</time>
      </trkpt>
      <trkpt lat="43.61628" lon="6.86495">
        <ele>235</ele>
        <time>2019-02-07T09:56:20.000Z</time>
      </trkpt>
      <trkpt lat="43.61629" lon="6.86498">
        <ele>235</ele>
        <time>2019-02-07T09:56:21.000Z</time>
      </trkpt>
      <trkpt lat="43.61629" lon="6.865">
        <ele>235</ele>
        <time>2019-02-07T09:56:22.000Z</time>
      </trkpt>
      <trkpt lat="43.61629" lon="6.86503">
        <ele>235</ele>
        <time>2019-02-07T09:56:23.000Z</time>
      </trkpt>
      <trkpt lat="43.61629" lon="6.86506">
        <ele>235</ele>
        <time>2019-02-07T09:56:24.000Z</time>
      </trkpt>
      <trkpt lat="43.61629" lon="6.86509">
        <ele>235</ele>
        <time>2019-02-07T09:56:25.000Z</time>
      </trkpt>
      <trkpt lat="43.6163" lon="6.86512">
        <ele>234</ele>
        <time>2019-02-07T09:56:26.000Z</time>
      </trkpt>
      <trkpt lat="43.6163" lon="6.86515">
        <ele>234</ele>
        <time>2019-02-07T09:56:27.000Z</time>
      </trkpt>
      <trkpt lat="43.61631" lon="6.86518">
        <ele>234</ele>
        <time>2019-02-07T09:56:28.000Z</time>
      </trkpt>
      <trkpt lat="43.61631" lon="6.8652">
        <ele>233</ele>
        <time>2019-02-07T09:56:29.000Z</time>
      </trkpt>
      <trkpt lat="43.61632" lon="6.86522">
        <ele>233</ele>
        <time>2019-02-07T09:56:30.000Z</time>
      </trkpt>
      <trkpt lat="43.61633" lon="6.86525">
        <ele>233</ele>
        <time>2019-02-07T09:56:31.000Z</time>
      </trkpt>
      <trkpt lat="43.61634" lon="6.86527">
        <ele>233</ele>
        <time>2019-02-07T09:56:32.000Z</time>
      </trkpt>
      <trkpt lat="43.61635" lon="6.86529">
        <ele>233</ele>
        <time>2019-02-07T09:56:33.000Z</time>
      </trkpt>
      <trkpt lat="43.61636" lon="6.86532">
        <ele>232</ele>
        <time>2019-02-07T09:56:34.000Z</time>
      </trkpt>
      <trkpt lat="43.61637" lon="6.86534">
        <ele>232</ele>
        <time>2019-02-07T09:56:35.000Z</time>
      </trkpt>
      <trkpt lat="43.61638" lon="6.86536">
        <ele>233</ele>
        <time>2019-02-07T09:56:36.000Z</time>
      </trkpt>
      <trkpt lat="43.61638" lon="6.86538">
        <ele>234</ele>
        <time>2019-02-07T09:56:37.000Z</time>
      </trkpt>
      <trkpt lat="43.61639" lon="6.8654">
        <ele>233</ele>
        <time>2019-02-07T09:56:38.000Z</time>
      </trkpt>
      <trkpt lat="43.6164" lon="6.86542">
        <ele>234</ele>
        <time>2019-02-07T09:56:39.000Z</time>
      </trkpt>
      <trkpt lat="43.61641" lon="6.86545">
        <ele>234</ele>
        <time>2019-02-07T09:56:40.000Z</time>
      </trkpt>
      <trkpt lat="43.61642" lon="6.86547">
        <ele>235</ele>
        <time>2019-02-07T09:56:41.000Z</time>
      </trkpt>
      <trkpt lat="43.61642" lon="6.86549">
        <ele>235</ele>
        <time>2019-02-07T09:56:42.000Z</time>
      </trkpt>
      <trkpt lat="43.61643" lon="6.86551">
        <ele>234</ele>
        <time>2019-02-07T09:56:43.000Z</time>
      </trkpt>
      <trkpt lat="43.61643" lon="6.86553">
        <ele>234</ele>
        <time>2019-02-07T09:56:44.000Z</time>
      </trkpt>
      <trkpt lat="43.61643" lon="6.86555">
        <ele>233</ele>
        <time>2019-02-07T09:56:45.000Z</time>
      </trkpt>
      <trkpt lat="43.61644" lon="6.86556">
        <ele>235</ele>
        <time>2019-02-07T09:56:46.000Z</time>
      </trkpt>
      <trkpt lat="43.61645" lon="6.86558">
        <ele>236</ele>
        <time>2019-02-07T09:56:47.000Z</time>
      </trkpt>
      <trkpt lat="43.61645" lon="6.86561">
        <ele>236</ele>
        <time>2019-02-07T09:56:48.000Z</time>
      </trkpt>
      <trkpt lat="43.61646" lon="6.86563">
        <ele>237</ele>
        <time>2019-02-07T09:56:49.000Z</time>
      </trkpt>
      <trkpt lat="43.61647" lon="6.86565">
        <ele>236</ele>
        <time>2019-02-07T09:56:50.000Z</time>
      </trkpt>
      <trkpt lat="43.61647" lon="6.86568">
        <ele>237</ele>
        <time>2019-02-07T09:56:51.000Z</time>
      </trkpt>
      <trkpt lat="43.61648" lon="6.8657">
        <ele>237</ele>
        <time>2019-02-07T09:56:52.000Z</time>
      </trkpt>
      <trkpt lat="43.61648" lon="6.86573">
        <ele>238</ele>
        <time>2019-02-07T09:56:53.000Z</time>
      </trkpt>
      <trkpt lat="43.61648" lon="6.86575">
        <ele>238</ele>
        <time>2019-02-07T09:56:54.000Z</time>
      </trkpt>
      <trkpt lat="43.61648" lon="6.86578">
        <ele>238</ele>
        <time>2019-02-07T09:56:55.000Z</time>
      </trkpt>
      <trkpt lat="43.61648" lon="6.8658">
        <ele>238</ele>
        <time>2019-02-07T09:56:56.000Z</time>
      </trkpt>
      <trkpt lat="43.61649" lon="6.86583">
        <ele>239</ele>
        <time>2019-02-07T09:56:57.000Z</time>
      </trkpt>
      <trkpt lat="43.61649" lon="6.86586">
        <ele>239</ele>
        <time>2019-02-07T09:56:58.000Z</time>
      </trkpt>
      <trkpt lat="43.61649" lon="6.86589">
        <ele>239</ele>
        <time>2019-02-07T09:56:59.000Z</time>
      </trkpt>
      <trkpt lat="43.61649" lon="6.86592">
        <ele>240</ele>
        <time>2019-02-07T09:57:00.000Z</time>
      </trkpt>
      <trkpt lat="43.61649" lon="6.86594">
        <ele>240</ele>
        <time>2019-02-07T09:57:01.000Z</time>
      </trkpt>
      <trkpt lat="43.6165" lon="6.86597">
        <ele>241</ele>
        <time>2019-02-07T09:57:02.000Z</time>
      </trkpt>
      <trkpt lat="43.61649" lon="6.86599">
        <ele>240</ele>
        <time>2019-02-07T09:57:03.000Z</time>
      </trkpt>
      <trkpt lat="43.61649" lon="6.86601">
        <ele>240</ele>
        <time>2019-02-07T09:57:04.000Z</time>
      </trkpt>
      <trkpt lat="43.61649" lon="6.86603">
        <ele>240</ele>
        <time>2019-02-07T09:57:05.000Z</time>
      </trkpt>
      <trkpt lat="43.61649" lon="6.86604">
        <ele>240</ele>
        <time>2019-02-07T09:57:06.000Z</time>
      </trkpt>
      <trkpt lat="43.61649" lon="6.86606">
        <ele>241</ele>
        <time>2019-02-07T09:57:07.000Z</time>
      </trkpt>
      <trkpt lat="43.61649" lon="6.86608">
        <ele>241</ele>
        <time>2019-02-07T09:57:08.000Z</time>
      </trkpt>
      <trkpt lat="43.61649" lon="6.8661">
        <ele>242</ele>
        <time>2019-02-07T09:57:09.000Z</time>
      </trkpt>
      <trkpt lat="43.61648" lon="6.86611">
        <ele>242</ele>
        <time>2019-02-07T09:57:10.000Z</time>
      </trkpt>
      <trkpt lat="43.61648" lon="6.86612">
        <ele>242</ele>
        <time>2019-02-07T09:57:11.000Z</time>
      </trkpt>
      <trkpt lat="43.61647" lon="6.86614">
        <ele>243</ele>
        <time>2019-02-07T09:57:12.000Z</time>
      </trkpt>
      <trkpt lat="43.61647" lon="6.86615">
        <ele>243</ele>
        <time>2019-02-07T09:57:13.000Z</time>
      </trkpt>
      <trkpt lat="43.61647" lon="6.86616">
        <ele>243</ele>
        <time>2019-02-07T09:57:14.000Z</time>
      </trkpt>
      <trkpt lat="43.61646" lon="6.86617">
        <ele>243</ele>
        <time>2019-02-07T09:57:15.000Z</time>
      </trkpt>
      <trkpt lat="43.61647" lon="6.86618">
        <ele>243</ele>
        <time>2019-02-07T09:57:16.000Z</time>
      </trkpt>
      <trkpt lat="43.61647" lon="6.86619">
        <ele>243</ele>
        <time>2019-02-07T09:57:17.000Z</time>
      </trkpt>
      <trkpt lat="43.61646" lon="6.86621">
        <ele>243</ele>
        <time>2019-02-07T09:57:18.000Z</time>
      </trkpt>
      <trkpt lat="43.61646" lon="6.86623">
        <ele>244</ele>
        <time>2019-02-07T09:57:19.000Z</time>
      </trkpt>
      <trkpt lat="43.61646" lon="6.86624">
        <ele>244</ele>
        <time>2019-02-07T09:57:20.000Z</time>
      </trkpt>
      <trkpt lat="43.61645" lon="6.86626">
        <ele>244</ele>
        <time>2019-02-07T09:57:21.000Z</time>
      </trkpt>
      <trkpt lat="43.61645" lon="6.86628">
        <ele>244</ele>
        <time>2019-02-07T09:57:22.000Z</time>
      </trkpt>
      <trkpt lat="43.61645" lon="6.86629">
        <ele>244</ele>
        <time>2019-02-07T09:57:23.000Z</time>
      </trkpt>
      <trkpt lat="43.61645" lon="6.86631">
        <ele>244</ele>
        <time>2019-02-07T09:57:24.000Z</time>
      </trkpt>
      <trkpt lat="43.61644" lon="6.86632">
        <ele>244</ele>
        <time>2019-02-07T09:57:25.000Z</time>
      </trkpt>
      <trkpt lat="43.61644" lon="6.86634">
        <ele>244</ele>
        <time>2019-02-07T09:57:26.000Z</time>
      </trkpt>
      <trkpt lat="43.61644" lon="6.86635">
        <ele>244</ele>
        <time>2019-02-07T09:57:27.000Z</time>
      </trkpt>
      <trkpt lat="43.61644" lon="6.86637">
        <ele>244</ele>
        <time>2019-02-07T09:57:28.000Z</time>
      </trkpt>
      <trkpt lat="43.61643" lon="6.86638">
        <ele>244</ele>
        <time>2019-02-07T09:57:29.000Z</time>
      </trkpt>
      <trkpt lat="43.61643" lon="6.8664">
        <ele>243</ele>
        <time>2019-02-07T09:57:30.000Z</time>
      </trkpt>
      <trkpt lat="43.61643" lon="6.86641">
        <ele>243</ele>
        <time>2019-02-07T09:57:31.000Z</time>
      </trkpt>
      <trkpt lat="43.61643" lon="6.86642">
        <ele>243</ele>
        <time>2019-02-07T09:57:32.000Z</time>
      </trkpt>
      <trkpt lat="43.61644" lon="6.86644">
        <ele>243</ele>
        <time>2019-02-07T09:57:33.000Z</time>
      </trkpt>
      <trkpt lat="43.61644" lon="6.86645">
        <ele>243</ele>
        <time>2019-02-07T09:57:34.000Z</time>
      </trkpt>
      <trkpt lat="43.61645" lon="6.86646">
        <ele>243</ele>
        <time>2019-02-07T09:57:35.000Z</time>
      </trkpt>
      <trkpt lat="43.61645" lon="6.86647">
        <ele>244</ele>
        <time>2019-02-07T09:57:36.000Z</time>
      </trkpt>
      <trkpt lat="43.61646" lon="6.86648">
        <ele>244</ele>
        <time>2019-02-07T09:57:37.000Z</time>
      </trkpt>
      <trkpt lat="43.61646" lon="6.86648">
        <ele>244</ele>
        <time>2019-02-07T09:57:38.000Z</time>
      </trkpt>
      <trkpt lat="43.61647" lon="6.86649">
        <ele>244</ele>
        <time>2019-02-07T09:57:39.000Z</time>
      </trkpt>
      <trkpt lat="43.61647" lon="6.86649">
        <ele>243</ele>
        <time>2019-02-07T09:57:40.000Z</time>
      </trkpt>
      <trkpt lat="43.61648" lon="6.86649">
        <ele>243</ele>
        <time>2019-02-07T09:57:41.000Z</time>
      </trkpt>
      <trkpt lat="43.61649" lon="6.86649">
        <ele>243</ele>
        <time>2019-02-07T09:57:42.000Z</time>
      </trkpt>
      <trkpt lat="43.61649" lon="6.86649">
        <ele>243</ele>
        <time>2019-02-07T09:57:43.000Z</time>
      </trkpt>
      <trkpt lat="43.6165" lon="6.86649">
        <ele>243</ele>
        <time>2019-02-07T09:57:44.000Z</time>
      </trkpt>
      <trkpt lat="43.61651" lon="6.86648">
        <ele>244</ele>
        <time>2019-02-07T09:57:45.000Z</time>
      </trkpt>
      <trkpt lat="43.61652" lon="6.86648">
        <ele>244</ele>
        <time>2019-02-07T09:57:46.000Z</time>
      </trkpt>
      <trkpt lat="43.61653" lon="6.86648">
        <ele>244</ele>
        <time>2019-02-07T09:57:47.000Z</time>
      </trkpt>
      <trkpt lat="43.61654" lon="6.86649">
        <ele>244</ele>
        <time>2019-02-07T09:57:48.000Z</time>
      </trkpt>
      <trkpt lat="43.61655" lon="6.86649">
        <ele>245</ele>
        <time>2019-02-07T09:57:49.000Z</time>
      </trkpt>
      <trkpt lat="43.61657" lon="6.86649">
        <ele>245</ele>
        <time>2019-02-07T09:57:50.000Z</time>
      </trkpt>
      <trkpt lat="43.61658" lon="6.86649">
        <ele>245</ele>
        <time>2019-02-07T09:57:51.000Z</time>
      </trkpt>
      <trkpt lat="43.61658" lon="6.86649">
        <ele>245</ele>
        <time>2019-02-07T09:57:52.000Z</time>
      </trkpt>
      <trkpt lat="43.61659" lon="6.86649">
        <ele>245</ele>
        <time>2019-02-07T09:57:53.000Z</time>
      </trkpt>
      <trkpt lat="43.6166" lon="6.86648">
        <ele>246</ele>
        <time>2019-02-07T09:57:54.000Z</time>
      </trkpt>
      <trkpt lat="43.61661" lon="6.86648">
        <ele>246</ele>
        <time>2019-02-07T09:57:55.000Z</time>
      </trkpt>
      <trkpt lat="43.61663" lon="6.86648">
        <ele>246</ele>
        <time>2019-02-07T09:57:56.000Z</time>
      </trkpt>
      <trkpt lat="43.61664" lon="6.86648">
        <ele>246</ele>
        <time>2019-02-07T09:57:57.000Z</time>
      </trkpt>
      <trkpt lat="43.61665" lon="6.86648">
        <ele>246</ele>
        <time>2019-02-07T09:57:58.000Z</time>
      </trkpt>
      <trkpt lat="43.61666" lon="6.86648">
        <ele>246</ele>
        <time>2019-02-07T09:57:59.000Z</time>
      </trkpt>
      <trkpt lat="43.61667" lon="6.86648">
        <ele>246</ele>
        <time>2019-02-07T09:58:00.000Z</time>
      </trkpt>
      <trkpt lat="43.61668" lon="6.86648">
        <ele>246</ele>
        <time>2019-02-07T09:58:01.000Z</time>
      </trkpt>
      <trkpt lat="43.61668" lon="6.86648">
        <ele>246</ele>
        <time>2019-02-07T09:58:02.000Z</time>
      </trkpt>
      <trkpt lat="43.61669" lon="6.86649">
        <ele>246</ele>
        <time>2019-02-07T09:58:03.000Z</time>
      </trkpt>
      <trkpt lat="43.6167" lon="6.86649">
        <ele>246</ele>
        <time>2019-02-07T09:58:04.000Z</time>
      </trkpt>
      <trkpt lat="43.61671" lon="6.86649">
        <ele>247</ele>
        <time>2019-02-07T09:58:05.000Z</time>
      </trkpt>
      <trkpt lat="43.61672" lon="6.86649">
        <ele>247</ele>
        <time>2019-02-07T09:58:06.000Z</time>
      </trkpt>
      <trkpt lat="43.61674" lon="6.86649">
        <ele>247</ele>
        <time>2019-02-07T09:58:07.000Z</time>
      </trkpt>
      <trkpt lat="43.61675" lon="6.86649">
        <ele>247</ele>
        <time>2019-02-07T09:58:08.000Z</time>
      </trkpt>
      <trkpt lat="43.61676" lon="6.86649">
        <ele>247</ele>
        <time>2019-02-07T09:58:09.000Z</time>
      </trkpt>
      <trkpt lat="43.61677" lon="6.8665">
        <ele>246</ele>
        <time>2019-02-07T09:58:10.000Z</time>
      </trkpt>
      <trkpt lat="43.61678" lon="6.8665">
        <ele>246</ele>
        <time>2019-02-07T09:58:11.000Z</time>
      </trkpt>
      <trkpt lat="43.6168" lon="6.8665">
        <ele>246</ele>
        <time>2019-02-07T09:58:12.000Z</time>
      </trkpt>
      <trkpt lat="43.61681" lon="6.8665">
        <ele>246</ele>
        <time>2019-02-07T09:58:13.000Z</time>
      </trkpt>
      <trkpt lat="43.61682" lon="6.8665">
        <ele>246</ele>
        <time>2019-02-07T09:58:14.000Z</time>
      </trkpt>
      <trkpt lat="43.61683" lon="6.8665">
        <ele>246</ele>
        <time>2019-02-07T09:58:15.000Z</time>
      </trkpt>
      <trkpt lat="43.61684" lon="6.8665">
        <ele>246</ele>
        <time>2019-02-07T09:58:16.000Z</time>
      </trkpt>
      <trkpt lat="43.61686" lon="6.8665">
        <ele>246</ele>
        <time>2019-02-07T09:58:17.000Z</time>
      </trkpt>
      <trkpt lat="43.61687" lon="6.8665">
        <ele>246</ele>
        <time>2019-02-07T09:58:18.000Z</time>
      </trkpt>
      <trkpt lat="43.61689" lon="6.8665">
        <ele>246</ele>
        <time>2019-02-07T09:58:19.000Z</time>
      </trkpt>
      <trkpt lat="43.6169" lon="6.8665">
        <ele>246</ele>
        <time>2019-02-07T09:58:20.000Z</time>
      </trkpt>
      <trkpt lat="43.61692" lon="6.8665">
        <ele>246</ele>
        <time>2019-02-07T09:58:21.000Z</time>
      </trkpt>
      <trkpt lat="43.61693" lon="6.8665">
        <ele>246</ele>
        <time>2019-02-07T09:58:22.000Z</time>
      </trkpt>
      <trkpt lat="43.61694" lon="6.8665">
        <ele>246</ele>
        <time>2019-02-07T09:58:23.000Z</time>
      </trkpt>
      <trkpt lat="43.61696" lon="6.8665">
        <ele>246</ele>
        <time>2019-02-07T09:58:24.000Z</time>
      </trkpt>
      <trkpt lat="43.61697" lon="6.86649">
        <ele>246</ele>
        <time>2019-02-07T09:58:25.000Z</time>
      </trkpt>
      <trkpt lat="43.61698" lon="6.86649">
        <ele>246</ele>
        <time>2019-02-07T09:58:26.000Z</time>
      </trkpt>
      <trkpt lat="43.61699" lon="6.86649">
        <ele>246</ele>
        <time>2019-02-07T09:58:27.000Z</time>
      </trkpt>
      <trkpt lat="43.617" lon="6.86649">
        <ele>245</ele>
        <time>2019-02-07T09:58:28.000Z</time>
      </trkpt>
      <trkpt lat="43.61701" lon="6.86649">
        <ele>245</ele>
        <time>2019-02-07T09:58:29.000Z</time>
      </trkpt>
      <trkpt lat="43.61703" lon="6.86648">
        <ele>246</ele>
        <time>2019-02-07T09:58:30.000Z</time>
      </trkpt>
      <trkpt lat="43.61704" lon="6.86648">
        <ele>246</ele>
        <time>2019-02-07T09:58:31.000Z</time>
      </trkpt>
      <trkpt lat="43.61705" lon="6.86647">
        <ele>245</ele>
        <time>2019-02-07T09:58:32.000Z</time>
      </trkpt>
      <trkpt lat="43.61707" lon="6.86647">
        <ele>245</ele>
        <time>2019-02-07T09:58:33.000Z</time>
      </trkpt>
      <trkpt lat="43.61708" lon="6.86646">
        <ele>245</ele>
        <time>2019-02-07T09:58:34.000Z</time>
      </trkpt>
      <trkpt lat="43.61709" lon="6.86646">
        <ele>245</ele>
        <time>2019-02-07T09:58:35.000Z</time>
      </trkpt>
      <trkpt lat="43.6171" lon="6.86646">
        <ele>245</ele>
        <time>2019-02-07T09:58:36.000Z</time>
      </trkpt>
      <trkpt lat="43.61711" lon="6.86646">
        <ele>245</ele>
        <time>2019-02-07T09:58:37.000Z</time>
      </trkpt>
      <trkpt lat="43.61711" lon="6.86645">
        <ele>245</ele>
        <time>2019-02-07T09:58:38.000Z</time>
      </trkpt>
      <trkpt lat="43.61712" lon="6.86645">
        <ele>246</ele>
        <time>2019-02-07T09:58:39.000Z</time>
      </trkpt>
      <trkpt lat="43.61714" lon="6.86644">
        <ele>246</ele>
        <time>2019-02-07T09:58:40.000Z</time>
      </trkpt>
      <trkpt lat="43.61715" lon="6.86644">
        <ele>246</ele>
        <time>2019-02-07T09:58:41.000Z</time>
      </trkpt>
      <trkpt lat="43.61716" lon="6.86643">
        <ele>246</ele>
        <time>2019-02-07T09:58:42.000Z</time>
      </trkpt>
      <trkpt lat="43.61718" lon="6.86643">
        <ele>246</ele>
        <time>2019-02-07T09:58:43.000Z</time>
      </trkpt>
      <trkpt lat="43.61719" lon="6.86642">
        <ele>245</ele>
        <time>2019-02-07T09:58:44.000Z</time>
      </trkpt>
      <trkpt lat="43.6172" lon="6.86642">
        <ele>245</ele>
        <time>2019-02-07T09:58:45.000Z</time>
      </trkpt>
      <trkpt lat="43.61722" lon="6.86641">
        <ele>245</ele>
        <time>2019-02-07T09:58:46.000Z</time>
      </trkpt>
      <trkpt lat="43.61724" lon="6.8664">
        <ele>245</ele>
        <time>2019-02-07T09:58:47.000Z</time>
      </trkpt>
      <trkpt lat="43.61726" lon="6.86639">
        <ele>245</ele>
        <time>2019-02-07T09:58:48.000Z</time>
      </trkpt>
      <trkpt lat="43.61728" lon="6.86638">
        <ele>245</ele>
        <time>2019-02-07T09:58:49.000Z</time>
      </trkpt>
      <trkpt lat="43.6173" lon="6.86637">
        <ele>245</ele>
        <time>2019-02-07T09:58:50.000Z</time>
      </trkpt>
      <trkpt lat="43.61732" lon="6.86636">
        <ele>244</ele>
        <time>2019-02-07T09:58:51.000Z</time>
      </trkpt>
      <trkpt lat="43.61733" lon="6.86635">
        <ele>244</ele>
        <time>2019-02-07T09:58:52.000Z</time>
      </trkpt>
      <trkpt lat="43.61735" lon="6.86634">
        <ele>244</ele>
        <time>2019-02-07T09:58:53.000Z</time>
      </trkpt>
      <trkpt lat="43.61737" lon="6.86633">
        <ele>244</ele>
        <time>2019-02-07T09:58:54.000Z</time>
      </trkpt>
      <trkpt lat="43.61739" lon="6.86631">
        <ele>243</ele>
        <time>2019-02-07T09:58:55.000Z</time>
      </trkpt>
      <trkpt lat="43.61741" lon="6.8663">
        <ele>243</ele>
        <time>2019-02-07T09:58:56.000Z</time>
      </trkpt>
      <trkpt lat="43.61743" lon="6.86629">
        <ele>243</ele>
        <time>2019-02-07T09:58:57.000Z</time>
      </trkpt>
      <trkpt lat="43.61745" lon="6.86627">
        <ele>242</ele>
        <time>2019-02-07T09:58:58.000Z</time>
      </trkpt>
      <trkpt lat="43.61747" lon="6.86626">
        <ele>243</ele>
        <time>2019-02-07T09:58:59.000Z</time>
      </trkpt>
      <trkpt lat="43.61749" lon="6.86624">
        <ele>243</ele>
        <time>2019-02-07T09:59:00.000Z</time>
      </trkpt>
      <trkpt lat="43.61751" lon="6.86622">
        <ele>243</ele>
        <time>2019-02-07T09:59:01.000Z</time>
      </trkpt>
      <trkpt lat="43.61753" lon="6.8662">
        <ele>244</ele>
        <time>2019-02-07T09:59:02.000Z</time>
      </trkpt>
      <trkpt lat="43.61755" lon="6.86619">
        <ele>243</ele>
        <time>2019-02-07T09:59:03.000Z</time>
      </trkpt>
      <trkpt lat="43.61758" lon="6.86617">
        <ele>244</ele>
        <time>2019-02-07T09:59:04.000Z</time>
      </trkpt>
      <trkpt lat="43.61761" lon="6.86616">
        <ele>243</ele>
        <time>2019-02-07T09:59:05.000Z</time>
      </trkpt>
      <trkpt lat="43.61764" lon="6.86616">
        <ele>244</ele>
        <time>2019-02-07T09:59:06.000Z</time>
      </trkpt>
      <trkpt lat="43.61766" lon="6.86615">
        <ele>243</ele>
        <time>2019-02-07T09:59:07.000Z</time>
      </trkpt>
      <trkpt lat="43.61768" lon="6.86614">
        <ele>243</ele>
        <time>2019-02-07T09:59:08.000Z</time>
      </trkpt>
      <trkpt lat="43.6177" lon="6.86614">
        <ele>242</ele>
        <time>2019-02-07T09:59:09.000Z</time>
      </trkpt>
      <trkpt lat="43.61773" lon="6.86614">
        <ele>241</ele>
        <time>2019-02-07T09:59:10.000Z</time>
      </trkpt>
      <trkpt lat="43.61776" lon="6.86615">
        <ele>240</ele>
        <time>2019-02-07T09:59:11.000Z</time>
      </trkpt>
      <trkpt lat="43.61778" lon="6.86615">
        <ele>240</ele>
        <time>2019-02-07T09:59:12.000Z</time>
      </trkpt>
      <trkpt lat="43.61781" lon="6.86616">
        <ele>240</ele>
        <time>2019-02-07T09:59:13.000Z</time>
      </trkpt>
      <trkpt lat="43.61783" lon="6.86617">
        <ele>240</ele>
        <time>2019-02-07T09:59:14.000Z</time>
      </trkpt>
      <trkpt lat="43.61786" lon="6.86618">
        <ele>240</ele>
        <time>2019-02-07T09:59:15.000Z</time>
      </trkpt>
      <trkpt lat="43.61789" lon="6.86619">
        <ele>240</ele>
        <time>2019-02-07T09:59:16.000Z</time>
      </trkpt>
      <trkpt lat="43.61791" lon="6.8662">
        <ele>240</ele>
        <time>2019-02-07T09:59:17.000Z</time>
      </trkpt>
      <trkpt lat="43.61793" lon="6.86621">
        <ele>241</ele>
        <time>2019-02-07T09:59:18.000Z</time>
      </trkpt>
      <trkpt lat="43.61795" lon="6.86622">
        <ele>241</ele>
        <time>2019-02-07T09:59:19.000Z</time>
      </trkpt>
      <trkpt lat="43.61797" lon="6.86622">
        <ele>241</ele>
        <time>2019-02-07T09:59:20.000Z</time>
      </trkpt>
      <trkpt lat="43.618" lon="6.86623">
        <ele>242</ele>
        <time>2019-02-07T09:59:21.000Z</time>
      </trkpt>
      <trkpt lat="43.61802" lon="6.86624">
        <ele>241</ele>
        <time>2019-02-07T09:59:22.000Z</time>
      </trkpt>
      <trkpt lat="43.61804" lon="6.86625">
        <ele>241</ele>
        <time>2019-02-07T09:59:23.000Z</time>
      </trkpt>
      <trkpt lat="43.61807" lon="6.86626">
        <ele>242</ele>
        <time>2019-02-07T09:59:24.000Z</time>
      </trkpt>
      <trkpt lat="43.6181" lon="6.86626">
        <ele>242</ele>
        <time>2019-02-07T09:59:25.000Z</time>
      </trkpt>
      <trkpt lat="43.61813" lon="6.86627">
        <ele>242</ele>
        <time>2019-02-07T09:59:26.000Z</time>
      </trkpt>
      <trkpt lat="43.61815" lon="6.86627">
        <ele>242</ele>
        <time>2019-02-07T09:59:27.000Z</time>
      </trkpt>
      <trkpt lat="43.61818" lon="6.86627">
        <ele>242</ele>
        <time>2019-02-07T09:59:28.000Z</time>
      </trkpt>
      <trkpt lat="43.6182" lon="6.86627">
        <ele>242</ele>
        <time>2019-02-07T09:59:29.000Z</time>
      </trkpt>
      <trkpt lat="43.61823" lon="6.86627">
        <ele>242</ele>
        <time>2019-02-07T09:59:30.000Z</time>
      </trkpt>
      <trkpt lat="43.61826" lon="6.86627">
        <ele>242</ele>
        <time>2019-02-07T09:59:31.000Z</time>
      </trkpt>
      <trkpt lat="43.61829" lon="6.86626">
        <ele>241</ele>
        <time>2019-02-07T09:59:32.000Z</time>
      </trkpt>
      <trkpt lat="43.61831" lon="6.86624">
        <ele>241</ele>
        <time>2019-02-07T09:59:33.000Z</time>
      </trkpt>
      <trkpt lat="43.61834" lon="6.86623">
        <ele>240</ele>
        <time>2019-02-07T09:59:34.000Z</time>
      </trkpt>
      <trkpt lat="43.61836" lon="6.86622">
        <ele>240</ele>
        <time>2019-02-07T09:59:35.000Z</time>
      </trkpt>
      <trkpt lat="43.61838" lon="6.86621">
        <ele>241</ele>
        <time>2019-02-07T09:59:36.000Z</time>
      </trkpt>
      <trkpt lat="43.6184" lon="6.86619">
        <ele>241</ele>
        <time>2019-02-07T09:59:37.000Z</time>
      </trkpt>
      <trkpt lat="43.61842" lon="6.86618">
        <ele>241</ele>
        <time>2019-02-07T09:59:38.000Z</time>
      </trkpt>
      <trkpt lat="43.61844" lon="6.86617">
        <ele>241</ele>
        <time>2019-02-07T09:59:39.000Z</time>
      </trkpt>
      <trkpt lat="43.61846" lon="6.86616">
        <ele>241</ele>
        <time>2019-02-07T09:59:40.000Z</time>
      </trkpt>
      <trkpt lat="43.61848" lon="6.86615">
        <ele>242</ele>
        <time>2019-02-07T09:59:41.000Z</time>
      </trkpt>
      <trkpt lat="43.61851" lon="6.86614">
        <ele>242</ele>
        <time>2019-02-07T09:59:42.000Z</time>
      </trkpt>
      <trkpt lat="43.61853" lon="6.86612">
        <ele>241</ele>
        <time>2019-02-07T09:59:43.000Z</time>
      </trkpt>
      <trkpt lat="43.61856" lon="6.86611">
        <ele>242</ele>
        <time>2019-02-07T09:59:44.000Z</time>
      </trkpt>
      <trkpt lat="43.61858" lon="6.8661">
        <ele>242</ele>
        <time>2019-02-07T09:59:45.000Z</time>
      </trkpt>
      <trkpt lat="43.6186" lon="6.86609">
        <ele>242</ele>
        <time>2019-02-07T09:59:46.000Z</time>
      </trkpt>
      <trkpt lat="43.61863" lon="6.86608">
        <ele>242</ele>
        <time>2019-02-07T09:59:47.000Z</time>
      </trkpt>
      <trkpt lat="43.61865" lon="6.86607">
        <ele>242</ele>
        <time>2019-02-07T09:59:48.000Z</time>
      </trkpt>
      <trkpt lat="43.61868" lon="6.86606">
        <ele>242</ele>
        <time>2019-02-07T09:59:49.000Z</time>
      </trkpt>
      <trkpt lat="43.6187" lon="6.86604">
        <ele>242</ele>
        <time>2019-02-07T09:59:50.000Z</time>
      </trkpt>
      <trkpt lat="43.61872" lon="6.86603">
        <ele>242</ele>
        <time>2019-02-07T09:59:51.000Z</time>
      </trkpt>
      <trkpt lat="43.61874" lon="6.86602">
        <ele>242</ele>
        <time>2019-02-07T09:59:52.000Z</time>
      </trkpt>
      <trkpt lat="43.61876" lon="6.86601">
        <ele>242</ele>
        <time>2019-02-07T09:59:53.000Z</time>
      </trkpt>
      <trkpt lat="43.61878" lon="6.866">
        <ele>242</ele>
        <time>2019-02-07T09:59:54.000Z</time>
      </trkpt>
      <trkpt lat="43.6188" lon="6.86599">
        <ele>243</ele>
        <time>2019-02-07T09:59:55.000Z</time>
      </trkpt>
      <trkpt lat="43.61882" lon="6.86598">
        <ele>242</ele>
        <time>2019-02-07T09:59:56.000Z</time>
      </trkpt>
      <trkpt lat="43.61884" lon="6.86597">
        <ele>242</ele>
        <time>2019-02-07T09:59:57.000Z</time>
      </trkpt>
      <trkpt lat="43.61886" lon="6.86596">
        <ele>243</ele>
        <time>2019-02-07T09:59:58.000Z</time>
      </trkpt>
      <trkpt lat="43.61888" lon="6.86595">
        <ele>243</ele>
        <time>2019-02-07T09:59:59.000Z</time>
      </trkpt>
      <trkpt lat="43.61891" lon="6.86594">
        <ele>243</ele>
        <time>2019-02-07T10:00:00.000Z</time>
      </trkpt>
      <trkpt lat="43.61893" lon="6.86593">
        <ele>243</ele>
        <time>2019-02-07T10:00:01.000Z</time>
      </trkpt>
      <trkpt lat="43.61896" lon="6.86592">
        <ele>243</ele>
        <time>2019-02-07T10:00:02.000Z</time>
      </trkpt>
      <trkpt lat="43.61898" lon="6.86591">
        <ele>244</ele>
        <time>2019-02-07T10:00:03.000Z</time>
      </trkpt>
      <trkpt lat="43.61901" lon="6.86589">
        <ele>245</ele>
        <time>2019-02-07T10:00:04.000Z</time>
      </trkpt>
      <trkpt lat="43.61903" lon="6.86589">
        <ele>245</ele>
        <time>2019-02-07T10:00:05.000Z</time>
      </trkpt>
      <trkpt lat="43.61906" lon="6.86588">
        <ele>245</ele>
        <time>2019-02-07T10:00:06.000Z</time>
      </trkpt>
      <trkpt lat="43.61908" lon="6.86587">
        <ele>246</ele>
        <time>2019-02-07T10:00:07.000Z</time>
      </trkpt>
      <trkpt lat="43.6191" lon="6.86586">
        <ele>246</ele>
        <time>2019-02-07T10:00:08.000Z</time>
      </trkpt>
      <trkpt lat="43.61912" lon="6.86585">
        <ele>247</ele>
        <time>2019-02-07T10:00:09.000Z</time>
      </trkpt>
      <trkpt lat="43.61913" lon="6.86583">
        <ele>247</ele>
        <time>2019-02-07T10:00:10.000Z</time>
      </trkpt>
      <trkpt lat="43.61915" lon="6.86582">
        <ele>247</ele>
        <time>2019-02-07T10:00:11.000Z</time>
      </trkpt>
      <trkpt lat="43.61917" lon="6.86581">
        <ele>248</ele>
        <time>2019-02-07T10:00:12.000Z</time>
      </trkpt>
      <trkpt lat="43.61919" lon="6.8658">
        <ele>248</ele>
        <time>2019-02-07T10:00:13.000Z</time>
      </trkpt>
      <trkpt lat="43.61921" lon="6.86579">
        <ele>248</ele>
        <time>2019-02-07T10:00:14.000Z</time>
      </trkpt>
      <trkpt lat="43.61923" lon="6.86578">
        <ele>247</ele>
        <time>2019-02-07T10:00:15.000Z</time>
      </trkpt>
      <trkpt lat="43.61924" lon="6.86577">
        <ele>247</ele>
        <time>2019-02-07T10:00:16.000Z</time>
      </trkpt>
      <trkpt lat="43.61926" lon="6.86576">
        <ele>247</ele>
        <time>2019-02-07T10:00:17.000Z</time>
      </trkpt>
      <trkpt lat="43.61928" lon="6.86575">
        <ele>247</ele>
        <time>2019-02-07T10:00:18.000Z</time>
      </trkpt>
      <trkpt lat="43.6193" lon="6.86574">
        <ele>247</ele>
        <time>2019-02-07T10:00:19.000Z</time>
      </trkpt>
      <trkpt lat="43.61932" lon="6.86573">
        <ele>246</ele>
        <time>2019-02-07T10:00:20.000Z</time>
      </trkpt>
      <trkpt lat="43.61933" lon="6.86571">
        <ele>247</ele>
        <time>2019-02-07T10:00:21.000Z</time>
      </trkpt>
      <trkpt lat="43.61934" lon="6.86569">
        <ele>248</ele>
        <time>2019-02-07T10:00:22.000Z</time>
      </trkpt>
      <trkpt lat="43.61935" lon="6.86566">
        <ele>249</ele>
        <time>2019-02-07T10:00:23.000Z</time>
      </trkpt>
      <trkpt lat="43.61935" lon="6.86563">
        <ele>250</ele>
        <time>2019-02-07T10:00:24.000Z</time>
      </trkpt>
      <trkpt lat="43.61935" lon="6.86559">
        <ele>251</ele>
        <time>2019-02-07T10:00:25.000Z</time>
      </trkpt>
      <trkpt lat="43.61934" lon="6.86556">
        <ele>250</ele>
        <time>2019-02-07T10:00:26.000Z</time>
      </trkpt>
      <trkpt lat="43.61933" lon="6.86554">
        <ele>248</ele>
        <time>2019-02-07T10:00:27.000Z</time>
      </trkpt>
      <trkpt lat="43.61933" lon="6.86552">
        <ele>247</ele>
        <time>2019-02-07T10:00:28.000Z</time>
      </trkpt>
      <trkpt lat="43.61932" lon="6.86551">
        <ele>247</ele>
        <time>2019-02-07T10:00:29.000Z</time>
      </trkpt>
      <trkpt lat="43.61931" lon="6.86549">
        <ele>247</ele>
        <time>2019-02-07T10:00:30.000Z</time>
      </trkpt>
      <trkpt lat="43.6193" lon="6.86547">
        <ele>248</ele>
        <time>2019-02-07T10:00:31.000Z</time>
      </trkpt>
      <trkpt lat="43.6193" lon="6.86544">
        <ele>248</ele>
        <time>2019-02-07T10:00:32.000Z</time>
      </trkpt>
      <trkpt lat="43.6193" lon="6.86542">
        <ele>248</ele>
        <time>2019-02-07T10:00:33.000Z</time>
      </trkpt>
      <trkpt lat="43.6193" lon="6.8654">
        <ele>248</ele>
        <time>2019-02-07T10:00:34.000Z</time>
      </trkpt>
      <trkpt lat="43.6193" lon="6.86538">
        <ele>248</ele>
        <time>2019-02-07T10:00:35.000Z</time>
      </trkpt>
      <trkpt lat="43.61931" lon="6.86537">
        <ele>248</ele>
        <time>2019-02-07T10:00:36.000Z</time>
      </trkpt>
      <trkpt lat="43.61932" lon="6.86535">
        <ele>248</ele>
        <time>2019-02-07T10:00:37.000Z</time>
      </trkpt>
      <trkpt lat="43.61933" lon="6.86534">
        <ele>249</ele>
        <time>2019-02-07T10:00:38.000Z</time>
      </trkpt>
      <trkpt lat="43.61934" lon="6.86532">
        <ele>249</ele>
        <time>2019-02-07T10:00:39.000Z</time>
      </trkpt>
      <trkpt lat="43.61935" lon="6.86531">
        <ele>249</ele>
        <time>2019-02-07T10:00:40.000Z</time>
      </trkpt>
      <trkpt lat="43.61936" lon="6.8653">
        <ele>249</ele>
        <time>2019-02-07T10:00:41.000Z</time>
      </trkpt>
      <trkpt lat="43.61937" lon="6.86529">
        <ele>249</ele>
        <time>2019-02-07T10:00:42.000Z</time>
      </trkpt>
      <trkpt lat="43.61938" lon="6.86528">
        <ele>249</ele>
        <time>2019-02-07T10:00:43.000Z</time>
      </trkpt>
      <trkpt lat="43.61939" lon="6.86527">
        <ele>249</ele>
        <time>2019-02-07T10:00:44.000Z</time>
      </trkpt>
      <trkpt lat="43.61941" lon="6.86526">
        <ele>249</ele>
        <time>2019-02-07T10:00:45.000Z</time>
      </trkpt>
      <trkpt lat="43.61942" lon="6.86525">
        <ele>250</ele>
        <time>2019-02-07T10:00:46.000Z</time>
      </trkpt>
      <trkpt lat="43.61943" lon="6.86524">
        <ele>250</ele>
        <time>2019-02-07T10:00:47.000Z</time>
      </trkpt>
      <trkpt lat="43.61944" lon="6.86524">
        <ele>249</ele>
        <time>2019-02-07T10:00:48.000Z</time>
      </trkpt>
      <trkpt lat="43.61946" lon="6.86523">
        <ele>249</ele>
        <time>2019-02-07T10:00:49.000Z</time>
      </trkpt>
      <trkpt lat="43.61947" lon="6.86522">
        <ele>249</ele>
        <time>2019-02-07T10:00:50.000Z</time>
      </trkpt>
      <trkpt lat="43.61948" lon="6.8652">
        <ele>248</ele>
        <time>2019-02-07T10:00:51.000Z</time>
      </trkpt>
      <trkpt lat="43.61949" lon="6.86519">
        <ele>248</ele>
        <time>2019-02-07T10:00:52.000Z</time>
      </trkpt>
      <trkpt lat="43.6195" lon="6.86517">
        <ele>248</ele>
        <time>2019-02-07T10:00:53.000Z</time>
      </trkpt>
      <trkpt lat="43.61952" lon="6.86515">
        <ele>248</ele>
        <time>2019-02-07T10:00:54.000Z</time>
      </trkpt>
      <trkpt lat="43.61952" lon="6.86514">
        <ele>248</ele>
        <time>2019-02-07T10:00:55.000Z</time>
      </trkpt>
      <trkpt lat="43.61953" lon="6.86512">
        <ele>248</ele>
        <time>2019-02-07T10:00:56.000Z</time>
      </trkpt>
      <trkpt lat="43.61954" lon="6.8651">
        <ele>248</ele>
        <time>2019-02-07T10:00:57.000Z</time>
      </trkpt>
      <trkpt lat="43.61955" lon="6.86508">
        <ele>248</ele>
        <time>2019-02-07T10:00:58.000Z</time>
      </trkpt>
      <trkpt lat="43.61956" lon="6.86506">
        <ele>249</ele>
        <time>2019-02-07T10:00:59.000Z</time>
      </trkpt>
      <trkpt lat="43.61958" lon="6.86503">
        <ele>249</ele>
        <time>2019-02-07T10:01:00.000Z</time>
      </trkpt>
      <trkpt lat="43.61959" lon="6.86501">
        <ele>249</ele>
        <time>2019-02-07T10:01:01.000Z</time>
      </trkpt>
      <trkpt lat="43.6196" lon="6.86499">
        <ele>250</ele>
        <time>2019-02-07T10:01:02.000Z</time>
      </trkpt>
      <trkpt lat="43.6196" lon="6.86497">
        <ele>250</ele>
        <time>2019-02-07T10:01:03.000Z</time>
      </trkpt>
      <trkpt lat="43.61961" lon="6.86495">
        <ele>251</ele>
        <time>2019-02-07T10:01:04.000Z</time>
      </trkpt>
      <trkpt lat="43.61962" lon="6.86494">
        <ele>251</ele>
        <time>2019-02-07T10:01:05.000Z</time>
      </trkpt>
      <trkpt lat="43.61963" lon="6.86492">
        <ele>251</ele>
        <time>2019-02-07T10:01:06.000Z</time>
      </trkpt>
      <trkpt lat="43.61964" lon="6.8649">
        <ele>251</ele>
        <time>2019-02-07T10:01:07.000Z</time>
      </trkpt>
      <trkpt lat="43.61965" lon="6.86488">
        <ele>251</ele>
        <time>2019-02-07T10:01:08.000Z</time>
      </trkpt>
      <trkpt lat="43.61966" lon="6.86486">
        <ele>252</ele>
        <time>2019-02-07T10:01:09.000Z</time>
      </trkpt>
      <trkpt lat="43.61967" lon="6.86483">
        <ele>252</ele>
        <time>2019-02-07T10:01:10.000Z</time>
      </trkpt>
      <trkpt lat="43.61968" lon="6.86482">
        <ele>253</ele>
        <time>2019-02-07T10:01:11.000Z</time>
      </trkpt>
      <trkpt lat="43.61969" lon="6.8648">
        <ele>253</ele>
        <time>2019-02-07T10:01:12.000Z</time>
      </trkpt>
      <trkpt lat="43.6197" lon="6.86478">
        <ele>253</ele>
        <time>2019-02-07T10:01:13.000Z</time>
      </trkpt>
      <trkpt lat="43.61971" lon="6.86476">
        <ele>253</ele>
        <time>2019-02-07T10:01:14.000Z</time>
      </trkpt>
      <trkpt lat="43.61972" lon="6.86474">
        <ele>253</ele>
        <time>2019-02-07T10:01:15.000Z</time>
      </trkpt>
      <trkpt lat="43.61973" lon="6.86472">
        <ele>254</ele>
        <time>2019-02-07T10:01:16.000Z</time>
      </trkpt>
      <trkpt lat="43.61974" lon="6.8647">
        <ele>254</ele>
        <time>2019-02-07T10:01:17.000Z</time>
      </trkpt>
      <trkpt lat="43.61975" lon="6.86468">
        <ele>254</ele>
        <time>2019-02-07T10:01:18.000Z</time>
      </trkpt>
      <trkpt lat="43.61976" lon="6.86467">
        <ele>254</ele>
        <time>2019-02-07T10:01:19.000Z</time>
      </trkpt>
      <trkpt lat="43.61977" lon="6.86465">
        <ele>254</ele>
        <time>2019-02-07T10:01:20.000Z</time>
      </trkpt>
      <trkpt lat="43.61979" lon="6.86463">
        <ele>254</ele>
        <time>2019-02-07T10:01:21.000Z</time>
      </trkpt>
      <trkpt lat="43.6198" lon="6.8646">
        <ele>254</ele>
        <time>2019-02-07T10:01:22.000Z</time>
      </trkpt>
      <trkpt lat="43.61981" lon="6.86458">
        <ele>255</ele>
        <time>2019-02-07T10:01:23.000Z</time>
      </trkpt>
      <trkpt lat="43.61983" lon="6.86456">
        <ele>254</ele>
        <time>2019-02-07T10:01:24.000Z</time>
      </trkpt>
      <trkpt lat="43.61984" lon="6.86454">
        <ele>254</ele>
        <time>2019-02-07T10:01:25.000Z</time>
      </trkpt>
      <trkpt lat="43.61985" lon="6.86452">
        <ele>254</ele>
        <time>2019-02-07T10:01:26.000Z</time>
      </trkpt>
      <trkpt lat="43.61986" lon="6.8645">
        <ele>255</ele>
        <time>2019-02-07T10:01:27.000Z</time>
      </trkpt>
      <trkpt lat="43.61988" lon="6.86448">
        <ele>255</ele>
        <time>2019-02-07T10:01:28.000Z</time>
      </trkpt>
      <trkpt lat="43.61989" lon="6.86446">
        <ele>255</ele>
        <time>2019-02-07T10:01:29.000Z</time>
      </trkpt>
      <trkpt lat="43.6199" lon="6.86444">
        <ele>255</ele>
        <time>2019-02-07T10:01:30.000Z</time>
      </trkpt>
      <trkpt lat="43.61991" lon="6.86441">
        <ele>255</ele>
        <time>2019-02-07T10:01:31.000Z</time>
      </trkpt>
      <trkpt lat="43.61993" lon="6.86439">
        <ele>255</ele>
        <time>2019-02-07T10:01:32.000Z</time>
      </trkpt>
      <trkpt lat="43.61994" lon="6.86437">
        <ele>256</ele>
        <time>2019-02-07T10:01:33.000Z</time>
      </trkpt>
      <trkpt lat="43.61995" lon="6.86435">
        <ele>255</ele>
        <time>2019-02-07T10:01:34.000Z</time>
      </trkpt>
      <trkpt lat="43.61996" lon="6.86433">
        <ele>255</ele>
        <time>2019-02-07T10:01:35.000Z</time>
      </trkpt>
      <trkpt lat="43.61998" lon="6.86432">
        <ele>255</ele>
        <time>2019-02-07T10:01:36.000Z</time>
      </trkpt>
      <trkpt lat="43.61999" lon="6.8643">
        <ele>255</ele>
        <time>2019-02-07T10:01:37.000Z</time>
      </trkpt>
      <trkpt lat="43.62" lon="6.86428">
        <ele>255</ele>
        <time>2019-02-07T10:01:38.000Z</time>
      </trkpt>
      <trkpt lat="43.62001" lon="6.86426">
        <ele>256</ele>
        <time>2019-02-07T10:01:39.000Z</time>
      </trkpt>
      <trkpt lat="43.62002" lon="6.86423">
        <ele>256</ele>
        <time>2019-02-07T10:01:40.000Z</time>
      </trkpt>
      <trkpt lat="43.62003" lon="6.86421">
        <ele>256</ele>
        <time>2019-02-07T10:01:41.000Z</time>
      </trkpt>
      <trkpt lat="43.62004" lon="6.86419">
        <ele>256</ele>
        <time>2019-02-07T10:01:42.000Z</time>
      </trkpt>
      <trkpt lat="43.62005" lon="6.86416">
        <ele>256</ele>
        <time>2019-02-07T10:01:43.000Z</time>
      </trkpt>
      <trkpt lat="43.62006" lon="6.86414">
        <ele>256</ele>
        <time>2019-02-07T10:01:44.000Z</time>
      </trkpt>
      <trkpt lat="43.62006" lon="6.86411">
        <ele>257</ele>
        <time>2019-02-07T10:01:45.000Z</time>
      </trkpt>
      <trkpt lat="43.62007" lon="6.86409">
        <ele>257</ele>
        <time>2019-02-07T10:01:46.000Z</time>
      </trkpt>
      <trkpt lat="43.62007" lon="6.86406">
        <ele>257</ele>
        <time>2019-02-07T10:01:47.000Z</time>
      </trkpt>
      <trkpt lat="43.62008" lon="6.86404">
        <ele>257</ele>
        <time>2019-02-07T10:01:48.000Z</time>
      </trkpt>
      <trkpt lat="43.62008" lon="6.86401">
        <ele>256</ele>
        <time>2019-02-07T10:01:49.000Z</time>
      </trkpt>
      <trkpt lat="43.62008" lon="6.86399">
        <ele>256</ele>
        <time>2019-02-07T10:01:50.000Z</time>
      </trkpt>
      <trkpt lat="43.62009" lon="6.86398">
        <ele>255</ele>
        <time>2019-02-07T10:01:51.000Z</time>
      </trkpt>
      <trkpt lat="43.62009" lon="6.86396">
        <ele>255</ele>
        <time>2019-02-07T10:01:52.000Z</time>
      </trkpt>
      <trkpt lat="43.62009" lon="6.86395">
        <ele>255</ele>
        <time>2019-02-07T10:01:53.000Z</time>
      </trkpt>
      <trkpt lat="43.62009" lon="6.86393">
        <ele>256</ele>
        <time>2019-02-07T10:01:54.000Z</time>
      </trkpt>
      <trkpt lat="43.62009" lon="6.86391">
        <ele>255</ele>
        <time>2019-02-07T10:01:55.000Z</time>
      </trkpt>
      <trkpt lat="43.62009" lon="6.86389">
        <ele>256</ele>
        <time>2019-02-07T10:01:56.000Z</time>
      </trkpt>
      <trkpt lat="43.62009" lon="6.86387">
        <ele>255</ele>
        <time>2019-02-07T10:01:57.000Z</time>
      </trkpt>
      <trkpt lat="43.62009" lon="6.86386">
        <ele>255</ele>
        <time>2019-02-07T10:01:58.000Z</time>
      </trkpt>
      <trkpt lat="43.62009" lon="6.86384">
        <ele>255</ele>
        <time>2019-02-07T10:01:59.000Z</time>
      </trkpt>
      <trkpt lat="43.62009" lon="6.86382">
        <ele>255</ele>
        <time>2019-02-07T10:02:00.000Z</time>
      </trkpt>
      <trkpt lat="43.62009" lon="6.86381">
        <ele>255</ele>
        <time>2019-02-07T10:02:01.000Z</time>
      </trkpt>
      <trkpt lat="43.62008" lon="6.86379">
        <ele>255</ele>
        <time>2019-02-07T10:02:02.000Z</time>
      </trkpt>
      <trkpt lat="43.62008" lon="6.86377">
        <ele>255</ele>
        <time>2019-02-07T10:02:03.000Z</time>
      </trkpt>
      <trkpt lat="43.62008" lon="6.86376">
        <ele>255</ele>
        <time>2019-02-07T10:02:04.000Z</time>
      </trkpt>
      <trkpt lat="43.62008" lon="6.86374">
        <ele>255</ele>
        <time>2019-02-07T10:02:05.000Z</time>
      </trkpt>
      <trkpt lat="43.62008" lon="6.86372">
        <ele>255</ele>
        <time>2019-02-07T10:02:06.000Z</time>
      </trkpt>
      <trkpt lat="43.62008" lon="6.8637">
        <ele>255</ele>
        <time>2019-02-07T10:02:07.000Z</time>
      </trkpt>
      <trkpt lat="43.62007" lon="6.86369">
        <ele>254</ele>
        <time>2019-02-07T10:02:08.000Z</time>
      </trkpt>
      <trkpt lat="43.62007" lon="6.86367">
        <ele>254</ele>
        <time>2019-02-07T10:02:09.000Z</time>
      </trkpt>
      <trkpt lat="43.62007" lon="6.86366">
        <ele>254</ele>
        <time>2019-02-07T10:02:10.000Z</time>
      </trkpt>
      <trkpt lat="43.62007" lon="6.86364">
        <ele>254</ele>
        <time>2019-02-07T10:02:11.000Z</time>
      </trkpt>
      <trkpt lat="43.62007" lon="6.86362">
        <ele>253</ele>
        <time>2019-02-07T10:02:12.000Z</time>
      </trkpt>
      <trkpt lat="43.62007" lon="6.8636">
        <ele>254</ele>
        <time>2019-02-07T10:02:13.000Z</time>
      </trkpt>
      <trkpt lat="43.62007" lon="6.86358">
        <ele>254</ele>
        <time>2019-02-07T10:02:14.000Z</time>
      </trkpt>
      <trkpt lat="43.62007" lon="6.86356">
        <ele>254</ele>
        <time>2019-02-07T10:02:15.000Z</time>
      </trkpt>
      <trkpt lat="43.62007" lon="6.86354">
        <ele>254</ele>
        <time>2019-02-07T10:02:16.000Z</time>
      </trkpt>
      <trkpt lat="43.62007" lon="6.86352">
        <ele>254</ele>
        <time>2019-02-07T10:02:17.000Z</time>
      </trkpt>
      <trkpt lat="43.62007" lon="6.8635">
        <ele>254</ele>
        <time>2019-02-07T10:02:18.000Z</time>
      </trkpt>
      <trkpt lat="43.62007" lon="6.86348">
        <ele>254</ele>
        <time>2019-02-07T10:02:19.000Z</time>
      </trkpt>
      <trkpt lat="43.62007" lon="6.86346">
        <ele>254</ele>
        <time>2019-02-07T10:02:20.000Z</time>
      </trkpt>
      <trkpt lat="43.62007" lon="6.86344">
        <ele>254</ele>
        <time>2019-02-07T10:02:21.000Z</time>
      </trkpt>
      <trkpt lat="43.62007" lon="6.86343">
        <ele>254</ele>
        <time>2019-02-07T10:02:22.000Z</time>
      </trkpt>
      <trkpt lat="43.62007" lon="6.86341">
        <ele>254</ele>
        <time>2019-02-07T10:02:23.000Z</time>
      </trkpt>
      <trkpt lat="43.62007" lon="6.86339">
        <ele>253</ele>
        <time>2019-02-07T10:02:24.000Z</time>
      </trkpt>
      <trkpt lat="43.62007" lon="6.86337">
        <ele>253</ele>
        <time>2019-02-07T10:02:25.000Z</time>
      </trkpt>
      <trkpt lat="43.62007" lon="6.86335">
        <ele>253</ele>
        <time>2019-02-07T10:02:26.000Z</time>
      </trkpt>
      <trkpt lat="43.62006" lon="6.86333">
        <ele>253</ele>
        <time>2019-02-07T10:02:27.000Z</time>
      </trkpt>
      <trkpt lat="43.62006" lon="6.86331">
        <ele>254</ele>
        <time>2019-02-07T10:02:28.000Z</time>
      </trkpt>
      <trkpt lat="43.62005" lon="6.86329">
        <ele>254</ele>
        <time>2019-02-07T10:02:29.000Z</time>
      </trkpt>
      <trkpt lat="43.62005" lon="6.86327">
        <ele>254</ele>
        <time>2019-02-07T10:02:30.000Z</time>
      </trkpt>
      <trkpt lat="43.62005" lon="6.86325">
        <ele>253</ele>
        <time>2019-02-07T10:02:31.000Z</time>
      </trkpt>
      <trkpt lat="43.62005" lon="6.86324">
        <ele>253</ele>
        <time>2019-02-07T10:02:32.000Z</time>
      </trkpt>
      <trkpt lat="43.62005" lon="6.86322">
        <ele>253</ele>
        <time>2019-02-07T10:02:33.000Z</time>
      </trkpt>
      <trkpt lat="43.62005" lon="6.8632">
        <ele>253</ele>
        <time>2019-02-07T10:02:34.000Z</time>
      </trkpt>
      <trkpt lat="43.62004" lon="6.86319">
        <ele>253</ele>
        <time>2019-02-07T10:02:35.000Z</time>
      </trkpt>
      <trkpt lat="43.62004" lon="6.86317">
        <ele>253</ele>
        <time>2019-02-07T10:02:36.000Z</time>
      </trkpt>
      <trkpt lat="43.62004" lon="6.86315">
        <ele>253</ele>
        <time>2019-02-07T10:02:37.000Z</time>
      </trkpt>
      <trkpt lat="43.62004" lon="6.86314">
        <ele>253</ele>
        <time>2019-02-07T10:02:38.000Z</time>
      </trkpt>
      <trkpt lat="43.62004" lon="6.86313">
        <ele>253</ele>
        <time>2019-02-07T10:02:39.000Z</time>
      </trkpt>
      <trkpt lat="43.62004" lon="6.86312">
        <ele>253</ele>
        <time>2019-02-07T10:02:40.000Z</time>
      </trkpt>
      <trkpt lat="43.62004" lon="6.86311">
        <ele>252</ele>
        <time>2019-02-07T10:02:41.000Z</time>
      </trkpt>
      <trkpt lat="43.62003" lon="6.8631">
        <ele>252</ele>
        <time>2019-02-07T10:02:42.000Z</time>
      </trkpt>
      <trkpt lat="43.62003" lon="6.86309">
        <ele>252</ele>
        <time>2019-02-07T10:02:43.000Z</time>
      </trkpt>
      <trkpt lat="43.62003" lon="6.86309">
        <ele>252</ele>
        <time>2019-02-07T10:02:44.000Z</time>
      </trkpt>
      <trkpt lat="43.62002" lon="6.86308">
        <ele>251</ele>
        <time>2019-02-07T10:02:45.000Z</time>
      </trkpt>
      <trkpt lat="43.62002" lon="6.86307">
        <ele>251</ele>
        <time>2019-02-07T10:02:46.000Z</time>
      </trkpt>
      <trkpt lat="43.62001" lon="6.86306">
        <ele>250</ele>
        <time>2019-02-07T10:02:47.000Z</time>
      </trkpt>
      <trkpt lat="43.62001" lon="6.86306">
        <ele>250</ele>
        <time>2019-02-07T10:02:48.000Z</time>
      </trkpt>
      <trkpt lat="43.62001" lon="6.86305">
        <ele>250</ele>
        <time>2019-02-07T10:02:49.000Z</time>
      </trkpt>
      <trkpt lat="43.62001" lon="6.86304">
        <ele>249</ele>
        <time>2019-02-07T10:02:50.000Z</time>
      </trkpt>
      <trkpt lat="43.62" lon="6.86302">
        <ele>249</ele>
        <time>2019-02-07T10:02:51.000Z</time>
      </trkpt>
      <trkpt lat="43.62" lon="6.86301">
        <ele>249</ele>
        <time>2019-02-07T10:02:52.000Z</time>
      </trkpt>
      <trkpt lat="43.62" lon="6.863">
        <ele>249</ele>
        <time>2019-02-07T10:02:53.000Z</time>
      </trkpt>
      <trkpt lat="43.62" lon="6.86299">
        <ele>248</ele>
        <time>2019-02-07T10:02:54.000Z</time>
      </trkpt>
      <trkpt lat="43.62" lon="6.86298">
        <ele>248</ele>
        <time>2019-02-07T10:02:55.000Z</time>
      </trkpt>
      <trkpt lat="43.62" lon="6.86297">
        <ele>247</ele>
        <time>2019-02-07T10:02:56.000Z</time>
      </trkpt>
      <trkpt lat="43.62" lon="6.86296">
        <ele>247</ele>
        <time>2019-02-07T10:02:57.000Z</time>
      </trkpt>
      <trkpt lat="43.62" lon="6.86295">
        <ele>246</ele>
        <time>2019-02-07T10:02:58.000Z</time>
      </trkpt>
      <trkpt lat="43.62" lon="6.86293">
        <ele>246</ele>
        <time>2019-02-07T10:02:59.000Z</time>
      </trkpt>
      <trkpt lat="43.62" lon="6.86292">
        <ele>245</ele>
        <time>2019-02-07T10:03:00.000Z</time>
      </trkpt>
      <trkpt lat="43.62" lon="6.86291">
        <ele>245</ele>
        <time>2019-02-07T10:03:01.000Z</time>
      </trkpt>
      <trkpt lat="43.62" lon="6.8629">
        <ele>245</ele>
        <time>2019-02-07T10:03:02.000Z</time>
      </trkpt>
      <trkpt lat="43.62" lon="6.86289">
        <ele>244</ele>
        <time>2019-02-07T10:03:03.000Z</time>
      </trkpt>
      <trkpt lat="43.61999" lon="6.86288">
        <ele>244</ele>
        <time>2019-02-07T10:03:04.000Z</time>
      </trkpt>
      <trkpt lat="43.61999" lon="6.86287">
        <ele>243</ele>
        <time>2019-02-07T10:03:05.000Z</time>
      </trkpt>
      <trkpt lat="43.61999" lon="6.86285">
        <ele>243</ele>
        <time>2019-02-07T10:03:06.000Z</time>
      </trkpt>
      <trkpt lat="43.61999" lon="6.86284">
        <ele>243</ele>
        <time>2019-02-07T10:03:07.000Z</time>
      </trkpt>
      <trkpt lat="43.61999" lon="6.86282">
        <ele>242</ele>
        <time>2019-02-07T10:03:08.000Z</time>
      </trkpt>
      <trkpt lat="43.61999" lon="6.86281">
        <ele>241</ele>
        <time>2019-02-07T10:03:09.000Z</time>
      </trkpt>
      <trkpt lat="43.61999" lon="6.8628">
        <ele>241</ele>
        <time>2019-02-07T10:03:10.000Z</time>
      </trkpt>
      <trkpt lat="43.61999" lon="6.86278">
        <ele>240</ele>
        <time>2019-02-07T10:03:11.000Z</time>
      </trkpt>
      <trkpt lat="43.61999" lon="6.86277">
        <ele>240</ele>
        <time>2019-02-07T10:03:12.000Z</time>
      </trkpt>
      <trkpt lat="43.62" lon="6.86276">
        <ele>239</ele>
        <time>2019-02-07T10:03:13.000Z</time>
      </trkpt>
      <trkpt lat="43.62" lon="6.86275">
        <ele>239</ele>
        <time>2019-02-07T10:03:14.000Z</time>
      </trkpt>
      <trkpt lat="43.62" lon="6.86274">
        <ele>238</ele>
        <time>2019-02-07T10:03:15.000Z</time>
      </trkpt>
      <trkpt lat="43.62" lon="6.86272">
        <ele>238</ele>
        <time>2019-02-07T10:03:16.000Z</time>
      </trkpt>
      <trkpt lat="43.62" lon="6.8627">
        <ele>238</ele>
        <time>2019-02-07T10:03:17.000Z</time>
      </trkpt>
      <trkpt lat="43.62" lon="6.86268">
        <ele>238</ele>
        <time>2019-02-07T10:03:18.000Z</time>
      </trkpt>
      <trkpt lat="43.62" lon="6.86267">
        <ele>238</ele>
        <time>2019-02-07T10:03:19.000Z</time>
      </trkpt>
      <trkpt lat="43.62" lon="6.86265">
        <ele>237</ele>
        <time>2019-02-07T10:03:20.000Z</time>
      </trkpt>
      <trkpt lat="43.62" lon="6.86263">
        <ele>236</ele>
        <time>2019-02-07T10:03:21.000Z</time>
      </trkpt>
      <trkpt lat="43.62" lon="6.86262">
        <ele>236</ele>
        <time>2019-02-07T10:03:22.000Z</time>
      </trkpt>
      <trkpt lat="43.62" lon="6.86261">
        <ele>236</ele>
        <time>2019-02-07T10:03:23.000Z</time>
      </trkpt>
      <trkpt lat="43.61999" lon="6.86259">
        <ele>237</ele>
        <time>2019-02-07T10:03:24.000Z</time>
      </trkpt>
      <trkpt lat="43.61999" lon="6.86258">
        <ele>236</ele>
        <time>2019-02-07T10:03:25.000Z</time>
      </trkpt>
      <trkpt lat="43.61999" lon="6.86255">
        <ele>236</ele>
        <time>2019-02-07T10:03:26.000Z</time>
      </trkpt>
      <trkpt lat="43.61999" lon="6.86253">
        <ele>235</ele>
        <time>2019-02-07T10:03:27.000Z</time>
      </trkpt>
      <trkpt lat="43.61999" lon="6.86251">
        <ele>235</ele>
        <time>2019-02-07T10:03:28.000Z</time>
      </trkpt>
      <trkpt lat="43.61999" lon="6.86249">
        <ele>235</ele>
        <time>2019-02-07T10:03:29.000Z</time>
      </trkpt>
      <trkpt lat="43.61998" lon="6.86248">
        <ele>234</ele>
        <time>2019-02-07T10:03:30.000Z</time>
      </trkpt>
      <trkpt lat="43.61998" lon="6.86246">
        <ele>234</ele>
        <time>2019-02-07T10:03:31.000Z</time>
      </trkpt>
      <trkpt lat="43.61997" lon="6.86244">
        <ele>234</ele>
        <time>2019-02-07T10:03:32.000Z</time>
      </trkpt>
      <trkpt lat="43.61996" lon="6.86243">
        <ele>233</ele>
        <time>2019-02-07T10:03:33.000Z</time>
      </trkpt>
      <trkpt lat="43.61996" lon="6.86241">
        <ele>233</ele>
        <time>2019-02-07T10:03:34.000Z</time>
      </trkpt>
      <trkpt lat="43.61996" lon="6.86239">
        <ele>233</ele>
        <time>2019-02-07T10:03:35.000Z</time>
      </trkpt>
      <trkpt lat="43.61996" lon="6.86236">
        <ele>232</ele>
        <time>2019-02-07T10:03:36.000Z</time>
      </trkpt>
      <trkpt lat="43.61997" lon="6.86234">
        <ele>232</ele>
        <time>2019-02-07T10:03:37.000Z</time>
      </trkpt>
      <trkpt lat="43.61997" lon="6.86231">
        <ele>231</ele>
        <time>2019-02-07T10:03:38.000Z</time>
      </trkpt>
      <trkpt lat="43.61997" lon="6.86228">
        <ele>231</ele>
        <time>2019-02-07T10:03:39.000Z</time>
      </trkpt>
      <trkpt lat="43.61997" lon="6.86225">
        <ele>231</ele>
        <time>2019-02-07T10:03:40.000Z</time>
      </trkpt>
      <trkpt lat="43.61997" lon="6.86222">
        <ele>230</ele>
        <time>2019-02-07T10:03:41.000Z</time>
      </trkpt>
      <trkpt lat="43.61997" lon="6.86219">
        <ele>230</ele>
        <time>2019-02-07T10:03:42.000Z</time>
      </trkpt>
      <trkpt lat="43.61996" lon="6.86216">
        <ele>229</ele>
        <time>2019-02-07T10:03:43.000Z</time>
      </trkpt>
      <trkpt lat="43.61996" lon="6.86213">
        <ele>229</ele>
        <time>2019-02-07T10:03:44.000Z</time>
      </trkpt>
      <trkpt lat="43.61996" lon="6.86211">
        <ele>229</ele>
        <time>2019-02-07T10:03:45.000Z</time>
      </trkpt>
      <trkpt lat="43.61995" lon="6.86208">
        <ele>229</ele>
        <time>2019-02-07T10:03:46.000Z</time>
      </trkpt>
      <trkpt lat="43.61995" lon="6.86205">
        <ele>229</ele>
        <time>2019-02-07T10:03:47.000Z</time>
      </trkpt>
      <trkpt lat="43.61994" lon="6.86202">
        <ele>229</ele>
        <time>2019-02-07T10:03:48.000Z</time>
      </trkpt>
      <trkpt lat="43.61994" lon="6.86199">
        <ele>229</ele>
        <time>2019-02-07T10:03:49.000Z</time>
      </trkpt>
      <trkpt lat="43.61993" lon="6.86196">
        <ele>229</ele>
        <time>2019-02-07T10:03:50.000Z</time>
      </trkpt>
      <trkpt lat="43.61993" lon="6.86193">
        <ele>229</ele>
        <time>2019-02-07T10:03:51.000Z</time>
      </trkpt>
      <trkpt lat="43.61993" lon="6.8619">
        <ele>228</ele>
        <time>2019-02-07T10:03:52.000Z</time>
      </trkpt>
      <trkpt lat="43.61994" lon="6.86187">
        <ele>228</ele>
        <time>2019-02-07T10:03:53.000Z</time>
      </trkpt>
      <trkpt lat="43.61993" lon="6.86184">
        <ele>229</ele>
        <time>2019-02-07T10:03:54.000Z</time>
      </trkpt>
      <trkpt lat="43.61993" lon="6.8618">
        <ele>229</ele>
        <time>2019-02-07T10:03:55.000Z</time>
      </trkpt>
      <trkpt lat="43.61993" lon="6.86177">
        <ele>228</ele>
        <time>2019-02-07T10:03:56.000Z</time>
      </trkpt>
      <trkpt lat="43.61992" lon="6.86174">
        <ele>228</ele>
        <time>2019-02-07T10:03:57.000Z</time>
      </trkpt>
      <trkpt lat="43.61992" lon="6.86171">
        <ele>228</ele>
        <time>2019-02-07T10:03:58.000Z</time>
      </trkpt>
      <trkpt lat="43.61991" lon="6.86168">
        <ele>229</ele>
        <time>2019-02-07T10:03:59.000Z</time>
      </trkpt>
      <trkpt lat="43.61991" lon="6.86164">
        <ele>229</ele>
        <time>2019-02-07T10:04:00.000Z</time>
      </trkpt>
      <trkpt lat="43.61991" lon="6.86161">
        <ele>229</ele>
        <time>2019-02-07T10:04:01.000Z</time>
      </trkpt>
      <trkpt lat="43.61991" lon="6.86158">
        <ele>229</ele>
        <time>2019-02-07T10:04:02.000Z</time>
      </trkpt>
      <trkpt lat="43.61992" lon="6.86155">
        <ele>228</ele>
        <time>2019-02-07T10:04:03.000Z</time>
      </trkpt>
      <trkpt lat="43.61992" lon="6.86152">
        <ele>228</ele>
        <time>2019-02-07T10:04:04.000Z</time>
      </trkpt>
      <trkpt lat="43.61993" lon="6.86149">
        <ele>228</ele>
        <time>2019-02-07T10:04:05.000Z</time>
      </trkpt>
      <trkpt lat="43.61994" lon="6.86146">
        <ele>228</ele>
        <time>2019-02-07T10:04:06.000Z</time>
      </trkpt>
      <trkpt lat="43.61995" lon="6.86144">
        <ele>227</ele>
        <time>2019-02-07T10:04:07.000Z</time>
      </trkpt>
      <trkpt lat="43.61996" lon="6.86141">
        <ele>227</ele>
        <time>2019-02-07T10:04:08.000Z</time>
      </trkpt>
      <trkpt lat="43.61997" lon="6.8614">
        <ele>226</ele>
        <time>2019-02-07T10:04:09.000Z</time>
      </trkpt>
      <trkpt lat="43.61998" lon="6.86138">
        <ele>225</ele>
        <time>2019-02-07T10:04:10.000Z</time>
      </trkpt>
      <trkpt lat="43.61999" lon="6.86136">
        <ele>224</ele>
        <time>2019-02-07T10:04:11.000Z</time>
      </trkpt>
      <trkpt lat="43.62" lon="6.86133">
        <ele>224</ele>
        <time>2019-02-07T10:04:12.000Z</time>
      </trkpt>
      <trkpt lat="43.62001" lon="6.8613">
        <ele>223</ele>
        <time>2019-02-07T10:04:13.000Z</time>
      </trkpt>
      <trkpt lat="43.62001" lon="6.86126">
        <ele>223</ele>
        <time>2019-02-07T10:04:14.000Z</time>
      </trkpt>
      <trkpt lat="43.62002" lon="6.86122">
        <ele>223</ele>
        <time>2019-02-07T10:04:15.000Z</time>
      </trkpt>
      <trkpt lat="43.62003" lon="6.86118">
        <ele>223</ele>
        <time>2019-02-07T10:04:16.000Z</time>
      </trkpt>
      <trkpt lat="43.62003" lon="6.86115">
        <ele>223</ele>
        <time>2019-02-07T10:04:17.000Z</time>
      </trkpt>
      <trkpt lat="43.62004" lon="6.86112">
        <ele>223</ele>
        <time>2019-02-07T10:04:18.000Z</time>
      </trkpt>
      <trkpt lat="43.62005" lon="6.86108">
        <ele>223</ele>
        <time>2019-02-07T10:04:19.000Z</time>
      </trkpt>
      <trkpt lat="43.62006" lon="6.86105">
        <ele>224</ele>
        <time>2019-02-07T10:04:20.000Z</time>
      </trkpt>
      <trkpt lat="43.62006" lon="6.86102">
        <ele>223</ele>
        <time>2019-02-07T10:04:21.000Z</time>
      </trkpt>
      <trkpt lat="43.62007" lon="6.861">
        <ele>224</ele>
        <time>2019-02-07T10:04:22.000Z</time>
      </trkpt>
      <trkpt lat="43.62008" lon="6.86097">
        <ele>224</ele>
        <time>2019-02-07T10:04:23.000Z</time>
      </trkpt>
      <trkpt lat="43.62009" lon="6.86094">
        <ele>224</ele>
        <time>2019-02-07T10:04:24.000Z</time>
      </trkpt>
      <trkpt lat="43.62009" lon="6.86092">
        <ele>223</ele>
        <time>2019-02-07T10:04:25.000Z</time>
      </trkpt>
      <trkpt lat="43.6201" lon="6.8609">
        <ele>224</ele>
        <time>2019-02-07T10:04:26.000Z</time>
      </trkpt>
      <trkpt lat="43.62011" lon="6.86087">
        <ele>224</ele>
        <time>2019-02-07T10:04:27.000Z</time>
      </trkpt>
      <trkpt lat="43.62012" lon="6.86084">
        <ele>223</ele>
        <time>2019-02-07T10:04:28.000Z</time>
      </trkpt>
      <trkpt lat="43.62012" lon="6.86082">
        <ele>223</ele>
        <time>2019-02-07T10:04:29.000Z</time>
      </trkpt>
      <trkpt lat="43.62012" lon="6.86079">
        <ele>223</ele>
        <time>2019-02-07T10:04:30.000Z</time>
      </trkpt>
      <trkpt lat="43.62012" lon="6.86076">
        <ele>223</ele>
        <time>2019-02-07T10:04:31.000Z</time>
      </trkpt>
      <trkpt lat="43.62013" lon="6.86073">
        <ele>223</ele>
        <time>2019-02-07T10:04:32.000Z</time>
      </trkpt>
      <trkpt lat="43.62014" lon="6.86071">
        <ele>223</ele>
        <time>2019-02-07T10:04:33.000Z</time>
      </trkpt>
      <trkpt lat="43.62016" lon="6.86069">
        <ele>222</ele>
        <time>2019-02-07T10:04:34.000Z</time>
      </trkpt>
      <trkpt lat="43.62017" lon="6.86067">
        <ele>223</ele>
        <time>2019-02-07T10:04:35.000Z</time>
      </trkpt>
      <trkpt lat="43.62017" lon="6.86064">
        <ele>222</ele>
        <time>2019-02-07T10:04:36.000Z</time>
      </trkpt>
      <trkpt lat="43.62018" lon="6.86062">
        <ele>222</ele>
        <time>2019-02-07T10:04:37.000Z</time>
      </trkpt>
      <trkpt lat="43.62019" lon="6.8606">
        <ele>222</ele>
        <time>2019-02-07T10:04:38.000Z</time>
      </trkpt>
      <trkpt lat="43.6202" lon="6.86057">
        <ele>221</ele>
        <time>2019-02-07T10:04:39.000Z</time>
      </trkpt>
      <trkpt lat="43.62021" lon="6.86055">
        <ele>220</ele>
        <time>2019-02-07T10:04:40.000Z</time>
      </trkpt>
      <trkpt lat="43.62022" lon="6.86054">
        <ele>220</ele>
        <time>2019-02-07T10:04:41.000Z</time>
      </trkpt>
      <trkpt lat="43.62023" lon="6.86052">
        <ele>219</ele>
        <time>2019-02-07T10:04:42.000Z</time>
      </trkpt>
      <trkpt lat="43.62025" lon="6.8605">
        <ele>219</ele>
        <time>2019-02-07T10:04:43.000Z</time>
      </trkpt>
      <trkpt lat="43.62026" lon="6.86049">
        <ele>219</ele>
        <time>2019-02-07T10:04:44.000Z</time>
      </trkpt>
      <trkpt lat="43.62027" lon="6.86048">
        <ele>219</ele>
        <time>2019-02-07T10:04:45.000Z</time>
      </trkpt>
      <trkpt lat="43.62028" lon="6.86046">
        <ele>220</ele>
        <time>2019-02-07T10:04:46.000Z</time>
      </trkpt>
      <trkpt lat="43.62029" lon="6.86044">
        <ele>219</ele>
        <time>2019-02-07T10:04:47.000Z</time>
      </trkpt>
      <trkpt lat="43.6203" lon="6.86042">
        <ele>218</ele>
        <time>2019-02-07T10:04:48.000Z</time>
      </trkpt>
      <trkpt lat="43.62031" lon="6.86041">
        <ele>218</ele>
        <time>2019-02-07T10:04:49.000Z</time>
      </trkpt>
      <trkpt lat="43.62032" lon="6.8604">
        <ele>218</ele>
        <time>2019-02-07T10:04:50.000Z</time>
      </trkpt>
      <trkpt lat="43.62033" lon="6.86038">
        <ele>217</ele>
        <time>2019-02-07T10:04:51.000Z</time>
      </trkpt>
      <trkpt lat="43.62033" lon="6.86037">
        <ele>217</ele>
        <time>2019-02-07T10:04:52.000Z</time>
      </trkpt>
      <trkpt lat="43.62034" lon="6.86035">
        <ele>217</ele>
        <time>2019-02-07T10:04:53.000Z</time>
      </trkpt>
      <trkpt lat="43.62034" lon="6.86034">
        <ele>217</ele>
        <time>2019-02-07T10:04:54.000Z</time>
      </trkpt>
      <trkpt lat="43.62035" lon="6.86032">
        <ele>217</ele>
        <time>2019-02-07T10:04:55.000Z</time>
      </trkpt>
      <trkpt lat="43.62036" lon="6.86031">
        <ele>217</ele>
        <time>2019-02-07T10:04:56.000Z</time>
      </trkpt>
      <trkpt lat="43.62037" lon="6.86029">
        <ele>218</ele>
        <time>2019-02-07T10:04:57.000Z</time>
      </trkpt>
      <trkpt lat="43.62038" lon="6.86028">
        <ele>218</ele>
        <time>2019-02-07T10:04:58.000Z</time>
      </trkpt>
      <trkpt lat="43.6204" lon="6.86027">
        <ele>218</ele>
        <time>2019-02-07T10:04:59.000Z</time>
      </trkpt>
      <trkpt lat="43.62041" lon="6.86026">
        <ele>218</ele>
        <time>2019-02-07T10:05:00.000Z</time>
      </trkpt>
      <trkpt lat="43.62042" lon="6.86025">
        <ele>217</ele>
        <time>2019-02-07T10:05:01.000Z</time>
      </trkpt>
      <trkpt lat="43.62043" lon="6.86024">
        <ele>217</ele>
        <time>2019-02-07T10:05:02.000Z</time>
      </trkpt>
      <trkpt lat="43.62044" lon="6.86022">
        <ele>218</ele>
        <time>2019-02-07T10:05:03.000Z</time>
      </trkpt>
      <trkpt lat="43.62045" lon="6.86021">
        <ele>218</ele>
        <time>2019-02-07T10:05:04.000Z</time>
      </trkpt>
      <trkpt lat="43.62045" lon="6.8602">
        <ele>218</ele>
        <time>2019-02-07T10:05:05.000Z</time>
      </trkpt>
      <trkpt lat="43.62046" lon="6.86018">
        <ele>217</ele>
        <time>2019-02-07T10:05:06.000Z</time>
      </trkpt>
      <trkpt lat="43.62047" lon="6.86017">
        <ele>217</ele>
        <time>2019-02-07T10:05:07.000Z</time>
      </trkpt>
      <trkpt lat="43.62049" lon="6.86015">
        <ele>217</ele>
        <time>2019-02-07T10:05:08.000Z</time>
      </trkpt>
      <trkpt lat="43.6205" lon="6.86013">
        <ele>217</ele>
        <time>2019-02-07T10:05:09.000Z</time>
      </trkpt>
      <trkpt lat="43.6205" lon="6.86011">
        <ele>217</ele>
        <time>2019-02-07T10:05:10.000Z</time>
      </trkpt>
      <trkpt lat="43.62051" lon="6.86009">
        <ele>217</ele>
        <time>2019-02-07T10:05:11.000Z</time>
      </trkpt>
      <trkpt lat="43.62051" lon="6.86008">
        <ele>216</ele>
        <time>2019-02-07T10:05:12.000Z</time>
      </trkpt>
      <trkpt lat="43.62051" lon="6.86006">
        <ele>216</ele>
        <time>2019-02-07T10:05:13.000Z</time>
      </trkpt>
      <trkpt lat="43.62051" lon="6.86004">
        <ele>216</ele>
        <time>2019-02-07T10:05:14.000Z</time>
      </trkpt>
      <trkpt lat="43.62051" lon="6.86002">
        <ele>216</ele>
        <time>2019-02-07T10:05:15.000Z</time>
      </trkpt>
      <trkpt lat="43.62051" lon="6.85999">
        <ele>215</ele>
        <time>2019-02-07T10:05:16.000Z</time>
      </trkpt>
      <trkpt lat="43.62052" lon="6.85997">
        <ele>215</ele>
        <time>2019-02-07T10:05:17.000Z</time>
      </trkpt>
      <trkpt lat="43.62052" lon="6.85995">
        <ele>215</ele>
        <time>2019-02-07T10:05:18.000Z</time>
      </trkpt>
      <trkpt lat="43.62053" lon="6.85992">
        <ele>215</ele>
        <time>2019-02-07T10:05:19.000Z</time>
      </trkpt>
      <trkpt lat="43.62053" lon="6.85989">
        <ele>214</ele>
        <time>2019-02-07T10:05:20.000Z</time>
      </trkpt>
      <trkpt lat="43.62054" lon="6.85987">
        <ele>214</ele>
        <time>2019-02-07T10:05:21.000Z</time>
      </trkpt>
      <trkpt lat="43.62055" lon="6.85985">
        <ele>213</ele>
        <time>2019-02-07T10:05:22.000Z</time>
      </trkpt>
      <trkpt lat="43.62055" lon="6.85982">
        <ele>214</ele>
        <time>2019-02-07T10:05:23.000Z</time>
      </trkpt>
      <trkpt lat="43.62055" lon="6.8598">
        <ele>214</ele>
        <time>2019-02-07T10:05:24.000Z</time>
      </trkpt>
      <trkpt lat="43.62055" lon="6.85977">
        <ele>215</ele>
        <time>2019-02-07T10:05:25.000Z</time>
      </trkpt>
      <trkpt lat="43.62055" lon="6.85974">
        <ele>215</ele>
        <time>2019-02-07T10:05:26.000Z</time>
      </trkpt>
      <trkpt lat="43.62055" lon="6.85972">
        <ele>215</ele>
        <time>2019-02-07T10:05:27.000Z</time>
      </trkpt>
      <trkpt lat="43.62055" lon="6.85969">
        <ele>216</ele>
        <time>2019-02-07T10:05:28.000Z</time>
      </trkpt>
      <trkpt lat="43.62055" lon="6.85966">
        <ele>216</ele>
        <time>2019-02-07T10:05:29.000Z</time>
      </trkpt>
      <trkpt lat="43.62055" lon="6.85964">
        <ele>216</ele>
        <time>2019-02-07T10:05:30.000Z</time>
      </trkpt>
      <trkpt lat="43.62054" lon="6.85961">
        <ele>218</ele>
        <time>2019-02-07T10:05:31.000Z</time>
      </trkpt>
      <trkpt lat="43.62053" lon="6.85959">
        <ele>219</ele>
        <time>2019-02-07T10:05:32.000Z</time>
      </trkpt>
      <trkpt lat="43.62052" lon="6.85957">
        <ele>220</ele>
        <time>2019-02-07T10:05:33.000Z</time>
      </trkpt>
      <trkpt lat="43.62052" lon="6.85955">
        <ele>220</ele>
        <time>2019-02-07T10:05:34.000Z</time>
      </trkpt>
      <trkpt lat="43.62051" lon="6.85953">
        <ele>220</ele>
        <time>2019-02-07T10:05:35.000Z</time>
      </trkpt>
      <trkpt lat="43.62051" lon="6.85951">
        <ele>220</ele>
        <time>2019-02-07T10:05:36.000Z</time>
      </trkpt>
      <trkpt lat="43.6205" lon="6.85948">
        <ele>220</ele>
        <time>2019-02-07T10:05:37.000Z</time>
      </trkpt>
      <trkpt lat="43.6205" lon="6.85946">
        <ele>221</ele>
        <time>2019-02-07T10:05:38.000Z</time>
      </trkpt>
      <trkpt lat="43.62049" lon="6.85944">
        <ele>220</ele>
        <time>2019-02-07T10:05:39.000Z</time>
      </trkpt>
      <trkpt lat="43.62048" lon="6.85942">
        <ele>221</ele>
        <time>2019-02-07T10:05:40.000Z</time>
      </trkpt>
      <trkpt lat="43.62048" lon="6.85939">
        <ele>221</ele>
        <time>2019-02-07T10:05:41.000Z</time>
      </trkpt>
      <trkpt lat="43.62048" lon="6.85937">
        <ele>221</ele>
        <time>2019-02-07T10:05:42.000Z</time>
      </trkpt>
      <trkpt lat="43.62048" lon="6.85934">
        <ele>221</ele>
        <time>2019-02-07T10:05:43.000Z</time>
      </trkpt>
      <trkpt lat="43.62047" lon="6.85932">
        <ele>221</ele>
        <time>2019-02-07T10:05:44.000Z</time>
      </trkpt>
      <trkpt lat="43.62047" lon="6.8593">
        <ele>221</ele>
        <time>2019-02-07T10:05:45.000Z</time>
      </trkpt>
      <trkpt lat="43.62047" lon="6.85928">
        <ele>220</ele>
        <time>2019-02-07T10:05:46.000Z</time>
      </trkpt>
      <trkpt lat="43.62047" lon="6.85925">
        <ele>221</ele>
        <time>2019-02-07T10:05:47.000Z</time>
      </trkpt>
      <trkpt lat="43.62046" lon="6.85923">
        <ele>221</ele>
        <time>2019-02-07T10:05:48.000Z</time>
      </trkpt>
      <trkpt lat="43.62046" lon="6.85921">
        <ele>221</ele>
        <time>2019-02-07T10:05:49.000Z</time>
      </trkpt>
      <trkpt lat="43.62046" lon="6.85919">
        <ele>221</ele>
        <time>2019-02-07T10:05:50.000Z</time>
      </trkpt>
      <trkpt lat="43.62045" lon="6.85917">
        <ele>222</ele>
        <time>2019-02-07T10:05:51.000Z</time>
      </trkpt>
      <trkpt lat="43.62045" lon="6.85914">
        <ele>221</ele>
        <time>2019-02-07T10:05:52.000Z</time>
      </trkpt>
      <trkpt lat="43.62045" lon="6.85912">
        <ele>222</ele>
        <time>2019-02-07T10:05:53.000Z</time>
      </trkpt>
      <trkpt lat="43.62045" lon="6.8591">
        <ele>222</ele>
        <time>2019-02-07T10:05:54.000Z</time>
      </trkpt>
      <trkpt lat="43.62045" lon="6.85908">
        <ele>222</ele>
        <time>2019-02-07T10:05:55.000Z</time>
      </trkpt>
      <trkpt lat="43.62045" lon="6.85905">
        <ele>222</ele>
        <time>2019-02-07T10:05:56.000Z</time>
      </trkpt>
      <trkpt lat="43.62044" lon="6.85903">
        <ele>222</ele>
        <time>2019-02-07T10:05:57.000Z</time>
      </trkpt>
      <trkpt lat="43.62044" lon="6.85901">
        <ele>222</ele>
        <time>2019-02-07T10:05:58.000Z</time>
      </trkpt>
      <trkpt lat="43.62044" lon="6.85899">
        <ele>223</ele>
        <time>2019-02-07T10:05:59.000Z</time>
      </trkpt>
      <trkpt lat="43.62044" lon="6.85898">
        <ele>223</ele>
        <time>2019-02-07T10:06:00.000Z</time>
      </trkpt>
      <trkpt lat="43.62043" lon="6.85896">
        <ele>224</ele>
        <time>2019-02-07T10:06:01.000Z</time>
      </trkpt>
      <trkpt lat="43.62043" lon="6.85895">
        <ele>224</ele>
        <time>2019-02-07T10:06:02.000Z</time>
      </trkpt>
      <trkpt lat="43.62043" lon="6.85894">
        <ele>225</ele>
        <time>2019-02-07T10:06:03.000Z</time>
      </trkpt>
      <trkpt lat="43.62043" lon="6.85892">
        <ele>225</ele>
        <time>2019-02-07T10:06:04.000Z</time>
      </trkpt>
      <trkpt lat="43.62043" lon="6.85891">
        <ele>225</ele>
        <time>2019-02-07T10:06:05.000Z</time>
      </trkpt>
      <trkpt lat="43.62043" lon="6.8589">
        <ele>225</ele>
        <time>2019-02-07T10:06:06.000Z</time>
      </trkpt>
      <trkpt lat="43.62044" lon="6.85889">
        <ele>225</ele>
        <time>2019-02-07T10:06:07.000Z</time>
      </trkpt>
      <trkpt lat="43.62043" lon="6.85889">
        <ele>226</ele>
        <time>2019-02-07T10:06:08.000Z</time>
      </trkpt>
      <trkpt lat="43.62043" lon="6.85889">
        <ele>226</ele>
        <time>2019-02-07T10:06:09.000Z</time>
      </trkpt>
      <trkpt lat="43.62043" lon="6.85888">
        <ele>227</ele>
        <time>2019-02-07T10:06:10.000Z</time>
      </trkpt>
      <trkpt lat="43.62043" lon="6.85887">
        <ele>227</ele>
        <time>2019-02-07T10:06:11.000Z</time>
      </trkpt>
      <trkpt lat="43.62043" lon="6.85886">
        <ele>227</ele>
        <time>2019-02-07T10:06:12.000Z</time>
      </trkpt>
      <trkpt lat="43.62043" lon="6.85884">
        <ele>227</ele>
        <time>2019-02-07T10:06:13.000Z</time>
      </trkpt>
      <trkpt lat="43.62043" lon="6.85883">
        <ele>227</ele>
        <time>2019-02-07T10:06:14.000Z</time>
      </trkpt>
      <trkpt lat="43.62043" lon="6.85882">
        <ele>227</ele>
        <time>2019-02-07T10:06:15.000Z</time>
      </trkpt>
      <trkpt lat="43.62043" lon="6.8588">
        <ele>228</ele>
        <time>2019-02-07T10:06:16.000Z</time>
      </trkpt>
      <trkpt lat="43.62043" lon="6.85879">
        <ele>228</ele>
        <time>2019-02-07T10:06:17.000Z</time>
      </trkpt>
      <trkpt lat="43.62042" lon="6.85877">
        <ele>228</ele>
        <time>2019-02-07T10:06:18.000Z</time>
      </trkpt>
      <trkpt lat="43.62042" lon="6.85876">
        <ele>228</ele>
        <time>2019-02-07T10:06:19.000Z</time>
      </trkpt>
      <trkpt lat="43.62041" lon="6.85874">
        <ele>229</ele>
        <time>2019-02-07T10:06:20.000Z</time>
      </trkpt>
      <trkpt lat="43.62041" lon="6.85873">
        <ele>229</ele>
        <time>2019-02-07T10:06:21.000Z</time>
      </trkpt>
      <trkpt lat="43.6204" lon="6.85871">
        <ele>229</ele>
        <time>2019-02-07T10:06:22.000Z</time>
      </trkpt>
      <trkpt lat="43.6204" lon="6.85869">
        <ele>229</ele>
        <time>2019-02-07T10:06:23.000Z</time>
      </trkpt>
      <trkpt lat="43.62039" lon="6.85868">
        <ele>229</ele>
        <time>2019-02-07T10:06:24.000Z</time>
      </trkpt>
      <trkpt lat="43.62039" lon="6.85866">
        <ele>229</ele>
        <time>2019-02-07T10:06:25.000Z</time>
      </trkpt>
      <trkpt lat="43.62038" lon="6.85864">
        <ele>229</ele>
        <time>2019-02-07T10:06:26.000Z</time>
      </trkpt>
      <trkpt lat="43.62038" lon="6.85863">
        <ele>230</ele>
        <time>2019-02-07T10:06:27.000Z</time>
      </trkpt>
      <trkpt lat="43.62037" lon="6.85862">
        <ele>230</ele>
        <time>2019-02-07T10:06:28.000Z</time>
      </trkpt>
      <trkpt lat="43.62037" lon="6.85861">
        <ele>230</ele>
        <time>2019-02-07T10:06:29.000Z</time>
      </trkpt>
      <trkpt lat="43.62036" lon="6.85859">
        <ele>230</ele>
        <time>2019-02-07T10:06:30.000Z</time>
      </trkpt>
      <trkpt lat="43.62036" lon="6.85858">
        <ele>229</ele>
        <time>2019-02-07T10:06:31.000Z</time>
      </trkpt>
      <trkpt lat="43.62036" lon="6.85857">
        <ele>229</ele>
        <time>2019-02-07T10:06:32.000Z</time>
      </trkpt>
      <trkpt lat="43.62035" lon="6.85856">
        <ele>230</ele>
        <time>2019-02-07T10:06:33.000Z</time>
      </trkpt>
      <trkpt lat="43.62035" lon="6.85855">
        <ele>230</ele>
        <time>2019-02-07T10:06:34.000Z</time>
      </trkpt>
      <trkpt lat="43.62035" lon="6.85854">
        <ele>230</ele>
        <time>2019-02-07T10:06:35.000Z</time>
      </trkpt>
      <trkpt lat="43.62034" lon="6.85853">
        <ele>231</ele>
        <time>2019-02-07T10:06:36.000Z</time>
      </trkpt>
      <trkpt lat="43.62034" lon="6.85852">
        <ele>231</ele>
        <time>2019-02-07T10:06:37.000Z</time>
      </trkpt>
      <trkpt lat="43.62033" lon="6.85851">
        <ele>231</ele>
        <time>2019-02-07T10:06:38.000Z</time>
      </trkpt>
      <trkpt lat="43.62033" lon="6.8585">
        <ele>231</ele>
        <time>2019-02-07T10:06:39.000Z</time>
      </trkpt>
      <trkpt lat="43.62033" lon="6.85849">
        <ele>231</ele>
        <time>2019-02-07T10:06:40.000Z</time>
      </trkpt>
      <trkpt lat="43.62032" lon="6.85847">
        <ele>231</ele>
        <time>2019-02-07T10:06:41.000Z</time>
      </trkpt>
      <trkpt lat="43.62032" lon="6.85846">
        <ele>231</ele>
        <time>2019-02-07T10:06:42.000Z</time>
      </trkpt>
      <trkpt lat="43.62032" lon="6.85845">
        <ele>232</ele>
        <time>2019-02-07T10:06:43.000Z</time>
      </trkpt>
      <trkpt lat="43.62031" lon="6.85843">
        <ele>232</ele>
        <time>2019-02-07T10:06:44.000Z</time>
      </trkpt>
      <trkpt lat="43.62031" lon="6.85842">
        <ele>232</ele>
        <time>2019-02-07T10:06:45.000Z</time>
      </trkpt>
      <trkpt lat="43.6203" lon="6.85841">
        <ele>233</ele>
        <time>2019-02-07T10:06:46.000Z</time>
      </trkpt>
      <trkpt lat="43.6203" lon="6.85839">
        <ele>233</ele>
        <time>2019-02-07T10:06:47.000Z</time>
      </trkpt>
      <trkpt lat="43.6203" lon="6.85838">
        <ele>233</ele>
        <time>2019-02-07T10:06:48.000Z</time>
      </trkpt>
      <trkpt lat="43.62029" lon="6.85837">
        <ele>233</ele>
        <time>2019-02-07T10:06:49.000Z</time>
      </trkpt>
      <trkpt lat="43.62029" lon="6.85835">
        <ele>233</ele>
        <time>2019-02-07T10:06:50.000Z</time>
      </trkpt>
      <trkpt lat="43.62029" lon="6.85834">
        <ele>234</ele>
        <time>2019-02-07T10:06:51.000Z</time>
      </trkpt>
      <trkpt lat="43.62029" lon="6.85833">
        <ele>234</ele>
        <time>2019-02-07T10:06:52.000Z</time>
      </trkpt>
      <trkpt lat="43.62028" lon="6.85831">
        <ele>234</ele>
        <time>2019-02-07T10:06:53.000Z</time>
      </trkpt>
      <trkpt lat="43.62028" lon="6.8583">
        <ele>234</ele>
        <time>2019-02-07T10:06:54.000Z</time>
      </trkpt>
      <trkpt lat="43.62028" lon="6.85829">
        <ele>234</ele>
        <time>2019-02-07T10:06:55.000Z</time>
      </trkpt>
      <trkpt lat="43.62027" lon="6.85828">
        <ele>234</ele>
        <time>2019-02-07T10:06:56.000Z</time>
      </trkpt>
      <trkpt lat="43.62027" lon="6.85827">
        <ele>234</ele>
        <time>2019-02-07T10:06:57.000Z</time>
      </trkpt>
      <trkpt lat="43.62027" lon="6.85826">
        <ele>235</ele>
        <time>2019-02-07T10:06:58.000Z</time>
      </trkpt>
      <trkpt lat="43.62027" lon="6.85824">
        <ele>235</ele>
        <time>2019-02-07T10:06:59.000Z</time>
      </trkpt>
      <trkpt lat="43.62027" lon="6.85823">
        <ele>235</ele>
        <time>2019-02-07T10:07:00.000Z</time>
      </trkpt>
      <trkpt lat="43.62026" lon="6.85822">
        <ele>235</ele>
        <time>2019-02-07T10:07:01.000Z</time>
      </trkpt>
      <trkpt lat="43.62026" lon="6.85821">
        <ele>235</ele>
        <time>2019-02-07T10:07:02.000Z</time>
      </trkpt>
      <trkpt lat="43.62026" lon="6.8582">
        <ele>235</ele>
        <time>2019-02-07T10:07:03.000Z</time>
      </trkpt>
      <trkpt lat="43.62026" lon="6.85819">
        <ele>236</ele>
        <time>2019-02-07T10:07:04.000Z</time>
      </trkpt>
      <trkpt lat="43.62026" lon="6.85817">
        <ele>236</ele>
        <time>2019-02-07T10:07:05.000Z</time>
      </trkpt>
      <trkpt lat="43.62025" lon="6.85816">
        <ele>236</ele>
        <time>2019-02-07T10:07:06.000Z</time>
      </trkpt>
      <trkpt lat="43.62025" lon="6.85815">
        <ele>236</ele>
        <time>2019-02-07T10:07:07.000Z</time>
      </trkpt>
      <trkpt lat="43.62025" lon="6.85814">
        <ele>237</ele>
        <time>2019-02-07T10:07:08.000Z</time>
      </trkpt>
      <trkpt lat="43.62024" lon="6.85814">
        <ele>237</ele>
        <time>2019-02-07T10:07:09.000Z</time>
      </trkpt>
      <trkpt lat="43.62023" lon="6.85813">
        <ele>237</ele>
        <time>2019-02-07T10:07:10.000Z</time>
      </trkpt>
      <trkpt lat="43.62022" lon="6.85813">
        <ele>237</ele>
        <time>2019-02-07T10:07:11.000Z</time>
      </trkpt>
      <trkpt lat="43.62021" lon="6.85812">
        <ele>237</ele>
        <time>2019-02-07T10:07:12.000Z</time>
      </trkpt>
      <trkpt lat="43.62021" lon="6.85812">
        <ele>237</ele>
        <time>2019-02-07T10:07:13.000Z</time>
      </trkpt>
      <trkpt lat="43.6202" lon="6.85812">
        <ele>237</ele>
        <time>2019-02-07T10:07:14.000Z</time>
      </trkpt>
      <trkpt lat="43.62019" lon="6.85811">
        <ele>238</ele>
        <time>2019-02-07T10:07:15.000Z</time>
      </trkpt>
      <trkpt lat="43.62018" lon="6.85811">
        <ele>238</ele>
        <time>2019-02-07T10:07:16.000Z</time>
      </trkpt>
      <trkpt lat="43.62017" lon="6.85811">
        <ele>238</ele>
        <time>2019-02-07T10:07:17.000Z</time>
      </trkpt>
      <trkpt lat="43.62016" lon="6.85811">
        <ele>238</ele>
        <time>2019-02-07T10:07:18.000Z</time>
      </trkpt>
      <trkpt lat="43.62015" lon="6.8581">
        <ele>238</ele>
        <time>2019-02-07T10:07:19.000Z</time>
      </trkpt>
      <trkpt lat="43.62014" lon="6.8581">
        <ele>239</ele>
        <time>2019-02-07T10:07:20.000Z</time>
      </trkpt>
      <trkpt lat="43.62013" lon="6.85809">
        <ele>239</ele>
        <time>2019-02-07T10:07:21.000Z</time>
      </trkpt>
      <trkpt lat="43.62012" lon="6.85809">
        <ele>239</ele>
        <time>2019-02-07T10:07:22.000Z</time>
      </trkpt>
      <trkpt lat="43.62011" lon="6.85808">
        <ele>239</ele>
        <time>2019-02-07T10:07:23.000Z</time>
      </trkpt>
      <trkpt lat="43.6201" lon="6.85807">
        <ele>240</ele>
        <time>2019-02-07T10:07:24.000Z</time>
      </trkpt>
      <trkpt lat="43.62009" lon="6.85806">
        <ele>240</ele>
        <time>2019-02-07T10:07:25.000Z</time>
      </trkpt>
      <trkpt lat="43.62009" lon="6.85805">
        <ele>240</ele>
        <time>2019-02-07T10:07:26.000Z</time>
      </trkpt>
      <trkpt lat="43.62008" lon="6.85804">
        <ele>240</ele>
        <time>2019-02-07T10:07:27.000Z</time>
      </trkpt>
      <trkpt lat="43.62007" lon="6.85804">
        <ele>240</ele>
        <time>2019-02-07T10:07:28.000Z</time>
      </trkpt>
      <trkpt lat="43.62007" lon="6.85803">
        <ele>240</ele>
        <time>2019-02-07T10:07:29.000Z</time>
      </trkpt>
      <trkpt lat="43.62006" lon="6.85802">
        <ele>240</ele>
        <time>2019-02-07T10:07:30.000Z</time>
      </trkpt>
      <trkpt lat="43.62006" lon="6.85801">
        <ele>240</ele>
        <time>2019-02-07T10:07:31.000Z</time>
      </trkpt>
      <trkpt lat="43.62005" lon="6.858">
        <ele>240</ele>
        <time>2019-02-07T10:07:32.000Z</time>
      </trkpt>
      <trkpt lat="43.62005" lon="6.85799">
        <ele>240</ele>
        <time>2019-02-07T10:07:33.000Z</time>
      </trkpt>
      <trkpt lat="43.62005" lon="6.85799">
        <ele>241</ele>
        <time>2019-02-07T10:07:34.000Z</time>
      </trkpt>
      <trkpt lat="43.62004" lon="6.85798">
        <ele>241</ele>
        <time>2019-02-07T10:07:35.000Z</time>
      </trkpt>
      <trkpt lat="43.62004" lon="6.85798">
        <ele>241</ele>
        <time>2019-02-07T10:07:36.000Z</time>
      </trkpt>
      <trkpt lat="43.62003" lon="6.85798">
        <ele>242</ele>
        <time>2019-02-07T10:07:37.000Z</time>
      </trkpt>
      <trkpt lat="43.62003" lon="6.85798">
        <ele>241</ele>
        <time>2019-02-07T10:07:38.000Z</time>
      </trkpt>
      <trkpt lat="43.62002" lon="6.85798">
        <ele>242</ele>
        <time>2019-02-07T10:07:39.000Z</time>
      </trkpt>
      <trkpt lat="43.62002" lon="6.85798">
        <ele>242</ele>
        <time>2019-02-07T10:07:40.000Z</time>
      </trkpt>
      <trkpt lat="43.62001" lon="6.85798">
        <ele>242</ele>
        <time>2019-02-07T10:07:41.000Z</time>
      </trkpt>
      <trkpt lat="43.62" lon="6.85798">
        <ele>242</ele>
        <time>2019-02-07T10:07:42.000Z</time>
      </trkpt>
      <trkpt lat="43.61999" lon="6.85799">
        <ele>242</ele>
        <time>2019-02-07T10:07:43.000Z</time>
      </trkpt>
      <trkpt lat="43.61998" lon="6.85799">
        <ele>242</ele>
        <time>2019-02-07T10:07:44.000Z</time>
      </trkpt>
      <trkpt lat="43.61997" lon="6.85799">
        <ele>243</ele>
        <time>2019-02-07T10:07:45.000Z</time>
      </trkpt>
      <trkpt lat="43.61996" lon="6.85799">
        <ele>242</ele>
        <time>2019-02-07T10:07:46.000Z</time>
      </trkpt>
      <trkpt lat="43.61995" lon="6.85798">
        <ele>242</ele>
        <time>2019-02-07T10:07:47.000Z</time>
      </trkpt>
      <trkpt lat="43.61994" lon="6.85798">
        <ele>243</ele>
        <time>2019-02-07T10:07:48.000Z</time>
      </trkpt>
      <trkpt lat="43.61993" lon="6.85797">
        <ele>243</ele>
        <time>2019-02-07T10:07:49.000Z</time>
      </trkpt>
      <trkpt lat="43.61993" lon="6.85795">
        <ele>243</ele>
        <time>2019-02-07T10:07:50.000Z</time>
      </trkpt>
      <trkpt lat="43.61993" lon="6.85794">
        <ele>243</ele>
        <time>2019-02-07T10:07:51.000Z</time>
      </trkpt>
      <trkpt lat="43.61992" lon="6.85793">
        <ele>243</ele>
        <time>2019-02-07T10:07:52.000Z</time>
      </trkpt>
      <trkpt lat="43.61992" lon="6.85792">
        <ele>244</ele>
        <time>2019-02-07T10:07:53.000Z</time>
      </trkpt>
      <trkpt lat="43.61992" lon="6.85791">
        <ele>244</ele>
        <time>2019-02-07T10:07:54.000Z</time>
      </trkpt>
      <trkpt lat="43.61993" lon="6.85789">
        <ele>243</ele>
        <time>2019-02-07T10:07:55.000Z</time>
      </trkpt>
      <trkpt lat="43.61993" lon="6.85788">
        <ele>243</ele>
        <time>2019-02-07T10:07:56.000Z</time>
      </trkpt>
      <trkpt lat="43.61994" lon="6.85786">
        <ele>244</ele>
        <time>2019-02-07T10:07:57.000Z</time>
      </trkpt>
      <trkpt lat="43.61994" lon="6.85785">
        <ele>244</ele>
        <time>2019-02-07T10:07:58.000Z</time>
      </trkpt>
      <trkpt lat="43.61994" lon="6.85783">
        <ele>244</ele>
        <time>2019-02-07T10:07:59.000Z</time>
      </trkpt>
      <trkpt lat="43.61995" lon="6.85782">
        <ele>244</ele>
        <time>2019-02-07T10:08:00.000Z</time>
      </trkpt>
      <trkpt lat="43.61995" lon="6.8578">
        <ele>244</ele>
        <time>2019-02-07T10:08:01.000Z</time>
      </trkpt>
      <trkpt lat="43.61996" lon="6.85778">
        <ele>244</ele>
        <time>2019-02-07T10:08:02.000Z</time>
      </trkpt>
      <trkpt lat="43.61996" lon="6.85777">
        <ele>244</ele>
        <time>2019-02-07T10:08:03.000Z</time>
      </trkpt>
      <trkpt lat="43.61996" lon="6.85775">
        <ele>245</ele>
        <time>2019-02-07T10:08:04.000Z</time>
      </trkpt>
      <trkpt lat="43.61996" lon="6.85774">
        <ele>245</ele>
        <time>2019-02-07T10:08:05.000Z</time>
      </trkpt>
      <trkpt lat="43.61996" lon="6.85773">
        <ele>245</ele>
        <time>2019-02-07T10:08:06.000Z</time>
      </trkpt>
      <trkpt lat="43.61997" lon="6.85771">
        <ele>245</ele>
        <time>2019-02-07T10:08:07.000Z</time>
      </trkpt>
      <trkpt lat="43.61997" lon="6.8577">
        <ele>245</ele>
        <time>2019-02-07T10:08:08.000Z</time>
      </trkpt>
      <trkpt lat="43.61997" lon="6.85769">
        <ele>246</ele>
        <time>2019-02-07T10:08:09.000Z</time>
      </trkpt>
      <trkpt lat="43.61997" lon="6.85767">
        <ele>246</ele>
        <time>2019-02-07T10:08:10.000Z</time>
      </trkpt>
      <trkpt lat="43.61998" lon="6.85766">
        <ele>246</ele>
        <time>2019-02-07T10:08:11.000Z</time>
      </trkpt>
      <trkpt lat="43.61998" lon="6.85765">
        <ele>246</ele>
        <time>2019-02-07T10:08:12.000Z</time>
      </trkpt>
      <trkpt lat="43.61998" lon="6.85763">
        <ele>247</ele>
        <time>2019-02-07T10:08:13.000Z</time>
      </trkpt>
      <trkpt lat="43.61998" lon="6.85762">
        <ele>247</ele>
        <time>2019-02-07T10:08:14.000Z</time>
      </trkpt>
      <trkpt lat="43.61998" lon="6.8576">
        <ele>247</ele>
        <time>2019-02-07T10:08:15.000Z</time>
      </trkpt>
      <trkpt lat="43.61998" lon="6.85759">
        <ele>247</ele>
        <time>2019-02-07T10:08:16.000Z</time>
      </trkpt>
      <trkpt lat="43.61999" lon="6.85757">
        <ele>247</ele>
        <time>2019-02-07T10:08:17.000Z</time>
      </trkpt>
      <trkpt lat="43.61999" lon="6.85756">
        <ele>247</ele>
        <time>2019-02-07T10:08:18.000Z</time>
      </trkpt>
      <trkpt lat="43.61999" lon="6.85754">
        <ele>248</ele>
        <time>2019-02-07T10:08:19.000Z</time>
      </trkpt>
      <trkpt lat="43.61999" lon="6.85753">
        <ele>247</ele>
        <time>2019-02-07T10:08:20.000Z</time>
      </trkpt>
      <trkpt lat="43.62" lon="6.85751">
        <ele>247</ele>
        <time>2019-02-07T10:08:21.000Z</time>
      </trkpt>
      <trkpt lat="43.62" lon="6.85749">
        <ele>248</ele>
        <time>2019-02-07T10:08:22.000Z</time>
      </trkpt>
      <trkpt lat="43.62" lon="6.85747">
        <ele>248</ele>
        <time>2019-02-07T10:08:23.000Z</time>
      </trkpt>
      <trkpt lat="43.62" lon="6.85745">
        <ele>248</ele>
        <time>2019-02-07T10:08:24.000Z</time>
      </trkpt>
      <trkpt lat="43.62001" lon="6.85743">
        <ele>248</ele>
        <time>2019-02-07T10:08:25.000Z</time>
      </trkpt>
      <trkpt lat="43.62001" lon="6.85741">
        <ele>248</ele>
        <time>2019-02-07T10:08:26.000Z</time>
      </trkpt>
      <trkpt lat="43.62001" lon="6.85739">
        <ele>248</ele>
        <time>2019-02-07T10:08:27.000Z</time>
      </trkpt>
      <trkpt lat="43.62001" lon="6.85737">
        <ele>248</ele>
        <time>2019-02-07T10:08:28.000Z</time>
      </trkpt>
      <trkpt lat="43.62001" lon="6.85736">
        <ele>248</ele>
        <time>2019-02-07T10:08:29.000Z</time>
      </trkpt>
      <trkpt lat="43.62002" lon="6.85734">
        <ele>247</ele>
        <time>2019-02-07T10:08:30.000Z</time>
      </trkpt>
      <trkpt lat="43.62002" lon="6.85732">
        <ele>247</ele>
        <time>2019-02-07T10:08:31.000Z</time>
      </trkpt>
      <trkpt lat="43.62002" lon="6.8573">
        <ele>247</ele>
        <time>2019-02-07T10:08:32.000Z</time>
      </trkpt>
      <trkpt lat="43.62002" lon="6.85728">
        <ele>247</ele>
        <time>2019-02-07T10:08:33.000Z</time>
      </trkpt>
      <trkpt lat="43.62003" lon="6.85726">
        <ele>247</ele>
        <time>2019-02-07T10:08:34.000Z</time>
      </trkpt>
      <trkpt lat="43.62003" lon="6.85725">
        <ele>247</ele>
        <time>2019-02-07T10:08:35.000Z</time>
      </trkpt>
      <trkpt lat="43.62003" lon="6.85723">
        <ele>248</ele>
        <time>2019-02-07T10:08:36.000Z</time>
      </trkpt>
      <trkpt lat="43.62004" lon="6.85721">
        <ele>248</ele>
        <time>2019-02-07T10:08:37.000Z</time>
      </trkpt>
      <trkpt lat="43.62004" lon="6.85719">
        <ele>248</ele>
        <time>2019-02-07T10:08:38.000Z</time>
      </trkpt>
      <trkpt lat="43.62004" lon="6.85718">
        <ele>248</ele>
        <time>2019-02-07T10:08:39.000Z</time>
      </trkpt>
      <trkpt lat="43.62005" lon="6.85716">
        <ele>248</ele>
        <time>2019-02-07T10:08:40.000Z</time>
      </trkpt>
      <trkpt lat="43.62005" lon="6.85714">
        <ele>247</ele>
        <time>2019-02-07T10:08:41.000Z</time>
      </trkpt>
      <trkpt lat="43.62005" lon="6.85713">
        <ele>247</ele>
        <time>2019-02-07T10:08:42.000Z</time>
      </trkpt>
      <trkpt lat="43.62005" lon="6.85711">
        <ele>247</ele>
        <time>2019-02-07T10:08:43.000Z</time>
      </trkpt>
      <trkpt lat="43.62005" lon="6.8571">
        <ele>247</ele>
        <time>2019-02-07T10:08:44.000Z</time>
      </trkpt>
      <trkpt lat="43.62005" lon="6.85708">
        <ele>247</ele>
        <time>2019-02-07T10:08:45.000Z</time>
      </trkpt>
      <trkpt lat="43.62005" lon="6.85706">
        <ele>247</ele>
        <time>2019-02-07T10:08:46.000Z</time>
      </trkpt>
      <trkpt lat="43.62006" lon="6.85704">
        <ele>247</ele>
        <time>2019-02-07T10:08:47.000Z</time>
      </trkpt>
      <trkpt lat="43.62006" lon="6.85703">
        <ele>247</ele>
        <time>2019-02-07T10:08:48.000Z</time>
      </trkpt>
      <trkpt lat="43.62006" lon="6.85701">
        <ele>247</ele>
        <time>2019-02-07T10:08:49.000Z</time>
      </trkpt>
      <trkpt lat="43.62006" lon="6.857">
        <ele>247</ele>
        <time>2019-02-07T10:08:50.000Z</time>
      </trkpt>
      <trkpt lat="43.62006" lon="6.85698">
        <ele>247</ele>
        <time>2019-02-07T10:08:51.000Z</time>
      </trkpt>
      <trkpt lat="43.62006" lon="6.85696">
        <ele>247</ele>
        <time>2019-02-07T10:08:52.000Z</time>
      </trkpt>
      <trkpt lat="43.62006" lon="6.85695">
        <ele>247</ele>
        <time>2019-02-07T10:08:53.000Z</time>
      </trkpt>
      <trkpt lat="43.62007" lon="6.85693">
        <ele>247</ele>
        <time>2019-02-07T10:08:54.000Z</time>
      </trkpt>
      <trkpt lat="43.62007" lon="6.85691">
        <ele>247</ele>
        <time>2019-02-07T10:08:55.000Z</time>
      </trkpt>
      <trkpt lat="43.62008" lon="6.85689">
        <ele>247</ele>
        <time>2019-02-07T10:08:56.000Z</time>
      </trkpt>
      <trkpt lat="43.62008" lon="6.85687">
        <ele>248</ele>
        <time>2019-02-07T10:08:57.000Z</time>
      </trkpt>
      <trkpt lat="43.62008" lon="6.85685">
        <ele>248</ele>
        <time>2019-02-07T10:08:58.000Z</time>
      </trkpt>
      <trkpt lat="43.62008" lon="6.85684">
        <ele>248</ele>
        <time>2019-02-07T10:08:59.000Z</time>
      </trkpt>
      <trkpt lat="43.62008" lon="6.85682">
        <ele>248</ele>
        <time>2019-02-07T10:09:00.000Z</time>
      </trkpt>
      <trkpt lat="43.62009" lon="6.8568">
        <ele>248</ele>
        <time>2019-02-07T10:09:01.000Z</time>
      </trkpt>
      <trkpt lat="43.62009" lon="6.85678">
        <ele>247</ele>
        <time>2019-02-07T10:09:02.000Z</time>
      </trkpt>
      <trkpt lat="43.62009" lon="6.85677">
        <ele>247</ele>
        <time>2019-02-07T10:09:03.000Z</time>
      </trkpt>
      <trkpt lat="43.62009" lon="6.85675">
        <ele>248</ele>
        <time>2019-02-07T10:09:04.000Z</time>
      </trkpt>
      <trkpt lat="43.62009" lon="6.85674">
        <ele>247</ele>
        <time>2019-02-07T10:09:05.000Z</time>
      </trkpt>
      <trkpt lat="43.6201" lon="6.85672">
        <ele>247</ele>
        <time>2019-02-07T10:09:06.000Z</time>
      </trkpt>
      <trkpt lat="43.6201" lon="6.8567">
        <ele>247</ele>
        <time>2019-02-07T10:09:07.000Z</time>
      </trkpt>
      <trkpt lat="43.6201" lon="6.85669">
        <ele>247</ele>
        <time>2019-02-07T10:09:08.000Z</time>
      </trkpt>
      <trkpt lat="43.62011" lon="6.85667">
        <ele>248</ele>
        <time>2019-02-07T10:09:09.000Z</time>
      </trkpt>
      <trkpt lat="43.62011" lon="6.85665">
        <ele>248</ele>
        <time>2019-02-07T10:09:10.000Z</time>
      </trkpt>
      <trkpt lat="43.62012" lon="6.85664">
        <ele>248</ele>
        <time>2019-02-07T10:09:11.000Z</time>
      </trkpt>
      <trkpt lat="43.62012" lon="6.85662">
        <ele>248</ele>
        <time>2019-02-07T10:09:12.000Z</time>
      </trkpt>
      <trkpt lat="43.62013" lon="6.85661">
        <ele>249</ele>
        <time>2019-02-07T10:09:13.000Z</time>
      </trkpt>
      <trkpt lat="43.62013" lon="6.8566">
        <ele>249</ele>
        <time>2019-02-07T10:09:14.000Z</time>
      </trkpt>
      <trkpt lat="43.62013" lon="6.85658">
        <ele>249</ele>
        <time>2019-02-07T10:09:15.000Z</time>
      </trkpt>
      <trkpt lat="43.62014" lon="6.85656">
        <ele>250</ele>
        <time>2019-02-07T10:09:16.000Z</time>
      </trkpt>
      <trkpt lat="43.62014" lon="6.85655">
        <ele>250</ele>
        <time>2019-02-07T10:09:17.000Z</time>
      </trkpt>
      <trkpt lat="43.62015" lon="6.85653">
        <ele>250</ele>
        <time>2019-02-07T10:09:18.000Z</time>
      </trkpt>
      <trkpt lat="43.62015" lon="6.85651">
        <ele>250</ele>
        <time>2019-02-07T10:09:19.000Z</time>
      </trkpt>
      <trkpt lat="43.62016" lon="6.8565">
        <ele>249</ele>
        <time>2019-02-07T10:09:20.000Z</time>
      </trkpt>
      <trkpt lat="43.62016" lon="6.85648">
        <ele>249</ele>
        <time>2019-02-07T10:09:21.000Z</time>
      </trkpt>
      <trkpt lat="43.62017" lon="6.85647">
        <ele>249</ele>
        <time>2019-02-07T10:09:22.000Z</time>
      </trkpt>
      <trkpt lat="43.62017" lon="6.85645">
        <ele>249</ele>
        <time>2019-02-07T10:09:23.000Z</time>
      </trkpt>
      <trkpt lat="43.62017" lon="6.85643">
        <ele>249</ele>
        <time>2019-02-07T10:09:24.000Z</time>
      </trkpt>
      <trkpt lat="43.62018" lon="6.85642">
        <ele>249</ele>
        <time>2019-02-07T10:09:25.000Z</time>
      </trkpt>
      <trkpt lat="43.62018" lon="6.8564">
        <ele>249</ele>
        <time>2019-02-07T10:09:26.000Z</time>
      </trkpt>
      <trkpt lat="43.62018" lon="6.85639">
        <ele>248</ele>
        <time>2019-02-07T10:09:27.000Z</time>
      </trkpt>
      <trkpt lat="43.62018" lon="6.85637">
        <ele>249</ele>
        <time>2019-02-07T10:09:28.000Z</time>
      </trkpt>
      <trkpt lat="43.62019" lon="6.85635">
        <ele>249</ele>
        <time>2019-02-07T10:09:29.000Z</time>
      </trkpt>
      <trkpt lat="43.62019" lon="6.85633">
        <ele>249</ele>
        <time>2019-02-07T10:09:30.000Z</time>
      </trkpt>
      <trkpt lat="43.62019" lon="6.85632">
        <ele>249</ele>
        <time>2019-02-07T10:09:31.000Z</time>
      </trkpt>
      <trkpt lat="43.62019" lon="6.85631">
        <ele>248</ele>
        <time>2019-02-07T10:09:32.000Z</time>
      </trkpt>
      <trkpt lat="43.62019" lon="6.85629">
        <ele>248</ele>
        <time>2019-02-07T10:09:33.000Z</time>
      </trkpt>
      <trkpt lat="43.6202" lon="6.85628">
        <ele>249</ele>
        <time>2019-02-07T10:09:34.000Z</time>
      </trkpt>
      <trkpt lat="43.6202" lon="6.85627">
        <ele>249</ele>
        <time>2019-02-07T10:09:35.000Z</time>
      </trkpt>
      <trkpt lat="43.6202" lon="6.85625">
        <ele>249</ele>
        <time>2019-02-07T10:09:36.000Z</time>
      </trkpt>
      <trkpt lat="43.62021" lon="6.85624">
        <ele>248</ele>
        <time>2019-02-07T10:09:37.000Z</time>
      </trkpt>
      <trkpt lat="43.62022" lon="6.85623">
        <ele>248</ele>
        <time>2019-02-07T10:09:38.000Z</time>
      </trkpt>
      <trkpt lat="43.62023" lon="6.85621">
        <ele>248</ele>
        <time>2019-02-07T10:09:39.000Z</time>
      </trkpt>
      <trkpt lat="43.62023" lon="6.85619">
        <ele>249</ele>
        <time>2019-02-07T10:09:40.000Z</time>
      </trkpt>
      <trkpt lat="43.62024" lon="6.85618">
        <ele>249</ele>
        <time>2019-02-07T10:09:41.000Z</time>
      </trkpt>
      <trkpt lat="43.62025" lon="6.85616">
        <ele>250</ele>
        <time>2019-02-07T10:09:42.000Z</time>
      </trkpt>
      <trkpt lat="43.62025" lon="6.85615">
        <ele>250</ele>
        <time>2019-02-07T10:09:43.000Z</time>
      </trkpt>
      <trkpt lat="43.62026" lon="6.85614">
        <ele>250</ele>
        <time>2019-02-07T10:09:44.000Z</time>
      </trkpt>
      <trkpt lat="43.62027" lon="6.85612">
        <ele>250</ele>
        <time>2019-02-07T10:09:45.000Z</time>
      </trkpt>
      <trkpt lat="43.62028" lon="6.85611">
        <ele>250</ele>
        <time>2019-02-07T10:09:46.000Z</time>
      </trkpt>
      <trkpt lat="43.62029" lon="6.8561">
        <ele>249</ele>
        <time>2019-02-07T10:09:47.000Z</time>
      </trkpt>
      <trkpt lat="43.6203" lon="6.85608">
        <ele>249</ele>
        <time>2019-02-07T10:09:48.000Z</time>
      </trkpt>
      <trkpt lat="43.62031" lon="6.85607">
        <ele>249</ele>
        <time>2019-02-07T10:09:49.000Z</time>
      </trkpt>
      <trkpt lat="43.62031" lon="6.85605">
        <ele>249</ele>
        <time>2019-02-07T10:09:50.000Z</time>
      </trkpt>
      <trkpt lat="43.62032" lon="6.85604">
        <ele>249</ele>
        <time>2019-02-07T10:09:51.000Z</time>
      </trkpt>
      <trkpt lat="43.62033" lon="6.85602">
        <ele>249</ele>
        <time>2019-02-07T10:09:52.000Z</time>
      </trkpt>
      <trkpt lat="43.62035" lon="6.85601">
        <ele>248</ele>
        <time>2019-02-07T10:09:53.000Z</time>
      </trkpt>
      <trkpt lat="43.62036" lon="6.85599">
        <ele>248</ele>
        <time>2019-02-07T10:09:54.000Z</time>
      </trkpt>
      <trkpt lat="43.62037" lon="6.85597">
        <ele>248</ele>
        <time>2019-02-07T10:09:55.000Z</time>
      </trkpt>
      <trkpt lat="43.62038" lon="6.85596">
        <ele>248</ele>
        <time>2019-02-07T10:09:56.000Z</time>
      </trkpt>
      <trkpt lat="43.62039" lon="6.85594">
        <ele>248</ele>
        <time>2019-02-07T10:09:57.000Z</time>
      </trkpt>
      <trkpt lat="43.6204" lon="6.85592">
        <ele>247</ele>
        <time>2019-02-07T10:09:58.000Z</time>
      </trkpt>
      <trkpt lat="43.62041" lon="6.8559">
        <ele>248</ele>
        <time>2019-02-07T10:09:59.000Z</time>
      </trkpt>
      <trkpt lat="43.62042" lon="6.85588">
        <ele>248</ele>
        <time>2019-02-07T10:10:00.000Z</time>
      </trkpt>
      <trkpt lat="43.62043" lon="6.85586">
        <ele>247</ele>
        <time>2019-02-07T10:10:01.000Z</time>
      </trkpt>
      <trkpt lat="43.62044" lon="6.85585">
        <ele>247</ele>
        <time>2019-02-07T10:10:02.000Z</time>
      </trkpt>
      <trkpt lat="43.62045" lon="6.85583">
        <ele>247</ele>
        <time>2019-02-07T10:10:03.000Z</time>
      </trkpt>
      <trkpt lat="43.62045" lon="6.85582">
        <ele>247</ele>
        <time>2019-02-07T10:10:04.000Z</time>
      </trkpt>
      <trkpt lat="43.62046" lon="6.8558">
        <ele>247</ele>
        <time>2019-02-07T10:10:05.000Z</time>
      </trkpt>
      <trkpt lat="43.62046" lon="6.85578">
        <ele>246</ele>
        <time>2019-02-07T10:10:06.000Z</time>
      </trkpt>
      <trkpt lat="43.62047" lon="6.85577">
        <ele>246</ele>
        <time>2019-02-07T10:10:07.000Z</time>
      </trkpt>
      <trkpt lat="43.62047" lon="6.85576">
        <ele>246</ele>
        <time>2019-02-07T10:10:08.000Z</time>
      </trkpt>
      <trkpt lat="43.62047" lon="6.85575">
        <ele>246</ele>
        <time>2019-02-07T10:10:09.000Z</time>
      </trkpt>
      <trkpt lat="43.62047" lon="6.85574">
        <ele>245</ele>
        <time>2019-02-07T10:10:10.000Z</time>
      </trkpt>
      <trkpt lat="43.62047" lon="6.85573">
        <ele>245</ele>
        <time>2019-02-07T10:10:11.000Z</time>
      </trkpt>
      <trkpt lat="43.62047" lon="6.85571">
        <ele>244</ele>
        <time>2019-02-07T10:10:12.000Z</time>
      </trkpt>
      <trkpt lat="43.62047" lon="6.8557">
        <ele>244</ele>
        <time>2019-02-07T10:10:13.000Z</time>
      </trkpt>
      <trkpt lat="43.62048" lon="6.85568">
        <ele>243</ele>
        <time>2019-02-07T10:10:14.000Z</time>
      </trkpt>
      <trkpt lat="43.62048" lon="6.85567">
        <ele>243</ele>
        <time>2019-02-07T10:10:15.000Z</time>
      </trkpt>
      <trkpt lat="43.62049" lon="6.85565">
        <ele>242</ele>
        <time>2019-02-07T10:10:16.000Z</time>
      </trkpt>
      <trkpt lat="43.62049" lon="6.85564">
        <ele>242</ele>
        <time>2019-02-07T10:10:17.000Z</time>
      </trkpt>
      <trkpt lat="43.6205" lon="6.85562">
        <ele>241</ele>
        <time>2019-02-07T10:10:18.000Z</time>
      </trkpt>
      <trkpt lat="43.62051" lon="6.85561">
        <ele>241</ele>
        <time>2019-02-07T10:10:19.000Z</time>
      </trkpt>
      <trkpt lat="43.62051" lon="6.85559">
        <ele>240</ele>
        <time>2019-02-07T10:10:20.000Z</time>
      </trkpt>
      <trkpt lat="43.62052" lon="6.85558">
        <ele>240</ele>
        <time>2019-02-07T10:10:21.000Z</time>
      </trkpt>
      <trkpt lat="43.62053" lon="6.85557">
        <ele>239</ele>
        <time>2019-02-07T10:10:22.000Z</time>
      </trkpt>
      <trkpt lat="43.62053" lon="6.85556">
        <ele>239</ele>
        <time>2019-02-07T10:10:23.000Z</time>
      </trkpt>
      <trkpt lat="43.62054" lon="6.85555">
        <ele>238</ele>
        <time>2019-02-07T10:10:24.000Z</time>
      </trkpt>
      <trkpt lat="43.62055" lon="6.85553">
        <ele>238</ele>
        <time>2019-02-07T10:10:25.000Z</time>
      </trkpt>
      <trkpt lat="43.62056" lon="6.85552">
        <ele>237</ele>
        <time>2019-02-07T10:10:26.000Z</time>
      </trkpt>
      <trkpt lat="43.62057" lon="6.85551">
        <ele>237</ele>
        <time>2019-02-07T10:10:27.000Z</time>
      </trkpt>
      <trkpt lat="43.62058" lon="6.85549">
        <ele>236</ele>
        <time>2019-02-07T10:10:28.000Z</time>
      </trkpt>
      <trkpt lat="43.62058" lon="6.85548">
        <ele>236</ele>
        <time>2019-02-07T10:10:29.000Z</time>
      </trkpt>
      <trkpt lat="43.62058" lon="6.85547">
        <ele>236</ele>
        <time>2019-02-07T10:10:30.000Z</time>
      </trkpt>
      <trkpt lat="43.62058" lon="6.85545">
        <ele>236</ele>
        <time>2019-02-07T10:10:31.000Z</time>
      </trkpt>
      <trkpt lat="43.62058" lon="6.85544">
        <ele>236</ele>
        <time>2019-02-07T10:10:32.000Z</time>
      </trkpt>
      <trkpt lat="43.62059" lon="6.85543">
        <ele>235</ele>
        <time>2019-02-07T10:10:33.000Z</time>
      </trkpt>
      <trkpt lat="43.6206" lon="6.85542">
        <ele>235</ele>
        <time>2019-02-07T10:10:34.000Z</time>
      </trkpt>
      <trkpt lat="43.62061" lon="6.8554">
        <ele>235</ele>
        <time>2019-02-07T10:10:35.000Z</time>
      </trkpt>
      <trkpt lat="43.62062" lon="6.85539">
        <ele>234</ele>
        <time>2019-02-07T10:10:36.000Z</time>
      </trkpt>
      <trkpt lat="43.62062" lon="6.85538">
        <ele>233</ele>
        <time>2019-02-07T10:10:37.000Z</time>
      </trkpt>
      <trkpt lat="43.62063" lon="6.85537">
        <ele>234</ele>
        <time>2019-02-07T10:10:38.000Z</time>
      </trkpt>
      <trkpt lat="43.62063" lon="6.85535">
        <ele>233</ele>
        <time>2019-02-07T10:10:39.000Z</time>
      </trkpt>
      <trkpt lat="43.62064" lon="6.85534">
        <ele>233</ele>
        <time>2019-02-07T10:10:40.000Z</time>
      </trkpt>
      <trkpt lat="43.62064" lon="6.85533">
        <ele>232</ele>
        <time>2019-02-07T10:10:41.000Z</time>
      </trkpt>
      <trkpt lat="43.62065" lon="6.85531">
        <ele>231</ele>
        <time>2019-02-07T10:10:42.000Z</time>
      </trkpt>
      <trkpt lat="43.62066" lon="6.85529">
        <ele>231</ele>
        <time>2019-02-07T10:10:43.000Z</time>
      </trkpt>
      <trkpt lat="43.62066" lon="6.85528">
        <ele>231</ele>
        <time>2019-02-07T10:10:44.000Z</time>
      </trkpt>
      <trkpt lat="43.62067" lon="6.85527">
        <ele>231</ele>
        <time>2019-02-07T10:10:45.000Z</time>
      </trkpt>
      <trkpt lat="43.62067" lon="6.85526">
        <ele>230</ele>
        <time>2019-02-07T10:10:46.000Z</time>
      </trkpt>
      <trkpt lat="43.62068" lon="6.85526">
        <ele>230</ele>
        <time>2019-02-07T10:10:47.000Z</time>
      </trkpt>
      <trkpt lat="43.62069" lon="6.85525">
        <ele>230</ele>
        <time>2019-02-07T10:10:48.000Z</time>
      </trkpt>
      <trkpt lat="43.6207" lon="6.85525">
        <ele>230</ele>
        <time>2019-02-07T10:10:49.000Z</time>
      </trkpt>
      <trkpt lat="43.6207" lon="6.85524">
        <ele>230</ele>
        <time>2019-02-07T10:10:50.000Z</time>
      </trkpt>
      <trkpt lat="43.62071" lon="6.85523">
        <ele>230</ele>
        <time>2019-02-07T10:10:51.000Z</time>
      </trkpt>
      <trkpt lat="43.62072" lon="6.85522">
        <ele>230</ele>
        <time>2019-02-07T10:10:52.000Z</time>
      </trkpt>
      <trkpt lat="43.62072" lon="6.85521">
        <ele>229</ele>
        <time>2019-02-07T10:10:53.000Z</time>
      </trkpt>
      <trkpt lat="43.62073" lon="6.8552">
        <ele>229</ele>
        <time>2019-02-07T10:10:54.000Z</time>
      </trkpt>
      <trkpt lat="43.62074" lon="6.85518">
        <ele>228</ele>
        <time>2019-02-07T10:10:55.000Z</time>
      </trkpt>
      <trkpt lat="43.62075" lon="6.85517">
        <ele>228</ele>
        <time>2019-02-07T10:10:56.000Z</time>
      </trkpt>
      <trkpt lat="43.62075" lon="6.85516">
        <ele>228</ele>
        <time>2019-02-07T10:10:57.000Z</time>
      </trkpt>
      <trkpt lat="43.62076" lon="6.85515">
        <ele>228</ele>
        <time>2019-02-07T10:10:58.000Z</time>
      </trkpt>
      <trkpt lat="43.62077" lon="6.85514">
        <ele>228</ele>
        <time>2019-02-07T10:10:59.000Z</time>
      </trkpt>
      <trkpt lat="43.62078" lon="6.85512">
        <ele>227</ele>
        <time>2019-02-07T10:11:00.000Z</time>
      </trkpt>
      <trkpt lat="43.62079" lon="6.85511">
        <ele>227</ele>
        <time>2019-02-07T10:11:01.000Z</time>
      </trkpt>
      <trkpt lat="43.6208" lon="6.8551">
        <ele>227</ele>
        <time>2019-02-07T10:11:02.000Z</time>
      </trkpt>
      <trkpt lat="43.62081" lon="6.85509">
        <ele>227</ele>
        <time>2019-02-07T10:11:03.000Z</time>
      </trkpt>
      <trkpt lat="43.62081" lon="6.85508">
        <ele>226</ele>
        <time>2019-02-07T10:11:04.000Z</time>
      </trkpt>
      <trkpt lat="43.62081" lon="6.85507">
        <ele>226</ele>
        <time>2019-02-07T10:11:05.000Z</time>
      </trkpt>
      <trkpt lat="43.62082" lon="6.85505">
        <ele>226</ele>
        <time>2019-02-07T10:11:06.000Z</time>
      </trkpt>
      <trkpt lat="43.62082" lon="6.85504">
        <ele>225</ele>
        <time>2019-02-07T10:11:07.000Z</time>
      </trkpt>
      <trkpt lat="43.62083" lon="6.85503">
        <ele>225</ele>
        <time>2019-02-07T10:11:08.000Z</time>
      </trkpt>
      <trkpt lat="43.62083" lon="6.85502">
        <ele>225</ele>
        <time>2019-02-07T10:11:09.000Z</time>
      </trkpt>
      <trkpt lat="43.62083" lon="6.85501">
        <ele>224</ele>
        <time>2019-02-07T10:11:10.000Z</time>
      </trkpt>
      <trkpt lat="43.62083" lon="6.855">
        <ele>224</ele>
        <time>2019-02-07T10:11:11.000Z</time>
      </trkpt>
      <trkpt lat="43.62084" lon="6.85499">
        <ele>223</ele>
        <time>2019-02-07T10:11:12.000Z</time>
      </trkpt>
      <trkpt lat="43.62084" lon="6.85497">
        <ele>223</ele>
        <time>2019-02-07T10:11:13.000Z</time>
      </trkpt>
      <trkpt lat="43.62084" lon="6.85496">
        <ele>223</ele>
        <time>2019-02-07T10:11:14.000Z</time>
      </trkpt>
      <trkpt lat="43.62085" lon="6.85495">
        <ele>223</ele>
        <time>2019-02-07T10:11:15.000Z</time>
      </trkpt>
      <trkpt lat="43.62085" lon="6.85493">
        <ele>222</ele>
        <time>2019-02-07T10:11:16.000Z</time>
      </trkpt>
      <trkpt lat="43.62086" lon="6.85492">
        <ele>222</ele>
        <time>2019-02-07T10:11:17.000Z</time>
      </trkpt>
      <trkpt lat="43.62086" lon="6.85491">
        <ele>222</ele>
        <time>2019-02-07T10:11:18.000Z</time>
      </trkpt>
      <trkpt lat="43.62086" lon="6.8549">
        <ele>222</ele>
        <time>2019-02-07T10:11:19.000Z</time>
      </trkpt>
      <trkpt lat="43.62086" lon="6.85489">
        <ele>222</ele>
        <time>2019-02-07T10:11:20.000Z</time>
      </trkpt>
      <trkpt lat="43.62087" lon="6.85488">
        <ele>221</ele>
        <time>2019-02-07T10:11:21.000Z</time>
      </trkpt>
      <trkpt lat="43.62087" lon="6.85486">
        <ele>221</ele>
        <time>2019-02-07T10:11:22.000Z</time>
      </trkpt>
      <trkpt lat="43.62088" lon="6.85485">
        <ele>221</ele>
        <time>2019-02-07T10:11:23.000Z</time>
      </trkpt>
      <trkpt lat="43.62089" lon="6.85484">
        <ele>220</ele>
        <time>2019-02-07T10:11:24.000Z</time>
      </trkpt>
      <trkpt lat="43.62089" lon="6.85482">
        <ele>220</ele>
        <time>2019-02-07T10:11:25.000Z</time>
      </trkpt>
      <trkpt lat="43.6209" lon="6.85481">
        <ele>220</ele>
        <time>2019-02-07T10:11:26.000Z</time>
      </trkpt>
      <trkpt lat="43.6209" lon="6.8548">
        <ele>220</ele>
        <time>2019-02-07T10:11:27.000Z</time>
      </trkpt>
      <trkpt lat="43.62091" lon="6.85479">
        <ele>219</ele>
        <time>2019-02-07T10:11:28.000Z</time>
      </trkpt>
      <trkpt lat="43.62091" lon="6.85478">
        <ele>220</ele>
        <time>2019-02-07T10:11:29.000Z</time>
      </trkpt>
      <trkpt lat="43.62091" lon="6.85477">
        <ele>220</ele>
        <time>2019-02-07T10:11:30.000Z</time>
      </trkpt>
      <trkpt lat="43.62091" lon="6.85475">
        <ele>221</ele>
        <time>2019-02-07T10:11:31.000Z</time>
      </trkpt>
      <trkpt lat="43.62091" lon="6.85474">
        <ele>221</ele>
        <time>2019-02-07T10:11:32.000Z</time>
      </trkpt>
      <trkpt lat="43.62091" lon="6.85473">
        <ele>220</ele>
        <time>2019-02-07T10:11:33.000Z</time>
      </trkpt>
      <trkpt lat="43.62092" lon="6.85472">
        <ele>220</ele>
        <time>2019-02-07T10:11:34.000Z</time>
      </trkpt>
      <trkpt lat="43.62092" lon="6.85471">
        <ele>220</ele>
        <time>2019-02-07T10:11:35.000Z</time>
      </trkpt>
      <trkpt lat="43.62092" lon="6.8547">
        <ele>220</ele>
        <time>2019-02-07T10:11:36.000Z</time>
      </trkpt>
      <trkpt lat="43.62093" lon="6.85468">
        <ele>220</ele>
        <time>2019-02-07T10:11:37.000Z</time>
      </trkpt>
      <trkpt lat="43.62093" lon="6.85467">
        <ele>219</ele>
        <time>2019-02-07T10:11:38.000Z</time>
      </trkpt>
      <trkpt lat="43.62094" lon="6.85466">
        <ele>219</ele>
        <time>2019-02-07T10:11:39.000Z</time>
      </trkpt>
      <trkpt lat="43.62094" lon="6.85465">
        <ele>218</ele>
        <time>2019-02-07T10:11:40.000Z</time>
      </trkpt>
      <trkpt lat="43.62095" lon="6.85464">
        <ele>217</ele>
        <time>2019-02-07T10:11:41.000Z</time>
      </trkpt>
      <trkpt lat="43.62095" lon="6.85463">
        <ele>216</ele>
        <time>2019-02-07T10:11:42.000Z</time>
      </trkpt>
      <trkpt lat="43.62096" lon="6.85462">
        <ele>216</ele>
        <time>2019-02-07T10:11:43.000Z</time>
      </trkpt>
      <trkpt lat="43.62097" lon="6.85461">
        <ele>216</ele>
        <time>2019-02-07T10:11:44.000Z</time>
      </trkpt>
      <trkpt lat="43.62097" lon="6.85459">
        <ele>215</ele>
        <time>2019-02-07T10:11:45.000Z</time>
      </trkpt>
      <trkpt lat="43.62097" lon="6.85458">
        <ele>215</ele>
        <time>2019-02-07T10:11:46.000Z</time>
      </trkpt>
      <trkpt lat="43.62098" lon="6.85457">
        <ele>214</ele>
        <time>2019-02-07T10:11:47.000Z</time>
      </trkpt>
      <trkpt lat="43.62099" lon="6.85455">
        <ele>214</ele>
        <time>2019-02-07T10:11:48.000Z</time>
      </trkpt>
      <trkpt lat="43.621" lon="6.85454">
        <ele>213</ele>
        <time>2019-02-07T10:11:49.000Z</time>
      </trkpt>
      <trkpt lat="43.621" lon="6.85453">
        <ele>213</ele>
        <time>2019-02-07T10:11:50.000Z</time>
      </trkpt>
      <trkpt lat="43.62101" lon="6.85451">
        <ele>213</ele>
        <time>2019-02-07T10:11:51.000Z</time>
      </trkpt>
      <trkpt lat="43.62102" lon="6.8545">
        <ele>212</ele>
        <time>2019-02-07T10:11:52.000Z</time>
      </trkpt>
      <trkpt lat="43.62103" lon="6.85449">
        <ele>212</ele>
        <time>2019-02-07T10:11:53.000Z</time>
      </trkpt>
      <trkpt lat="43.62103" lon="6.85448">
        <ele>211</ele>
        <time>2019-02-07T10:11:54.000Z</time>
      </trkpt>
      <trkpt lat="43.62104" lon="6.85446">
        <ele>210</ele>
        <time>2019-02-07T10:11:55.000Z</time>
      </trkpt>
      <trkpt lat="43.62105" lon="6.85445">
        <ele>210</ele>
        <time>2019-02-07T10:11:56.000Z</time>
      </trkpt>
      <trkpt lat="43.62106" lon="6.85443">
        <ele>210</ele>
        <time>2019-02-07T10:11:57.000Z</time>
      </trkpt>
      <trkpt lat="43.62107" lon="6.85442">
        <ele>209</ele>
        <time>2019-02-07T10:11:58.000Z</time>
      </trkpt>
      <trkpt lat="43.62108" lon="6.85441">
        <ele>209</ele>
        <time>2019-02-07T10:11:59.000Z</time>
      </trkpt>
      <trkpt lat="43.62108" lon="6.8544">
        <ele>209</ele>
        <time>2019-02-07T10:12:00.000Z</time>
      </trkpt>
      <trkpt lat="43.62109" lon="6.85438">
        <ele>208</ele>
        <time>2019-02-07T10:12:01.000Z</time>
      </trkpt>
      <trkpt lat="43.6211" lon="6.85437">
        <ele>208</ele>
        <time>2019-02-07T10:12:02.000Z</time>
      </trkpt>
      <trkpt lat="43.6211" lon="6.85436">
        <ele>208</ele>
        <time>2019-02-07T10:12:03.000Z</time>
      </trkpt>
      <trkpt lat="43.62111" lon="6.85434">
        <ele>208</ele>
        <time>2019-02-07T10:12:04.000Z</time>
      </trkpt>
      <trkpt lat="43.62111" lon="6.85433">
        <ele>208</ele>
        <time>2019-02-07T10:12:05.000Z</time>
      </trkpt>
      <trkpt lat="43.62112" lon="6.85431">
        <ele>207</ele>
        <time>2019-02-07T10:12:06.000Z</time>
      </trkpt>
      <trkpt lat="43.62112" lon="6.8543">
        <ele>206</ele>
        <time>2019-02-07T10:12:07.000Z</time>
      </trkpt>
      <trkpt lat="43.62113" lon="6.85428">
        <ele>206</ele>
        <time>2019-02-07T10:12:08.000Z</time>
      </trkpt>
      <trkpt lat="43.62113" lon="6.85427">
        <ele>206</ele>
        <time>2019-02-07T10:12:09.000Z</time>
      </trkpt>
      <trkpt lat="43.62114" lon="6.85425">
        <ele>206</ele>
        <time>2019-02-07T10:12:10.000Z</time>
      </trkpt>
      <trkpt lat="43.62116" lon="6.85424">
        <ele>207</ele>
        <time>2019-02-07T10:12:11.000Z</time>
      </trkpt>
      <trkpt lat="43.62117" lon="6.85423">
        <ele>207</ele>
        <time>2019-02-07T10:12:12.000Z</time>
      </trkpt>
      <trkpt lat="43.62118" lon="6.85421">
        <ele>206</ele>
        <time>2019-02-07T10:12:13.000Z</time>
      </trkpt>
      <trkpt lat="43.62119" lon="6.8542">
        <ele>206</ele>
        <time>2019-02-07T10:12:14.000Z</time>
      </trkpt>
      <trkpt lat="43.6212" lon="6.85419">
        <ele>206</ele>
        <time>2019-02-07T10:12:15.000Z</time>
      </trkpt>
      <trkpt lat="43.62121" lon="6.85418">
        <ele>205</ele>
        <time>2019-02-07T10:12:16.000Z</time>
      </trkpt>
      <trkpt lat="43.62121" lon="6.85417">
        <ele>205</ele>
        <time>2019-02-07T10:12:17.000Z</time>
      </trkpt>
      <trkpt lat="43.62122" lon="6.85416">
        <ele>204</ele>
        <time>2019-02-07T10:12:18.000Z</time>
      </trkpt>
      <trkpt lat="43.62122" lon="6.85414">
        <ele>204</ele>
        <time>2019-02-07T10:12:19.000Z</time>
      </trkpt>
      <trkpt lat="43.62123" lon="6.85413">
        <ele>203</ele>
        <time>2019-02-07T10:12:20.000Z</time>
      </trkpt>
      <trkpt lat="43.62123" lon="6.85412">
        <ele>202</ele>
        <time>2019-02-07T10:12:21.000Z</time>
      </trkpt>
      <trkpt lat="43.62123" lon="6.85411">
        <ele>202</ele>
        <time>2019-02-07T10:12:22.000Z</time>
      </trkpt>
      <trkpt lat="43.62124" lon="6.8541">
        <ele>201</ele>
        <time>2019-02-07T10:12:23.000Z</time>
      </trkpt>
      <trkpt lat="43.62125" lon="6.85408">
        <ele>201</ele>
        <time>2019-02-07T10:12:24.000Z</time>
      </trkpt>
      <trkpt lat="43.62126" lon="6.85406">
        <ele>201</ele>
        <time>2019-02-07T10:12:25.000Z</time>
      </trkpt>
      <trkpt lat="43.62127" lon="6.85405">
        <ele>201</ele>
        <time>2019-02-07T10:12:26.000Z</time>
      </trkpt>
      <trkpt lat="43.62127" lon="6.85403">
        <ele>201</ele>
        <time>2019-02-07T10:12:27.000Z</time>
      </trkpt>
      <trkpt lat="43.62128" lon="6.85402">
        <ele>201</ele>
        <time>2019-02-07T10:12:28.000Z</time>
      </trkpt>
      <trkpt lat="43.62129" lon="6.85401">
        <ele>200</ele>
        <time>2019-02-07T10:12:29.000Z</time>
      </trkpt>
      <trkpt lat="43.6213" lon="6.854">
        <ele>199</ele>
        <time>2019-02-07T10:12:30.000Z</time>
      </trkpt>
      <trkpt lat="43.62131" lon="6.85399">
        <ele>199</ele>
        <time>2019-02-07T10:12:31.000Z</time>
      </trkpt>
      <trkpt lat="43.62132" lon="6.85398">
        <ele>198</ele>
        <time>2019-02-07T10:12:32.000Z</time>
      </trkpt>
      <trkpt lat="43.62133" lon="6.85397">
        <ele>198</ele>
        <time>2019-02-07T10:12:33.000Z</time>
      </trkpt>
      <trkpt lat="43.62133" lon="6.85395">
        <ele>198</ele>
        <time>2019-02-07T10:12:34.000Z</time>
      </trkpt>
      <trkpt lat="43.62134" lon="6.85394">
        <ele>198</ele>
        <time>2019-02-07T10:12:35.000Z</time>
      </trkpt>
      <trkpt lat="43.62134" lon="6.85393">
        <ele>197</ele>
        <time>2019-02-07T10:12:36.000Z</time>
      </trkpt>
      <trkpt lat="43.62135" lon="6.85392">
        <ele>196</ele>
        <time>2019-02-07T10:12:37.000Z</time>
      </trkpt>
      <trkpt lat="43.62136" lon="6.8539">
        <ele>196</ele>
        <time>2019-02-07T10:12:38.000Z</time>
      </trkpt>
      <trkpt lat="43.62136" lon="6.85388">
        <ele>195</ele>
        <time>2019-02-07T10:12:39.000Z</time>
      </trkpt>
      <trkpt lat="43.62137" lon="6.85387">
        <ele>195</ele>
        <time>2019-02-07T10:12:40.000Z</time>
      </trkpt>
      <trkpt lat="43.62138" lon="6.85386">
        <ele>194</ele>
        <time>2019-02-07T10:12:41.000Z</time>
      </trkpt>
      <trkpt lat="43.62139" lon="6.85384">
        <ele>194</ele>
        <time>2019-02-07T10:12:42.000Z</time>
      </trkpt>
      <trkpt lat="43.6214" lon="6.85383">
        <ele>194</ele>
        <time>2019-02-07T10:12:43.000Z</time>
      </trkpt>
      <trkpt lat="43.6214" lon="6.85382">
        <ele>194</ele>
        <time>2019-02-07T10:12:44.000Z</time>
      </trkpt>
      <trkpt lat="43.62141" lon="6.8538">
        <ele>193</ele>
        <time>2019-02-07T10:12:45.000Z</time>
      </trkpt>
      <trkpt lat="43.62142" lon="6.85379">
        <ele>193</ele>
        <time>2019-02-07T10:12:46.000Z</time>
      </trkpt>
      <trkpt lat="43.62143" lon="6.85377">
        <ele>193</ele>
        <time>2019-02-07T10:12:47.000Z</time>
      </trkpt>
      <trkpt lat="43.62143" lon="6.85376">
        <ele>192</ele>
        <time>2019-02-07T10:12:48.000Z</time>
      </trkpt>
      <trkpt lat="43.62144" lon="6.85374">
        <ele>192</ele>
        <time>2019-02-07T10:12:49.000Z</time>
      </trkpt>
      <trkpt lat="43.62145" lon="6.85373">
        <ele>192</ele>
        <time>2019-02-07T10:12:50.000Z</time>
      </trkpt>
      <trkpt lat="43.62146" lon="6.85372">
        <ele>192</ele>
        <time>2019-02-07T10:12:51.000Z</time>
      </trkpt>
      <trkpt lat="43.62146" lon="6.85371">
        <ele>191</ele>
        <time>2019-02-07T10:12:52.000Z</time>
      </trkpt>
      <trkpt lat="43.62147" lon="6.8537">
        <ele>191</ele>
        <time>2019-02-07T10:12:53.000Z</time>
      </trkpt>
      <trkpt lat="43.62148" lon="6.85368">
        <ele>191</ele>
        <time>2019-02-07T10:12:54.000Z</time>
      </trkpt>
      <trkpt lat="43.62148" lon="6.85367">
        <ele>191</ele>
        <time>2019-02-07T10:12:55.000Z</time>
      </trkpt>
      <trkpt lat="43.62149" lon="6.85365">
        <ele>192</ele>
        <time>2019-02-07T10:12:56.000Z</time>
      </trkpt>
      <trkpt lat="43.62149" lon="6.85364">
        <ele>191</ele>
        <time>2019-02-07T10:12:57.000Z</time>
      </trkpt>
      <trkpt lat="43.62149" lon="6.85362">
        <ele>191</ele>
        <time>2019-02-07T10:12:58.000Z</time>
      </trkpt>
      <trkpt lat="43.6215" lon="6.85361">
        <ele>191</ele>
        <time>2019-02-07T10:12:59.000Z</time>
      </trkpt>
      <trkpt lat="43.6215" lon="6.8536">
        <ele>190</ele>
        <time>2019-02-07T10:13:00.000Z</time>
      </trkpt>
      <trkpt lat="43.62151" lon="6.8536">
        <ele>190</ele>
        <time>2019-02-07T10:13:01.000Z</time>
      </trkpt>
      <trkpt lat="43.62152" lon="6.85359">
        <ele>189</ele>
        <time>2019-02-07T10:13:02.000Z</time>
      </trkpt>
      <trkpt lat="43.62152" lon="6.85357">
        <ele>190</ele>
        <time>2019-02-07T10:13:03.000Z</time>
      </trkpt>
      <trkpt lat="43.62152" lon="6.85356">
        <ele>189</ele>
        <time>2019-02-07T10:13:04.000Z</time>
      </trkpt>
      <trkpt lat="43.62153" lon="6.85354">
        <ele>189</ele>
        <time>2019-02-07T10:13:05.000Z</time>
      </trkpt>
      <trkpt lat="43.62154" lon="6.85353">
        <ele>189</ele>
        <time>2019-02-07T10:13:06.000Z</time>
      </trkpt>
      <trkpt lat="43.62155" lon="6.85351">
        <ele>189</ele>
        <time>2019-02-07T10:13:07.000Z</time>
      </trkpt>
      <trkpt lat="43.62156" lon="6.85349">
        <ele>190</ele>
        <time>2019-02-07T10:13:08.000Z</time>
      </trkpt>
      <trkpt lat="43.62156" lon="6.85347">
        <ele>189</ele>
        <time>2019-02-07T10:13:09.000Z</time>
      </trkpt>
      <trkpt lat="43.62156" lon="6.85346">
        <ele>189</ele>
        <time>2019-02-07T10:13:10.000Z</time>
      </trkpt>
      <trkpt lat="43.62156" lon="6.85344">
        <ele>188</ele>
        <time>2019-02-07T10:13:11.000Z</time>
      </trkpt>
      <trkpt lat="43.62157" lon="6.85343">
        <ele>187</ele>
        <time>2019-02-07T10:13:12.000Z</time>
      </trkpt>
      <trkpt lat="43.62157" lon="6.85341">
        <ele>187</ele>
        <time>2019-02-07T10:13:13.000Z</time>
      </trkpt>
      <trkpt lat="43.62157" lon="6.85339">
        <ele>186</ele>
        <time>2019-02-07T10:13:14.000Z</time>
      </trkpt>
      <trkpt lat="43.62158" lon="6.85337">
        <ele>186</ele>
        <time>2019-02-07T10:13:15.000Z</time>
      </trkpt>
      <trkpt lat="43.62158" lon="6.85335">
        <ele>186</ele>
        <time>2019-02-07T10:13:16.000Z</time>
      </trkpt>
      <trkpt lat="43.62159" lon="6.85333">
        <ele>185</ele>
        <time>2019-02-07T10:13:17.000Z</time>
      </trkpt>
      <trkpt lat="43.6216" lon="6.85332">
        <ele>184</ele>
        <time>2019-02-07T10:13:18.000Z</time>
      </trkpt>
      <trkpt lat="43.62161" lon="6.8533">
        <ele>185</ele>
        <time>2019-02-07T10:13:19.000Z</time>
      </trkpt>
      <trkpt lat="43.62162" lon="6.85328">
        <ele>186</ele>
        <time>2019-02-07T10:13:20.000Z</time>
      </trkpt>
      <trkpt lat="43.62162" lon="6.85326">
        <ele>185</ele>
        <time>2019-02-07T10:13:21.000Z</time>
      </trkpt>
      <trkpt lat="43.62163" lon="6.85324">
        <ele>185</ele>
        <time>2019-02-07T10:13:22.000Z</time>
      </trkpt>
      <trkpt lat="43.62164" lon="6.85323">
        <ele>185</ele>
        <time>2019-02-07T10:13:23.000Z</time>
      </trkpt>
      <trkpt lat="43.62165" lon="6.85321">
        <ele>185</ele>
        <time>2019-02-07T10:13:24.000Z</time>
      </trkpt>
      <trkpt lat="43.62166" lon="6.85319">
        <ele>185</ele>
        <time>2019-02-07T10:13:25.000Z</time>
      </trkpt>
      <trkpt lat="43.62167" lon="6.85317">
        <ele>185</ele>
        <time>2019-02-07T10:13:26.000Z</time>
      </trkpt>
      <trkpt lat="43.62168" lon="6.85315">
        <ele>185</ele>
        <time>2019-02-07T10:13:27.000Z</time>
      </trkpt>
      <trkpt lat="43.62169" lon="6.85313">
        <ele>184</ele>
        <time>2019-02-07T10:13:28.000Z</time>
      </trkpt>
      <trkpt lat="43.62171" lon="6.85311">
        <ele>184</ele>
        <time>2019-02-07T10:13:29.000Z</time>
      </trkpt>
      <trkpt lat="43.62172" lon="6.8531">
        <ele>184</ele>
        <time>2019-02-07T10:13:30.000Z</time>
      </trkpt>
      <trkpt lat="43.62173" lon="6.85308">
        <ele>184</ele>
        <time>2019-02-07T10:13:31.000Z</time>
      </trkpt>
      <trkpt lat="43.62175" lon="6.85306">
        <ele>184</ele>
        <time>2019-02-07T10:13:32.000Z</time>
      </trkpt>
      <trkpt lat="43.62176" lon="6.85304">
        <ele>184</ele>
        <time>2019-02-07T10:13:33.000Z</time>
      </trkpt>
      <trkpt lat="43.62177" lon="6.85302">
        <ele>183</ele>
        <time>2019-02-07T10:13:34.000Z</time>
      </trkpt>
      <trkpt lat="43.62178" lon="6.85301">
        <ele>183</ele>
        <time>2019-02-07T10:13:35.000Z</time>
      </trkpt>
      <trkpt lat="43.62179" lon="6.85299">
        <ele>183</ele>
        <time>2019-02-07T10:13:36.000Z</time>
      </trkpt>
      <trkpt lat="43.6218" lon="6.85298">
        <ele>182</ele>
        <time>2019-02-07T10:13:37.000Z</time>
      </trkpt>
      <trkpt lat="43.62181" lon="6.85296">
        <ele>181</ele>
        <time>2019-02-07T10:13:38.000Z</time>
      </trkpt>
      <trkpt lat="43.62182" lon="6.85295">
        <ele>180</ele>
        <time>2019-02-07T10:13:39.000Z</time>
      </trkpt>
      <trkpt lat="43.62183" lon="6.85293">
        <ele>180</ele>
        <time>2019-02-07T10:13:40.000Z</time>
      </trkpt>
      <trkpt lat="43.62183" lon="6.85292">
        <ele>180</ele>
        <time>2019-02-07T10:13:41.000Z</time>
      </trkpt>
      <trkpt lat="43.62184" lon="6.8529">
        <ele>180</ele>
        <time>2019-02-07T10:13:42.000Z</time>
      </trkpt>
      <trkpt lat="43.62185" lon="6.85289">
        <ele>179</ele>
        <time>2019-02-07T10:13:43.000Z</time>
      </trkpt>
      <trkpt lat="43.62186" lon="6.85288">
        <ele>179</ele>
        <time>2019-02-07T10:13:44.000Z</time>
      </trkpt>
      <trkpt lat="43.62186" lon="6.85287">
        <ele>179</ele>
        <time>2019-02-07T10:13:45.000Z</time>
      </trkpt>
      <trkpt lat="43.62187" lon="6.85286">
        <ele>179</ele>
        <time>2019-02-07T10:13:46.000Z</time>
      </trkpt>
      <trkpt lat="43.62187" lon="6.85285">
        <ele>179</ele>
        <time>2019-02-07T10:13:47.000Z</time>
      </trkpt>
      <trkpt lat="43.62188" lon="6.85284">
        <ele>178</ele>
        <time>2019-02-07T10:13:48.000Z</time>
      </trkpt>
      <trkpt lat="43.62189" lon="6.85283">
        <ele>178</ele>
        <time>2019-02-07T10:13:49.000Z</time>
      </trkpt>
      <trkpt lat="43.6219" lon="6.85282">
        <ele>178</ele>
        <time>2019-02-07T10:13:50.000Z</time>
      </trkpt>
      <trkpt lat="43.62191" lon="6.85281">
        <ele>178</ele>
        <time>2019-02-07T10:13:51.000Z</time>
      </trkpt>
      <trkpt lat="43.62191" lon="6.8528">
        <ele>177</ele>
        <time>2019-02-07T10:13:52.000Z</time>
      </trkpt>
      <trkpt lat="43.62191" lon="6.85278">
        <ele>176</ele>
        <time>2019-02-07T10:13:53.000Z</time>
      </trkpt>
      <trkpt lat="43.62191" lon="6.85277">
        <ele>177</ele>
        <time>2019-02-07T10:13:54.000Z</time>
      </trkpt>
      <trkpt lat="43.62192" lon="6.85275">
        <ele>177</ele>
        <time>2019-02-07T10:13:55.000Z</time>
      </trkpt>
      <trkpt lat="43.62192" lon="6.85274">
        <ele>176</ele>
        <time>2019-02-07T10:13:56.000Z</time>
      </trkpt>
      <trkpt lat="43.62193" lon="6.85273">
        <ele>175</ele>
        <time>2019-02-07T10:13:57.000Z</time>
      </trkpt>
      <trkpt lat="43.62193" lon="6.85273">
        <ele>176</ele>
        <time>2019-02-07T10:13:58.000Z</time>
      </trkpt>
      <trkpt lat="43.62194" lon="6.85272">
        <ele>175</ele>
        <time>2019-02-07T10:13:59.000Z</time>
      </trkpt>
      <trkpt lat="43.62194" lon="6.85271">
        <ele>174</ele>
        <time>2019-02-07T10:14:00.000Z</time>
      </trkpt>
      <trkpt lat="43.62195" lon="6.8527">
        <ele>174</ele>
        <time>2019-02-07T10:14:01.000Z</time>
      </trkpt>
      <trkpt lat="43.62195" lon="6.85269">
        <ele>173</ele>
        <time>2019-02-07T10:14:02.000Z</time>
      </trkpt>
      <trkpt lat="43.62196" lon="6.85268">
        <ele>173</ele>
        <time>2019-02-07T10:14:03.000Z</time>
      </trkpt>
      <trkpt lat="43.62196" lon="6.85267">
        <ele>173</ele>
        <time>2019-02-07T10:14:04.000Z</time>
      </trkpt>
      <trkpt lat="43.62197" lon="6.85266">
        <ele>172</ele>
        <time>2019-02-07T10:14:05.000Z</time>
      </trkpt>
      <trkpt lat="43.62197" lon="6.85265">
        <ele>172</ele>
        <time>2019-02-07T10:14:06.000Z</time>
      </trkpt>
      <trkpt lat="43.62197" lon="6.85264">
        <ele>172</ele>
        <time>2019-02-07T10:14:07.000Z</time>
      </trkpt>
      <trkpt lat="43.62198" lon="6.85263">
        <ele>172</ele>
        <time>2019-02-07T10:14:08.000Z</time>
      </trkpt>
      <trkpt lat="43.62198" lon="6.85262">
        <ele>172</ele>
        <time>2019-02-07T10:14:09.000Z</time>
      </trkpt>
      <trkpt lat="43.62199" lon="6.85261">
        <ele>172</ele>
        <time>2019-02-07T10:14:10.000Z</time>
      </trkpt>
      <trkpt lat="43.62199" lon="6.8526">
        <ele>172</ele>
        <time>2019-02-07T10:14:11.000Z</time>
      </trkpt>
      <trkpt lat="43.62199" lon="6.85259">
        <ele>171</ele>
        <time>2019-02-07T10:14:12.000Z</time>
      </trkpt>
      <trkpt lat="43.622" lon="6.85258">
        <ele>171</ele>
        <time>2019-02-07T10:14:13.000Z</time>
      </trkpt>
      <trkpt lat="43.622" lon="6.85257">
        <ele>171</ele>
        <time>2019-02-07T10:14:14.000Z</time>
      </trkpt>
      <trkpt lat="43.62201" lon="6.85256">
        <ele>169</ele>
        <time>2019-02-07T10:14:15.000Z</time>
      </trkpt>
      <trkpt lat="43.62201" lon="6.85254">
        <ele>169</ele>
        <time>2019-02-07T10:14:16.000Z</time>
      </trkpt>
      <trkpt lat="43.62202" lon="6.85253">
        <ele>169</ele>
        <time>2019-02-07T10:14:17.000Z</time>
      </trkpt>
      <trkpt lat="43.62202" lon="6.85252">
        <ele>168</ele>
        <time>2019-02-07T10:14:18.000Z</time>
      </trkpt>
      <trkpt lat="43.62203" lon="6.85251">
        <ele>168</ele>
        <time>2019-02-07T10:14:19.000Z</time>
      </trkpt>
      <trkpt lat="43.62203" lon="6.8525">
        <ele>168</ele>
        <time>2019-02-07T10:14:20.000Z</time>
      </trkpt>
      <trkpt lat="43.62204" lon="6.85249">
        <ele>167</ele>
        <time>2019-02-07T10:14:21.000Z</time>
      </trkpt>
      <trkpt lat="43.62204" lon="6.85248">
        <ele>166</ele>
        <time>2019-02-07T10:14:22.000Z</time>
      </trkpt>
      <trkpt lat="43.62205" lon="6.85247">
        <ele>166</ele>
        <time>2019-02-07T10:14:23.000Z</time>
      </trkpt>
      <trkpt lat="43.62206" lon="6.85246">
        <ele>166</ele>
        <time>2019-02-07T10:14:24.000Z</time>
      </trkpt>
      <trkpt lat="43.62206" lon="6.85246">
        <ele>166</ele>
        <time>2019-02-07T10:14:25.000Z</time>
      </trkpt>
      <trkpt lat="43.62206" lon="6.85245">
        <ele>166</ele>
        <time>2019-02-07T10:14:26.000Z</time>
      </trkpt>
      <trkpt lat="43.62206" lon="6.85244">
        <ele>167</ele>
        <time>2019-02-07T10:14:27.000Z</time>
      </trkpt>
      <trkpt lat="43.62206" lon="6.85243">
        <ele>167</ele>
        <time>2019-02-07T10:14:28.000Z</time>
      </trkpt>
      <trkpt lat="43.62206" lon="6.85242">
        <ele>167</ele>
        <time>2019-02-07T10:14:29.000Z</time>
      </trkpt>
      <trkpt lat="43.62205" lon="6.85241">
        <ele>167</ele>
        <time>2019-02-07T10:14:30.000Z</time>
      </trkpt>
      <trkpt lat="43.62205" lon="6.8524">
        <ele>167</ele>
        <time>2019-02-07T10:14:31.000Z</time>
      </trkpt>
      <trkpt lat="43.62204" lon="6.85238">
        <ele>167</ele>
        <time>2019-02-07T10:14:32.000Z</time>
      </trkpt>
      <trkpt lat="43.62204" lon="6.85237">
        <ele>166</ele>
        <time>2019-02-07T10:14:33.000Z</time>
      </trkpt>
      <trkpt lat="43.62203" lon="6.85236">
        <ele>165</ele>
        <time>2019-02-07T10:14:34.000Z</time>
      </trkpt>
      <trkpt lat="43.62203" lon="6.85235">
        <ele>165</ele>
        <time>2019-02-07T10:14:35.000Z</time>
      </trkpt>
      <trkpt lat="43.62202" lon="6.85234">
        <ele>165</ele>
        <time>2019-02-07T10:14:36.000Z</time>
      </trkpt>
      <trkpt lat="43.62201" lon="6.85233">
        <ele>164</ele>
        <time>2019-02-07T10:14:37.000Z</time>
      </trkpt>
      <trkpt lat="43.62199" lon="6.85231">
        <ele>164</ele>
        <time>2019-02-07T10:14:38.000Z</time>
      </trkpt>
      <trkpt lat="43.62198" lon="6.85229">
        <ele>166</ele>
        <time>2019-02-07T10:14:39.000Z</time>
      </trkpt>
      <trkpt lat="43.62196" lon="6.85228">
        <ele>165</ele>
        <time>2019-02-07T10:14:40.000Z</time>
      </trkpt>
      <trkpt lat="43.62195" lon="6.85227">
        <ele>165</ele>
        <time>2019-02-07T10:14:41.000Z</time>
      </trkpt>
      <trkpt lat="43.62194" lon="6.85225">
        <ele>165</ele>
        <time>2019-02-07T10:14:42.000Z</time>
      </trkpt>
      <trkpt lat="43.62193" lon="6.85224">
        <ele>164</ele>
        <time>2019-02-07T10:14:43.000Z</time>
      </trkpt>
      <trkpt lat="43.62191" lon="6.85222">
        <ele>164</ele>
        <time>2019-02-07T10:14:44.000Z</time>
      </trkpt>
      <trkpt lat="43.6219" lon="6.8522">
        <ele>164</ele>
        <time>2019-02-07T10:14:45.000Z</time>
      </trkpt>
      <trkpt lat="43.62189" lon="6.85219">
        <ele>164</ele>
        <time>2019-02-07T10:14:46.000Z</time>
      </trkpt>
      <trkpt lat="43.62188" lon="6.85217">
        <ele>164</ele>
        <time>2019-02-07T10:14:47.000Z</time>
      </trkpt>
      <trkpt lat="43.62187" lon="6.85215">
        <ele>163</ele>
        <time>2019-02-07T10:14:48.000Z</time>
      </trkpt>
      <trkpt lat="43.62185" lon="6.85214">
        <ele>162</ele>
        <time>2019-02-07T10:14:49.000Z</time>
      </trkpt>
      <trkpt lat="43.62184" lon="6.85212">
        <ele>162</ele>
        <time>2019-02-07T10:14:50.000Z</time>
      </trkpt>
      <trkpt lat="43.62183" lon="6.8521">
        <ele>162</ele>
        <time>2019-02-07T10:14:51.000Z</time>
      </trkpt>
      <trkpt lat="43.62182" lon="6.85209">
        <ele>160</ele>
        <time>2019-02-07T10:14:52.000Z</time>
      </trkpt>
      <trkpt lat="43.6218" lon="6.85208">
        <ele>161</ele>
        <time>2019-02-07T10:14:53.000Z</time>
      </trkpt>
      <trkpt lat="43.62178" lon="6.85206">
        <ele>161</ele>
        <time>2019-02-07T10:14:54.000Z</time>
      </trkpt>
      <trkpt lat="43.62177" lon="6.85205">
        <ele>161</ele>
        <time>2019-02-07T10:14:55.000Z</time>
      </trkpt>
      <trkpt lat="43.62176" lon="6.85203">
        <ele>161</ele>
        <time>2019-02-07T10:14:56.000Z</time>
      </trkpt>
      <trkpt lat="43.62174" lon="6.85203">
        <ele>161</ele>
        <time>2019-02-07T10:14:57.000Z</time>
      </trkpt>
      <trkpt lat="43.62173" lon="6.85202">
        <ele>162</ele>
        <time>2019-02-07T10:14:58.000Z</time>
      </trkpt>
      <trkpt lat="43.62172" lon="6.85201">
        <ele>162</ele>
        <time>2019-02-07T10:14:59.000Z</time>
      </trkpt>
      <trkpt lat="43.62171" lon="6.85201">
        <ele>162</ele>
        <time>2019-02-07T10:15:00.000Z</time>
      </trkpt>
      <trkpt lat="43.6217" lon="6.852">
        <ele>162</ele>
        <time>2019-02-07T10:15:01.000Z</time>
      </trkpt>
      <trkpt lat="43.62169" lon="6.85199">
        <ele>161</ele>
        <time>2019-02-07T10:15:02.000Z</time>
      </trkpt>
      <trkpt lat="43.62168" lon="6.85198">
        <ele>160</ele>
        <time>2019-02-07T10:15:03.000Z</time>
      </trkpt>
      <trkpt lat="43.62168" lon="6.85197">
        <ele>160</ele>
        <time>2019-02-07T10:15:04.000Z</time>
      </trkpt>
      <trkpt lat="43.62168" lon="6.85196">
        <ele>160</ele>
        <time>2019-02-07T10:15:05.000Z</time>
      </trkpt>
      <trkpt lat="43.62167" lon="6.85195">
        <ele>160</ele>
        <time>2019-02-07T10:15:06.000Z</time>
      </trkpt>
      <trkpt lat="43.62167" lon="6.85194">
        <ele>161</ele>
        <time>2019-02-07T10:15:07.000Z</time>
      </trkpt>
      <trkpt lat="43.62166" lon="6.85194">
        <ele>161</ele>
        <time>2019-02-07T10:15:08.000Z</time>
      </trkpt>
      <trkpt lat="43.62165" lon="6.85192">
        <ele>160</ele>
        <time>2019-02-07T10:15:09.000Z</time>
      </trkpt>
      <trkpt lat="43.62165" lon="6.85191">
        <ele>160</ele>
        <time>2019-02-07T10:15:10.000Z</time>
      </trkpt>
      <trkpt lat="43.62165" lon="6.8519">
        <ele>160</ele>
        <time>2019-02-07T10:15:11.000Z</time>
      </trkpt>
      <trkpt lat="43.62165" lon="6.85189">
        <ele>160</ele>
        <time>2019-02-07T10:15:12.000Z</time>
      </trkpt>
      <trkpt lat="43.62165" lon="6.85188">
        <ele>159</ele>
        <time>2019-02-07T10:15:13.000Z</time>
      </trkpt>
      <trkpt lat="43.62165" lon="6.85187">
        <ele>158</ele>
        <time>2019-02-07T10:15:14.000Z</time>
      </trkpt>
      <trkpt lat="43.62165" lon="6.85186">
        <ele>158</ele>
        <time>2019-02-07T10:15:15.000Z</time>
      </trkpt>
      <trkpt lat="43.62164" lon="6.85185">
        <ele>158</ele>
        <time>2019-02-07T10:15:16.000Z</time>
      </trkpt>
      <trkpt lat="43.62164" lon="6.85184">
        <ele>157</ele>
        <time>2019-02-07T10:15:17.000Z</time>
      </trkpt>
      <trkpt lat="43.62164" lon="6.85183">
        <ele>156</ele>
        <time>2019-02-07T10:15:18.000Z</time>
      </trkpt>
      <trkpt lat="43.62165" lon="6.85182">
        <ele>156</ele>
        <time>2019-02-07T10:15:19.000Z</time>
      </trkpt>
      <trkpt lat="43.62164" lon="6.85181">
        <ele>156</ele>
        <time>2019-02-07T10:15:20.000Z</time>
      </trkpt>
      <trkpt lat="43.62164" lon="6.8518">
        <ele>156</ele>
        <time>2019-02-07T10:15:21.000Z</time>
      </trkpt>
      <trkpt lat="43.62163" lon="6.85178">
        <ele>156</ele>
        <time>2019-02-07T10:15:22.000Z</time>
      </trkpt>
      <trkpt lat="43.62162" lon="6.85177">
        <ele>155</ele>
        <time>2019-02-07T10:15:23.000Z</time>
      </trkpt>
      <trkpt lat="43.62162" lon="6.85176">
        <ele>155</ele>
        <time>2019-02-07T10:15:24.000Z</time>
      </trkpt>
      <trkpt lat="43.62161" lon="6.85174">
        <ele>154</ele>
        <time>2019-02-07T10:15:25.000Z</time>
      </trkpt>
      <trkpt lat="43.62161" lon="6.85173">
        <ele>153</ele>
        <time>2019-02-07T10:15:26.000Z</time>
      </trkpt>
      <trkpt lat="43.6216" lon="6.85171">
        <ele>153</ele>
        <time>2019-02-07T10:15:27.000Z</time>
      </trkpt>
      <trkpt lat="43.62159" lon="6.8517">
        <ele>153</ele>
        <time>2019-02-07T10:15:28.000Z</time>
      </trkpt>
      <trkpt lat="43.62158" lon="6.85169">
        <ele>152</ele>
        <time>2019-02-07T10:15:29.000Z</time>
      </trkpt>
      <trkpt lat="43.62158" lon="6.85169">
        <ele>153</ele>
        <time>2019-02-07T10:15:30.000Z</time>
      </trkpt>
      <trkpt lat="43.62157" lon="6.85168">
        <ele>153</ele>
        <time>2019-02-07T10:15:31.000Z</time>
      </trkpt>
      <trkpt lat="43.62156" lon="6.85168">
        <ele>153</ele>
        <time>2019-02-07T10:15:32.000Z</time>
      </trkpt>
      <trkpt lat="43.62156" lon="6.85168">
        <ele>153</ele>
        <time>2019-02-07T10:15:33.000Z</time>
      </trkpt>
      <trkpt lat="43.62156" lon="6.85167">
        <ele>153</ele>
        <time>2019-02-07T10:15:34.000Z</time>
      </trkpt>
      <trkpt lat="43.62156" lon="6.85166">
        <ele>152</ele>
        <time>2019-02-07T10:15:35.000Z</time>
      </trkpt>
      <trkpt lat="43.62156" lon="6.85164">
        <ele>151</ele>
        <time>2019-02-07T10:15:36.000Z</time>
      </trkpt>
      <trkpt lat="43.62157" lon="6.85163">
        <ele>150</ele>
        <time>2019-02-07T10:15:37.000Z</time>
      </trkpt>
      <trkpt lat="43.62157" lon="6.85162">
        <ele>150</ele>
        <time>2019-02-07T10:15:38.000Z</time>
      </trkpt>
      <trkpt lat="43.62158" lon="6.85161">
        <ele>150</ele>
        <time>2019-02-07T10:15:39.000Z</time>
      </trkpt>
      <trkpt lat="43.62158" lon="6.8516">
        <ele>149</ele>
        <time>2019-02-07T10:15:40.000Z</time>
      </trkpt>
      <trkpt lat="43.62159" lon="6.85158">
        <ele>149</ele>
        <time>2019-02-07T10:15:41.000Z</time>
      </trkpt>
      <trkpt lat="43.6216" lon="6.85157">
        <ele>148</ele>
        <time>2019-02-07T10:15:42.000Z</time>
      </trkpt>
      <trkpt lat="43.6216" lon="6.85156">
        <ele>147</ele>
        <time>2019-02-07T10:15:43.000Z</time>
      </trkpt>
      <trkpt lat="43.62161" lon="6.85155">
        <ele>147</ele>
        <time>2019-02-07T10:15:44.000Z</time>
      </trkpt>
      <trkpt lat="43.62161" lon="6.85154">
        <ele>146</ele>
        <time>2019-02-07T10:15:45.000Z</time>
      </trkpt>
      <trkpt lat="43.62162" lon="6.85153">
        <ele>146</ele>
        <time>2019-02-07T10:15:46.000Z</time>
      </trkpt>
      <trkpt lat="43.62162" lon="6.85152">
        <ele>145</ele>
        <time>2019-02-07T10:15:47.000Z</time>
      </trkpt>
      <trkpt lat="43.62162" lon="6.85151">
        <ele>145</ele>
        <time>2019-02-07T10:15:48.000Z</time>
      </trkpt>
      <trkpt lat="43.62163" lon="6.8515">
        <ele>145</ele>
        <time>2019-02-07T10:15:49.000Z</time>
      </trkpt>
      <trkpt lat="43.62163" lon="6.85149">
        <ele>145</ele>
        <time>2019-02-07T10:15:50.000Z</time>
      </trkpt>
      <trkpt lat="43.62163" lon="6.8515">
        <ele>145</ele>
        <time>2019-02-07T10:15:51.000Z</time>
      </trkpt>
      <trkpt lat="43.62163" lon="6.8515">
        <ele>146</ele>
        <time>2019-02-07T10:15:52.000Z</time>
      </trkpt>
      <trkpt lat="43.62164" lon="6.85149">
        <ele>145</ele>
        <time>2019-02-07T10:15:53.000Z</time>
      </trkpt>
      <trkpt lat="43.62164" lon="6.85149">
        <ele>144</ele>
        <time>2019-02-07T10:15:54.000Z</time>
      </trkpt>
      <trkpt lat="43.62164" lon="6.85148">
        <ele>144</ele>
        <time>2019-02-07T10:15:55.000Z</time>
      </trkpt>
      <trkpt lat="43.62165" lon="6.85147">
        <ele>145</ele>
        <time>2019-02-07T10:15:56.000Z</time>
      </trkpt>
      <trkpt lat="43.62165" lon="6.85147">
        <ele>145</ele>
        <time>2019-02-07T10:15:57.000Z</time>
      </trkpt>
      <trkpt lat="43.62165" lon="6.85147">
        <ele>146</ele>
        <time>2019-02-07T10:15:58.000Z</time>
      </trkpt>
      <trkpt lat="43.62166" lon="6.85147">
        <ele>146</ele>
        <time>2019-02-07T10:15:59.000Z</time>
      </trkpt>
      <trkpt lat="43.62166" lon="6.85147">
        <ele>147</ele>
        <time>2019-02-07T10:16:00.000Z</time>
      </trkpt>
      <trkpt lat="43.62167" lon="6.85146">
        <ele>146</ele>
        <time>2019-02-07T10:16:01.000Z</time>
      </trkpt>
      <trkpt lat="43.62168" lon="6.85146">
        <ele>145</ele>
        <time>2019-02-07T10:16:02.000Z</time>
      </trkpt>
      <trkpt lat="43.62169" lon="6.85147">
        <ele>146</ele>
        <time>2019-02-07T10:16:03.000Z</time>
      </trkpt>
      <trkpt lat="43.62171" lon="6.85148">
        <ele>147</ele>
        <time>2019-02-07T10:16:04.000Z</time>
      </trkpt>
      <trkpt lat="43.62172" lon="6.85149">
        <ele>147</ele>
        <time>2019-02-07T10:16:05.000Z</time>
      </trkpt>
      <trkpt lat="43.62173" lon="6.8515">
        <ele>147</ele>
        <time>2019-02-07T10:16:06.000Z</time>
      </trkpt>
      <trkpt lat="43.62175" lon="6.85151">
        <ele>146</ele>
        <time>2019-02-07T10:16:07.000Z</time>
      </trkpt>
      <trkpt lat="43.62176" lon="6.85152">
        <ele>146</ele>
        <time>2019-02-07T10:16:08.000Z</time>
      </trkpt>
      <trkpt lat="43.62178" lon="6.85153">
        <ele>147</ele>
        <time>2019-02-07T10:16:09.000Z</time>
      </trkpt>
      <trkpt lat="43.62179" lon="6.85155">
        <ele>147</ele>
        <time>2019-02-07T10:16:10.000Z</time>
      </trkpt>
      <trkpt lat="43.6218" lon="6.85156">
        <ele>147</ele>
        <time>2019-02-07T10:16:11.000Z</time>
      </trkpt>
      <trkpt lat="43.62181" lon="6.85157">
        <ele>147</ele>
        <time>2019-02-07T10:16:12.000Z</time>
      </trkpt>
      <trkpt lat="43.62182" lon="6.85158">
        <ele>148</ele>
        <time>2019-02-07T10:16:13.000Z</time>
      </trkpt>
      <trkpt lat="43.62182" lon="6.85159">
        <ele>148</ele>
        <time>2019-02-07T10:16:14.000Z</time>
      </trkpt>
      <trkpt lat="43.62183" lon="6.85159">
        <ele>149</ele>
        <time>2019-02-07T10:16:15.000Z</time>
      </trkpt>
      <trkpt lat="43.62184" lon="6.85159">
        <ele>149</ele>
        <time>2019-02-07T10:16:16.000Z</time>
      </trkpt>
      <trkpt lat="43.62185" lon="6.85159">
        <ele>150</ele>
        <time>2019-02-07T10:16:17.000Z</time>
      </trkpt>
      <trkpt lat="43.62186" lon="6.8516">
        <ele>151</ele>
        <time>2019-02-07T10:16:18.000Z</time>
      </trkpt>
      <trkpt lat="43.62187" lon="6.8516">
        <ele>151</ele>
        <time>2019-02-07T10:16:19.000Z</time>
      </trkpt>
      <trkpt lat="43.62188" lon="6.85161">
        <ele>152</ele>
        <time>2019-02-07T10:16:20.000Z</time>
      </trkpt>
      <trkpt lat="43.62189" lon="6.85162">
        <ele>152</ele>
        <time>2019-02-07T10:16:21.000Z</time>
      </trkpt>
      <trkpt lat="43.6219" lon="6.85163">
        <ele>152</ele>
        <time>2019-02-07T10:16:22.000Z</time>
      </trkpt>
      <trkpt lat="43.62191" lon="6.85164">
        <ele>152</ele>
        <time>2019-02-07T10:16:23.000Z</time>
      </trkpt>
      <trkpt lat="43.62193" lon="6.85165">
        <ele>153</ele>
        <time>2019-02-07T10:16:24.000Z</time>
      </trkpt>
      <trkpt lat="43.62194" lon="6.85166">
        <ele>153</ele>
        <time>2019-02-07T10:16:25.000Z</time>
      </trkpt>
      <trkpt lat="43.62194" lon="6.85167">
        <ele>153</ele>
        <time>2019-02-07T10:16:26.000Z</time>
      </trkpt>
      <trkpt lat="43.62195" lon="6.85168">
        <ele>153</ele>
        <time>2019-02-07T10:16:27.000Z</time>
      </trkpt>
      <trkpt lat="43.62196" lon="6.85169">
        <ele>152</ele>
        <time>2019-02-07T10:16:28.000Z</time>
      </trkpt>
      <trkpt lat="43.62197" lon="6.85169">
        <ele>152</ele>
        <time>2019-02-07T10:16:29.000Z</time>
      </trkpt>
      <trkpt lat="43.62198" lon="6.8517">
        <ele>152</ele>
        <time>2019-02-07T10:16:30.000Z</time>
      </trkpt>
      <trkpt lat="43.62198" lon="6.85171">
        <ele>152</ele>
        <time>2019-02-07T10:16:31.000Z</time>
      </trkpt>
      <trkpt lat="43.62199" lon="6.85172">
        <ele>152</ele>
        <time>2019-02-07T10:16:32.000Z</time>
      </trkpt>
      <trkpt lat="43.622" lon="6.85172">
        <ele>153</ele>
        <time>2019-02-07T10:16:33.000Z</time>
      </trkpt>
      <trkpt lat="43.62201" lon="6.85172">
        <ele>152</ele>
        <time>2019-02-07T10:16:34.000Z</time>
      </trkpt>
      <trkpt lat="43.62201" lon="6.85172">
        <ele>151</ele>
        <time>2019-02-07T10:16:35.000Z</time>
      </trkpt>
      <trkpt lat="43.62201" lon="6.85171">
        <ele>150</ele>
        <time>2019-02-07T10:16:36.000Z</time>
      </trkpt>
      <trkpt lat="43.62201" lon="6.85171">
        <ele>150</ele>
        <time>2019-02-07T10:16:37.000Z</time>
      </trkpt>
      <trkpt lat="43.622" lon="6.85171">
        <ele>150</ele>
        <time>2019-02-07T10:16:38.000Z</time>
      </trkpt>
      <trkpt lat="43.622" lon="6.8517">
        <ele>152</ele>
        <time>2019-02-07T10:16:39.000Z</time>
      </trkpt>
      <trkpt lat="43.62199" lon="6.8517">
        <ele>152</ele>
        <time>2019-02-07T10:16:40.000Z</time>
      </trkpt>
      <trkpt lat="43.62198" lon="6.85169">
        <ele>151</ele>
        <time>2019-02-07T10:16:41.000Z</time>
      </trkpt>
      <trkpt lat="43.62198" lon="6.85169">
        <ele>151</ele>
        <time>2019-02-07T10:16:42.000Z</time>
      </trkpt>
      <trkpt lat="43.62198" lon="6.85168">
        <ele>151</ele>
        <time>2019-02-07T10:16:43.000Z</time>
      </trkpt>
      <trkpt lat="43.62197" lon="6.85168">
        <ele>152</ele>
        <time>2019-02-07T10:16:44.000Z</time>
      </trkpt>
      <trkpt lat="43.62197" lon="6.85168">
        <ele>154</ele>
        <time>2019-02-07T10:16:45.000Z</time>
      </trkpt>
      <trkpt lat="43.62196" lon="6.85167">
        <ele>154</ele>
        <time>2019-02-07T10:16:46.000Z</time>
      </trkpt>
      <trkpt lat="43.62196" lon="6.85167">
        <ele>156</ele>
        <time>2019-02-07T10:16:47.000Z</time>
      </trkpt>
      <trkpt lat="43.62195" lon="6.85166">
        <ele>157</ele>
        <time>2019-02-07T10:16:48.000Z</time>
      </trkpt>
      <trkpt lat="43.62195" lon="6.85165">
        <ele>158</ele>
        <time>2019-02-07T10:16:49.000Z</time>
      </trkpt>
      <trkpt lat="43.62195" lon="6.85165">
        <ele>158</ele>
        <time>2019-02-07T10:16:50.000Z</time>
      </trkpt>
      <trkpt lat="43.62195" lon="6.85164">
        <ele>158</ele>
        <time>2019-02-07T10:16:51.000Z</time>
      </trkpt>
      <trkpt lat="43.62195" lon="6.85163">
        <ele>157</ele>
        <time>2019-02-07T10:16:52.000Z</time>
      </trkpt>
      <trkpt lat="43.62195" lon="6.85162">
        <ele>157</ele>
        <time>2019-02-07T10:16:53.000Z</time>
      </trkpt>
      <trkpt lat="43.62196" lon="6.85162">
        <ele>157</ele>
        <time>2019-02-07T10:16:54.000Z</time>
      </trkpt>
      <trkpt lat="43.62197" lon="6.85161">
        <ele>158</ele>
        <time>2019-02-07T10:16:55.000Z</time>
      </trkpt>
      <trkpt lat="43.62197" lon="6.85161">
        <ele>158</ele>
        <time>2019-02-07T10:16:56.000Z</time>
      </trkpt>
      <trkpt lat="43.62198" lon="6.8516">
        <ele>158</ele>
        <time>2019-02-07T10:16:57.000Z</time>
      </trkpt>
      <trkpt lat="43.62199" lon="6.85159">
        <ele>159</ele>
        <time>2019-02-07T10:16:58.000Z</time>
      </trkpt>
      <trkpt lat="43.622" lon="6.85159">
        <ele>159</ele>
        <time>2019-02-07T10:16:59.000Z</time>
      </trkpt>
      <trkpt lat="43.622" lon="6.85159">
        <ele>160</ele>
        <time>2019-02-07T10:17:00.000Z</time>
      </trkpt>
      <trkpt lat="43.62201" lon="6.85158">
        <ele>160</ele>
        <time>2019-02-07T10:17:01.000Z</time>
      </trkpt>
      <trkpt lat="43.62201" lon="6.85158">
        <ele>160</ele>
        <time>2019-02-07T10:17:02.000Z</time>
      </trkpt>
      <trkpt lat="43.62201" lon="6.85158">
        <ele>160</ele>
        <time>2019-02-07T10:17:03.000Z</time>
      </trkpt>
      <trkpt lat="43.62201" lon="6.85158">
        <ele>161</ele>
        <time>2019-02-07T10:17:04.000Z</time>
      </trkpt>
      <trkpt lat="43.62201" lon="6.85158">
        <ele>161</ele>
        <time>2019-02-07T10:17:05.000Z</time>
      </trkpt>
      <trkpt lat="43.62202" lon="6.85157">
        <ele>161</ele>
        <time>2019-02-07T10:17:06.000Z</time>
      </trkpt>
      <trkpt lat="43.62202" lon="6.85157">
        <ele>162</ele>
        <time>2019-02-07T10:17:07.000Z</time>
      </trkpt>
      <trkpt lat="43.62202" lon="6.85156">
        <ele>162</ele>
        <time>2019-02-07T10:17:08.000Z</time>
      </trkpt>
      <trkpt lat="43.62202" lon="6.85156">
        <ele>163</ele>
        <time>2019-02-07T10:17:09.000Z</time>
      </trkpt>
      <trkpt lat="43.62202" lon="6.85155">
        <ele>164</ele>
        <time>2019-02-07T10:17:10.000Z</time>
      </trkpt>
      <trkpt lat="43.62202" lon="6.85155">
        <ele>165</ele>
        <time>2019-02-07T10:17:11.000Z</time>
      </trkpt>
      <trkpt lat="43.62202" lon="6.85155">
        <ele>165</ele>
        <time>2019-02-07T10:17:12.000Z</time>
      </trkpt>
      <trkpt lat="43.62202" lon="6.85155">
        <ele>166</ele>
        <time>2019-02-07T10:17:13.000Z</time>
      </trkpt>
      <trkpt lat="43.62203" lon="6.85155">
        <ele>165</ele>
        <time>2019-02-07T10:17:14.000Z</time>
      </trkpt>
      <trkpt lat="43.62203" lon="6.85155">
        <ele>166</ele>
        <time>2019-02-07T10:17:15.000Z</time>
      </trkpt>
      <trkpt lat="43.62204" lon="6.85156">
        <ele>167</ele>
        <time>2019-02-07T10:17:16.000Z</time>
      </trkpt>
      <trkpt lat="43.62204" lon="6.85156">
        <ele>167</ele>
        <time>2019-02-07T10:17:17.000Z</time>
      </trkpt>
      <trkpt lat="43.62205" lon="6.85157">
        <ele>166</ele>
        <time>2019-02-07T10:17:18.000Z</time>
      </trkpt>
      <trkpt lat="43.62206" lon="6.85157">
        <ele>166</ele>
        <time>2019-02-07T10:17:19.000Z</time>
      </trkpt>
      <trkpt lat="43.62207" lon="6.85157">
        <ele>166</ele>
        <time>2019-02-07T10:17:20.000Z</time>
      </trkpt>
      <trkpt lat="43.62207" lon="6.85157">
        <ele>166</ele>
        <time>2019-02-07T10:17:21.000Z</time>
      </trkpt>
      <trkpt lat="43.62208" lon="6.85157">
        <ele>167</ele>
        <time>2019-02-07T10:17:22.000Z</time>
      </trkpt>
      <trkpt lat="43.62209" lon="6.85157">
        <ele>167</ele>
        <time>2019-02-07T10:17:23.000Z</time>
      </trkpt>
      <trkpt lat="43.62209" lon="6.85157">
        <ele>167</ele>
        <time>2019-02-07T10:17:24.000Z</time>
      </trkpt>
      <trkpt lat="43.6221" lon="6.85157">
        <ele>167</ele>
        <time>2019-02-07T10:17:25.000Z</time>
      </trkpt>
      <trkpt lat="43.62211" lon="6.85157">
        <ele>167</ele>
        <time>2019-02-07T10:17:26.000Z</time>
      </trkpt>
      <trkpt lat="43.62211" lon="6.85157">
        <ele>167</ele>
        <time>2019-02-07T10:17:27.000Z</time>
      </trkpt>
      <trkpt lat="43.62212" lon="6.85157">
        <ele>167</ele>
        <time>2019-02-07T10:17:28.000Z</time>
      </trkpt>
      <trkpt lat="43.62213" lon="6.85157">
        <ele>166</ele>
        <time>2019-02-07T10:17:29.000Z</time>
      </trkpt>
      <trkpt lat="43.62213" lon="6.85157">
        <ele>166</ele>
        <time>2019-02-07T10:17:30.000Z</time>
      </trkpt>
      <trkpt lat="43.62214" lon="6.85156">
        <ele>165</ele>
        <time>2019-02-07T10:17:31.000Z</time>
      </trkpt>
      <trkpt lat="43.62214" lon="6.85155">
        <ele>166</ele>
        <time>2019-02-07T10:17:32.000Z</time>
      </trkpt>
      <trkpt lat="43.62214" lon="6.85155">
        <ele>165</ele>
        <time>2019-02-07T10:17:33.000Z</time>
      </trkpt>
      <trkpt lat="43.62214" lon="6.85154">
        <ele>166</ele>
        <time>2019-02-07T10:17:34.000Z</time>
      </trkpt>
      <trkpt lat="43.62214" lon="6.85154">
        <ele>166</ele>
        <time>2019-02-07T10:17:35.000Z</time>
      </trkpt>
      <trkpt lat="43.62213" lon="6.85153">
        <ele>167</ele>
        <time>2019-02-07T10:17:36.000Z</time>
      </trkpt>
      <trkpt lat="43.62212" lon="6.85153">
        <ele>167</ele>
        <time>2019-02-07T10:17:37.000Z</time>
      </trkpt>
      <trkpt lat="43.62211" lon="6.85152">
        <ele>167</ele>
        <time>2019-02-07T10:17:38.000Z</time>
      </trkpt>
      <trkpt lat="43.62211" lon="6.85152">
        <ele>167</ele>
        <time>2019-02-07T10:17:39.000Z</time>
      </trkpt>
      <trkpt lat="43.62209" lon="6.85151">
        <ele>167</ele>
        <time>2019-02-07T10:17:40.000Z</time>
      </trkpt>
      <trkpt lat="43.62208" lon="6.8515">
        <ele>167</ele>
        <time>2019-02-07T10:17:41.000Z</time>
      </trkpt>
      <trkpt lat="43.62208" lon="6.85149">
        <ele>168</ele>
        <time>2019-02-07T10:17:42.000Z</time>
      </trkpt>
      <trkpt lat="43.62207" lon="6.85148">
        <ele>168</ele>
        <time>2019-02-07T10:17:43.000Z</time>
      </trkpt>
      <trkpt lat="43.62206" lon="6.85148">
        <ele>169</ele>
        <time>2019-02-07T10:17:44.000Z</time>
      </trkpt>
      <trkpt lat="43.62205" lon="6.85147">
        <ele>169</ele>
        <time>2019-02-07T10:17:45.000Z</time>
      </trkpt>
      <trkpt lat="43.62205" lon="6.85146">
        <ele>169</ele>
        <time>2019-02-07T10:17:46.000Z</time>
      </trkpt>
      <trkpt lat="43.62204" lon="6.85145">
        <ele>169</ele>
        <time>2019-02-07T10:17:47.000Z</time>
      </trkpt>
      <trkpt lat="43.62204" lon="6.85144">
        <ele>169</ele>
        <time>2019-02-07T10:17:48.000Z</time>
      </trkpt>
      <trkpt lat="43.62203" lon="6.85143">
        <ele>169</ele>
        <time>2019-02-07T10:17:49.000Z</time>
      </trkpt>
      <trkpt lat="43.62203" lon="6.85142">
        <ele>169</ele>
        <time>2019-02-07T10:17:50.000Z</time>
      </trkpt>
      <trkpt lat="43.62202" lon="6.85142">
        <ele>169</ele>
        <time>2019-02-07T10:17:51.000Z</time>
      </trkpt>
      <trkpt lat="43.62201" lon="6.8514">
        <ele>168</ele>
        <time>2019-02-07T10:17:52.000Z</time>
      </trkpt>
      <trkpt lat="43.622" lon="6.85139">
        <ele>168</ele>
        <time>2019-02-07T10:17:53.000Z</time>
      </trkpt>
      <trkpt lat="43.62199" lon="6.85138">
        <ele>168</ele>
        <time>2019-02-07T10:17:54.000Z</time>
      </trkpt>
      <trkpt lat="43.62198" lon="6.85137">
        <ele>168</ele>
        <time>2019-02-07T10:17:55.000Z</time>
      </trkpt>
      <trkpt lat="43.62197" lon="6.85135">
        <ele>168</ele>
        <time>2019-02-07T10:17:56.000Z</time>
      </trkpt>
      <trkpt lat="43.62197" lon="6.85134">
        <ele>168</ele>
        <time>2019-02-07T10:17:57.000Z</time>
      </trkpt>
      <trkpt lat="43.62196" lon="6.85132">
        <ele>168</ele>
        <time>2019-02-07T10:17:58.000Z</time>
      </trkpt>
      <trkpt lat="43.62196" lon="6.8513">
        <ele>168</ele>
        <time>2019-02-07T10:17:59.000Z</time>
      </trkpt>
      <trkpt lat="43.62195" lon="6.85129">
        <ele>169</ele>
        <time>2019-02-07T10:18:00.000Z</time>
      </trkpt>
      <trkpt lat="43.62195" lon="6.85128">
        <ele>169</ele>
        <time>2019-02-07T10:18:01.000Z</time>
      </trkpt>
      <trkpt lat="43.62195" lon="6.85127">
        <ele>169</ele>
        <time>2019-02-07T10:18:02.000Z</time>
      </trkpt>
      <trkpt lat="43.62195" lon="6.85126">
        <ele>170</ele>
        <time>2019-02-07T10:18:03.000Z</time>
      </trkpt>
      <trkpt lat="43.62195" lon="6.85125">
        <ele>170</ele>
        <time>2019-02-07T10:18:04.000Z</time>
      </trkpt>
      <trkpt lat="43.62195" lon="6.85123">
        <ele>170</ele>
        <time>2019-02-07T10:18:05.000Z</time>
      </trkpt>
      <trkpt lat="43.62196" lon="6.85121">
        <ele>170</ele>
        <time>2019-02-07T10:18:06.000Z</time>
      </trkpt>
      <trkpt lat="43.62196" lon="6.8512">
        <ele>171</ele>
        <time>2019-02-07T10:18:07.000Z</time>
      </trkpt>
      <trkpt lat="43.62196" lon="6.85119">
        <ele>170</ele>
        <time>2019-02-07T10:18:08.000Z</time>
      </trkpt>
      <trkpt lat="43.62196" lon="6.85117">
        <ele>171</ele>
        <time>2019-02-07T10:18:09.000Z</time>
      </trkpt>
      <trkpt lat="43.62196" lon="6.85116">
        <ele>171</ele>
        <time>2019-02-07T10:18:10.000Z</time>
      </trkpt>
      <trkpt lat="43.62196" lon="6.85114">
        <ele>171</ele>
        <time>2019-02-07T10:18:11.000Z</time>
      </trkpt>
      <trkpt lat="43.62196" lon="6.85113">
        <ele>172</ele>
        <time>2019-02-07T10:18:12.000Z</time>
      </trkpt>
      <trkpt lat="43.62196" lon="6.85112">
        <ele>172</ele>
        <time>2019-02-07T10:18:13.000Z</time>
      </trkpt>
      <trkpt lat="43.62196" lon="6.85111">
        <ele>172</ele>
        <time>2019-02-07T10:18:14.000Z</time>
      </trkpt>
      <trkpt lat="43.62197" lon="6.85109">
        <ele>172</ele>
        <time>2019-02-07T10:18:15.000Z</time>
      </trkpt>
      <trkpt lat="43.62197" lon="6.85108">
        <ele>172</ele>
        <time>2019-02-07T10:18:16.000Z</time>
      </trkpt>
      <trkpt lat="43.62197" lon="6.85107">
        <ele>172</ele>
        <time>2019-02-07T10:18:17.000Z</time>
      </trkpt>
      <trkpt lat="43.62197" lon="6.85106">
        <ele>173</ele>
        <time>2019-02-07T10:18:18.000Z</time>
      </trkpt>
      <trkpt lat="43.62198" lon="6.85104">
        <ele>172</ele>
        <time>2019-02-07T10:18:19.000Z</time>
      </trkpt>
      <trkpt lat="43.62198" lon="6.85103">
        <ele>172</ele>
        <time>2019-02-07T10:18:20.000Z</time>
      </trkpt>
      <trkpt lat="43.62198" lon="6.85101">
        <ele>172</ele>
        <time>2019-02-07T10:18:21.000Z</time>
      </trkpt>
      <trkpt lat="43.62199" lon="6.851">
        <ele>172</ele>
        <time>2019-02-07T10:18:22.000Z</time>
      </trkpt>
      <trkpt lat="43.62199" lon="6.85099">
        <ele>172</ele>
        <time>2019-02-07T10:18:23.000Z</time>
      </trkpt>
      <trkpt lat="43.622" lon="6.85098">
        <ele>172</ele>
        <time>2019-02-07T10:18:24.000Z</time>
      </trkpt>
      <trkpt lat="43.622" lon="6.85096">
        <ele>171</ele>
        <time>2019-02-07T10:18:25.000Z</time>
      </trkpt>
      <trkpt lat="43.62201" lon="6.85095">
        <ele>171</ele>
        <time>2019-02-07T10:18:26.000Z</time>
      </trkpt>
      <trkpt lat="43.62201" lon="6.85093">
        <ele>171</ele>
        <time>2019-02-07T10:18:27.000Z</time>
      </trkpt>
      <trkpt lat="43.62202" lon="6.85092">
        <ele>171</ele>
        <time>2019-02-07T10:18:28.000Z</time>
      </trkpt>
      <trkpt lat="43.62202" lon="6.85091">
        <ele>172</ele>
        <time>2019-02-07T10:18:29.000Z</time>
      </trkpt>
      <trkpt lat="43.62203" lon="6.8509">
        <ele>171</ele>
        <time>2019-02-07T10:18:30.000Z</time>
      </trkpt>
      <trkpt lat="43.62203" lon="6.85089">
        <ele>172</ele>
        <time>2019-02-07T10:18:31.000Z</time>
      </trkpt>
      <trkpt lat="43.62204" lon="6.85088">
        <ele>172</ele>
        <time>2019-02-07T10:18:32.000Z</time>
      </trkpt>
      <trkpt lat="43.62204" lon="6.85087">
        <ele>173</ele>
        <time>2019-02-07T10:18:33.000Z</time>
      </trkpt>
      <trkpt lat="43.62204" lon="6.85085">
        <ele>172</ele>
        <time>2019-02-07T10:18:34.000Z</time>
      </trkpt>
      <trkpt lat="43.62204" lon="6.85084">
        <ele>172</ele>
        <time>2019-02-07T10:18:35.000Z</time>
      </trkpt>
      <trkpt lat="43.62204" lon="6.85083">
        <ele>172</ele>
        <time>2019-02-07T10:18:36.000Z</time>
      </trkpt>
      <trkpt lat="43.62204" lon="6.85081">
        <ele>172</ele>
        <time>2019-02-07T10:18:37.000Z</time>
      </trkpt>
      <trkpt lat="43.62204" lon="6.8508">
        <ele>172</ele>
        <time>2019-02-07T10:18:38.000Z</time>
      </trkpt>
      <trkpt lat="43.62203" lon="6.85078">
        <ele>172</ele>
        <time>2019-02-07T10:18:39.000Z</time>
      </trkpt>
      <trkpt lat="43.62203" lon="6.85077">
        <ele>172</ele>
        <time>2019-02-07T10:18:40.000Z</time>
      </trkpt>
      <trkpt lat="43.62203" lon="6.85076">
        <ele>173</ele>
        <time>2019-02-07T10:18:41.000Z</time>
      </trkpt>
      <trkpt lat="43.62204" lon="6.85074">
        <ele>173</ele>
        <time>2019-02-07T10:18:42.000Z</time>
      </trkpt>
      <trkpt lat="43.62204" lon="6.85073">
        <ele>174</ele>
        <time>2019-02-07T10:18:43.000Z</time>
      </trkpt>
      <trkpt lat="43.62204" lon="6.85072">
        <ele>174</ele>
        <time>2019-02-07T10:18:44.000Z</time>
      </trkpt>
      <trkpt lat="43.62204" lon="6.8507">
        <ele>174</ele>
        <time>2019-02-07T10:18:45.000Z</time>
      </trkpt>
      <trkpt lat="43.62204" lon="6.85069">
        <ele>175</ele>
        <time>2019-02-07T10:18:46.000Z</time>
      </trkpt>
      <trkpt lat="43.62204" lon="6.85068">
        <ele>175</ele>
        <time>2019-02-07T10:18:47.000Z</time>
      </trkpt>
      <trkpt lat="43.62205" lon="6.85066">
        <ele>174</ele>
        <time>2019-02-07T10:18:48.000Z</time>
      </trkpt>
      <trkpt lat="43.62205" lon="6.85065">
        <ele>175</ele>
        <time>2019-02-07T10:18:49.000Z</time>
      </trkpt>
      <trkpt lat="43.62205" lon="6.85064">
        <ele>175</ele>
        <time>2019-02-07T10:18:50.000Z</time>
      </trkpt>
      <trkpt lat="43.62206" lon="6.85063">
        <ele>176</ele>
        <time>2019-02-07T10:18:51.000Z</time>
      </trkpt>
      <trkpt lat="43.62206" lon="6.85062">
        <ele>176</ele>
        <time>2019-02-07T10:18:52.000Z</time>
      </trkpt>
      <trkpt lat="43.62206" lon="6.85061">
        <ele>177</ele>
        <time>2019-02-07T10:18:53.000Z</time>
      </trkpt>
      <trkpt lat="43.62207" lon="6.8506">
        <ele>177</ele>
        <time>2019-02-07T10:18:54.000Z</time>
      </trkpt>
      <trkpt lat="43.62207" lon="6.8506">
        <ele>177</ele>
        <time>2019-02-07T10:18:55.000Z</time>
      </trkpt>
      <trkpt lat="43.62207" lon="6.85059">
        <ele>178</ele>
        <time>2019-02-07T10:18:56.000Z</time>
      </trkpt>
      <trkpt lat="43.62207" lon="6.85058">
        <ele>178</ele>
        <time>2019-02-07T10:18:57.000Z</time>
      </trkpt>
      <trkpt lat="43.62208" lon="6.85058">
        <ele>178</ele>
        <time>2019-02-07T10:18:58.000Z</time>
      </trkpt>
      <trkpt lat="43.62208" lon="6.85057">
        <ele>179</ele>
        <time>2019-02-07T10:18:59.000Z</time>
      </trkpt>
      <trkpt lat="43.62208" lon="6.85057">
        <ele>179</ele>
        <time>2019-02-07T10:19:00.000Z</time>
      </trkpt>
      <trkpt lat="43.62208" lon="6.85056">
        <ele>179</ele>
        <time>2019-02-07T10:19:01.000Z</time>
      </trkpt>
      <trkpt lat="43.62209" lon="6.85056">
        <ele>179</ele>
        <time>2019-02-07T10:19:02.000Z</time>
      </trkpt>
      <trkpt lat="43.62209" lon="6.85055">
        <ele>180</ele>
        <time>2019-02-07T10:19:03.000Z</time>
      </trkpt>
      <trkpt lat="43.6221" lon="6.85055">
        <ele>181</ele>
        <time>2019-02-07T10:19:04.000Z</time>
      </trkpt>
      <trkpt lat="43.6221" lon="6.85054">
        <ele>181</ele>
        <time>2019-02-07T10:19:05.000Z</time>
      </trkpt>
      <trkpt lat="43.62211" lon="6.85054">
        <ele>181</ele>
        <time>2019-02-07T10:19:06.000Z</time>
      </trkpt>
      <trkpt lat="43.62211" lon="6.85053">
        <ele>182</ele>
        <time>2019-02-07T10:19:07.000Z</time>
      </trkpt>
      <trkpt lat="43.62211" lon="6.85052">
        <ele>182</ele>
        <time>2019-02-07T10:19:08.000Z</time>
      </trkpt>
      <trkpt lat="43.62212" lon="6.85051">
        <ele>181</ele>
        <time>2019-02-07T10:19:09.000Z</time>
      </trkpt>
      <trkpt lat="43.62212" lon="6.8505">
        <ele>181</ele>
        <time>2019-02-07T10:19:10.000Z</time>
      </trkpt>
      <trkpt lat="43.62212" lon="6.85049">
        <ele>181</ele>
        <time>2019-02-07T10:19:11.000Z</time>
      </trkpt>
      <trkpt lat="43.62212" lon="6.85048">
        <ele>181</ele>
        <time>2019-02-07T10:19:12.000Z</time>
      </trkpt>
      <trkpt lat="43.62213" lon="6.85047">
        <ele>182</ele>
        <time>2019-02-07T10:19:13.000Z</time>
      </trkpt>
      <trkpt lat="43.62213" lon="6.85046">
        <ele>182</ele>
        <time>2019-02-07T10:19:14.000Z</time>
      </trkpt>
      <trkpt lat="43.62214" lon="6.85045">
        <ele>183</ele>
        <time>2019-02-07T10:19:15.000Z</time>
      </trkpt>
      <trkpt lat="43.62214" lon="6.85044">
        <ele>182</ele>
        <time>2019-02-07T10:19:16.000Z</time>
      </trkpt>
      <trkpt lat="43.62215" lon="6.85043">
        <ele>183</ele>
        <time>2019-02-07T10:19:17.000Z</time>
      </trkpt>
      <trkpt lat="43.62215" lon="6.85042">
        <ele>184</ele>
        <time>2019-02-07T10:19:18.000Z</time>
      </trkpt>
      <trkpt lat="43.62215" lon="6.85041">
        <ele>184</ele>
        <time>2019-02-07T10:19:19.000Z</time>
      </trkpt>
      <trkpt lat="43.62215" lon="6.8504">
        <ele>184</ele>
        <time>2019-02-07T10:19:20.000Z</time>
      </trkpt>
      <trkpt lat="43.62216" lon="6.8504">
        <ele>184</ele>
        <time>2019-02-07T10:19:21.000Z</time>
      </trkpt>
      <trkpt lat="43.62216" lon="6.85039">
        <ele>185</ele>
        <time>2019-02-07T10:19:22.000Z</time>
      </trkpt>
      <trkpt lat="43.62217" lon="6.85038">
        <ele>185</ele>
        <time>2019-02-07T10:19:23.000Z</time>
      </trkpt>
      <trkpt lat="43.62217" lon="6.85038">
        <ele>186</ele>
        <time>2019-02-07T10:19:24.000Z</time>
      </trkpt>
      <trkpt lat="43.62218" lon="6.85037">
        <ele>186</ele>
        <time>2019-02-07T10:19:25.000Z</time>
      </trkpt>
      <trkpt lat="43.62218" lon="6.85037">
        <ele>186</ele>
        <time>2019-02-07T10:19:26.000Z</time>
      </trkpt>
      <trkpt lat="43.62218" lon="6.85036">
        <ele>186</ele>
        <time>2019-02-07T10:19:27.000Z</time>
      </trkpt>
      <trkpt lat="43.62219" lon="6.85035">
        <ele>187</ele>
        <time>2019-02-07T10:19:28.000Z</time>
      </trkpt>
      <trkpt lat="43.62219" lon="6.85035">
        <ele>188</ele>
        <time>2019-02-07T10:19:29.000Z</time>
      </trkpt>
      <trkpt lat="43.62219" lon="6.85035">
        <ele>188</ele>
        <time>2019-02-07T10:19:30.000Z</time>
      </trkpt>
      <trkpt lat="43.6222" lon="6.85034">
        <ele>188</ele>
        <time>2019-02-07T10:19:31.000Z</time>
      </trkpt>
      <trkpt lat="43.6222" lon="6.85034">
        <ele>188</ele>
        <time>2019-02-07T10:19:32.000Z</time>
      </trkpt>
      <trkpt lat="43.6222" lon="6.85033">
        <ele>188</ele>
        <time>2019-02-07T10:19:33.000Z</time>
      </trkpt>
      <trkpt lat="43.62221" lon="6.85033">
        <ele>188</ele>
        <time>2019-02-07T10:19:34.000Z</time>
      </trkpt>
      <trkpt lat="43.62221" lon="6.85032">
        <ele>189</ele>
        <time>2019-02-07T10:19:35.000Z</time>
      </trkpt>
      <trkpt lat="43.62222" lon="6.85032">
        <ele>189</ele>
        <time>2019-02-07T10:19:36.000Z</time>
      </trkpt>
      <trkpt lat="43.62222" lon="6.85031">
        <ele>189</ele>
        <time>2019-02-07T10:19:37.000Z</time>
      </trkpt>
      <trkpt lat="43.62222" lon="6.8503">
        <ele>190</ele>
        <time>2019-02-07T10:19:38.000Z</time>
      </trkpt>
      <trkpt lat="43.62223" lon="6.8503">
        <ele>191</ele>
        <time>2019-02-07T10:19:39.000Z</time>
      </trkpt>
      <trkpt lat="43.62223" lon="6.85029">
        <ele>191</ele>
        <time>2019-02-07T10:19:40.000Z</time>
      </trkpt>
      <trkpt lat="43.62224" lon="6.85029">
        <ele>191</ele>
        <time>2019-02-07T10:19:41.000Z</time>
      </trkpt>
      <trkpt lat="43.62224" lon="6.85029">
        <ele>192</ele>
        <time>2019-02-07T10:19:42.000Z</time>
      </trkpt>
      <trkpt lat="43.62224" lon="6.85028">
        <ele>192</ele>
        <time>2019-02-07T10:19:43.000Z</time>
      </trkpt>
      <trkpt lat="43.62224" lon="6.85028">
        <ele>193</ele>
        <time>2019-02-07T10:19:44.000Z</time>
      </trkpt>
      <trkpt lat="43.62225" lon="6.85027">
        <ele>193</ele>
        <time>2019-02-07T10:19:45.000Z</time>
      </trkpt>
      <trkpt lat="43.62225" lon="6.85026">
        <ele>193</ele>
        <time>2019-02-07T10:19:46.000Z</time>
      </trkpt>
      <trkpt lat="43.62226" lon="6.85026">
        <ele>192</ele>
        <time>2019-02-07T10:19:47.000Z</time>
      </trkpt>
      <trkpt lat="43.62227" lon="6.85025">
        <ele>192</ele>
        <time>2019-02-07T10:19:48.000Z</time>
      </trkpt>
      <trkpt lat="43.62227" lon="6.85024">
        <ele>192</ele>
        <time>2019-02-07T10:19:49.000Z</time>
      </trkpt>
      <trkpt lat="43.62228" lon="6.85024">
        <ele>193</ele>
        <time>2019-02-07T10:19:50.000Z</time>
      </trkpt>
      <trkpt lat="43.62229" lon="6.85023">
        <ele>193</ele>
        <time>2019-02-07T10:19:51.000Z</time>
      </trkpt>
      <trkpt lat="43.6223" lon="6.85023">
        <ele>193</ele>
        <time>2019-02-07T10:19:52.000Z</time>
      </trkpt>
      <trkpt lat="43.62231" lon="6.85023">
        <ele>193</ele>
        <time>2019-02-07T10:19:53.000Z</time>
      </trkpt>
      <trkpt lat="43.62231" lon="6.85023">
        <ele>193</ele>
        <time>2019-02-07T10:19:54.000Z</time>
      </trkpt>
      <trkpt lat="43.62232" lon="6.85023">
        <ele>194</ele>
        <time>2019-02-07T10:19:55.000Z</time>
      </trkpt>
      <trkpt lat="43.62233" lon="6.85023">
        <ele>193</ele>
        <time>2019-02-07T10:19:56.000Z</time>
      </trkpt>
      <trkpt lat="43.62234" lon="6.85023">
        <ele>193</ele>
        <time>2019-02-07T10:19:57.000Z</time>
      </trkpt>
      <trkpt lat="43.62235" lon="6.85024">
        <ele>193</ele>
        <time>2019-02-07T10:19:58.000Z</time>
      </trkpt>
      <trkpt lat="43.62235" lon="6.85025">
        <ele>193</ele>
        <time>2019-02-07T10:19:59.000Z</time>
      </trkpt>
      <trkpt lat="43.62236" lon="6.85025">
        <ele>192</ele>
        <time>2019-02-07T10:20:00.000Z</time>
      </trkpt>
      <trkpt lat="43.62236" lon="6.85025">
        <ele>193</ele>
        <time>2019-02-07T10:20:01.000Z</time>
      </trkpt>
      <trkpt lat="43.62237" lon="6.85025">
        <ele>193</ele>
        <time>2019-02-07T10:20:02.000Z</time>
      </trkpt>
      <trkpt lat="43.62237" lon="6.85025">
        <ele>195</ele>
        <time>2019-02-07T10:20:03.000Z</time>
      </trkpt>
      <trkpt lat="43.62237" lon="6.85026">
        <ele>195</ele>
        <time>2019-02-07T10:20:04.000Z</time>
      </trkpt>
      <trkpt lat="43.62237" lon="6.85027">
        <ele>196</ele>
        <time>2019-02-07T10:20:05.000Z</time>
      </trkpt>
      <trkpt lat="43.62238" lon="6.85028">
        <ele>196</ele>
        <time>2019-02-07T10:20:06.000Z</time>
      </trkpt>
      <trkpt lat="43.62238" lon="6.85028">
        <ele>197</ele>
        <time>2019-02-07T10:20:07.000Z</time>
      </trkpt>
      <trkpt lat="43.62238" lon="6.85029">
        <ele>197</ele>
        <time>2019-02-07T10:20:08.000Z</time>
      </trkpt>
      <trkpt lat="43.62238" lon="6.8503">
        <ele>196</ele>
        <time>2019-02-07T10:20:09.000Z</time>
      </trkpt>
      <trkpt lat="43.62237" lon="6.85031">
        <ele>196</ele>
        <time>2019-02-07T10:20:10.000Z</time>
      </trkpt>
      <trkpt lat="43.62237" lon="6.85033">
        <ele>195</ele>
        <time>2019-02-07T10:20:11.000Z</time>
      </trkpt>
      <trkpt lat="43.62237" lon="6.85035">
        <ele>195</ele>
        <time>2019-02-07T10:20:12.000Z</time>
      </trkpt>
      <trkpt lat="43.62237" lon="6.85036">
        <ele>195</ele>
        <time>2019-02-07T10:20:13.000Z</time>
      </trkpt>
      <trkpt lat="43.62237" lon="6.85037">
        <ele>195</ele>
        <time>2019-02-07T10:20:14.000Z</time>
      </trkpt>
      <trkpt lat="43.62237" lon="6.85039">
        <ele>195</ele>
        <time>2019-02-07T10:20:15.000Z</time>
      </trkpt>
      <trkpt lat="43.62237" lon="6.8504">
        <ele>195</ele>
        <time>2019-02-07T10:20:16.000Z</time>
      </trkpt>
      <trkpt lat="43.62237" lon="6.85042">
        <ele>195</ele>
        <time>2019-02-07T10:20:17.000Z</time>
      </trkpt>
      <trkpt lat="43.62237" lon="6.85043">
        <ele>195</ele>
        <time>2019-02-07T10:20:18.000Z</time>
      </trkpt>
      <trkpt lat="43.62238" lon="6.85045">
        <ele>195</ele>
        <time>2019-02-07T10:20:19.000Z</time>
      </trkpt>
      <trkpt lat="43.62238" lon="6.85047">
        <ele>195</ele>
        <time>2019-02-07T10:20:20.000Z</time>
      </trkpt>
      <trkpt lat="43.62238" lon="6.85048">
        <ele>195</ele>
        <time>2019-02-07T10:20:21.000Z</time>
      </trkpt>
      <trkpt lat="43.62239" lon="6.85049">
        <ele>194</ele>
        <time>2019-02-07T10:20:22.000Z</time>
      </trkpt>
      <trkpt lat="43.62239" lon="6.85051">
        <ele>194</ele>
        <time>2019-02-07T10:20:23.000Z</time>
      </trkpt>
      <trkpt lat="43.6224" lon="6.85052">
        <ele>194</ele>
        <time>2019-02-07T10:20:24.000Z</time>
      </trkpt>
      <trkpt lat="43.6224" lon="6.85053">
        <ele>194</ele>
        <time>2019-02-07T10:20:25.000Z</time>
      </trkpt>
      <trkpt lat="43.62241" lon="6.85054">
        <ele>194</ele>
        <time>2019-02-07T10:20:26.000Z</time>
      </trkpt>
      <trkpt lat="43.62242" lon="6.85055">
        <ele>195</ele>
        <time>2019-02-07T10:20:27.000Z</time>
      </trkpt>
      <trkpt lat="43.62243" lon="6.85056">
        <ele>195</ele>
        <time>2019-02-07T10:20:28.000Z</time>
      </trkpt>
      <trkpt lat="43.62244" lon="6.85057">
        <ele>195</ele>
        <time>2019-02-07T10:20:29.000Z</time>
      </trkpt>
      <trkpt lat="43.62244" lon="6.85057">
        <ele>196</ele>
        <time>2019-02-07T10:20:30.000Z</time>
      </trkpt>
      <trkpt lat="43.62245" lon="6.85058">
        <ele>196</ele>
        <time>2019-02-07T10:20:31.000Z</time>
      </trkpt>
      <trkpt lat="43.62245" lon="6.85059">
        <ele>197</ele>
        <time>2019-02-07T10:20:32.000Z</time>
      </trkpt>
      <trkpt lat="43.62246" lon="6.8506">
        <ele>198</ele>
        <time>2019-02-07T10:20:33.000Z</time>
      </trkpt>
      <trkpt lat="43.62247" lon="6.85061">
        <ele>199</ele>
        <time>2019-02-07T10:20:34.000Z</time>
      </trkpt>
      <trkpt lat="43.62247" lon="6.85061">
        <ele>199</ele>
        <time>2019-02-07T10:20:35.000Z</time>
      </trkpt>
      <trkpt lat="43.62247" lon="6.85062">
        <ele>200</ele>
        <time>2019-02-07T10:20:36.000Z</time>
      </trkpt>
      <trkpt lat="43.62248" lon="6.85063">
        <ele>201</ele>
        <time>2019-02-07T10:20:37.000Z</time>
      </trkpt>
      <trkpt lat="43.62248" lon="6.85063">
        <ele>201</ele>
        <time>2019-02-07T10:20:38.000Z</time>
      </trkpt>
      <trkpt lat="43.62248" lon="6.85064">
        <ele>201</ele>
        <time>2019-02-07T10:20:39.000Z</time>
      </trkpt>
      <trkpt lat="43.62249" lon="6.85064">
        <ele>202</ele>
        <time>2019-02-07T10:20:40.000Z</time>
      </trkpt>
      <trkpt lat="43.62249" lon="6.85065">
        <ele>203</ele>
        <time>2019-02-07T10:20:41.000Z</time>
      </trkpt>
      <trkpt lat="43.6225" lon="6.85065">
        <ele>203</ele>
        <time>2019-02-07T10:20:42.000Z</time>
      </trkpt>
      <trkpt lat="43.6225" lon="6.85066">
        <ele>202</ele>
        <time>2019-02-07T10:20:43.000Z</time>
      </trkpt>
      <trkpt lat="43.62251" lon="6.85066">
        <ele>202</ele>
        <time>2019-02-07T10:20:44.000Z</time>
      </trkpt>
      <trkpt lat="43.62251" lon="6.85068">
        <ele>202</ele>
        <time>2019-02-07T10:20:45.000Z</time>
      </trkpt>
      <trkpt lat="43.62251" lon="6.85069">
        <ele>202</ele>
        <time>2019-02-07T10:20:46.000Z</time>
      </trkpt>
      <trkpt lat="43.62252" lon="6.85069">
        <ele>203</ele>
        <time>2019-02-07T10:20:47.000Z</time>
      </trkpt>
      <trkpt lat="43.62252" lon="6.8507">
        <ele>203</ele>
        <time>2019-02-07T10:20:48.000Z</time>
      </trkpt>
      <trkpt lat="43.62253" lon="6.85071">
        <ele>203</ele>
        <time>2019-02-07T10:20:49.000Z</time>
      </trkpt>
      <trkpt lat="43.62253" lon="6.85072">
        <ele>204</ele>
        <time>2019-02-07T10:20:50.000Z</time>
      </trkpt>
      <trkpt lat="43.62253" lon="6.85072">
        <ele>205</ele>
        <time>2019-02-07T10:20:51.000Z</time>
      </trkpt>
      <trkpt lat="43.62253" lon="6.85073">
        <ele>205</ele>
        <time>2019-02-07T10:20:52.000Z</time>
      </trkpt>
      <trkpt lat="43.62254" lon="6.85074">
        <ele>206</ele>
        <time>2019-02-07T10:20:53.000Z</time>
      </trkpt>
      <trkpt lat="43.62254" lon="6.85074">
        <ele>207</ele>
        <time>2019-02-07T10:20:54.000Z</time>
      </trkpt>
      <trkpt lat="43.62254" lon="6.85075">
        <ele>208</ele>
        <time>2019-02-07T10:20:55.000Z</time>
      </trkpt>
      <trkpt lat="43.62254" lon="6.85074">
        <ele>208</ele>
        <time>2019-02-07T10:20:56.000Z</time>
      </trkpt>
      <trkpt lat="43.62254" lon="6.85073">
        <ele>207</ele>
        <time>2019-02-07T10:20:57.000Z</time>
      </trkpt>
      <trkpt lat="43.62254" lon="6.85072">
        <ele>207</ele>
        <time>2019-02-07T10:20:58.000Z</time>
      </trkpt>
      <trkpt lat="43.62255" lon="6.85071">
        <ele>206</ele>
        <time>2019-02-07T10:20:59.000Z</time>
      </trkpt>
      <trkpt lat="43.62255" lon="6.85069">
        <ele>205</ele>
        <time>2019-02-07T10:21:00.000Z</time>
      </trkpt>
      <trkpt lat="43.62255" lon="6.85068">
        <ele>206</ele>
        <time>2019-02-07T10:21:01.000Z</time>
      </trkpt>
      <trkpt lat="43.62255" lon="6.85066">
        <ele>206</ele>
        <time>2019-02-07T10:21:02.000Z</time>
      </trkpt>
      <trkpt lat="43.62255" lon="6.85065">
        <ele>206</ele>
        <time>2019-02-07T10:21:03.000Z</time>
      </trkpt>
      <trkpt lat="43.62254" lon="6.85063">
        <ele>205</ele>
        <time>2019-02-07T10:21:04.000Z</time>
      </trkpt>
      <trkpt lat="43.62254" lon="6.85061">
        <ele>206</ele>
        <time>2019-02-07T10:21:05.000Z</time>
      </trkpt>
      <trkpt lat="43.62254" lon="6.8506">
        <ele>206</ele>
        <time>2019-02-07T10:21:06.000Z</time>
      </trkpt>
      <trkpt lat="43.62253" lon="6.85059">
        <ele>206</ele>
        <time>2019-02-07T10:21:07.000Z</time>
      </trkpt>
      <trkpt lat="43.62253" lon="6.85058">
        <ele>206</ele>
        <time>2019-02-07T10:21:08.000Z</time>
      </trkpt>
      <trkpt lat="43.62253" lon="6.85057">
        <ele>206</ele>
        <time>2019-02-07T10:21:09.000Z</time>
      </trkpt>
      <trkpt lat="43.62253" lon="6.85056">
        <ele>205</ele>
        <time>2019-02-07T10:21:10.000Z</time>
      </trkpt>
      <trkpt lat="43.62253" lon="6.85054">
        <ele>205</ele>
        <time>2019-02-07T10:21:11.000Z</time>
      </trkpt>
      <trkpt lat="43.62253" lon="6.85053">
        <ele>206</ele>
        <time>2019-02-07T10:21:12.000Z</time>
      </trkpt>
      <trkpt lat="43.62252" lon="6.85051">
        <ele>205</ele>
        <time>2019-02-07T10:21:13.000Z</time>
      </trkpt>
      <trkpt lat="43.62252" lon="6.8505">
        <ele>205</ele>
        <time>2019-02-07T10:21:14.000Z</time>
      </trkpt>
      <trkpt lat="43.62252" lon="6.85049">
        <ele>205</ele>
        <time>2019-02-07T10:21:15.000Z</time>
      </trkpt>
      <trkpt lat="43.62252" lon="6.85047">
        <ele>203</ele>
        <time>2019-02-07T10:21:16.000Z</time>
      </trkpt>
      <trkpt lat="43.62253" lon="6.85045">
        <ele>203</ele>
        <time>2019-02-07T10:21:17.000Z</time>
      </trkpt>
      <trkpt lat="43.62253" lon="6.85044">
        <ele>203</ele>
        <time>2019-02-07T10:21:18.000Z</time>
      </trkpt>
      <trkpt lat="43.62253" lon="6.85042">
        <ele>203</ele>
        <time>2019-02-07T10:21:19.000Z</time>
      </trkpt>
      <trkpt lat="43.62254" lon="6.8504">
        <ele>203</ele>
        <time>2019-02-07T10:21:20.000Z</time>
      </trkpt>
      <trkpt lat="43.62254" lon="6.85039">
        <ele>202</ele>
        <time>2019-02-07T10:21:21.000Z</time>
      </trkpt>
      <trkpt lat="43.62255" lon="6.85037">
        <ele>204</ele>
        <time>2019-02-07T10:21:22.000Z</time>
      </trkpt>
      <trkpt lat="43.62255" lon="6.85035">
        <ele>204</ele>
        <time>2019-02-07T10:21:23.000Z</time>
      </trkpt>
      <trkpt lat="43.62256" lon="6.85034">
        <ele>203</ele>
        <time>2019-02-07T10:21:24.000Z</time>
      </trkpt>
      <trkpt lat="43.62257" lon="6.85032">
        <ele>204</ele>
        <time>2019-02-07T10:21:25.000Z</time>
      </trkpt>
      <trkpt lat="43.62257" lon="6.85031">
        <ele>203</ele>
        <time>2019-02-07T10:21:26.000Z</time>
      </trkpt>
      <trkpt lat="43.62257" lon="6.85029">
        <ele>204</ele>
        <time>2019-02-07T10:21:27.000Z</time>
      </trkpt>
      <trkpt lat="43.62257" lon="6.85028">
        <ele>204</ele>
        <time>2019-02-07T10:21:28.000Z</time>
      </trkpt>
      <trkpt lat="43.62257" lon="6.85026">
        <ele>205</ele>
        <time>2019-02-07T10:21:29.000Z</time>
      </trkpt>
      <trkpt lat="43.62257" lon="6.85025">
        <ele>205</ele>
        <time>2019-02-07T10:21:30.000Z</time>
      </trkpt>
      <trkpt lat="43.62256" lon="6.85023">
        <ele>205</ele>
        <time>2019-02-07T10:21:31.000Z</time>
      </trkpt>
      <trkpt lat="43.62256" lon="6.85022">
        <ele>205</ele>
        <time>2019-02-07T10:21:32.000Z</time>
      </trkpt>
      <trkpt lat="43.62256" lon="6.8502">
        <ele>204</ele>
        <time>2019-02-07T10:21:33.000Z</time>
      </trkpt>
      <trkpt lat="43.62256" lon="6.85019">
        <ele>205</ele>
        <time>2019-02-07T10:21:34.000Z</time>
      </trkpt>
      <trkpt lat="43.62256" lon="6.85017">
        <ele>205</ele>
        <time>2019-02-07T10:21:35.000Z</time>
      </trkpt>
      <trkpt lat="43.62256" lon="6.85016">
        <ele>204</ele>
        <time>2019-02-07T10:21:36.000Z</time>
      </trkpt>
      <trkpt lat="43.62257" lon="6.85015">
        <ele>204</ele>
        <time>2019-02-07T10:21:37.000Z</time>
      </trkpt>
      <trkpt lat="43.62257" lon="6.85013">
        <ele>205</ele>
        <time>2019-02-07T10:21:38.000Z</time>
      </trkpt>
      <trkpt lat="43.62257" lon="6.85012">
        <ele>205</ele>
        <time>2019-02-07T10:21:39.000Z</time>
      </trkpt>
      <trkpt lat="43.62257" lon="6.85011">
        <ele>205</ele>
        <time>2019-02-07T10:21:40.000Z</time>
      </trkpt>
      <trkpt lat="43.62257" lon="6.85009">
        <ele>206</ele>
        <time>2019-02-07T10:21:41.000Z</time>
      </trkpt>
      <trkpt lat="43.62257" lon="6.85008">
        <ele>206</ele>
        <time>2019-02-07T10:21:42.000Z</time>
      </trkpt>
      <trkpt lat="43.62258" lon="6.85008">
        <ele>206</ele>
        <time>2019-02-07T10:21:43.000Z</time>
      </trkpt>
      <trkpt lat="43.62258" lon="6.85007">
        <ele>206</ele>
        <time>2019-02-07T10:21:44.000Z</time>
      </trkpt>
      <trkpt lat="43.62259" lon="6.85006">
        <ele>206</ele>
        <time>2019-02-07T10:21:45.000Z</time>
      </trkpt>
      <trkpt lat="43.62259" lon="6.85005">
        <ele>207</ele>
        <time>2019-02-07T10:21:46.000Z</time>
      </trkpt>
      <trkpt lat="43.6226" lon="6.85004">
        <ele>207</ele>
        <time>2019-02-07T10:21:47.000Z</time>
      </trkpt>
      <trkpt lat="43.62261" lon="6.85004">
        <ele>207</ele>
        <time>2019-02-07T10:21:48.000Z</time>
      </trkpt>
      <trkpt lat="43.62261" lon="6.85004">
        <ele>207</ele>
        <time>2019-02-07T10:21:49.000Z</time>
      </trkpt>
      <trkpt lat="43.62262" lon="6.85005">
        <ele>207</ele>
        <time>2019-02-07T10:21:50.000Z</time>
      </trkpt>
      <trkpt lat="43.62263" lon="6.85005">
        <ele>208</ele>
        <time>2019-02-07T10:21:51.000Z</time>
      </trkpt>
      <trkpt lat="43.62263" lon="6.85006">
        <ele>208</ele>
        <time>2019-02-07T10:21:52.000Z</time>
      </trkpt>
      <trkpt lat="43.62264" lon="6.85007">
        <ele>209</ele>
        <time>2019-02-07T10:21:53.000Z</time>
      </trkpt>
      <trkpt lat="43.62264" lon="6.85008">
        <ele>209</ele>
        <time>2019-02-07T10:21:54.000Z</time>
      </trkpt>
      <trkpt lat="43.62265" lon="6.85009">
        <ele>209</ele>
        <time>2019-02-07T10:21:55.000Z</time>
      </trkpt>
      <trkpt lat="43.62266" lon="6.8501">
        <ele>209</ele>
        <time>2019-02-07T10:21:56.000Z</time>
      </trkpt>
      <trkpt lat="43.62267" lon="6.85012">
        <ele>209</ele>
        <time>2019-02-07T10:21:57.000Z</time>
      </trkpt>
      <trkpt lat="43.62268" lon="6.85013">
        <ele>209</ele>
        <time>2019-02-07T10:21:58.000Z</time>
      </trkpt>
      <trkpt lat="43.62268" lon="6.85014">
        <ele>209</ele>
        <time>2019-02-07T10:21:59.000Z</time>
      </trkpt>
      <trkpt lat="43.62268" lon="6.85014">
        <ele>209</ele>
        <time>2019-02-07T10:22:00.000Z</time>
      </trkpt>
      <trkpt lat="43.62269" lon="6.85015">
        <ele>210</ele>
        <time>2019-02-07T10:22:01.000Z</time>
      </trkpt>
      <trkpt lat="43.62269" lon="6.85016">
        <ele>210</ele>
        <time>2019-02-07T10:22:02.000Z</time>
      </trkpt>
      <trkpt lat="43.62269" lon="6.85018">
        <ele>210</ele>
        <time>2019-02-07T10:22:03.000Z</time>
      </trkpt>
      <trkpt lat="43.62269" lon="6.85019">
        <ele>210</ele>
        <time>2019-02-07T10:22:04.000Z</time>
      </trkpt>
      <trkpt lat="43.6227" lon="6.8502">
        <ele>210</ele>
        <time>2019-02-07T10:22:05.000Z</time>
      </trkpt>
      <trkpt lat="43.6227" lon="6.85021">
        <ele>210</ele>
        <time>2019-02-07T10:22:06.000Z</time>
      </trkpt>
      <trkpt lat="43.62271" lon="6.85022">
        <ele>210</ele>
        <time>2019-02-07T10:22:07.000Z</time>
      </trkpt>
      <trkpt lat="43.62271" lon="6.85024">
        <ele>210</ele>
        <time>2019-02-07T10:22:08.000Z</time>
      </trkpt>
      <trkpt lat="43.62271" lon="6.85025">
        <ele>210</ele>
        <time>2019-02-07T10:22:09.000Z</time>
      </trkpt>
      <trkpt lat="43.62271" lon="6.85026">
        <ele>211</ele>
        <time>2019-02-07T10:22:10.000Z</time>
      </trkpt>
      <trkpt lat="43.62272" lon="6.85028">
        <ele>211</ele>
        <time>2019-02-07T10:22:11.000Z</time>
      </trkpt>
      <trkpt lat="43.62272" lon="6.85029">
        <ele>211</ele>
        <time>2019-02-07T10:22:12.000Z</time>
      </trkpt>
      <trkpt lat="43.62272" lon="6.85031">
        <ele>212</ele>
        <time>2019-02-07T10:22:13.000Z</time>
      </trkpt>
      <trkpt lat="43.62273" lon="6.85032">
        <ele>211</ele>
        <time>2019-02-07T10:22:14.000Z</time>
      </trkpt>
      <trkpt lat="43.62273" lon="6.85033">
        <ele>212</ele>
        <time>2019-02-07T10:22:15.000Z</time>
      </trkpt>
      <trkpt lat="43.62274" lon="6.85035">
        <ele>212</ele>
        <time>2019-02-07T10:22:16.000Z</time>
      </trkpt>
      <trkpt lat="43.62274" lon="6.85036">
        <ele>212</ele>
        <time>2019-02-07T10:22:17.000Z</time>
      </trkpt>
      <trkpt lat="43.62274" lon="6.85037">
        <ele>211</ele>
        <time>2019-02-07T10:22:18.000Z</time>
      </trkpt>
      <trkpt lat="43.62274" lon="6.85039">
        <ele>212</ele>
        <time>2019-02-07T10:22:19.000Z</time>
      </trkpt>
      <trkpt lat="43.62274" lon="6.85041">
        <ele>213</ele>
        <time>2019-02-07T10:22:20.000Z</time>
      </trkpt>
      <trkpt lat="43.62275" lon="6.85043">
        <ele>212</ele>
        <time>2019-02-07T10:22:21.000Z</time>
      </trkpt>
      <trkpt lat="43.62275" lon="6.85044">
        <ele>212</ele>
        <time>2019-02-07T10:22:22.000Z</time>
      </trkpt>
      <trkpt lat="43.62275" lon="6.85046">
        <ele>212</ele>
        <time>2019-02-07T10:22:23.000Z</time>
      </trkpt>
      <trkpt lat="43.62275" lon="6.85047">
        <ele>213</ele>
        <time>2019-02-07T10:22:24.000Z</time>
      </trkpt>
      <trkpt lat="43.62275" lon="6.85049">
        <ele>213</ele>
        <time>2019-02-07T10:22:25.000Z</time>
      </trkpt>
      <trkpt lat="43.62275" lon="6.8505">
        <ele>213</ele>
        <time>2019-02-07T10:22:26.000Z</time>
      </trkpt>
      <trkpt lat="43.62275" lon="6.85051">
        <ele>213</ele>
        <time>2019-02-07T10:22:27.000Z</time>
      </trkpt>
      <trkpt lat="43.62275" lon="6.85052">
        <ele>214</ele>
        <time>2019-02-07T10:22:28.000Z</time>
      </trkpt>
      <trkpt lat="43.62276" lon="6.85053">
        <ele>214</ele>
        <time>2019-02-07T10:22:29.000Z</time>
      </trkpt>
      <trkpt lat="43.62276" lon="6.85055">
        <ele>214</ele>
        <time>2019-02-07T10:22:30.000Z</time>
      </trkpt>
      <trkpt lat="43.62277" lon="6.85056">
        <ele>214</ele>
        <time>2019-02-07T10:22:31.000Z</time>
      </trkpt>
      <trkpt lat="43.62277" lon="6.85057">
        <ele>214</ele>
        <time>2019-02-07T10:22:32.000Z</time>
      </trkpt>
      <trkpt lat="43.62278" lon="6.85059">
        <ele>214</ele>
        <time>2019-02-07T10:22:33.000Z</time>
      </trkpt>
      <trkpt lat="43.62278" lon="6.8506">
        <ele>215</ele>
        <time>2019-02-07T10:22:34.000Z</time>
      </trkpt>
      <trkpt lat="43.62279" lon="6.85061">
        <ele>214</ele>
        <time>2019-02-07T10:22:35.000Z</time>
      </trkpt>
      <trkpt lat="43.6228" lon="6.85063">
        <ele>215</ele>
        <time>2019-02-07T10:22:36.000Z</time>
      </trkpt>
      <trkpt lat="43.6228" lon="6.85064">
        <ele>215</ele>
        <time>2019-02-07T10:22:37.000Z</time>
      </trkpt>
      <trkpt lat="43.62281" lon="6.85065">
        <ele>215</ele>
        <time>2019-02-07T10:22:38.000Z</time>
      </trkpt>
      <trkpt lat="43.62281" lon="6.85067">
        <ele>215</ele>
        <time>2019-02-07T10:22:39.000Z</time>
      </trkpt>
      <trkpt lat="43.62282" lon="6.85068">
        <ele>216</ele>
        <time>2019-02-07T10:22:40.000Z</time>
      </trkpt>
      <trkpt lat="43.62283" lon="6.85069">
        <ele>217</ele>
        <time>2019-02-07T10:22:41.000Z</time>
      </trkpt>
      <trkpt lat="43.62283" lon="6.8507">
        <ele>217</ele>
        <time>2019-02-07T10:22:42.000Z</time>
      </trkpt>
      <trkpt lat="43.62284" lon="6.85071">
        <ele>217</ele>
        <time>2019-02-07T10:22:43.000Z</time>
      </trkpt>
      <trkpt lat="43.62285" lon="6.85072">
        <ele>217</ele>
        <time>2019-02-07T10:22:44.000Z</time>
      </trkpt>
      <trkpt lat="43.62286" lon="6.85073">
        <ele>218</ele>
        <time>2019-02-07T10:22:45.000Z</time>
      </trkpt>
      <trkpt lat="43.62286" lon="6.85074">
        <ele>218</ele>
        <time>2019-02-07T10:22:46.000Z</time>
      </trkpt>
      <trkpt lat="43.62286" lon="6.85075">
        <ele>218</ele>
        <time>2019-02-07T10:22:47.000Z</time>
      </trkpt>
      <trkpt lat="43.62287" lon="6.85076">
        <ele>218</ele>
        <time>2019-02-07T10:22:48.000Z</time>
      </trkpt>
      <trkpt lat="43.62287" lon="6.85077">
        <ele>218</ele>
        <time>2019-02-07T10:22:49.000Z</time>
      </trkpt>
      <trkpt lat="43.62288" lon="6.85078">
        <ele>218</ele>
        <time>2019-02-07T10:22:50.000Z</time>
      </trkpt>
      <trkpt lat="43.62289" lon="6.85079">
        <ele>218</ele>
        <time>2019-02-07T10:22:51.000Z</time>
      </trkpt>
      <trkpt lat="43.62289" lon="6.8508">
        <ele>218</ele>
        <time>2019-02-07T10:22:52.000Z</time>
      </trkpt>
      <trkpt lat="43.6229" lon="6.8508">
        <ele>218</ele>
        <time>2019-02-07T10:22:53.000Z</time>
      </trkpt>
      <trkpt lat="43.62291" lon="6.8508">
        <ele>218</ele>
        <time>2019-02-07T10:22:54.000Z</time>
      </trkpt>
      <trkpt lat="43.62291" lon="6.8508">
        <ele>218</ele>
        <time>2019-02-07T10:22:55.000Z</time>
      </trkpt>
      <trkpt lat="43.62292" lon="6.8508">
        <ele>218</ele>
        <time>2019-02-07T10:22:56.000Z</time>
      </trkpt>
      <trkpt lat="43.62292" lon="6.8508">
        <ele>219</ele>
        <time>2019-02-07T10:22:57.000Z</time>
      </trkpt>
      <trkpt lat="43.62292" lon="6.85079">
        <ele>219</ele>
        <time>2019-02-07T10:22:58.000Z</time>
      </trkpt>
      <trkpt lat="43.62292" lon="6.85078">
        <ele>219</ele>
        <time>2019-02-07T10:22:59.000Z</time>
      </trkpt>
      <trkpt lat="43.62292" lon="6.85077">
        <ele>219</ele>
        <time>2019-02-07T10:23:00.000Z</time>
      </trkpt>
      <trkpt lat="43.62292" lon="6.85075">
        <ele>219</ele>
        <time>2019-02-07T10:23:01.000Z</time>
      </trkpt>
      <trkpt lat="43.62292" lon="6.85074">
        <ele>219</ele>
        <time>2019-02-07T10:23:02.000Z</time>
      </trkpt>
      <trkpt lat="43.62292" lon="6.85073">
        <ele>220</ele>
        <time>2019-02-07T10:23:03.000Z</time>
      </trkpt>
      <trkpt lat="43.62291" lon="6.85071">
        <ele>220</ele>
        <time>2019-02-07T10:23:04.000Z</time>
      </trkpt>
      <trkpt lat="43.62291" lon="6.8507">
        <ele>220</ele>
        <time>2019-02-07T10:23:05.000Z</time>
      </trkpt>
      <trkpt lat="43.62291" lon="6.85068">
        <ele>220</ele>
        <time>2019-02-07T10:23:06.000Z</time>
      </trkpt>
      <trkpt lat="43.62291" lon="6.85067">
        <ele>220</ele>
        <time>2019-02-07T10:23:07.000Z</time>
      </trkpt>
      <trkpt lat="43.62291" lon="6.85066">
        <ele>220</ele>
        <time>2019-02-07T10:23:08.000Z</time>
      </trkpt>
      <trkpt lat="43.62291" lon="6.85064">
        <ele>220</ele>
        <time>2019-02-07T10:23:09.000Z</time>
      </trkpt>
      <trkpt lat="43.62291" lon="6.85063">
        <ele>220</ele>
        <time>2019-02-07T10:23:10.000Z</time>
      </trkpt>
      <trkpt lat="43.62291" lon="6.85061">
        <ele>220</ele>
        <time>2019-02-07T10:23:11.000Z</time>
      </trkpt>
      <trkpt lat="43.62292" lon="6.8506">
        <ele>220</ele>
        <time>2019-02-07T10:23:12.000Z</time>
      </trkpt>
      <trkpt lat="43.62292" lon="6.85059">
        <ele>219</ele>
        <time>2019-02-07T10:23:13.000Z</time>
      </trkpt>
      <trkpt lat="43.62293" lon="6.85058">
        <ele>219</ele>
        <time>2019-02-07T10:23:14.000Z</time>
      </trkpt>
      <trkpt lat="43.62293" lon="6.85056">
        <ele>219</ele>
        <time>2019-02-07T10:23:15.000Z</time>
      </trkpt>
      <trkpt lat="43.62293" lon="6.85055">
        <ele>219</ele>
        <time>2019-02-07T10:23:16.000Z</time>
      </trkpt>
      <trkpt lat="43.62294" lon="6.85054">
        <ele>219</ele>
        <time>2019-02-07T10:23:17.000Z</time>
      </trkpt>
      <trkpt lat="43.62294" lon="6.85053">
        <ele>219</ele>
        <time>2019-02-07T10:23:18.000Z</time>
      </trkpt>
      <trkpt lat="43.62295" lon="6.85051">
        <ele>219</ele>
        <time>2019-02-07T10:23:19.000Z</time>
      </trkpt>
      <trkpt lat="43.62295" lon="6.8505">
        <ele>219</ele>
        <time>2019-02-07T10:23:20.000Z</time>
      </trkpt>
      <trkpt lat="43.62296" lon="6.85049">
        <ele>219</ele>
        <time>2019-02-07T10:23:21.000Z</time>
      </trkpt>
      <trkpt lat="43.62296" lon="6.85048">
        <ele>219</ele>
        <time>2019-02-07T10:23:22.000Z</time>
      </trkpt>
      <trkpt lat="43.62297" lon="6.85047">
        <ele>219</ele>
        <time>2019-02-07T10:23:23.000Z</time>
      </trkpt>
      <trkpt lat="43.62298" lon="6.85046">
        <ele>219</ele>
        <time>2019-02-07T10:23:24.000Z</time>
      </trkpt>
      <trkpt lat="43.62299" lon="6.85045">
        <ele>218</ele>
        <time>2019-02-07T10:23:25.000Z</time>
      </trkpt>
      <trkpt lat="43.623" lon="6.85045">
        <ele>218</ele>
        <time>2019-02-07T10:23:26.000Z</time>
      </trkpt>
      <trkpt lat="43.62301" lon="6.85045">
        <ele>218</ele>
        <time>2019-02-07T10:23:27.000Z</time>
      </trkpt>
      <trkpt lat="43.62302" lon="6.85045">
        <ele>218</ele>
        <time>2019-02-07T10:23:28.000Z</time>
      </trkpt>
      <trkpt lat="43.62303" lon="6.85045">
        <ele>219</ele>
        <time>2019-02-07T10:23:29.000Z</time>
      </trkpt>
      <trkpt lat="43.62303" lon="6.85045">
        <ele>219</ele>
        <time>2019-02-07T10:23:30.000Z</time>
      </trkpt>
      <trkpt lat="43.62304" lon="6.85045">
        <ele>220</ele>
        <time>2019-02-07T10:23:31.000Z</time>
      </trkpt>
      <trkpt lat="43.62304" lon="6.85045">
        <ele>221</ele>
        <time>2019-02-07T10:23:32.000Z</time>
      </trkpt>
      <trkpt lat="43.62305" lon="6.85045">
        <ele>221</ele>
        <time>2019-02-07T10:23:33.000Z</time>
      </trkpt>
      <trkpt lat="43.62305" lon="6.85046">
        <ele>221</ele>
        <time>2019-02-07T10:23:34.000Z</time>
      </trkpt>
      <trkpt lat="43.62306" lon="6.85046">
        <ele>222</ele>
        <time>2019-02-07T10:23:35.000Z</time>
      </trkpt>
      <trkpt lat="43.62306" lon="6.85046">
        <ele>222</ele>
        <time>2019-02-07T10:23:36.000Z</time>
      </trkpt>
      <trkpt lat="43.62307" lon="6.85047">
        <ele>222</ele>
        <time>2019-02-07T10:23:37.000Z</time>
      </trkpt>
      <trkpt lat="43.62308" lon="6.85047">
        <ele>223</ele>
        <time>2019-02-07T10:23:38.000Z</time>
      </trkpt>
      <trkpt lat="43.62309" lon="6.85047">
        <ele>223</ele>
        <time>2019-02-07T10:23:39.000Z</time>
      </trkpt>
      <trkpt lat="43.6231" lon="6.85047">
        <ele>223</ele>
        <time>2019-02-07T10:23:40.000Z</time>
      </trkpt>
      <trkpt lat="43.62311" lon="6.85047">
        <ele>223</ele>
        <time>2019-02-07T10:23:41.000Z</time>
      </trkpt>
      <trkpt lat="43.62312" lon="6.85047">
        <ele>224</ele>
        <time>2019-02-07T10:23:42.000Z</time>
      </trkpt>
      <trkpt lat="43.62313" lon="6.85047">
        <ele>224</ele>
        <time>2019-02-07T10:23:43.000Z</time>
      </trkpt>
      <trkpt lat="43.62313" lon="6.85047">
        <ele>224</ele>
        <time>2019-02-07T10:23:44.000Z</time>
      </trkpt>
      <trkpt lat="43.62314" lon="6.85047">
        <ele>225</ele>
        <time>2019-02-07T10:23:45.000Z</time>
      </trkpt>
      <trkpt lat="43.62316" lon="6.85047">
        <ele>224</ele>
        <time>2019-02-07T10:23:46.000Z</time>
      </trkpt>
      <trkpt lat="43.62317" lon="6.85046">
        <ele>224</ele>
        <time>2019-02-07T10:23:47.000Z</time>
      </trkpt>
      <trkpt lat="43.62317" lon="6.85045">
        <ele>225</ele>
        <time>2019-02-07T10:23:48.000Z</time>
      </trkpt>
      <trkpt lat="43.62318" lon="6.85044">
        <ele>225</ele>
        <time>2019-02-07T10:23:49.000Z</time>
      </trkpt>
      <trkpt lat="43.62319" lon="6.85043">
        <ele>225</ele>
        <time>2019-02-07T10:23:50.000Z</time>
      </trkpt>
      <trkpt lat="43.6232" lon="6.85043">
        <ele>225</ele>
        <time>2019-02-07T10:23:51.000Z</time>
      </trkpt>
      <trkpt lat="43.62321" lon="6.85042">
        <ele>225</ele>
        <time>2019-02-07T10:23:52.000Z</time>
      </trkpt>
      <trkpt lat="43.62322" lon="6.85041">
        <ele>225</ele>
        <time>2019-02-07T10:23:53.000Z</time>
      </trkpt>
      <trkpt lat="43.62323" lon="6.85041">
        <ele>225</ele>
        <time>2019-02-07T10:23:54.000Z</time>
      </trkpt>
      <trkpt lat="43.62324" lon="6.8504">
        <ele>225</ele>
        <time>2019-02-07T10:23:55.000Z</time>
      </trkpt>
      <trkpt lat="43.62325" lon="6.85039">
        <ele>226</ele>
        <time>2019-02-07T10:23:56.000Z</time>
      </trkpt>
      <trkpt lat="43.62325" lon="6.85038">
        <ele>226</ele>
        <time>2019-02-07T10:23:57.000Z</time>
      </trkpt>
      <trkpt lat="43.62326" lon="6.85038">
        <ele>226</ele>
        <time>2019-02-07T10:23:58.000Z</time>
      </trkpt>
      <trkpt lat="43.62327" lon="6.85037">
        <ele>226</ele>
        <time>2019-02-07T10:23:59.000Z</time>
      </trkpt>
      <trkpt lat="43.62328" lon="6.85037">
        <ele>226</ele>
        <time>2019-02-07T10:24:00.000Z</time>
      </trkpt>
      <trkpt lat="43.62329" lon="6.85036">
        <ele>226</ele>
        <time>2019-02-07T10:24:01.000Z</time>
      </trkpt>
      <trkpt lat="43.6233" lon="6.85036">
        <ele>226</ele>
        <time>2019-02-07T10:24:02.000Z</time>
      </trkpt>
      <trkpt lat="43.62331" lon="6.85036">
        <ele>226</ele>
        <time>2019-02-07T10:24:03.000Z</time>
      </trkpt>
      <trkpt lat="43.62331" lon="6.85035">
        <ele>225</ele>
        <time>2019-02-07T10:24:04.000Z</time>
      </trkpt>
      <trkpt lat="43.62332" lon="6.85035">
        <ele>225</ele>
        <time>2019-02-07T10:24:05.000Z</time>
      </trkpt>
      <trkpt lat="43.62333" lon="6.85034">
        <ele>225</ele>
        <time>2019-02-07T10:24:06.000Z</time>
      </trkpt>
      <trkpt lat="43.62334" lon="6.85033">
        <ele>225</ele>
        <time>2019-02-07T10:24:07.000Z</time>
      </trkpt>
      <trkpt lat="43.62335" lon="6.85032">
        <ele>225</ele>
        <time>2019-02-07T10:24:08.000Z</time>
      </trkpt>
      <trkpt lat="43.62336" lon="6.85031">
        <ele>226</ele>
        <time>2019-02-07T10:24:09.000Z</time>
      </trkpt>
      <trkpt lat="43.62337" lon="6.8503">
        <ele>225</ele>
        <time>2019-02-07T10:24:10.000Z</time>
      </trkpt>
      <trkpt lat="43.62338" lon="6.85029">
        <ele>225</ele>
        <time>2019-02-07T10:24:11.000Z</time>
      </trkpt>
      <trkpt lat="43.62339" lon="6.85029">
        <ele>226</ele>
        <time>2019-02-07T10:24:12.000Z</time>
      </trkpt>
      <trkpt lat="43.62339" lon="6.85028">
        <ele>226</ele>
        <time>2019-02-07T10:24:13.000Z</time>
      </trkpt>
      <trkpt lat="43.62339" lon="6.85026">
        <ele>226</ele>
        <time>2019-02-07T10:24:14.000Z</time>
      </trkpt>
      <trkpt lat="43.6234" lon="6.85025">
        <ele>226</ele>
        <time>2019-02-07T10:24:15.000Z</time>
      </trkpt>
      <trkpt lat="43.6234" lon="6.85023">
        <ele>227</ele>
        <time>2019-02-07T10:24:16.000Z</time>
      </trkpt>
      <trkpt lat="43.6234" lon="6.85022">
        <ele>227</ele>
        <time>2019-02-07T10:24:17.000Z</time>
      </trkpt>
      <trkpt lat="43.62341" lon="6.85021">
        <ele>227</ele>
        <time>2019-02-07T10:24:18.000Z</time>
      </trkpt>
      <trkpt lat="43.62341" lon="6.85019">
        <ele>228</ele>
        <time>2019-02-07T10:24:19.000Z</time>
      </trkpt>
      <trkpt lat="43.62342" lon="6.85018">
        <ele>228</ele>
        <time>2019-02-07T10:24:20.000Z</time>
      </trkpt>
      <trkpt lat="43.62343" lon="6.85017">
        <ele>228</ele>
        <time>2019-02-07T10:24:21.000Z</time>
      </trkpt>
      <trkpt lat="43.62343" lon="6.85015">
        <ele>228</ele>
        <time>2019-02-07T10:24:22.000Z</time>
      </trkpt>
      <trkpt lat="43.62344" lon="6.85014">
        <ele>228</ele>
        <time>2019-02-07T10:24:23.000Z</time>
      </trkpt>
      <trkpt lat="43.62344" lon="6.85012">
        <ele>229</ele>
        <time>2019-02-07T10:24:24.000Z</time>
      </trkpt>
      <trkpt lat="43.62344" lon="6.85011">
        <ele>229</ele>
        <time>2019-02-07T10:24:25.000Z</time>
      </trkpt>
      <trkpt lat="43.62345" lon="6.8501">
        <ele>229</ele>
        <time>2019-02-07T10:24:26.000Z</time>
      </trkpt>
      <trkpt lat="43.62346" lon="6.85009">
        <ele>229</ele>
        <time>2019-02-07T10:24:27.000Z</time>
      </trkpt>
      <trkpt lat="43.62347" lon="6.85007">
        <ele>230</ele>
        <time>2019-02-07T10:24:28.000Z</time>
      </trkpt>
      <trkpt lat="43.62347" lon="6.85006">
        <ele>230</ele>
        <time>2019-02-07T10:24:29.000Z</time>
      </trkpt>
      <trkpt lat="43.62348" lon="6.85005">
        <ele>230</ele>
        <time>2019-02-07T10:24:30.000Z</time>
      </trkpt>
      <trkpt lat="43.62349" lon="6.85004">
        <ele>230</ele>
        <time>2019-02-07T10:24:31.000Z</time>
      </trkpt>
      <trkpt lat="43.6235" lon="6.85003">
        <ele>230</ele>
        <time>2019-02-07T10:24:32.000Z</time>
      </trkpt>
      <trkpt lat="43.62351" lon="6.85001">
        <ele>230</ele>
        <time>2019-02-07T10:24:33.000Z</time>
      </trkpt>
      <trkpt lat="43.62352" lon="6.85">
        <ele>230</ele>
        <time>2019-02-07T10:24:34.000Z</time>
      </trkpt>
      <trkpt lat="43.62353" lon="6.84999">
        <ele>230</ele>
        <time>2019-02-07T10:24:35.000Z</time>
      </trkpt>
      <trkpt lat="43.62354" lon="6.84997">
        <ele>230</ele>
        <time>2019-02-07T10:24:36.000Z</time>
      </trkpt>
      <trkpt lat="43.62355" lon="6.84996">
        <ele>230</ele>
        <time>2019-02-07T10:24:37.000Z</time>
      </trkpt>
      <trkpt lat="43.62355" lon="6.84995">
        <ele>230</ele>
        <time>2019-02-07T10:24:38.000Z</time>
      </trkpt>
      <trkpt lat="43.62356" lon="6.84994">
        <ele>231</ele>
        <time>2019-02-07T10:24:39.000Z</time>
      </trkpt>
      <trkpt lat="43.62357" lon="6.84993">
        <ele>231</ele>
        <time>2019-02-07T10:24:40.000Z</time>
      </trkpt>
      <trkpt lat="43.62358" lon="6.84992">
        <ele>231</ele>
        <time>2019-02-07T10:24:41.000Z</time>
      </trkpt>
      <trkpt lat="43.62359" lon="6.8499">
        <ele>231</ele>
        <time>2019-02-07T10:24:42.000Z</time>
      </trkpt>
      <trkpt lat="43.62359" lon="6.84989">
        <ele>231</ele>
        <time>2019-02-07T10:24:43.000Z</time>
      </trkpt>
      <trkpt lat="43.6236" lon="6.84988">
        <ele>232</ele>
        <time>2019-02-07T10:24:44.000Z</time>
      </trkpt>
      <trkpt lat="43.62361" lon="6.84987">
        <ele>233</ele>
        <time>2019-02-07T10:24:45.000Z</time>
      </trkpt>
      <trkpt lat="43.62361" lon="6.84986">
        <ele>233</ele>
        <time>2019-02-07T10:24:46.000Z</time>
      </trkpt>
      <trkpt lat="43.62362" lon="6.84985">
        <ele>233</ele>
        <time>2019-02-07T10:24:47.000Z</time>
      </trkpt>
      <trkpt lat="43.62363" lon="6.84984">
        <ele>233</ele>
        <time>2019-02-07T10:24:48.000Z</time>
      </trkpt>
      <trkpt lat="43.62364" lon="6.84983">
        <ele>233</ele>
        <time>2019-02-07T10:24:49.000Z</time>
      </trkpt>
      <trkpt lat="43.62364" lon="6.84982">
        <ele>233</ele>
        <time>2019-02-07T10:24:50.000Z</time>
      </trkpt>
      <trkpt lat="43.62365" lon="6.84981">
        <ele>233</ele>
        <time>2019-02-07T10:24:51.000Z</time>
      </trkpt>
      <trkpt lat="43.62366" lon="6.84981">
        <ele>233</ele>
        <time>2019-02-07T10:24:52.000Z</time>
      </trkpt>
      <trkpt lat="43.62367" lon="6.8498">
        <ele>232</ele>
        <time>2019-02-07T10:24:53.000Z</time>
      </trkpt>
      <trkpt lat="43.62367" lon="6.84979">
        <ele>232</ele>
        <time>2019-02-07T10:24:54.000Z</time>
      </trkpt>
      <trkpt lat="43.62368" lon="6.84978">
        <ele>232</ele>
        <time>2019-02-07T10:24:55.000Z</time>
      </trkpt>
      <trkpt lat="43.62369" lon="6.84977">
        <ele>232</ele>
        <time>2019-02-07T10:24:56.000Z</time>
      </trkpt>
      <trkpt lat="43.62369" lon="6.84976">
        <ele>233</ele>
        <time>2019-02-07T10:24:57.000Z</time>
      </trkpt>
      <trkpt lat="43.6237" lon="6.84975">
        <ele>233</ele>
        <time>2019-02-07T10:24:58.000Z</time>
      </trkpt>
      <trkpt lat="43.62371" lon="6.84973">
        <ele>233</ele>
        <time>2019-02-07T10:24:59.000Z</time>
      </trkpt>
      <trkpt lat="43.62371" lon="6.84972">
        <ele>233</ele>
        <time>2019-02-07T10:25:00.000Z</time>
      </trkpt>
      <trkpt lat="43.62371" lon="6.84971">
        <ele>233</ele>
        <time>2019-02-07T10:25:01.000Z</time>
      </trkpt>
      <trkpt lat="43.62372" lon="6.84969">
        <ele>233</ele>
        <time>2019-02-07T10:25:02.000Z</time>
      </trkpt>
      <trkpt lat="43.62372" lon="6.84968">
        <ele>234</ele>
        <time>2019-02-07T10:25:03.000Z</time>
      </trkpt>
      <trkpt lat="43.62372" lon="6.84967">
        <ele>234</ele>
        <time>2019-02-07T10:25:04.000Z</time>
      </trkpt>
      <trkpt lat="43.62372" lon="6.84965">
        <ele>234</ele>
        <time>2019-02-07T10:25:05.000Z</time>
      </trkpt>
      <trkpt lat="43.62373" lon="6.84964">
        <ele>234</ele>
        <time>2019-02-07T10:25:06.000Z</time>
      </trkpt>
      <trkpt lat="43.62373" lon="6.84963">
        <ele>234</ele>
        <time>2019-02-07T10:25:07.000Z</time>
      </trkpt>
      <trkpt lat="43.62373" lon="6.84961">
        <ele>234</ele>
        <time>2019-02-07T10:25:08.000Z</time>
      </trkpt>
      <trkpt lat="43.62374" lon="6.8496">
        <ele>234</ele>
        <time>2019-02-07T10:25:09.000Z</time>
      </trkpt>
      <trkpt lat="43.62374" lon="6.84959">
        <ele>235</ele>
        <time>2019-02-07T10:25:10.000Z</time>
      </trkpt>
      <trkpt lat="43.62374" lon="6.84957">
        <ele>235</ele>
        <time>2019-02-07T10:25:11.000Z</time>
      </trkpt>
      <trkpt lat="43.62375" lon="6.84956">
        <ele>235</ele>
        <time>2019-02-07T10:25:12.000Z</time>
      </trkpt>
      <trkpt lat="43.62375" lon="6.84954">
        <ele>235</ele>
        <time>2019-02-07T10:25:13.000Z</time>
      </trkpt>
      <trkpt lat="43.62376" lon="6.84953">
        <ele>236</ele>
        <time>2019-02-07T10:25:14.000Z</time>
      </trkpt>
      <trkpt lat="43.62376" lon="6.84951">
        <ele>236</ele>
        <time>2019-02-07T10:25:15.000Z</time>
      </trkpt>
      <trkpt lat="43.62377" lon="6.8495">
        <ele>236</ele>
        <time>2019-02-07T10:25:16.000Z</time>
      </trkpt>
      <trkpt lat="43.62377" lon="6.84949">
        <ele>236</ele>
        <time>2019-02-07T10:25:17.000Z</time>
      </trkpt>
      <trkpt lat="43.62378" lon="6.84947">
        <ele>236</ele>
        <time>2019-02-07T10:25:18.000Z</time>
      </trkpt>
      <trkpt lat="43.62378" lon="6.84946">
        <ele>236</ele>
        <time>2019-02-07T10:25:19.000Z</time>
      </trkpt>
      <trkpt lat="43.62378" lon="6.84945">
        <ele>236</ele>
        <time>2019-02-07T10:25:20.000Z</time>
      </trkpt>
      <trkpt lat="43.62379" lon="6.84944">
        <ele>236</ele>
        <time>2019-02-07T10:25:21.000Z</time>
      </trkpt>
      <trkpt lat="43.62379" lon="6.84943">
        <ele>236</ele>
        <time>2019-02-07T10:25:22.000Z</time>
      </trkpt>
      <trkpt lat="43.6238" lon="6.84941">
        <ele>236</ele>
        <time>2019-02-07T10:25:23.000Z</time>
      </trkpt>
      <trkpt lat="43.6238" lon="6.8494">
        <ele>235</ele>
        <time>2019-02-07T10:25:24.000Z</time>
      </trkpt>
      <trkpt lat="43.62381" lon="6.84939">
        <ele>235</ele>
        <time>2019-02-07T10:25:25.000Z</time>
      </trkpt>
      <trkpt lat="43.62381" lon="6.84938">
        <ele>235</ele>
        <time>2019-02-07T10:25:26.000Z</time>
      </trkpt>
      <trkpt lat="43.62382" lon="6.84936">
        <ele>236</ele>
        <time>2019-02-07T10:25:27.000Z</time>
      </trkpt>
      <trkpt lat="43.62382" lon="6.84935">
        <ele>236</ele>
        <time>2019-02-07T10:25:28.000Z</time>
      </trkpt>
      <trkpt lat="43.62383" lon="6.84934">
        <ele>236</ele>
        <time>2019-02-07T10:25:29.000Z</time>
      </trkpt>
      <trkpt lat="43.62383" lon="6.84933">
        <ele>236</ele>
        <time>2019-02-07T10:25:30.000Z</time>
      </trkpt>
      <trkpt lat="43.62384" lon="6.84932">
        <ele>236</ele>
        <time>2019-02-07T10:25:31.000Z</time>
      </trkpt>
      <trkpt lat="43.62384" lon="6.84931">
        <ele>236</ele>
        <time>2019-02-07T10:25:32.000Z</time>
      </trkpt>
      <trkpt lat="43.62385" lon="6.8493">
        <ele>236</ele>
        <time>2019-02-07T10:25:33.000Z</time>
      </trkpt>
      <trkpt lat="43.62385" lon="6.84929">
        <ele>236</ele>
        <time>2019-02-07T10:25:34.000Z</time>
      </trkpt>
      <trkpt lat="43.62386" lon="6.84927">
        <ele>236</ele>
        <time>2019-02-07T10:25:35.000Z</time>
      </trkpt>
      <trkpt lat="43.62386" lon="6.84926">
        <ele>236</ele>
        <time>2019-02-07T10:25:36.000Z</time>
      </trkpt>
      <trkpt lat="43.62386" lon="6.84925">
        <ele>236</ele>
        <time>2019-02-07T10:25:37.000Z</time>
      </trkpt>
      <trkpt lat="43.62387" lon="6.84923">
        <ele>237</ele>
        <time>2019-02-07T10:25:38.000Z</time>
      </trkpt>
      <trkpt lat="43.62387" lon="6.84922">
        <ele>236</ele>
        <time>2019-02-07T10:25:39.000Z</time>
      </trkpt>
      <trkpt lat="43.62388" lon="6.84921">
        <ele>236</ele>
        <time>2019-02-07T10:25:40.000Z</time>
      </trkpt>
      <trkpt lat="43.62388" lon="6.8492">
        <ele>236</ele>
        <time>2019-02-07T10:25:41.000Z</time>
      </trkpt>
      <trkpt lat="43.62389" lon="6.8492">
        <ele>237</ele>
        <time>2019-02-07T10:25:42.000Z</time>
      </trkpt>
      <trkpt lat="43.6239" lon="6.84919">
        <ele>237</ele>
        <time>2019-02-07T10:25:43.000Z</time>
      </trkpt>
      <trkpt lat="43.62391" lon="6.84919">
        <ele>238</ele>
        <time>2019-02-07T10:25:44.000Z</time>
      </trkpt>
      <trkpt lat="43.62392" lon="6.84918">
        <ele>238</ele>
        <time>2019-02-07T10:25:45.000Z</time>
      </trkpt>
      <trkpt lat="43.62392" lon="6.84917">
        <ele>238</ele>
        <time>2019-02-07T10:25:46.000Z</time>
      </trkpt>
      <trkpt lat="43.62393" lon="6.84916">
        <ele>238</ele>
        <time>2019-02-07T10:25:47.000Z</time>
      </trkpt>
      <trkpt lat="43.62394" lon="6.84915">
        <ele>239</ele>
        <time>2019-02-07T10:25:48.000Z</time>
      </trkpt>
      <trkpt lat="43.62395" lon="6.84914">
        <ele>239</ele>
        <time>2019-02-07T10:25:49.000Z</time>
      </trkpt>
      <trkpt lat="43.62395" lon="6.84913">
        <ele>240</ele>
        <time>2019-02-07T10:25:50.000Z</time>
      </trkpt>
      <trkpt lat="43.62396" lon="6.84911">
        <ele>240</ele>
        <time>2019-02-07T10:25:51.000Z</time>
      </trkpt>
      <trkpt lat="43.62396" lon="6.8491">
        <ele>240</ele>
        <time>2019-02-07T10:25:52.000Z</time>
      </trkpt>
      <trkpt lat="43.62397" lon="6.84909">
        <ele>240</ele>
        <time>2019-02-07T10:25:53.000Z</time>
      </trkpt>
      <trkpt lat="43.62398" lon="6.84907">
        <ele>240</ele>
        <time>2019-02-07T10:25:54.000Z</time>
      </trkpt>
      <trkpt lat="43.62398" lon="6.84906">
        <ele>241</ele>
        <time>2019-02-07T10:25:55.000Z</time>
      </trkpt>
      <trkpt lat="43.62399" lon="6.84904">
        <ele>241</ele>
        <time>2019-02-07T10:25:56.000Z</time>
      </trkpt>
      <trkpt lat="43.62399" lon="6.84903">
        <ele>241</ele>
        <time>2019-02-07T10:25:57.000Z</time>
      </trkpt>
      <trkpt lat="43.624" lon="6.84902">
        <ele>241</ele>
        <time>2019-02-07T10:25:58.000Z</time>
      </trkpt>
      <trkpt lat="43.624" lon="6.849">
        <ele>241</ele>
        <time>2019-02-07T10:25:59.000Z</time>
      </trkpt>
      <trkpt lat="43.62401" lon="6.84899">
        <ele>242</ele>
        <time>2019-02-07T10:26:00.000Z</time>
      </trkpt>
      <trkpt lat="43.62401" lon="6.84898">
        <ele>242</ele>
        <time>2019-02-07T10:26:01.000Z</time>
      </trkpt>
      <trkpt lat="43.62402" lon="6.84897">
        <ele>242</ele>
        <time>2019-02-07T10:26:02.000Z</time>
      </trkpt>
      <trkpt lat="43.62402" lon="6.84895">
        <ele>243</ele>
        <time>2019-02-07T10:26:03.000Z</time>
      </trkpt>
      <trkpt lat="43.62403" lon="6.84894">
        <ele>242</ele>
        <time>2019-02-07T10:26:04.000Z</time>
      </trkpt>
      <trkpt lat="43.62404" lon="6.84893">
        <ele>242</ele>
        <time>2019-02-07T10:26:05.000Z</time>
      </trkpt>
      <trkpt lat="43.62404" lon="6.84892">
        <ele>242</ele>
        <time>2019-02-07T10:26:06.000Z</time>
      </trkpt>
      <trkpt lat="43.62405" lon="6.84891">
        <ele>242</ele>
        <time>2019-02-07T10:26:07.000Z</time>
      </trkpt>
      <trkpt lat="43.62406" lon="6.8489">
        <ele>243</ele>
        <time>2019-02-07T10:26:08.000Z</time>
      </trkpt>
      <trkpt lat="43.62407" lon="6.8489">
        <ele>243</ele>
        <time>2019-02-07T10:26:09.000Z</time>
      </trkpt>
      <trkpt lat="43.62408" lon="6.84889">
        <ele>243</ele>
        <time>2019-02-07T10:26:10.000Z</time>
      </trkpt>
      <trkpt lat="43.62408" lon="6.84888">
        <ele>243</ele>
        <time>2019-02-07T10:26:11.000Z</time>
      </trkpt>
      <trkpt lat="43.62409" lon="6.84887">
        <ele>243</ele>
        <time>2019-02-07T10:26:12.000Z</time>
      </trkpt>
      <trkpt lat="43.6241" lon="6.84886">
        <ele>243</ele>
        <time>2019-02-07T10:26:13.000Z</time>
      </trkpt>
      <trkpt lat="43.62411" lon="6.84885">
        <ele>244</ele>
        <time>2019-02-07T10:26:14.000Z</time>
      </trkpt>
      <trkpt lat="43.62412" lon="6.84884">
        <ele>243</ele>
        <time>2019-02-07T10:26:15.000Z</time>
      </trkpt>
      <trkpt lat="43.62413" lon="6.84883">
        <ele>243</ele>
        <time>2019-02-07T10:26:16.000Z</time>
      </trkpt>
      <trkpt lat="43.62414" lon="6.84882">
        <ele>243</ele>
        <time>2019-02-07T10:26:17.000Z</time>
      </trkpt>
      <trkpt lat="43.62414" lon="6.84881">
        <ele>243</ele>
        <time>2019-02-07T10:26:18.000Z</time>
      </trkpt>
      <trkpt lat="43.62415" lon="6.8488">
        <ele>243</ele>
        <time>2019-02-07T10:26:19.000Z</time>
      </trkpt>
      <trkpt lat="43.62416" lon="6.84879">
        <ele>243</ele>
        <time>2019-02-07T10:26:20.000Z</time>
      </trkpt>
      <trkpt lat="43.62417" lon="6.84878">
        <ele>244</ele>
        <time>2019-02-07T10:26:21.000Z</time>
      </trkpt>
      <trkpt lat="43.62418" lon="6.84877">
        <ele>244</ele>
        <time>2019-02-07T10:26:22.000Z</time>
      </trkpt>
      <trkpt lat="43.62419" lon="6.84876">
        <ele>244</ele>
        <time>2019-02-07T10:26:23.000Z</time>
      </trkpt>
      <trkpt lat="43.62419" lon="6.84875">
        <ele>244</ele>
        <time>2019-02-07T10:26:24.000Z</time>
      </trkpt>
      <trkpt lat="43.6242" lon="6.84874">
        <ele>245</ele>
        <time>2019-02-07T10:26:25.000Z</time>
      </trkpt>
      <trkpt lat="43.62421" lon="6.84873">
        <ele>245</ele>
        <time>2019-02-07T10:26:26.000Z</time>
      </trkpt>
      <trkpt lat="43.62421" lon="6.84872">
        <ele>244</ele>
        <time>2019-02-07T10:26:27.000Z</time>
      </trkpt>
      <trkpt lat="43.62422" lon="6.84871">
        <ele>244</ele>
        <time>2019-02-07T10:26:28.000Z</time>
      </trkpt>
      <trkpt lat="43.62423" lon="6.84869">
        <ele>243</ele>
        <time>2019-02-07T10:26:29.000Z</time>
      </trkpt>
      <trkpt lat="43.62424" lon="6.84868">
        <ele>243</ele>
        <time>2019-02-07T10:26:30.000Z</time>
      </trkpt>
      <trkpt lat="43.62425" lon="6.84867">
        <ele>243</ele>
        <time>2019-02-07T10:26:31.000Z</time>
      </trkpt>
      <trkpt lat="43.62425" lon="6.84866">
        <ele>243</ele>
        <time>2019-02-07T10:26:32.000Z</time>
      </trkpt>
      <trkpt lat="43.62426" lon="6.84865">
        <ele>244</ele>
        <time>2019-02-07T10:26:33.000Z</time>
      </trkpt>
      <trkpt lat="43.62427" lon="6.84864">
        <ele>243</ele>
        <time>2019-02-07T10:26:34.000Z</time>
      </trkpt>
      <trkpt lat="43.62427" lon="6.84863">
        <ele>243</ele>
        <time>2019-02-07T10:26:35.000Z</time>
      </trkpt>
      <trkpt lat="43.62428" lon="6.84861">
        <ele>244</ele>
        <time>2019-02-07T10:26:36.000Z</time>
      </trkpt>
      <trkpt lat="43.62429" lon="6.8486">
        <ele>245</ele>
        <time>2019-02-07T10:26:37.000Z</time>
      </trkpt>
      <trkpt lat="43.6243" lon="6.84859">
        <ele>245</ele>
        <time>2019-02-07T10:26:38.000Z</time>
      </trkpt>
      <trkpt lat="43.6243" lon="6.84858">
        <ele>245</ele>
        <time>2019-02-07T10:26:39.000Z</time>
      </trkpt>
      <trkpt lat="43.62431" lon="6.84857">
        <ele>246</ele>
        <time>2019-02-07T10:26:40.000Z</time>
      </trkpt>
      <trkpt lat="43.62431" lon="6.84855">
        <ele>246</ele>
        <time>2019-02-07T10:26:41.000Z</time>
      </trkpt>
      <trkpt lat="43.62432" lon="6.84854">
        <ele>246</ele>
        <time>2019-02-07T10:26:42.000Z</time>
      </trkpt>
      <trkpt lat="43.62433" lon="6.84853">
        <ele>245</ele>
        <time>2019-02-07T10:26:43.000Z</time>
      </trkpt>
      <trkpt lat="43.62434" lon="6.84853">
        <ele>246</ele>
        <time>2019-02-07T10:26:44.000Z</time>
      </trkpt>
      <trkpt lat="43.62435" lon="6.84852">
        <ele>246</ele>
        <time>2019-02-07T10:26:45.000Z</time>
      </trkpt>
      <trkpt lat="43.62436" lon="6.84851">
        <ele>246</ele>
        <time>2019-02-07T10:26:46.000Z</time>
      </trkpt>
      <trkpt lat="43.62437" lon="6.8485">
        <ele>246</ele>
        <time>2019-02-07T10:26:47.000Z</time>
      </trkpt>
      <trkpt lat="43.62438" lon="6.8485">
        <ele>246</ele>
        <time>2019-02-07T10:26:48.000Z</time>
      </trkpt>
      <trkpt lat="43.62439" lon="6.84849">
        <ele>246</ele>
        <time>2019-02-07T10:26:49.000Z</time>
      </trkpt>
      <trkpt lat="43.6244" lon="6.84848">
        <ele>246</ele>
        <time>2019-02-07T10:26:50.000Z</time>
      </trkpt>
      <trkpt lat="43.62441" lon="6.84848">
        <ele>247</ele>
        <time>2019-02-07T10:26:51.000Z</time>
      </trkpt>
      <trkpt lat="43.62442" lon="6.84847">
        <ele>246</ele>
        <time>2019-02-07T10:26:52.000Z</time>
      </trkpt>
      <trkpt lat="43.62443" lon="6.84846">
        <ele>246</ele>
        <time>2019-02-07T10:26:53.000Z</time>
      </trkpt>
      <trkpt lat="43.62444" lon="6.84845">
        <ele>246</ele>
        <time>2019-02-07T10:26:54.000Z</time>
      </trkpt>
      <trkpt lat="43.62445" lon="6.84843">
        <ele>245</ele>
        <time>2019-02-07T10:26:55.000Z</time>
      </trkpt>
      <trkpt lat="43.62445" lon="6.84842">
        <ele>245</ele>
        <time>2019-02-07T10:26:56.000Z</time>
      </trkpt>
      <trkpt lat="43.62446" lon="6.84841">
        <ele>245</ele>
        <time>2019-02-07T10:26:57.000Z</time>
      </trkpt>
      <trkpt lat="43.62447" lon="6.84839">
        <ele>245</ele>
        <time>2019-02-07T10:26:58.000Z</time>
      </trkpt>
      <trkpt lat="43.62448" lon="6.84837">
        <ele>245</ele>
        <time>2019-02-07T10:26:59.000Z</time>
      </trkpt>
      <trkpt lat="43.62449" lon="6.84835">
        <ele>245</ele>
        <time>2019-02-07T10:27:00.000Z</time>
      </trkpt>
      <trkpt lat="43.6245" lon="6.84834">
        <ele>245</ele>
        <time>2019-02-07T10:27:01.000Z</time>
      </trkpt>
      <trkpt lat="43.62451" lon="6.84832">
        <ele>245</ele>
        <time>2019-02-07T10:27:02.000Z</time>
      </trkpt>
      <trkpt lat="43.62453" lon="6.84829">
        <ele>244</ele>
        <time>2019-02-07T10:27:03.000Z</time>
      </trkpt>
      <trkpt lat="43.62454" lon="6.84827">
        <ele>244</ele>
        <time>2019-02-07T10:27:04.000Z</time>
      </trkpt>
      <trkpt lat="43.62456" lon="6.84824">
        <ele>244</ele>
        <time>2019-02-07T10:27:05.000Z</time>
      </trkpt>
      <trkpt lat="43.62457" lon="6.84822">
        <ele>244</ele>
        <time>2019-02-07T10:27:06.000Z</time>
      </trkpt>
      <trkpt lat="43.62458" lon="6.84819">
        <ele>243</ele>
        <time>2019-02-07T10:27:07.000Z</time>
      </trkpt>
      <trkpt lat="43.6246" lon="6.84817">
        <ele>243</ele>
        <time>2019-02-07T10:27:08.000Z</time>
      </trkpt>
      <trkpt lat="43.62461" lon="6.84815">
        <ele>243</ele>
        <time>2019-02-07T10:27:09.000Z</time>
      </trkpt>
      <trkpt lat="43.62462" lon="6.84813">
        <ele>243</ele>
        <time>2019-02-07T10:27:10.000Z</time>
      </trkpt>
      <trkpt lat="43.62464" lon="6.8481">
        <ele>242</ele>
        <time>2019-02-07T10:27:11.000Z</time>
      </trkpt>
      <trkpt lat="43.62465" lon="6.84808">
        <ele>242</ele>
        <time>2019-02-07T10:27:12.000Z</time>
      </trkpt>
      <trkpt lat="43.62466" lon="6.84806">
        <ele>242</ele>
        <time>2019-02-07T10:27:13.000Z</time>
      </trkpt>
      <trkpt lat="43.62468" lon="6.84803">
        <ele>242</ele>
        <time>2019-02-07T10:27:14.000Z</time>
      </trkpt>
      <trkpt lat="43.62469" lon="6.84801">
        <ele>242</ele>
        <time>2019-02-07T10:27:15.000Z</time>
      </trkpt>
      <trkpt lat="43.62471" lon="6.84799">
        <ele>242</ele>
        <time>2019-02-07T10:27:16.000Z</time>
      </trkpt>
      <trkpt lat="43.62472" lon="6.84796">
        <ele>242</ele>
        <time>2019-02-07T10:27:17.000Z</time>
      </trkpt>
      <trkpt lat="43.62474" lon="6.84794">
        <ele>242</ele>
        <time>2019-02-07T10:27:18.000Z</time>
      </trkpt>
      <trkpt lat="43.62475" lon="6.84792">
        <ele>242</ele>
        <time>2019-02-07T10:27:19.000Z</time>
      </trkpt>
      <trkpt lat="43.62477" lon="6.8479">
        <ele>241</ele>
        <time>2019-02-07T10:27:20.000Z</time>
      </trkpt>
      <trkpt lat="43.62478" lon="6.84788">
        <ele>241</ele>
        <time>2019-02-07T10:27:21.000Z</time>
      </trkpt>
      <trkpt lat="43.6248" lon="6.84786">
        <ele>241</ele>
        <time>2019-02-07T10:27:22.000Z</time>
      </trkpt>
      <trkpt lat="43.62481" lon="6.84784">
        <ele>242</ele>
        <time>2019-02-07T10:27:23.000Z</time>
      </trkpt>
      <trkpt lat="43.62483" lon="6.84781">
        <ele>242</ele>
        <time>2019-02-07T10:27:24.000Z</time>
      </trkpt>
      <trkpt lat="43.62484" lon="6.84778">
        <ele>242</ele>
        <time>2019-02-07T10:27:25.000Z</time>
      </trkpt>
      <trkpt lat="43.62485" lon="6.84775">
        <ele>241</ele>
        <time>2019-02-07T10:27:26.000Z</time>
      </trkpt>
      <trkpt lat="43.62486" lon="6.84772">
        <ele>242</ele>
        <time>2019-02-07T10:27:27.000Z</time>
      </trkpt>
      <trkpt lat="43.62487" lon="6.84769">
        <ele>242</ele>
        <time>2019-02-07T10:27:28.000Z</time>
      </trkpt>
      <trkpt lat="43.62488" lon="6.84767">
        <ele>242</ele>
        <time>2019-02-07T10:27:29.000Z</time>
      </trkpt>
      <trkpt lat="43.6249" lon="6.84764">
        <ele>242</ele>
        <time>2019-02-07T10:27:30.000Z</time>
      </trkpt>
      <trkpt lat="43.62491" lon="6.84761">
        <ele>243</ele>
        <time>2019-02-07T10:27:31.000Z</time>
      </trkpt>
      <trkpt lat="43.62491" lon="6.84759">
        <ele>244</ele>
        <time>2019-02-07T10:27:32.000Z</time>
      </trkpt>
      <trkpt lat="43.62492" lon="6.84756">
        <ele>244</ele>
        <time>2019-02-07T10:27:33.000Z</time>
      </trkpt>
      <trkpt lat="43.62493" lon="6.84754">
        <ele>244</ele>
        <time>2019-02-07T10:27:34.000Z</time>
      </trkpt>
      <trkpt lat="43.62494" lon="6.84751">
        <ele>245</ele>
        <time>2019-02-07T10:27:35.000Z</time>
      </trkpt>
      <trkpt lat="43.62494" lon="6.84748">
        <ele>246</ele>
        <time>2019-02-07T10:27:36.000Z</time>
      </trkpt>
      <trkpt lat="43.62496" lon="6.84746">
        <ele>246</ele>
        <time>2019-02-07T10:27:37.000Z</time>
      </trkpt>
      <trkpt lat="43.62497" lon="6.84743">
        <ele>247</ele>
        <time>2019-02-07T10:27:38.000Z</time>
      </trkpt>
      <trkpt lat="43.62498" lon="6.8474">
        <ele>246</ele>
        <time>2019-02-07T10:27:39.000Z</time>
      </trkpt>
      <trkpt lat="43.62499" lon="6.84737">
        <ele>247</ele>
        <time>2019-02-07T10:27:40.000Z</time>
      </trkpt>
      <trkpt lat="43.625" lon="6.84734">
        <ele>246</ele>
        <time>2019-02-07T10:27:41.000Z</time>
      </trkpt>
      <trkpt lat="43.625" lon="6.84731">
        <ele>246</ele>
        <time>2019-02-07T10:27:42.000Z</time>
      </trkpt>
      <trkpt lat="43.62502" lon="6.84729">
        <ele>246</ele>
        <time>2019-02-07T10:27:43.000Z</time>
      </trkpt>
      <trkpt lat="43.62503" lon="6.84726">
        <ele>247</ele>
        <time>2019-02-07T10:27:44.000Z</time>
      </trkpt>
      <trkpt lat="43.62504" lon="6.84723">
        <ele>247</ele>
        <time>2019-02-07T10:27:45.000Z</time>
      </trkpt>
      <trkpt lat="43.62506" lon="6.84721">
        <ele>248</ele>
        <time>2019-02-07T10:27:46.000Z</time>
      </trkpt>
      <trkpt lat="43.62507" lon="6.84718">
        <ele>248</ele>
        <time>2019-02-07T10:27:47.000Z</time>
      </trkpt>
      <trkpt lat="43.62508" lon="6.84716">
        <ele>248</ele>
        <time>2019-02-07T10:27:48.000Z</time>
      </trkpt>
      <trkpt lat="43.6251" lon="6.84714">
        <ele>248</ele>
        <time>2019-02-07T10:27:49.000Z</time>
      </trkpt>
      <trkpt lat="43.62511" lon="6.84712">
        <ele>248</ele>
        <time>2019-02-07T10:27:50.000Z</time>
      </trkpt>
      <trkpt lat="43.62512" lon="6.8471">
        <ele>247</ele>
        <time>2019-02-07T10:27:51.000Z</time>
      </trkpt>
      <trkpt lat="43.62513" lon="6.84708">
        <ele>247</ele>
        <time>2019-02-07T10:27:52.000Z</time>
      </trkpt>
      <trkpt lat="43.62515" lon="6.84706">
        <ele>246</ele>
        <time>2019-02-07T10:27:53.000Z</time>
      </trkpt>
      <trkpt lat="43.62517" lon="6.84704">
        <ele>246</ele>
        <time>2019-02-07T10:27:54.000Z</time>
      </trkpt>
      <trkpt lat="43.62518" lon="6.84702">
        <ele>247</ele>
        <time>2019-02-07T10:27:55.000Z</time>
      </trkpt>
      <trkpt lat="43.6252" lon="6.847">
        <ele>247</ele>
        <time>2019-02-07T10:27:56.000Z</time>
      </trkpt>
      <trkpt lat="43.62521" lon="6.84697">
        <ele>249</ele>
        <time>2019-02-07T10:27:57.000Z</time>
      </trkpt>
      <trkpt lat="43.62523" lon="6.84695">
        <ele>249</ele>
        <time>2019-02-07T10:27:58.000Z</time>
      </trkpt>
      <trkpt lat="43.62524" lon="6.84693">
        <ele>249</ele>
        <time>2019-02-07T10:27:59.000Z</time>
      </trkpt>
      <trkpt lat="43.62525" lon="6.84691">
        <ele>249</ele>
        <time>2019-02-07T10:28:00.000Z</time>
      </trkpt>
      <trkpt lat="43.62527" lon="6.84689">
        <ele>249</ele>
        <time>2019-02-07T10:28:01.000Z</time>
      </trkpt>
      <trkpt lat="43.62528" lon="6.84686">
        <ele>249</ele>
        <time>2019-02-07T10:28:02.000Z</time>
      </trkpt>
      <trkpt lat="43.62529" lon="6.84684">
        <ele>248</ele>
        <time>2019-02-07T10:28:03.000Z</time>
      </trkpt>
      <trkpt lat="43.62531" lon="6.84681">
        <ele>249</ele>
        <time>2019-02-07T10:28:04.000Z</time>
      </trkpt>
      <trkpt lat="43.62533" lon="6.84679">
        <ele>249</ele>
        <time>2019-02-07T10:28:05.000Z</time>
      </trkpt>
      <trkpt lat="43.62534" lon="6.84677">
        <ele>249</ele>
        <time>2019-02-07T10:28:06.000Z</time>
      </trkpt>
      <trkpt lat="43.62536" lon="6.84675">
        <ele>249</ele>
        <time>2019-02-07T10:28:07.000Z</time>
      </trkpt>
      <trkpt lat="43.62537" lon="6.84674">
        <ele>248</ele>
        <time>2019-02-07T10:28:08.000Z</time>
      </trkpt>
      <trkpt lat="43.62539" lon="6.84672">
        <ele>248</ele>
        <time>2019-02-07T10:28:09.000Z</time>
      </trkpt>
      <trkpt lat="43.62541" lon="6.84671">
        <ele>248</ele>
        <time>2019-02-07T10:28:10.000Z</time>
      </trkpt>
      <trkpt lat="43.62543" lon="6.84669">
        <ele>247</ele>
        <time>2019-02-07T10:28:11.000Z</time>
      </trkpt>
      <trkpt lat="43.62545" lon="6.84667">
        <ele>246</ele>
        <time>2019-02-07T10:28:12.000Z</time>
      </trkpt>
      <trkpt lat="43.62547" lon="6.84666">
        <ele>246</ele>
        <time>2019-02-07T10:28:13.000Z</time>
      </trkpt>
      <trkpt lat="43.62548" lon="6.84664">
        <ele>246</ele>
        <time>2019-02-07T10:28:14.000Z</time>
      </trkpt>
      <trkpt lat="43.6255" lon="6.84662">
        <ele>246</ele>
        <time>2019-02-07T10:28:15.000Z</time>
      </trkpt>
      <trkpt lat="43.62552" lon="6.8466">
        <ele>246</ele>
        <time>2019-02-07T10:28:16.000Z</time>
      </trkpt>
      <trkpt lat="43.62554" lon="6.84658">
        <ele>246</ele>
        <time>2019-02-07T10:28:17.000Z</time>
      </trkpt>
      <trkpt lat="43.62556" lon="6.84657">
        <ele>246</ele>
        <time>2019-02-07T10:28:18.000Z</time>
      </trkpt>
      <trkpt lat="43.62558" lon="6.84655">
        <ele>246</ele>
        <time>2019-02-07T10:28:19.000Z</time>
      </trkpt>
      <trkpt lat="43.6256" lon="6.84654">
        <ele>245</ele>
        <time>2019-02-07T10:28:20.000Z</time>
      </trkpt>
      <trkpt lat="43.62562" lon="6.84653">
        <ele>245</ele>
        <time>2019-02-07T10:28:21.000Z</time>
      </trkpt>
      <trkpt lat="43.62564" lon="6.84652">
        <ele>245</ele>
        <time>2019-02-07T10:28:22.000Z</time>
      </trkpt>
      <trkpt lat="43.62566" lon="6.8465">
        <ele>246</ele>
        <time>2019-02-07T10:28:23.000Z</time>
      </trkpt>
      <trkpt lat="43.62568" lon="6.84649">
        <ele>246</ele>
        <time>2019-02-07T10:28:24.000Z</time>
      </trkpt>
      <trkpt lat="43.6257" lon="6.84647">
        <ele>246</ele>
        <time>2019-02-07T10:28:25.000Z</time>
      </trkpt>
      <trkpt lat="43.62572" lon="6.84646">
        <ele>244</ele>
        <time>2019-02-07T10:28:26.000Z</time>
      </trkpt>
      <trkpt lat="43.62573" lon="6.84646">
        <ele>243</ele>
        <time>2019-02-07T10:28:27.000Z</time>
      </trkpt>
      <trkpt lat="43.62575" lon="6.84644">
        <ele>243</ele>
        <time>2019-02-07T10:28:28.000Z</time>
      </trkpt>
      <trkpt lat="43.62576" lon="6.84643">
        <ele>242</ele>
        <time>2019-02-07T10:28:29.000Z</time>
      </trkpt>
      <trkpt lat="43.62578" lon="6.84642">
        <ele>242</ele>
        <time>2019-02-07T10:28:30.000Z</time>
      </trkpt>
      <trkpt lat="43.6258" lon="6.8464">
        <ele>241</ele>
        <time>2019-02-07T10:28:31.000Z</time>
      </trkpt>
      <trkpt lat="43.62582" lon="6.84639">
        <ele>241</ele>
        <time>2019-02-07T10:28:32.000Z</time>
      </trkpt>
      <trkpt lat="43.62584" lon="6.84638">
        <ele>240</ele>
        <time>2019-02-07T10:28:33.000Z</time>
      </trkpt>
      <trkpt lat="43.62586" lon="6.84637">
        <ele>241</ele>
        <time>2019-02-07T10:28:34.000Z</time>
      </trkpt>
      <trkpt lat="43.62589" lon="6.84636">
        <ele>241</ele>
        <time>2019-02-07T10:28:35.000Z</time>
      </trkpt>
      <trkpt lat="43.62591" lon="6.84635">
        <ele>241</ele>
        <time>2019-02-07T10:28:36.000Z</time>
      </trkpt>
      <trkpt lat="43.62593" lon="6.84634">
        <ele>242</ele>
        <time>2019-02-07T10:28:37.000Z</time>
      </trkpt>
      <trkpt lat="43.62597" lon="6.84634">
        <ele>242</ele>
        <time>2019-02-07T10:28:38.000Z</time>
      </trkpt>
      <trkpt lat="43.626" lon="6.84633">
        <ele>242</ele>
        <time>2019-02-07T10:28:39.000Z</time>
      </trkpt>
      <trkpt lat="43.62605" lon="6.84633">
        <ele>242</ele>
        <time>2019-02-07T10:28:40.000Z</time>
      </trkpt>
      <trkpt lat="43.62608" lon="6.84632">
        <ele>241</ele>
        <time>2019-02-07T10:28:41.000Z</time>
      </trkpt>
      <trkpt lat="43.62611" lon="6.84631">
        <ele>241</ele>
        <time>2019-02-07T10:28:42.000Z</time>
      </trkpt>
      <trkpt lat="43.62614" lon="6.84631">
        <ele>241</ele>
        <time>2019-02-07T10:28:43.000Z</time>
      </trkpt>
      <trkpt lat="43.62617" lon="6.8463">
        <ele>241</ele>
        <time>2019-02-07T10:28:44.000Z</time>
      </trkpt>
      <trkpt lat="43.62619" lon="6.8463">
        <ele>241</ele>
        <time>2019-02-07T10:28:45.000Z</time>
      </trkpt>
      <trkpt lat="43.62622" lon="6.84629">
        <ele>240</ele>
        <time>2019-02-07T10:28:46.000Z</time>
      </trkpt>
      <trkpt lat="43.62624" lon="6.84628">
        <ele>239</ele>
        <time>2019-02-07T10:28:47.000Z</time>
      </trkpt>
      <trkpt lat="43.62626" lon="6.84628">
        <ele>239</ele>
        <time>2019-02-07T10:28:48.000Z</time>
      </trkpt>
      <trkpt lat="43.62628" lon="6.84627">
        <ele>238</ele>
        <time>2019-02-07T10:28:49.000Z</time>
      </trkpt>
      <trkpt lat="43.6263" lon="6.84626">
        <ele>237</ele>
        <time>2019-02-07T10:28:50.000Z</time>
      </trkpt>
      <trkpt lat="43.62633" lon="6.84626">
        <ele>237</ele>
        <time>2019-02-07T10:28:51.000Z</time>
      </trkpt>
      <trkpt lat="43.62635" lon="6.84625">
        <ele>238</ele>
        <time>2019-02-07T10:28:52.000Z</time>
      </trkpt>
      <trkpt lat="43.62638" lon="6.84624">
        <ele>238</ele>
        <time>2019-02-07T10:28:53.000Z</time>
      </trkpt>
      <trkpt lat="43.62641" lon="6.84624">
        <ele>239</ele>
        <time>2019-02-07T10:28:54.000Z</time>
      </trkpt>
      <trkpt lat="43.62644" lon="6.84624">
        <ele>238</ele>
        <time>2019-02-07T10:28:55.000Z</time>
      </trkpt>
      <trkpt lat="43.62647" lon="6.84625">
        <ele>239</ele>
        <time>2019-02-07T10:28:56.000Z</time>
      </trkpt>
      <trkpt lat="43.62649" lon="6.84625">
        <ele>239</ele>
        <time>2019-02-07T10:28:57.000Z</time>
      </trkpt>
      <trkpt lat="43.62652" lon="6.84625">
        <ele>239</ele>
        <time>2019-02-07T10:28:58.000Z</time>
      </trkpt>
      <trkpt lat="43.62654" lon="6.84625">
        <ele>239</ele>
        <time>2019-02-07T10:28:59.000Z</time>
      </trkpt>
      <trkpt lat="43.62656" lon="6.84625">
        <ele>239</ele>
        <time>2019-02-07T10:29:00.000Z</time>
      </trkpt>
      <trkpt lat="43.62658" lon="6.84625">
        <ele>239</ele>
        <time>2019-02-07T10:29:01.000Z</time>
      </trkpt>
      <trkpt lat="43.6266" lon="6.84625">
        <ele>239</ele>
        <time>2019-02-07T10:29:02.000Z</time>
      </trkpt>
      <trkpt lat="43.62662" lon="6.84625">
        <ele>239</ele>
        <time>2019-02-07T10:29:03.000Z</time>
      </trkpt>
      <trkpt lat="43.62664" lon="6.84625">
        <ele>240</ele>
        <time>2019-02-07T10:29:04.000Z</time>
      </trkpt>
      <trkpt lat="43.62666" lon="6.84626">
        <ele>240</ele>
        <time>2019-02-07T10:29:05.000Z</time>
      </trkpt>
      <trkpt lat="43.62669" lon="6.84626">
        <ele>240</ele>
        <time>2019-02-07T10:29:06.000Z</time>
      </trkpt>
      <trkpt lat="43.62671" lon="6.84626">
        <ele>240</ele>
        <time>2019-02-07T10:29:07.000Z</time>
      </trkpt>
      <trkpt lat="43.62672" lon="6.84627">
        <ele>240</ele>
        <time>2019-02-07T10:29:08.000Z</time>
      </trkpt>
      <trkpt lat="43.62674" lon="6.84627">
        <ele>241</ele>
        <time>2019-02-07T10:29:09.000Z</time>
      </trkpt>
      <trkpt lat="43.62676" lon="6.84628">
        <ele>242</ele>
        <time>2019-02-07T10:29:10.000Z</time>
      </trkpt>
      <trkpt lat="43.62679" lon="6.84628">
        <ele>242</ele>
        <time>2019-02-07T10:29:11.000Z</time>
      </trkpt>
      <trkpt lat="43.62681" lon="6.84629">
        <ele>241</ele>
        <time>2019-02-07T10:29:12.000Z</time>
      </trkpt>
      <trkpt lat="43.62684" lon="6.8463">
        <ele>241</ele>
        <time>2019-02-07T10:29:13.000Z</time>
      </trkpt>
      <trkpt lat="43.62686" lon="6.8463">
        <ele>240</ele>
        <time>2019-02-07T10:29:14.000Z</time>
      </trkpt>
      <trkpt lat="43.62688" lon="6.8463">
        <ele>241</ele>
        <time>2019-02-07T10:29:15.000Z</time>
      </trkpt>
      <trkpt lat="43.6269" lon="6.84631">
        <ele>241</ele>
        <time>2019-02-07T10:29:16.000Z</time>
      </trkpt>
      <trkpt lat="43.62692" lon="6.84631">
        <ele>241</ele>
        <time>2019-02-07T10:29:17.000Z</time>
      </trkpt>
      <trkpt lat="43.62694" lon="6.84631">
        <ele>242</ele>
        <time>2019-02-07T10:29:18.000Z</time>
      </trkpt>
      <trkpt lat="43.62697" lon="6.84631">
        <ele>241</ele>
        <time>2019-02-07T10:29:19.000Z</time>
      </trkpt>
      <trkpt lat="43.62699" lon="6.84631">
        <ele>241</ele>
        <time>2019-02-07T10:29:20.000Z</time>
      </trkpt>
      <trkpt lat="43.62701" lon="6.8463">
        <ele>241</ele>
        <time>2019-02-07T10:29:21.000Z</time>
      </trkpt>
      <trkpt lat="43.62704" lon="6.8463">
        <ele>240</ele>
        <time>2019-02-07T10:29:22.000Z</time>
      </trkpt>
      <trkpt lat="43.62706" lon="6.8463">
        <ele>240</ele>
        <time>2019-02-07T10:29:23.000Z</time>
      </trkpt>
      <trkpt lat="43.62707" lon="6.8463">
        <ele>240</ele>
        <time>2019-02-07T10:29:24.000Z</time>
      </trkpt>
      <trkpt lat="43.62709" lon="6.84629">
        <ele>240</ele>
        <time>2019-02-07T10:29:25.000Z</time>
      </trkpt>
      <trkpt lat="43.62711" lon="6.84628">
        <ele>240</ele>
        <time>2019-02-07T10:29:26.000Z</time>
      </trkpt>
      <trkpt lat="43.62713" lon="6.84627">
        <ele>240</ele>
        <time>2019-02-07T10:29:27.000Z</time>
      </trkpt>
      <trkpt lat="43.62715" lon="6.84626">
        <ele>239</ele>
        <time>2019-02-07T10:29:28.000Z</time>
      </trkpt>
      <trkpt lat="43.62718" lon="6.84625">
        <ele>239</ele>
        <time>2019-02-07T10:29:29.000Z</time>
      </trkpt>
      <trkpt lat="43.62721" lon="6.84624">
        <ele>239</ele>
        <time>2019-02-07T10:29:30.000Z</time>
      </trkpt>
      <trkpt lat="43.62723" lon="6.84623">
        <ele>239</ele>
        <time>2019-02-07T10:29:31.000Z</time>
      </trkpt>
      <trkpt lat="43.62725" lon="6.84622">
        <ele>239</ele>
        <time>2019-02-07T10:29:32.000Z</time>
      </trkpt>
      <trkpt lat="43.62727" lon="6.84621">
        <ele>239</ele>
        <time>2019-02-07T10:29:33.000Z</time>
      </trkpt>
      <trkpt lat="43.6273" lon="6.8462">
        <ele>239</ele>
        <time>2019-02-07T10:29:34.000Z</time>
      </trkpt>
      <trkpt lat="43.62732" lon="6.84618">
        <ele>239</ele>
        <time>2019-02-07T10:29:35.000Z</time>
      </trkpt>
      <trkpt lat="43.62735" lon="6.84618">
        <ele>239</ele>
        <time>2019-02-07T10:29:36.000Z</time>
      </trkpt>
      <trkpt lat="43.62737" lon="6.84617">
        <ele>240</ele>
        <time>2019-02-07T10:29:37.000Z</time>
      </trkpt>
      <trkpt lat="43.6274" lon="6.84616">
        <ele>240</ele>
        <time>2019-02-07T10:29:38.000Z</time>
      </trkpt>
      <trkpt lat="43.62742" lon="6.84616">
        <ele>240</ele>
        <time>2019-02-07T10:29:39.000Z</time>
      </trkpt>
      <trkpt lat="43.62744" lon="6.84616">
        <ele>241</ele>
        <time>2019-02-07T10:29:40.000Z</time>
      </trkpt>
      <trkpt lat="43.62747" lon="6.84615">
        <ele>243</ele>
        <time>2019-02-07T10:29:41.000Z</time>
      </trkpt>
      <trkpt lat="43.62749" lon="6.84615">
        <ele>243</ele>
        <time>2019-02-07T10:29:42.000Z</time>
      </trkpt>
      <trkpt lat="43.62752" lon="6.84616">
        <ele>243</ele>
        <time>2019-02-07T10:29:43.000Z</time>
      </trkpt>
      <trkpt lat="43.62754" lon="6.84616">
        <ele>243</ele>
        <time>2019-02-07T10:29:44.000Z</time>
      </trkpt>
      <trkpt lat="43.62757" lon="6.84616">
        <ele>244</ele>
        <time>2019-02-07T10:29:45.000Z</time>
      </trkpt>
      <trkpt lat="43.62759" lon="6.84617">
        <ele>244</ele>
        <time>2019-02-07T10:29:46.000Z</time>
      </trkpt>
      <trkpt lat="43.62761" lon="6.84617">
        <ele>244</ele>
        <time>2019-02-07T10:29:47.000Z</time>
      </trkpt>
      <trkpt lat="43.62763" lon="6.84618">
        <ele>245</ele>
        <time>2019-02-07T10:29:48.000Z</time>
      </trkpt>
      <trkpt lat="43.62766" lon="6.84619">
        <ele>244</ele>
        <time>2019-02-07T10:29:49.000Z</time>
      </trkpt>
      <trkpt lat="43.62768" lon="6.8462">
        <ele>244</ele>
        <time>2019-02-07T10:29:50.000Z</time>
      </trkpt>
      <trkpt lat="43.6277" lon="6.84621">
        <ele>245</ele>
        <time>2019-02-07T10:29:51.000Z</time>
      </trkpt>
      <trkpt lat="43.62772" lon="6.84621">
        <ele>244</ele>
        <time>2019-02-07T10:29:52.000Z</time>
      </trkpt>
      <trkpt lat="43.62775" lon="6.84622">
        <ele>244</ele>
        <time>2019-02-07T10:29:53.000Z</time>
      </trkpt>
      <trkpt lat="43.62777" lon="6.84622">
        <ele>246</ele>
        <time>2019-02-07T10:29:54.000Z</time>
      </trkpt>
      <trkpt lat="43.62779" lon="6.84623">
        <ele>246</ele>
        <time>2019-02-07T10:29:55.000Z</time>
      </trkpt>
      <trkpt lat="43.62781" lon="6.84623">
        <ele>247</ele>
        <time>2019-02-07T10:29:56.000Z</time>
      </trkpt>
      <trkpt lat="43.62783" lon="6.84623">
        <ele>247</ele>
        <time>2019-02-07T10:29:57.000Z</time>
      </trkpt>
      <trkpt lat="43.62784" lon="6.84623">
        <ele>247</ele>
        <time>2019-02-07T10:29:58.000Z</time>
      </trkpt>
      <trkpt lat="43.62786" lon="6.84624">
        <ele>248</ele>
        <time>2019-02-07T10:29:59.000Z</time>
      </trkpt>
      <trkpt lat="43.62788" lon="6.84623">
        <ele>248</ele>
        <time>2019-02-07T10:30:00.000Z</time>
      </trkpt>
      <trkpt lat="43.6279" lon="6.84623">
        <ele>247</ele>
        <time>2019-02-07T10:30:01.000Z</time>
      </trkpt>
      <trkpt lat="43.62791" lon="6.84622">
        <ele>247</ele>
        <time>2019-02-07T10:30:02.000Z</time>
      </trkpt>
      <trkpt lat="43.62792" lon="6.84621">
        <ele>247</ele>
        <time>2019-02-07T10:30:03.000Z</time>
      </trkpt>
      <trkpt lat="43.62792" lon="6.84619">
        <ele>247</ele>
        <time>2019-02-07T10:30:04.000Z</time>
      </trkpt>
      <trkpt lat="43.62792" lon="6.84618">
        <ele>247</ele>
        <time>2019-02-07T10:30:05.000Z</time>
      </trkpt>
      <trkpt lat="43.62791" lon="6.84616">
        <ele>249</ele>
        <time>2019-02-07T10:30:06.000Z</time>
      </trkpt>
      <trkpt lat="43.6279" lon="6.84616">
        <ele>249</ele>
        <time>2019-02-07T10:30:07.000Z</time>
      </trkpt>
      <trkpt lat="43.62788" lon="6.84615">
        <ele>249</ele>
        <time>2019-02-07T10:30:08.000Z</time>
      </trkpt>
      <trkpt lat="43.62786" lon="6.84614">
        <ele>250</ele>
        <time>2019-02-07T10:30:09.000Z</time>
      </trkpt>
      <trkpt lat="43.62785" lon="6.84613">
        <ele>250</ele>
        <time>2019-02-07T10:30:10.000Z</time>
      </trkpt>
      <trkpt lat="43.62784" lon="6.84611">
        <ele>250</ele>
        <time>2019-02-07T10:30:11.000Z</time>
      </trkpt>
      <trkpt lat="43.62782" lon="6.8461">
        <ele>250</ele>
        <time>2019-02-07T10:30:12.000Z</time>
      </trkpt>
      <trkpt lat="43.62781" lon="6.84608">
        <ele>250</ele>
        <time>2019-02-07T10:30:13.000Z</time>
      </trkpt>
      <trkpt lat="43.6278" lon="6.84607">
        <ele>250</ele>
        <time>2019-02-07T10:30:14.000Z</time>
      </trkpt>
      <trkpt lat="43.62779" lon="6.84605">
        <ele>251</ele>
        <time>2019-02-07T10:30:15.000Z</time>
      </trkpt>
      <trkpt lat="43.62778" lon="6.84603">
        <ele>251</ele>
        <time>2019-02-07T10:30:16.000Z</time>
      </trkpt>
      <trkpt lat="43.62777" lon="6.84602">
        <ele>251</ele>
        <time>2019-02-07T10:30:17.000Z</time>
      </trkpt>
      <trkpt lat="43.62775" lon="6.846">
        <ele>252</ele>
        <time>2019-02-07T10:30:18.000Z</time>
      </trkpt>
      <trkpt lat="43.62775" lon="6.84598">
        <ele>251</ele>
        <time>2019-02-07T10:30:19.000Z</time>
      </trkpt>
      <trkpt lat="43.62774" lon="6.84596">
        <ele>251</ele>
        <time>2019-02-07T10:30:20.000Z</time>
      </trkpt>
      <trkpt lat="43.62774" lon="6.84593">
        <ele>251</ele>
        <time>2019-02-07T10:30:21.000Z</time>
      </trkpt>
      <trkpt lat="43.62773" lon="6.84591">
        <ele>251</ele>
        <time>2019-02-07T10:30:22.000Z</time>
      </trkpt>
      <trkpt lat="43.62773" lon="6.84589">
        <ele>251</ele>
        <time>2019-02-07T10:30:23.000Z</time>
      </trkpt>
      <trkpt lat="43.62773" lon="6.84586">
        <ele>251</ele>
        <time>2019-02-07T10:30:24.000Z</time>
      </trkpt>
      <trkpt lat="43.62773" lon="6.84584">
        <ele>251</ele>
        <time>2019-02-07T10:30:25.000Z</time>
      </trkpt>
      <trkpt lat="43.62773" lon="6.84581">
        <ele>251</ele>
        <time>2019-02-07T10:30:26.000Z</time>
      </trkpt>
      <trkpt lat="43.62773" lon="6.84578">
        <ele>251</ele>
        <time>2019-02-07T10:30:27.000Z</time>
      </trkpt>
      <trkpt lat="43.62773" lon="6.84575">
        <ele>251</ele>
        <time>2019-02-07T10:30:28.000Z</time>
      </trkpt>
      <trkpt lat="43.62773" lon="6.84573">
        <ele>252</ele>
        <time>2019-02-07T10:30:29.000Z</time>
      </trkpt>
      <trkpt lat="43.62774" lon="6.8457">
        <ele>251</ele>
        <time>2019-02-07T10:30:30.000Z</time>
      </trkpt>
      <trkpt lat="43.62774" lon="6.84567">
        <ele>252</ele>
        <time>2019-02-07T10:30:31.000Z</time>
      </trkpt>
      <trkpt lat="43.62774" lon="6.84565">
        <ele>252</ele>
        <time>2019-02-07T10:30:32.000Z</time>
      </trkpt>
      <trkpt lat="43.62775" lon="6.84563">
        <ele>252</ele>
        <time>2019-02-07T10:30:33.000Z</time>
      </trkpt>
      <trkpt lat="43.62775" lon="6.84562">
        <ele>252</ele>
        <time>2019-02-07T10:30:34.000Z</time>
      </trkpt>
      <trkpt lat="43.62776" lon="6.8456">
        <ele>253</ele>
        <time>2019-02-07T10:30:35.000Z</time>
      </trkpt>
      <trkpt lat="43.62776" lon="6.84559">
        <ele>253</ele>
        <time>2019-02-07T10:30:36.000Z</time>
      </trkpt>
      <trkpt lat="43.62776" lon="6.84557">
        <ele>253</ele>
        <time>2019-02-07T10:30:37.000Z</time>
      </trkpt>
      <trkpt lat="43.62777" lon="6.84556">
        <ele>253</ele>
        <time>2019-02-07T10:30:38.000Z</time>
      </trkpt>
      <trkpt lat="43.62777" lon="6.84555">
        <ele>253</ele>
        <time>2019-02-07T10:30:39.000Z</time>
      </trkpt>
      <trkpt lat="43.62777" lon="6.84554">
        <ele>254</ele>
        <time>2019-02-07T10:30:40.000Z</time>
      </trkpt>
      <trkpt lat="43.62777" lon="6.84554">
        <ele>253</ele>
        <time>2019-02-07T10:30:41.000Z</time>
      </trkpt>
      <trkpt lat="43.62777" lon="6.84553">
        <ele>254</ele>
        <time>2019-02-07T10:30:42.000Z</time>
      </trkpt>
      <trkpt lat="43.62777" lon="6.84553">
        <ele>254</ele>
        <time>2019-02-07T10:30:43.000Z</time>
      </trkpt>
      <trkpt lat="43.62777" lon="6.84553">
        <ele>254</ele>
        <time>2019-02-07T10:30:44.000Z</time>
      </trkpt>
      <trkpt lat="43.62778" lon="6.84553">
        <ele>254</ele>
        <time>2019-02-07T10:30:45.000Z</time>
      </trkpt>
      <trkpt lat="43.62778" lon="6.84553">
        <ele>254</ele>
        <time>2019-02-07T10:30:46.000Z</time>
      </trkpt>
      <trkpt lat="43.62778" lon="6.84552">
        <ele>255</ele>
        <time>2019-02-07T10:30:47.000Z</time>
      </trkpt>
      <trkpt lat="43.62778" lon="6.84552">
        <ele>255</ele>
        <time>2019-02-07T10:30:48.000Z</time>
      </trkpt>
      <trkpt lat="43.62779" lon="6.84551">
        <ele>255</ele>
        <time>2019-02-07T10:30:49.000Z</time>
      </trkpt>
      <trkpt lat="43.62779" lon="6.84551">
        <ele>255</ele>
        <time>2019-02-07T10:30:50.000Z</time>
      </trkpt>
      <trkpt lat="43.6278" lon="6.84551">
        <ele>255</ele>
        <time>2019-02-07T10:30:51.000Z</time>
      </trkpt>
      <trkpt lat="43.6278" lon="6.8455">
        <ele>255</ele>
        <time>2019-02-07T10:30:52.000Z</time>
      </trkpt>
      <trkpt lat="43.6278" lon="6.8455">
        <ele>255</ele>
        <time>2019-02-07T10:30:53.000Z</time>
      </trkpt>
      <trkpt lat="43.62781" lon="6.8455">
        <ele>255</ele>
        <time>2019-02-07T10:30:54.000Z</time>
      </trkpt>
      <trkpt lat="43.62781" lon="6.8455">
        <ele>255</ele>
        <time>2019-02-07T10:30:55.000Z</time>
      </trkpt>
      <trkpt lat="43.62782" lon="6.8455">
        <ele>255</ele>
        <time>2019-02-07T10:30:56.000Z</time>
      </trkpt>
      <trkpt lat="43.62782" lon="6.8455">
        <ele>255</ele>
        <time>2019-02-07T10:30:57.000Z</time>
      </trkpt>
      <trkpt lat="43.62782" lon="6.8455">
        <ele>255</ele>
        <time>2019-02-07T10:30:58.000Z</time>
      </trkpt>
      <trkpt lat="43.62783" lon="6.8455">
        <ele>255</ele>
        <time>2019-02-07T10:30:59.000Z</time>
      </trkpt>
      <trkpt lat="43.62783" lon="6.84549">
        <ele>255</ele>
        <time>2019-02-07T10:31:00.000Z</time>
      </trkpt>
      <trkpt lat="43.62783" lon="6.84549">
        <ele>255</ele>
        <time>2019-02-07T10:31:01.000Z</time>
      </trkpt>
      <trkpt lat="43.62784" lon="6.84549">
        <ele>255</ele>
        <time>2019-02-07T10:31:02.000Z</time>
      </trkpt>
      <trkpt lat="43.62784" lon="6.84548">
        <ele>255</ele>
        <time>2019-02-07T10:31:03.000Z</time>
      </trkpt>
      <trkpt lat="43.62784" lon="6.84548">
        <ele>255</ele>
        <time>2019-02-07T10:31:04.000Z</time>
      </trkpt>
      <trkpt lat="43.62784" lon="6.84548">
        <ele>255</ele>
        <time>2019-02-07T10:31:05.000Z</time>
      </trkpt>
    </trkseg>
  </trk>
</gpx>